<?xml version="1.0" encoding="UTF-8" standalone="no" ?>
<gpx xmlns="http://www.topografix.com/GPX/1/1" xmlns:xsi="http://www.w3.org/2001/XMLSchema-instance" xsi:schemaLocation="http://www.topografix.com/GPX/1/1 http://www.topografix.com/GPX/1/1/gpx.xsd" version="1.1" creator="VisuGPX - https://www.visugpx.com">
  <metadata>
    <name>Traces 2022</name>
    <desc><![CDATA[8 traces potentielles pour la sortie 2022 !]]></desc>
  </metadata>
  <trk>
    <name><![CDATA[Trace 5]]></name>
    <desc><![CDATA[Larzac: buissières, pied, hameau troglodyte, retour Millau.]]></desc>
    <extensions>
      <line xmlns="http://www.topografix.com/GPX/gpx_style/0/2">
        <color>0000FF</color>
        <width>4</width>
          <extensions>
            <sens>1</sens>
          </extensions>
      </line>
    </extensions>
    <trkseg>
      <trkpt lat="44.07211" lon="3.06413">
        <ele>725.4</ele>
        <time>2019-05-31T08:50:47Z</time>
      </trkpt>
      <trkpt lat="44.07213" lon="3.06412">
        <ele>725.4</ele>
        <time>2019-05-31T08:51:08Z</time>
      </trkpt>
      <trkpt lat="44.07213" lon="3.06416">
        <ele>725.4</ele>
        <time>2019-05-31T08:52:41Z</time>
      </trkpt>
      <trkpt lat="44.07213" lon="3.06423">
        <ele>725.4</ele>
        <time>2019-05-31T08:52:43Z</time>
      </trkpt>
      <trkpt lat="44.07215" lon="3.06426">
        <ele>725.3</ele>
        <time>2019-05-31T08:52:45Z</time>
      </trkpt>
      <trkpt lat="44.07218" lon="3.0643">
        <ele>725.3</ele>
        <time>2019-05-31T08:52:48Z</time>
      </trkpt>
      <trkpt lat="44.0722" lon="3.06433">
        <ele>725.3</ele>
        <time>2019-05-31T08:52:50Z</time>
      </trkpt>
      <trkpt lat="44.07223" lon="3.06438">
        <ele>725</ele>
        <time>2019-05-31T08:52:52Z</time>
      </trkpt>
      <trkpt lat="44.07226" lon="3.06444">
        <ele>724.6</ele>
        <time>2019-05-31T08:52:54Z</time>
      </trkpt>
      <trkpt lat="44.07228" lon="3.06447">
        <ele>724.4</ele>
        <time>2019-05-31T08:52:55Z</time>
      </trkpt>
      <trkpt lat="44.0723" lon="3.0645">
        <ele>724.2</ele>
        <time>2019-05-31T08:52:56Z</time>
      </trkpt>
      <trkpt lat="44.07232" lon="3.06453">
        <ele>724</ele>
        <time>2019-05-31T08:52:57Z</time>
      </trkpt>
      <trkpt lat="44.07234" lon="3.06456">
        <ele>723.8</ele>
        <time>2019-05-31T08:52:58Z</time>
      </trkpt>
      <trkpt lat="44.07236" lon="3.06459">
        <ele>723.5</ele>
        <time>2019-05-31T08:52:59Z</time>
      </trkpt>
      <trkpt lat="44.07238" lon="3.06462">
        <ele>723.3</ele>
        <time>2019-05-31T08:53:00Z</time>
      </trkpt>
      <trkpt lat="44.0724" lon="3.06464">
        <ele>723</ele>
        <time>2019-05-31T08:53:01Z</time>
      </trkpt>
      <trkpt lat="44.07242" lon="3.06467">
        <ele>722.8</ele>
        <time>2019-05-31T08:53:02Z</time>
      </trkpt>
      <trkpt lat="44.07245" lon="3.06469">
        <ele>722.4</ele>
        <time>2019-05-31T08:53:03Z</time>
      </trkpt>
      <trkpt lat="44.07247" lon="3.06472">
        <ele>722.1</ele>
        <time>2019-05-31T08:53:04Z</time>
      </trkpt>
      <trkpt lat="44.0725" lon="3.06475">
        <ele>721.7</ele>
        <time>2019-05-31T08:53:05Z</time>
      </trkpt>
      <trkpt lat="44.07254" lon="3.06477">
        <ele>721.2</ele>
        <time>2019-05-31T08:53:06Z</time>
      </trkpt>
      <trkpt lat="44.07257" lon="3.0648">
        <ele>720.8</ele>
        <time>2019-05-31T08:53:07Z</time>
      </trkpt>
      <trkpt lat="44.0726" lon="3.06483">
        <ele>720.3</ele>
        <time>2019-05-31T08:53:08Z</time>
      </trkpt>
      <trkpt lat="44.07263" lon="3.06486">
        <ele>719.8</ele>
        <time>2019-05-31T08:53:09Z</time>
      </trkpt>
      <trkpt lat="44.07266" lon="3.06489">
        <ele>719.3</ele>
        <time>2019-05-31T08:53:10Z</time>
      </trkpt>
      <trkpt lat="44.07269" lon="3.06493">
        <ele>718.8</ele>
        <time>2019-05-31T08:53:11Z</time>
      </trkpt>
      <trkpt lat="44.07272" lon="3.06498">
        <ele>718.4</ele>
        <time>2019-05-31T08:53:12Z</time>
      </trkpt>
      <trkpt lat="44.07275" lon="3.06504">
        <ele>718</ele>
        <time>2019-05-31T08:53:13Z</time>
      </trkpt>
      <trkpt lat="44.07279" lon="3.0651">
        <ele>717.6</ele>
        <time>2019-05-31T08:53:14Z</time>
      </trkpt>
      <trkpt lat="44.07283" lon="3.06515">
        <ele>717.2</ele>
        <time>2019-05-31T08:53:15Z</time>
      </trkpt>
      <trkpt lat="44.07288" lon="3.0652">
        <ele>716.9</ele>
        <time>2019-05-31T08:53:16Z</time>
      </trkpt>
      <trkpt lat="44.07292" lon="3.06526">
        <ele>716.6</ele>
        <time>2019-05-31T08:53:17Z</time>
      </trkpt>
      <trkpt lat="44.07298" lon="3.06533">
        <ele>716</ele>
        <time>2019-05-31T08:53:18Z</time>
      </trkpt>
      <trkpt lat="44.07304" lon="3.0654">
        <ele>715.5</ele>
        <time>2019-05-31T08:53:19Z</time>
      </trkpt>
      <trkpt lat="44.07309" lon="3.0655">
        <ele>714.9</ele>
        <time>2019-05-31T08:53:20Z</time>
      </trkpt>
      <trkpt lat="44.07313" lon="3.06559">
        <ele>714.6</ele>
        <time>2019-05-31T08:53:21Z</time>
      </trkpt>
      <trkpt lat="44.07315" lon="3.0657">
        <ele>714.1</ele>
        <time>2019-05-31T08:53:22Z</time>
      </trkpt>
      <trkpt lat="44.07316" lon="3.06582">
        <ele>713.7</ele>
        <time>2019-05-31T08:53:23Z</time>
      </trkpt>
      <trkpt lat="44.07317" lon="3.06595">
        <ele>713.2</ele>
        <time>2019-05-31T08:53:24Z</time>
      </trkpt>
      <trkpt lat="44.07315" lon="3.06607">
        <ele>712.7</ele>
        <time>2019-05-31T08:53:25Z</time>
      </trkpt>
      <trkpt lat="44.07314" lon="3.06619">
        <ele>712.2</ele>
        <time>2019-05-31T08:53:26Z</time>
      </trkpt>
      <trkpt lat="44.07315" lon="3.06631">
        <ele>711.8</ele>
        <time>2019-05-31T08:53:27Z</time>
      </trkpt>
      <trkpt lat="44.07317" lon="3.06642">
        <ele>711.4</ele>
        <time>2019-05-31T08:53:28Z</time>
      </trkpt>
      <trkpt lat="44.07319" lon="3.06653">
        <ele>711.1</ele>
        <time>2019-05-31T08:53:29Z</time>
      </trkpt>
      <trkpt lat="44.07322" lon="3.06665">
        <ele>710.9</ele>
        <time>2019-05-31T08:53:30Z</time>
      </trkpt>
      <trkpt lat="44.07324" lon="3.06676">
        <ele>710.8</ele>
        <time>2019-05-31T08:53:31Z</time>
      </trkpt>
      <trkpt lat="44.07326" lon="3.06686">
        <ele>710.8</ele>
        <time>2019-05-31T08:53:32Z</time>
      </trkpt>
      <trkpt lat="44.07328" lon="3.06698">
        <ele>710.8</ele>
        <time>2019-05-31T08:53:33Z</time>
      </trkpt>
      <trkpt lat="44.07329" lon="3.0671">
        <ele>710.8</ele>
        <time>2019-05-31T08:53:34Z</time>
      </trkpt>
      <trkpt lat="44.07329" lon="3.0672">
        <ele>710.8</ele>
        <time>2019-05-31T08:53:35Z</time>
      </trkpt>
      <trkpt lat="44.07331" lon="3.06729">
        <ele>710.7</ele>
        <time>2019-05-31T08:53:36Z</time>
      </trkpt>
      <trkpt lat="44.07335" lon="3.06736">
        <ele>710.6</ele>
        <time>2019-05-31T08:53:37Z</time>
      </trkpt>
      <trkpt lat="44.07338" lon="3.06742">
        <ele>710.6</ele>
        <time>2019-05-31T08:53:38Z</time>
      </trkpt>
      <trkpt lat="44.07342" lon="3.06746">
        <ele>710.5</ele>
        <time>2019-05-31T08:53:39Z</time>
      </trkpt>
      <trkpt lat="44.07346" lon="3.0675">
        <ele>710.6</ele>
        <time>2019-05-31T08:53:40Z</time>
      </trkpt>
      <trkpt lat="44.0735" lon="3.06755">
        <ele>710.6</ele>
        <time>2019-05-31T08:53:41Z</time>
      </trkpt>
      <trkpt lat="44.07354" lon="3.0676">
        <ele>710.7</ele>
        <time>2019-05-31T08:53:42Z</time>
      </trkpt>
      <trkpt lat="44.07356" lon="3.06764">
        <ele>710.8</ele>
        <time>2019-05-31T08:53:43Z</time>
      </trkpt>
      <trkpt lat="44.07359" lon="3.06769">
        <ele>710.8</ele>
        <time>2019-05-31T08:53:44Z</time>
      </trkpt>
      <trkpt lat="44.07362" lon="3.06774">
        <ele>710.9</ele>
        <time>2019-05-31T08:53:45Z</time>
      </trkpt>
      <trkpt lat="44.07363" lon="3.06778">
        <ele>710.9</ele>
        <time>2019-05-31T08:53:46Z</time>
      </trkpt>
      <trkpt lat="44.07365" lon="3.06783">
        <ele>710.9</ele>
        <time>2019-05-31T08:53:47Z</time>
      </trkpt>
      <trkpt lat="44.07368" lon="3.06787">
        <ele>710.9</ele>
        <time>2019-05-31T08:53:48Z</time>
      </trkpt>
      <trkpt lat="44.0737" lon="3.06791">
        <ele>711</ele>
        <time>2019-05-31T08:53:49Z</time>
      </trkpt>
      <trkpt lat="44.07372" lon="3.06796">
        <ele>711</ele>
        <time>2019-05-31T08:53:50Z</time>
      </trkpt>
      <trkpt lat="44.07375" lon="3.06801">
        <ele>711</ele>
        <time>2019-05-31T08:53:51Z</time>
      </trkpt>
      <trkpt lat="44.07378" lon="3.06804">
        <ele>710.9</ele>
        <time>2019-05-31T08:53:52Z</time>
      </trkpt>
      <trkpt lat="44.0738" lon="3.06808">
        <ele>710.9</ele>
        <time>2019-05-31T08:53:53Z</time>
      </trkpt>
      <trkpt lat="44.07384" lon="3.06812">
        <ele>710.9</ele>
        <time>2019-05-31T08:53:54Z</time>
      </trkpt>
      <trkpt lat="44.07387" lon="3.06816">
        <ele>710.8</ele>
        <time>2019-05-31T08:53:55Z</time>
      </trkpt>
      <trkpt lat="44.0739" lon="3.06818">
        <ele>710.7</ele>
        <time>2019-05-31T08:53:56Z</time>
      </trkpt>
      <trkpt lat="44.07393" lon="3.06823">
        <ele>710.6</ele>
        <time>2019-05-31T08:53:58Z</time>
      </trkpt>
      <trkpt lat="44.07396" lon="3.06828">
        <ele>710.4</ele>
        <time>2019-05-31T08:54:00Z</time>
      </trkpt>
      <trkpt lat="44.07398" lon="3.06831">
        <ele>710.3</ele>
        <time>2019-05-31T08:54:01Z</time>
      </trkpt>
      <trkpt lat="44.074" lon="3.06834">
        <ele>710.1</ele>
        <time>2019-05-31T08:54:02Z</time>
      </trkpt>
      <trkpt lat="44.07404" lon="3.06838">
        <ele>709.9</ele>
        <time>2019-05-31T08:54:04Z</time>
      </trkpt>
      <trkpt lat="44.07406" lon="3.06841">
        <ele>709.8</ele>
        <time>2019-05-31T08:54:05Z</time>
      </trkpt>
      <trkpt lat="44.07409" lon="3.06844">
        <ele>709.7</ele>
        <time>2019-05-31T08:54:06Z</time>
      </trkpt>
      <trkpt lat="44.07412" lon="3.06847">
        <ele>709.5</ele>
        <time>2019-05-31T08:54:07Z</time>
      </trkpt>
      <trkpt lat="44.07417" lon="3.06852">
        <ele>709.3</ele>
        <time>2019-05-31T08:54:08Z</time>
      </trkpt>
      <trkpt lat="44.07421" lon="3.06858">
        <ele>709.1</ele>
        <time>2019-05-31T08:54:09Z</time>
      </trkpt>
      <trkpt lat="44.07425" lon="3.06862">
        <ele>708.9</ele>
        <time>2019-05-31T08:54:10Z</time>
      </trkpt>
      <trkpt lat="44.07428" lon="3.06867">
        <ele>708.8</ele>
        <time>2019-05-31T08:54:11Z</time>
      </trkpt>
      <trkpt lat="44.07432" lon="3.06872">
        <ele>708.6</ele>
        <time>2019-05-31T08:54:12Z</time>
      </trkpt>
      <trkpt lat="44.07436" lon="3.06878">
        <ele>708.4</ele>
        <time>2019-05-31T08:54:13Z</time>
      </trkpt>
      <trkpt lat="44.07439" lon="3.06884">
        <ele>708.2</ele>
        <time>2019-05-31T08:54:14Z</time>
      </trkpt>
      <trkpt lat="44.07442" lon="3.0689">
        <ele>708</ele>
        <time>2019-05-31T08:54:15Z</time>
      </trkpt>
      <trkpt lat="44.07444" lon="3.06896">
        <ele>707.8</ele>
        <time>2019-05-31T08:54:16Z</time>
      </trkpt>
      <trkpt lat="44.07446" lon="3.06906">
        <ele>707.6</ele>
        <time>2019-05-31T08:54:17Z</time>
      </trkpt>
      <trkpt lat="44.07448" lon="3.06914">
        <ele>707.5</ele>
        <time>2019-05-31T08:54:18Z</time>
      </trkpt>
      <trkpt lat="44.07452" lon="3.0692">
        <ele>707.4</ele>
        <time>2019-05-31T08:54:19Z</time>
      </trkpt>
      <trkpt lat="44.07456" lon="3.06923">
        <ele>707.4</ele>
        <time>2019-05-31T08:54:20Z</time>
      </trkpt>
      <trkpt lat="44.07459" lon="3.06926">
        <ele>707.5</ele>
        <time>2019-05-31T08:54:21Z</time>
      </trkpt>
      <trkpt lat="44.07468" lon="3.06929">
        <ele>707.7</ele>
        <time>2019-05-31T08:54:22Z</time>
      </trkpt>
      <trkpt lat="44.07472" lon="3.06925">
        <ele>707.8</ele>
        <time>2019-05-31T08:54:23Z</time>
      </trkpt>
      <trkpt lat="44.07478" lon="3.0692">
        <ele>708.1</ele>
        <time>2019-05-31T08:54:24Z</time>
      </trkpt>
      <trkpt lat="44.07482" lon="3.06917">
        <ele>708.3</ele>
        <time>2019-05-31T08:54:25Z</time>
      </trkpt>
      <trkpt lat="44.07485" lon="3.06915">
        <ele>707.6</ele>
        <time>2019-05-31T08:54:26Z</time>
      </trkpt>
      <trkpt lat="44.07487" lon="3.06914">
        <ele>707.2</ele>
        <time>2019-05-31T08:54:28Z</time>
      </trkpt>
      <trkpt lat="44.07492" lon="3.06912">
        <ele>706.6</ele>
        <time>2019-05-31T08:54:30Z</time>
      </trkpt>
      <trkpt lat="44.07497" lon="3.06909">
        <ele>705.8</ele>
        <time>2019-05-31T08:54:32Z</time>
      </trkpt>
      <trkpt lat="44.075" lon="3.06904">
        <ele>705.1</ele>
        <time>2019-05-31T08:54:34Z</time>
      </trkpt>
      <trkpt lat="44.07502" lon="3.06898">
        <ele>704.3</ele>
        <time>2019-05-31T08:54:36Z</time>
      </trkpt>
      <trkpt lat="44.07504" lon="3.06891">
        <ele>703.6</ele>
        <time>2019-05-31T08:54:38Z</time>
      </trkpt>
      <trkpt lat="44.07505" lon="3.06887">
        <ele>703.2</ele>
        <time>2019-05-31T08:54:39Z</time>
      </trkpt>
      <trkpt lat="44.07505" lon="3.06883">
        <ele>702.7</ele>
        <time>2019-05-31T08:54:40Z</time>
      </trkpt>
      <trkpt lat="44.07507" lon="3.06877">
        <ele>701.9</ele>
        <time>2019-05-31T08:54:42Z</time>
      </trkpt>
      <trkpt lat="44.07507" lon="3.06873">
        <ele>701.4</ele>
        <time>2019-05-31T08:54:43Z</time>
      </trkpt>
      <trkpt lat="44.07508" lon="3.06869">
        <ele>700.9</ele>
        <time>2019-05-31T08:54:44Z</time>
      </trkpt>
      <trkpt lat="44.07508" lon="3.06865">
        <ele>700.5</ele>
        <time>2019-05-31T08:54:45Z</time>
      </trkpt>
      <trkpt lat="44.07509" lon="3.06861">
        <ele>700</ele>
        <time>2019-05-31T08:54:46Z</time>
      </trkpt>
      <trkpt lat="44.0751" lon="3.06857">
        <ele>699.5</ele>
        <time>2019-05-31T08:54:47Z</time>
      </trkpt>
      <trkpt lat="44.0751" lon="3.06853">
        <ele>699</ele>
        <time>2019-05-31T08:54:48Z</time>
      </trkpt>
      <trkpt lat="44.07511" lon="3.06849">
        <ele>698.5</ele>
        <time>2019-05-31T08:54:49Z</time>
      </trkpt>
      <trkpt lat="44.07511" lon="3.06844">
        <ele>698</ele>
        <time>2019-05-31T08:54:50Z</time>
      </trkpt>
      <trkpt lat="44.07512" lon="3.0684">
        <ele>697.6</ele>
        <time>2019-05-31T08:54:51Z</time>
      </trkpt>
      <trkpt lat="44.07513" lon="3.06835">
        <ele>697.1</ele>
        <time>2019-05-31T08:54:52Z</time>
      </trkpt>
      <trkpt lat="44.07513" lon="3.0683">
        <ele>696.6</ele>
        <time>2019-05-31T08:54:53Z</time>
      </trkpt>
      <trkpt lat="44.07514" lon="3.06825">
        <ele>696.3</ele>
        <time>2019-05-31T08:54:54Z</time>
      </trkpt>
      <trkpt lat="44.07513" lon="3.06821">
        <ele>696</ele>
        <time>2019-05-31T08:54:55Z</time>
      </trkpt>
      <trkpt lat="44.07513" lon="3.06813">
        <ele>695.4</ele>
        <time>2019-05-31T08:54:57Z</time>
      </trkpt>
      <trkpt lat="44.07514" lon="3.06806">
        <ele>696</ele>
        <time>2019-05-31T08:54:59Z</time>
      </trkpt>
      <trkpt lat="44.07515" lon="3.06802">
        <ele>696.3</ele>
        <time>2019-05-31T08:55:00Z</time>
      </trkpt>
      <trkpt lat="44.07517" lon="3.06799">
        <ele>696.5</ele>
        <time>2019-05-31T08:55:01Z</time>
      </trkpt>
      <trkpt lat="44.07519" lon="3.06795">
        <ele>696.7</ele>
        <time>2019-05-31T08:55:02Z</time>
      </trkpt>
      <trkpt lat="44.07521" lon="3.06792">
        <ele>696.9</ele>
        <time>2019-05-31T08:55:03Z</time>
      </trkpt>
      <trkpt lat="44.07525" lon="3.06788">
        <ele>697.2</ele>
        <time>2019-05-31T08:55:05Z</time>
      </trkpt>
      <trkpt lat="44.07529" lon="3.06786">
        <ele>697.4</ele>
        <time>2019-05-31T08:55:07Z</time>
      </trkpt>
      <trkpt lat="44.07532" lon="3.06785">
        <ele>697.4</ele>
        <time>2019-05-31T08:55:09Z</time>
      </trkpt>
      <trkpt lat="44.07535" lon="3.06784">
        <ele>697.3</ele>
        <time>2019-05-31T08:55:12Z</time>
      </trkpt>
      <trkpt lat="44.07537" lon="3.06792">
        <ele>697.2</ele>
        <time>2019-05-31T08:56:18Z</time>
      </trkpt>
      <trkpt lat="44.07538" lon="3.06788">
        <ele>697</ele>
        <time>2019-05-31T08:59:44Z</time>
      </trkpt>
      <trkpt lat="44.07541" lon="3.06785">
        <ele>696.6</ele>
        <time>2019-05-31T08:59:59Z</time>
      </trkpt>
      <trkpt lat="44.07544" lon="3.06783">
        <ele>696.3</ele>
        <time>2019-05-31T09:00:02Z</time>
      </trkpt>
      <trkpt lat="44.07547" lon="3.06782">
        <ele>696.1</ele>
        <time>2019-05-31T09:00:05Z</time>
      </trkpt>
      <trkpt lat="44.0755" lon="3.06781">
        <ele>695.8</ele>
        <time>2019-05-31T09:00:08Z</time>
      </trkpt>
      <trkpt lat="44.07553" lon="3.0678">
        <ele>695.5</ele>
        <time>2019-05-31T09:00:11Z</time>
      </trkpt>
      <trkpt lat="44.07557" lon="3.06779">
        <ele>695.2</ele>
        <time>2019-05-31T09:00:14Z</time>
      </trkpt>
      <trkpt lat="44.07561" lon="3.06779">
        <ele>694.9</ele>
        <time>2019-05-31T09:00:16Z</time>
      </trkpt>
      <trkpt lat="44.07566" lon="3.06779">
        <ele>694.7</ele>
        <time>2019-05-31T09:00:18Z</time>
      </trkpt>
      <trkpt lat="44.0757" lon="3.06779">
        <ele>694.6</ele>
        <time>2019-05-31T09:00:19Z</time>
      </trkpt>
      <trkpt lat="44.07573" lon="3.06779">
        <ele>694.5</ele>
        <time>2019-05-31T09:00:20Z</time>
      </trkpt>
      <trkpt lat="44.07577" lon="3.06779">
        <ele>694.4</ele>
        <time>2019-05-31T09:00:21Z</time>
      </trkpt>
      <trkpt lat="44.07581" lon="3.06779">
        <ele>694.4</ele>
        <time>2019-05-31T09:00:22Z</time>
      </trkpt>
      <trkpt lat="44.07585" lon="3.06779">
        <ele>694.3</ele>
        <time>2019-05-31T09:00:23Z</time>
      </trkpt>
      <trkpt lat="44.07591" lon="3.06782">
        <ele>694.2</ele>
        <time>2019-05-31T09:00:24Z</time>
      </trkpt>
      <trkpt lat="44.07595" lon="3.06784">
        <ele>694.1</ele>
        <time>2019-05-31T09:00:25Z</time>
      </trkpt>
      <trkpt lat="44.07601" lon="3.06786">
        <ele>693.9</ele>
        <time>2019-05-31T09:00:26Z</time>
      </trkpt>
      <trkpt lat="44.07606" lon="3.06789">
        <ele>693.7</ele>
        <time>2019-05-31T09:00:27Z</time>
      </trkpt>
      <trkpt lat="44.07612" lon="3.06793">
        <ele>693.5</ele>
        <time>2019-05-31T09:00:28Z</time>
      </trkpt>
      <trkpt lat="44.07616" lon="3.06798">
        <ele>693.3</ele>
        <time>2019-05-31T09:00:29Z</time>
      </trkpt>
      <trkpt lat="44.0762" lon="3.06803">
        <ele>693.2</ele>
        <time>2019-05-31T09:00:30Z</time>
      </trkpt>
      <trkpt lat="44.07624" lon="3.06807">
        <ele>693</ele>
        <time>2019-05-31T09:00:31Z</time>
      </trkpt>
      <trkpt lat="44.07628" lon="3.06809">
        <ele>692.9</ele>
        <time>2019-05-31T09:00:32Z</time>
      </trkpt>
      <trkpt lat="44.07633" lon="3.06812">
        <ele>692.9</ele>
        <time>2019-05-31T09:00:33Z</time>
      </trkpt>
      <trkpt lat="44.07637" lon="3.06814">
        <ele>692.8</ele>
        <time>2019-05-31T09:00:34Z</time>
      </trkpt>
      <trkpt lat="44.07642" lon="3.06816">
        <ele>692.7</ele>
        <time>2019-05-31T09:00:35Z</time>
      </trkpt>
      <trkpt lat="44.07645" lon="3.06818">
        <ele>692.7</ele>
        <time>2019-05-31T09:00:36Z</time>
      </trkpt>
      <trkpt lat="44.07649" lon="3.06819">
        <ele>692.7</ele>
        <time>2019-05-31T09:00:37Z</time>
      </trkpt>
      <trkpt lat="44.07653" lon="3.0682">
        <ele>692.7</ele>
        <time>2019-05-31T09:00:38Z</time>
      </trkpt>
      <trkpt lat="44.07657" lon="3.06821">
        <ele>692.8</ele>
        <time>2019-05-31T09:00:39Z</time>
      </trkpt>
      <trkpt lat="44.0766" lon="3.06819">
        <ele>692.9</ele>
        <time>2019-05-31T09:00:40Z</time>
      </trkpt>
      <trkpt lat="44.07664" lon="3.06818">
        <ele>693</ele>
        <time>2019-05-31T09:00:41Z</time>
      </trkpt>
      <trkpt lat="44.07667" lon="3.06817">
        <ele>693.2</ele>
        <time>2019-05-31T09:00:42Z</time>
      </trkpt>
      <trkpt lat="44.07672" lon="3.06816">
        <ele>693.4</ele>
        <time>2019-05-31T09:00:44Z</time>
      </trkpt>
      <trkpt lat="44.07675" lon="3.06814">
        <ele>693.7</ele>
        <time>2019-05-31T09:00:45Z</time>
      </trkpt>
      <trkpt lat="44.07679" lon="3.06809">
        <ele>694.2</ele>
        <time>2019-05-31T09:00:47Z</time>
      </trkpt>
      <trkpt lat="44.07681" lon="3.06806">
        <ele>694.6</ele>
        <time>2019-05-31T09:00:48Z</time>
      </trkpt>
      <trkpt lat="44.07684" lon="3.06802">
        <ele>695</ele>
        <time>2019-05-31T09:00:50Z</time>
      </trkpt>
      <trkpt lat="44.07688" lon="3.06797">
        <ele>695.6</ele>
        <time>2019-05-31T09:00:52Z</time>
      </trkpt>
      <trkpt lat="44.07692" lon="3.06793">
        <ele>695.9</ele>
        <time>2019-05-31T09:00:54Z</time>
      </trkpt>
      <trkpt lat="44.07695" lon="3.06787">
        <ele>696.3</ele>
        <time>2019-05-31T09:00:56Z</time>
      </trkpt>
      <trkpt lat="44.07697" lon="3.06784">
        <ele>696.6</ele>
        <time>2019-05-31T09:00:57Z</time>
      </trkpt>
      <trkpt lat="44.077" lon="3.06779">
        <ele>697.1</ele>
        <time>2019-05-31T09:00:59Z</time>
      </trkpt>
      <trkpt lat="44.07702" lon="3.06776">
        <ele>697.3</ele>
        <time>2019-05-31T09:01:00Z</time>
      </trkpt>
      <trkpt lat="44.07705" lon="3.06774">
        <ele>697.6</ele>
        <time>2019-05-31T09:01:01Z</time>
      </trkpt>
      <trkpt lat="44.07709" lon="3.0677">
        <ele>698</ele>
        <time>2019-05-31T09:01:03Z</time>
      </trkpt>
      <trkpt lat="44.07712" lon="3.06765">
        <ele>698.4</ele>
        <time>2019-05-31T09:01:05Z</time>
      </trkpt>
      <trkpt lat="44.07715" lon="3.06762">
        <ele>698.7</ele>
        <time>2019-05-31T09:01:07Z</time>
      </trkpt>
      <trkpt lat="44.0772" lon="3.06759">
        <ele>699.3</ele>
        <time>2019-05-31T09:01:09Z</time>
      </trkpt>
      <trkpt lat="44.07725" lon="3.06758">
        <ele>699.9</ele>
        <time>2019-05-31T09:01:11Z</time>
      </trkpt>
      <trkpt lat="44.07729" lon="3.06758">
        <ele>700.4</ele>
        <time>2019-05-31T09:01:13Z</time>
      </trkpt>
      <trkpt lat="44.07734" lon="3.06757">
        <ele>700.9</ele>
        <time>2019-05-31T09:01:15Z</time>
      </trkpt>
      <trkpt lat="44.07737" lon="3.06756">
        <ele>701.2</ele>
        <time>2019-05-31T09:01:16Z</time>
      </trkpt>
      <trkpt lat="44.07739" lon="3.06754">
        <ele>701.5</ele>
        <time>2019-05-31T09:01:17Z</time>
      </trkpt>
      <trkpt lat="44.07744" lon="3.06752">
        <ele>702.1</ele>
        <time>2019-05-31T09:01:19Z</time>
      </trkpt>
      <trkpt lat="44.0775" lon="3.0675">
        <ele>702.7</ele>
        <time>2019-05-31T09:01:21Z</time>
      </trkpt>
      <trkpt lat="44.07755" lon="3.06748">
        <ele>703</ele>
        <time>2019-05-31T09:01:23Z</time>
      </trkpt>
      <trkpt lat="44.07759" lon="3.06745">
        <ele>703.3</ele>
        <time>2019-05-31T09:01:25Z</time>
      </trkpt>
      <trkpt lat="44.07763" lon="3.06743">
        <ele>703.5</ele>
        <time>2019-05-31T09:01:27Z</time>
      </trkpt>
      <trkpt lat="44.07766" lon="3.0674">
        <ele>703.7</ele>
        <time>2019-05-31T09:01:29Z</time>
      </trkpt>
      <trkpt lat="44.07769" lon="3.06739">
        <ele>704</ele>
        <time>2019-05-31T09:01:31Z</time>
      </trkpt>
      <trkpt lat="44.07774" lon="3.06738">
        <ele>704.3</ele>
        <time>2019-05-31T09:01:33Z</time>
      </trkpt>
      <trkpt lat="44.07778" lon="3.06739">
        <ele>704.6</ele>
        <time>2019-05-31T09:01:35Z</time>
      </trkpt>
      <trkpt lat="44.07782" lon="3.06742">
        <ele>704.8</ele>
        <time>2019-05-31T09:01:37Z</time>
      </trkpt>
      <trkpt lat="44.07786" lon="3.06745">
        <ele>705.1</ele>
        <time>2019-05-31T09:01:39Z</time>
      </trkpt>
      <trkpt lat="44.07788" lon="3.06751">
        <ele>705.3</ele>
        <time>2019-05-31T09:01:41Z</time>
      </trkpt>
      <trkpt lat="44.07791" lon="3.06755">
        <ele>705.5</ele>
        <time>2019-05-31T09:01:43Z</time>
      </trkpt>
      <trkpt lat="44.07794" lon="3.06757">
        <ele>705.6</ele>
        <time>2019-05-31T09:01:45Z</time>
      </trkpt>
      <trkpt lat="44.07797" lon="3.06759">
        <ele>705.8</ele>
        <time>2019-05-31T09:01:47Z</time>
      </trkpt>
      <trkpt lat="44.07801" lon="3.0676">
        <ele>706</ele>
        <time>2019-05-31T09:01:50Z</time>
      </trkpt>
      <trkpt lat="44.07804" lon="3.06762">
        <ele>706.2</ele>
        <time>2019-05-31T09:01:52Z</time>
      </trkpt>
      <trkpt lat="44.07807" lon="3.06764">
        <ele>706.4</ele>
        <time>2019-05-31T09:01:54Z</time>
      </trkpt>
      <trkpt lat="44.07811" lon="3.06765">
        <ele>706.9</ele>
        <time>2019-05-31T09:01:56Z</time>
      </trkpt>
      <trkpt lat="44.07815" lon="3.06765">
        <ele>707.4</ele>
        <time>2019-05-31T09:01:58Z</time>
      </trkpt>
      <trkpt lat="44.07818" lon="3.06765">
        <ele>707.9</ele>
        <time>2019-05-31T09:02:00Z</time>
      </trkpt>
      <trkpt lat="44.07821" lon="3.06763">
        <ele>708.4</ele>
        <time>2019-05-31T09:02:02Z</time>
      </trkpt>
      <trkpt lat="44.07825" lon="3.06764">
        <ele>709</ele>
        <time>2019-05-31T09:02:04Z</time>
      </trkpt>
      <trkpt lat="44.07828" lon="3.06765">
        <ele>709.6</ele>
        <time>2019-05-31T09:02:06Z</time>
      </trkpt>
      <trkpt lat="44.07832" lon="3.06766">
        <ele>710.1</ele>
        <time>2019-05-31T09:02:09Z</time>
      </trkpt>
      <trkpt lat="44.07836" lon="3.06766">
        <ele>710.7</ele>
        <time>2019-05-31T09:02:11Z</time>
      </trkpt>
      <trkpt lat="44.0784" lon="3.06767">
        <ele>711.2</ele>
        <time>2019-05-31T09:02:13Z</time>
      </trkpt>
      <trkpt lat="44.07843" lon="3.06769">
        <ele>711.6</ele>
        <time>2019-05-31T09:02:15Z</time>
      </trkpt>
      <trkpt lat="44.07847" lon="3.06772">
        <ele>712</ele>
        <time>2019-05-31T09:02:17Z</time>
      </trkpt>
      <trkpt lat="44.0785" lon="3.06777">
        <ele>712.3</ele>
        <time>2019-05-31T09:02:19Z</time>
      </trkpt>
      <trkpt lat="44.07853" lon="3.0678">
        <ele>712.4</ele>
        <time>2019-05-31T09:02:21Z</time>
      </trkpt>
      <trkpt lat="44.07857" lon="3.06782">
        <ele>712.6</ele>
        <time>2019-05-31T09:02:23Z</time>
      </trkpt>
      <trkpt lat="44.0786" lon="3.06784">
        <ele>712.7</ele>
        <time>2019-05-31T09:02:25Z</time>
      </trkpt>
      <trkpt lat="44.07863" lon="3.06786">
        <ele>712.8</ele>
        <time>2019-05-31T09:02:27Z</time>
      </trkpt>
      <trkpt lat="44.07866" lon="3.06789">
        <ele>712.9</ele>
        <time>2019-05-31T09:02:29Z</time>
      </trkpt>
      <trkpt lat="44.0787" lon="3.06792">
        <ele>713</ele>
        <time>2019-05-31T09:02:31Z</time>
      </trkpt>
      <trkpt lat="44.07873" lon="3.06796">
        <ele>713.2</ele>
        <time>2019-05-31T09:02:33Z</time>
      </trkpt>
      <trkpt lat="44.07876" lon="3.06799">
        <ele>713.3</ele>
        <time>2019-05-31T09:02:35Z</time>
      </trkpt>
      <trkpt lat="44.07879" lon="3.06804">
        <ele>713.5</ele>
        <time>2019-05-31T09:02:37Z</time>
      </trkpt>
      <trkpt lat="44.07882" lon="3.06811">
        <ele>713.6</ele>
        <time>2019-05-31T09:02:39Z</time>
      </trkpt>
      <trkpt lat="44.07883" lon="3.06817">
        <ele>713.8</ele>
        <time>2019-05-31T09:02:41Z</time>
      </trkpt>
      <trkpt lat="44.07886" lon="3.06823">
        <ele>714</ele>
        <time>2019-05-31T09:02:43Z</time>
      </trkpt>
      <trkpt lat="44.07888" lon="3.06829">
        <ele>714.2</ele>
        <time>2019-05-31T09:02:45Z</time>
      </trkpt>
      <trkpt lat="44.0789" lon="3.06833">
        <ele>714.4</ele>
        <time>2019-05-31T09:02:47Z</time>
      </trkpt>
      <trkpt lat="44.07892" lon="3.06839">
        <ele>714.5</ele>
        <time>2019-05-31T09:02:49Z</time>
      </trkpt>
      <trkpt lat="44.07893" lon="3.06844">
        <ele>714.6</ele>
        <time>2019-05-31T09:02:51Z</time>
      </trkpt>
      <trkpt lat="44.07891" lon="3.06851">
        <ele>714.7</ele>
        <time>2019-05-31T09:02:53Z</time>
      </trkpt>
      <trkpt lat="44.07888" lon="3.06857">
        <ele>714.9</ele>
        <time>2019-05-31T09:02:55Z</time>
      </trkpt>
      <trkpt lat="44.07887" lon="3.06861">
        <ele>714.9</ele>
        <time>2019-05-31T09:02:56Z</time>
      </trkpt>
      <trkpt lat="44.07885" lon="3.06865">
        <ele>714.9</ele>
        <time>2019-05-31T09:02:57Z</time>
      </trkpt>
      <trkpt lat="44.07884" lon="3.06868">
        <ele>715</ele>
        <time>2019-05-31T09:02:58Z</time>
      </trkpt>
      <trkpt lat="44.07884" lon="3.06872">
        <ele>715</ele>
        <time>2019-05-31T09:02:59Z</time>
      </trkpt>
      <trkpt lat="44.07884" lon="3.06877">
        <ele>715</ele>
        <time>2019-05-31T09:03:00Z</time>
      </trkpt>
      <trkpt lat="44.07883" lon="3.06882">
        <ele>715</ele>
        <time>2019-05-31T09:03:01Z</time>
      </trkpt>
      <trkpt lat="44.07883" lon="3.06887">
        <ele>715.1</ele>
        <time>2019-05-31T09:03:02Z</time>
      </trkpt>
      <trkpt lat="44.07883" lon="3.06891">
        <ele>715.1</ele>
        <time>2019-05-31T09:03:03Z</time>
      </trkpt>
      <trkpt lat="44.07883" lon="3.06896">
        <ele>715.3</ele>
        <time>2019-05-31T09:03:04Z</time>
      </trkpt>
      <trkpt lat="44.07883" lon="3.06902">
        <ele>715.4</ele>
        <time>2019-05-31T09:03:05Z</time>
      </trkpt>
      <trkpt lat="44.07883" lon="3.06907">
        <ele>715.5</ele>
        <time>2019-05-31T09:03:06Z</time>
      </trkpt>
      <trkpt lat="44.07884" lon="3.06911">
        <ele>715.6</ele>
        <time>2019-05-31T09:03:07Z</time>
      </trkpt>
      <trkpt lat="44.07884" lon="3.06916">
        <ele>715.8</ele>
        <time>2019-05-31T09:03:08Z</time>
      </trkpt>
      <trkpt lat="44.07884" lon="3.06921">
        <ele>716</ele>
        <time>2019-05-31T09:03:09Z</time>
      </trkpt>
      <trkpt lat="44.07884" lon="3.06926">
        <ele>716.2</ele>
        <time>2019-05-31T09:03:10Z</time>
      </trkpt>
      <trkpt lat="44.07884" lon="3.06931">
        <ele>716.3</ele>
        <time>2019-05-31T09:03:11Z</time>
      </trkpt>
      <trkpt lat="44.07884" lon="3.06936">
        <ele>716.5</ele>
        <time>2019-05-31T09:03:12Z</time>
      </trkpt>
      <trkpt lat="44.07884" lon="3.0694">
        <ele>716.7</ele>
        <time>2019-05-31T09:03:13Z</time>
      </trkpt>
      <trkpt lat="44.07884" lon="3.06945">
        <ele>716.9</ele>
        <time>2019-05-31T09:03:14Z</time>
      </trkpt>
      <trkpt lat="44.07883" lon="3.06949">
        <ele>717</ele>
        <time>2019-05-31T09:03:15Z</time>
      </trkpt>
      <trkpt lat="44.07883" lon="3.06953">
        <ele>717.1</ele>
        <time>2019-05-31T09:03:16Z</time>
      </trkpt>
      <trkpt lat="44.07883" lon="3.06958">
        <ele>717.3</ele>
        <time>2019-05-31T09:03:17Z</time>
      </trkpt>
      <trkpt lat="44.07883" lon="3.06964">
        <ele>717.6</ele>
        <time>2019-05-31T09:03:18Z</time>
      </trkpt>
      <trkpt lat="44.07886" lon="3.06972">
        <ele>717.9</ele>
        <time>2019-05-31T09:03:19Z</time>
      </trkpt>
      <trkpt lat="44.07887" lon="3.06981">
        <ele>718.3</ele>
        <time>2019-05-31T09:03:20Z</time>
      </trkpt>
      <trkpt lat="44.07887" lon="3.06988">
        <ele>718.7</ele>
        <time>2019-05-31T09:03:21Z</time>
      </trkpt>
      <trkpt lat="44.07887" lon="3.06997">
        <ele>719.2</ele>
        <time>2019-05-31T09:03:22Z</time>
      </trkpt>
      <trkpt lat="44.07888" lon="3.07005">
        <ele>719.9</ele>
        <time>2019-05-31T09:03:23Z</time>
      </trkpt>
      <trkpt lat="44.0789" lon="3.07015">
        <ele>720.5</ele>
        <time>2019-05-31T09:03:24Z</time>
      </trkpt>
      <trkpt lat="44.07891" lon="3.07021">
        <ele>720.9</ele>
        <time>2019-05-31T09:03:25Z</time>
      </trkpt>
      <trkpt lat="44.07893" lon="3.0703">
        <ele>721.4</ele>
        <time>2019-05-31T09:03:26Z</time>
      </trkpt>
      <trkpt lat="44.07894" lon="3.07038">
        <ele>721.8</ele>
        <time>2019-05-31T09:03:27Z</time>
      </trkpt>
      <trkpt lat="44.07896" lon="3.07047">
        <ele>722.2</ele>
        <time>2019-05-31T09:03:28Z</time>
      </trkpt>
      <trkpt lat="44.07898" lon="3.07055">
        <ele>722.5</ele>
        <time>2019-05-31T09:03:29Z</time>
      </trkpt>
      <trkpt lat="44.079" lon="3.07063">
        <ele>723</ele>
        <time>2019-05-31T09:03:30Z</time>
      </trkpt>
      <trkpt lat="44.07901" lon="3.07071">
        <ele>723.7</ele>
        <time>2019-05-31T09:03:31Z</time>
      </trkpt>
      <trkpt lat="44.07902" lon="3.07079">
        <ele>724.3</ele>
        <time>2019-05-31T09:03:32Z</time>
      </trkpt>
      <trkpt lat="44.07902" lon="3.07086">
        <ele>724.9</ele>
        <time>2019-05-31T09:03:33Z</time>
      </trkpt>
      <trkpt lat="44.07904" lon="3.07094">
        <ele>725.6</ele>
        <time>2019-05-31T09:03:34Z</time>
      </trkpt>
      <trkpt lat="44.07905" lon="3.07101">
        <ele>726.2</ele>
        <time>2019-05-31T09:03:35Z</time>
      </trkpt>
      <trkpt lat="44.07908" lon="3.07108">
        <ele>726.8</ele>
        <time>2019-05-31T09:03:36Z</time>
      </trkpt>
      <trkpt lat="44.0791" lon="3.07115">
        <ele>727.5</ele>
        <time>2019-05-31T09:03:37Z</time>
      </trkpt>
      <trkpt lat="44.07911" lon="3.07122">
        <ele>728.1</ele>
        <time>2019-05-31T09:03:38Z</time>
      </trkpt>
      <trkpt lat="44.07914" lon="3.07128">
        <ele>728.7</ele>
        <time>2019-05-31T09:03:39Z</time>
      </trkpt>
      <trkpt lat="44.07916" lon="3.07134">
        <ele>729.7</ele>
        <time>2019-05-31T09:03:40Z</time>
      </trkpt>
      <trkpt lat="44.07918" lon="3.07141">
        <ele>729.8</ele>
        <time>2019-05-31T09:03:41Z</time>
      </trkpt>
      <trkpt lat="44.07919" lon="3.07145">
        <ele>729.9</ele>
        <time>2019-05-31T09:03:42Z</time>
      </trkpt>
      <trkpt lat="44.0792" lon="3.07148">
        <ele>729.9</ele>
        <time>2019-05-31T09:03:43Z</time>
      </trkpt>
      <trkpt lat="44.07922" lon="3.07153">
        <ele>730</ele>
        <time>2019-05-31T09:03:44Z</time>
      </trkpt>
      <trkpt lat="44.07923" lon="3.07158">
        <ele>730.1</ele>
        <time>2019-05-31T09:03:45Z</time>
      </trkpt>
      <trkpt lat="44.07926" lon="3.07164">
        <ele>730.2</ele>
        <time>2019-05-31T09:03:47Z</time>
      </trkpt>
      <trkpt lat="44.07929" lon="3.07169">
        <ele>730.3</ele>
        <time>2019-05-31T09:03:48Z</time>
      </trkpt>
      <trkpt lat="44.07931" lon="3.07175">
        <ele>730.4</ele>
        <time>2019-05-31T09:03:49Z</time>
      </trkpt>
      <trkpt lat="44.07934" lon="3.07178">
        <ele>730.6</ele>
        <time>2019-05-31T09:03:50Z</time>
      </trkpt>
      <trkpt lat="44.07938" lon="3.07183">
        <ele>730.7</ele>
        <time>2019-05-31T09:03:51Z</time>
      </trkpt>
      <trkpt lat="44.07939" lon="3.07187">
        <ele>730.8</ele>
        <time>2019-05-31T09:03:52Z</time>
      </trkpt>
      <trkpt lat="44.07942" lon="3.07191">
        <ele>730.9</ele>
        <time>2019-05-31T09:03:53Z</time>
      </trkpt>
      <trkpt lat="44.07943" lon="3.07194">
        <ele>731</ele>
        <time>2019-05-31T09:03:54Z</time>
      </trkpt>
      <trkpt lat="44.07945" lon="3.07199">
        <ele>731.2</ele>
        <time>2019-05-31T09:03:55Z</time>
      </trkpt>
      <trkpt lat="44.07947" lon="3.07203">
        <ele>731.3</ele>
        <time>2019-05-31T09:03:56Z</time>
      </trkpt>
      <trkpt lat="44.07949" lon="3.07207">
        <ele>731.4</ele>
        <time>2019-05-31T09:03:57Z</time>
      </trkpt>
      <trkpt lat="44.07951" lon="3.0721">
        <ele>731.6</ele>
        <time>2019-05-31T09:03:58Z</time>
      </trkpt>
      <trkpt lat="44.07953" lon="3.07214">
        <ele>731.7</ele>
        <time>2019-05-31T09:03:59Z</time>
      </trkpt>
      <trkpt lat="44.07956" lon="3.07217">
        <ele>731.8</ele>
        <time>2019-05-31T09:04:00Z</time>
      </trkpt>
      <trkpt lat="44.07957" lon="3.0722">
        <ele>731.9</ele>
        <time>2019-05-31T09:04:01Z</time>
      </trkpt>
      <trkpt lat="44.0796" lon="3.07224">
        <ele>732.1</ele>
        <time>2019-05-31T09:04:02Z</time>
      </trkpt>
      <trkpt lat="44.07963" lon="3.07228">
        <ele>732.2</ele>
        <time>2019-05-31T09:04:03Z</time>
      </trkpt>
      <trkpt lat="44.07965" lon="3.0723">
        <ele>732.3</ele>
        <time>2019-05-31T09:04:04Z</time>
      </trkpt>
      <trkpt lat="44.07968" lon="3.07233">
        <ele>732.4</ele>
        <time>2019-05-31T09:04:05Z</time>
      </trkpt>
      <trkpt lat="44.0797" lon="3.07236">
        <ele>732.6</ele>
        <time>2019-05-31T09:04:06Z</time>
      </trkpt>
      <trkpt lat="44.07972" lon="3.07239">
        <ele>732.7</ele>
        <time>2019-05-31T09:04:07Z</time>
      </trkpt>
      <trkpt lat="44.07974" lon="3.07242">
        <ele>732.8</ele>
        <time>2019-05-31T09:04:08Z</time>
      </trkpt>
      <trkpt lat="44.07976" lon="3.07244">
        <ele>732.9</ele>
        <time>2019-05-31T09:04:09Z</time>
      </trkpt>
      <trkpt lat="44.07979" lon="3.07247">
        <ele>733</ele>
        <time>2019-05-31T09:04:10Z</time>
      </trkpt>
      <trkpt lat="44.07981" lon="3.07249">
        <ele>733.1</ele>
        <time>2019-05-31T09:04:11Z</time>
      </trkpt>
      <trkpt lat="44.07984" lon="3.07251">
        <ele>733.3</ele>
        <time>2019-05-31T09:04:12Z</time>
      </trkpt>
      <trkpt lat="44.07988" lon="3.07256">
        <ele>733.5</ele>
        <time>2019-05-31T09:04:14Z</time>
      </trkpt>
      <trkpt lat="44.07992" lon="3.0726">
        <ele>733.7</ele>
        <time>2019-05-31T09:04:16Z</time>
      </trkpt>
      <trkpt lat="44.07996" lon="3.07265">
        <ele>733.9</ele>
        <time>2019-05-31T09:04:18Z</time>
      </trkpt>
      <trkpt lat="44.07998" lon="3.07268">
        <ele>734</ele>
        <time>2019-05-31T09:04:19Z</time>
      </trkpt>
      <trkpt lat="44.07999" lon="3.07272">
        <ele>734.2</ele>
        <time>2019-05-31T09:04:20Z</time>
      </trkpt>
      <trkpt lat="44.08" lon="3.07277">
        <ele>734.3</ele>
        <time>2019-05-31T09:04:21Z</time>
      </trkpt>
      <trkpt lat="44.08" lon="3.07282">
        <ele>734.4</ele>
        <time>2019-05-31T09:04:22Z</time>
      </trkpt>
      <trkpt lat="44.08" lon="3.07286">
        <ele>734.5</ele>
        <time>2019-05-31T09:04:23Z</time>
      </trkpt>
      <trkpt lat="44.07999" lon="3.0729">
        <ele>734.5</ele>
        <time>2019-05-31T09:04:24Z</time>
      </trkpt>
      <trkpt lat="44.07999" lon="3.07296">
        <ele>734.6</ele>
        <time>2019-05-31T09:04:26Z</time>
      </trkpt>
      <trkpt lat="44.07999" lon="3.07302">
        <ele>734.7</ele>
        <time>2019-05-31T09:04:28Z</time>
      </trkpt>
      <trkpt lat="44.08" lon="3.07306">
        <ele>734.7</ele>
        <time>2019-05-31T09:04:29Z</time>
      </trkpt>
      <trkpt lat="44.08" lon="3.0731">
        <ele>734.7</ele>
        <time>2019-05-31T09:04:30Z</time>
      </trkpt>
      <trkpt lat="44.08001" lon="3.07314">
        <ele>734.7</ele>
        <time>2019-05-31T09:04:31Z</time>
      </trkpt>
      <trkpt lat="44.08001" lon="3.07318">
        <ele>734.7</ele>
        <time>2019-05-31T09:04:32Z</time>
      </trkpt>
      <trkpt lat="44.08003" lon="3.07324">
        <ele>734.6</ele>
        <time>2019-05-31T09:04:34Z</time>
      </trkpt>
      <trkpt lat="44.08004" lon="3.07327">
        <ele>734.6</ele>
        <time>2019-05-31T09:04:35Z</time>
      </trkpt>
      <trkpt lat="44.08006" lon="3.07331">
        <ele>734.6</ele>
        <time>2019-05-31T09:04:36Z</time>
      </trkpt>
      <trkpt lat="44.08008" lon="3.07333">
        <ele>734.6</ele>
        <time>2019-05-31T09:04:37Z</time>
      </trkpt>
      <trkpt lat="44.08011" lon="3.07338">
        <ele>734.7</ele>
        <time>2019-05-31T09:04:39Z</time>
      </trkpt>
      <trkpt lat="44.08014" lon="3.07341">
        <ele>734.8</ele>
        <time>2019-05-31T09:04:41Z</time>
      </trkpt>
      <trkpt lat="44.08018" lon="3.07344">
        <ele>734.8</ele>
        <time>2019-05-31T09:04:43Z</time>
      </trkpt>
      <trkpt lat="44.08021" lon="3.07346">
        <ele>734.9</ele>
        <time>2019-05-31T09:04:45Z</time>
      </trkpt>
      <trkpt lat="44.08024" lon="3.07348">
        <ele>734.9</ele>
        <time>2019-05-31T09:04:47Z</time>
      </trkpt>
      <trkpt lat="44.08028" lon="3.07351">
        <ele>734.9</ele>
        <time>2019-05-31T09:04:49Z</time>
      </trkpt>
      <trkpt lat="44.08031" lon="3.07353">
        <ele>734.9</ele>
        <time>2019-05-31T09:04:51Z</time>
      </trkpt>
      <trkpt lat="44.08034" lon="3.07356">
        <ele>735</ele>
        <time>2019-05-31T09:04:52Z</time>
      </trkpt>
      <trkpt lat="44.08036" lon="3.07358">
        <ele>735</ele>
        <time>2019-05-31T09:04:53Z</time>
      </trkpt>
      <trkpt lat="44.0804" lon="3.07362">
        <ele>735</ele>
        <time>2019-05-31T09:04:55Z</time>
      </trkpt>
      <trkpt lat="44.08042" lon="3.07365">
        <ele>735</ele>
        <time>2019-05-31T09:04:56Z</time>
      </trkpt>
      <trkpt lat="44.08045" lon="3.0737">
        <ele>734.9</ele>
        <time>2019-05-31T09:04:58Z</time>
      </trkpt>
      <trkpt lat="44.08049" lon="3.07375">
        <ele>734.9</ele>
        <time>2019-05-31T09:05:00Z</time>
      </trkpt>
      <trkpt lat="44.08051" lon="3.07378">
        <ele>734.9</ele>
        <time>2019-05-31T09:05:01Z</time>
      </trkpt>
      <trkpt lat="44.08053" lon="3.07383">
        <ele>734.8</ele>
        <time>2019-05-31T09:05:02Z</time>
      </trkpt>
      <trkpt lat="44.08054" lon="3.07388">
        <ele>734.8</ele>
        <time>2019-05-31T09:05:03Z</time>
      </trkpt>
      <trkpt lat="44.08056" lon="3.07393">
        <ele>734.7</ele>
        <time>2019-05-31T09:05:04Z</time>
      </trkpt>
      <trkpt lat="44.08057" lon="3.07398">
        <ele>734.6</ele>
        <time>2019-05-31T09:05:05Z</time>
      </trkpt>
      <trkpt lat="44.08058" lon="3.07402">
        <ele>734.6</ele>
        <time>2019-05-31T09:05:06Z</time>
      </trkpt>
      <trkpt lat="44.0806" lon="3.07406">
        <ele>734.6</ele>
        <time>2019-05-31T09:05:07Z</time>
      </trkpt>
      <trkpt lat="44.08063" lon="3.07411">
        <ele>734.5</ele>
        <time>2019-05-31T09:05:08Z</time>
      </trkpt>
      <trkpt lat="44.08065" lon="3.07415">
        <ele>734.5</ele>
        <time>2019-05-31T09:05:09Z</time>
      </trkpt>
      <trkpt lat="44.08067" lon="3.07419">
        <ele>734.5</ele>
        <time>2019-05-31T09:05:10Z</time>
      </trkpt>
      <trkpt lat="44.08069" lon="3.07424">
        <ele>734.6</ele>
        <time>2019-05-31T09:05:11Z</time>
      </trkpt>
      <trkpt lat="44.0807" lon="3.0743">
        <ele>734.7</ele>
        <time>2019-05-31T09:05:12Z</time>
      </trkpt>
      <trkpt lat="44.08068" lon="3.07437">
        <ele>734.8</ele>
        <time>2019-05-31T09:05:13Z</time>
      </trkpt>
      <trkpt lat="44.0807" lon="3.07443">
        <ele>735</ele>
        <time>2019-05-31T09:05:14Z</time>
      </trkpt>
      <trkpt lat="44.08073" lon="3.07449">
        <ele>735.2</ele>
        <time>2019-05-31T09:05:15Z</time>
      </trkpt>
      <trkpt lat="44.08075" lon="3.07457">
        <ele>735.8</ele>
        <time>2019-05-31T09:05:16Z</time>
      </trkpt>
      <trkpt lat="44.08077" lon="3.07464">
        <ele>736.4</ele>
        <time>2019-05-31T09:05:17Z</time>
      </trkpt>
      <trkpt lat="44.08079" lon="3.07471">
        <ele>737.1</ele>
        <time>2019-05-31T09:05:18Z</time>
      </trkpt>
      <trkpt lat="44.0808" lon="3.07475">
        <ele>737.5</ele>
        <time>2019-05-31T09:05:19Z</time>
      </trkpt>
      <trkpt lat="44.08083" lon="3.0748">
        <ele>737.9</ele>
        <time>2019-05-31T09:05:20Z</time>
      </trkpt>
      <trkpt lat="44.08085" lon="3.07486">
        <ele>738.5</ele>
        <time>2019-05-31T09:05:22Z</time>
      </trkpt>
      <trkpt lat="44.08086" lon="3.07491">
        <ele>738.8</ele>
        <time>2019-05-31T09:05:23Z</time>
      </trkpt>
      <trkpt lat="44.08087" lon="3.07498">
        <ele>739.3</ele>
        <time>2019-05-31T09:05:25Z</time>
      </trkpt>
      <trkpt lat="44.08088" lon="3.07502">
        <ele>739.6</ele>
        <time>2019-05-31T09:05:26Z</time>
      </trkpt>
      <trkpt lat="44.0809" lon="3.07507">
        <ele>739.9</ele>
        <time>2019-05-31T09:05:27Z</time>
      </trkpt>
      <trkpt lat="44.08089" lon="3.07514">
        <ele>740.4</ele>
        <time>2019-05-31T09:05:29Z</time>
      </trkpt>
      <trkpt lat="44.0809" lon="3.0752">
        <ele>740.8</ele>
        <time>2019-05-31T09:05:31Z</time>
      </trkpt>
      <trkpt lat="44.08091" lon="3.07524">
        <ele>741.1</ele>
        <time>2019-05-31T09:05:32Z</time>
      </trkpt>
      <trkpt lat="44.08092" lon="3.07527">
        <ele>741.4</ele>
        <time>2019-05-31T09:05:33Z</time>
      </trkpt>
      <trkpt lat="44.08095" lon="3.07533">
        <ele>741.7</ele>
        <time>2019-05-31T09:05:35Z</time>
      </trkpt>
      <trkpt lat="44.08097" lon="3.07536">
        <ele>741.9</ele>
        <time>2019-05-31T09:05:36Z</time>
      </trkpt>
      <trkpt lat="44.081" lon="3.07541">
        <ele>742.3</ele>
        <time>2019-05-31T09:05:38Z</time>
      </trkpt>
      <trkpt lat="44.08102" lon="3.07544">
        <ele>742.5</ele>
        <time>2019-05-31T09:05:39Z</time>
      </trkpt>
      <trkpt lat="44.08103" lon="3.07551">
        <ele>742.8</ele>
        <time>2019-05-31T09:05:41Z</time>
      </trkpt>
      <trkpt lat="44.08105" lon="3.07558">
        <ele>743.1</ele>
        <time>2019-05-31T09:05:43Z</time>
      </trkpt>
      <trkpt lat="44.08105" lon="3.07562">
        <ele>743.3</ele>
        <time>2019-05-31T09:05:44Z</time>
      </trkpt>
      <trkpt lat="44.08105" lon="3.07568">
        <ele>743.6</ele>
        <time>2019-05-31T09:05:46Z</time>
      </trkpt>
      <trkpt lat="44.08106" lon="3.07572">
        <ele>743.7</ele>
        <time>2019-05-31T09:05:47Z</time>
      </trkpt>
      <trkpt lat="44.08106" lon="3.07578">
        <ele>744</ele>
        <time>2019-05-31T09:05:49Z</time>
      </trkpt>
      <trkpt lat="44.08108" lon="3.07585">
        <ele>744.5</ele>
        <time>2019-05-31T09:05:51Z</time>
      </trkpt>
      <trkpt lat="44.0811" lon="3.07591">
        <ele>745.1</ele>
        <time>2019-05-31T09:05:53Z</time>
      </trkpt>
      <trkpt lat="44.08112" lon="3.07596">
        <ele>745.6</ele>
        <time>2019-05-31T09:05:55Z</time>
      </trkpt>
      <trkpt lat="44.08114" lon="3.07603">
        <ele>746.1</ele>
        <time>2019-05-31T09:05:57Z</time>
      </trkpt>
      <trkpt lat="44.08115" lon="3.07607">
        <ele>746.4</ele>
        <time>2019-05-31T09:05:58Z</time>
      </trkpt>
      <trkpt lat="44.08115" lon="3.07612">
        <ele>746.8</ele>
        <time>2019-05-31T09:06:00Z</time>
      </trkpt>
      <trkpt lat="44.08115" lon="3.07617">
        <ele>747.1</ele>
        <time>2019-05-31T09:06:02Z</time>
      </trkpt>
      <trkpt lat="44.08116" lon="3.07621">
        <ele>747.7</ele>
        <time>2019-05-31T09:06:04Z</time>
      </trkpt>
      <trkpt lat="44.08118" lon="3.07624">
        <ele>748.4</ele>
        <time>2019-05-31T09:06:06Z</time>
      </trkpt>
      <trkpt lat="44.0812" lon="3.07628">
        <ele>748.9</ele>
        <time>2019-05-31T09:06:08Z</time>
      </trkpt>
      <trkpt lat="44.0812" lon="3.07633">
        <ele>749.8</ele>
        <time>2019-05-31T09:06:10Z</time>
      </trkpt>
      <trkpt lat="44.08119" lon="3.07639">
        <ele>750.6</ele>
        <time>2019-05-31T09:06:12Z</time>
      </trkpt>
      <trkpt lat="44.0812" lon="3.07646">
        <ele>751.4</ele>
        <time>2019-05-31T09:06:14Z</time>
      </trkpt>
      <trkpt lat="44.08122" lon="3.07651">
        <ele>752</ele>
        <time>2019-05-31T09:06:16Z</time>
      </trkpt>
      <trkpt lat="44.08123" lon="3.07654">
        <ele>752.4</ele>
        <time>2019-05-31T09:06:18Z</time>
      </trkpt>
      <trkpt lat="44.08126" lon="3.07658">
        <ele>752.9</ele>
        <time>2019-05-31T09:06:20Z</time>
      </trkpt>
      <trkpt lat="44.08129" lon="3.07662">
        <ele>753.4</ele>
        <time>2019-05-31T09:06:22Z</time>
      </trkpt>
      <trkpt lat="44.08132" lon="3.07668">
        <ele>753.8</ele>
        <time>2019-05-31T09:06:24Z</time>
      </trkpt>
      <trkpt lat="44.08133" lon="3.07673">
        <ele>754.2</ele>
        <time>2019-05-31T09:06:26Z</time>
      </trkpt>
      <trkpt lat="44.08134" lon="3.07679">
        <ele>754.6</ele>
        <time>2019-05-31T09:06:28Z</time>
      </trkpt>
      <trkpt lat="44.08136" lon="3.07684">
        <ele>754.9</ele>
        <time>2019-05-31T09:06:30Z</time>
      </trkpt>
      <trkpt lat="44.08138" lon="3.07689">
        <ele>755.2</ele>
        <time>2019-05-31T09:06:32Z</time>
      </trkpt>
      <trkpt lat="44.08139" lon="3.07695">
        <ele>755.6</ele>
        <time>2019-05-31T09:06:34Z</time>
      </trkpt>
      <trkpt lat="44.0814" lon="3.077">
        <ele>755.9</ele>
        <time>2019-05-31T09:06:36Z</time>
      </trkpt>
      <trkpt lat="44.08141" lon="3.07706">
        <ele>756.3</ele>
        <time>2019-05-31T09:06:38Z</time>
      </trkpt>
      <trkpt lat="44.08142" lon="3.07711">
        <ele>756.5</ele>
        <time>2019-05-31T09:06:40Z</time>
      </trkpt>
      <trkpt lat="44.08144" lon="3.07716">
        <ele>756.8</ele>
        <time>2019-05-31T09:06:42Z</time>
      </trkpt>
      <trkpt lat="44.08145" lon="3.0772">
        <ele>757.1</ele>
        <time>2019-05-31T09:06:44Z</time>
      </trkpt>
      <trkpt lat="44.08146" lon="3.07725">
        <ele>757.3</ele>
        <time>2019-05-31T09:06:46Z</time>
      </trkpt>
      <trkpt lat="44.08149" lon="3.07729">
        <ele>757.6</ele>
        <time>2019-05-31T09:06:48Z</time>
      </trkpt>
      <trkpt lat="44.08152" lon="3.07732">
        <ele>757.8</ele>
        <time>2019-05-31T09:06:50Z</time>
      </trkpt>
      <trkpt lat="44.08155" lon="3.07736">
        <ele>758.1</ele>
        <time>2019-05-31T09:06:52Z</time>
      </trkpt>
      <trkpt lat="44.08157" lon="3.07742">
        <ele>758.3</ele>
        <time>2019-05-31T09:06:54Z</time>
      </trkpt>
      <trkpt lat="44.0816" lon="3.07748">
        <ele>758.6</ele>
        <time>2019-05-31T09:06:56Z</time>
      </trkpt>
      <trkpt lat="44.08161" lon="3.07753">
        <ele>758.9</ele>
        <time>2019-05-31T09:06:58Z</time>
      </trkpt>
      <trkpt lat="44.08162" lon="3.07759">
        <ele>759.2</ele>
        <time>2019-05-31T09:07:00Z</time>
      </trkpt>
      <trkpt lat="44.08163" lon="3.07764">
        <ele>759.5</ele>
        <time>2019-05-31T09:07:02Z</time>
      </trkpt>
      <trkpt lat="44.08164" lon="3.07768">
        <ele>759.7</ele>
        <time>2019-05-31T09:07:04Z</time>
      </trkpt>
      <trkpt lat="44.08164" lon="3.07773">
        <ele>759.9</ele>
        <time>2019-05-31T09:07:06Z</time>
      </trkpt>
      <trkpt lat="44.08165" lon="3.07778">
        <ele>760.1</ele>
        <time>2019-05-31T09:07:08Z</time>
      </trkpt>
      <trkpt lat="44.08166" lon="3.07784">
        <ele>760.5</ele>
        <time>2019-05-31T09:07:10Z</time>
      </trkpt>
      <trkpt lat="44.08167" lon="3.0779">
        <ele>760.8</ele>
        <time>2019-05-31T09:07:12Z</time>
      </trkpt>
      <trkpt lat="44.08169" lon="3.07795">
        <ele>761.1</ele>
        <time>2019-05-31T09:07:14Z</time>
      </trkpt>
      <trkpt lat="44.08172" lon="3.078">
        <ele>761.4</ele>
        <time>2019-05-31T09:07:16Z</time>
      </trkpt>
      <trkpt lat="44.08174" lon="3.07803">
        <ele>761.7</ele>
        <time>2019-05-31T09:07:18Z</time>
      </trkpt>
      <trkpt lat="44.08177" lon="3.07807">
        <ele>762.1</ele>
        <time>2019-05-31T09:07:20Z</time>
      </trkpt>
      <trkpt lat="44.08179" lon="3.07811">
        <ele>762.3</ele>
        <time>2019-05-31T09:07:22Z</time>
      </trkpt>
      <trkpt lat="44.08182" lon="3.07816">
        <ele>762.5</ele>
        <time>2019-05-31T09:07:24Z</time>
      </trkpt>
      <trkpt lat="44.08184" lon="3.07821">
        <ele>762.7</ele>
        <time>2019-05-31T09:07:26Z</time>
      </trkpt>
      <trkpt lat="44.08185" lon="3.07825">
        <ele>762.9</ele>
        <time>2019-05-31T09:07:28Z</time>
      </trkpt>
      <trkpt lat="44.08187" lon="3.07831">
        <ele>763.1</ele>
        <time>2019-05-31T09:07:30Z</time>
      </trkpt>
      <trkpt lat="44.08189" lon="3.07836">
        <ele>763.4</ele>
        <time>2019-05-31T09:07:32Z</time>
      </trkpt>
      <trkpt lat="44.08192" lon="3.07842">
        <ele>763.5</ele>
        <time>2019-05-31T09:07:34Z</time>
      </trkpt>
      <trkpt lat="44.08194" lon="3.07845">
        <ele>763.6</ele>
        <time>2019-05-31T09:07:35Z</time>
      </trkpt>
      <trkpt lat="44.08195" lon="3.07849">
        <ele>763.7</ele>
        <time>2019-05-31T09:07:36Z</time>
      </trkpt>
      <trkpt lat="44.08197" lon="3.07853">
        <ele>763.8</ele>
        <time>2019-05-31T09:07:37Z</time>
      </trkpt>
      <trkpt lat="44.08199" lon="3.07856">
        <ele>763.9</ele>
        <time>2019-05-31T09:07:38Z</time>
      </trkpt>
      <trkpt lat="44.08202" lon="3.07862">
        <ele>764.1</ele>
        <time>2019-05-31T09:07:40Z</time>
      </trkpt>
      <trkpt lat="44.08204" lon="3.07868">
        <ele>764.2</ele>
        <time>2019-05-31T09:07:42Z</time>
      </trkpt>
      <trkpt lat="44.08207" lon="3.07875">
        <ele>764.4</ele>
        <time>2019-05-31T09:07:44Z</time>
      </trkpt>
      <trkpt lat="44.08209" lon="3.07881">
        <ele>764.5</ele>
        <time>2019-05-31T09:07:46Z</time>
      </trkpt>
      <trkpt lat="44.0821" lon="3.07884">
        <ele>764.6</ele>
        <time>2019-05-31T09:07:47Z</time>
      </trkpt>
      <trkpt lat="44.08213" lon="3.07891">
        <ele>764.7</ele>
        <time>2019-05-31T09:07:49Z</time>
      </trkpt>
      <trkpt lat="44.08214" lon="3.07895">
        <ele>764.8</ele>
        <time>2019-05-31T09:07:50Z</time>
      </trkpt>
      <trkpt lat="44.08216" lon="3.07902">
        <ele>764.9</ele>
        <time>2019-05-31T09:07:52Z</time>
      </trkpt>
      <trkpt lat="44.08217" lon="3.07906">
        <ele>765</ele>
        <time>2019-05-31T09:07:53Z</time>
      </trkpt>
      <trkpt lat="44.08219" lon="3.07909">
        <ele>765.1</ele>
        <time>2019-05-31T09:07:54Z</time>
      </trkpt>
      <trkpt lat="44.0822" lon="3.07913">
        <ele>765.3</ele>
        <time>2019-05-31T09:07:55Z</time>
      </trkpt>
      <trkpt lat="44.08222" lon="3.07917">
        <ele>765.7</ele>
        <time>2019-05-31T09:07:56Z</time>
      </trkpt>
      <trkpt lat="44.08224" lon="3.07921">
        <ele>766.1</ele>
        <time>2019-05-31T09:07:57Z</time>
      </trkpt>
      <trkpt lat="44.08225" lon="3.07925">
        <ele>766.5</ele>
        <time>2019-05-31T09:07:58Z</time>
      </trkpt>
      <trkpt lat="44.08225" lon="3.07929">
        <ele>766.8</ele>
        <time>2019-05-31T09:07:59Z</time>
      </trkpt>
      <trkpt lat="44.08226" lon="3.07934">
        <ele>767.2</ele>
        <time>2019-05-31T09:08:00Z</time>
      </trkpt>
      <trkpt lat="44.08226" lon="3.07938">
        <ele>767.6</ele>
        <time>2019-05-31T09:08:01Z</time>
      </trkpt>
      <trkpt lat="44.08227" lon="3.07942">
        <ele>767.9</ele>
        <time>2019-05-31T09:08:02Z</time>
      </trkpt>
      <trkpt lat="44.08227" lon="3.07946">
        <ele>768.2</ele>
        <time>2019-05-31T09:08:03Z</time>
      </trkpt>
      <trkpt lat="44.08226" lon="3.0795">
        <ele>768.5</ele>
        <time>2019-05-31T09:08:04Z</time>
      </trkpt>
      <trkpt lat="44.08225" lon="3.07956">
        <ele>768.9</ele>
        <time>2019-05-31T09:08:06Z</time>
      </trkpt>
      <trkpt lat="44.08225" lon="3.07962">
        <ele>769.3</ele>
        <time>2019-05-31T09:08:08Z</time>
      </trkpt>
      <trkpt lat="44.08221" lon="3.07966">
        <ele>769.7</ele>
        <time>2019-05-31T09:08:11Z</time>
      </trkpt>
      <trkpt lat="44.08218" lon="3.07968">
        <ele>770.1</ele>
        <time>2019-05-31T09:08:13Z</time>
      </trkpt>
      <trkpt lat="44.08215" lon="3.07973">
        <ele>770.5</ele>
        <time>2019-05-31T09:08:15Z</time>
      </trkpt>
      <trkpt lat="44.08216" lon="3.07979">
        <ele>770.9</ele>
        <time>2019-05-31T09:08:17Z</time>
      </trkpt>
      <trkpt lat="44.08217" lon="3.07984">
        <ele>771.2</ele>
        <time>2019-05-31T09:08:18Z</time>
      </trkpt>
      <trkpt lat="44.08217" lon="3.07989">
        <ele>771.4</ele>
        <time>2019-05-31T09:08:19Z</time>
      </trkpt>
      <trkpt lat="44.08218" lon="3.07993">
        <ele>771.7</ele>
        <time>2019-05-31T09:08:20Z</time>
      </trkpt>
      <trkpt lat="44.08218" lon="3.07997">
        <ele>771.9</ele>
        <time>2019-05-31T09:08:21Z</time>
      </trkpt>
      <trkpt lat="44.08219" lon="3.08003">
        <ele>772.3</ele>
        <time>2019-05-31T09:08:22Z</time>
      </trkpt>
      <trkpt lat="44.08219" lon="3.08008">
        <ele>772.6</ele>
        <time>2019-05-31T09:08:23Z</time>
      </trkpt>
      <trkpt lat="44.08219" lon="3.08012">
        <ele>772.9</ele>
        <time>2019-05-31T09:08:24Z</time>
      </trkpt>
      <trkpt lat="44.08218" lon="3.08016">
        <ele>773.2</ele>
        <time>2019-05-31T09:08:25Z</time>
      </trkpt>
      <trkpt lat="44.08217" lon="3.0802">
        <ele>773.6</ele>
        <time>2019-05-31T09:08:26Z</time>
      </trkpt>
      <trkpt lat="44.08216" lon="3.08027">
        <ele>774.2</ele>
        <time>2019-05-31T09:08:28Z</time>
      </trkpt>
      <trkpt lat="44.08215" lon="3.08031">
        <ele>774.6</ele>
        <time>2019-05-31T09:08:29Z</time>
      </trkpt>
      <trkpt lat="44.08215" lon="3.08037">
        <ele>775.4</ele>
        <time>2019-05-31T09:08:31Z</time>
      </trkpt>
      <trkpt lat="44.08216" lon="3.08041">
        <ele>775.9</ele>
        <time>2019-05-31T09:08:32Z</time>
      </trkpt>
      <trkpt lat="44.08216" lon="3.08046">
        <ele>776.5</ele>
        <time>2019-05-31T09:08:33Z</time>
      </trkpt>
      <trkpt lat="44.08217" lon="3.08052">
        <ele>777.5</ele>
        <time>2019-05-31T09:08:35Z</time>
      </trkpt>
      <trkpt lat="44.08217" lon="3.08059">
        <ele>778.5</ele>
        <time>2019-05-31T09:08:37Z</time>
      </trkpt>
      <trkpt lat="44.08216" lon="3.08065">
        <ele>779.5</ele>
        <time>2019-05-31T09:08:39Z</time>
      </trkpt>
      <trkpt lat="44.08212" lon="3.08068">
        <ele>780.2</ele>
        <time>2019-05-31T09:08:41Z</time>
      </trkpt>
      <trkpt lat="44.08209" lon="3.08071">
        <ele>780.8</ele>
        <time>2019-05-31T09:08:43Z</time>
      </trkpt>
      <trkpt lat="44.08206" lon="3.08077">
        <ele>781.6</ele>
        <time>2019-05-31T09:08:45Z</time>
      </trkpt>
      <trkpt lat="44.08205" lon="3.08081">
        <ele>782</ele>
        <time>2019-05-31T09:08:47Z</time>
      </trkpt>
      <trkpt lat="44.08203" lon="3.08086">
        <ele>782.7</ele>
        <time>2019-05-31T09:08:50Z</time>
      </trkpt>
      <trkpt lat="44.082" lon="3.08088">
        <ele>783.2</ele>
        <time>2019-05-31T09:08:52Z</time>
      </trkpt>
      <trkpt lat="44.08198" lon="3.0809">
        <ele>783.7</ele>
        <time>2019-05-31T09:08:53Z</time>
      </trkpt>
      <trkpt lat="44.08194" lon="3.08093">
        <ele>784.4</ele>
        <time>2019-05-31T09:08:55Z</time>
      </trkpt>
      <trkpt lat="44.0819" lon="3.08096">
        <ele>785</ele>
        <time>2019-05-31T09:08:57Z</time>
      </trkpt>
      <trkpt lat="44.08187" lon="3.081">
        <ele>785.7</ele>
        <time>2019-05-31T09:08:59Z</time>
      </trkpt>
      <trkpt lat="44.08184" lon="3.08106">
        <ele>786.3</ele>
        <time>2019-05-31T09:09:01Z</time>
      </trkpt>
      <trkpt lat="44.08184" lon="3.08109">
        <ele>787.3</ele>
        <time>2019-05-31T09:09:02Z</time>
      </trkpt>
      <trkpt lat="44.08184" lon="3.08114">
        <ele>787.6</ele>
        <time>2019-05-31T09:09:03Z</time>
      </trkpt>
      <trkpt lat="44.08184" lon="3.08118">
        <ele>787.8</ele>
        <time>2019-05-31T09:09:04Z</time>
      </trkpt>
      <trkpt lat="44.08184" lon="3.08122">
        <ele>788.1</ele>
        <time>2019-05-31T09:09:05Z</time>
      </trkpt>
      <trkpt lat="44.08182" lon="3.08129">
        <ele>788.5</ele>
        <time>2019-05-31T09:09:07Z</time>
      </trkpt>
      <trkpt lat="44.0818" lon="3.08132">
        <ele>788.7</ele>
        <time>2019-05-31T09:09:08Z</time>
      </trkpt>
      <trkpt lat="44.08176" lon="3.08137">
        <ele>789.2</ele>
        <time>2019-05-31T09:09:10Z</time>
      </trkpt>
      <trkpt lat="44.08175" lon="3.08141">
        <ele>789.4</ele>
        <time>2019-05-31T09:09:11Z</time>
      </trkpt>
      <trkpt lat="44.08174" lon="3.08145">
        <ele>789.6</ele>
        <time>2019-05-31T09:09:12Z</time>
      </trkpt>
      <trkpt lat="44.08174" lon="3.0815">
        <ele>789.8</ele>
        <time>2019-05-31T09:09:13Z</time>
      </trkpt>
      <trkpt lat="44.08174" lon="3.08154">
        <ele>790</ele>
        <time>2019-05-31T09:09:14Z</time>
      </trkpt>
      <trkpt lat="44.08175" lon="3.08158">
        <ele>790.1</ele>
        <time>2019-05-31T09:09:15Z</time>
      </trkpt>
      <trkpt lat="44.08177" lon="3.08165">
        <ele>790.3</ele>
        <time>2019-05-31T09:09:17Z</time>
      </trkpt>
      <trkpt lat="44.08178" lon="3.08169">
        <ele>790.4</ele>
        <time>2019-05-31T09:09:18Z</time>
      </trkpt>
      <trkpt lat="44.08179" lon="3.08173">
        <ele>790.5</ele>
        <time>2019-05-31T09:09:19Z</time>
      </trkpt>
      <trkpt lat="44.08179" lon="3.08179">
        <ele>790.7</ele>
        <time>2019-05-31T09:09:21Z</time>
      </trkpt>
      <trkpt lat="44.08178" lon="3.08183">
        <ele>790.8</ele>
        <time>2019-05-31T09:09:22Z</time>
      </trkpt>
      <trkpt lat="44.08175" lon="3.08189">
        <ele>791</ele>
        <time>2019-05-31T09:09:24Z</time>
      </trkpt>
      <trkpt lat="44.08174" lon="3.08195">
        <ele>791.1</ele>
        <time>2019-05-31T09:09:26Z</time>
      </trkpt>
      <trkpt lat="44.08175" lon="3.082">
        <ele>791.2</ele>
        <time>2019-05-31T09:09:28Z</time>
      </trkpt>
      <trkpt lat="44.08175" lon="3.08206">
        <ele>791.4</ele>
        <time>2019-05-31T09:09:30Z</time>
      </trkpt>
      <trkpt lat="44.08176" lon="3.08212">
        <ele>791.4</ele>
        <time>2019-05-31T09:09:32Z</time>
      </trkpt>
      <trkpt lat="44.08176" lon="3.08217">
        <ele>791.5</ele>
        <time>2019-05-31T09:09:34Z</time>
      </trkpt>
      <trkpt lat="44.08176" lon="3.08221">
        <ele>791.5</ele>
        <time>2019-05-31T09:09:36Z</time>
      </trkpt>
      <trkpt lat="44.08177" lon="3.08225">
        <ele>791.6</ele>
        <time>2019-05-31T09:09:38Z</time>
      </trkpt>
      <trkpt lat="44.08176" lon="3.08222">
        <ele>791.6</ele>
        <time>2019-05-31T09:09:47Z</time>
      </trkpt>
      <trkpt lat="44.08174" lon="3.08226">
        <ele>791.7</ele>
        <time>2019-05-31T09:10:05Z</time>
      </trkpt>
      <trkpt lat="44.08171" lon="3.08232">
        <ele>791.8</ele>
        <time>2019-05-31T09:10:07Z</time>
      </trkpt>
      <trkpt lat="44.08168" lon="3.08237">
        <ele>791.8</ele>
        <time>2019-05-31T09:10:09Z</time>
      </trkpt>
      <trkpt lat="44.08165" lon="3.0824">
        <ele>791.8</ele>
        <time>2019-05-31T09:10:10Z</time>
      </trkpt>
      <trkpt lat="44.08163" lon="3.08242">
        <ele>791.9</ele>
        <time>2019-05-31T09:10:11Z</time>
      </trkpt>
      <trkpt lat="44.0816" lon="3.08244">
        <ele>791.9</ele>
        <time>2019-05-31T09:10:12Z</time>
      </trkpt>
      <trkpt lat="44.08156" lon="3.08244">
        <ele>791.9</ele>
        <time>2019-05-31T09:10:13Z</time>
      </trkpt>
      <trkpt lat="44.08153" lon="3.08246">
        <ele>791.9</ele>
        <time>2019-05-31T09:10:14Z</time>
      </trkpt>
      <trkpt lat="44.0815" lon="3.08249">
        <ele>791.8</ele>
        <time>2019-05-31T09:10:15Z</time>
      </trkpt>
      <trkpt lat="44.08148" lon="3.08254">
        <ele>791.8</ele>
        <time>2019-05-31T09:10:16Z</time>
      </trkpt>
      <trkpt lat="44.08148" lon="3.0827">
        <ele>791.7</ele>
        <time>2019-05-31T09:10:17Z</time>
      </trkpt>
      <trkpt lat="44.08147" lon="3.08283">
        <ele>791.6</ele>
        <time>2019-05-31T09:10:18Z</time>
      </trkpt>
      <trkpt lat="44.08146" lon="3.0829">
        <ele>791.5</ele>
        <time>2019-05-31T09:10:19Z</time>
      </trkpt>
      <trkpt lat="44.08144" lon="3.08298">
        <ele>791.4</ele>
        <time>2019-05-31T09:10:20Z</time>
      </trkpt>
      <trkpt lat="44.0814" lon="3.08305">
        <ele>791.3</ele>
        <time>2019-05-31T09:10:21Z</time>
      </trkpt>
      <trkpt lat="44.08137" lon="3.08315">
        <ele>791.1</ele>
        <time>2019-05-31T09:10:22Z</time>
      </trkpt>
      <trkpt lat="44.08132" lon="3.08321">
        <ele>791</ele>
        <time>2019-05-31T09:10:23Z</time>
      </trkpt>
      <trkpt lat="44.08128" lon="3.08329">
        <ele>790.9</ele>
        <time>2019-05-31T09:10:24Z</time>
      </trkpt>
      <trkpt lat="44.08123" lon="3.08336">
        <ele>790.4</ele>
        <time>2019-05-31T09:10:25Z</time>
      </trkpt>
      <trkpt lat="44.08118" lon="3.08351">
        <ele>789.8</ele>
        <time>2019-05-31T09:10:26Z</time>
      </trkpt>
      <trkpt lat="44.08115" lon="3.08358">
        <ele>789.5</ele>
        <time>2019-05-31T09:10:27Z</time>
      </trkpt>
      <trkpt lat="44.08111" lon="3.08363">
        <ele>789.1</ele>
        <time>2019-05-31T09:10:28Z</time>
      </trkpt>
      <trkpt lat="44.08107" lon="3.08369">
        <ele>788.8</ele>
        <time>2019-05-31T09:10:29Z</time>
      </trkpt>
      <trkpt lat="44.08104" lon="3.08375">
        <ele>788.4</ele>
        <time>2019-05-31T09:10:30Z</time>
      </trkpt>
      <trkpt lat="44.081" lon="3.08385">
        <ele>787.9</ele>
        <time>2019-05-31T09:10:31Z</time>
      </trkpt>
      <trkpt lat="44.08098" lon="3.08394">
        <ele>787.4</ele>
        <time>2019-05-31T09:10:32Z</time>
      </trkpt>
      <trkpt lat="44.08095" lon="3.08405">
        <ele>786.9</ele>
        <time>2019-05-31T09:10:33Z</time>
      </trkpt>
      <trkpt lat="44.08093" lon="3.08415">
        <ele>786.4</ele>
        <time>2019-05-31T09:10:34Z</time>
      </trkpt>
      <trkpt lat="44.08088" lon="3.08422">
        <ele>786</ele>
        <time>2019-05-31T09:10:35Z</time>
      </trkpt>
      <trkpt lat="44.08083" lon="3.08428">
        <ele>785.6</ele>
        <time>2019-05-31T09:10:36Z</time>
      </trkpt>
      <trkpt lat="44.08081" lon="3.08436">
        <ele>785.3</ele>
        <time>2019-05-31T09:10:37Z</time>
      </trkpt>
      <trkpt lat="44.08077" lon="3.08445">
        <ele>784.9</ele>
        <time>2019-05-31T09:10:38Z</time>
      </trkpt>
      <trkpt lat="44.08074" lon="3.08454">
        <ele>784.5</ele>
        <time>2019-05-31T09:10:39Z</time>
      </trkpt>
      <trkpt lat="44.08069" lon="3.08461">
        <ele>784.2</ele>
        <time>2019-05-31T09:10:40Z</time>
      </trkpt>
      <trkpt lat="44.08067" lon="3.08469">
        <ele>784</ele>
        <time>2019-05-31T09:10:41Z</time>
      </trkpt>
      <trkpt lat="44.08065" lon="3.08477">
        <ele>783.7</ele>
        <time>2019-05-31T09:10:42Z</time>
      </trkpt>
      <trkpt lat="44.08062" lon="3.08485">
        <ele>783.5</ele>
        <time>2019-05-31T09:10:43Z</time>
      </trkpt>
      <trkpt lat="44.08061" lon="3.08493">
        <ele>783.2</ele>
        <time>2019-05-31T09:10:44Z</time>
      </trkpt>
      <trkpt lat="44.08062" lon="3.08502">
        <ele>783</ele>
        <time>2019-05-31T09:10:45Z</time>
      </trkpt>
      <trkpt lat="44.08061" lon="3.08512">
        <ele>782.9</ele>
        <time>2019-05-31T09:10:46Z</time>
      </trkpt>
      <trkpt lat="44.0806" lon="3.08521">
        <ele>782.7</ele>
        <time>2019-05-31T09:10:47Z</time>
      </trkpt>
      <trkpt lat="44.08059" lon="3.08533">
        <ele>782.5</ele>
        <time>2019-05-31T09:10:48Z</time>
      </trkpt>
      <trkpt lat="44.08059" lon="3.08545">
        <ele>782.1</ele>
        <time>2019-05-31T09:10:49Z</time>
      </trkpt>
      <trkpt lat="44.08058" lon="3.08557">
        <ele>781.8</ele>
        <time>2019-05-31T09:10:50Z</time>
      </trkpt>
      <trkpt lat="44.08058" lon="3.08567">
        <ele>781.5</ele>
        <time>2019-05-31T09:10:51Z</time>
      </trkpt>
      <trkpt lat="44.08059" lon="3.08576">
        <ele>781.2</ele>
        <time>2019-05-31T09:10:52Z</time>
      </trkpt>
      <trkpt lat="44.08061" lon="3.08583">
        <ele>780.9</ele>
        <time>2019-05-31T09:10:53Z</time>
      </trkpt>
      <trkpt lat="44.08062" lon="3.08592">
        <ele>780.6</ele>
        <time>2019-05-31T09:10:54Z</time>
      </trkpt>
      <trkpt lat="44.08063" lon="3.08602">
        <ele>780.3</ele>
        <time>2019-05-31T09:10:55Z</time>
      </trkpt>
      <trkpt lat="44.08063" lon="3.08612">
        <ele>779.8</ele>
        <time>2019-05-31T09:10:56Z</time>
      </trkpt>
      <trkpt lat="44.08064" lon="3.08622">
        <ele>779.3</ele>
        <time>2019-05-31T09:10:57Z</time>
      </trkpt>
      <trkpt lat="44.08066" lon="3.08631">
        <ele>778.9</ele>
        <time>2019-05-31T09:10:58Z</time>
      </trkpt>
      <trkpt lat="44.08063" lon="3.0864">
        <ele>778.5</ele>
        <time>2019-05-31T09:10:59Z</time>
      </trkpt>
      <trkpt lat="44.08062" lon="3.0865">
        <ele>778</ele>
        <time>2019-05-31T09:11:00Z</time>
      </trkpt>
      <trkpt lat="44.08058" lon="3.08657">
        <ele>777.6</ele>
        <time>2019-05-31T09:11:01Z</time>
      </trkpt>
      <trkpt lat="44.08056" lon="3.08666">
        <ele>777.2</ele>
        <time>2019-05-31T09:11:02Z</time>
      </trkpt>
      <trkpt lat="44.08052" lon="3.08675">
        <ele>776.7</ele>
        <time>2019-05-31T09:11:03Z</time>
      </trkpt>
      <trkpt lat="44.0805" lon="3.08689">
        <ele>776</ele>
        <time>2019-05-31T09:11:04Z</time>
      </trkpt>
      <trkpt lat="44.08047" lon="3.08698">
        <ele>775.5</ele>
        <time>2019-05-31T09:11:05Z</time>
      </trkpt>
      <trkpt lat="44.08046" lon="3.08705">
        <ele>774.9</ele>
        <time>2019-05-31T09:11:06Z</time>
      </trkpt>
      <trkpt lat="44.08045" lon="3.08713">
        <ele>774.4</ele>
        <time>2019-05-31T09:11:07Z</time>
      </trkpt>
      <trkpt lat="44.08043" lon="3.0872">
        <ele>773.9</ele>
        <time>2019-05-31T09:11:08Z</time>
      </trkpt>
      <trkpt lat="44.0804" lon="3.08728">
        <ele>773.3</ele>
        <time>2019-05-31T09:11:09Z</time>
      </trkpt>
      <trkpt lat="44.08037" lon="3.08737">
        <ele>772.8</ele>
        <time>2019-05-31T09:11:10Z</time>
      </trkpt>
      <trkpt lat="44.08032" lon="3.08745">
        <ele>772.2</ele>
        <time>2019-05-31T09:11:11Z</time>
      </trkpt>
      <trkpt lat="44.08026" lon="3.08748">
        <ele>771.7</ele>
        <time>2019-05-31T09:11:12Z</time>
      </trkpt>
      <trkpt lat="44.08023" lon="3.08759">
        <ele>771</ele>
        <time>2019-05-31T09:11:13Z</time>
      </trkpt>
      <trkpt lat="44.0802" lon="3.08768">
        <ele>770.4</ele>
        <time>2019-05-31T09:11:14Z</time>
      </trkpt>
      <trkpt lat="44.08017" lon="3.08774">
        <ele>769.9</ele>
        <time>2019-05-31T09:11:15Z</time>
      </trkpt>
      <trkpt lat="44.08015" lon="3.08779">
        <ele>769.6</ele>
        <time>2019-05-31T09:11:16Z</time>
      </trkpt>
      <trkpt lat="44.08013" lon="3.08783">
        <ele>769.2</ele>
        <time>2019-05-31T09:11:17Z</time>
      </trkpt>
      <trkpt lat="44.08012" lon="3.08788">
        <ele>768.9</ele>
        <time>2019-05-31T09:11:18Z</time>
      </trkpt>
      <trkpt lat="44.08012" lon="3.08795">
        <ele>768.4</ele>
        <time>2019-05-31T09:11:19Z</time>
      </trkpt>
      <trkpt lat="44.08013" lon="3.08803">
        <ele>767.8</ele>
        <time>2019-05-31T09:11:20Z</time>
      </trkpt>
      <trkpt lat="44.08012" lon="3.08809">
        <ele>767.3</ele>
        <time>2019-05-31T09:11:21Z</time>
      </trkpt>
      <trkpt lat="44.08011" lon="3.08816">
        <ele>766.7</ele>
        <time>2019-05-31T09:11:22Z</time>
      </trkpt>
      <trkpt lat="44.08011" lon="3.08823">
        <ele>766.1</ele>
        <time>2019-05-31T09:11:23Z</time>
      </trkpt>
      <trkpt lat="44.0801" lon="3.08829">
        <ele>765.5</ele>
        <time>2019-05-31T09:11:24Z</time>
      </trkpt>
      <trkpt lat="44.0801" lon="3.08837">
        <ele>764.8</ele>
        <time>2019-05-31T09:11:25Z</time>
      </trkpt>
      <trkpt lat="44.08009" lon="3.08844">
        <ele>764.3</ele>
        <time>2019-05-31T09:11:26Z</time>
      </trkpt>
      <trkpt lat="44.0801" lon="3.0885">
        <ele>763.8</ele>
        <time>2019-05-31T09:11:27Z</time>
      </trkpt>
      <trkpt lat="44.0801" lon="3.08857">
        <ele>763.1</ele>
        <time>2019-05-31T09:11:28Z</time>
      </trkpt>
      <trkpt lat="44.08009" lon="3.08862">
        <ele>762.4</ele>
        <time>2019-05-31T09:11:29Z</time>
      </trkpt>
      <trkpt lat="44.08008" lon="3.08866">
        <ele>762</ele>
        <time>2019-05-31T09:11:30Z</time>
      </trkpt>
      <trkpt lat="44.08007" lon="3.0887">
        <ele>761.5</ele>
        <time>2019-05-31T09:11:34Z</time>
      </trkpt>
      <trkpt lat="44.08009" lon="3.08874">
        <ele>760.8</ele>
        <time>2019-05-31T09:11:36Z</time>
      </trkpt>
      <trkpt lat="44.08007" lon="3.08878">
        <ele>760.1</ele>
        <time>2019-05-31T09:12:01Z</time>
      </trkpt>
      <trkpt lat="44.08004" lon="3.08882">
        <ele>759</ele>
        <time>2019-05-31T09:12:03Z</time>
      </trkpt>
      <trkpt lat="44.07999" lon="3.08887">
        <ele>757.7</ele>
        <time>2019-05-31T09:12:05Z</time>
      </trkpt>
      <trkpt lat="44.07997" lon="3.0889">
        <ele>756.8</ele>
        <time>2019-05-31T09:12:06Z</time>
      </trkpt>
      <trkpt lat="44.07992" lon="3.08898">
        <ele>754.8</ele>
        <time>2019-05-31T09:12:07Z</time>
      </trkpt>
      <trkpt lat="44.07988" lon="3.08906">
        <ele>752.9</ele>
        <time>2019-05-31T09:12:08Z</time>
      </trkpt>
      <trkpt lat="44.07984" lon="3.08913">
        <ele>751.1</ele>
        <time>2019-05-31T09:12:09Z</time>
      </trkpt>
      <trkpt lat="44.0798" lon="3.08924">
        <ele>749.4</ele>
        <time>2019-05-31T09:12:10Z</time>
      </trkpt>
      <trkpt lat="44.07976" lon="3.08934">
        <ele>748.4</ele>
        <time>2019-05-31T09:12:11Z</time>
      </trkpt>
      <trkpt lat="44.07971" lon="3.08942">
        <ele>747.5</ele>
        <time>2019-05-31T09:12:12Z</time>
      </trkpt>
      <trkpt lat="44.07967" lon="3.08952">
        <ele>746.8</ele>
        <time>2019-05-31T09:12:13Z</time>
      </trkpt>
      <trkpt lat="44.07962" lon="3.08961">
        <ele>746.1</ele>
        <time>2019-05-31T09:12:14Z</time>
      </trkpt>
      <trkpt lat="44.07959" lon="3.08972">
        <ele>745.5</ele>
        <time>2019-05-31T09:12:15Z</time>
      </trkpt>
      <trkpt lat="44.07955" lon="3.08982">
        <ele>745</ele>
        <time>2019-05-31T09:12:16Z</time>
      </trkpt>
      <trkpt lat="44.07952" lon="3.08991">
        <ele>744.5</ele>
        <time>2019-05-31T09:12:17Z</time>
      </trkpt>
      <trkpt lat="44.07948" lon="3.09">
        <ele>743.9</ele>
        <time>2019-05-31T09:12:18Z</time>
      </trkpt>
      <trkpt lat="44.07945" lon="3.09011">
        <ele>743.4</ele>
        <time>2019-05-31T09:12:19Z</time>
      </trkpt>
      <trkpt lat="44.07942" lon="3.09026">
        <ele>742.5</ele>
        <time>2019-05-31T09:12:20Z</time>
      </trkpt>
      <trkpt lat="44.07938" lon="3.09037">
        <ele>741.9</ele>
        <time>2019-05-31T09:12:21Z</time>
      </trkpt>
      <trkpt lat="44.07934" lon="3.09046">
        <ele>741.2</ele>
        <time>2019-05-31T09:12:22Z</time>
      </trkpt>
      <trkpt lat="44.0793" lon="3.0906">
        <ele>740.6</ele>
        <time>2019-05-31T09:12:23Z</time>
      </trkpt>
      <trkpt lat="44.07927" lon="3.09071">
        <ele>740.2</ele>
        <time>2019-05-31T09:12:24Z</time>
      </trkpt>
      <trkpt lat="44.07923" lon="3.09083">
        <ele>739.8</ele>
        <time>2019-05-31T09:12:25Z</time>
      </trkpt>
      <trkpt lat="44.07918" lon="3.09093">
        <ele>739.2</ele>
        <time>2019-05-31T09:12:26Z</time>
      </trkpt>
      <trkpt lat="44.07913" lon="3.09102">
        <ele>738.6</ele>
        <time>2019-05-31T09:12:27Z</time>
      </trkpt>
      <trkpt lat="44.07907" lon="3.09112">
        <ele>738</ele>
        <time>2019-05-31T09:12:28Z</time>
      </trkpt>
      <trkpt lat="44.07902" lon="3.09122">
        <ele>737.3</ele>
        <time>2019-05-31T09:12:29Z</time>
      </trkpt>
      <trkpt lat="44.07897" lon="3.0913">
        <ele>736.5</ele>
        <time>2019-05-31T09:12:30Z</time>
      </trkpt>
      <trkpt lat="44.07891" lon="3.09136">
        <ele>735.6</ele>
        <time>2019-05-31T09:12:31Z</time>
      </trkpt>
      <trkpt lat="44.07886" lon="3.09144">
        <ele>734.6</ele>
        <time>2019-05-31T09:12:32Z</time>
      </trkpt>
      <trkpt lat="44.07882" lon="3.09148">
        <ele>734.2</ele>
        <time>2019-05-31T09:12:33Z</time>
      </trkpt>
      <trkpt lat="44.07877" lon="3.09145">
        <ele>733.7</ele>
        <time>2019-05-31T09:12:35Z</time>
      </trkpt>
      <trkpt lat="44.07873" lon="3.09143">
        <ele>733.3</ele>
        <time>2019-05-31T09:12:38Z</time>
      </trkpt>
      <trkpt lat="44.0787" lon="3.09139">
        <ele>733</ele>
        <time>2019-05-31T09:12:39Z</time>
      </trkpt>
      <trkpt lat="44.07864" lon="3.0914">
        <ele>732.4</ele>
        <time>2019-05-31T09:12:40Z</time>
      </trkpt>
      <trkpt lat="44.07859" lon="3.09143">
        <ele>732.1</ele>
        <time>2019-05-31T09:12:41Z</time>
      </trkpt>
      <trkpt lat="44.07856" lon="3.09145">
        <ele>731.9</ele>
        <time>2019-05-31T09:12:42Z</time>
      </trkpt>
      <trkpt lat="44.07853" lon="3.09149">
        <ele>731.7</ele>
        <time>2019-05-31T09:12:44Z</time>
      </trkpt>
      <trkpt lat="44.07849" lon="3.09145">
        <ele>731.4</ele>
        <time>2019-05-31T09:12:46Z</time>
      </trkpt>
      <trkpt lat="44.07846" lon="3.09146">
        <ele>731.1</ele>
        <time>2019-05-31T09:12:48Z</time>
      </trkpt>
      <trkpt lat="44.07844" lon="3.0915">
        <ele>731</ele>
        <time>2019-05-31T09:12:54Z</time>
      </trkpt>
      <trkpt lat="44.07844" lon="3.09153">
        <ele>730.8</ele>
        <time>2019-05-31T09:12:57Z</time>
      </trkpt>
      <trkpt lat="44.07844" lon="3.09161">
        <ele>730.5</ele>
        <time>2019-05-31T09:13:38Z</time>
      </trkpt>
      <trkpt lat="44.07846" lon="3.09165">
        <ele>730.4</ele>
        <time>2019-05-31T09:13:40Z</time>
      </trkpt>
      <trkpt lat="44.07847" lon="3.09169">
        <ele>730.3</ele>
        <time>2019-05-31T09:13:42Z</time>
      </trkpt>
      <trkpt lat="44.07848" lon="3.09176">
        <ele>730.1</ele>
        <time>2019-05-31T09:13:44Z</time>
      </trkpt>
      <trkpt lat="44.07847" lon="3.09181">
        <ele>730</ele>
        <time>2019-05-31T09:13:45Z</time>
      </trkpt>
      <trkpt lat="44.07846" lon="3.09187">
        <ele>729.9</ele>
        <time>2019-05-31T09:13:46Z</time>
      </trkpt>
      <trkpt lat="44.07846" lon="3.09191">
        <ele>729.8</ele>
        <time>2019-05-31T09:13:47Z</time>
      </trkpt>
      <trkpt lat="44.07846" lon="3.09195">
        <ele>729.7</ele>
        <time>2019-05-31T09:13:48Z</time>
      </trkpt>
      <trkpt lat="44.07849" lon="3.09199">
        <ele>729.6</ele>
        <time>2019-05-31T09:13:49Z</time>
      </trkpt>
      <trkpt lat="44.07859" lon="3.09202">
        <ele>729.3</ele>
        <time>2019-05-31T09:13:50Z</time>
      </trkpt>
      <trkpt lat="44.07862" lon="3.09206">
        <ele>729.2</ele>
        <time>2019-05-31T09:13:51Z</time>
      </trkpt>
      <trkpt lat="44.07865" lon="3.09212">
        <ele>729</ele>
        <time>2019-05-31T09:13:52Z</time>
      </trkpt>
      <trkpt lat="44.07869" lon="3.09219">
        <ele>728.8</ele>
        <time>2019-05-31T09:13:53Z</time>
      </trkpt>
      <trkpt lat="44.07875" lon="3.09227">
        <ele>728.5</ele>
        <time>2019-05-31T09:13:54Z</time>
      </trkpt>
      <trkpt lat="44.07881" lon="3.09235">
        <ele>728.2</ele>
        <time>2019-05-31T09:13:55Z</time>
      </trkpt>
      <trkpt lat="44.07886" lon="3.09241">
        <ele>727.9</ele>
        <time>2019-05-31T09:13:56Z</time>
      </trkpt>
      <trkpt lat="44.07892" lon="3.09248">
        <ele>726.6</ele>
        <time>2019-05-31T09:13:57Z</time>
      </trkpt>
      <trkpt lat="44.07897" lon="3.09251">
        <ele>726.4</ele>
        <time>2019-05-31T09:13:58Z</time>
      </trkpt>
      <trkpt lat="44.07902" lon="3.09255">
        <ele>725.7</ele>
        <time>2019-05-31T09:13:59Z</time>
      </trkpt>
      <trkpt lat="44.07909" lon="3.09254">
        <ele>725.1</ele>
        <time>2019-05-31T09:14:00Z</time>
      </trkpt>
      <trkpt lat="44.07912" lon="3.09256">
        <ele>724.8</ele>
        <time>2019-05-31T09:14:01Z</time>
      </trkpt>
      <trkpt lat="44.07917" lon="3.09258">
        <ele>724.3</ele>
        <time>2019-05-31T09:14:02Z</time>
      </trkpt>
      <trkpt lat="44.07922" lon="3.09259">
        <ele>723.8</ele>
        <time>2019-05-31T09:14:03Z</time>
      </trkpt>
      <trkpt lat="44.07926" lon="3.0926">
        <ele>723.5</ele>
        <time>2019-05-31T09:14:04Z</time>
      </trkpt>
      <trkpt lat="44.0793" lon="3.09261">
        <ele>723.1</ele>
        <time>2019-05-31T09:14:05Z</time>
      </trkpt>
      <trkpt lat="44.07935" lon="3.09262">
        <ele>722.6</ele>
        <time>2019-05-31T09:14:06Z</time>
      </trkpt>
      <trkpt lat="44.07939" lon="3.09263">
        <ele>722.2</ele>
        <time>2019-05-31T09:14:07Z</time>
      </trkpt>
      <trkpt lat="44.07943" lon="3.09265">
        <ele>721.8</ele>
        <time>2019-05-31T09:14:08Z</time>
      </trkpt>
      <trkpt lat="44.07947" lon="3.09266">
        <ele>721.4</ele>
        <time>2019-05-31T09:14:09Z</time>
      </trkpt>
      <trkpt lat="44.07951" lon="3.09268">
        <ele>721</ele>
        <time>2019-05-31T09:14:10Z</time>
      </trkpt>
      <trkpt lat="44.07954" lon="3.09269">
        <ele>720.7</ele>
        <time>2019-05-31T09:14:11Z</time>
      </trkpt>
      <trkpt lat="44.07958" lon="3.09271">
        <ele>720.3</ele>
        <time>2019-05-31T09:14:12Z</time>
      </trkpt>
      <trkpt lat="44.0796" lon="3.09273">
        <ele>720.1</ele>
        <time>2019-05-31T09:14:13Z</time>
      </trkpt>
      <trkpt lat="44.07964" lon="3.09275">
        <ele>719.8</ele>
        <time>2019-05-31T09:14:14Z</time>
      </trkpt>
      <trkpt lat="44.07967" lon="3.09275">
        <ele>719.5</ele>
        <time>2019-05-31T09:14:15Z</time>
      </trkpt>
      <trkpt lat="44.07972" lon="3.09278">
        <ele>719</ele>
        <time>2019-05-31T09:14:17Z</time>
      </trkpt>
      <trkpt lat="44.07975" lon="3.09282">
        <ele>719.3</ele>
        <time>2019-05-31T09:14:19Z</time>
      </trkpt>
      <trkpt lat="44.0798" lon="3.09285">
        <ele>719.6</ele>
        <time>2019-05-31T09:14:21Z</time>
      </trkpt>
      <trkpt lat="44.07982" lon="3.09286">
        <ele>719.8</ele>
        <time>2019-05-31T09:14:22Z</time>
      </trkpt>
      <trkpt lat="44.07985" lon="3.09287">
        <ele>719.9</ele>
        <time>2019-05-31T09:14:23Z</time>
      </trkpt>
      <trkpt lat="44.07988" lon="3.09288">
        <ele>720.1</ele>
        <time>2019-05-31T09:14:24Z</time>
      </trkpt>
      <trkpt lat="44.07991" lon="3.09288">
        <ele>720.2</ele>
        <time>2019-05-31T09:14:25Z</time>
      </trkpt>
      <trkpt lat="44.07994" lon="3.09289">
        <ele>720.4</ele>
        <time>2019-05-31T09:14:26Z</time>
      </trkpt>
      <trkpt lat="44.07997" lon="3.0929">
        <ele>720.5</ele>
        <time>2019-05-31T09:14:27Z</time>
      </trkpt>
      <trkpt lat="44.08" lon="3.0929">
        <ele>720.6</ele>
        <time>2019-05-31T09:14:28Z</time>
      </trkpt>
      <trkpt lat="44.08003" lon="3.0929">
        <ele>720.8</ele>
        <time>2019-05-31T09:14:29Z</time>
      </trkpt>
      <trkpt lat="44.08006" lon="3.0929">
        <ele>720.9</ele>
        <time>2019-05-31T09:14:30Z</time>
      </trkpt>
      <trkpt lat="44.08009" lon="3.0929">
        <ele>721</ele>
        <time>2019-05-31T09:14:31Z</time>
      </trkpt>
      <trkpt lat="44.08011" lon="3.09289">
        <ele>721.1</ele>
        <time>2019-05-31T09:14:32Z</time>
      </trkpt>
      <trkpt lat="44.08014" lon="3.0929">
        <ele>721.2</ele>
        <time>2019-05-31T09:14:33Z</time>
      </trkpt>
      <trkpt lat="44.0802" lon="3.0929">
        <ele>721.4</ele>
        <time>2019-05-31T09:14:35Z</time>
      </trkpt>
      <trkpt lat="44.08025" lon="3.0929">
        <ele>721.5</ele>
        <time>2019-05-31T09:14:37Z</time>
      </trkpt>
      <trkpt lat="44.0803" lon="3.09291">
        <ele>721.7</ele>
        <time>2019-05-31T09:14:39Z</time>
      </trkpt>
      <trkpt lat="44.08035" lon="3.09293">
        <ele>721.8</ele>
        <time>2019-05-31T09:14:41Z</time>
      </trkpt>
      <trkpt lat="44.08039" lon="3.09295">
        <ele>721.9</ele>
        <time>2019-05-31T09:14:43Z</time>
      </trkpt>
      <trkpt lat="44.08044" lon="3.09297">
        <ele>722</ele>
        <time>2019-05-31T09:14:45Z</time>
      </trkpt>
      <trkpt lat="44.08047" lon="3.09298">
        <ele>722.1</ele>
        <time>2019-05-31T09:14:46Z</time>
      </trkpt>
      <trkpt lat="44.0805" lon="3.09297">
        <ele>722.2</ele>
        <time>2019-05-31T09:14:47Z</time>
      </trkpt>
      <trkpt lat="44.08053" lon="3.09296">
        <ele>722.3</ele>
        <time>2019-05-31T09:14:48Z</time>
      </trkpt>
      <trkpt lat="44.08056" lon="3.09295">
        <ele>722.3</ele>
        <time>2019-05-31T09:14:49Z</time>
      </trkpt>
      <trkpt lat="44.08059" lon="3.09292">
        <ele>722.4</ele>
        <time>2019-05-31T09:14:50Z</time>
      </trkpt>
      <trkpt lat="44.08061" lon="3.0929">
        <ele>722.4</ele>
        <time>2019-05-31T09:14:51Z</time>
      </trkpt>
      <trkpt lat="44.08065" lon="3.09288">
        <ele>722.5</ele>
        <time>2019-05-31T09:14:52Z</time>
      </trkpt>
      <trkpt lat="44.08068" lon="3.09286">
        <ele>722.6</ele>
        <time>2019-05-31T09:14:53Z</time>
      </trkpt>
      <trkpt lat="44.08072" lon="3.09285">
        <ele>722.7</ele>
        <time>2019-05-31T09:14:54Z</time>
      </trkpt>
      <trkpt lat="44.08076" lon="3.09284">
        <ele>722.8</ele>
        <time>2019-05-31T09:14:55Z</time>
      </trkpt>
      <trkpt lat="44.0808" lon="3.09283">
        <ele>722.9</ele>
        <time>2019-05-31T09:14:56Z</time>
      </trkpt>
      <trkpt lat="44.08084" lon="3.09282">
        <ele>723.1</ele>
        <time>2019-05-31T09:14:57Z</time>
      </trkpt>
      <trkpt lat="44.08087" lon="3.09282">
        <ele>723.2</ele>
        <time>2019-05-31T09:14:58Z</time>
      </trkpt>
      <trkpt lat="44.0809" lon="3.09281">
        <ele>723.3</ele>
        <time>2019-05-31T09:14:59Z</time>
      </trkpt>
      <trkpt lat="44.08093" lon="3.09281">
        <ele>723.5</ele>
        <time>2019-05-31T09:15:00Z</time>
      </trkpt>
      <trkpt lat="44.08098" lon="3.09281">
        <ele>723.6</ele>
        <time>2019-05-31T09:15:01Z</time>
      </trkpt>
      <trkpt lat="44.08101" lon="3.09279">
        <ele>723.8</ele>
        <time>2019-05-31T09:15:02Z</time>
      </trkpt>
      <trkpt lat="44.08104" lon="3.09278">
        <ele>723.9</ele>
        <time>2019-05-31T09:15:03Z</time>
      </trkpt>
      <trkpt lat="44.08107" lon="3.09276">
        <ele>724</ele>
        <time>2019-05-31T09:15:04Z</time>
      </trkpt>
      <trkpt lat="44.0811" lon="3.09274">
        <ele>724.2</ele>
        <time>2019-05-31T09:15:05Z</time>
      </trkpt>
      <trkpt lat="44.08113" lon="3.09272">
        <ele>724.4</ele>
        <time>2019-05-31T09:15:06Z</time>
      </trkpt>
      <trkpt lat="44.08116" lon="3.09271">
        <ele>724.6</ele>
        <time>2019-05-31T09:15:07Z</time>
      </trkpt>
      <trkpt lat="44.08119" lon="3.09269">
        <ele>724.9</ele>
        <time>2019-05-31T09:15:08Z</time>
      </trkpt>
      <trkpt lat="44.08123" lon="3.09266">
        <ele>725.4</ele>
        <time>2019-05-31T09:15:10Z</time>
      </trkpt>
      <trkpt lat="44.08128" lon="3.09263">
        <ele>726</ele>
        <time>2019-05-31T09:15:12Z</time>
      </trkpt>
      <trkpt lat="44.08131" lon="3.09261">
        <ele>726.5</ele>
        <time>2019-05-31T09:15:14Z</time>
      </trkpt>
      <trkpt lat="44.08134" lon="3.09257">
        <ele>727</ele>
        <time>2019-05-31T09:15:17Z</time>
      </trkpt>
      <trkpt lat="44.08136" lon="3.09254">
        <ele>727.5</ele>
        <time>2019-05-31T09:15:42Z</time>
      </trkpt>
      <trkpt lat="44.08138" lon="3.09251">
        <ele>727.9</ele>
        <time>2019-05-31T09:16:02Z</time>
      </trkpt>
      <trkpt lat="44.0814" lon="3.0925">
        <ele>728.4</ele>
        <time>2019-05-31T09:16:06Z</time>
      </trkpt>
      <trkpt lat="44.08144" lon="3.09248">
        <ele>729</ele>
        <time>2019-05-31T09:16:10Z</time>
      </trkpt>
      <trkpt lat="44.08143" lon="3.09252">
        <ele>729.4</ele>
        <time>2019-05-31T09:18:31Z</time>
      </trkpt>
      <trkpt lat="44.08141" lon="3.09255">
        <ele>729.9</ele>
        <time>2019-05-31T09:18:34Z</time>
      </trkpt>
      <trkpt lat="44.0814" lon="3.09259">
        <ele>730.3</ele>
        <time>2019-05-31T09:18:38Z</time>
      </trkpt>
      <trkpt lat="44.08143" lon="3.09259">
        <ele>730.7</ele>
        <time>2019-05-31T09:19:13Z</time>
      </trkpt>
      <trkpt lat="44.08143" lon="3.09263">
        <ele>731.1</ele>
        <time>2019-05-31T09:19:22Z</time>
      </trkpt>
      <trkpt lat="44.08142" lon="3.09266">
        <ele>731.4</ele>
        <time>2019-05-31T09:19:24Z</time>
      </trkpt>
      <trkpt lat="44.0814" lon="3.09271">
        <ele>731.9</ele>
        <time>2019-05-31T09:19:26Z</time>
      </trkpt>
      <trkpt lat="44.08138" lon="3.09275">
        <ele>732.3</ele>
        <time>2019-05-31T09:19:28Z</time>
      </trkpt>
      <trkpt lat="44.08137" lon="3.09279">
        <ele>732.7</ele>
        <time>2019-05-31T09:19:30Z</time>
      </trkpt>
      <trkpt lat="44.08137" lon="3.09285">
        <ele>733.2</ele>
        <time>2019-05-31T09:19:32Z</time>
      </trkpt>
      <trkpt lat="44.08138" lon="3.0929">
        <ele>733.6</ele>
        <time>2019-05-31T09:19:34Z</time>
      </trkpt>
      <trkpt lat="44.08139" lon="3.09295">
        <ele>733.9</ele>
        <time>2019-05-31T09:19:36Z</time>
      </trkpt>
      <trkpt lat="44.08141" lon="3.093">
        <ele>734.3</ele>
        <time>2019-05-31T09:19:38Z</time>
      </trkpt>
      <trkpt lat="44.08142" lon="3.09306">
        <ele>734.6</ele>
        <time>2019-05-31T09:19:40Z</time>
      </trkpt>
      <trkpt lat="44.08141" lon="3.09311">
        <ele>734.9</ele>
        <time>2019-05-31T09:19:42Z</time>
      </trkpt>
      <trkpt lat="44.0814" lon="3.09316">
        <ele>735.1</ele>
        <time>2019-05-31T09:19:44Z</time>
      </trkpt>
      <trkpt lat="44.08139" lon="3.09321">
        <ele>735.4</ele>
        <time>2019-05-31T09:19:47Z</time>
      </trkpt>
      <trkpt lat="44.08138" lon="3.09325">
        <ele>735.6</ele>
        <time>2019-05-31T09:19:49Z</time>
      </trkpt>
      <trkpt lat="44.08138" lon="3.0933">
        <ele>735.9</ele>
        <time>2019-05-31T09:19:51Z</time>
      </trkpt>
      <trkpt lat="44.08138" lon="3.09335">
        <ele>736.2</ele>
        <time>2019-05-31T09:19:54Z</time>
      </trkpt>
      <trkpt lat="44.08138" lon="3.0934">
        <ele>736.5</ele>
        <time>2019-05-31T09:19:56Z</time>
      </trkpt>
      <trkpt lat="44.08137" lon="3.09345">
        <ele>736.7</ele>
        <time>2019-05-31T09:19:58Z</time>
      </trkpt>
      <trkpt lat="44.08136" lon="3.0935">
        <ele>737</ele>
        <time>2019-05-31T09:20:00Z</time>
      </trkpt>
      <trkpt lat="44.08136" lon="3.09355">
        <ele>737.3</ele>
        <time>2019-05-31T09:20:02Z</time>
      </trkpt>
      <trkpt lat="44.08137" lon="3.09359">
        <ele>737.5</ele>
        <time>2019-05-31T09:20:04Z</time>
      </trkpt>
      <trkpt lat="44.08136" lon="3.09365">
        <ele>737.8</ele>
        <time>2019-05-31T09:20:07Z</time>
      </trkpt>
      <trkpt lat="44.08136" lon="3.09369">
        <ele>738</ele>
        <time>2019-05-31T09:20:09Z</time>
      </trkpt>
      <trkpt lat="44.08137" lon="3.09374">
        <ele>738.2</ele>
        <time>2019-05-31T09:20:12Z</time>
      </trkpt>
      <trkpt lat="44.08138" lon="3.09378">
        <ele>738.4</ele>
        <time>2019-05-31T09:20:14Z</time>
      </trkpt>
      <trkpt lat="44.08138" lon="3.09383">
        <ele>738.6</ele>
        <time>2019-05-31T09:20:16Z</time>
      </trkpt>
      <trkpt lat="44.08137" lon="3.09387">
        <ele>738.7</ele>
        <time>2019-05-31T09:20:18Z</time>
      </trkpt>
      <trkpt lat="44.08137" lon="3.09392">
        <ele>738.9</ele>
        <time>2019-05-31T09:20:20Z</time>
      </trkpt>
      <trkpt lat="44.08136" lon="3.09396">
        <ele>739</ele>
        <time>2019-05-31T09:20:22Z</time>
      </trkpt>
      <trkpt lat="44.08136" lon="3.094">
        <ele>739.1</ele>
        <time>2019-05-31T09:20:25Z</time>
      </trkpt>
      <trkpt lat="44.08137" lon="3.09403">
        <ele>739.2</ele>
        <time>2019-05-31T09:20:27Z</time>
      </trkpt>
      <trkpt lat="44.08138" lon="3.09408">
        <ele>739.3</ele>
        <time>2019-05-31T09:20:29Z</time>
      </trkpt>
      <trkpt lat="44.0814" lon="3.09412">
        <ele>739.4</ele>
        <time>2019-05-31T09:20:31Z</time>
      </trkpt>
      <trkpt lat="44.08141" lon="3.09416">
        <ele>739.4</ele>
        <time>2019-05-31T09:20:33Z</time>
      </trkpt>
      <trkpt lat="44.08142" lon="3.09421">
        <ele>739.4</ele>
        <time>2019-05-31T09:20:35Z</time>
      </trkpt>
      <trkpt lat="44.08142" lon="3.09426">
        <ele>739.4</ele>
        <time>2019-05-31T09:20:37Z</time>
      </trkpt>
      <trkpt lat="44.08143" lon="3.09431">
        <ele>739.4</ele>
        <time>2019-05-31T09:20:39Z</time>
      </trkpt>
      <trkpt lat="44.08144" lon="3.09437">
        <ele>739.3</ele>
        <time>2019-05-31T09:20:41Z</time>
      </trkpt>
      <trkpt lat="44.08144" lon="3.09442">
        <ele>739.2</ele>
        <time>2019-05-31T09:20:43Z</time>
      </trkpt>
      <trkpt lat="44.08144" lon="3.09446">
        <ele>739.1</ele>
        <time>2019-05-31T09:20:45Z</time>
      </trkpt>
      <trkpt lat="44.08143" lon="3.09452">
        <ele>739</ele>
        <time>2019-05-31T09:20:47Z</time>
      </trkpt>
      <trkpt lat="44.08142" lon="3.09457">
        <ele>738.9</ele>
        <time>2019-05-31T09:20:49Z</time>
      </trkpt>
      <trkpt lat="44.0814" lon="3.09463">
        <ele>738.8</ele>
        <time>2019-05-31T09:20:51Z</time>
      </trkpt>
      <trkpt lat="44.08139" lon="3.09468">
        <ele>738.7</ele>
        <time>2019-05-31T09:20:53Z</time>
      </trkpt>
      <trkpt lat="44.08138" lon="3.09475">
        <ele>738.7</ele>
        <time>2019-05-31T09:20:55Z</time>
      </trkpt>
      <trkpt lat="44.08138" lon="3.09481">
        <ele>738.7</ele>
        <time>2019-05-31T09:20:57Z</time>
      </trkpt>
      <trkpt lat="44.08138" lon="3.09485">
        <ele>738.7</ele>
        <time>2019-05-31T09:20:58Z</time>
      </trkpt>
      <trkpt lat="44.08137" lon="3.09489">
        <ele>738.7</ele>
        <time>2019-05-31T09:20:59Z</time>
      </trkpt>
      <trkpt lat="44.08136" lon="3.09493">
        <ele>738.7</ele>
        <time>2019-05-31T09:21:00Z</time>
      </trkpt>
      <trkpt lat="44.08136" lon="3.09498">
        <ele>738.7</ele>
        <time>2019-05-31T09:21:01Z</time>
      </trkpt>
      <trkpt lat="44.08135" lon="3.09502">
        <ele>738.7</ele>
        <time>2019-05-31T09:21:02Z</time>
      </trkpt>
      <trkpt lat="44.08133" lon="3.09506">
        <ele>738.7</ele>
        <time>2019-05-31T09:21:03Z</time>
      </trkpt>
      <trkpt lat="44.08132" lon="3.09511">
        <ele>738.7</ele>
        <time>2019-05-31T09:21:04Z</time>
      </trkpt>
      <trkpt lat="44.08129" lon="3.09516">
        <ele>738.7</ele>
        <time>2019-05-31T09:21:05Z</time>
      </trkpt>
      <trkpt lat="44.08127" lon="3.09519">
        <ele>738.7</ele>
        <time>2019-05-31T09:21:06Z</time>
      </trkpt>
      <trkpt lat="44.08124" lon="3.09524">
        <ele>738.7</ele>
        <time>2019-05-31T09:21:07Z</time>
      </trkpt>
      <trkpt lat="44.08122" lon="3.0953">
        <ele>738.7</ele>
        <time>2019-05-31T09:21:08Z</time>
      </trkpt>
      <trkpt lat="44.08121" lon="3.09535">
        <ele>738.7</ele>
        <time>2019-05-31T09:21:09Z</time>
      </trkpt>
      <trkpt lat="44.08119" lon="3.0954">
        <ele>738.6</ele>
        <time>2019-05-31T09:21:10Z</time>
      </trkpt>
      <trkpt lat="44.08118" lon="3.09547">
        <ele>738.6</ele>
        <time>2019-05-31T09:21:11Z</time>
      </trkpt>
      <trkpt lat="44.08117" lon="3.09553">
        <ele>738.5</ele>
        <time>2019-05-31T09:21:12Z</time>
      </trkpt>
      <trkpt lat="44.08115" lon="3.0956">
        <ele>738.5</ele>
        <time>2019-05-31T09:21:14Z</time>
      </trkpt>
      <trkpt lat="44.08115" lon="3.09567">
        <ele>738.5</ele>
        <time>2019-05-31T09:21:15Z</time>
      </trkpt>
      <trkpt lat="44.08114" lon="3.09572">
        <ele>738.5</ele>
        <time>2019-05-31T09:21:16Z</time>
      </trkpt>
      <trkpt lat="44.08114" lon="3.09578">
        <ele>738.5</ele>
        <time>2019-05-31T09:21:17Z</time>
      </trkpt>
      <trkpt lat="44.08112" lon="3.09583">
        <ele>738.6</ele>
        <time>2019-05-31T09:21:18Z</time>
      </trkpt>
      <trkpt lat="44.0811" lon="3.09589">
        <ele>738.6</ele>
        <time>2019-05-31T09:21:19Z</time>
      </trkpt>
      <trkpt lat="44.08109" lon="3.09595">
        <ele>738.7</ele>
        <time>2019-05-31T09:21:20Z</time>
      </trkpt>
      <trkpt lat="44.08108" lon="3.096">
        <ele>738.8</ele>
        <time>2019-05-31T09:21:21Z</time>
      </trkpt>
      <trkpt lat="44.08107" lon="3.09605">
        <ele>738.8</ele>
        <time>2019-05-31T09:21:22Z</time>
      </trkpt>
      <trkpt lat="44.08107" lon="3.09609">
        <ele>738.8</ele>
        <time>2019-05-31T09:21:23Z</time>
      </trkpt>
      <trkpt lat="44.08106" lon="3.09615">
        <ele>738.8</ele>
        <time>2019-05-31T09:21:24Z</time>
      </trkpt>
      <trkpt lat="44.08106" lon="3.0962">
        <ele>738.8</ele>
        <time>2019-05-31T09:21:25Z</time>
      </trkpt>
      <trkpt lat="44.08107" lon="3.09624">
        <ele>738.9</ele>
        <time>2019-05-31T09:21:26Z</time>
      </trkpt>
      <trkpt lat="44.08106" lon="3.09629">
        <ele>738.9</ele>
        <time>2019-05-31T09:21:27Z</time>
      </trkpt>
      <trkpt lat="44.08106" lon="3.09634">
        <ele>738.9</ele>
        <time>2019-05-31T09:21:28Z</time>
      </trkpt>
      <trkpt lat="44.08105" lon="3.09639">
        <ele>738.9</ele>
        <time>2019-05-31T09:21:29Z</time>
      </trkpt>
      <trkpt lat="44.08104" lon="3.09644">
        <ele>738.9</ele>
        <time>2019-05-31T09:21:30Z</time>
      </trkpt>
      <trkpt lat="44.08103" lon="3.09648">
        <ele>738.9</ele>
        <time>2019-05-31T09:21:31Z</time>
      </trkpt>
      <trkpt lat="44.08102" lon="3.09654">
        <ele>738.9</ele>
        <time>2019-05-31T09:21:32Z</time>
      </trkpt>
      <trkpt lat="44.08102" lon="3.09659">
        <ele>738.9</ele>
        <time>2019-05-31T09:21:33Z</time>
      </trkpt>
      <trkpt lat="44.08102" lon="3.09664">
        <ele>738.9</ele>
        <time>2019-05-31T09:21:34Z</time>
      </trkpt>
      <trkpt lat="44.08103" lon="3.09669">
        <ele>738.9</ele>
        <time>2019-05-31T09:21:35Z</time>
      </trkpt>
      <trkpt lat="44.08103" lon="3.09673">
        <ele>738.9</ele>
        <time>2019-05-31T09:21:36Z</time>
      </trkpt>
      <trkpt lat="44.08104" lon="3.09678">
        <ele>738.9</ele>
        <time>2019-05-31T09:21:37Z</time>
      </trkpt>
      <trkpt lat="44.08104" lon="3.09683">
        <ele>739</ele>
        <time>2019-05-31T09:21:38Z</time>
      </trkpt>
      <trkpt lat="44.08104" lon="3.09687">
        <ele>739</ele>
        <time>2019-05-31T09:21:39Z</time>
      </trkpt>
      <trkpt lat="44.08104" lon="3.09693">
        <ele>739</ele>
        <time>2019-05-31T09:21:40Z</time>
      </trkpt>
      <trkpt lat="44.08103" lon="3.09699">
        <ele>739</ele>
        <time>2019-05-31T09:21:41Z</time>
      </trkpt>
      <trkpt lat="44.08103" lon="3.09706">
        <ele>739.1</ele>
        <time>2019-05-31T09:21:42Z</time>
      </trkpt>
      <trkpt lat="44.08103" lon="3.09712">
        <ele>739.1</ele>
        <time>2019-05-31T09:21:43Z</time>
      </trkpt>
      <trkpt lat="44.08103" lon="3.09718">
        <ele>739.2</ele>
        <time>2019-05-31T09:21:44Z</time>
      </trkpt>
      <trkpt lat="44.08104" lon="3.09724">
        <ele>739.3</ele>
        <time>2019-05-31T09:21:45Z</time>
      </trkpt>
      <trkpt lat="44.08105" lon="3.09729">
        <ele>739.4</ele>
        <time>2019-05-31T09:21:46Z</time>
      </trkpt>
      <trkpt lat="44.08106" lon="3.09735">
        <ele>739.5</ele>
        <time>2019-05-31T09:21:47Z</time>
      </trkpt>
      <trkpt lat="44.08106" lon="3.09742">
        <ele>739.6</ele>
        <time>2019-05-31T09:21:48Z</time>
      </trkpt>
      <trkpt lat="44.08105" lon="3.09747">
        <ele>739.7</ele>
        <time>2019-05-31T09:21:49Z</time>
      </trkpt>
      <trkpt lat="44.08104" lon="3.09752">
        <ele>739.8</ele>
        <time>2019-05-31T09:21:50Z</time>
      </trkpt>
      <trkpt lat="44.08105" lon="3.09759">
        <ele>739.9</ele>
        <time>2019-05-31T09:21:51Z</time>
      </trkpt>
      <trkpt lat="44.08105" lon="3.09764">
        <ele>740</ele>
        <time>2019-05-31T09:21:52Z</time>
      </trkpt>
      <trkpt lat="44.08106" lon="3.09768">
        <ele>740.1</ele>
        <time>2019-05-31T09:21:53Z</time>
      </trkpt>
      <trkpt lat="44.08109" lon="3.09775">
        <ele>740.2</ele>
        <time>2019-05-31T09:21:55Z</time>
      </trkpt>
      <trkpt lat="44.08111" lon="3.09782">
        <ele>740.4</ele>
        <time>2019-05-31T09:21:57Z</time>
      </trkpt>
      <trkpt lat="44.08111" lon="3.09789">
        <ele>740.5</ele>
        <time>2019-05-31T09:21:59Z</time>
      </trkpt>
      <trkpt lat="44.08113" lon="3.09795">
        <ele>740.6</ele>
        <time>2019-05-31T09:22:01Z</time>
      </trkpt>
      <trkpt lat="44.08115" lon="3.09802">
        <ele>740.7</ele>
        <time>2019-05-31T09:22:03Z</time>
      </trkpt>
      <trkpt lat="44.08116" lon="3.09808">
        <ele>740.8</ele>
        <time>2019-05-31T09:22:05Z</time>
      </trkpt>
      <trkpt lat="44.08117" lon="3.09812">
        <ele>740.9</ele>
        <time>2019-05-31T09:22:06Z</time>
      </trkpt>
      <trkpt lat="44.08117" lon="3.09817">
        <ele>741</ele>
        <time>2019-05-31T09:22:08Z</time>
      </trkpt>
      <trkpt lat="44.08117" lon="3.09822">
        <ele>741</ele>
        <time>2019-05-31T09:22:10Z</time>
      </trkpt>
      <trkpt lat="44.08118" lon="3.09828">
        <ele>741.1</ele>
        <time>2019-05-31T09:22:12Z</time>
      </trkpt>
      <trkpt lat="44.0812" lon="3.09834">
        <ele>741.1</ele>
        <time>2019-05-31T09:22:14Z</time>
      </trkpt>
      <trkpt lat="44.08122" lon="3.0984">
        <ele>741.1</ele>
        <time>2019-05-31T09:22:16Z</time>
      </trkpt>
      <trkpt lat="44.08124" lon="3.09845">
        <ele>741.1</ele>
        <time>2019-05-31T09:22:18Z</time>
      </trkpt>
      <trkpt lat="44.08125" lon="3.09852">
        <ele>741.1</ele>
        <time>2019-05-31T09:22:20Z</time>
      </trkpt>
      <trkpt lat="44.08127" lon="3.09859">
        <ele>742.2</ele>
        <time>2019-05-31T09:22:22Z</time>
      </trkpt>
      <trkpt lat="44.08129" lon="3.09865">
        <ele>742.8</ele>
        <time>2019-05-31T09:22:24Z</time>
      </trkpt>
      <trkpt lat="44.08131" lon="3.09871">
        <ele>743.5</ele>
        <time>2019-05-31T09:22:26Z</time>
      </trkpt>
      <trkpt lat="44.08133" lon="3.09874">
        <ele>743.8</ele>
        <time>2019-05-31T09:22:27Z</time>
      </trkpt>
      <trkpt lat="44.08135" lon="3.09879">
        <ele>744.3</ele>
        <time>2019-05-31T09:22:29Z</time>
      </trkpt>
      <trkpt lat="44.08136" lon="3.09885">
        <ele>744.7</ele>
        <time>2019-05-31T09:22:31Z</time>
      </trkpt>
      <trkpt lat="44.08137" lon="3.09891">
        <ele>745.1</ele>
        <time>2019-05-31T09:22:33Z</time>
      </trkpt>
      <trkpt lat="44.08137" lon="3.09896">
        <ele>745.5</ele>
        <time>2019-05-31T09:22:35Z</time>
      </trkpt>
      <trkpt lat="44.08138" lon="3.099">
        <ele>745.8</ele>
        <time>2019-05-31T09:22:37Z</time>
      </trkpt>
      <trkpt lat="44.08138" lon="3.09904">
        <ele>746</ele>
        <time>2019-05-31T09:22:39Z</time>
      </trkpt>
      <trkpt lat="44.08139" lon="3.09908">
        <ele>746.2</ele>
        <time>2019-05-31T09:22:41Z</time>
      </trkpt>
      <trkpt lat="44.0814" lon="3.09913">
        <ele>746.5</ele>
        <time>2019-05-31T09:22:44Z</time>
      </trkpt>
      <trkpt lat="44.08141" lon="3.09918">
        <ele>746.7</ele>
        <time>2019-05-31T09:22:46Z</time>
      </trkpt>
      <trkpt lat="44.08143" lon="3.09922">
        <ele>746.9</ele>
        <time>2019-05-31T09:22:48Z</time>
      </trkpt>
      <trkpt lat="44.08144" lon="3.09928">
        <ele>747</ele>
        <time>2019-05-31T09:22:50Z</time>
      </trkpt>
      <trkpt lat="44.08145" lon="3.09932">
        <ele>747.1</ele>
        <time>2019-05-31T09:22:52Z</time>
      </trkpt>
      <trkpt lat="44.08145" lon="3.09937">
        <ele>747.2</ele>
        <time>2019-05-31T09:22:54Z</time>
      </trkpt>
      <trkpt lat="44.08145" lon="3.09943">
        <ele>747.2</ele>
        <time>2019-05-31T09:22:56Z</time>
      </trkpt>
      <trkpt lat="44.08147" lon="3.09948">
        <ele>747.3</ele>
        <time>2019-05-31T09:22:58Z</time>
      </trkpt>
      <trkpt lat="44.08149" lon="3.09952">
        <ele>747.3</ele>
        <time>2019-05-31T09:23:00Z</time>
      </trkpt>
      <trkpt lat="44.08151" lon="3.09958">
        <ele>747.3</ele>
        <time>2019-05-31T09:23:02Z</time>
      </trkpt>
      <trkpt lat="44.08152" lon="3.09964">
        <ele>747.4</ele>
        <time>2019-05-31T09:23:04Z</time>
      </trkpt>
      <trkpt lat="44.08153" lon="3.0997">
        <ele>747.5</ele>
        <time>2019-05-31T09:23:06Z</time>
      </trkpt>
      <trkpt lat="44.08154" lon="3.09977">
        <ele>747.5</ele>
        <time>2019-05-31T09:23:08Z</time>
      </trkpt>
      <trkpt lat="44.08156" lon="3.09983">
        <ele>747.6</ele>
        <time>2019-05-31T09:23:10Z</time>
      </trkpt>
      <trkpt lat="44.08157" lon="3.0999">
        <ele>747.6</ele>
        <time>2019-05-31T09:23:12Z</time>
      </trkpt>
      <trkpt lat="44.08159" lon="3.09996">
        <ele>747.5</ele>
        <time>2019-05-31T09:23:14Z</time>
      </trkpt>
      <trkpt lat="44.08159" lon="3.1">
        <ele>747.4</ele>
        <time>2019-05-31T09:23:15Z</time>
      </trkpt>
      <trkpt lat="44.0816" lon="3.10005">
        <ele>747.3</ele>
        <time>2019-05-31T09:23:17Z</time>
      </trkpt>
      <trkpt lat="44.08161" lon="3.10011">
        <ele>747.2</ele>
        <time>2019-05-31T09:23:19Z</time>
      </trkpt>
      <trkpt lat="44.08161" lon="3.10015">
        <ele>747.1</ele>
        <time>2019-05-31T09:23:20Z</time>
      </trkpt>
      <trkpt lat="44.08162" lon="3.10019">
        <ele>747</ele>
        <time>2019-05-31T09:23:21Z</time>
      </trkpt>
      <trkpt lat="44.08163" lon="3.10027">
        <ele>746.8</ele>
        <time>2019-05-31T09:23:23Z</time>
      </trkpt>
      <trkpt lat="44.08164" lon="3.10031">
        <ele>746.7</ele>
        <time>2019-05-31T09:23:24Z</time>
      </trkpt>
      <trkpt lat="44.08164" lon="3.10036">
        <ele>746.7</ele>
        <time>2019-05-31T09:23:25Z</time>
      </trkpt>
      <trkpt lat="44.08165" lon="3.1004">
        <ele>746.6</ele>
        <time>2019-05-31T09:23:26Z</time>
      </trkpt>
      <trkpt lat="44.08166" lon="3.10046">
        <ele>746.5</ele>
        <time>2019-05-31T09:23:27Z</time>
      </trkpt>
      <trkpt lat="44.08167" lon="3.10051">
        <ele>746.4</ele>
        <time>2019-05-31T09:23:28Z</time>
      </trkpt>
      <trkpt lat="44.08168" lon="3.10057">
        <ele>746.3</ele>
        <time>2019-05-31T09:23:29Z</time>
      </trkpt>
      <trkpt lat="44.08168" lon="3.10062">
        <ele>746.3</ele>
        <time>2019-05-31T09:23:30Z</time>
      </trkpt>
      <trkpt lat="44.08169" lon="3.10067">
        <ele>746.3</ele>
        <time>2019-05-31T09:23:31Z</time>
      </trkpt>
      <trkpt lat="44.0817" lon="3.10072">
        <ele>746.4</ele>
        <time>2019-05-31T09:23:32Z</time>
      </trkpt>
      <trkpt lat="44.08171" lon="3.10077">
        <ele>746.4</ele>
        <time>2019-05-31T09:23:33Z</time>
      </trkpt>
      <trkpt lat="44.08172" lon="3.10081">
        <ele>746.4</ele>
        <time>2019-05-31T09:23:34Z</time>
      </trkpt>
      <trkpt lat="44.08174" lon="3.10086">
        <ele>746.4</ele>
        <time>2019-05-31T09:23:35Z</time>
      </trkpt>
      <trkpt lat="44.08177" lon="3.10091">
        <ele>746.4</ele>
        <time>2019-05-31T09:23:36Z</time>
      </trkpt>
      <trkpt lat="44.08179" lon="3.10095">
        <ele>746.3</ele>
        <time>2019-05-31T09:23:37Z</time>
      </trkpt>
      <trkpt lat="44.08181" lon="3.101">
        <ele>746.2</ele>
        <time>2019-05-31T09:23:38Z</time>
      </trkpt>
      <trkpt lat="44.08183" lon="3.10105">
        <ele>746.1</ele>
        <time>2019-05-31T09:23:39Z</time>
      </trkpt>
      <trkpt lat="44.08185" lon="3.10111">
        <ele>745.9</ele>
        <time>2019-05-31T09:23:40Z</time>
      </trkpt>
      <trkpt lat="44.08187" lon="3.10116">
        <ele>745.8</ele>
        <time>2019-05-31T09:23:41Z</time>
      </trkpt>
      <trkpt lat="44.08188" lon="3.10122">
        <ele>745.7</ele>
        <time>2019-05-31T09:23:42Z</time>
      </trkpt>
      <trkpt lat="44.0819" lon="3.10128">
        <ele>745.6</ele>
        <time>2019-05-31T09:23:43Z</time>
      </trkpt>
      <trkpt lat="44.08192" lon="3.10136">
        <ele>745.5</ele>
        <time>2019-05-31T09:23:44Z</time>
      </trkpt>
      <trkpt lat="44.0819" lon="3.10141">
        <ele>745.5</ele>
        <time>2019-05-31T09:23:45Z</time>
      </trkpt>
      <trkpt lat="44.08189" lon="3.10146">
        <ele>745.4</ele>
        <time>2019-05-31T09:23:46Z</time>
      </trkpt>
      <trkpt lat="44.08189" lon="3.10151">
        <ele>745.4</ele>
        <time>2019-05-31T09:23:47Z</time>
      </trkpt>
      <trkpt lat="44.08191" lon="3.10156">
        <ele>745.3</ele>
        <time>2019-05-31T09:23:48Z</time>
      </trkpt>
      <trkpt lat="44.08192" lon="3.10163">
        <ele>745.3</ele>
        <time>2019-05-31T09:23:49Z</time>
      </trkpt>
      <trkpt lat="44.08192" lon="3.10168">
        <ele>745.2</ele>
        <time>2019-05-31T09:23:50Z</time>
      </trkpt>
      <trkpt lat="44.08194" lon="3.10174">
        <ele>745.1</ele>
        <time>2019-05-31T09:23:51Z</time>
      </trkpt>
      <trkpt lat="44.08195" lon="3.10179">
        <ele>745.1</ele>
        <time>2019-05-31T09:23:52Z</time>
      </trkpt>
      <trkpt lat="44.08195" lon="3.10184">
        <ele>744.9</ele>
        <time>2019-05-31T09:23:53Z</time>
      </trkpt>
      <trkpt lat="44.08194" lon="3.1019">
        <ele>744.8</ele>
        <time>2019-05-31T09:23:54Z</time>
      </trkpt>
      <trkpt lat="44.08195" lon="3.10195">
        <ele>744.7</ele>
        <time>2019-05-31T09:23:55Z</time>
      </trkpt>
      <trkpt lat="44.08196" lon="3.10203">
        <ele>744.5</ele>
        <time>2019-05-31T09:23:56Z</time>
      </trkpt>
      <trkpt lat="44.08198" lon="3.1021">
        <ele>744.5</ele>
        <time>2019-05-31T09:23:57Z</time>
      </trkpt>
      <trkpt lat="44.08199" lon="3.10217">
        <ele>744.4</ele>
        <time>2019-05-31T09:23:58Z</time>
      </trkpt>
      <trkpt lat="44.082" lon="3.10222">
        <ele>744.4</ele>
        <time>2019-05-31T09:23:59Z</time>
      </trkpt>
      <trkpt lat="44.08201" lon="3.10229">
        <ele>744.5</ele>
        <time>2019-05-31T09:24:00Z</time>
      </trkpt>
      <trkpt lat="44.08201" lon="3.10237">
        <ele>744.6</ele>
        <time>2019-05-31T09:24:01Z</time>
      </trkpt>
      <trkpt lat="44.08201" lon="3.10243">
        <ele>744.7</ele>
        <time>2019-05-31T09:24:02Z</time>
      </trkpt>
      <trkpt lat="44.08201" lon="3.1025">
        <ele>744.7</ele>
        <time>2019-05-31T09:24:03Z</time>
      </trkpt>
      <trkpt lat="44.08204" lon="3.10258">
        <ele>744.7</ele>
        <time>2019-05-31T09:24:04Z</time>
      </trkpt>
      <trkpt lat="44.08204" lon="3.10266">
        <ele>744.7</ele>
        <time>2019-05-31T09:24:05Z</time>
      </trkpt>
      <trkpt lat="44.08205" lon="3.10274">
        <ele>744.6</ele>
        <time>2019-05-31T09:24:06Z</time>
      </trkpt>
      <trkpt lat="44.08206" lon="3.10281">
        <ele>744.4</ele>
        <time>2019-05-31T09:24:07Z</time>
      </trkpt>
      <trkpt lat="44.08208" lon="3.10289">
        <ele>744.1</ele>
        <time>2019-05-31T09:24:08Z</time>
      </trkpt>
      <trkpt lat="44.08209" lon="3.10295">
        <ele>743.9</ele>
        <time>2019-05-31T09:24:09Z</time>
      </trkpt>
      <trkpt lat="44.08209" lon="3.10304">
        <ele>743.5</ele>
        <time>2019-05-31T09:24:10Z</time>
      </trkpt>
      <trkpt lat="44.08207" lon="3.10309">
        <ele>743.3</ele>
        <time>2019-05-31T09:24:11Z</time>
      </trkpt>
      <trkpt lat="44.08208" lon="3.10318">
        <ele>743.1</ele>
        <time>2019-05-31T09:24:12Z</time>
      </trkpt>
      <trkpt lat="44.08208" lon="3.10325">
        <ele>742.9</ele>
        <time>2019-05-31T09:24:13Z</time>
      </trkpt>
      <trkpt lat="44.08209" lon="3.10333">
        <ele>742.8</ele>
        <time>2019-05-31T09:24:14Z</time>
      </trkpt>
      <trkpt lat="44.0821" lon="3.1034">
        <ele>742.7</ele>
        <time>2019-05-31T09:24:15Z</time>
      </trkpt>
      <trkpt lat="44.0821" lon="3.10347">
        <ele>742.7</ele>
        <time>2019-05-31T09:24:16Z</time>
      </trkpt>
      <trkpt lat="44.0821" lon="3.10355">
        <ele>742.7</ele>
        <time>2019-05-31T09:24:17Z</time>
      </trkpt>
      <trkpt lat="44.08211" lon="3.10362">
        <ele>742.7</ele>
        <time>2019-05-31T09:24:18Z</time>
      </trkpt>
      <trkpt lat="44.08211" lon="3.1037">
        <ele>742.7</ele>
        <time>2019-05-31T09:24:19Z</time>
      </trkpt>
      <trkpt lat="44.08212" lon="3.10377">
        <ele>742.6</ele>
        <time>2019-05-31T09:24:20Z</time>
      </trkpt>
      <trkpt lat="44.08213" lon="3.10385">
        <ele>742.6</ele>
        <time>2019-05-31T09:24:21Z</time>
      </trkpt>
      <trkpt lat="44.08214" lon="3.10392">
        <ele>742.6</ele>
        <time>2019-05-31T09:24:22Z</time>
      </trkpt>
      <trkpt lat="44.08214" lon="3.104">
        <ele>742.5</ele>
        <time>2019-05-31T09:24:23Z</time>
      </trkpt>
      <trkpt lat="44.08215" lon="3.10406">
        <ele>742.4</ele>
        <time>2019-05-31T09:24:24Z</time>
      </trkpt>
      <trkpt lat="44.08216" lon="3.10413">
        <ele>742.3</ele>
        <time>2019-05-31T09:24:25Z</time>
      </trkpt>
      <trkpt lat="44.08219" lon="3.1042">
        <ele>742.2</ele>
        <time>2019-05-31T09:24:27Z</time>
      </trkpt>
      <trkpt lat="44.0822" lon="3.10424">
        <ele>742.1</ele>
        <time>2019-05-31T09:24:28Z</time>
      </trkpt>
      <trkpt lat="44.08221" lon="3.10431">
        <ele>742.1</ele>
        <time>2019-05-31T09:24:30Z</time>
      </trkpt>
      <trkpt lat="44.08223" lon="3.10437">
        <ele>742.1</ele>
        <time>2019-05-31T09:24:32Z</time>
      </trkpt>
      <trkpt lat="44.08225" lon="3.10443">
        <ele>742.1</ele>
        <time>2019-05-31T09:24:34Z</time>
      </trkpt>
      <trkpt lat="44.08226" lon="3.10449">
        <ele>742.1</ele>
        <time>2019-05-31T09:24:36Z</time>
      </trkpt>
      <trkpt lat="44.08227" lon="3.10452">
        <ele>742</ele>
        <time>2019-05-31T09:24:37Z</time>
      </trkpt>
      <trkpt lat="44.08229" lon="3.10456">
        <ele>742</ele>
        <time>2019-05-31T09:24:38Z</time>
      </trkpt>
      <trkpt lat="44.0823" lon="3.1046">
        <ele>742</ele>
        <time>2019-05-31T09:24:39Z</time>
      </trkpt>
      <trkpt lat="44.08231" lon="3.10464">
        <ele>741.9</ele>
        <time>2019-05-31T09:24:40Z</time>
      </trkpt>
      <trkpt lat="44.08233" lon="3.10469">
        <ele>741.9</ele>
        <time>2019-05-31T09:24:41Z</time>
      </trkpt>
      <trkpt lat="44.08234" lon="3.10475">
        <ele>741.8</ele>
        <time>2019-05-31T09:24:42Z</time>
      </trkpt>
      <trkpt lat="44.08237" lon="3.10483">
        <ele>741.8</ele>
        <time>2019-05-31T09:24:43Z</time>
      </trkpt>
      <trkpt lat="44.08239" lon="3.10489">
        <ele>741.9</ele>
        <time>2019-05-31T09:24:44Z</time>
      </trkpt>
      <trkpt lat="44.0824" lon="3.10495">
        <ele>742.1</ele>
        <time>2019-05-31T09:24:45Z</time>
      </trkpt>
      <trkpt lat="44.08244" lon="3.10501">
        <ele>742.4</ele>
        <time>2019-05-31T09:24:46Z</time>
      </trkpt>
      <trkpt lat="44.08245" lon="3.10508">
        <ele>742.6</ele>
        <time>2019-05-31T09:24:47Z</time>
      </trkpt>
      <trkpt lat="44.08248" lon="3.10515">
        <ele>742.8</ele>
        <time>2019-05-31T09:24:48Z</time>
      </trkpt>
      <trkpt lat="44.08249" lon="3.10522">
        <ele>743</ele>
        <time>2019-05-31T09:24:49Z</time>
      </trkpt>
      <trkpt lat="44.08251" lon="3.1053">
        <ele>743.1</ele>
        <time>2019-05-31T09:24:50Z</time>
      </trkpt>
      <trkpt lat="44.08252" lon="3.10536">
        <ele>743.1</ele>
        <time>2019-05-31T09:24:51Z</time>
      </trkpt>
      <trkpt lat="44.08253" lon="3.10543">
        <ele>743.1</ele>
        <time>2019-05-31T09:24:52Z</time>
      </trkpt>
      <trkpt lat="44.08253" lon="3.10548">
        <ele>743.1</ele>
        <time>2019-05-31T09:24:53Z</time>
      </trkpt>
      <trkpt lat="44.08257" lon="3.10553">
        <ele>743.1</ele>
        <time>2019-05-31T09:24:54Z</time>
      </trkpt>
      <trkpt lat="44.08258" lon="3.10558">
        <ele>743.1</ele>
        <time>2019-05-31T09:24:55Z</time>
      </trkpt>
      <trkpt lat="44.08259" lon="3.10562">
        <ele>743.7</ele>
        <time>2019-05-31T09:24:56Z</time>
      </trkpt>
      <trkpt lat="44.0826" lon="3.10568">
        <ele>744.1</ele>
        <time>2019-05-31T09:24:57Z</time>
      </trkpt>
      <trkpt lat="44.0826" lon="3.10573">
        <ele>744.4</ele>
        <time>2019-05-31T09:24:58Z</time>
      </trkpt>
      <trkpt lat="44.08261" lon="3.10578">
        <ele>744.7</ele>
        <time>2019-05-31T09:24:59Z</time>
      </trkpt>
      <trkpt lat="44.08262" lon="3.10583">
        <ele>745</ele>
        <time>2019-05-31T09:25:00Z</time>
      </trkpt>
      <trkpt lat="44.08263" lon="3.10587">
        <ele>745.2</ele>
        <time>2019-05-31T09:25:01Z</time>
      </trkpt>
      <trkpt lat="44.08265" lon="3.10593">
        <ele>745.5</ele>
        <time>2019-05-31T09:25:03Z</time>
      </trkpt>
      <trkpt lat="44.08269" lon="3.10598">
        <ele>745.7</ele>
        <time>2019-05-31T09:25:05Z</time>
      </trkpt>
      <trkpt lat="44.08274" lon="3.10601">
        <ele>746</ele>
        <time>2019-05-31T09:25:07Z</time>
      </trkpt>
      <trkpt lat="44.08276" lon="3.10602">
        <ele>746.2</ele>
        <time>2019-05-31T09:25:08Z</time>
      </trkpt>
      <trkpt lat="44.08279" lon="3.10604">
        <ele>746.3</ele>
        <time>2019-05-31T09:25:09Z</time>
      </trkpt>
      <trkpt lat="44.08281" lon="3.10606">
        <ele>746.4</ele>
        <time>2019-05-31T09:25:10Z</time>
      </trkpt>
      <trkpt lat="44.08285" lon="3.10611">
        <ele>746.6</ele>
        <time>2019-05-31T09:25:12Z</time>
      </trkpt>
      <trkpt lat="44.08287" lon="3.10616">
        <ele>746.9</ele>
        <time>2019-05-31T09:25:14Z</time>
      </trkpt>
      <trkpt lat="44.08289" lon="3.1062">
        <ele>747</ele>
        <time>2019-05-31T09:25:15Z</time>
      </trkpt>
      <trkpt lat="44.0829" lon="3.10624">
        <ele>747.2</ele>
        <time>2019-05-31T09:25:16Z</time>
      </trkpt>
      <trkpt lat="44.08291" lon="3.10628">
        <ele>747.4</ele>
        <time>2019-05-31T09:25:17Z</time>
      </trkpt>
      <trkpt lat="44.08293" lon="3.10635">
        <ele>747.6</ele>
        <time>2019-05-31T09:25:19Z</time>
      </trkpt>
      <trkpt lat="44.08295" lon="3.10638">
        <ele>747.7</ele>
        <time>2019-05-31T09:25:21Z</time>
      </trkpt>
      <trkpt lat="44.08298" lon="3.10639">
        <ele>747.8</ele>
        <time>2019-05-31T09:25:24Z</time>
      </trkpt>
      <trkpt lat="44.08299" lon="3.10644">
        <ele>747.9</ele>
        <time>2019-05-31T09:25:48Z</time>
      </trkpt>
      <trkpt lat="44.08299" lon="3.10649">
        <ele>749.4</ele>
        <time>2019-05-31T09:25:50Z</time>
      </trkpt>
      <trkpt lat="44.08298" lon="3.10654">
        <ele>752.1</ele>
        <time>2019-05-31T09:25:52Z</time>
      </trkpt>
      <trkpt lat="44.08296" lon="3.10658">
        <ele>754.3</ele>
        <time>2019-05-31T09:25:53Z</time>
      </trkpt>
      <trkpt lat="44.08294" lon="3.10661">
        <ele>755.3</ele>
        <time>2019-05-31T09:25:54Z</time>
      </trkpt>
      <trkpt lat="44.0829" lon="3.10666">
        <ele>757.1</ele>
        <time>2019-05-31T09:25:56Z</time>
      </trkpt>
      <trkpt lat="44.08286" lon="3.1067">
        <ele>759.3</ele>
        <time>2019-05-31T09:25:58Z</time>
      </trkpt>
      <trkpt lat="44.08282" lon="3.10674">
        <ele>762.1</ele>
        <time>2019-05-31T09:26:00Z</time>
      </trkpt>
      <trkpt lat="44.08279" lon="3.10676">
        <ele>763</ele>
        <time>2019-05-31T09:26:01Z</time>
      </trkpt>
      <trkpt lat="44.08275" lon="3.1068">
        <ele>764.3</ele>
        <time>2019-05-31T09:26:03Z</time>
      </trkpt>
      <trkpt lat="44.08273" lon="3.10684">
        <ele>765.3</ele>
        <time>2019-05-31T09:26:04Z</time>
      </trkpt>
      <trkpt lat="44.08271" lon="3.10689">
        <ele>766.3</ele>
        <time>2019-05-31T09:26:05Z</time>
      </trkpt>
      <trkpt lat="44.08269" lon="3.10693">
        <ele>766.8</ele>
        <time>2019-05-31T09:26:06Z</time>
      </trkpt>
      <trkpt lat="44.08267" lon="3.10696">
        <ele>766.9</ele>
        <time>2019-05-31T09:26:07Z</time>
      </trkpt>
      <trkpt lat="44.08265" lon="3.10699">
        <ele>767.1</ele>
        <time>2019-05-31T09:26:08Z</time>
      </trkpt>
      <trkpt lat="44.08263" lon="3.10702">
        <ele>767</ele>
        <time>2019-05-31T09:26:09Z</time>
      </trkpt>
      <trkpt lat="44.08261" lon="3.10705">
        <ele>766.8</ele>
        <time>2019-05-31T09:26:10Z</time>
      </trkpt>
      <trkpt lat="44.08258" lon="3.10711">
        <ele>766.4</ele>
        <time>2019-05-31T09:26:11Z</time>
      </trkpt>
      <trkpt lat="44.08257" lon="3.10716">
        <ele>765.9</ele>
        <time>2019-05-31T09:26:12Z</time>
      </trkpt>
      <trkpt lat="44.08254" lon="3.10722">
        <ele>765.5</ele>
        <time>2019-05-31T09:26:13Z</time>
      </trkpt>
      <trkpt lat="44.08252" lon="3.10727">
        <ele>765.1</ele>
        <time>2019-05-31T09:26:14Z</time>
      </trkpt>
      <trkpt lat="44.08248" lon="3.10732">
        <ele>764.8</ele>
        <time>2019-05-31T09:26:15Z</time>
      </trkpt>
      <trkpt lat="44.08245" lon="3.10735">
        <ele>764.6</ele>
        <time>2019-05-31T09:26:16Z</time>
      </trkpt>
      <trkpt lat="44.08242" lon="3.10738">
        <ele>764.4</ele>
        <time>2019-05-31T09:26:17Z</time>
      </trkpt>
      <trkpt lat="44.0824" lon="3.10741">
        <ele>764.4</ele>
        <time>2019-05-31T09:26:18Z</time>
      </trkpt>
      <trkpt lat="44.08237" lon="3.10745">
        <ele>764.3</ele>
        <time>2019-05-31T09:26:19Z</time>
      </trkpt>
      <trkpt lat="44.08235" lon="3.10748">
        <ele>764.2</ele>
        <time>2019-05-31T09:26:20Z</time>
      </trkpt>
      <trkpt lat="44.08233" lon="3.10751">
        <ele>764.2</ele>
        <time>2019-05-31T09:26:22Z</time>
      </trkpt>
      <trkpt lat="44.0823" lon="3.10756">
        <ele>764.2</ele>
        <time>2019-05-31T09:26:24Z</time>
      </trkpt>
      <trkpt lat="44.08227" lon="3.1076">
        <ele>764.2</ele>
        <time>2019-05-31T09:26:26Z</time>
      </trkpt>
      <trkpt lat="44.08225" lon="3.10763">
        <ele>764.2</ele>
        <time>2019-05-31T09:26:29Z</time>
      </trkpt>
      <trkpt lat="44.08223" lon="3.10768">
        <ele>764.3</ele>
        <time>2019-05-31T09:26:35Z</time>
      </trkpt>
      <trkpt lat="44.08221" lon="3.10771">
        <ele>764.3</ele>
        <time>2019-05-31T09:26:38Z</time>
      </trkpt>
      <trkpt lat="44.08221" lon="3.10775">
        <ele>764.3</ele>
        <time>2019-05-31T09:26:41Z</time>
      </trkpt>
      <trkpt lat="44.08219" lon="3.10777">
        <ele>764.3</ele>
        <time>2019-05-31T09:26:45Z</time>
      </trkpt>
      <trkpt lat="44.08216" lon="3.10779">
        <ele>764.4</ele>
        <time>2019-05-31T09:26:48Z</time>
      </trkpt>
      <trkpt lat="44.08213" lon="3.10781">
        <ele>764.4</ele>
        <time>2019-05-31T09:26:53Z</time>
      </trkpt>
      <trkpt lat="44.08207" lon="3.10784">
        <ele>764.4</ele>
        <time>2019-05-31T09:27:13Z</time>
      </trkpt>
      <trkpt lat="44.08204" lon="3.10787">
        <ele>764.4</ele>
        <time>2019-05-31T09:27:14Z</time>
      </trkpt>
      <trkpt lat="44.08201" lon="3.10788">
        <ele>764.4</ele>
        <time>2019-05-31T09:27:16Z</time>
      </trkpt>
      <trkpt lat="44.08198" lon="3.1079">
        <ele>764.4</ele>
        <time>2019-05-31T09:27:21Z</time>
      </trkpt>
      <trkpt lat="44.08195" lon="3.10791">
        <ele>764.4</ele>
        <time>2019-05-31T09:27:30Z</time>
      </trkpt>
      <trkpt lat="44.08192" lon="3.10792">
        <ele>764.4</ele>
        <time>2019-05-31T09:27:34Z</time>
      </trkpt>
      <trkpt lat="44.08189" lon="3.10793">
        <ele>764.4</ele>
        <time>2019-05-31T09:27:37Z</time>
      </trkpt>
      <trkpt lat="44.08186" lon="3.10793">
        <ele>764.4</ele>
        <time>2019-05-31T09:27:42Z</time>
      </trkpt>
      <trkpt lat="44.08184" lon="3.1079">
        <ele>764.4</ele>
        <time>2019-05-31T09:27:44Z</time>
      </trkpt>
      <trkpt lat="44.08181" lon="3.10789">
        <ele>764.4</ele>
        <time>2019-05-31T09:27:46Z</time>
      </trkpt>
      <trkpt lat="44.08178" lon="3.1079">
        <ele>764.4</ele>
        <time>2019-05-31T09:27:47Z</time>
      </trkpt>
      <trkpt lat="44.08173" lon="3.10793">
        <ele>764.4</ele>
        <time>2019-05-31T09:27:49Z</time>
      </trkpt>
      <trkpt lat="44.08168" lon="3.10795">
        <ele>764.4</ele>
        <time>2019-05-31T09:27:50Z</time>
      </trkpt>
      <trkpt lat="44.08164" lon="3.10797">
        <ele>764.3</ele>
        <time>2019-05-31T09:27:51Z</time>
      </trkpt>
      <trkpt lat="44.08158" lon="3.10802">
        <ele>764.2</ele>
        <time>2019-05-31T09:27:52Z</time>
      </trkpt>
      <trkpt lat="44.08153" lon="3.10803">
        <ele>764.2</ele>
        <time>2019-05-31T09:27:53Z</time>
      </trkpt>
      <trkpt lat="44.08149" lon="3.10807">
        <ele>764.1</ele>
        <time>2019-05-31T09:27:54Z</time>
      </trkpt>
      <trkpt lat="44.08143" lon="3.1081">
        <ele>764</ele>
        <time>2019-05-31T09:27:55Z</time>
      </trkpt>
      <trkpt lat="44.08137" lon="3.1081">
        <ele>763.9</ele>
        <time>2019-05-31T09:27:56Z</time>
      </trkpt>
      <trkpt lat="44.08132" lon="3.10811">
        <ele>763.9</ele>
        <time>2019-05-31T09:27:57Z</time>
      </trkpt>
      <trkpt lat="44.08127" lon="3.10813">
        <ele>763.8</ele>
        <time>2019-05-31T09:27:58Z</time>
      </trkpt>
      <trkpt lat="44.08124" lon="3.10818">
        <ele>763.8</ele>
        <time>2019-05-31T09:27:59Z</time>
      </trkpt>
      <trkpt lat="44.08123" lon="3.10823">
        <ele>763.8</ele>
        <time>2019-05-31T09:28:00Z</time>
      </trkpt>
      <trkpt lat="44.08123" lon="3.10828">
        <ele>763.8</ele>
        <time>2019-05-31T09:28:01Z</time>
      </trkpt>
      <trkpt lat="44.08121" lon="3.10833">
        <ele>763.3</ele>
        <time>2019-05-31T09:28:02Z</time>
      </trkpt>
      <trkpt lat="44.08119" lon="3.10837">
        <ele>763.2</ele>
        <time>2019-05-31T09:28:03Z</time>
      </trkpt>
      <trkpt lat="44.08117" lon="3.10841">
        <ele>763.1</ele>
        <time>2019-05-31T09:28:05Z</time>
      </trkpt>
      <trkpt lat="44.08116" lon="3.10845">
        <ele>763</ele>
        <time>2019-05-31T09:28:07Z</time>
      </trkpt>
      <trkpt lat="44.08115" lon="3.1085">
        <ele>762.8</ele>
        <time>2019-05-31T09:28:09Z</time>
      </trkpt>
      <trkpt lat="44.08112" lon="3.10855">
        <ele>762.7</ele>
        <time>2019-05-31T09:28:11Z</time>
      </trkpt>
      <trkpt lat="44.0811" lon="3.10858">
        <ele>762.7</ele>
        <time>2019-05-31T09:28:13Z</time>
      </trkpt>
      <trkpt lat="44.08108" lon="3.10861">
        <ele>762.6</ele>
        <time>2019-05-31T09:28:15Z</time>
      </trkpt>
      <trkpt lat="44.08107" lon="3.10865">
        <ele>762.5</ele>
        <time>2019-05-31T09:28:16Z</time>
      </trkpt>
      <trkpt lat="44.08106" lon="3.1087">
        <ele>762.5</ele>
        <time>2019-05-31T09:28:17Z</time>
      </trkpt>
      <trkpt lat="44.08106" lon="3.10875">
        <ele>762.4</ele>
        <time>2019-05-31T09:28:18Z</time>
      </trkpt>
      <trkpt lat="44.08106" lon="3.1088">
        <ele>762.3</ele>
        <time>2019-05-31T09:28:19Z</time>
      </trkpt>
      <trkpt lat="44.08106" lon="3.10885">
        <ele>762.3</ele>
        <time>2019-05-31T09:28:20Z</time>
      </trkpt>
      <trkpt lat="44.08107" lon="3.10891">
        <ele>762.2</ele>
        <time>2019-05-31T09:28:21Z</time>
      </trkpt>
      <trkpt lat="44.08107" lon="3.10898">
        <ele>762.1</ele>
        <time>2019-05-31T09:28:22Z</time>
      </trkpt>
      <trkpt lat="44.08107" lon="3.10904">
        <ele>762</ele>
        <time>2019-05-31T09:28:23Z</time>
      </trkpt>
      <trkpt lat="44.08106" lon="3.1091">
        <ele>761.9</ele>
        <time>2019-05-31T09:28:24Z</time>
      </trkpt>
      <trkpt lat="44.08104" lon="3.10916">
        <ele>761.8</ele>
        <time>2019-05-31T09:28:25Z</time>
      </trkpt>
      <trkpt lat="44.08102" lon="3.1092">
        <ele>761.8</ele>
        <time>2019-05-31T09:28:26Z</time>
      </trkpt>
      <trkpt lat="44.081" lon="3.10923">
        <ele>761.8</ele>
        <time>2019-05-31T09:28:27Z</time>
      </trkpt>
      <trkpt lat="44.08098" lon="3.10926">
        <ele>761.7</ele>
        <time>2019-05-31T09:28:28Z</time>
      </trkpt>
      <trkpt lat="44.08096" lon="3.10928">
        <ele>761.6</ele>
        <time>2019-05-31T09:28:29Z</time>
      </trkpt>
      <trkpt lat="44.08092" lon="3.1093">
        <ele>761.6</ele>
        <time>2019-05-31T09:28:31Z</time>
      </trkpt>
      <trkpt lat="44.08087" lon="3.10931">
        <ele>761.5</ele>
        <time>2019-05-31T09:28:33Z</time>
      </trkpt>
      <trkpt lat="44.08083" lon="3.10933">
        <ele>761.5</ele>
        <time>2019-05-31T09:28:35Z</time>
      </trkpt>
      <trkpt lat="44.0808" lon="3.10938">
        <ele>761.5</ele>
        <time>2019-05-31T09:28:37Z</time>
      </trkpt>
      <trkpt lat="44.08078" lon="3.10942">
        <ele>761.5</ele>
        <time>2019-05-31T09:28:39Z</time>
      </trkpt>
      <trkpt lat="44.08076" lon="3.10945">
        <ele>761.3</ele>
        <time>2019-05-31T09:28:41Z</time>
      </trkpt>
      <trkpt lat="44.08073" lon="3.10944">
        <ele>761.3</ele>
        <time>2019-05-31T09:28:50Z</time>
      </trkpt>
      <trkpt lat="44.08069" lon="3.10947">
        <ele>761.3</ele>
        <time>2019-05-31T09:28:52Z</time>
      </trkpt>
      <trkpt lat="44.08067" lon="3.10951">
        <ele>761.2</ele>
        <time>2019-05-31T09:28:53Z</time>
      </trkpt>
      <trkpt lat="44.08066" lon="3.10955">
        <ele>761.1</ele>
        <time>2019-05-31T09:28:54Z</time>
      </trkpt>
      <trkpt lat="44.08066" lon="3.1096">
        <ele>761</ele>
        <time>2019-05-31T09:28:55Z</time>
      </trkpt>
      <trkpt lat="44.08065" lon="3.10966">
        <ele>761</ele>
        <time>2019-05-31T09:28:56Z</time>
      </trkpt>
      <trkpt lat="44.08067" lon="3.10983">
        <ele>760.7</ele>
        <time>2019-05-31T09:28:57Z</time>
      </trkpt>
      <trkpt lat="44.08065" lon="3.10987">
        <ele>760.7</ele>
        <time>2019-05-31T09:28:58Z</time>
      </trkpt>
      <trkpt lat="44.08065" lon="3.10994">
        <ele>760.6</ele>
        <time>2019-05-31T09:28:59Z</time>
      </trkpt>
      <trkpt lat="44.08065" lon="3.11">
        <ele>760.5</ele>
        <time>2019-05-31T09:29:00Z</time>
      </trkpt>
      <trkpt lat="44.08064" lon="3.11005">
        <ele>760.4</ele>
        <time>2019-05-31T09:29:01Z</time>
      </trkpt>
      <trkpt lat="44.08063" lon="3.1101">
        <ele>760.3</ele>
        <time>2019-05-31T09:29:03Z</time>
      </trkpt>
      <trkpt lat="44.08064" lon="3.11014">
        <ele>760.2</ele>
        <time>2019-05-31T09:29:04Z</time>
      </trkpt>
      <trkpt lat="44.08065" lon="3.11021">
        <ele>760</ele>
        <time>2019-05-31T09:29:05Z</time>
      </trkpt>
      <trkpt lat="44.08064" lon="3.11027">
        <ele>759.8</ele>
        <time>2019-05-31T09:29:06Z</time>
      </trkpt>
      <trkpt lat="44.08064" lon="3.11037">
        <ele>759.6</ele>
        <time>2019-05-31T09:29:07Z</time>
      </trkpt>
      <trkpt lat="44.08063" lon="3.11042">
        <ele>759.6</ele>
        <time>2019-05-31T09:29:08Z</time>
      </trkpt>
      <trkpt lat="44.08062" lon="3.11046">
        <ele>759.4</ele>
        <time>2019-05-31T09:29:09Z</time>
      </trkpt>
      <trkpt lat="44.0806" lon="3.11052">
        <ele>759.3</ele>
        <time>2019-05-31T09:29:11Z</time>
      </trkpt>
      <trkpt lat="44.08059" lon="3.11056">
        <ele>759.2</ele>
        <time>2019-05-31T09:29:12Z</time>
      </trkpt>
      <trkpt lat="44.08059" lon="3.1106">
        <ele>759.1</ele>
        <time>2019-05-31T09:29:13Z</time>
      </trkpt>
      <trkpt lat="44.08059" lon="3.11065">
        <ele>759</ele>
        <time>2019-05-31T09:29:14Z</time>
      </trkpt>
      <trkpt lat="44.08058" lon="3.1107">
        <ele>758.9</ele>
        <time>2019-05-31T09:29:15Z</time>
      </trkpt>
      <trkpt lat="44.08058" lon="3.11075">
        <ele>758.7</ele>
        <time>2019-05-31T09:29:16Z</time>
      </trkpt>
      <trkpt lat="44.08058" lon="3.1108">
        <ele>758.7</ele>
        <time>2019-05-31T09:29:17Z</time>
      </trkpt>
      <trkpt lat="44.08058" lon="3.11085">
        <ele>758.6</ele>
        <time>2019-05-31T09:29:18Z</time>
      </trkpt>
      <trkpt lat="44.08058" lon="3.11091">
        <ele>758.5</ele>
        <time>2019-05-31T09:29:19Z</time>
      </trkpt>
      <trkpt lat="44.08059" lon="3.11098">
        <ele>758.4</ele>
        <time>2019-05-31T09:29:20Z</time>
      </trkpt>
      <trkpt lat="44.08059" lon="3.11103">
        <ele>758.3</ele>
        <time>2019-05-31T09:29:21Z</time>
      </trkpt>
      <trkpt lat="44.0806" lon="3.11108">
        <ele>758.2</ele>
        <time>2019-05-31T09:29:22Z</time>
      </trkpt>
      <trkpt lat="44.08061" lon="3.11112">
        <ele>758.1</ele>
        <time>2019-05-31T09:29:23Z</time>
      </trkpt>
      <trkpt lat="44.08061" lon="3.11117">
        <ele>758.1</ele>
        <time>2019-05-31T09:29:24Z</time>
      </trkpt>
      <trkpt lat="44.0806" lon="3.11121">
        <ele>758</ele>
        <time>2019-05-31T09:29:25Z</time>
      </trkpt>
      <trkpt lat="44.08057" lon="3.11129">
        <ele>757.9</ele>
        <time>2019-05-31T09:29:27Z</time>
      </trkpt>
      <trkpt lat="44.08056" lon="3.11134">
        <ele>757.8</ele>
        <time>2019-05-31T09:29:28Z</time>
      </trkpt>
      <trkpt lat="44.08055" lon="3.1114">
        <ele>757.7</ele>
        <time>2019-05-31T09:29:29Z</time>
      </trkpt>
      <trkpt lat="44.08054" lon="3.11146">
        <ele>757.7</ele>
        <time>2019-05-31T09:29:30Z</time>
      </trkpt>
      <trkpt lat="44.08053" lon="3.11152">
        <ele>757.6</ele>
        <time>2019-05-31T09:29:31Z</time>
      </trkpt>
      <trkpt lat="44.08051" lon="3.11157">
        <ele>757.5</ele>
        <time>2019-05-31T09:29:32Z</time>
      </trkpt>
      <trkpt lat="44.08049" lon="3.11161">
        <ele>757.5</ele>
        <time>2019-05-31T09:29:33Z</time>
      </trkpt>
      <trkpt lat="44.08046" lon="3.11166">
        <ele>757.4</ele>
        <time>2019-05-31T09:29:34Z</time>
      </trkpt>
      <trkpt lat="44.08043" lon="3.11171">
        <ele>757.3</ele>
        <time>2019-05-31T09:29:35Z</time>
      </trkpt>
      <trkpt lat="44.08041" lon="3.11178">
        <ele>757.1</ele>
        <time>2019-05-31T09:29:36Z</time>
      </trkpt>
      <trkpt lat="44.08036" lon="3.11193">
        <ele>756.9</ele>
        <time>2019-05-31T09:29:37Z</time>
      </trkpt>
      <trkpt lat="44.08036" lon="3.11199">
        <ele>756.9</ele>
        <time>2019-05-31T09:29:38Z</time>
      </trkpt>
      <trkpt lat="44.08035" lon="3.11204">
        <ele>756.8</ele>
        <time>2019-05-31T09:29:39Z</time>
      </trkpt>
      <trkpt lat="44.08033" lon="3.11207">
        <ele>756.7</ele>
        <time>2019-05-31T09:29:40Z</time>
      </trkpt>
      <trkpt lat="44.0803" lon="3.11212">
        <ele>756.6</ele>
        <time>2019-05-31T09:29:41Z</time>
      </trkpt>
      <trkpt lat="44.08028" lon="3.11216">
        <ele>756.5</ele>
        <time>2019-05-31T09:29:42Z</time>
      </trkpt>
      <trkpt lat="44.08028" lon="3.11222">
        <ele>756.5</ele>
        <time>2019-05-31T09:29:43Z</time>
      </trkpt>
      <trkpt lat="44.08028" lon="3.11226">
        <ele>756.4</ele>
        <time>2019-05-31T09:29:44Z</time>
      </trkpt>
      <trkpt lat="44.08023" lon="3.11229">
        <ele>756.4</ele>
        <time>2019-05-31T09:29:45Z</time>
      </trkpt>
      <trkpt lat="44.08024" lon="3.11238">
        <ele>756.3</ele>
        <time>2019-05-31T09:29:46Z</time>
      </trkpt>
      <trkpt lat="44.08021" lon="3.11242">
        <ele>756.3</ele>
        <time>2019-05-31T09:29:47Z</time>
      </trkpt>
      <trkpt lat="44.08018" lon="3.11247">
        <ele>756.3</ele>
        <time>2019-05-31T09:29:48Z</time>
      </trkpt>
      <trkpt lat="44.08016" lon="3.11252">
        <ele>756.3</ele>
        <time>2019-05-31T09:29:49Z</time>
      </trkpt>
      <trkpt lat="44.08013" lon="3.11254">
        <ele>756.2</ele>
        <time>2019-05-31T09:29:50Z</time>
      </trkpt>
      <trkpt lat="44.08011" lon="3.1126">
        <ele>756.2</ele>
        <time>2019-05-31T09:29:51Z</time>
      </trkpt>
      <trkpt lat="44.08007" lon="3.11269">
        <ele>756.2</ele>
        <time>2019-05-31T09:29:52Z</time>
      </trkpt>
      <trkpt lat="44.08002" lon="3.11272">
        <ele>756.1</ele>
        <time>2019-05-31T09:29:53Z</time>
      </trkpt>
      <trkpt lat="44.08" lon="3.11276">
        <ele>756.1</ele>
        <time>2019-05-31T09:29:54Z</time>
      </trkpt>
      <trkpt lat="44.07997" lon="3.11279">
        <ele>756.1</ele>
        <time>2019-05-31T09:29:55Z</time>
      </trkpt>
      <trkpt lat="44.07993" lon="3.11284">
        <ele>756</ele>
        <time>2019-05-31T09:29:56Z</time>
      </trkpt>
      <trkpt lat="44.07989" lon="3.11289">
        <ele>756</ele>
        <time>2019-05-31T09:29:57Z</time>
      </trkpt>
      <trkpt lat="44.07987" lon="3.11305">
        <ele>755.8</ele>
        <time>2019-05-31T09:29:58Z</time>
      </trkpt>
      <trkpt lat="44.07984" lon="3.1131">
        <ele>755.7</ele>
        <time>2019-05-31T09:29:59Z</time>
      </trkpt>
      <trkpt lat="44.07979" lon="3.11316">
        <ele>755.6</ele>
        <time>2019-05-31T09:30:00Z</time>
      </trkpt>
      <trkpt lat="44.07973" lon="3.11322">
        <ele>755.4</ele>
        <time>2019-05-31T09:30:01Z</time>
      </trkpt>
      <trkpt lat="44.07967" lon="3.11325">
        <ele>755.2</ele>
        <time>2019-05-31T09:30:02Z</time>
      </trkpt>
      <trkpt lat="44.0796" lon="3.11329">
        <ele>755.1</ele>
        <time>2019-05-31T09:30:03Z</time>
      </trkpt>
      <trkpt lat="44.07956" lon="3.11333">
        <ele>754.9</ele>
        <time>2019-05-31T09:30:04Z</time>
      </trkpt>
      <trkpt lat="44.07953" lon="3.11338">
        <ele>754.8</ele>
        <time>2019-05-31T09:30:05Z</time>
      </trkpt>
      <trkpt lat="44.0795" lon="3.11341">
        <ele>754.7</ele>
        <time>2019-05-31T09:30:06Z</time>
      </trkpt>
      <trkpt lat="44.07946" lon="3.11346">
        <ele>754.7</ele>
        <time>2019-05-31T09:30:07Z</time>
      </trkpt>
      <trkpt lat="44.07944" lon="3.1135">
        <ele>754.6</ele>
        <time>2019-05-31T09:30:08Z</time>
      </trkpt>
      <trkpt lat="44.07943" lon="3.11356">
        <ele>754.6</ele>
        <time>2019-05-31T09:30:09Z</time>
      </trkpt>
      <trkpt lat="44.07942" lon="3.11361">
        <ele>754.5</ele>
        <time>2019-05-31T09:30:10Z</time>
      </trkpt>
      <trkpt lat="44.0794" lon="3.11366">
        <ele>754.5</ele>
        <time>2019-05-31T09:30:11Z</time>
      </trkpt>
      <trkpt lat="44.07938" lon="3.11373">
        <ele>754.5</ele>
        <time>2019-05-31T09:30:12Z</time>
      </trkpt>
      <trkpt lat="44.07936" lon="3.11381">
        <ele>754.5</ele>
        <time>2019-05-31T09:30:13Z</time>
      </trkpt>
      <trkpt lat="44.07934" lon="3.11386">
        <ele>754.5</ele>
        <time>2019-05-31T09:30:14Z</time>
      </trkpt>
      <trkpt lat="44.07932" lon="3.11393">
        <ele>754.5</ele>
        <time>2019-05-31T09:30:15Z</time>
      </trkpt>
      <trkpt lat="44.07931" lon="3.11402">
        <ele>754.6</ele>
        <time>2019-05-31T09:30:16Z</time>
      </trkpt>
      <trkpt lat="44.07932" lon="3.11408">
        <ele>754.6</ele>
        <time>2019-05-31T09:30:17Z</time>
      </trkpt>
      <trkpt lat="44.07927" lon="3.11413">
        <ele>754.6</ele>
        <time>2019-05-31T09:30:18Z</time>
      </trkpt>
      <trkpt lat="44.07926" lon="3.11417">
        <ele>754.6</ele>
        <time>2019-05-31T09:30:19Z</time>
      </trkpt>
      <trkpt lat="44.07926" lon="3.11422">
        <ele>754.6</ele>
        <time>2019-05-31T09:30:20Z</time>
      </trkpt>
      <trkpt lat="44.07925" lon="3.11425">
        <ele>754.6</ele>
        <time>2019-05-31T09:30:21Z</time>
      </trkpt>
      <trkpt lat="44.07925" lon="3.11432">
        <ele>754.7</ele>
        <time>2019-05-31T09:30:22Z</time>
      </trkpt>
      <trkpt lat="44.07925" lon="3.11436">
        <ele>754.7</ele>
        <time>2019-05-31T09:30:23Z</time>
      </trkpt>
      <trkpt lat="44.07924" lon="3.1144">
        <ele>754.7</ele>
        <time>2019-05-31T09:30:24Z</time>
      </trkpt>
      <trkpt lat="44.07924" lon="3.11445">
        <ele>754.6</ele>
        <time>2019-05-31T09:30:25Z</time>
      </trkpt>
      <trkpt lat="44.07923" lon="3.1145">
        <ele>754.6</ele>
        <time>2019-05-31T09:30:26Z</time>
      </trkpt>
      <trkpt lat="44.07922" lon="3.11455">
        <ele>754.6</ele>
        <time>2019-05-31T09:30:27Z</time>
      </trkpt>
      <trkpt lat="44.0792" lon="3.11459">
        <ele>754.6</ele>
        <time>2019-05-31T09:30:28Z</time>
      </trkpt>
      <trkpt lat="44.07918" lon="3.11463">
        <ele>754.5</ele>
        <time>2019-05-31T09:30:29Z</time>
      </trkpt>
      <trkpt lat="44.07916" lon="3.11467">
        <ele>754.5</ele>
        <time>2019-05-31T09:30:30Z</time>
      </trkpt>
      <trkpt lat="44.07915" lon="3.1147">
        <ele>754.5</ele>
        <time>2019-05-31T09:30:31Z</time>
      </trkpt>
      <trkpt lat="44.07912" lon="3.11474">
        <ele>754.5</ele>
        <time>2019-05-31T09:30:33Z</time>
      </trkpt>
      <trkpt lat="44.07911" lon="3.11477">
        <ele>754.5</ele>
        <time>2019-05-31T09:30:35Z</time>
      </trkpt>
      <trkpt lat="44.07912" lon="3.11481">
        <ele>754.4</ele>
        <time>2019-05-31T09:30:38Z</time>
      </trkpt>
      <trkpt lat="44.07913" lon="3.11484">
        <ele>754.4</ele>
        <time>2019-05-31T09:31:13Z</time>
      </trkpt>
      <trkpt lat="44.07915" lon="3.11488">
        <ele>754.4</ele>
        <time>2019-05-31T09:31:15Z</time>
      </trkpt>
      <trkpt lat="44.07918" lon="3.11494">
        <ele>754.3</ele>
        <time>2019-05-31T09:31:17Z</time>
      </trkpt>
      <trkpt lat="44.07919" lon="3.11498">
        <ele>754.3</ele>
        <time>2019-05-31T09:31:18Z</time>
      </trkpt>
      <trkpt lat="44.0792" lon="3.11501">
        <ele>754.3</ele>
        <time>2019-05-31T09:31:19Z</time>
      </trkpt>
      <trkpt lat="44.07922" lon="3.11505">
        <ele>754.3</ele>
        <time>2019-05-31T09:31:20Z</time>
      </trkpt>
      <trkpt lat="44.07923" lon="3.11508">
        <ele>754.2</ele>
        <time>2019-05-31T09:31:21Z</time>
      </trkpt>
      <trkpt lat="44.07925" lon="3.11512">
        <ele>754.2</ele>
        <time>2019-05-31T09:31:22Z</time>
      </trkpt>
      <trkpt lat="44.07926" lon="3.11516">
        <ele>754.2</ele>
        <time>2019-05-31T09:31:23Z</time>
      </trkpt>
      <trkpt lat="44.07928" lon="3.1152">
        <ele>754.2</ele>
        <time>2019-05-31T09:31:24Z</time>
      </trkpt>
      <trkpt lat="44.07929" lon="3.11525">
        <ele>754.1</ele>
        <time>2019-05-31T09:31:25Z</time>
      </trkpt>
      <trkpt lat="44.0793" lon="3.11531">
        <ele>754</ele>
        <time>2019-05-31T09:31:26Z</time>
      </trkpt>
      <trkpt lat="44.07931" lon="3.11538">
        <ele>753.9</ele>
        <time>2019-05-31T09:31:27Z</time>
      </trkpt>
      <trkpt lat="44.07929" lon="3.11547">
        <ele>753.7</ele>
        <time>2019-05-31T09:31:28Z</time>
      </trkpt>
      <trkpt lat="44.0793" lon="3.11553">
        <ele>753.6</ele>
        <time>2019-05-31T09:31:29Z</time>
      </trkpt>
      <trkpt lat="44.07931" lon="3.11559">
        <ele>753.5</ele>
        <time>2019-05-31T09:31:30Z</time>
      </trkpt>
      <trkpt lat="44.07932" lon="3.11567">
        <ele>753.3</ele>
        <time>2019-05-31T09:31:31Z</time>
      </trkpt>
      <trkpt lat="44.07933" lon="3.11574">
        <ele>753.1</ele>
        <time>2019-05-31T09:31:32Z</time>
      </trkpt>
      <trkpt lat="44.07934" lon="3.11581">
        <ele>752.9</ele>
        <time>2019-05-31T09:31:33Z</time>
      </trkpt>
      <trkpt lat="44.07937" lon="3.11589">
        <ele>752.6</ele>
        <time>2019-05-31T09:31:34Z</time>
      </trkpt>
      <trkpt lat="44.07939" lon="3.11597">
        <ele>752.4</ele>
        <time>2019-05-31T09:31:35Z</time>
      </trkpt>
      <trkpt lat="44.07941" lon="3.11605">
        <ele>752.2</ele>
        <time>2019-05-31T09:31:36Z</time>
      </trkpt>
      <trkpt lat="44.07943" lon="3.11614">
        <ele>752</ele>
        <time>2019-05-31T09:31:37Z</time>
      </trkpt>
      <trkpt lat="44.07947" lon="3.11623">
        <ele>751.9</ele>
        <time>2019-05-31T09:31:38Z</time>
      </trkpt>
      <trkpt lat="44.07951" lon="3.11633">
        <ele>751.7</ele>
        <time>2019-05-31T09:31:39Z</time>
      </trkpt>
      <trkpt lat="44.07953" lon="3.11643">
        <ele>751.6</ele>
        <time>2019-05-31T09:31:40Z</time>
      </trkpt>
      <trkpt lat="44.07954" lon="3.11651">
        <ele>751.5</ele>
        <time>2019-05-31T09:31:41Z</time>
      </trkpt>
      <trkpt lat="44.07956" lon="3.1166">
        <ele>751.3</ele>
        <time>2019-05-31T09:31:42Z</time>
      </trkpt>
      <trkpt lat="44.07958" lon="3.11671">
        <ele>751.2</ele>
        <time>2019-05-31T09:31:43Z</time>
      </trkpt>
      <trkpt lat="44.07959" lon="3.11679">
        <ele>751.1</ele>
        <time>2019-05-31T09:31:44Z</time>
      </trkpt>
      <trkpt lat="44.0796" lon="3.1169">
        <ele>751</ele>
        <time>2019-05-31T09:31:45Z</time>
      </trkpt>
      <trkpt lat="44.07962" lon="3.117">
        <ele>750.9</ele>
        <time>2019-05-31T09:31:46Z</time>
      </trkpt>
      <trkpt lat="44.07964" lon="3.11709">
        <ele>750.7</ele>
        <time>2019-05-31T09:31:47Z</time>
      </trkpt>
      <trkpt lat="44.07964" lon="3.11717">
        <ele>750.6</ele>
        <time>2019-05-31T09:31:48Z</time>
      </trkpt>
      <trkpt lat="44.07965" lon="3.11727">
        <ele>750.5</ele>
        <time>2019-05-31T09:31:49Z</time>
      </trkpt>
      <trkpt lat="44.07966" lon="3.11735">
        <ele>750.4</ele>
        <time>2019-05-31T09:31:50Z</time>
      </trkpt>
      <trkpt lat="44.07966" lon="3.11743">
        <ele>750.3</ele>
        <time>2019-05-31T09:31:51Z</time>
      </trkpt>
      <trkpt lat="44.07967" lon="3.11751">
        <ele>750.2</ele>
        <time>2019-05-31T09:31:52Z</time>
      </trkpt>
      <trkpt lat="44.0797" lon="3.1176">
        <ele>750.1</ele>
        <time>2019-05-31T09:31:53Z</time>
      </trkpt>
      <trkpt lat="44.07972" lon="3.11768">
        <ele>750.1</ele>
        <time>2019-05-31T09:31:54Z</time>
      </trkpt>
      <trkpt lat="44.07975" lon="3.11776">
        <ele>750</ele>
        <time>2019-05-31T09:31:55Z</time>
      </trkpt>
      <trkpt lat="44.07976" lon="3.11784">
        <ele>749.9</ele>
        <time>2019-05-31T09:31:56Z</time>
      </trkpt>
      <trkpt lat="44.07977" lon="3.11793">
        <ele>749.8</ele>
        <time>2019-05-31T09:31:57Z</time>
      </trkpt>
      <trkpt lat="44.07979" lon="3.11802">
        <ele>749.8</ele>
        <time>2019-05-31T09:31:58Z</time>
      </trkpt>
      <trkpt lat="44.07979" lon="3.11811">
        <ele>749.7</ele>
        <time>2019-05-31T09:31:59Z</time>
      </trkpt>
      <trkpt lat="44.07981" lon="3.11819">
        <ele>749.7</ele>
        <time>2019-05-31T09:32:00Z</time>
      </trkpt>
      <trkpt lat="44.07981" lon="3.11826">
        <ele>749.7</ele>
        <time>2019-05-31T09:32:01Z</time>
      </trkpt>
      <trkpt lat="44.07982" lon="3.11835">
        <ele>749.6</ele>
        <time>2019-05-31T09:32:02Z</time>
      </trkpt>
      <trkpt lat="44.07983" lon="3.11843">
        <ele>749.6</ele>
        <time>2019-05-31T09:32:03Z</time>
      </trkpt>
      <trkpt lat="44.07985" lon="3.1185">
        <ele>749.6</ele>
        <time>2019-05-31T09:32:04Z</time>
      </trkpt>
      <trkpt lat="44.07986" lon="3.11859">
        <ele>749.5</ele>
        <time>2019-05-31T09:32:05Z</time>
      </trkpt>
      <trkpt lat="44.07986" lon="3.11867">
        <ele>749.5</ele>
        <time>2019-05-31T09:32:06Z</time>
      </trkpt>
      <trkpt lat="44.07987" lon="3.11875">
        <ele>749.4</ele>
        <time>2019-05-31T09:32:07Z</time>
      </trkpt>
      <trkpt lat="44.07989" lon="3.11883">
        <ele>749.4</ele>
        <time>2019-05-31T09:32:08Z</time>
      </trkpt>
      <trkpt lat="44.07991" lon="3.1189">
        <ele>749.3</ele>
        <time>2019-05-31T09:32:09Z</time>
      </trkpt>
      <trkpt lat="44.07994" lon="3.119">
        <ele>749.2</ele>
        <time>2019-05-31T09:32:10Z</time>
      </trkpt>
      <trkpt lat="44.07996" lon="3.11907">
        <ele>749.2</ele>
        <time>2019-05-31T09:32:11Z</time>
      </trkpt>
      <trkpt lat="44.07998" lon="3.11916">
        <ele>749.1</ele>
        <time>2019-05-31T09:32:12Z</time>
      </trkpt>
      <trkpt lat="44.07998" lon="3.11922">
        <ele>749</ele>
        <time>2019-05-31T09:32:13Z</time>
      </trkpt>
      <trkpt lat="44.07998" lon="3.11929">
        <ele>749</ele>
        <time>2019-05-31T09:32:14Z</time>
      </trkpt>
      <trkpt lat="44.08" lon="3.11937">
        <ele>749</ele>
        <time>2019-05-31T09:32:15Z</time>
      </trkpt>
      <trkpt lat="44.08" lon="3.11945">
        <ele>748.9</ele>
        <time>2019-05-31T09:32:16Z</time>
      </trkpt>
      <trkpt lat="44.08" lon="3.11954">
        <ele>748.9</ele>
        <time>2019-05-31T09:32:17Z</time>
      </trkpt>
      <trkpt lat="44.08001" lon="3.11962">
        <ele>748.9</ele>
        <time>2019-05-31T09:32:18Z</time>
      </trkpt>
      <trkpt lat="44.08002" lon="3.11969">
        <ele>748.9</ele>
        <time>2019-05-31T09:32:19Z</time>
      </trkpt>
      <trkpt lat="44.08003" lon="3.11977">
        <ele>748.8</ele>
        <time>2019-05-31T09:32:20Z</time>
      </trkpt>
      <trkpt lat="44.08003" lon="3.11983">
        <ele>748.8</ele>
        <time>2019-05-31T09:32:21Z</time>
      </trkpt>
      <trkpt lat="44.08003" lon="3.11992">
        <ele>748.8</ele>
        <time>2019-05-31T09:32:22Z</time>
      </trkpt>
      <trkpt lat="44.08003" lon="3.11999">
        <ele>748.8</ele>
        <time>2019-05-31T09:32:23Z</time>
      </trkpt>
      <trkpt lat="44.08005" lon="3.12006">
        <ele>748.8</ele>
        <time>2019-05-31T09:32:24Z</time>
      </trkpt>
      <trkpt lat="44.08005" lon="3.12014">
        <ele>748.8</ele>
        <time>2019-05-31T09:32:25Z</time>
      </trkpt>
      <trkpt lat="44.08006" lon="3.12021">
        <ele>748.8</ele>
        <time>2019-05-31T09:32:26Z</time>
      </trkpt>
      <trkpt lat="44.08006" lon="3.12029">
        <ele>748.7</ele>
        <time>2019-05-31T09:32:27Z</time>
      </trkpt>
      <trkpt lat="44.08008" lon="3.12037">
        <ele>748.7</ele>
        <time>2019-05-31T09:32:28Z</time>
      </trkpt>
      <trkpt lat="44.0801" lon="3.12045">
        <ele>748.7</ele>
        <time>2019-05-31T09:32:29Z</time>
      </trkpt>
      <trkpt lat="44.08011" lon="3.12053">
        <ele>748.7</ele>
        <time>2019-05-31T09:32:30Z</time>
      </trkpt>
      <trkpt lat="44.08012" lon="3.1206">
        <ele>748.7</ele>
        <time>2019-05-31T09:32:31Z</time>
      </trkpt>
      <trkpt lat="44.08013" lon="3.12067">
        <ele>748.7</ele>
        <time>2019-05-31T09:32:32Z</time>
      </trkpt>
      <trkpt lat="44.08013" lon="3.12072">
        <ele>748.8</ele>
        <time>2019-05-31T09:32:33Z</time>
      </trkpt>
      <trkpt lat="44.08016" lon="3.1208">
        <ele>748.8</ele>
        <time>2019-05-31T09:32:34Z</time>
      </trkpt>
      <trkpt lat="44.08017" lon="3.12088">
        <ele>748.8</ele>
        <time>2019-05-31T09:32:35Z</time>
      </trkpt>
      <trkpt lat="44.08017" lon="3.12094">
        <ele>748.9</ele>
        <time>2019-05-31T09:32:36Z</time>
      </trkpt>
      <trkpt lat="44.08019" lon="3.12101">
        <ele>749</ele>
        <time>2019-05-31T09:32:37Z</time>
      </trkpt>
      <trkpt lat="44.08022" lon="3.1211">
        <ele>749</ele>
        <time>2019-05-31T09:32:38Z</time>
      </trkpt>
      <trkpt lat="44.08022" lon="3.12117">
        <ele>749.1</ele>
        <time>2019-05-31T09:32:39Z</time>
      </trkpt>
      <trkpt lat="44.08023" lon="3.12125">
        <ele>749</ele>
        <time>2019-05-31T09:32:40Z</time>
      </trkpt>
      <trkpt lat="44.08023" lon="3.12131">
        <ele>748.9</ele>
        <time>2019-05-31T09:32:41Z</time>
      </trkpt>
      <trkpt lat="44.08025" lon="3.12137">
        <ele>748.8</ele>
        <time>2019-05-31T09:32:42Z</time>
      </trkpt>
      <trkpt lat="44.08027" lon="3.12142">
        <ele>748.6</ele>
        <time>2019-05-31T09:32:43Z</time>
      </trkpt>
      <trkpt lat="44.08026" lon="3.12148">
        <ele>748.5</ele>
        <time>2019-05-31T09:32:45Z</time>
      </trkpt>
      <trkpt lat="44.08025" lon="3.12153">
        <ele>748.4</ele>
        <time>2019-05-31T09:32:47Z</time>
      </trkpt>
      <trkpt lat="44.08029" lon="3.12155">
        <ele>748.3</ele>
        <time>2019-05-31T09:32:50Z</time>
      </trkpt>
      <trkpt lat="44.08029" lon="3.1215">
        <ele>748.2</ele>
        <time>2019-05-31T09:32:53Z</time>
      </trkpt>
      <trkpt lat="44.08027" lon="3.12148">
        <ele>748.2</ele>
        <time>2019-05-31T09:32:56Z</time>
      </trkpt>
      <trkpt lat="44.08024" lon="3.12147">
        <ele>748.1</ele>
        <time>2019-05-31T09:32:59Z</time>
      </trkpt>
      <trkpt lat="44.08023" lon="3.12151">
        <ele>748</ele>
        <time>2019-05-31T09:33:03Z</time>
      </trkpt>
      <trkpt lat="44.08023" lon="3.12155">
        <ele>748</ele>
        <time>2019-05-31T09:33:36Z</time>
      </trkpt>
      <trkpt lat="44.08025" lon="3.12159">
        <ele>747.9</ele>
        <time>2019-05-31T09:33:38Z</time>
      </trkpt>
      <trkpt lat="44.08026" lon="3.12165">
        <ele>747.8</ele>
        <time>2019-05-31T09:33:40Z</time>
      </trkpt>
      <trkpt lat="44.08027" lon="3.12169">
        <ele>747.7</ele>
        <time>2019-05-31T09:33:41Z</time>
      </trkpt>
      <trkpt lat="44.08027" lon="3.12174">
        <ele>747.7</ele>
        <time>2019-05-31T09:33:42Z</time>
      </trkpt>
      <trkpt lat="44.08027" lon="3.1218">
        <ele>747.6</ele>
        <time>2019-05-31T09:33:43Z</time>
      </trkpt>
      <trkpt lat="44.08028" lon="3.12188">
        <ele>747.5</ele>
        <time>2019-05-31T09:33:44Z</time>
      </trkpt>
      <trkpt lat="44.08029" lon="3.12196">
        <ele>747.4</ele>
        <time>2019-05-31T09:33:45Z</time>
      </trkpt>
      <trkpt lat="44.0803" lon="3.12204">
        <ele>747.2</ele>
        <time>2019-05-31T09:33:46Z</time>
      </trkpt>
      <trkpt lat="44.08032" lon="3.12212">
        <ele>747.1</ele>
        <time>2019-05-31T09:33:47Z</time>
      </trkpt>
      <trkpt lat="44.08033" lon="3.12222">
        <ele>746.8</ele>
        <time>2019-05-31T09:33:48Z</time>
      </trkpt>
      <trkpt lat="44.08035" lon="3.12231">
        <ele>746.6</ele>
        <time>2019-05-31T09:33:49Z</time>
      </trkpt>
      <trkpt lat="44.08038" lon="3.12241">
        <ele>746.3</ele>
        <time>2019-05-31T09:33:50Z</time>
      </trkpt>
      <trkpt lat="44.08041" lon="3.12251">
        <ele>746.1</ele>
        <time>2019-05-31T09:33:51Z</time>
      </trkpt>
      <trkpt lat="44.08044" lon="3.1226">
        <ele>745.5</ele>
        <time>2019-05-31T09:33:52Z</time>
      </trkpt>
      <trkpt lat="44.08045" lon="3.1227">
        <ele>745.5</ele>
        <time>2019-05-31T09:33:53Z</time>
      </trkpt>
      <trkpt lat="44.08042" lon="3.12277">
        <ele>745.3</ele>
        <time>2019-05-31T09:33:54Z</time>
      </trkpt>
      <trkpt lat="44.08039" lon="3.12284">
        <ele>745.1</ele>
        <time>2019-05-31T09:33:55Z</time>
      </trkpt>
      <trkpt lat="44.08036" lon="3.12291">
        <ele>744.8</ele>
        <time>2019-05-31T09:33:56Z</time>
      </trkpt>
      <trkpt lat="44.08033" lon="3.12299">
        <ele>744.6</ele>
        <time>2019-05-31T09:33:57Z</time>
      </trkpt>
      <trkpt lat="44.0803" lon="3.12307">
        <ele>744.4</ele>
        <time>2019-05-31T09:33:58Z</time>
      </trkpt>
      <trkpt lat="44.08018" lon="3.12302">
        <ele>744.1</ele>
        <time>2019-05-31T09:33:59Z</time>
      </trkpt>
      <trkpt lat="44.08011" lon="3.12302">
        <ele>743.9</ele>
        <time>2019-05-31T09:34:00Z</time>
      </trkpt>
      <trkpt lat="44.08005" lon="3.12302">
        <ele>743.6</ele>
        <time>2019-05-31T09:34:01Z</time>
      </trkpt>
      <trkpt lat="44.08001" lon="3.12303">
        <ele>743.4</ele>
        <time>2019-05-31T09:34:02Z</time>
      </trkpt>
      <trkpt lat="44.07997" lon="3.12303">
        <ele>743.2</ele>
        <time>2019-05-31T09:34:03Z</time>
      </trkpt>
      <trkpt lat="44.07992" lon="3.12302">
        <ele>742.9</ele>
        <time>2019-05-31T09:34:04Z</time>
      </trkpt>
      <trkpt lat="44.07987" lon="3.12301">
        <ele>742.7</ele>
        <time>2019-05-31T09:34:05Z</time>
      </trkpt>
      <trkpt lat="44.07984" lon="3.12302">
        <ele>742.5</ele>
        <time>2019-05-31T09:34:06Z</time>
      </trkpt>
      <trkpt lat="44.07981" lon="3.12302">
        <ele>742.4</ele>
        <time>2019-05-31T09:34:07Z</time>
      </trkpt>
      <trkpt lat="44.07978" lon="3.12303">
        <ele>742.2</ele>
        <time>2019-05-31T09:34:08Z</time>
      </trkpt>
      <trkpt lat="44.07974" lon="3.12305">
        <ele>742</ele>
        <time>2019-05-31T09:34:10Z</time>
      </trkpt>
      <trkpt lat="44.0797" lon="3.12306">
        <ele>741.8</ele>
        <time>2019-05-31T09:34:12Z</time>
      </trkpt>
      <trkpt lat="44.07967" lon="3.12307">
        <ele>741.6</ele>
        <time>2019-05-31T09:34:13Z</time>
      </trkpt>
      <trkpt lat="44.07962" lon="3.12309">
        <ele>741.4</ele>
        <time>2019-05-31T09:34:15Z</time>
      </trkpt>
      <trkpt lat="44.07959" lon="3.1231">
        <ele>741.2</ele>
        <time>2019-05-31T09:34:16Z</time>
      </trkpt>
      <trkpt lat="44.07957" lon="3.12311">
        <ele>741.1</ele>
        <time>2019-05-31T09:34:17Z</time>
      </trkpt>
      <trkpt lat="44.07954" lon="3.12312">
        <ele>740.9</ele>
        <time>2019-05-31T09:34:18Z</time>
      </trkpt>
      <trkpt lat="44.07951" lon="3.12312">
        <ele>740.7</ele>
        <time>2019-05-31T09:34:19Z</time>
      </trkpt>
      <trkpt lat="44.07947" lon="3.12313">
        <ele>740.4</ele>
        <time>2019-05-31T09:34:20Z</time>
      </trkpt>
      <trkpt lat="44.07944" lon="3.12314">
        <ele>740.2</ele>
        <time>2019-05-31T09:34:21Z</time>
      </trkpt>
      <trkpt lat="44.07941" lon="3.12314">
        <ele>740</ele>
        <time>2019-05-31T09:34:22Z</time>
      </trkpt>
      <trkpt lat="44.07937" lon="3.12314">
        <ele>739.7</ele>
        <time>2019-05-31T09:34:23Z</time>
      </trkpt>
      <trkpt lat="44.07933" lon="3.12315">
        <ele>739.4</ele>
        <time>2019-05-31T09:34:24Z</time>
      </trkpt>
      <trkpt lat="44.07929" lon="3.12315">
        <ele>739.1</ele>
        <time>2019-05-31T09:34:25Z</time>
      </trkpt>
      <trkpt lat="44.07925" lon="3.12316">
        <ele>739.2</ele>
        <time>2019-05-31T09:34:26Z</time>
      </trkpt>
      <trkpt lat="44.07921" lon="3.12317">
        <ele>739.3</ele>
        <time>2019-05-31T09:34:27Z</time>
      </trkpt>
      <trkpt lat="44.07918" lon="3.12319">
        <ele>739.4</ele>
        <time>2019-05-31T09:34:28Z</time>
      </trkpt>
      <trkpt lat="44.07915" lon="3.12322">
        <ele>739.4</ele>
        <time>2019-05-31T09:34:29Z</time>
      </trkpt>
      <trkpt lat="44.07912" lon="3.12325">
        <ele>739.5</ele>
        <time>2019-05-31T09:34:30Z</time>
      </trkpt>
      <trkpt lat="44.07908" lon="3.12328">
        <ele>739.6</ele>
        <time>2019-05-31T09:34:31Z</time>
      </trkpt>
      <trkpt lat="44.07904" lon="3.12332">
        <ele>739.7</ele>
        <time>2019-05-31T09:34:32Z</time>
      </trkpt>
      <trkpt lat="44.07899" lon="3.12335">
        <ele>739.8</ele>
        <time>2019-05-31T09:34:33Z</time>
      </trkpt>
      <trkpt lat="44.07895" lon="3.12339">
        <ele>739.9</ele>
        <time>2019-05-31T09:34:34Z</time>
      </trkpt>
      <trkpt lat="44.0789" lon="3.12341">
        <ele>740</ele>
        <time>2019-05-31T09:34:35Z</time>
      </trkpt>
      <trkpt lat="44.07887" lon="3.12344">
        <ele>740.1</ele>
        <time>2019-05-31T09:34:36Z</time>
      </trkpt>
      <trkpt lat="44.07883" lon="3.12347">
        <ele>740.2</ele>
        <time>2019-05-31T09:34:37Z</time>
      </trkpt>
      <trkpt lat="44.07881" lon="3.12351">
        <ele>740.3</ele>
        <time>2019-05-31T09:34:38Z</time>
      </trkpt>
      <trkpt lat="44.07876" lon="3.12354">
        <ele>740.4</ele>
        <time>2019-05-31T09:34:39Z</time>
      </trkpt>
      <trkpt lat="44.07872" lon="3.12357">
        <ele>740.5</ele>
        <time>2019-05-31T09:34:40Z</time>
      </trkpt>
      <trkpt lat="44.07869" lon="3.12361">
        <ele>740.7</ele>
        <time>2019-05-31T09:34:41Z</time>
      </trkpt>
      <trkpt lat="44.07864" lon="3.12365">
        <ele>740.9</ele>
        <time>2019-05-31T09:34:42Z</time>
      </trkpt>
      <trkpt lat="44.0786" lon="3.12368">
        <ele>741.1</ele>
        <time>2019-05-31T09:34:43Z</time>
      </trkpt>
      <trkpt lat="44.07855" lon="3.12372">
        <ele>741.3</ele>
        <time>2019-05-31T09:34:44Z</time>
      </trkpt>
      <trkpt lat="44.07851" lon="3.12375">
        <ele>741.6</ele>
        <time>2019-05-31T09:34:45Z</time>
      </trkpt>
      <trkpt lat="44.07847" lon="3.12379">
        <ele>741.8</ele>
        <time>2019-05-31T09:34:46Z</time>
      </trkpt>
      <trkpt lat="44.07842" lon="3.12385">
        <ele>742.1</ele>
        <time>2019-05-31T09:34:47Z</time>
      </trkpt>
      <trkpt lat="44.07838" lon="3.12386">
        <ele>742.3</ele>
        <time>2019-05-31T09:34:48Z</time>
      </trkpt>
      <trkpt lat="44.07833" lon="3.12388">
        <ele>742.4</ele>
        <time>2019-05-31T09:34:49Z</time>
      </trkpt>
      <trkpt lat="44.07829" lon="3.1239">
        <ele>742.5</ele>
        <time>2019-05-31T09:34:50Z</time>
      </trkpt>
      <trkpt lat="44.07824" lon="3.12392">
        <ele>742.6</ele>
        <time>2019-05-31T09:34:51Z</time>
      </trkpt>
      <trkpt lat="44.07819" lon="3.12393">
        <ele>742.8</ele>
        <time>2019-05-31T09:34:52Z</time>
      </trkpt>
      <trkpt lat="44.07814" lon="3.12395">
        <ele>742.9</ele>
        <time>2019-05-31T09:34:53Z</time>
      </trkpt>
      <trkpt lat="44.07809" lon="3.12393">
        <ele>743</ele>
        <time>2019-05-31T09:34:54Z</time>
      </trkpt>
      <trkpt lat="44.07804" lon="3.12392">
        <ele>743.1</ele>
        <time>2019-05-31T09:34:55Z</time>
      </trkpt>
      <trkpt lat="44.07798" lon="3.12391">
        <ele>743.2</ele>
        <time>2019-05-31T09:34:56Z</time>
      </trkpt>
      <trkpt lat="44.07794" lon="3.12391">
        <ele>743.3</ele>
        <time>2019-05-31T09:34:57Z</time>
      </trkpt>
      <trkpt lat="44.0779" lon="3.1239">
        <ele>743.5</ele>
        <time>2019-05-31T09:34:58Z</time>
      </trkpt>
      <trkpt lat="44.07785" lon="3.1239">
        <ele>743.7</ele>
        <time>2019-05-31T09:34:59Z</time>
      </trkpt>
      <trkpt lat="44.07779" lon="3.12391">
        <ele>744</ele>
        <time>2019-05-31T09:35:00Z</time>
      </trkpt>
      <trkpt lat="44.07774" lon="3.12392">
        <ele>744.4</ele>
        <time>2019-05-31T09:35:01Z</time>
      </trkpt>
      <trkpt lat="44.0777" lon="3.12395">
        <ele>744.7</ele>
        <time>2019-05-31T09:35:02Z</time>
      </trkpt>
      <trkpt lat="44.07765" lon="3.12399">
        <ele>744.9</ele>
        <time>2019-05-31T09:35:03Z</time>
      </trkpt>
      <trkpt lat="44.0776" lon="3.12403">
        <ele>744.9</ele>
        <time>2019-05-31T09:35:04Z</time>
      </trkpt>
      <trkpt lat="44.07756" lon="3.12406">
        <ele>744.9</ele>
        <time>2019-05-31T09:35:05Z</time>
      </trkpt>
      <trkpt lat="44.07752" lon="3.1241">
        <ele>744.9</ele>
        <time>2019-05-31T09:35:06Z</time>
      </trkpt>
      <trkpt lat="44.07747" lon="3.12415">
        <ele>744.9</ele>
        <time>2019-05-31T09:35:07Z</time>
      </trkpt>
      <trkpt lat="44.07744" lon="3.12419">
        <ele>745</ele>
        <time>2019-05-31T09:35:08Z</time>
      </trkpt>
      <trkpt lat="44.07741" lon="3.12422">
        <ele>745</ele>
        <time>2019-05-31T09:35:09Z</time>
      </trkpt>
      <trkpt lat="44.07738" lon="3.12427">
        <ele>745</ele>
        <time>2019-05-31T09:35:10Z</time>
      </trkpt>
      <trkpt lat="44.07734" lon="3.12431">
        <ele>745.1</ele>
        <time>2019-05-31T09:35:11Z</time>
      </trkpt>
      <trkpt lat="44.07729" lon="3.12434">
        <ele>745.1</ele>
        <time>2019-05-31T09:35:12Z</time>
      </trkpt>
      <trkpt lat="44.07724" lon="3.12443">
        <ele>745.2</ele>
        <time>2019-05-31T09:35:13Z</time>
      </trkpt>
      <trkpt lat="44.07722" lon="3.12447">
        <ele>745.2</ele>
        <time>2019-05-31T09:35:14Z</time>
      </trkpt>
      <trkpt lat="44.07717" lon="3.12451">
        <ele>745.3</ele>
        <time>2019-05-31T09:35:15Z</time>
      </trkpt>
      <trkpt lat="44.07713" lon="3.12456">
        <ele>745.3</ele>
        <time>2019-05-31T09:35:16Z</time>
      </trkpt>
      <trkpt lat="44.0771" lon="3.12458">
        <ele>745.3</ele>
        <time>2019-05-31T09:35:17Z</time>
      </trkpt>
      <trkpt lat="44.07706" lon="3.12461">
        <ele>745.4</ele>
        <time>2019-05-31T09:35:18Z</time>
      </trkpt>
      <trkpt lat="44.07703" lon="3.12469">
        <ele>745.5</ele>
        <time>2019-05-31T09:35:19Z</time>
      </trkpt>
      <trkpt lat="44.07699" lon="3.12473">
        <ele>745.5</ele>
        <time>2019-05-31T09:35:20Z</time>
      </trkpt>
      <trkpt lat="44.07697" lon="3.1248">
        <ele>745.6</ele>
        <time>2019-05-31T09:35:21Z</time>
      </trkpt>
      <trkpt lat="44.07692" lon="3.12485">
        <ele>745.6</ele>
        <time>2019-05-31T09:35:22Z</time>
      </trkpt>
      <trkpt lat="44.07688" lon="3.12489">
        <ele>745.7</ele>
        <time>2019-05-31T09:35:23Z</time>
      </trkpt>
      <trkpt lat="44.07684" lon="3.12495">
        <ele>745.7</ele>
        <time>2019-05-31T09:35:24Z</time>
      </trkpt>
      <trkpt lat="44.07681" lon="3.125">
        <ele>745.7</ele>
        <time>2019-05-31T09:35:25Z</time>
      </trkpt>
      <trkpt lat="44.07678" lon="3.12505">
        <ele>745.7</ele>
        <time>2019-05-31T09:35:26Z</time>
      </trkpt>
      <trkpt lat="44.07674" lon="3.12511">
        <ele>745.8</ele>
        <time>2019-05-31T09:35:27Z</time>
      </trkpt>
      <trkpt lat="44.07671" lon="3.1252">
        <ele>745.8</ele>
        <time>2019-05-31T09:35:28Z</time>
      </trkpt>
      <trkpt lat="44.07668" lon="3.12525">
        <ele>745.8</ele>
        <time>2019-05-31T09:35:29Z</time>
      </trkpt>
      <trkpt lat="44.07664" lon="3.12532">
        <ele>745.8</ele>
        <time>2019-05-31T09:35:30Z</time>
      </trkpt>
      <trkpt lat="44.0766" lon="3.12537">
        <ele>745.8</ele>
        <time>2019-05-31T09:35:31Z</time>
      </trkpt>
      <trkpt lat="44.07658" lon="3.12542">
        <ele>745.8</ele>
        <time>2019-05-31T09:35:32Z</time>
      </trkpt>
      <trkpt lat="44.07654" lon="3.12547">
        <ele>745.8</ele>
        <time>2019-05-31T09:35:33Z</time>
      </trkpt>
      <trkpt lat="44.0765" lon="3.12552">
        <ele>745.8</ele>
        <time>2019-05-31T09:35:34Z</time>
      </trkpt>
      <trkpt lat="44.07648" lon="3.12559">
        <ele>745.8</ele>
        <time>2019-05-31T09:35:35Z</time>
      </trkpt>
      <trkpt lat="44.07646" lon="3.12564">
        <ele>745.8</ele>
        <time>2019-05-31T09:35:36Z</time>
      </trkpt>
      <trkpt lat="44.07645" lon="3.12571">
        <ele>745.8</ele>
        <time>2019-05-31T09:35:37Z</time>
      </trkpt>
      <trkpt lat="44.07643" lon="3.1258">
        <ele>745.8</ele>
        <time>2019-05-31T09:35:38Z</time>
      </trkpt>
      <trkpt lat="44.07644" lon="3.12587">
        <ele>745.8</ele>
        <time>2019-05-31T09:35:39Z</time>
      </trkpt>
      <trkpt lat="44.07646" lon="3.12595">
        <ele>745.8</ele>
        <time>2019-05-31T09:35:40Z</time>
      </trkpt>
      <trkpt lat="44.07648" lon="3.12602">
        <ele>745.8</ele>
        <time>2019-05-31T09:35:41Z</time>
      </trkpt>
      <trkpt lat="44.07651" lon="3.12607">
        <ele>745.8</ele>
        <time>2019-05-31T09:35:42Z</time>
      </trkpt>
      <trkpt lat="44.07655" lon="3.12614">
        <ele>745.9</ele>
        <time>2019-05-31T09:35:43Z</time>
      </trkpt>
      <trkpt lat="44.07658" lon="3.12619">
        <ele>746</ele>
        <time>2019-05-31T09:35:44Z</time>
      </trkpt>
      <trkpt lat="44.07662" lon="3.12625">
        <ele>746</ele>
        <time>2019-05-31T09:35:45Z</time>
      </trkpt>
      <trkpt lat="44.07665" lon="3.12632">
        <ele>746.1</ele>
        <time>2019-05-31T09:35:46Z</time>
      </trkpt>
      <trkpt lat="44.07669" lon="3.1264">
        <ele>746.2</ele>
        <time>2019-05-31T09:35:47Z</time>
      </trkpt>
      <trkpt lat="44.07672" lon="3.12646">
        <ele>746.3</ele>
        <time>2019-05-31T09:35:48Z</time>
      </trkpt>
      <trkpt lat="44.07674" lon="3.12653">
        <ele>746.4</ele>
        <time>2019-05-31T09:35:49Z</time>
      </trkpt>
      <trkpt lat="44.07677" lon="3.12659">
        <ele>746.5</ele>
        <time>2019-05-31T09:35:50Z</time>
      </trkpt>
      <trkpt lat="44.0768" lon="3.12667">
        <ele>746.6</ele>
        <time>2019-05-31T09:35:51Z</time>
      </trkpt>
      <trkpt lat="44.07682" lon="3.12674">
        <ele>746.7</ele>
        <time>2019-05-31T09:35:52Z</time>
      </trkpt>
      <trkpt lat="44.07684" lon="3.1268">
        <ele>746.7</ele>
        <time>2019-05-31T09:35:53Z</time>
      </trkpt>
      <trkpt lat="44.07686" lon="3.12686">
        <ele>746.8</ele>
        <time>2019-05-31T09:35:54Z</time>
      </trkpt>
      <trkpt lat="44.07692" lon="3.12694">
        <ele>746.9</ele>
        <time>2019-05-31T09:35:55Z</time>
      </trkpt>
      <trkpt lat="44.07696" lon="3.12701">
        <ele>746.9</ele>
        <time>2019-05-31T09:35:56Z</time>
      </trkpt>
      <trkpt lat="44.07698" lon="3.12708">
        <ele>747</ele>
        <time>2019-05-31T09:35:57Z</time>
      </trkpt>
      <trkpt lat="44.077" lon="3.12711">
        <ele>747</ele>
        <time>2019-05-31T09:35:58Z</time>
      </trkpt>
      <trkpt lat="44.07705" lon="3.12719">
        <ele>747.1</ele>
        <time>2019-05-31T09:35:59Z</time>
      </trkpt>
      <trkpt lat="44.07706" lon="3.12727">
        <ele>747.2</ele>
        <time>2019-05-31T09:36:00Z</time>
      </trkpt>
      <trkpt lat="44.07707" lon="3.12734">
        <ele>747.3</ele>
        <time>2019-05-31T09:36:01Z</time>
      </trkpt>
      <trkpt lat="44.0771" lon="3.12744">
        <ele>747.4</ele>
        <time>2019-05-31T09:36:02Z</time>
      </trkpt>
      <trkpt lat="44.0771" lon="3.12751">
        <ele>747.5</ele>
        <time>2019-05-31T09:36:03Z</time>
      </trkpt>
      <trkpt lat="44.07709" lon="3.12761">
        <ele>747.6</ele>
        <time>2019-05-31T09:36:04Z</time>
      </trkpt>
      <trkpt lat="44.07706" lon="3.1277">
        <ele>747.8</ele>
        <time>2019-05-31T09:36:05Z</time>
      </trkpt>
      <trkpt lat="44.07705" lon="3.12777">
        <ele>748</ele>
        <time>2019-05-31T09:36:06Z</time>
      </trkpt>
      <trkpt lat="44.07702" lon="3.12785">
        <ele>748.2</ele>
        <time>2019-05-31T09:36:07Z</time>
      </trkpt>
      <trkpt lat="44.07701" lon="3.12792">
        <ele>748.3</ele>
        <time>2019-05-31T09:36:08Z</time>
      </trkpt>
      <trkpt lat="44.07698" lon="3.12798">
        <ele>748.5</ele>
        <time>2019-05-31T09:36:09Z</time>
      </trkpt>
      <trkpt lat="44.07694" lon="3.12804">
        <ele>748.7</ele>
        <time>2019-05-31T09:36:10Z</time>
      </trkpt>
      <trkpt lat="44.07691" lon="3.12808">
        <ele>748.9</ele>
        <time>2019-05-31T09:36:11Z</time>
      </trkpt>
      <trkpt lat="44.07686" lon="3.12813">
        <ele>749</ele>
        <time>2019-05-31T09:36:12Z</time>
      </trkpt>
      <trkpt lat="44.07682" lon="3.12817">
        <ele>749.2</ele>
        <time>2019-05-31T09:36:13Z</time>
      </trkpt>
      <trkpt lat="44.07677" lon="3.1282">
        <ele>749.3</ele>
        <time>2019-05-31T09:36:14Z</time>
      </trkpt>
      <trkpt lat="44.07673" lon="3.12822">
        <ele>749.4</ele>
        <time>2019-05-31T09:36:15Z</time>
      </trkpt>
      <trkpt lat="44.07668" lon="3.12826">
        <ele>749.5</ele>
        <time>2019-05-31T09:36:16Z</time>
      </trkpt>
      <trkpt lat="44.07665" lon="3.12828">
        <ele>749.6</ele>
        <time>2019-05-31T09:36:17Z</time>
      </trkpt>
      <trkpt lat="44.07661" lon="3.1283">
        <ele>749.7</ele>
        <time>2019-05-31T09:36:18Z</time>
      </trkpt>
      <trkpt lat="44.07656" lon="3.12833">
        <ele>749.8</ele>
        <time>2019-05-31T09:36:19Z</time>
      </trkpt>
      <trkpt lat="44.07652" lon="3.12836">
        <ele>749.9</ele>
        <time>2019-05-31T09:36:20Z</time>
      </trkpt>
      <trkpt lat="44.07647" lon="3.1284">
        <ele>750</ele>
        <time>2019-05-31T09:36:21Z</time>
      </trkpt>
      <trkpt lat="44.07643" lon="3.12843">
        <ele>750.1</ele>
        <time>2019-05-31T09:36:22Z</time>
      </trkpt>
      <trkpt lat="44.0764" lon="3.12848">
        <ele>750.2</ele>
        <time>2019-05-31T09:36:23Z</time>
      </trkpt>
      <trkpt lat="44.07635" lon="3.12853">
        <ele>750.4</ele>
        <time>2019-05-31T09:36:24Z</time>
      </trkpt>
      <trkpt lat="44.07633" lon="3.12858">
        <ele>750.4</ele>
        <time>2019-05-31T09:36:25Z</time>
      </trkpt>
      <trkpt lat="44.07629" lon="3.12862">
        <ele>750.5</ele>
        <time>2019-05-31T09:36:26Z</time>
      </trkpt>
      <trkpt lat="44.07627" lon="3.12866">
        <ele>750.6</ele>
        <time>2019-05-31T09:36:27Z</time>
      </trkpt>
      <trkpt lat="44.07625" lon="3.12871">
        <ele>750.6</ele>
        <time>2019-05-31T09:36:28Z</time>
      </trkpt>
      <trkpt lat="44.07621" lon="3.12876">
        <ele>750.7</ele>
        <time>2019-05-31T09:36:29Z</time>
      </trkpt>
      <trkpt lat="44.0762" lon="3.12882">
        <ele>750.8</ele>
        <time>2019-05-31T09:36:30Z</time>
      </trkpt>
      <trkpt lat="44.07618" lon="3.12888">
        <ele>750.9</ele>
        <time>2019-05-31T09:36:31Z</time>
      </trkpt>
      <trkpt lat="44.07617" lon="3.12894">
        <ele>751</ele>
        <time>2019-05-31T09:36:32Z</time>
      </trkpt>
      <trkpt lat="44.07617" lon="3.12902">
        <ele>751.1</ele>
        <time>2019-05-31T09:36:33Z</time>
      </trkpt>
      <trkpt lat="44.07617" lon="3.12911">
        <ele>751.2</ele>
        <time>2019-05-31T09:36:34Z</time>
      </trkpt>
      <trkpt lat="44.07618" lon="3.12919">
        <ele>751.3</ele>
        <time>2019-05-31T09:36:35Z</time>
      </trkpt>
      <trkpt lat="44.07618" lon="3.12926">
        <ele>751.4</ele>
        <time>2019-05-31T09:36:36Z</time>
      </trkpt>
      <trkpt lat="44.07619" lon="3.12933">
        <ele>751.5</ele>
        <time>2019-05-31T09:36:37Z</time>
      </trkpt>
      <trkpt lat="44.07619" lon="3.12941">
        <ele>751.7</ele>
        <time>2019-05-31T09:36:38Z</time>
      </trkpt>
      <trkpt lat="44.0762" lon="3.12947">
        <ele>751.9</ele>
        <time>2019-05-31T09:36:39Z</time>
      </trkpt>
      <trkpt lat="44.0762" lon="3.12953">
        <ele>752</ele>
        <time>2019-05-31T09:36:40Z</time>
      </trkpt>
      <trkpt lat="44.0762" lon="3.12959">
        <ele>752.2</ele>
        <time>2019-05-31T09:36:41Z</time>
      </trkpt>
      <trkpt lat="44.0762" lon="3.12965">
        <ele>752.4</ele>
        <time>2019-05-31T09:36:42Z</time>
      </trkpt>
      <trkpt lat="44.07623" lon="3.12971">
        <ele>752.6</ele>
        <time>2019-05-31T09:36:43Z</time>
      </trkpt>
      <trkpt lat="44.07625" lon="3.12978">
        <ele>752.9</ele>
        <time>2019-05-31T09:36:44Z</time>
      </trkpt>
      <trkpt lat="44.07626" lon="3.12983">
        <ele>753.1</ele>
        <time>2019-05-31T09:36:45Z</time>
      </trkpt>
      <trkpt lat="44.07627" lon="3.12988">
        <ele>753.3</ele>
        <time>2019-05-31T09:36:46Z</time>
      </trkpt>
      <trkpt lat="44.07627" lon="3.12994">
        <ele>753.6</ele>
        <time>2019-05-31T09:36:47Z</time>
      </trkpt>
      <trkpt lat="44.07627" lon="3.12999">
        <ele>753.8</ele>
        <time>2019-05-31T09:36:48Z</time>
      </trkpt>
      <trkpt lat="44.07627" lon="3.13004">
        <ele>754.2</ele>
        <time>2019-05-31T09:36:49Z</time>
      </trkpt>
      <trkpt lat="44.07627" lon="3.13009">
        <ele>754.3</ele>
        <time>2019-05-31T09:36:50Z</time>
      </trkpt>
      <trkpt lat="44.07623" lon="3.13013">
        <ele>754.5</ele>
        <time>2019-05-31T09:36:52Z</time>
      </trkpt>
      <trkpt lat="44.07619" lon="3.13013">
        <ele>754.7</ele>
        <time>2019-05-31T09:36:54Z</time>
      </trkpt>
      <trkpt lat="44.07614" lon="3.13015">
        <ele>755</ele>
        <time>2019-05-31T09:36:56Z</time>
      </trkpt>
      <trkpt lat="44.0761" lon="3.13017">
        <ele>755.3</ele>
        <time>2019-05-31T09:36:57Z</time>
      </trkpt>
      <trkpt lat="44.07607" lon="3.13019">
        <ele>755.6</ele>
        <time>2019-05-31T09:36:58Z</time>
      </trkpt>
      <trkpt lat="44.07604" lon="3.1302">
        <ele>755.8</ele>
        <time>2019-05-31T09:36:59Z</time>
      </trkpt>
      <trkpt lat="44.07599" lon="3.13022">
        <ele>756</ele>
        <time>2019-05-31T09:37:01Z</time>
      </trkpt>
      <trkpt lat="44.07596" lon="3.13025">
        <ele>756.2</ele>
        <time>2019-05-31T09:37:03Z</time>
      </trkpt>
      <trkpt lat="44.07593" lon="3.13028">
        <ele>756.4</ele>
        <time>2019-05-31T09:37:05Z</time>
      </trkpt>
      <trkpt lat="44.07591" lon="3.13032">
        <ele>756.7</ele>
        <time>2019-05-31T09:37:07Z</time>
      </trkpt>
      <trkpt lat="44.07587" lon="3.13037">
        <ele>756.9</ele>
        <time>2019-05-31T09:37:09Z</time>
      </trkpt>
      <trkpt lat="44.07584" lon="3.13041">
        <ele>757.2</ele>
        <time>2019-05-31T09:37:11Z</time>
      </trkpt>
      <trkpt lat="44.0758" lon="3.13045">
        <ele>757.5</ele>
        <time>2019-05-31T09:37:13Z</time>
      </trkpt>
      <trkpt lat="44.07576" lon="3.13047">
        <ele>757.7</ele>
        <time>2019-05-31T09:37:15Z</time>
      </trkpt>
      <trkpt lat="44.07573" lon="3.13048">
        <ele>757.8</ele>
        <time>2019-05-31T09:37:16Z</time>
      </trkpt>
      <trkpt lat="44.07569" lon="3.13049">
        <ele>758</ele>
        <time>2019-05-31T09:37:18Z</time>
      </trkpt>
      <trkpt lat="44.07566" lon="3.13052">
        <ele>758.1</ele>
        <time>2019-05-31T09:37:20Z</time>
      </trkpt>
      <trkpt lat="44.07564" lon="3.13055">
        <ele>758.3</ele>
        <time>2019-05-31T09:37:22Z</time>
      </trkpt>
      <trkpt lat="44.0756" lon="3.13059">
        <ele>758.4</ele>
        <time>2019-05-31T09:37:24Z</time>
      </trkpt>
      <trkpt lat="44.07556" lon="3.13061">
        <ele>758.7</ele>
        <time>2019-05-31T09:37:26Z</time>
      </trkpt>
      <trkpt lat="44.07551" lon="3.13062">
        <ele>759</ele>
        <time>2019-05-31T09:37:28Z</time>
      </trkpt>
      <trkpt lat="44.07547" lon="3.13061">
        <ele>759.2</ele>
        <time>2019-05-31T09:37:30Z</time>
      </trkpt>
      <trkpt lat="44.07542" lon="3.13062">
        <ele>759.4</ele>
        <time>2019-05-31T09:37:32Z</time>
      </trkpt>
      <trkpt lat="44.07538" lon="3.13062">
        <ele>759.5</ele>
        <time>2019-05-31T09:37:34Z</time>
      </trkpt>
      <trkpt lat="44.07534" lon="3.1306">
        <ele>759.7</ele>
        <time>2019-05-31T09:37:36Z</time>
      </trkpt>
      <trkpt lat="44.0753" lon="3.13059">
        <ele>759.9</ele>
        <time>2019-05-31T09:37:38Z</time>
      </trkpt>
      <trkpt lat="44.07528" lon="3.13059">
        <ele>760.2</ele>
        <time>2019-05-31T09:37:40Z</time>
      </trkpt>
      <trkpt lat="44.07524" lon="3.13059">
        <ele>760.4</ele>
        <time>2019-05-31T09:37:43Z</time>
      </trkpt>
      <trkpt lat="44.07519" lon="3.13058">
        <ele>760.8</ele>
        <time>2019-05-31T09:37:45Z</time>
      </trkpt>
      <trkpt lat="44.07515" lon="3.13058">
        <ele>761.1</ele>
        <time>2019-05-31T09:37:47Z</time>
      </trkpt>
      <trkpt lat="44.07509" lon="3.13058">
        <ele>761.5</ele>
        <time>2019-05-31T09:37:49Z</time>
      </trkpt>
      <trkpt lat="44.07506" lon="3.13058">
        <ele>761.8</ele>
        <time>2019-05-31T09:37:50Z</time>
      </trkpt>
      <trkpt lat="44.07502" lon="3.13058">
        <ele>762.1</ele>
        <time>2019-05-31T09:37:52Z</time>
      </trkpt>
      <trkpt lat="44.07499" lon="3.13058">
        <ele>762.3</ele>
        <time>2019-05-31T09:37:53Z</time>
      </trkpt>
      <trkpt lat="44.07494" lon="3.13058">
        <ele>762.7</ele>
        <time>2019-05-31T09:37:55Z</time>
      </trkpt>
      <trkpt lat="44.07489" lon="3.1306">
        <ele>763.1</ele>
        <time>2019-05-31T09:37:57Z</time>
      </trkpt>
      <trkpt lat="44.07486" lon="3.13062">
        <ele>763.3</ele>
        <time>2019-05-31T09:37:58Z</time>
      </trkpt>
      <trkpt lat="44.07481" lon="3.13064">
        <ele>763.7</ele>
        <time>2019-05-31T09:38:00Z</time>
      </trkpt>
      <trkpt lat="44.07477" lon="3.13066">
        <ele>764.2</ele>
        <time>2019-05-31T09:38:02Z</time>
      </trkpt>
      <trkpt lat="44.07473" lon="3.13067">
        <ele>764.5</ele>
        <time>2019-05-31T09:38:03Z</time>
      </trkpt>
      <trkpt lat="44.0747" lon="3.13069">
        <ele>764.7</ele>
        <time>2019-05-31T09:38:04Z</time>
      </trkpt>
      <trkpt lat="44.07467" lon="3.13071">
        <ele>764.9</ele>
        <time>2019-05-31T09:38:05Z</time>
      </trkpt>
      <trkpt lat="44.07464" lon="3.13073">
        <ele>765.1</ele>
        <time>2019-05-31T09:38:06Z</time>
      </trkpt>
      <trkpt lat="44.07461" lon="3.13075">
        <ele>765.3</ele>
        <time>2019-05-31T09:38:07Z</time>
      </trkpt>
      <trkpt lat="44.07457" lon="3.13076">
        <ele>765.5</ele>
        <time>2019-05-31T09:38:08Z</time>
      </trkpt>
      <trkpt lat="44.07454" lon="3.13077">
        <ele>765.7</ele>
        <time>2019-05-31T09:38:09Z</time>
      </trkpt>
      <trkpt lat="44.07451" lon="3.13078">
        <ele>765.9</ele>
        <time>2019-05-31T09:38:10Z</time>
      </trkpt>
      <trkpt lat="44.07449" lon="3.1308">
        <ele>766</ele>
        <time>2019-05-31T09:38:11Z</time>
      </trkpt>
      <trkpt lat="44.07446" lon="3.13081">
        <ele>766.2</ele>
        <time>2019-05-31T09:38:12Z</time>
      </trkpt>
      <trkpt lat="44.07443" lon="3.13084">
        <ele>766.3</ele>
        <time>2019-05-31T09:38:13Z</time>
      </trkpt>
      <trkpt lat="44.0744" lon="3.13086">
        <ele>766.6</ele>
        <time>2019-05-31T09:38:14Z</time>
      </trkpt>
      <trkpt lat="44.07436" lon="3.13089">
        <ele>766.8</ele>
        <time>2019-05-31T09:38:15Z</time>
      </trkpt>
      <trkpt lat="44.07433" lon="3.13092">
        <ele>767.2</ele>
        <time>2019-05-31T09:38:16Z</time>
      </trkpt>
      <trkpt lat="44.0743" lon="3.13094">
        <ele>767.4</ele>
        <time>2019-05-31T09:38:17Z</time>
      </trkpt>
      <trkpt lat="44.07425" lon="3.13093">
        <ele>767.7</ele>
        <time>2019-05-31T09:38:18Z</time>
      </trkpt>
      <trkpt lat="44.0742" lon="3.13096">
        <ele>768</ele>
        <time>2019-05-31T09:38:19Z</time>
      </trkpt>
      <trkpt lat="44.07416" lon="3.13101">
        <ele>768.3</ele>
        <time>2019-05-31T09:38:20Z</time>
      </trkpt>
      <trkpt lat="44.07412" lon="3.13105">
        <ele>768.7</ele>
        <time>2019-05-31T09:38:21Z</time>
      </trkpt>
      <trkpt lat="44.07407" lon="3.13108">
        <ele>769.1</ele>
        <time>2019-05-31T09:38:22Z</time>
      </trkpt>
      <trkpt lat="44.07404" lon="3.13111">
        <ele>769.4</ele>
        <time>2019-05-31T09:38:23Z</time>
      </trkpt>
      <trkpt lat="44.074" lon="3.13114">
        <ele>769.7</ele>
        <time>2019-05-31T09:38:24Z</time>
      </trkpt>
      <trkpt lat="44.07396" lon="3.13116">
        <ele>770</ele>
        <time>2019-05-31T09:38:25Z</time>
      </trkpt>
      <trkpt lat="44.07391" lon="3.13118">
        <ele>770.4</ele>
        <time>2019-05-31T09:38:26Z</time>
      </trkpt>
      <trkpt lat="44.07388" lon="3.13122">
        <ele>770.6</ele>
        <time>2019-05-31T09:38:27Z</time>
      </trkpt>
      <trkpt lat="44.07384" lon="3.13124">
        <ele>770.7</ele>
        <time>2019-05-31T09:38:28Z</time>
      </trkpt>
      <trkpt lat="44.07379" lon="3.13128">
        <ele>770.7</ele>
        <time>2019-05-31T09:38:29Z</time>
      </trkpt>
      <trkpt lat="44.07373" lon="3.13132">
        <ele>770.9</ele>
        <time>2019-05-31T09:38:30Z</time>
      </trkpt>
      <trkpt lat="44.07369" lon="3.13134">
        <ele>771</ele>
        <time>2019-05-31T09:38:31Z</time>
      </trkpt>
      <trkpt lat="44.07365" lon="3.13136">
        <ele>771.1</ele>
        <time>2019-05-31T09:38:32Z</time>
      </trkpt>
      <trkpt lat="44.07361" lon="3.1314">
        <ele>771.3</ele>
        <time>2019-05-31T09:38:33Z</time>
      </trkpt>
      <trkpt lat="44.07359" lon="3.13142">
        <ele>771.4</ele>
        <time>2019-05-31T09:38:34Z</time>
      </trkpt>
      <trkpt lat="44.07356" lon="3.13144">
        <ele>771.4</ele>
        <time>2019-05-31T09:38:35Z</time>
      </trkpt>
      <trkpt lat="44.07353" lon="3.13148">
        <ele>771.5</ele>
        <time>2019-05-31T09:38:37Z</time>
      </trkpt>
      <trkpt lat="44.07349" lon="3.13153">
        <ele>771.6</ele>
        <time>2019-05-31T09:38:39Z</time>
      </trkpt>
      <trkpt lat="44.07346" lon="3.13158">
        <ele>771.8</ele>
        <time>2019-05-31T09:38:41Z</time>
      </trkpt>
      <trkpt lat="44.07343" lon="3.13163">
        <ele>771.9</ele>
        <time>2019-05-31T09:38:43Z</time>
      </trkpt>
      <trkpt lat="44.07339" lon="3.13165">
        <ele>772</ele>
        <time>2019-05-31T09:38:45Z</time>
      </trkpt>
      <trkpt lat="44.07335" lon="3.13166">
        <ele>772</ele>
        <time>2019-05-31T09:38:47Z</time>
      </trkpt>
      <trkpt lat="44.07331" lon="3.13167">
        <ele>772.1</ele>
        <time>2019-05-31T09:38:49Z</time>
      </trkpt>
      <trkpt lat="44.07326" lon="3.13168">
        <ele>772.1</ele>
        <time>2019-05-31T09:38:51Z</time>
      </trkpt>
      <trkpt lat="44.07322" lon="3.13169">
        <ele>772.2</ele>
        <time>2019-05-31T09:38:53Z</time>
      </trkpt>
      <trkpt lat="44.07317" lon="3.1317">
        <ele>772.3</ele>
        <time>2019-05-31T09:38:55Z</time>
      </trkpt>
      <trkpt lat="44.07312" lon="3.13169">
        <ele>772.3</ele>
        <time>2019-05-31T09:38:57Z</time>
      </trkpt>
      <trkpt lat="44.07309" lon="3.13169">
        <ele>772.3</ele>
        <time>2019-05-31T09:38:58Z</time>
      </trkpt>
      <trkpt lat="44.07305" lon="3.13169">
        <ele>772.4</ele>
        <time>2019-05-31T09:38:59Z</time>
      </trkpt>
      <trkpt lat="44.07302" lon="3.13168">
        <ele>772.4</ele>
        <time>2019-05-31T09:39:00Z</time>
      </trkpt>
      <trkpt lat="44.07298" lon="3.13166">
        <ele>772.4</ele>
        <time>2019-05-31T09:39:01Z</time>
      </trkpt>
      <trkpt lat="44.07294" lon="3.13164">
        <ele>772.4</ele>
        <time>2019-05-31T09:39:02Z</time>
      </trkpt>
      <trkpt lat="44.07291" lon="3.13162">
        <ele>772.4</ele>
        <time>2019-05-31T09:39:03Z</time>
      </trkpt>
      <trkpt lat="44.07288" lon="3.13159">
        <ele>772.4</ele>
        <time>2019-05-31T09:39:04Z</time>
      </trkpt>
      <trkpt lat="44.07285" lon="3.13156">
        <ele>772.4</ele>
        <time>2019-05-31T09:39:05Z</time>
      </trkpt>
      <trkpt lat="44.07283" lon="3.13153">
        <ele>772.4</ele>
        <time>2019-05-31T09:39:06Z</time>
      </trkpt>
      <trkpt lat="44.07281" lon="3.1315">
        <ele>772.5</ele>
        <time>2019-05-31T09:39:07Z</time>
      </trkpt>
      <trkpt lat="44.07275" lon="3.13146">
        <ele>772.5</ele>
        <time>2019-05-31T09:39:08Z</time>
      </trkpt>
      <trkpt lat="44.0727" lon="3.13142">
        <ele>772.6</ele>
        <time>2019-05-31T09:39:09Z</time>
      </trkpt>
      <trkpt lat="44.07267" lon="3.1314">
        <ele>772.7</ele>
        <time>2019-05-31T09:39:10Z</time>
      </trkpt>
      <trkpt lat="44.07263" lon="3.13139">
        <ele>772.8</ele>
        <time>2019-05-31T09:39:11Z</time>
      </trkpt>
      <trkpt lat="44.07259" lon="3.13137">
        <ele>772.9</ele>
        <time>2019-05-31T09:39:12Z</time>
      </trkpt>
      <trkpt lat="44.07255" lon="3.13136">
        <ele>773</ele>
        <time>2019-05-31T09:39:13Z</time>
      </trkpt>
      <trkpt lat="44.07252" lon="3.13135">
        <ele>773.1</ele>
        <time>2019-05-31T09:39:14Z</time>
      </trkpt>
      <trkpt lat="44.07248" lon="3.13133">
        <ele>773.2</ele>
        <time>2019-05-31T09:39:15Z</time>
      </trkpt>
      <trkpt lat="44.07242" lon="3.13131">
        <ele>773.4</ele>
        <time>2019-05-31T09:39:16Z</time>
      </trkpt>
      <trkpt lat="44.07236" lon="3.13128">
        <ele>773.5</ele>
        <time>2019-05-31T09:39:17Z</time>
      </trkpt>
      <trkpt lat="44.0723" lon="3.13126">
        <ele>773.7</ele>
        <time>2019-05-31T09:39:18Z</time>
      </trkpt>
      <trkpt lat="44.07225" lon="3.13126">
        <ele>773.8</ele>
        <time>2019-05-31T09:39:19Z</time>
      </trkpt>
      <trkpt lat="44.0722" lon="3.13122">
        <ele>773.9</ele>
        <time>2019-05-31T09:39:20Z</time>
      </trkpt>
      <trkpt lat="44.07214" lon="3.13118">
        <ele>774.1</ele>
        <time>2019-05-31T09:39:21Z</time>
      </trkpt>
      <trkpt lat="44.07208" lon="3.13116">
        <ele>774.2</ele>
        <time>2019-05-31T09:39:22Z</time>
      </trkpt>
      <trkpt lat="44.07203" lon="3.13116">
        <ele>774.4</ele>
        <time>2019-05-31T09:39:23Z</time>
      </trkpt>
      <trkpt lat="44.07198" lon="3.13114">
        <ele>774.5</ele>
        <time>2019-05-31T09:39:24Z</time>
      </trkpt>
      <trkpt lat="44.07194" lon="3.13113">
        <ele>774.6</ele>
        <time>2019-05-31T09:39:25Z</time>
      </trkpt>
      <trkpt lat="44.0719" lon="3.13113">
        <ele>774.8</ele>
        <time>2019-05-31T09:39:26Z</time>
      </trkpt>
      <trkpt lat="44.07185" lon="3.13114">
        <ele>775</ele>
        <time>2019-05-31T09:39:27Z</time>
      </trkpt>
      <trkpt lat="44.07178" lon="3.13115">
        <ele>775.2</ele>
        <time>2019-05-31T09:39:28Z</time>
      </trkpt>
      <trkpt lat="44.07173" lon="3.13115">
        <ele>775.5</ele>
        <time>2019-05-31T09:39:29Z</time>
      </trkpt>
      <trkpt lat="44.07166" lon="3.13114">
        <ele>775.8</ele>
        <time>2019-05-31T09:39:30Z</time>
      </trkpt>
      <trkpt lat="44.07163" lon="3.13116">
        <ele>775.9</ele>
        <time>2019-05-31T09:39:31Z</time>
      </trkpt>
      <trkpt lat="44.07159" lon="3.13117">
        <ele>776.1</ele>
        <time>2019-05-31T09:39:32Z</time>
      </trkpt>
      <trkpt lat="44.07155" lon="3.13119">
        <ele>776.3</ele>
        <time>2019-05-31T09:39:33Z</time>
      </trkpt>
      <trkpt lat="44.0715" lon="3.1312">
        <ele>776.6</ele>
        <time>2019-05-31T09:39:34Z</time>
      </trkpt>
      <trkpt lat="44.07146" lon="3.13122">
        <ele>776.8</ele>
        <time>2019-05-31T09:39:35Z</time>
      </trkpt>
      <trkpt lat="44.0714" lon="3.13122">
        <ele>777.1</ele>
        <time>2019-05-31T09:39:37Z</time>
      </trkpt>
      <trkpt lat="44.07135" lon="3.13121">
        <ele>777.3</ele>
        <time>2019-05-31T09:39:38Z</time>
      </trkpt>
      <trkpt lat="44.0713" lon="3.13121">
        <ele>777.4</ele>
        <time>2019-05-31T09:39:39Z</time>
      </trkpt>
      <trkpt lat="44.07125" lon="3.1312">
        <ele>777.4</ele>
        <time>2019-05-31T09:39:40Z</time>
      </trkpt>
      <trkpt lat="44.0712" lon="3.13121">
        <ele>777.5</ele>
        <time>2019-05-31T09:39:41Z</time>
      </trkpt>
      <trkpt lat="44.07116" lon="3.13122">
        <ele>777.6</ele>
        <time>2019-05-31T09:39:42Z</time>
      </trkpt>
      <trkpt lat="44.07113" lon="3.13121">
        <ele>777.7</ele>
        <time>2019-05-31T09:39:43Z</time>
      </trkpt>
      <trkpt lat="44.0711" lon="3.13123">
        <ele>777.8</ele>
        <time>2019-05-31T09:39:44Z</time>
      </trkpt>
      <trkpt lat="44.07105" lon="3.13121">
        <ele>778</ele>
        <time>2019-05-31T09:39:45Z</time>
      </trkpt>
      <trkpt lat="44.07102" lon="3.1312">
        <ele>778.1</ele>
        <time>2019-05-31T09:39:46Z</time>
      </trkpt>
      <trkpt lat="44.07099" lon="3.13119">
        <ele>778.2</ele>
        <time>2019-05-31T09:39:47Z</time>
      </trkpt>
      <trkpt lat="44.07095" lon="3.13118">
        <ele>778.3</ele>
        <time>2019-05-31T09:39:48Z</time>
      </trkpt>
      <trkpt lat="44.07091" lon="3.13118">
        <ele>778.3</ele>
        <time>2019-05-31T09:39:49Z</time>
      </trkpt>
      <trkpt lat="44.07088" lon="3.1312">
        <ele>778.4</ele>
        <time>2019-05-31T09:39:50Z</time>
      </trkpt>
      <trkpt lat="44.07084" lon="3.13119">
        <ele>778.5</ele>
        <time>2019-05-31T09:39:51Z</time>
      </trkpt>
      <trkpt lat="44.07081" lon="3.13118">
        <ele>778.6</ele>
        <time>2019-05-31T09:39:52Z</time>
      </trkpt>
      <trkpt lat="44.07077" lon="3.13117">
        <ele>778.7</ele>
        <time>2019-05-31T09:39:53Z</time>
      </trkpt>
      <trkpt lat="44.07074" lon="3.13116">
        <ele>778.8</ele>
        <time>2019-05-31T09:39:54Z</time>
      </trkpt>
      <trkpt lat="44.07071" lon="3.13115">
        <ele>778.9</ele>
        <time>2019-05-31T09:39:55Z</time>
      </trkpt>
      <trkpt lat="44.07067" lon="3.13114">
        <ele>779</ele>
        <time>2019-05-31T09:39:57Z</time>
      </trkpt>
      <trkpt lat="44.07064" lon="3.13113">
        <ele>779</ele>
        <time>2019-05-31T09:39:59Z</time>
      </trkpt>
      <trkpt lat="44.07059" lon="3.13112">
        <ele>779.1</ele>
        <time>2019-05-31T09:40:02Z</time>
      </trkpt>
      <trkpt lat="44.07056" lon="3.13113">
        <ele>779.2</ele>
        <time>2019-05-31T09:40:03Z</time>
      </trkpt>
      <trkpt lat="44.07053" lon="3.13113">
        <ele>779.2</ele>
        <time>2019-05-31T09:40:04Z</time>
      </trkpt>
      <trkpt lat="44.0705" lon="3.13114">
        <ele>779.2</ele>
        <time>2019-05-31T09:40:05Z</time>
      </trkpt>
      <trkpt lat="44.07047" lon="3.13116">
        <ele>779.2</ele>
        <time>2019-05-31T09:40:06Z</time>
      </trkpt>
      <trkpt lat="44.07044" lon="3.13117">
        <ele>779.2</ele>
        <time>2019-05-31T09:40:07Z</time>
      </trkpt>
      <trkpt lat="44.07041" lon="3.13118">
        <ele>779.2</ele>
        <time>2019-05-31T09:40:08Z</time>
      </trkpt>
      <trkpt lat="44.07037" lon="3.13119">
        <ele>779.2</ele>
        <time>2019-05-31T09:40:09Z</time>
      </trkpt>
      <trkpt lat="44.07034" lon="3.1312">
        <ele>779.2</ele>
        <time>2019-05-31T09:40:10Z</time>
      </trkpt>
      <trkpt lat="44.07028" lon="3.13121">
        <ele>779.2</ele>
        <time>2019-05-31T09:40:11Z</time>
      </trkpt>
      <trkpt lat="44.07024" lon="3.13123">
        <ele>779.2</ele>
        <time>2019-05-31T09:40:12Z</time>
      </trkpt>
      <trkpt lat="44.07019" lon="3.13125">
        <ele>779.2</ele>
        <time>2019-05-31T09:40:13Z</time>
      </trkpt>
      <trkpt lat="44.07013" lon="3.13131">
        <ele>779.3</ele>
        <time>2019-05-31T09:40:14Z</time>
      </trkpt>
      <trkpt lat="44.07011" lon="3.13135">
        <ele>779.3</ele>
        <time>2019-05-31T09:40:15Z</time>
      </trkpt>
      <trkpt lat="44.0701" lon="3.13141">
        <ele>779.4</ele>
        <time>2019-05-31T09:40:16Z</time>
      </trkpt>
      <trkpt lat="44.0701" lon="3.13145">
        <ele>779.4</ele>
        <time>2019-05-31T09:40:17Z</time>
      </trkpt>
      <trkpt lat="44.07008" lon="3.13149">
        <ele>779.5</ele>
        <time>2019-05-31T09:40:18Z</time>
      </trkpt>
      <trkpt lat="44.07006" lon="3.13154">
        <ele>779.5</ele>
        <time>2019-05-31T09:40:19Z</time>
      </trkpt>
      <trkpt lat="44.07005" lon="3.13159">
        <ele>779.6</ele>
        <time>2019-05-31T09:40:20Z</time>
      </trkpt>
      <trkpt lat="44.07001" lon="3.13163">
        <ele>779.7</ele>
        <time>2019-05-31T09:40:22Z</time>
      </trkpt>
      <trkpt lat="44.06999" lon="3.13168">
        <ele>779.8</ele>
        <time>2019-05-31T09:40:24Z</time>
      </trkpt>
      <trkpt lat="44.06998" lon="3.13174">
        <ele>780</ele>
        <time>2019-05-31T09:40:26Z</time>
      </trkpt>
      <trkpt lat="44.06996" lon="3.13178">
        <ele>780.1</ele>
        <time>2019-05-31T09:40:27Z</time>
      </trkpt>
      <trkpt lat="44.06995" lon="3.13182">
        <ele>780.2</ele>
        <time>2019-05-31T09:40:28Z</time>
      </trkpt>
      <trkpt lat="44.06993" lon="3.13188">
        <ele>780.5</ele>
        <time>2019-05-31T09:40:30Z</time>
      </trkpt>
      <trkpt lat="44.06991" lon="3.13195">
        <ele>780.8</ele>
        <time>2019-05-31T09:40:32Z</time>
      </trkpt>
      <trkpt lat="44.0699" lon="3.13201">
        <ele>781.1</ele>
        <time>2019-05-31T09:40:34Z</time>
      </trkpt>
      <trkpt lat="44.0699" lon="3.13206">
        <ele>781.2</ele>
        <time>2019-05-31T09:40:35Z</time>
      </trkpt>
      <trkpt lat="44.06989" lon="3.1321">
        <ele>781.5</ele>
        <time>2019-05-31T09:40:36Z</time>
      </trkpt>
      <trkpt lat="44.06989" lon="3.13214">
        <ele>781.6</ele>
        <time>2019-05-31T09:40:37Z</time>
      </trkpt>
      <trkpt lat="44.0699" lon="3.13218">
        <ele>781.9</ele>
        <time>2019-05-31T09:40:38Z</time>
      </trkpt>
      <trkpt lat="44.06991" lon="3.13222">
        <ele>782.1</ele>
        <time>2019-05-31T09:40:39Z</time>
      </trkpt>
      <trkpt lat="44.06993" lon="3.13226">
        <ele>782.4</ele>
        <time>2019-05-31T09:40:40Z</time>
      </trkpt>
      <trkpt lat="44.06994" lon="3.1323">
        <ele>782.6</ele>
        <time>2019-05-31T09:40:41Z</time>
      </trkpt>
      <trkpt lat="44.06994" lon="3.13234">
        <ele>782.9</ele>
        <time>2019-05-31T09:40:42Z</time>
      </trkpt>
      <trkpt lat="44.06994" lon="3.13238">
        <ele>783.2</ele>
        <time>2019-05-31T09:40:43Z</time>
      </trkpt>
      <trkpt lat="44.06992" lon="3.13244">
        <ele>783.6</ele>
        <time>2019-05-31T09:40:45Z</time>
      </trkpt>
      <trkpt lat="44.0699" lon="3.1325">
        <ele>784</ele>
        <time>2019-05-31T09:40:47Z</time>
      </trkpt>
      <trkpt lat="44.06989" lon="3.13254">
        <ele>784.2</ele>
        <time>2019-05-31T09:40:49Z</time>
      </trkpt>
      <trkpt lat="44.06988" lon="3.13258">
        <ele>784.4</ele>
        <time>2019-05-31T09:40:50Z</time>
      </trkpt>
      <trkpt lat="44.06987" lon="3.13262">
        <ele>784.6</ele>
        <time>2019-05-31T09:40:51Z</time>
      </trkpt>
      <trkpt lat="44.06986" lon="3.13266">
        <ele>784.8</ele>
        <time>2019-05-31T09:40:52Z</time>
      </trkpt>
      <trkpt lat="44.06985" lon="3.13271">
        <ele>784.9</ele>
        <time>2019-05-31T09:40:53Z</time>
      </trkpt>
      <trkpt lat="44.06985" lon="3.13275">
        <ele>785.1</ele>
        <time>2019-05-31T09:40:54Z</time>
      </trkpt>
      <trkpt lat="44.06985" lon="3.13281">
        <ele>785.4</ele>
        <time>2019-05-31T09:40:56Z</time>
      </trkpt>
      <trkpt lat="44.06986" lon="3.13286">
        <ele>785.6</ele>
        <time>2019-05-31T09:40:58Z</time>
      </trkpt>
      <trkpt lat="44.06985" lon="3.13292">
        <ele>785.8</ele>
        <time>2019-05-31T09:41:00Z</time>
      </trkpt>
      <trkpt lat="44.06982" lon="3.13298">
        <ele>786</ele>
        <time>2019-05-31T09:41:02Z</time>
      </trkpt>
      <trkpt lat="44.0698" lon="3.13301">
        <ele>786</ele>
        <time>2019-05-31T09:41:03Z</time>
      </trkpt>
      <trkpt lat="44.06979" lon="3.13304">
        <ele>786</ele>
        <time>2019-05-31T09:41:04Z</time>
      </trkpt>
      <trkpt lat="44.06977" lon="3.13308">
        <ele>786</ele>
        <time>2019-05-31T09:41:05Z</time>
      </trkpt>
      <trkpt lat="44.06976" lon="3.13312">
        <ele>786.1</ele>
        <time>2019-05-31T09:41:06Z</time>
      </trkpt>
      <trkpt lat="44.06975" lon="3.13316">
        <ele>786.1</ele>
        <time>2019-05-31T09:41:07Z</time>
      </trkpt>
      <trkpt lat="44.06975" lon="3.13323">
        <ele>786.2</ele>
        <time>2019-05-31T09:41:09Z</time>
      </trkpt>
      <trkpt lat="44.06975" lon="3.13329">
        <ele>786.3</ele>
        <time>2019-05-31T09:41:11Z</time>
      </trkpt>
      <trkpt lat="44.06975" lon="3.13336">
        <ele>786.4</ele>
        <time>2019-05-31T09:41:13Z</time>
      </trkpt>
      <trkpt lat="44.06972" lon="3.13338">
        <ele>786.4</ele>
        <time>2019-05-31T09:41:15Z</time>
      </trkpt>
      <trkpt lat="44.06968" lon="3.13339">
        <ele>786.5</ele>
        <time>2019-05-31T09:41:17Z</time>
      </trkpt>
      <trkpt lat="44.06965" lon="3.13339">
        <ele>786.6</ele>
        <time>2019-05-31T09:41:19Z</time>
      </trkpt>
      <trkpt lat="44.06962" lon="3.13339">
        <ele>786.7</ele>
        <time>2019-05-31T09:41:25Z</time>
      </trkpt>
      <trkpt lat="44.06957" lon="3.13342">
        <ele>786.8</ele>
        <time>2019-05-31T09:41:27Z</time>
      </trkpt>
      <trkpt lat="44.06955" lon="3.13345">
        <ele>786.9</ele>
        <time>2019-05-31T09:41:28Z</time>
      </trkpt>
      <trkpt lat="44.06953" lon="3.13348">
        <ele>787</ele>
        <time>2019-05-31T09:41:29Z</time>
      </trkpt>
      <trkpt lat="44.0695" lon="3.13353">
        <ele>787.1</ele>
        <time>2019-05-31T09:41:31Z</time>
      </trkpt>
      <trkpt lat="44.06947" lon="3.13355">
        <ele>787.2</ele>
        <time>2019-05-31T09:41:32Z</time>
      </trkpt>
      <trkpt lat="44.06944" lon="3.13358">
        <ele>787.3</ele>
        <time>2019-05-31T09:41:33Z</time>
      </trkpt>
      <trkpt lat="44.06942" lon="3.13361">
        <ele>787.4</ele>
        <time>2019-05-31T09:41:34Z</time>
      </trkpt>
      <trkpt lat="44.0694" lon="3.13364">
        <ele>787.5</ele>
        <time>2019-05-31T09:41:35Z</time>
      </trkpt>
      <trkpt lat="44.06938" lon="3.13367">
        <ele>787.6</ele>
        <time>2019-05-31T09:41:36Z</time>
      </trkpt>
      <trkpt lat="44.06936" lon="3.13371">
        <ele>787.7</ele>
        <time>2019-05-31T09:41:37Z</time>
      </trkpt>
      <trkpt lat="44.06935" lon="3.13375">
        <ele>787.8</ele>
        <time>2019-05-31T09:41:38Z</time>
      </trkpt>
      <trkpt lat="44.06934" lon="3.13378">
        <ele>787.9</ele>
        <time>2019-05-31T09:41:39Z</time>
      </trkpt>
      <trkpt lat="44.06933" lon="3.13382">
        <ele>788</ele>
        <time>2019-05-31T09:41:40Z</time>
      </trkpt>
      <trkpt lat="44.06932" lon="3.13386">
        <ele>788.1</ele>
        <time>2019-05-31T09:41:41Z</time>
      </trkpt>
      <trkpt lat="44.06931" lon="3.1339">
        <ele>788.2</ele>
        <time>2019-05-31T09:41:42Z</time>
      </trkpt>
      <trkpt lat="44.06929" lon="3.13393">
        <ele>788.3</ele>
        <time>2019-05-31T09:41:43Z</time>
      </trkpt>
      <trkpt lat="44.06928" lon="3.13397">
        <ele>788.4</ele>
        <time>2019-05-31T09:41:44Z</time>
      </trkpt>
      <trkpt lat="44.06927" lon="3.13401">
        <ele>788.5</ele>
        <time>2019-05-31T09:41:45Z</time>
      </trkpt>
      <trkpt lat="44.06926" lon="3.13404">
        <ele>788.6</ele>
        <time>2019-05-31T09:41:46Z</time>
      </trkpt>
      <trkpt lat="44.06924" lon="3.13408">
        <ele>788.6</ele>
        <time>2019-05-31T09:41:47Z</time>
      </trkpt>
      <trkpt lat="44.06923" lon="3.13412">
        <ele>788.7</ele>
        <time>2019-05-31T09:41:48Z</time>
      </trkpt>
      <trkpt lat="44.0692" lon="3.13419">
        <ele>788.9</ele>
        <time>2019-05-31T09:41:50Z</time>
      </trkpt>
      <trkpt lat="44.06919" lon="3.13422">
        <ele>789</ele>
        <time>2019-05-31T09:41:51Z</time>
      </trkpt>
      <trkpt lat="44.06918" lon="3.13426">
        <ele>789.1</ele>
        <time>2019-05-31T09:41:52Z</time>
      </trkpt>
      <trkpt lat="44.06916" lon="3.1343">
        <ele>789.2</ele>
        <time>2019-05-31T09:41:53Z</time>
      </trkpt>
      <trkpt lat="44.06914" lon="3.13434">
        <ele>789.3</ele>
        <time>2019-05-31T09:41:54Z</time>
      </trkpt>
      <trkpt lat="44.06912" lon="3.13438">
        <ele>789.4</ele>
        <time>2019-05-31T09:41:55Z</time>
      </trkpt>
      <trkpt lat="44.06911" lon="3.13442">
        <ele>789.5</ele>
        <time>2019-05-31T09:41:56Z</time>
      </trkpt>
      <trkpt lat="44.06909" lon="3.13445">
        <ele>789.6</ele>
        <time>2019-05-31T09:41:57Z</time>
      </trkpt>
      <trkpt lat="44.06908" lon="3.1345">
        <ele>789.8</ele>
        <time>2019-05-31T09:41:58Z</time>
      </trkpt>
      <trkpt lat="44.06906" lon="3.13453">
        <ele>789.9</ele>
        <time>2019-05-31T09:41:59Z</time>
      </trkpt>
      <trkpt lat="44.06904" lon="3.13457">
        <ele>790</ele>
        <time>2019-05-31T09:42:00Z</time>
      </trkpt>
      <trkpt lat="44.06902" lon="3.1346">
        <ele>790.1</ele>
        <time>2019-05-31T09:42:01Z</time>
      </trkpt>
      <trkpt lat="44.069" lon="3.13463">
        <ele>790.3</ele>
        <time>2019-05-31T09:42:02Z</time>
      </trkpt>
      <trkpt lat="44.06896" lon="3.13467">
        <ele>790.4</ele>
        <time>2019-05-31T09:42:04Z</time>
      </trkpt>
      <trkpt lat="44.06892" lon="3.13469">
        <ele>790.6</ele>
        <time>2019-05-31T09:42:06Z</time>
      </trkpt>
      <trkpt lat="44.0689" lon="3.13471">
        <ele>790.7</ele>
        <time>2019-05-31T09:42:07Z</time>
      </trkpt>
      <trkpt lat="44.06887" lon="3.13472">
        <ele>790.8</ele>
        <time>2019-05-31T09:42:08Z</time>
      </trkpt>
      <trkpt lat="44.06884" lon="3.13473">
        <ele>791</ele>
        <time>2019-05-31T09:42:09Z</time>
      </trkpt>
      <trkpt lat="44.0688" lon="3.13474">
        <ele>791.1</ele>
        <time>2019-05-31T09:42:10Z</time>
      </trkpt>
      <trkpt lat="44.06877" lon="3.13475">
        <ele>791.2</ele>
        <time>2019-05-31T09:42:11Z</time>
      </trkpt>
      <trkpt lat="44.06874" lon="3.13476">
        <ele>791.3</ele>
        <time>2019-05-31T09:42:12Z</time>
      </trkpt>
      <trkpt lat="44.0687" lon="3.1348">
        <ele>791.4</ele>
        <time>2019-05-31T09:42:14Z</time>
      </trkpt>
      <trkpt lat="44.06868" lon="3.13483">
        <ele>791.5</ele>
        <time>2019-05-31T09:42:15Z</time>
      </trkpt>
      <trkpt lat="44.06865" lon="3.13485">
        <ele>791.7</ele>
        <time>2019-05-31T09:42:16Z</time>
      </trkpt>
      <trkpt lat="44.06862" lon="3.13487">
        <ele>791.8</ele>
        <time>2019-05-31T09:42:17Z</time>
      </trkpt>
      <trkpt lat="44.0686" lon="3.1349">
        <ele>791.9</ele>
        <time>2019-05-31T09:42:18Z</time>
      </trkpt>
      <trkpt lat="44.06857" lon="3.13492">
        <ele>792.1</ele>
        <time>2019-05-31T09:42:19Z</time>
      </trkpt>
      <trkpt lat="44.06855" lon="3.13495">
        <ele>792.2</ele>
        <time>2019-05-31T09:42:20Z</time>
      </trkpt>
      <trkpt lat="44.06852" lon="3.13497">
        <ele>792.3</ele>
        <time>2019-05-31T09:42:21Z</time>
      </trkpt>
      <trkpt lat="44.06848" lon="3.13501">
        <ele>792.6</ele>
        <time>2019-05-31T09:42:23Z</time>
      </trkpt>
      <trkpt lat="44.06845" lon="3.13504">
        <ele>792.8</ele>
        <time>2019-05-31T09:42:24Z</time>
      </trkpt>
      <trkpt lat="44.06842" lon="3.13506">
        <ele>793</ele>
        <time>2019-05-31T09:42:25Z</time>
      </trkpt>
      <trkpt lat="44.06839" lon="3.13508">
        <ele>793.3</ele>
        <time>2019-05-31T09:42:26Z</time>
      </trkpt>
      <trkpt lat="44.06836" lon="3.1351">
        <ele>793.6</ele>
        <time>2019-05-31T09:42:27Z</time>
      </trkpt>
      <trkpt lat="44.06833" lon="3.13511">
        <ele>793.8</ele>
        <time>2019-05-31T09:42:28Z</time>
      </trkpt>
      <trkpt lat="44.06829" lon="3.13512">
        <ele>794.2</ele>
        <time>2019-05-31T09:42:30Z</time>
      </trkpt>
      <trkpt lat="44.06824" lon="3.13513">
        <ele>794.5</ele>
        <time>2019-05-31T09:42:32Z</time>
      </trkpt>
      <trkpt lat="44.0682" lon="3.13515">
        <ele>794.8</ele>
        <time>2019-05-31T09:42:34Z</time>
      </trkpt>
      <trkpt lat="44.06816" lon="3.13517">
        <ele>795.1</ele>
        <time>2019-05-31T09:42:36Z</time>
      </trkpt>
      <trkpt lat="44.06812" lon="3.1352">
        <ele>795.4</ele>
        <time>2019-05-31T09:42:38Z</time>
      </trkpt>
      <trkpt lat="44.06808" lon="3.13523">
        <ele>795.7</ele>
        <time>2019-05-31T09:42:40Z</time>
      </trkpt>
      <trkpt lat="44.06804" lon="3.13526">
        <ele>795.9</ele>
        <time>2019-05-31T09:42:42Z</time>
      </trkpt>
      <trkpt lat="44.06802" lon="3.13528">
        <ele>796</ele>
        <time>2019-05-31T09:42:43Z</time>
      </trkpt>
      <trkpt lat="44.06798" lon="3.13533">
        <ele>796.3</ele>
        <time>2019-05-31T09:42:45Z</time>
      </trkpt>
      <trkpt lat="44.06796" lon="3.13536">
        <ele>796.4</ele>
        <time>2019-05-31T09:42:46Z</time>
      </trkpt>
      <trkpt lat="44.06793" lon="3.13539">
        <ele>796.6</ele>
        <time>2019-05-31T09:42:47Z</time>
      </trkpt>
      <trkpt lat="44.06791" lon="3.13542">
        <ele>796.7</ele>
        <time>2019-05-31T09:42:48Z</time>
      </trkpt>
      <trkpt lat="44.06785" lon="3.13544">
        <ele>797.1</ele>
        <time>2019-05-31T09:42:50Z</time>
      </trkpt>
      <trkpt lat="44.06781" lon="3.13545">
        <ele>797.3</ele>
        <time>2019-05-31T09:42:51Z</time>
      </trkpt>
      <trkpt lat="44.06778" lon="3.13545">
        <ele>797.5</ele>
        <time>2019-05-31T09:42:52Z</time>
      </trkpt>
      <trkpt lat="44.06774" lon="3.13546">
        <ele>797.7</ele>
        <time>2019-05-31T09:42:53Z</time>
      </trkpt>
      <trkpt lat="44.06771" lon="3.13548">
        <ele>797.8</ele>
        <time>2019-05-31T09:42:54Z</time>
      </trkpt>
      <trkpt lat="44.06768" lon="3.1355">
        <ele>798</ele>
        <time>2019-05-31T09:42:56Z</time>
      </trkpt>
      <trkpt lat="44.06765" lon="3.13551">
        <ele>798.2</ele>
        <time>2019-05-31T09:42:57Z</time>
      </trkpt>
      <trkpt lat="44.06761" lon="3.13551">
        <ele>798.4</ele>
        <time>2019-05-31T09:42:58Z</time>
      </trkpt>
      <trkpt lat="44.06758" lon="3.13551">
        <ele>798.6</ele>
        <time>2019-05-31T09:42:59Z</time>
      </trkpt>
      <trkpt lat="44.06754" lon="3.13553">
        <ele>798.8</ele>
        <time>2019-05-31T09:43:00Z</time>
      </trkpt>
      <trkpt lat="44.06751" lon="3.13555">
        <ele>799</ele>
        <time>2019-05-31T09:43:01Z</time>
      </trkpt>
      <trkpt lat="44.06748" lon="3.13557">
        <ele>799.1</ele>
        <time>2019-05-31T09:43:02Z</time>
      </trkpt>
      <trkpt lat="44.06746" lon="3.1356">
        <ele>799.3</ele>
        <time>2019-05-31T09:43:03Z</time>
      </trkpt>
      <trkpt lat="44.06744" lon="3.13563">
        <ele>799.5</ele>
        <time>2019-05-31T09:43:04Z</time>
      </trkpt>
      <trkpt lat="44.06742" lon="3.13567">
        <ele>799.7</ele>
        <time>2019-05-31T09:43:05Z</time>
      </trkpt>
      <trkpt lat="44.06739" lon="3.1357">
        <ele>799.9</ele>
        <time>2019-05-31T09:43:06Z</time>
      </trkpt>
      <trkpt lat="44.06737" lon="3.13573">
        <ele>800.1</ele>
        <time>2019-05-31T09:43:07Z</time>
      </trkpt>
      <trkpt lat="44.06735" lon="3.13576">
        <ele>800.4</ele>
        <time>2019-05-31T09:43:08Z</time>
      </trkpt>
      <trkpt lat="44.06731" lon="3.13581">
        <ele>800.7</ele>
        <time>2019-05-31T09:43:09Z</time>
      </trkpt>
      <trkpt lat="44.06729" lon="3.13584">
        <ele>800.9</ele>
        <time>2019-05-31T09:43:10Z</time>
      </trkpt>
      <trkpt lat="44.06727" lon="3.13588">
        <ele>801.1</ele>
        <time>2019-05-31T09:43:11Z</time>
      </trkpt>
      <trkpt lat="44.06726" lon="3.13592">
        <ele>801.2</ele>
        <time>2019-05-31T09:43:12Z</time>
      </trkpt>
      <trkpt lat="44.06724" lon="3.13596">
        <ele>801.4</ele>
        <time>2019-05-31T09:43:13Z</time>
      </trkpt>
      <trkpt lat="44.06721" lon="3.136">
        <ele>801.6</ele>
        <time>2019-05-31T09:43:14Z</time>
      </trkpt>
      <trkpt lat="44.06718" lon="3.13603">
        <ele>801.8</ele>
        <time>2019-05-31T09:43:15Z</time>
      </trkpt>
      <trkpt lat="44.06715" lon="3.13606">
        <ele>801.9</ele>
        <time>2019-05-31T09:43:16Z</time>
      </trkpt>
      <trkpt lat="44.06712" lon="3.13608">
        <ele>802</ele>
        <time>2019-05-31T09:43:17Z</time>
      </trkpt>
      <trkpt lat="44.06709" lon="3.13609">
        <ele>802.2</ele>
        <time>2019-05-31T09:43:18Z</time>
      </trkpt>
      <trkpt lat="44.06707" lon="3.1361">
        <ele>802.3</ele>
        <time>2019-05-31T09:43:19Z</time>
      </trkpt>
      <trkpt lat="44.06704" lon="3.13612">
        <ele>802.4</ele>
        <time>2019-05-31T09:43:20Z</time>
      </trkpt>
      <trkpt lat="44.06701" lon="3.13614">
        <ele>802.5</ele>
        <time>2019-05-31T09:43:21Z</time>
      </trkpt>
      <trkpt lat="44.06698" lon="3.13617">
        <ele>802.6</ele>
        <time>2019-05-31T09:43:22Z</time>
      </trkpt>
      <trkpt lat="44.06695" lon="3.13622">
        <ele>802.8</ele>
        <time>2019-05-31T09:43:24Z</time>
      </trkpt>
      <trkpt lat="44.06693" lon="3.13625">
        <ele>802.9</ele>
        <time>2019-05-31T09:43:25Z</time>
      </trkpt>
      <trkpt lat="44.06691" lon="3.13628">
        <ele>803</ele>
        <time>2019-05-31T09:43:26Z</time>
      </trkpt>
      <trkpt lat="44.06688" lon="3.13632">
        <ele>803.1</ele>
        <time>2019-05-31T09:43:27Z</time>
      </trkpt>
      <trkpt lat="44.06686" lon="3.13636">
        <ele>803.2</ele>
        <time>2019-05-31T09:43:28Z</time>
      </trkpt>
      <trkpt lat="44.06684" lon="3.13639">
        <ele>803.3</ele>
        <time>2019-05-31T09:43:29Z</time>
      </trkpt>
      <trkpt lat="44.06682" lon="3.13642">
        <ele>803.4</ele>
        <time>2019-05-31T09:43:30Z</time>
      </trkpt>
      <trkpt lat="44.0668" lon="3.13648">
        <ele>803.5</ele>
        <time>2019-05-31T09:43:32Z</time>
      </trkpt>
      <trkpt lat="44.06677" lon="3.13654">
        <ele>803.7</ele>
        <time>2019-05-31T09:43:34Z</time>
      </trkpt>
      <trkpt lat="44.06672" lon="3.13658">
        <ele>803.8</ele>
        <time>2019-05-31T09:43:36Z</time>
      </trkpt>
      <trkpt lat="44.06669" lon="3.13659">
        <ele>803.9</ele>
        <time>2019-05-31T09:43:37Z</time>
      </trkpt>
      <trkpt lat="44.06667" lon="3.13661">
        <ele>804</ele>
        <time>2019-05-31T09:43:38Z</time>
      </trkpt>
      <trkpt lat="44.06664" lon="3.13661">
        <ele>804.1</ele>
        <time>2019-05-31T09:43:39Z</time>
      </trkpt>
      <trkpt lat="44.0666" lon="3.13664">
        <ele>804.2</ele>
        <time>2019-05-31T09:43:41Z</time>
      </trkpt>
      <trkpt lat="44.06658" lon="3.13667">
        <ele>804.3</ele>
        <time>2019-05-31T09:43:42Z</time>
      </trkpt>
      <trkpt lat="44.06656" lon="3.13671">
        <ele>804.4</ele>
        <time>2019-05-31T09:43:43Z</time>
      </trkpt>
      <trkpt lat="44.06653" lon="3.13677">
        <ele>804.6</ele>
        <time>2019-05-31T09:43:45Z</time>
      </trkpt>
      <trkpt lat="44.0665" lon="3.13681">
        <ele>804.7</ele>
        <time>2019-05-31T09:43:47Z</time>
      </trkpt>
      <trkpt lat="44.06647" lon="3.13684">
        <ele>804.9</ele>
        <time>2019-05-31T09:43:49Z</time>
      </trkpt>
      <trkpt lat="44.06644" lon="3.13688">
        <ele>805.1</ele>
        <time>2019-05-31T09:43:51Z</time>
      </trkpt>
      <trkpt lat="44.06641" lon="3.13692">
        <ele>805.4</ele>
        <time>2019-05-31T09:43:53Z</time>
      </trkpt>
      <trkpt lat="44.06637" lon="3.13695">
        <ele>805.7</ele>
        <time>2019-05-31T09:43:55Z</time>
      </trkpt>
      <trkpt lat="44.06633" lon="3.13698">
        <ele>806</ele>
        <time>2019-05-31T09:43:57Z</time>
      </trkpt>
      <trkpt lat="44.06631" lon="3.13699">
        <ele>806.1</ele>
        <time>2019-05-31T09:43:59Z</time>
      </trkpt>
      <trkpt lat="44.06628" lon="3.13703">
        <ele>806.4</ele>
        <time>2019-05-31T09:44:01Z</time>
      </trkpt>
      <trkpt lat="44.06624" lon="3.13708">
        <ele>806.7</ele>
        <time>2019-05-31T09:44:03Z</time>
      </trkpt>
      <trkpt lat="44.06622" lon="3.1371">
        <ele>806.9</ele>
        <time>2019-05-31T09:44:04Z</time>
      </trkpt>
      <trkpt lat="44.06618" lon="3.13715">
        <ele>807.1</ele>
        <time>2019-05-31T09:44:06Z</time>
      </trkpt>
      <trkpt lat="44.06616" lon="3.13717">
        <ele>807.2</ele>
        <time>2019-05-31T09:44:07Z</time>
      </trkpt>
      <trkpt lat="44.06613" lon="3.13722">
        <ele>807.5</ele>
        <time>2019-05-31T09:44:09Z</time>
      </trkpt>
      <trkpt lat="44.06608" lon="3.13726">
        <ele>807.7</ele>
        <time>2019-05-31T09:44:11Z</time>
      </trkpt>
      <trkpt lat="44.06605" lon="3.13729">
        <ele>807.9</ele>
        <time>2019-05-31T09:44:13Z</time>
      </trkpt>
      <trkpt lat="44.06601" lon="3.13732">
        <ele>808.1</ele>
        <time>2019-05-31T09:44:15Z</time>
      </trkpt>
      <trkpt lat="44.06598" lon="3.13735">
        <ele>808.3</ele>
        <time>2019-05-31T09:44:17Z</time>
      </trkpt>
      <trkpt lat="44.06595" lon="3.1374">
        <ele>808.5</ele>
        <time>2019-05-31T09:44:19Z</time>
      </trkpt>
      <trkpt lat="44.06593" lon="3.13745">
        <ele>808.8</ele>
        <time>2019-05-31T09:44:21Z</time>
      </trkpt>
      <trkpt lat="44.0659" lon="3.13749">
        <ele>809.2</ele>
        <time>2019-05-31T09:44:23Z</time>
      </trkpt>
      <trkpt lat="44.06587" lon="3.13754">
        <ele>809.5</ele>
        <time>2019-05-31T09:44:25Z</time>
      </trkpt>
      <trkpt lat="44.06585" lon="3.13757">
        <ele>809.8</ele>
        <time>2019-05-31T09:44:26Z</time>
      </trkpt>
      <trkpt lat="44.06582" lon="3.13762">
        <ele>810.2</ele>
        <time>2019-05-31T09:44:28Z</time>
      </trkpt>
      <trkpt lat="44.06581" lon="3.13765">
        <ele>810.5</ele>
        <time>2019-05-31T09:44:29Z</time>
      </trkpt>
      <trkpt lat="44.06579" lon="3.13769">
        <ele>810.8</ele>
        <time>2019-05-31T09:44:30Z</time>
      </trkpt>
      <trkpt lat="44.06576" lon="3.13773">
        <ele>810.9</ele>
        <time>2019-05-31T09:44:32Z</time>
      </trkpt>
      <trkpt lat="44.06571" lon="3.13775">
        <ele>810.6</ele>
        <time>2019-05-31T09:44:34Z</time>
      </trkpt>
      <trkpt lat="44.06569" lon="3.13778">
        <ele>810.4</ele>
        <time>2019-05-31T09:44:36Z</time>
      </trkpt>
      <trkpt lat="44.06568" lon="3.13783">
        <ele>810.1</ele>
        <time>2019-05-31T09:44:38Z</time>
      </trkpt>
      <trkpt lat="44.06569" lon="3.13787">
        <ele>809.9</ele>
        <time>2019-05-31T09:44:40Z</time>
      </trkpt>
      <trkpt lat="44.06569" lon="3.13792">
        <ele>809.7</ele>
        <time>2019-05-31T09:44:42Z</time>
      </trkpt>
      <trkpt lat="44.0657" lon="3.13797">
        <ele>809.4</ele>
        <time>2019-05-31T09:44:44Z</time>
      </trkpt>
      <trkpt lat="44.06572" lon="3.13802">
        <ele>809.1</ele>
        <time>2019-05-31T09:44:46Z</time>
      </trkpt>
      <trkpt lat="44.06572" lon="3.13807">
        <ele>809.4</ele>
        <time>2019-05-31T09:44:48Z</time>
      </trkpt>
      <trkpt lat="44.06571" lon="3.13813">
        <ele>809.7</ele>
        <time>2019-05-31T09:44:50Z</time>
      </trkpt>
      <trkpt lat="44.06569" lon="3.13816">
        <ele>809.9</ele>
        <time>2019-05-31T09:44:51Z</time>
      </trkpt>
      <trkpt lat="44.06567" lon="3.1382">
        <ele>810.2</ele>
        <time>2019-05-31T09:44:52Z</time>
      </trkpt>
      <trkpt lat="44.06564" lon="3.13824">
        <ele>810.6</ele>
        <time>2019-05-31T09:44:53Z</time>
      </trkpt>
      <trkpt lat="44.0656" lon="3.13827">
        <ele>810.8</ele>
        <time>2019-05-31T09:44:54Z</time>
      </trkpt>
      <trkpt lat="44.06557" lon="3.13831">
        <ele>811.2</ele>
        <time>2019-05-31T09:44:55Z</time>
      </trkpt>
      <trkpt lat="44.06552" lon="3.13834">
        <ele>812</ele>
        <time>2019-05-31T09:44:56Z</time>
      </trkpt>
      <trkpt lat="44.06549" lon="3.13838">
        <ele>812.5</ele>
        <time>2019-05-31T09:44:57Z</time>
      </trkpt>
      <trkpt lat="44.06546" lon="3.13843">
        <ele>812.7</ele>
        <time>2019-05-31T09:44:58Z</time>
      </trkpt>
      <trkpt lat="44.06542" lon="3.13848">
        <ele>812.4</ele>
        <time>2019-05-31T09:44:59Z</time>
      </trkpt>
      <trkpt lat="44.06539" lon="3.13853">
        <ele>812.6</ele>
        <time>2019-05-31T09:45:00Z</time>
      </trkpt>
      <trkpt lat="44.06536" lon="3.13859">
        <ele>813</ele>
        <time>2019-05-31T09:45:01Z</time>
      </trkpt>
      <trkpt lat="44.06532" lon="3.13863">
        <ele>813.8</ele>
        <time>2019-05-31T09:45:02Z</time>
      </trkpt>
      <trkpt lat="44.06528" lon="3.13865">
        <ele>814.5</ele>
        <time>2019-05-31T09:45:03Z</time>
      </trkpt>
      <trkpt lat="44.06525" lon="3.13868">
        <ele>815.1</ele>
        <time>2019-05-31T09:45:04Z</time>
      </trkpt>
      <trkpt lat="44.06523" lon="3.1387">
        <ele>815.6</ele>
        <time>2019-05-31T09:45:05Z</time>
      </trkpt>
      <trkpt lat="44.06519" lon="3.13873">
        <ele>816.1</ele>
        <time>2019-05-31T09:45:07Z</time>
      </trkpt>
      <trkpt lat="44.06516" lon="3.13876">
        <ele>816.2</ele>
        <time>2019-05-31T09:45:09Z</time>
      </trkpt>
      <trkpt lat="44.06512" lon="3.13879">
        <ele>816.4</ele>
        <time>2019-05-31T09:45:11Z</time>
      </trkpt>
      <trkpt lat="44.06509" lon="3.13881">
        <ele>816.5</ele>
        <time>2019-05-31T09:45:13Z</time>
      </trkpt>
      <trkpt lat="44.06505" lon="3.13883">
        <ele>817.2</ele>
        <time>2019-05-31T09:45:15Z</time>
      </trkpt>
      <trkpt lat="44.06502" lon="3.13883">
        <ele>817.8</ele>
        <time>2019-05-31T09:45:17Z</time>
      </trkpt>
      <trkpt lat="44.06499" lon="3.13883">
        <ele>818.2</ele>
        <time>2019-05-31T09:45:19Z</time>
      </trkpt>
      <trkpt lat="44.06496" lon="3.13887">
        <ele>818.8</ele>
        <time>2019-05-31T09:45:21Z</time>
      </trkpt>
      <trkpt lat="44.06494" lon="3.13891">
        <ele>819.2</ele>
        <time>2019-05-31T09:45:23Z</time>
      </trkpt>
      <trkpt lat="44.06491" lon="3.13894">
        <ele>819.4</ele>
        <time>2019-05-31T09:45:25Z</time>
      </trkpt>
      <trkpt lat="44.06488" lon="3.13894">
        <ele>819.9</ele>
        <time>2019-05-31T09:45:27Z</time>
      </trkpt>
      <trkpt lat="44.06486" lon="3.1389">
        <ele>820.5</ele>
        <time>2019-05-31T09:45:29Z</time>
      </trkpt>
      <trkpt lat="44.06484" lon="3.13886">
        <ele>821.3</ele>
        <time>2019-05-31T09:45:31Z</time>
      </trkpt>
      <trkpt lat="44.06481" lon="3.13884">
        <ele>821.5</ele>
        <time>2019-05-31T09:45:33Z</time>
      </trkpt>
      <trkpt lat="44.06477" lon="3.13885">
        <ele>821.5</ele>
        <time>2019-05-31T09:45:36Z</time>
      </trkpt>
      <trkpt lat="44.06474" lon="3.13887">
        <ele>821.7</ele>
        <time>2019-05-31T09:45:38Z</time>
      </trkpt>
      <trkpt lat="44.06471" lon="3.13889">
        <ele>821.8</ele>
        <time>2019-05-31T09:45:40Z</time>
      </trkpt>
      <trkpt lat="44.06467" lon="3.13891">
        <ele>822</ele>
        <time>2019-05-31T09:45:43Z</time>
      </trkpt>
      <trkpt lat="44.06464" lon="3.13891">
        <ele>822.1</ele>
        <time>2019-05-31T09:45:45Z</time>
      </trkpt>
      <trkpt lat="44.06461" lon="3.13892">
        <ele>822.3</ele>
        <time>2019-05-31T09:45:47Z</time>
      </trkpt>
      <trkpt lat="44.06457" lon="3.13893">
        <ele>822.5</ele>
        <time>2019-05-31T09:45:49Z</time>
      </trkpt>
      <trkpt lat="44.06454" lon="3.13893">
        <ele>822.7</ele>
        <time>2019-05-31T09:45:51Z</time>
      </trkpt>
      <trkpt lat="44.06451" lon="3.13895">
        <ele>822.9</ele>
        <time>2019-05-31T09:45:53Z</time>
      </trkpt>
      <trkpt lat="44.06448" lon="3.13893">
        <ele>823.1</ele>
        <time>2019-05-31T09:45:56Z</time>
      </trkpt>
      <trkpt lat="44.06445" lon="3.13891">
        <ele>823.2</ele>
        <time>2019-05-31T09:45:58Z</time>
      </trkpt>
      <trkpt lat="44.06442" lon="3.13892">
        <ele>823.4</ele>
        <time>2019-05-31T09:50:32Z</time>
      </trkpt>
      <trkpt lat="44.0644" lon="3.1389">
        <ele>823.6</ele>
        <time>2019-05-31T09:50:43Z</time>
      </trkpt>
      <trkpt lat="44.0644" lon="3.13894">
        <ele>823.8</ele>
        <time>2019-05-31T09:51:06Z</time>
      </trkpt>
      <trkpt lat="44.06442" lon="3.13897">
        <ele>824</ele>
        <time>2019-05-31T09:51:12Z</time>
      </trkpt>
      <trkpt lat="44.06446" lon="3.13898">
        <ele>824.3</ele>
        <time>2019-05-31T09:51:16Z</time>
      </trkpt>
      <trkpt lat="44.06451" lon="3.13899">
        <ele>823.7</ele>
        <time>2019-05-31T09:51:18Z</time>
      </trkpt>
      <trkpt lat="44.06454" lon="3.139">
        <ele>823.3</ele>
        <time>2019-05-31T09:51:19Z</time>
      </trkpt>
      <trkpt lat="44.0646" lon="3.13898">
        <ele>822.9</ele>
        <time>2019-05-31T09:51:20Z</time>
      </trkpt>
      <trkpt lat="44.06465" lon="3.13896">
        <ele>822.4</ele>
        <time>2019-05-31T09:51:21Z</time>
      </trkpt>
      <trkpt lat="44.0647" lon="3.13894">
        <ele>822</ele>
        <time>2019-05-31T09:51:22Z</time>
      </trkpt>
      <trkpt lat="44.06474" lon="3.13892">
        <ele>821.7</ele>
        <time>2019-05-31T09:51:23Z</time>
      </trkpt>
      <trkpt lat="44.06478" lon="3.13891">
        <ele>821.5</ele>
        <time>2019-05-31T09:51:24Z</time>
      </trkpt>
      <trkpt lat="44.06481" lon="3.13895">
        <ele>820.9</ele>
        <time>2019-05-31T09:51:25Z</time>
      </trkpt>
      <trkpt lat="44.06485" lon="3.13898">
        <ele>820.1</ele>
        <time>2019-05-31T09:51:26Z</time>
      </trkpt>
      <trkpt lat="44.06489" lon="3.13898">
        <ele>819.4</ele>
        <time>2019-05-31T09:51:27Z</time>
      </trkpt>
      <trkpt lat="44.06493" lon="3.13894">
        <ele>819.1</ele>
        <time>2019-05-31T09:51:28Z</time>
      </trkpt>
      <trkpt lat="44.06496" lon="3.13888">
        <ele>818.4</ele>
        <time>2019-05-31T09:51:29Z</time>
      </trkpt>
      <trkpt lat="44.065" lon="3.13885">
        <ele>817.7</ele>
        <time>2019-05-31T09:51:30Z</time>
      </trkpt>
      <trkpt lat="44.06506" lon="3.13882">
        <ele>816.7</ele>
        <time>2019-05-31T09:51:31Z</time>
      </trkpt>
      <trkpt lat="44.06511" lon="3.13876">
        <ele>816.3</ele>
        <time>2019-05-31T09:51:32Z</time>
      </trkpt>
      <trkpt lat="44.06517" lon="3.1387">
        <ele>816.1</ele>
        <time>2019-05-31T09:51:33Z</time>
      </trkpt>
      <trkpt lat="44.06523" lon="3.13867">
        <ele>815.3</ele>
        <time>2019-05-31T09:51:34Z</time>
      </trkpt>
      <trkpt lat="44.06528" lon="3.13865">
        <ele>814.3</ele>
        <time>2019-05-31T09:51:35Z</time>
      </trkpt>
      <trkpt lat="44.06531" lon="3.13862">
        <ele>813.7</ele>
        <time>2019-05-31T09:51:36Z</time>
      </trkpt>
      <trkpt lat="44.06534" lon="3.13859">
        <ele>813.1</ele>
        <time>2019-05-31T09:51:37Z</time>
      </trkpt>
      <trkpt lat="44.06537" lon="3.13855">
        <ele>812.7</ele>
        <time>2019-05-31T09:51:38Z</time>
      </trkpt>
      <trkpt lat="44.06539" lon="3.1385">
        <ele>812.3</ele>
        <time>2019-05-31T09:51:40Z</time>
      </trkpt>
      <trkpt lat="44.0654" lon="3.1384">
        <ele>812.6</ele>
        <time>2019-05-31T09:51:41Z</time>
      </trkpt>
      <trkpt lat="44.06543" lon="3.13838">
        <ele>812.8</ele>
        <time>2019-05-31T09:51:42Z</time>
      </trkpt>
      <trkpt lat="44.06544" lon="3.13835">
        <ele>812.5</ele>
        <time>2019-05-31T09:51:43Z</time>
      </trkpt>
      <trkpt lat="44.06548" lon="3.13832">
        <ele>811.9</ele>
        <time>2019-05-31T09:51:45Z</time>
      </trkpt>
      <trkpt lat="44.06551" lon="3.13829">
        <ele>811.4</ele>
        <time>2019-05-31T09:51:47Z</time>
      </trkpt>
      <trkpt lat="44.06555" lon="3.13825">
        <ele>810.9</ele>
        <time>2019-05-31T09:51:49Z</time>
      </trkpt>
      <trkpt lat="44.06557" lon="3.13822">
        <ele>810.8</ele>
        <time>2019-05-31T09:51:50Z</time>
      </trkpt>
      <trkpt lat="44.0656" lon="3.13816">
        <ele>810.4</ele>
        <time>2019-05-31T09:51:52Z</time>
      </trkpt>
      <trkpt lat="44.06564" lon="3.13813">
        <ele>810</ele>
        <time>2019-05-31T09:51:54Z</time>
      </trkpt>
      <trkpt lat="44.06566" lon="3.1381">
        <ele>809.8</ele>
        <time>2019-05-31T09:51:56Z</time>
      </trkpt>
      <trkpt lat="44.06569" lon="3.13807">
        <ele>809.5</ele>
        <time>2019-05-31T09:51:58Z</time>
      </trkpt>
      <trkpt lat="44.06572" lon="3.13803">
        <ele>809.2</ele>
        <time>2019-05-31T09:52:00Z</time>
      </trkpt>
      <trkpt lat="44.06576" lon="3.13798">
        <ele>809</ele>
        <time>2019-05-31T09:52:02Z</time>
      </trkpt>
      <trkpt lat="44.06579" lon="3.13795">
        <ele>809</ele>
        <time>2019-05-31T09:52:04Z</time>
      </trkpt>
      <trkpt lat="44.06582" lon="3.13792">
        <ele>808.9</ele>
        <time>2019-05-31T09:52:05Z</time>
      </trkpt>
      <trkpt lat="44.06585" lon="3.13788">
        <ele>808.7</ele>
        <time>2019-05-31T09:52:06Z</time>
      </trkpt>
      <trkpt lat="44.0659" lon="3.13781">
        <ele>808.4</ele>
        <time>2019-05-31T09:52:07Z</time>
      </trkpt>
      <trkpt lat="44.06593" lon="3.13778">
        <ele>808.3</ele>
        <time>2019-05-31T09:52:08Z</time>
      </trkpt>
      <trkpt lat="44.06596" lon="3.13773">
        <ele>808.2</ele>
        <time>2019-05-31T09:52:09Z</time>
      </trkpt>
      <trkpt lat="44.06598" lon="3.1377">
        <ele>808.1</ele>
        <time>2019-05-31T09:52:10Z</time>
      </trkpt>
      <trkpt lat="44.06601" lon="3.13768">
        <ele>808</ele>
        <time>2019-05-31T09:52:11Z</time>
      </trkpt>
      <trkpt lat="44.06603" lon="3.13772">
        <ele>807.8</ele>
        <time>2019-05-31T09:52:13Z</time>
      </trkpt>
      <trkpt lat="44.06605" lon="3.13769">
        <ele>807.7</ele>
        <time>2019-05-31T09:52:18Z</time>
      </trkpt>
      <trkpt lat="44.06609" lon="3.13764">
        <ele>807.5</ele>
        <time>2019-05-31T09:52:20Z</time>
      </trkpt>
      <trkpt lat="44.06613" lon="3.13762">
        <ele>807.4</ele>
        <time>2019-05-31T09:52:22Z</time>
      </trkpt>
      <trkpt lat="44.06616" lon="3.1376">
        <ele>807.3</ele>
        <time>2019-05-31T09:52:23Z</time>
      </trkpt>
      <trkpt lat="44.06619" lon="3.13758">
        <ele>807.2</ele>
        <time>2019-05-31T09:52:24Z</time>
      </trkpt>
      <trkpt lat="44.06622" lon="3.13757">
        <ele>807.1</ele>
        <time>2019-05-31T09:52:25Z</time>
      </trkpt>
      <trkpt lat="44.06624" lon="3.13755">
        <ele>807</ele>
        <time>2019-05-31T09:52:26Z</time>
      </trkpt>
      <trkpt lat="44.06628" lon="3.13752">
        <ele>806.8</ele>
        <time>2019-05-31T09:52:27Z</time>
      </trkpt>
      <trkpt lat="44.06632" lon="3.13749">
        <ele>806.7</ele>
        <time>2019-05-31T09:52:28Z</time>
      </trkpt>
      <trkpt lat="44.06635" lon="3.13745">
        <ele>806.4</ele>
        <time>2019-05-31T09:52:29Z</time>
      </trkpt>
      <trkpt lat="44.06639" lon="3.13741">
        <ele>806.1</ele>
        <time>2019-05-31T09:52:30Z</time>
      </trkpt>
      <trkpt lat="44.06643" lon="3.1374">
        <ele>805.8</ele>
        <time>2019-05-31T09:52:31Z</time>
      </trkpt>
      <trkpt lat="44.06647" lon="3.13738">
        <ele>805.5</ele>
        <time>2019-05-31T09:52:32Z</time>
      </trkpt>
      <trkpt lat="44.06652" lon="3.13734">
        <ele>805.2</ele>
        <time>2019-05-31T09:52:33Z</time>
      </trkpt>
      <trkpt lat="44.06656" lon="3.13731">
        <ele>805</ele>
        <time>2019-05-31T09:52:34Z</time>
      </trkpt>
      <trkpt lat="44.0666" lon="3.13728">
        <ele>804.8</ele>
        <time>2019-05-31T09:52:35Z</time>
      </trkpt>
      <trkpt lat="44.06667" lon="3.13725">
        <ele>804.6</ele>
        <time>2019-05-31T09:52:36Z</time>
      </trkpt>
      <trkpt lat="44.06674" lon="3.13723">
        <ele>804.3</ele>
        <time>2019-05-31T09:52:37Z</time>
      </trkpt>
      <trkpt lat="44.0668" lon="3.1372">
        <ele>804.2</ele>
        <time>2019-05-31T09:52:38Z</time>
      </trkpt>
      <trkpt lat="44.06687" lon="3.13715">
        <ele>804.1</ele>
        <time>2019-05-31T09:52:39Z</time>
      </trkpt>
      <trkpt lat="44.06691" lon="3.13711">
        <ele>804</ele>
        <time>2019-05-31T09:52:40Z</time>
      </trkpt>
      <trkpt lat="44.06696" lon="3.1371">
        <ele>803.8</ele>
        <time>2019-05-31T09:52:41Z</time>
      </trkpt>
      <trkpt lat="44.06701" lon="3.13708">
        <ele>803.7</ele>
        <time>2019-05-31T09:52:42Z</time>
      </trkpt>
      <trkpt lat="44.06705" lon="3.13705">
        <ele>803.6</ele>
        <time>2019-05-31T09:52:43Z</time>
      </trkpt>
      <trkpt lat="44.06709" lon="3.13701">
        <ele>803.5</ele>
        <time>2019-05-31T09:52:44Z</time>
      </trkpt>
      <trkpt lat="44.06713" lon="3.13701">
        <ele>803.4</ele>
        <time>2019-05-31T09:52:45Z</time>
      </trkpt>
      <trkpt lat="44.06716" lon="3.137">
        <ele>803.3</ele>
        <time>2019-05-31T09:52:47Z</time>
      </trkpt>
      <trkpt lat="44.06721" lon="3.13695">
        <ele>803.1</ele>
        <time>2019-05-31T09:52:49Z</time>
      </trkpt>
      <trkpt lat="44.06724" lon="3.13692">
        <ele>803.1</ele>
        <time>2019-05-31T09:52:50Z</time>
      </trkpt>
      <trkpt lat="44.06727" lon="3.1369">
        <ele>803</ele>
        <time>2019-05-31T09:52:51Z</time>
      </trkpt>
      <trkpt lat="44.0673" lon="3.13687">
        <ele>802.9</ele>
        <time>2019-05-31T09:52:52Z</time>
      </trkpt>
      <trkpt lat="44.06734" lon="3.13684">
        <ele>802.8</ele>
        <time>2019-05-31T09:52:53Z</time>
      </trkpt>
      <trkpt lat="44.06737" lon="3.13681">
        <ele>802.7</ele>
        <time>2019-05-31T09:52:54Z</time>
      </trkpt>
      <trkpt lat="44.06741" lon="3.13678">
        <ele>802.7</ele>
        <time>2019-05-31T09:52:55Z</time>
      </trkpt>
      <trkpt lat="44.06744" lon="3.13675">
        <ele>802.6</ele>
        <time>2019-05-31T09:52:56Z</time>
      </trkpt>
      <trkpt lat="44.06747" lon="3.13672">
        <ele>802.6</ele>
        <time>2019-05-31T09:52:57Z</time>
      </trkpt>
      <trkpt lat="44.0675" lon="3.13669">
        <ele>802.5</ele>
        <time>2019-05-31T09:52:58Z</time>
      </trkpt>
      <trkpt lat="44.06753" lon="3.13666">
        <ele>802.5</ele>
        <time>2019-05-31T09:52:59Z</time>
      </trkpt>
      <trkpt lat="44.06756" lon="3.13661">
        <ele>802.4</ele>
        <time>2019-05-31T09:53:01Z</time>
      </trkpt>
      <trkpt lat="44.06758" lon="3.13666">
        <ele>802.3</ele>
        <time>2019-05-31T09:53:16Z</time>
      </trkpt>
      <trkpt lat="44.06758" lon="3.13671">
        <ele>802.1</ele>
        <time>2019-05-31T09:53:19Z</time>
      </trkpt>
      <trkpt lat="44.06757" lon="3.13676">
        <ele>801.9</ele>
        <time>2019-05-31T09:53:22Z</time>
      </trkpt>
      <trkpt lat="44.06758" lon="3.13681">
        <ele>801.9</ele>
        <time>2019-05-31T09:53:24Z</time>
      </trkpt>
      <trkpt lat="44.06758" lon="3.13685">
        <ele>801.9</ele>
        <time>2019-05-31T09:53:27Z</time>
      </trkpt>
      <trkpt lat="44.06757" lon="3.13689">
        <ele>801.9</ele>
        <time>2019-05-31T09:53:29Z</time>
      </trkpt>
      <trkpt lat="44.06758" lon="3.13693">
        <ele>801.9</ele>
        <time>2019-05-31T09:53:32Z</time>
      </trkpt>
      <trkpt lat="44.06758" lon="3.13698">
        <ele>801.9</ele>
        <time>2019-05-31T09:53:34Z</time>
      </trkpt>
      <trkpt lat="44.06758" lon="3.13702">
        <ele>801.8</ele>
        <time>2019-05-31T09:53:36Z</time>
      </trkpt>
      <trkpt lat="44.06759" lon="3.13707">
        <ele>801.8</ele>
        <time>2019-05-31T09:53:38Z</time>
      </trkpt>
      <trkpt lat="44.06759" lon="3.13712">
        <ele>801.7</ele>
        <time>2019-05-31T09:53:40Z</time>
      </trkpt>
      <trkpt lat="44.06757" lon="3.13718">
        <ele>801.7</ele>
        <time>2019-05-31T09:53:42Z</time>
      </trkpt>
      <trkpt lat="44.06756" lon="3.13725">
        <ele>801.7</ele>
        <time>2019-05-31T09:53:44Z</time>
      </trkpt>
      <trkpt lat="44.06756" lon="3.13729">
        <ele>801.6</ele>
        <time>2019-05-31T09:53:45Z</time>
      </trkpt>
      <trkpt lat="44.06755" lon="3.13735">
        <ele>801.6</ele>
        <time>2019-05-31T09:53:47Z</time>
      </trkpt>
      <trkpt lat="44.06752" lon="3.1374">
        <ele>801.7</ele>
        <time>2019-05-31T09:53:49Z</time>
      </trkpt>
      <trkpt lat="44.06749" lon="3.13746">
        <ele>801.6</ele>
        <time>2019-05-31T09:53:51Z</time>
      </trkpt>
      <trkpt lat="44.06746" lon="3.13751">
        <ele>801.6</ele>
        <time>2019-05-31T09:53:53Z</time>
      </trkpt>
      <trkpt lat="44.06744" lon="3.13756">
        <ele>801.6</ele>
        <time>2019-05-31T09:53:55Z</time>
      </trkpt>
      <trkpt lat="44.06741" lon="3.1376">
        <ele>801.5</ele>
        <time>2019-05-31T09:53:57Z</time>
      </trkpt>
      <trkpt lat="44.06737" lon="3.13764">
        <ele>801.5</ele>
        <time>2019-05-31T09:53:59Z</time>
      </trkpt>
      <trkpt lat="44.06733" lon="3.13768">
        <ele>801.4</ele>
        <time>2019-05-31T09:54:01Z</time>
      </trkpt>
      <trkpt lat="44.0673" lon="3.13771">
        <ele>801.4</ele>
        <time>2019-05-31T09:54:03Z</time>
      </trkpt>
      <trkpt lat="44.06727" lon="3.13774">
        <ele>801.4</ele>
        <time>2019-05-31T09:54:05Z</time>
      </trkpt>
      <trkpt lat="44.06722" lon="3.13777">
        <ele>801.4</ele>
        <time>2019-05-31T09:54:07Z</time>
      </trkpt>
      <trkpt lat="44.06719" lon="3.13778">
        <ele>801.4</ele>
        <time>2019-05-31T09:54:08Z</time>
      </trkpt>
      <trkpt lat="44.06716" lon="3.13781">
        <ele>801.3</ele>
        <time>2019-05-31T09:54:09Z</time>
      </trkpt>
      <trkpt lat="44.06713" lon="3.13784">
        <ele>801.3</ele>
        <time>2019-05-31T09:54:10Z</time>
      </trkpt>
      <trkpt lat="44.06709" lon="3.13788">
        <ele>801.3</ele>
        <time>2019-05-31T09:54:11Z</time>
      </trkpt>
      <trkpt lat="44.06707" lon="3.13792">
        <ele>801.4</ele>
        <time>2019-05-31T09:54:12Z</time>
      </trkpt>
      <trkpt lat="44.06704" lon="3.13796">
        <ele>801.6</ele>
        <time>2019-05-31T09:54:13Z</time>
      </trkpt>
      <trkpt lat="44.06702" lon="3.13802">
        <ele>801.7</ele>
        <time>2019-05-31T09:54:14Z</time>
      </trkpt>
      <trkpt lat="44.06698" lon="3.13804">
        <ele>801.8</ele>
        <time>2019-05-31T09:54:15Z</time>
      </trkpt>
      <trkpt lat="44.06695" lon="3.13806">
        <ele>801.9</ele>
        <time>2019-05-31T09:54:16Z</time>
      </trkpt>
      <trkpt lat="44.06692" lon="3.1381">
        <ele>802</ele>
        <time>2019-05-31T09:54:17Z</time>
      </trkpt>
      <trkpt lat="44.06688" lon="3.13814">
        <ele>802</ele>
        <time>2019-05-31T09:54:18Z</time>
      </trkpt>
      <trkpt lat="44.06684" lon="3.13819">
        <ele>802</ele>
        <time>2019-05-31T09:54:19Z</time>
      </trkpt>
      <trkpt lat="44.06681" lon="3.13823">
        <ele>802</ele>
        <time>2019-05-31T09:54:20Z</time>
      </trkpt>
      <trkpt lat="44.06677" lon="3.13827">
        <ele>802</ele>
        <time>2019-05-31T09:54:21Z</time>
      </trkpt>
      <trkpt lat="44.06674" lon="3.13831">
        <ele>801.8</ele>
        <time>2019-05-31T09:54:22Z</time>
      </trkpt>
      <trkpt lat="44.06671" lon="3.13838">
        <ele>801.6</ele>
        <time>2019-05-31T09:54:23Z</time>
      </trkpt>
      <trkpt lat="44.06669" lon="3.13843">
        <ele>801.5</ele>
        <time>2019-05-31T09:54:24Z</time>
      </trkpt>
      <trkpt lat="44.06666" lon="3.13849">
        <ele>801.2</ele>
        <time>2019-05-31T09:54:25Z</time>
      </trkpt>
      <trkpt lat="44.06663" lon="3.13852">
        <ele>801.1</ele>
        <time>2019-05-31T09:54:26Z</time>
      </trkpt>
      <trkpt lat="44.06659" lon="3.13858">
        <ele>801</ele>
        <time>2019-05-31T09:54:27Z</time>
      </trkpt>
      <trkpt lat="44.06657" lon="3.13864">
        <ele>800.8</ele>
        <time>2019-05-31T09:54:28Z</time>
      </trkpt>
      <trkpt lat="44.06656" lon="3.13868">
        <ele>800.6</ele>
        <time>2019-05-31T09:54:29Z</time>
      </trkpt>
      <trkpt lat="44.06653" lon="3.13874">
        <ele>800.3</ele>
        <time>2019-05-31T09:54:30Z</time>
      </trkpt>
      <trkpt lat="44.06651" lon="3.13877">
        <ele>800.1</ele>
        <time>2019-05-31T09:54:31Z</time>
      </trkpt>
      <trkpt lat="44.06648" lon="3.13883">
        <ele>799.9</ele>
        <time>2019-05-31T09:54:33Z</time>
      </trkpt>
      <trkpt lat="44.06645" lon="3.13886">
        <ele>799.8</ele>
        <time>2019-05-31T09:54:34Z</time>
      </trkpt>
      <trkpt lat="44.06642" lon="3.13891">
        <ele>799.8</ele>
        <time>2019-05-31T09:54:35Z</time>
      </trkpt>
      <trkpt lat="44.06639" lon="3.13894">
        <ele>799.9</ele>
        <time>2019-05-31T09:54:36Z</time>
      </trkpt>
      <trkpt lat="44.06637" lon="3.13898">
        <ele>799.9</ele>
        <time>2019-05-31T09:54:37Z</time>
      </trkpt>
      <trkpt lat="44.06635" lon="3.13902">
        <ele>800.1</ele>
        <time>2019-05-31T09:54:38Z</time>
      </trkpt>
      <trkpt lat="44.06633" lon="3.13906">
        <ele>800.2</ele>
        <time>2019-05-31T09:54:39Z</time>
      </trkpt>
      <trkpt lat="44.0663" lon="3.13909">
        <ele>800.3</ele>
        <time>2019-05-31T09:54:40Z</time>
      </trkpt>
      <trkpt lat="44.06628" lon="3.13912">
        <ele>800.4</ele>
        <time>2019-05-31T09:54:41Z</time>
      </trkpt>
      <trkpt lat="44.06626" lon="3.13916">
        <ele>800.5</ele>
        <time>2019-05-31T09:54:42Z</time>
      </trkpt>
      <trkpt lat="44.06625" lon="3.13922">
        <ele>800.6</ele>
        <time>2019-05-31T09:54:44Z</time>
      </trkpt>
      <trkpt lat="44.06625" lon="3.13926">
        <ele>800.6</ele>
        <time>2019-05-31T09:54:46Z</time>
      </trkpt>
      <trkpt lat="44.06622" lon="3.13929">
        <ele>800.7</ele>
        <time>2019-05-31T09:54:50Z</time>
      </trkpt>
      <trkpt lat="44.0662" lon="3.13933">
        <ele>800.8</ele>
        <time>2019-05-31T09:55:26Z</time>
      </trkpt>
      <trkpt lat="44.06617" lon="3.13938">
        <ele>800.9</ele>
        <time>2019-05-31T09:55:28Z</time>
      </trkpt>
      <trkpt lat="44.06614" lon="3.13943">
        <ele>800.9</ele>
        <time>2019-05-31T09:55:30Z</time>
      </trkpt>
      <trkpt lat="44.06613" lon="3.13947">
        <ele>800.9</ele>
        <time>2019-05-31T09:55:31Z</time>
      </trkpt>
      <trkpt lat="44.06612" lon="3.1395">
        <ele>800.8</ele>
        <time>2019-05-31T09:55:32Z</time>
      </trkpt>
      <trkpt lat="44.06611" lon="3.13954">
        <ele>800.8</ele>
        <time>2019-05-31T09:55:33Z</time>
      </trkpt>
      <trkpt lat="44.06609" lon="3.13959">
        <ele>800.7</ele>
        <time>2019-05-31T09:55:34Z</time>
      </trkpt>
      <trkpt lat="44.06609" lon="3.13966">
        <ele>800.8</ele>
        <time>2019-05-31T09:55:36Z</time>
      </trkpt>
      <trkpt lat="44.06609" lon="3.13971">
        <ele>800.8</ele>
        <time>2019-05-31T09:55:37Z</time>
      </trkpt>
      <trkpt lat="44.06609" lon="3.13976">
        <ele>800.8</ele>
        <time>2019-05-31T09:55:38Z</time>
      </trkpt>
      <trkpt lat="44.06608" lon="3.1398">
        <ele>800.8</ele>
        <time>2019-05-31T09:55:39Z</time>
      </trkpt>
      <trkpt lat="44.06607" lon="3.13984">
        <ele>800.9</ele>
        <time>2019-05-31T09:55:40Z</time>
      </trkpt>
      <trkpt lat="44.06607" lon="3.13988">
        <ele>800.9</ele>
        <time>2019-05-31T09:55:41Z</time>
      </trkpt>
      <trkpt lat="44.06606" lon="3.13991">
        <ele>801</ele>
        <time>2019-05-31T09:55:42Z</time>
      </trkpt>
      <trkpt lat="44.06605" lon="3.13996">
        <ele>801.1</ele>
        <time>2019-05-31T09:55:43Z</time>
      </trkpt>
      <trkpt lat="44.06605" lon="3.14">
        <ele>801.2</ele>
        <time>2019-05-31T09:55:44Z</time>
      </trkpt>
      <trkpt lat="44.06604" lon="3.14004">
        <ele>801.3</ele>
        <time>2019-05-31T09:55:45Z</time>
      </trkpt>
      <trkpt lat="44.06604" lon="3.14009">
        <ele>801.4</ele>
        <time>2019-05-31T09:55:46Z</time>
      </trkpt>
      <trkpt lat="44.06603" lon="3.14013">
        <ele>801.5</ele>
        <time>2019-05-31T09:55:47Z</time>
      </trkpt>
      <trkpt lat="44.06601" lon="3.14016">
        <ele>801.6</ele>
        <time>2019-05-31T09:55:48Z</time>
      </trkpt>
      <trkpt lat="44.06599" lon="3.1402">
        <ele>801.6</ele>
        <time>2019-05-31T09:55:49Z</time>
      </trkpt>
      <trkpt lat="44.06598" lon="3.14024">
        <ele>801.6</ele>
        <time>2019-05-31T09:55:50Z</time>
      </trkpt>
      <trkpt lat="44.06596" lon="3.14028">
        <ele>801.6</ele>
        <time>2019-05-31T09:55:51Z</time>
      </trkpt>
      <trkpt lat="44.06594" lon="3.14031">
        <ele>801.5</ele>
        <time>2019-05-31T09:55:52Z</time>
      </trkpt>
      <trkpt lat="44.06592" lon="3.14035">
        <ele>801.4</ele>
        <time>2019-05-31T09:55:53Z</time>
      </trkpt>
      <trkpt lat="44.0659" lon="3.14039">
        <ele>801.2</ele>
        <time>2019-05-31T09:55:54Z</time>
      </trkpt>
      <trkpt lat="44.06587" lon="3.14042">
        <ele>801.1</ele>
        <time>2019-05-31T09:55:55Z</time>
      </trkpt>
      <trkpt lat="44.06584" lon="3.14046">
        <ele>800.9</ele>
        <time>2019-05-31T09:55:56Z</time>
      </trkpt>
      <trkpt lat="44.06581" lon="3.14048">
        <ele>800.8</ele>
        <time>2019-05-31T09:55:57Z</time>
      </trkpt>
      <trkpt lat="44.06578" lon="3.14052">
        <ele>800.8</ele>
        <time>2019-05-31T09:55:58Z</time>
      </trkpt>
      <trkpt lat="44.06575" lon="3.14055">
        <ele>800.9</ele>
        <time>2019-05-31T09:55:59Z</time>
      </trkpt>
      <trkpt lat="44.06572" lon="3.14058">
        <ele>801</ele>
        <time>2019-05-31T09:56:00Z</time>
      </trkpt>
      <trkpt lat="44.06568" lon="3.1406">
        <ele>801.1</ele>
        <time>2019-05-31T09:56:01Z</time>
      </trkpt>
      <trkpt lat="44.06564" lon="3.14063">
        <ele>801.1</ele>
        <time>2019-05-31T09:56:02Z</time>
      </trkpt>
      <trkpt lat="44.0656" lon="3.14065">
        <ele>801.2</ele>
        <time>2019-05-31T09:56:03Z</time>
      </trkpt>
      <trkpt lat="44.06557" lon="3.14067">
        <ele>801.2</ele>
        <time>2019-05-31T09:56:04Z</time>
      </trkpt>
      <trkpt lat="44.06553" lon="3.14068">
        <ele>801.2</ele>
        <time>2019-05-31T09:56:05Z</time>
      </trkpt>
      <trkpt lat="44.0655" lon="3.1407">
        <ele>801.3</ele>
        <time>2019-05-31T09:56:06Z</time>
      </trkpt>
      <trkpt lat="44.06546" lon="3.14072">
        <ele>801.4</ele>
        <time>2019-05-31T09:56:07Z</time>
      </trkpt>
      <trkpt lat="44.06542" lon="3.14074">
        <ele>801.6</ele>
        <time>2019-05-31T09:56:08Z</time>
      </trkpt>
      <trkpt lat="44.06539" lon="3.14076">
        <ele>801.8</ele>
        <time>2019-05-31T09:56:09Z</time>
      </trkpt>
      <trkpt lat="44.06535" lon="3.14077">
        <ele>802</ele>
        <time>2019-05-31T09:56:10Z</time>
      </trkpt>
      <trkpt lat="44.0653" lon="3.14078">
        <ele>802.2</ele>
        <time>2019-05-31T09:56:11Z</time>
      </trkpt>
      <trkpt lat="44.06526" lon="3.14078">
        <ele>802.4</ele>
        <time>2019-05-31T09:56:12Z</time>
      </trkpt>
      <trkpt lat="44.06522" lon="3.14077">
        <ele>802.7</ele>
        <time>2019-05-31T09:56:13Z</time>
      </trkpt>
      <trkpt lat="44.06518" lon="3.14077">
        <ele>803</ele>
        <time>2019-05-31T09:56:14Z</time>
      </trkpt>
      <trkpt lat="44.06514" lon="3.14077">
        <ele>803.4</ele>
        <time>2019-05-31T09:56:15Z</time>
      </trkpt>
      <trkpt lat="44.06511" lon="3.14078">
        <ele>803.7</ele>
        <time>2019-05-31T09:56:16Z</time>
      </trkpt>
      <trkpt lat="44.06506" lon="3.1408">
        <ele>804.1</ele>
        <time>2019-05-31T09:56:17Z</time>
      </trkpt>
      <trkpt lat="44.06502" lon="3.14081">
        <ele>804.6</ele>
        <time>2019-05-31T09:56:18Z</time>
      </trkpt>
      <trkpt lat="44.06497" lon="3.14083">
        <ele>805.2</ele>
        <time>2019-05-31T09:56:19Z</time>
      </trkpt>
      <trkpt lat="44.06493" lon="3.14087">
        <ele>805.4</ele>
        <time>2019-05-31T09:56:20Z</time>
      </trkpt>
      <trkpt lat="44.0649" lon="3.1409">
        <ele>805.6</ele>
        <time>2019-05-31T09:56:21Z</time>
      </trkpt>
      <trkpt lat="44.06486" lon="3.14093">
        <ele>805.9</ele>
        <time>2019-05-31T09:56:22Z</time>
      </trkpt>
      <trkpt lat="44.06483" lon="3.14095">
        <ele>806.2</ele>
        <time>2019-05-31T09:56:23Z</time>
      </trkpt>
      <trkpt lat="44.06479" lon="3.14097">
        <ele>806.2</ele>
        <time>2019-05-31T09:56:24Z</time>
      </trkpt>
      <trkpt lat="44.06476" lon="3.14095">
        <ele>806.3</ele>
        <time>2019-05-31T09:56:25Z</time>
      </trkpt>
      <trkpt lat="44.06472" lon="3.14094">
        <ele>806.5</ele>
        <time>2019-05-31T09:56:26Z</time>
      </trkpt>
      <trkpt lat="44.06469" lon="3.14094">
        <ele>806.6</ele>
        <time>2019-05-31T09:56:27Z</time>
      </trkpt>
      <trkpt lat="44.06465" lon="3.14096">
        <ele>806.9</ele>
        <time>2019-05-31T09:56:28Z</time>
      </trkpt>
      <trkpt lat="44.06461" lon="3.14098">
        <ele>807.2</ele>
        <time>2019-05-31T09:56:29Z</time>
      </trkpt>
      <trkpt lat="44.06457" lon="3.14102">
        <ele>807.7</ele>
        <time>2019-05-31T09:56:31Z</time>
      </trkpt>
      <trkpt lat="44.06454" lon="3.14105">
        <ele>807.9</ele>
        <time>2019-05-31T09:56:32Z</time>
      </trkpt>
      <trkpt lat="44.06451" lon="3.14109">
        <ele>808.2</ele>
        <time>2019-05-31T09:56:34Z</time>
      </trkpt>
      <trkpt lat="44.0645" lon="3.14115">
        <ele>808.4</ele>
        <time>2019-05-31T09:56:36Z</time>
      </trkpt>
      <trkpt lat="44.06448" lon="3.14121">
        <ele>808.4</ele>
        <time>2019-05-31T09:56:38Z</time>
      </trkpt>
      <trkpt lat="44.06444" lon="3.14125">
        <ele>808.2</ele>
        <time>2019-05-31T09:56:40Z</time>
      </trkpt>
      <trkpt lat="44.06441" lon="3.14127">
        <ele>808.3</ele>
        <time>2019-05-31T09:56:41Z</time>
      </trkpt>
      <trkpt lat="44.06438" lon="3.14129">
        <ele>808.4</ele>
        <time>2019-05-31T09:56:42Z</time>
      </trkpt>
      <trkpt lat="44.06434" lon="3.14134">
        <ele>808.6</ele>
        <time>2019-05-31T09:56:44Z</time>
      </trkpt>
      <trkpt lat="44.06432" lon="3.14137">
        <ele>808.7</ele>
        <time>2019-05-31T09:56:45Z</time>
      </trkpt>
      <trkpt lat="44.06429" lon="3.1414">
        <ele>808.8</ele>
        <time>2019-05-31T09:56:46Z</time>
      </trkpt>
      <trkpt lat="44.06427" lon="3.14141">
        <ele>809</ele>
        <time>2019-05-31T09:56:47Z</time>
      </trkpt>
      <trkpt lat="44.06424" lon="3.14143">
        <ele>809.2</ele>
        <time>2019-05-31T09:56:48Z</time>
      </trkpt>
      <trkpt lat="44.06421" lon="3.14143">
        <ele>809.3</ele>
        <time>2019-05-31T09:56:49Z</time>
      </trkpt>
      <trkpt lat="44.06417" lon="3.14145">
        <ele>809.4</ele>
        <time>2019-05-31T09:56:51Z</time>
      </trkpt>
      <trkpt lat="44.06412" lon="3.14147">
        <ele>809.6</ele>
        <time>2019-05-31T09:56:53Z</time>
      </trkpt>
      <trkpt lat="44.06409" lon="3.14149">
        <ele>809.7</ele>
        <time>2019-05-31T09:56:54Z</time>
      </trkpt>
      <trkpt lat="44.06406" lon="3.1415">
        <ele>809.8</ele>
        <time>2019-05-31T09:56:55Z</time>
      </trkpt>
      <trkpt lat="44.06402" lon="3.14155">
        <ele>809.9</ele>
        <time>2019-05-31T09:56:57Z</time>
      </trkpt>
      <trkpt lat="44.06399" lon="3.1416">
        <ele>809.9</ele>
        <time>2019-05-31T09:56:58Z</time>
      </trkpt>
      <trkpt lat="44.06397" lon="3.14162">
        <ele>809.8</ele>
        <time>2019-05-31T09:56:59Z</time>
      </trkpt>
      <trkpt lat="44.06394" lon="3.14163">
        <ele>809.8</ele>
        <time>2019-05-31T09:57:01Z</time>
      </trkpt>
      <trkpt lat="44.0639" lon="3.14164">
        <ele>809.8</ele>
        <time>2019-05-31T09:57:03Z</time>
      </trkpt>
      <trkpt lat="44.06387" lon="3.14167">
        <ele>809.8</ele>
        <time>2019-05-31T09:57:05Z</time>
      </trkpt>
      <trkpt lat="44.06384" lon="3.14173">
        <ele>809.8</ele>
        <time>2019-05-31T09:57:07Z</time>
      </trkpt>
      <trkpt lat="44.06381" lon="3.14179">
        <ele>809.8</ele>
        <time>2019-05-31T09:57:09Z</time>
      </trkpt>
      <trkpt lat="44.06379" lon="3.14183">
        <ele>809.8</ele>
        <time>2019-05-31T09:57:10Z</time>
      </trkpt>
      <trkpt lat="44.06377" lon="3.14185">
        <ele>809.8</ele>
        <time>2019-05-31T09:57:11Z</time>
      </trkpt>
      <trkpt lat="44.06375" lon="3.14189">
        <ele>809.8</ele>
        <time>2019-05-31T09:57:12Z</time>
      </trkpt>
      <trkpt lat="44.06373" lon="3.14192">
        <ele>809.8</ele>
        <time>2019-05-31T09:57:13Z</time>
      </trkpt>
      <trkpt lat="44.06371" lon="3.14196">
        <ele>809.8</ele>
        <time>2019-05-31T09:57:14Z</time>
      </trkpt>
      <trkpt lat="44.06369" lon="3.14199">
        <ele>809.8</ele>
        <time>2019-05-31T09:57:15Z</time>
      </trkpt>
      <trkpt lat="44.06367" lon="3.14203">
        <ele>809.8</ele>
        <time>2019-05-31T09:57:16Z</time>
      </trkpt>
      <trkpt lat="44.06364" lon="3.14207">
        <ele>809.7</ele>
        <time>2019-05-31T09:57:17Z</time>
      </trkpt>
      <trkpt lat="44.06361" lon="3.1421">
        <ele>809.7</ele>
        <time>2019-05-31T09:57:18Z</time>
      </trkpt>
      <trkpt lat="44.06358" lon="3.14213">
        <ele>809.6</ele>
        <time>2019-05-31T09:57:19Z</time>
      </trkpt>
      <trkpt lat="44.06355" lon="3.14215">
        <ele>809.5</ele>
        <time>2019-05-31T09:57:20Z</time>
      </trkpt>
      <trkpt lat="44.06351" lon="3.14217">
        <ele>809.4</ele>
        <time>2019-05-31T09:57:21Z</time>
      </trkpt>
      <trkpt lat="44.06344" lon="3.14219">
        <ele>809.1</ele>
        <time>2019-05-31T09:57:22Z</time>
      </trkpt>
      <trkpt lat="44.06338" lon="3.14224">
        <ele>808.9</ele>
        <time>2019-05-31T09:57:23Z</time>
      </trkpt>
      <trkpt lat="44.06334" lon="3.1423">
        <ele>808.8</ele>
        <time>2019-05-31T09:57:24Z</time>
      </trkpt>
      <trkpt lat="44.0633" lon="3.14236">
        <ele>808.8</ele>
        <time>2019-05-31T09:57:25Z</time>
      </trkpt>
      <trkpt lat="44.06326" lon="3.1424">
        <ele>808.7</ele>
        <time>2019-05-31T09:57:26Z</time>
      </trkpt>
      <trkpt lat="44.06323" lon="3.14247">
        <ele>808.6</ele>
        <time>2019-05-31T09:57:27Z</time>
      </trkpt>
      <trkpt lat="44.06317" lon="3.14252">
        <ele>808.5</ele>
        <time>2019-05-31T09:57:28Z</time>
      </trkpt>
      <trkpt lat="44.06312" lon="3.14255">
        <ele>808.4</ele>
        <time>2019-05-31T09:57:29Z</time>
      </trkpt>
      <trkpt lat="44.06307" lon="3.14259">
        <ele>808.2</ele>
        <time>2019-05-31T09:57:30Z</time>
      </trkpt>
      <trkpt lat="44.06301" lon="3.14261">
        <ele>808</ele>
        <time>2019-05-31T09:57:31Z</time>
      </trkpt>
      <trkpt lat="44.06295" lon="3.14266">
        <ele>807.9</ele>
        <time>2019-05-31T09:57:32Z</time>
      </trkpt>
      <trkpt lat="44.06289" lon="3.1427">
        <ele>807.8</ele>
        <time>2019-05-31T09:57:33Z</time>
      </trkpt>
      <trkpt lat="44.06283" lon="3.14276">
        <ele>807.6</ele>
        <time>2019-05-31T09:57:34Z</time>
      </trkpt>
      <trkpt lat="44.06277" lon="3.14278">
        <ele>807.5</ele>
        <time>2019-05-31T09:57:35Z</time>
      </trkpt>
      <trkpt lat="44.06271" lon="3.14282">
        <ele>807.5</ele>
        <time>2019-05-31T09:57:36Z</time>
      </trkpt>
      <trkpt lat="44.06265" lon="3.14286">
        <ele>807.4</ele>
        <time>2019-05-31T09:57:37Z</time>
      </trkpt>
      <trkpt lat="44.0626" lon="3.14292">
        <ele>807.4</ele>
        <time>2019-05-31T09:57:38Z</time>
      </trkpt>
      <trkpt lat="44.06255" lon="3.14299">
        <ele>807.4</ele>
        <time>2019-05-31T09:57:39Z</time>
      </trkpt>
      <trkpt lat="44.06251" lon="3.14306">
        <ele>807.3</ele>
        <time>2019-05-31T09:57:40Z</time>
      </trkpt>
      <trkpt lat="44.06248" lon="3.1431">
        <ele>807.3</ele>
        <time>2019-05-31T09:57:41Z</time>
      </trkpt>
      <trkpt lat="44.06245" lon="3.14313">
        <ele>807.3</ele>
        <time>2019-05-31T09:57:42Z</time>
      </trkpt>
      <trkpt lat="44.06241" lon="3.14316">
        <ele>807.2</ele>
        <time>2019-05-31T09:57:43Z</time>
      </trkpt>
      <trkpt lat="44.06237" lon="3.1432">
        <ele>807.2</ele>
        <time>2019-05-31T09:57:44Z</time>
      </trkpt>
      <trkpt lat="44.06235" lon="3.14325">
        <ele>807.1</ele>
        <time>2019-05-31T09:57:45Z</time>
      </trkpt>
      <trkpt lat="44.06232" lon="3.14328">
        <ele>807.1</ele>
        <time>2019-05-31T09:57:46Z</time>
      </trkpt>
      <trkpt lat="44.06229" lon="3.1433">
        <ele>807</ele>
        <time>2019-05-31T09:57:47Z</time>
      </trkpt>
      <trkpt lat="44.06225" lon="3.14333">
        <ele>807</ele>
        <time>2019-05-31T09:57:48Z</time>
      </trkpt>
      <trkpt lat="44.0622" lon="3.14338">
        <ele>806.9</ele>
        <time>2019-05-31T09:57:49Z</time>
      </trkpt>
      <trkpt lat="44.06217" lon="3.14342">
        <ele>806.8</ele>
        <time>2019-05-31T09:57:50Z</time>
      </trkpt>
      <trkpt lat="44.06215" lon="3.14345">
        <ele>806.8</ele>
        <time>2019-05-31T09:57:51Z</time>
      </trkpt>
      <trkpt lat="44.0621" lon="3.14347">
        <ele>806.6</ele>
        <time>2019-05-31T09:57:52Z</time>
      </trkpt>
      <trkpt lat="44.06206" lon="3.14348">
        <ele>806.5</ele>
        <time>2019-05-31T09:57:53Z</time>
      </trkpt>
      <trkpt lat="44.06201" lon="3.1435">
        <ele>806.4</ele>
        <time>2019-05-31T09:57:54Z</time>
      </trkpt>
      <trkpt lat="44.06197" lon="3.14354">
        <ele>806.3</ele>
        <time>2019-05-31T09:57:55Z</time>
      </trkpt>
      <trkpt lat="44.06194" lon="3.14358">
        <ele>806.2</ele>
        <time>2019-05-31T09:57:56Z</time>
      </trkpt>
      <trkpt lat="44.06191" lon="3.14363">
        <ele>806.1</ele>
        <time>2019-05-31T09:57:57Z</time>
      </trkpt>
      <trkpt lat="44.06187" lon="3.14365">
        <ele>806</ele>
        <time>2019-05-31T09:57:58Z</time>
      </trkpt>
      <trkpt lat="44.06183" lon="3.14368">
        <ele>805.8</ele>
        <time>2019-05-31T09:57:59Z</time>
      </trkpt>
      <trkpt lat="44.06178" lon="3.14373">
        <ele>805.6</ele>
        <time>2019-05-31T09:58:00Z</time>
      </trkpt>
      <trkpt lat="44.06172" lon="3.14377">
        <ele>805.6</ele>
        <time>2019-05-31T09:58:01Z</time>
      </trkpt>
      <trkpt lat="44.06169" lon="3.14382">
        <ele>805.6</ele>
        <time>2019-05-31T09:58:02Z</time>
      </trkpt>
      <trkpt lat="44.06165" lon="3.14388">
        <ele>805.5</ele>
        <time>2019-05-31T09:58:03Z</time>
      </trkpt>
      <trkpt lat="44.06162" lon="3.14391">
        <ele>805.5</ele>
        <time>2019-05-31T09:58:04Z</time>
      </trkpt>
      <trkpt lat="44.06159" lon="3.14396">
        <ele>805.5</ele>
        <time>2019-05-31T09:58:05Z</time>
      </trkpt>
      <trkpt lat="44.06156" lon="3.14399">
        <ele>805.5</ele>
        <time>2019-05-31T09:58:06Z</time>
      </trkpt>
      <trkpt lat="44.06153" lon="3.14403">
        <ele>805.4</ele>
        <time>2019-05-31T09:58:07Z</time>
      </trkpt>
      <trkpt lat="44.06149" lon="3.14407">
        <ele>805.4</ele>
        <time>2019-05-31T09:58:08Z</time>
      </trkpt>
      <trkpt lat="44.06145" lon="3.14408">
        <ele>805.4</ele>
        <time>2019-05-31T09:58:09Z</time>
      </trkpt>
      <trkpt lat="44.06141" lon="3.14411">
        <ele>805.4</ele>
        <time>2019-05-31T09:58:10Z</time>
      </trkpt>
      <trkpt lat="44.06136" lon="3.14415">
        <ele>805.4</ele>
        <time>2019-05-31T09:58:11Z</time>
      </trkpt>
      <trkpt lat="44.06132" lon="3.14421">
        <ele>805.3</ele>
        <time>2019-05-31T09:58:12Z</time>
      </trkpt>
      <trkpt lat="44.06128" lon="3.14426">
        <ele>805.3</ele>
        <time>2019-05-31T09:58:13Z</time>
      </trkpt>
      <trkpt lat="44.06123" lon="3.14429">
        <ele>805.3</ele>
        <time>2019-05-31T09:58:14Z</time>
      </trkpt>
      <trkpt lat="44.06119" lon="3.14434">
        <ele>805.2</ele>
        <time>2019-05-31T09:58:15Z</time>
      </trkpt>
      <trkpt lat="44.06114" lon="3.1444">
        <ele>805.1</ele>
        <time>2019-05-31T09:58:16Z</time>
      </trkpt>
      <trkpt lat="44.06111" lon="3.14445">
        <ele>805</ele>
        <time>2019-05-31T09:58:17Z</time>
      </trkpt>
      <trkpt lat="44.06108" lon="3.14452">
        <ele>804.8</ele>
        <time>2019-05-31T09:58:18Z</time>
      </trkpt>
      <trkpt lat="44.06103" lon="3.14458">
        <ele>804.7</ele>
        <time>2019-05-31T09:58:19Z</time>
      </trkpt>
      <trkpt lat="44.06098" lon="3.14462">
        <ele>804.5</ele>
        <time>2019-05-31T09:58:20Z</time>
      </trkpt>
      <trkpt lat="44.06092" lon="3.14463">
        <ele>804.3</ele>
        <time>2019-05-31T09:58:21Z</time>
      </trkpt>
      <trkpt lat="44.06087" lon="3.14466">
        <ele>804.1</ele>
        <time>2019-05-31T09:58:22Z</time>
      </trkpt>
      <trkpt lat="44.06083" lon="3.14472">
        <ele>804</ele>
        <time>2019-05-31T09:58:23Z</time>
      </trkpt>
      <trkpt lat="44.06079" lon="3.14477">
        <ele>803.9</ele>
        <time>2019-05-31T09:58:24Z</time>
      </trkpt>
      <trkpt lat="44.06076" lon="3.14485">
        <ele>803.9</ele>
        <time>2019-05-31T09:58:25Z</time>
      </trkpt>
      <trkpt lat="44.06076" lon="3.14491">
        <ele>803.8</ele>
        <time>2019-05-31T09:58:26Z</time>
      </trkpt>
      <trkpt lat="44.06074" lon="3.14495">
        <ele>803.7</ele>
        <time>2019-05-31T09:58:27Z</time>
      </trkpt>
      <trkpt lat="44.0607" lon="3.14499">
        <ele>803.7</ele>
        <time>2019-05-31T09:58:29Z</time>
      </trkpt>
      <trkpt lat="44.06068" lon="3.14504">
        <ele>803.6</ele>
        <time>2019-05-31T09:58:30Z</time>
      </trkpt>
      <trkpt lat="44.06065" lon="3.14509">
        <ele>803.5</ele>
        <time>2019-05-31T09:58:31Z</time>
      </trkpt>
      <trkpt lat="44.06061" lon="3.14512">
        <ele>803.4</ele>
        <time>2019-05-31T09:58:32Z</time>
      </trkpt>
      <trkpt lat="44.06057" lon="3.14519">
        <ele>803.3</ele>
        <time>2019-05-31T09:58:33Z</time>
      </trkpt>
      <trkpt lat="44.06053" lon="3.14525">
        <ele>803.1</ele>
        <time>2019-05-31T09:58:34Z</time>
      </trkpt>
      <trkpt lat="44.0605" lon="3.14529">
        <ele>803</ele>
        <time>2019-05-31T09:58:35Z</time>
      </trkpt>
      <trkpt lat="44.06047" lon="3.14532">
        <ele>803</ele>
        <time>2019-05-31T09:58:36Z</time>
      </trkpt>
      <trkpt lat="44.06045" lon="3.14536">
        <ele>803</ele>
        <time>2019-05-31T09:58:37Z</time>
      </trkpt>
      <trkpt lat="44.06042" lon="3.14541">
        <ele>802.8</ele>
        <time>2019-05-31T09:58:38Z</time>
      </trkpt>
      <trkpt lat="44.0604" lon="3.14546">
        <ele>802.7</ele>
        <time>2019-05-31T09:58:39Z</time>
      </trkpt>
      <trkpt lat="44.06039" lon="3.14552">
        <ele>802.6</ele>
        <time>2019-05-31T09:58:40Z</time>
      </trkpt>
      <trkpt lat="44.06037" lon="3.14555">
        <ele>802.5</ele>
        <time>2019-05-31T09:58:41Z</time>
      </trkpt>
      <trkpt lat="44.06033" lon="3.14559">
        <ele>802.2</ele>
        <time>2019-05-31T09:58:42Z</time>
      </trkpt>
      <trkpt lat="44.0603" lon="3.14562">
        <ele>802</ele>
        <time>2019-05-31T09:58:43Z</time>
      </trkpt>
      <trkpt lat="44.06028" lon="3.14565">
        <ele>802</ele>
        <time>2019-05-31T09:58:44Z</time>
      </trkpt>
      <trkpt lat="44.06025" lon="3.14569">
        <ele>801.9</ele>
        <time>2019-05-31T09:58:45Z</time>
      </trkpt>
      <trkpt lat="44.06022" lon="3.14573">
        <ele>801.9</ele>
        <time>2019-05-31T09:58:46Z</time>
      </trkpt>
      <trkpt lat="44.06019" lon="3.14576">
        <ele>801.8</ele>
        <time>2019-05-31T09:58:47Z</time>
      </trkpt>
      <trkpt lat="44.06016" lon="3.14579">
        <ele>801.8</ele>
        <time>2019-05-31T09:58:48Z</time>
      </trkpt>
      <trkpt lat="44.06013" lon="3.14582">
        <ele>801.8</ele>
        <time>2019-05-31T09:58:49Z</time>
      </trkpt>
      <trkpt lat="44.06009" lon="3.14585">
        <ele>801.8</ele>
        <time>2019-05-31T09:58:50Z</time>
      </trkpt>
      <trkpt lat="44.06006" lon="3.14587">
        <ele>801.7</ele>
        <time>2019-05-31T09:58:51Z</time>
      </trkpt>
      <trkpt lat="44.06003" lon="3.1459">
        <ele>801.7</ele>
        <time>2019-05-31T09:58:52Z</time>
      </trkpt>
      <trkpt lat="44.06" lon="3.14593">
        <ele>801.8</ele>
        <time>2019-05-31T09:58:53Z</time>
      </trkpt>
      <trkpt lat="44.05997" lon="3.14595">
        <ele>801.8</ele>
        <time>2019-05-31T09:58:54Z</time>
      </trkpt>
      <trkpt lat="44.05994" lon="3.14598">
        <ele>801.8</ele>
        <time>2019-05-31T09:58:55Z</time>
      </trkpt>
      <trkpt lat="44.05991" lon="3.14601">
        <ele>801.8</ele>
        <time>2019-05-31T09:58:56Z</time>
      </trkpt>
      <trkpt lat="44.05988" lon="3.14604">
        <ele>801.9</ele>
        <time>2019-05-31T09:58:57Z</time>
      </trkpt>
      <trkpt lat="44.05984" lon="3.14606">
        <ele>801.9</ele>
        <time>2019-05-31T09:58:58Z</time>
      </trkpt>
      <trkpt lat="44.05981" lon="3.14609">
        <ele>801.9</ele>
        <time>2019-05-31T09:58:59Z</time>
      </trkpt>
      <trkpt lat="44.05978" lon="3.14611">
        <ele>802</ele>
        <time>2019-05-31T09:59:00Z</time>
      </trkpt>
      <trkpt lat="44.05974" lon="3.14614">
        <ele>802.1</ele>
        <time>2019-05-31T09:59:01Z</time>
      </trkpt>
      <trkpt lat="44.05971" lon="3.14617">
        <ele>802.1</ele>
        <time>2019-05-31T09:59:02Z</time>
      </trkpt>
      <trkpt lat="44.05967" lon="3.1462">
        <ele>802.1</ele>
        <time>2019-05-31T09:59:03Z</time>
      </trkpt>
      <trkpt lat="44.05964" lon="3.14623">
        <ele>802.2</ele>
        <time>2019-05-31T09:59:04Z</time>
      </trkpt>
      <trkpt lat="44.05961" lon="3.14626">
        <ele>802.2</ele>
        <time>2019-05-31T09:59:05Z</time>
      </trkpt>
      <trkpt lat="44.05957" lon="3.14627">
        <ele>802.4</ele>
        <time>2019-05-31T09:59:06Z</time>
      </trkpt>
      <trkpt lat="44.05953" lon="3.14627">
        <ele>802.5</ele>
        <time>2019-05-31T09:59:07Z</time>
      </trkpt>
      <trkpt lat="44.0595" lon="3.14627">
        <ele>802.6</ele>
        <time>2019-05-31T09:59:08Z</time>
      </trkpt>
      <trkpt lat="44.05946" lon="3.14627">
        <ele>802.6</ele>
        <time>2019-05-31T09:59:09Z</time>
      </trkpt>
      <trkpt lat="44.05942" lon="3.14628">
        <ele>802.7</ele>
        <time>2019-05-31T09:59:10Z</time>
      </trkpt>
      <trkpt lat="44.05939" lon="3.14629">
        <ele>802.8</ele>
        <time>2019-05-31T09:59:11Z</time>
      </trkpt>
      <trkpt lat="44.05935" lon="3.14631">
        <ele>802.9</ele>
        <time>2019-05-31T09:59:12Z</time>
      </trkpt>
      <trkpt lat="44.05933" lon="3.14634">
        <ele>803.1</ele>
        <time>2019-05-31T09:59:13Z</time>
      </trkpt>
      <trkpt lat="44.0593" lon="3.14637">
        <ele>803.3</ele>
        <time>2019-05-31T09:59:14Z</time>
      </trkpt>
      <trkpt lat="44.05927" lon="3.1464">
        <ele>803.4</ele>
        <time>2019-05-31T09:59:15Z</time>
      </trkpt>
      <trkpt lat="44.05924" lon="3.14643">
        <ele>803.6</ele>
        <time>2019-05-31T09:59:16Z</time>
      </trkpt>
      <trkpt lat="44.05921" lon="3.14646">
        <ele>803.8</ele>
        <time>2019-05-31T09:59:17Z</time>
      </trkpt>
      <trkpt lat="44.05919" lon="3.1465">
        <ele>804</ele>
        <time>2019-05-31T09:59:18Z</time>
      </trkpt>
      <trkpt lat="44.05918" lon="3.14654">
        <ele>804.3</ele>
        <time>2019-05-31T09:59:19Z</time>
      </trkpt>
      <trkpt lat="44.05916" lon="3.14659">
        <ele>804.4</ele>
        <time>2019-05-31T09:59:20Z</time>
      </trkpt>
      <trkpt lat="44.05915" lon="3.14664">
        <ele>804.6</ele>
        <time>2019-05-31T09:59:21Z</time>
      </trkpt>
      <trkpt lat="44.05914" lon="3.14668">
        <ele>804.8</ele>
        <time>2019-05-31T09:59:22Z</time>
      </trkpt>
      <trkpt lat="44.05913" lon="3.14673">
        <ele>804.9</ele>
        <time>2019-05-31T09:59:23Z</time>
      </trkpt>
      <trkpt lat="44.05911" lon="3.14678">
        <ele>805.1</ele>
        <time>2019-05-31T09:59:24Z</time>
      </trkpt>
      <trkpt lat="44.05909" lon="3.14682">
        <ele>805.3</ele>
        <time>2019-05-31T09:59:25Z</time>
      </trkpt>
      <trkpt lat="44.05907" lon="3.14688">
        <ele>805.4</ele>
        <time>2019-05-31T09:59:26Z</time>
      </trkpt>
      <trkpt lat="44.05906" lon="3.14694">
        <ele>805.6</ele>
        <time>2019-05-31T09:59:27Z</time>
      </trkpt>
      <trkpt lat="44.05905" lon="3.14699">
        <ele>805.8</ele>
        <time>2019-05-31T09:59:28Z</time>
      </trkpt>
      <trkpt lat="44.05903" lon="3.14707">
        <ele>806.1</ele>
        <time>2019-05-31T09:59:29Z</time>
      </trkpt>
      <trkpt lat="44.05902" lon="3.14713">
        <ele>806.2</ele>
        <time>2019-05-31T09:59:30Z</time>
      </trkpt>
      <trkpt lat="44.059" lon="3.14719">
        <ele>806.4</ele>
        <time>2019-05-31T09:59:31Z</time>
      </trkpt>
      <trkpt lat="44.05899" lon="3.14725">
        <ele>806.6</ele>
        <time>2019-05-31T09:59:32Z</time>
      </trkpt>
      <trkpt lat="44.05898" lon="3.14731">
        <ele>806.8</ele>
        <time>2019-05-31T09:59:33Z</time>
      </trkpt>
      <trkpt lat="44.05898" lon="3.14737">
        <ele>807</ele>
        <time>2019-05-31T09:59:34Z</time>
      </trkpt>
      <trkpt lat="44.05897" lon="3.14743">
        <ele>807.3</ele>
        <time>2019-05-31T09:59:35Z</time>
      </trkpt>
      <trkpt lat="44.05896" lon="3.14748">
        <ele>807.4</ele>
        <time>2019-05-31T09:59:36Z</time>
      </trkpt>
      <trkpt lat="44.05895" lon="3.14755">
        <ele>807.7</ele>
        <time>2019-05-31T09:59:37Z</time>
      </trkpt>
      <trkpt lat="44.05894" lon="3.1476">
        <ele>807.8</ele>
        <time>2019-05-31T09:59:38Z</time>
      </trkpt>
      <trkpt lat="44.05894" lon="3.14767">
        <ele>807.8</ele>
        <time>2019-05-31T09:59:39Z</time>
      </trkpt>
      <trkpt lat="44.05894" lon="3.14775">
        <ele>807.9</ele>
        <time>2019-05-31T09:59:40Z</time>
      </trkpt>
      <trkpt lat="44.05893" lon="3.1478">
        <ele>807.9</ele>
        <time>2019-05-31T09:59:41Z</time>
      </trkpt>
      <trkpt lat="44.0589" lon="3.14783">
        <ele>808</ele>
        <time>2019-05-31T09:59:42Z</time>
      </trkpt>
      <trkpt lat="44.05888" lon="3.14787">
        <ele>808.2</ele>
        <time>2019-05-31T09:59:43Z</time>
      </trkpt>
      <trkpt lat="44.05884" lon="3.14791">
        <ele>808.4</ele>
        <time>2019-05-31T09:59:45Z</time>
      </trkpt>
      <trkpt lat="44.0588" lon="3.14794">
        <ele>808.5</ele>
        <time>2019-05-31T09:59:47Z</time>
      </trkpt>
      <trkpt lat="44.05878" lon="3.14796">
        <ele>808.6</ele>
        <time>2019-05-31T10:00:04Z</time>
      </trkpt>
      <trkpt lat="44.05874" lon="3.148">
        <ele>808.7</ele>
        <time>2019-05-31T10:00:06Z</time>
      </trkpt>
      <trkpt lat="44.05871" lon="3.14803">
        <ele>808.8</ele>
        <time>2019-05-31T10:00:07Z</time>
      </trkpt>
      <trkpt lat="44.05869" lon="3.14805">
        <ele>808.9</ele>
        <time>2019-05-31T10:00:08Z</time>
      </trkpt>
      <trkpt lat="44.05866" lon="3.14808">
        <ele>808.9</ele>
        <time>2019-05-31T10:00:09Z</time>
      </trkpt>
      <trkpt lat="44.05863" lon="3.1481">
        <ele>809</ele>
        <time>2019-05-31T10:00:10Z</time>
      </trkpt>
      <trkpt lat="44.0586" lon="3.14812">
        <ele>809.1</ele>
        <time>2019-05-31T10:00:11Z</time>
      </trkpt>
      <trkpt lat="44.05857" lon="3.14814">
        <ele>809.1</ele>
        <time>2019-05-31T10:00:12Z</time>
      </trkpt>
      <trkpt lat="44.05855" lon="3.14816">
        <ele>809.3</ele>
        <time>2019-05-31T10:00:13Z</time>
      </trkpt>
      <trkpt lat="44.05851" lon="3.14819">
        <ele>809.4</ele>
        <time>2019-05-31T10:00:14Z</time>
      </trkpt>
      <trkpt lat="44.05848" lon="3.14822">
        <ele>809.5</ele>
        <time>2019-05-31T10:00:15Z</time>
      </trkpt>
      <trkpt lat="44.05843" lon="3.14824">
        <ele>809.6</ele>
        <time>2019-05-31T10:00:16Z</time>
      </trkpt>
      <trkpt lat="44.05839" lon="3.14826">
        <ele>809.7</ele>
        <time>2019-05-31T10:00:17Z</time>
      </trkpt>
      <trkpt lat="44.05835" lon="3.1483">
        <ele>809.9</ele>
        <time>2019-05-31T10:00:18Z</time>
      </trkpt>
      <trkpt lat="44.05832" lon="3.14833">
        <ele>809.9</ele>
        <time>2019-05-31T10:00:19Z</time>
      </trkpt>
      <trkpt lat="44.05828" lon="3.14837">
        <ele>809.9</ele>
        <time>2019-05-31T10:00:20Z</time>
      </trkpt>
      <trkpt lat="44.05825" lon="3.14843">
        <ele>809.8</ele>
        <time>2019-05-31T10:00:21Z</time>
      </trkpt>
      <trkpt lat="44.05822" lon="3.14849">
        <ele>809.7</ele>
        <time>2019-05-31T10:00:22Z</time>
      </trkpt>
      <trkpt lat="44.05818" lon="3.14855">
        <ele>809.5</ele>
        <time>2019-05-31T10:00:23Z</time>
      </trkpt>
      <trkpt lat="44.05815" lon="3.1486">
        <ele>809.5</ele>
        <time>2019-05-31T10:00:24Z</time>
      </trkpt>
      <trkpt lat="44.0581" lon="3.14863">
        <ele>809.3</ele>
        <time>2019-05-31T10:00:25Z</time>
      </trkpt>
      <trkpt lat="44.05805" lon="3.14867">
        <ele>809.2</ele>
        <time>2019-05-31T10:00:26Z</time>
      </trkpt>
      <trkpt lat="44.05801" lon="3.14872">
        <ele>809</ele>
        <time>2019-05-31T10:00:27Z</time>
      </trkpt>
      <trkpt lat="44.05797" lon="3.14878">
        <ele>808.8</ele>
        <time>2019-05-31T10:00:28Z</time>
      </trkpt>
      <trkpt lat="44.05793" lon="3.14884">
        <ele>808.6</ele>
        <time>2019-05-31T10:00:29Z</time>
      </trkpt>
      <trkpt lat="44.05788" lon="3.1489">
        <ele>808.4</ele>
        <time>2019-05-31T10:00:30Z</time>
      </trkpt>
      <trkpt lat="44.05785" lon="3.14898">
        <ele>808</ele>
        <time>2019-05-31T10:00:31Z</time>
      </trkpt>
      <trkpt lat="44.05781" lon="3.14907">
        <ele>807.7</ele>
        <time>2019-05-31T10:00:32Z</time>
      </trkpt>
      <trkpt lat="44.05778" lon="3.14913">
        <ele>807.5</ele>
        <time>2019-05-31T10:00:33Z</time>
      </trkpt>
      <trkpt lat="44.05775" lon="3.14919">
        <ele>807.3</ele>
        <time>2019-05-31T10:00:34Z</time>
      </trkpt>
      <trkpt lat="44.05772" lon="3.14926">
        <ele>807.1</ele>
        <time>2019-05-31T10:00:35Z</time>
      </trkpt>
      <trkpt lat="44.05769" lon="3.14933">
        <ele>806.8</ele>
        <time>2019-05-31T10:00:36Z</time>
      </trkpt>
      <trkpt lat="44.05767" lon="3.14941">
        <ele>806.6</ele>
        <time>2019-05-31T10:00:37Z</time>
      </trkpt>
      <trkpt lat="44.05764" lon="3.14951">
        <ele>806.4</ele>
        <time>2019-05-31T10:00:38Z</time>
      </trkpt>
      <trkpt lat="44.05763" lon="3.14958">
        <ele>806.3</ele>
        <time>2019-05-31T10:00:39Z</time>
      </trkpt>
      <trkpt lat="44.05761" lon="3.14964">
        <ele>806.2</ele>
        <time>2019-05-31T10:00:40Z</time>
      </trkpt>
      <trkpt lat="44.05758" lon="3.14969">
        <ele>806.1</ele>
        <time>2019-05-31T10:00:41Z</time>
      </trkpt>
      <trkpt lat="44.05757" lon="3.14975">
        <ele>806.1</ele>
        <time>2019-05-31T10:00:42Z</time>
      </trkpt>
      <trkpt lat="44.05755" lon="3.14983">
        <ele>806.2</ele>
        <time>2019-05-31T10:00:43Z</time>
      </trkpt>
      <trkpt lat="44.05753" lon="3.14989">
        <ele>806.2</ele>
        <time>2019-05-31T10:00:44Z</time>
      </trkpt>
      <trkpt lat="44.05751" lon="3.14994">
        <ele>806.3</ele>
        <time>2019-05-31T10:00:45Z</time>
      </trkpt>
      <trkpt lat="44.05748" lon="3.15001">
        <ele>806.4</ele>
        <time>2019-05-31T10:00:46Z</time>
      </trkpt>
      <trkpt lat="44.05744" lon="3.15005">
        <ele>806.4</ele>
        <time>2019-05-31T10:00:47Z</time>
      </trkpt>
      <trkpt lat="44.05742" lon="3.1501">
        <ele>806.5</ele>
        <time>2019-05-31T10:00:48Z</time>
      </trkpt>
      <trkpt lat="44.0574" lon="3.15013">
        <ele>806.5</ele>
        <time>2019-05-31T10:00:49Z</time>
      </trkpt>
      <trkpt lat="44.05737" lon="3.15015">
        <ele>806.6</ele>
        <time>2019-05-31T10:00:50Z</time>
      </trkpt>
      <trkpt lat="44.05733" lon="3.15018">
        <ele>806.7</ele>
        <time>2019-05-31T10:00:52Z</time>
      </trkpt>
      <trkpt lat="44.05728" lon="3.1502">
        <ele>806.8</ele>
        <time>2019-05-31T10:00:54Z</time>
      </trkpt>
      <trkpt lat="44.05723" lon="3.1502">
        <ele>806.9</ele>
        <time>2019-05-31T10:00:56Z</time>
      </trkpt>
      <trkpt lat="44.05718" lon="3.15021">
        <ele>807</ele>
        <time>2019-05-31T10:00:57Z</time>
      </trkpt>
      <trkpt lat="44.05714" lon="3.15024">
        <ele>807.1</ele>
        <time>2019-05-31T10:00:58Z</time>
      </trkpt>
      <trkpt lat="44.05711" lon="3.15026">
        <ele>807.2</ele>
        <time>2019-05-31T10:00:59Z</time>
      </trkpt>
      <trkpt lat="44.05708" lon="3.15029">
        <ele>807.3</ele>
        <time>2019-05-31T10:01:00Z</time>
      </trkpt>
      <trkpt lat="44.05704" lon="3.1503">
        <ele>807.4</ele>
        <time>2019-05-31T10:01:01Z</time>
      </trkpt>
      <trkpt lat="44.05701" lon="3.15032">
        <ele>807.5</ele>
        <time>2019-05-31T10:01:02Z</time>
      </trkpt>
      <trkpt lat="44.05698" lon="3.15034">
        <ele>807.5</ele>
        <time>2019-05-31T10:01:03Z</time>
      </trkpt>
      <trkpt lat="44.05694" lon="3.15036">
        <ele>807.6</ele>
        <time>2019-05-31T10:01:04Z</time>
      </trkpt>
      <trkpt lat="44.05691" lon="3.15038">
        <ele>807.7</ele>
        <time>2019-05-31T10:01:05Z</time>
      </trkpt>
      <trkpt lat="44.05688" lon="3.15039">
        <ele>807.8</ele>
        <time>2019-05-31T10:01:06Z</time>
      </trkpt>
      <trkpt lat="44.05685" lon="3.1504">
        <ele>807.9</ele>
        <time>2019-05-31T10:01:07Z</time>
      </trkpt>
      <trkpt lat="44.05682" lon="3.15041">
        <ele>808</ele>
        <time>2019-05-31T10:01:08Z</time>
      </trkpt>
      <trkpt lat="44.0568" lon="3.15041">
        <ele>808.1</ele>
        <time>2019-05-31T10:01:09Z</time>
      </trkpt>
      <trkpt lat="44.05675" lon="3.15044">
        <ele>808.2</ele>
        <time>2019-05-31T10:01:11Z</time>
      </trkpt>
      <trkpt lat="44.05672" lon="3.15046">
        <ele>808.3</ele>
        <time>2019-05-31T10:01:12Z</time>
      </trkpt>
      <trkpt lat="44.05669" lon="3.15048">
        <ele>808.4</ele>
        <time>2019-05-31T10:01:13Z</time>
      </trkpt>
      <trkpt lat="44.05666" lon="3.1505">
        <ele>808.5</ele>
        <time>2019-05-31T10:01:14Z</time>
      </trkpt>
      <trkpt lat="44.05663" lon="3.15052">
        <ele>808.6</ele>
        <time>2019-05-31T10:01:15Z</time>
      </trkpt>
      <trkpt lat="44.05659" lon="3.15054">
        <ele>808.8</ele>
        <time>2019-05-31T10:01:16Z</time>
      </trkpt>
      <trkpt lat="44.05656" lon="3.15056">
        <ele>808.9</ele>
        <time>2019-05-31T10:01:17Z</time>
      </trkpt>
      <trkpt lat="44.05652" lon="3.15057">
        <ele>809</ele>
        <time>2019-05-31T10:01:18Z</time>
      </trkpt>
      <trkpt lat="44.05649" lon="3.15059">
        <ele>809.2</ele>
        <time>2019-05-31T10:01:19Z</time>
      </trkpt>
      <trkpt lat="44.05646" lon="3.1506">
        <ele>809.3</ele>
        <time>2019-05-31T10:01:20Z</time>
      </trkpt>
      <trkpt lat="44.05642" lon="3.15061">
        <ele>809.4</ele>
        <time>2019-05-31T10:01:21Z</time>
      </trkpt>
      <trkpt lat="44.05639" lon="3.15064">
        <ele>809.6</ele>
        <time>2019-05-31T10:01:22Z</time>
      </trkpt>
      <trkpt lat="44.05636" lon="3.15066">
        <ele>809.7</ele>
        <time>2019-05-31T10:01:23Z</time>
      </trkpt>
      <trkpt lat="44.05632" lon="3.1507">
        <ele>809.9</ele>
        <time>2019-05-31T10:01:24Z</time>
      </trkpt>
      <trkpt lat="44.0563" lon="3.15073">
        <ele>810.1</ele>
        <time>2019-05-31T10:01:25Z</time>
      </trkpt>
      <trkpt lat="44.05626" lon="3.15077">
        <ele>810.3</ele>
        <time>2019-05-31T10:01:26Z</time>
      </trkpt>
      <trkpt lat="44.05624" lon="3.1508">
        <ele>810.4</ele>
        <time>2019-05-31T10:01:27Z</time>
      </trkpt>
      <trkpt lat="44.05619" lon="3.15082">
        <ele>810.6</ele>
        <time>2019-05-31T10:01:28Z</time>
      </trkpt>
      <trkpt lat="44.05617" lon="3.15085">
        <ele>810.8</ele>
        <time>2019-05-31T10:01:29Z</time>
      </trkpt>
      <trkpt lat="44.05615" lon="3.15088">
        <ele>810.9</ele>
        <time>2019-05-31T10:01:30Z</time>
      </trkpt>
      <trkpt lat="44.05611" lon="3.15089">
        <ele>811</ele>
        <time>2019-05-31T10:01:31Z</time>
      </trkpt>
      <trkpt lat="44.05609" lon="3.15092">
        <ele>811.2</ele>
        <time>2019-05-31T10:01:32Z</time>
      </trkpt>
      <trkpt lat="44.05605" lon="3.15096">
        <ele>811.4</ele>
        <time>2019-05-31T10:01:33Z</time>
      </trkpt>
      <trkpt lat="44.05602" lon="3.15098">
        <ele>811.5</ele>
        <time>2019-05-31T10:01:34Z</time>
      </trkpt>
      <trkpt lat="44.05599" lon="3.151">
        <ele>811.8</ele>
        <time>2019-05-31T10:01:35Z</time>
      </trkpt>
      <trkpt lat="44.05595" lon="3.15102">
        <ele>811.9</ele>
        <time>2019-05-31T10:01:36Z</time>
      </trkpt>
      <trkpt lat="44.05593" lon="3.15103">
        <ele>812.1</ele>
        <time>2019-05-31T10:01:37Z</time>
      </trkpt>
      <trkpt lat="44.0559" lon="3.15106">
        <ele>812.2</ele>
        <time>2019-05-31T10:01:38Z</time>
      </trkpt>
      <trkpt lat="44.05588" lon="3.15109">
        <ele>812.3</ele>
        <time>2019-05-31T10:01:39Z</time>
      </trkpt>
      <trkpt lat="44.05586" lon="3.15112">
        <ele>812.4</ele>
        <time>2019-05-31T10:01:40Z</time>
      </trkpt>
      <trkpt lat="44.05584" lon="3.15116">
        <ele>812.6</ele>
        <time>2019-05-31T10:01:41Z</time>
      </trkpt>
      <trkpt lat="44.05582" lon="3.15119">
        <ele>812.8</ele>
        <time>2019-05-31T10:01:42Z</time>
      </trkpt>
      <trkpt lat="44.0558" lon="3.15123">
        <ele>813</ele>
        <time>2019-05-31T10:01:43Z</time>
      </trkpt>
      <trkpt lat="44.05579" lon="3.15127">
        <ele>813.2</ele>
        <time>2019-05-31T10:01:44Z</time>
      </trkpt>
      <trkpt lat="44.05576" lon="3.1513">
        <ele>813.4</ele>
        <time>2019-05-31T10:01:45Z</time>
      </trkpt>
      <trkpt lat="44.05574" lon="3.15134">
        <ele>813.5</ele>
        <time>2019-05-31T10:01:46Z</time>
      </trkpt>
      <trkpt lat="44.05572" lon="3.15138">
        <ele>813.7</ele>
        <time>2019-05-31T10:01:47Z</time>
      </trkpt>
      <trkpt lat="44.05569" lon="3.15141">
        <ele>813.8</ele>
        <time>2019-05-31T10:01:48Z</time>
      </trkpt>
      <trkpt lat="44.05565" lon="3.15146">
        <ele>814.2</ele>
        <time>2019-05-31T10:01:50Z</time>
      </trkpt>
      <trkpt lat="44.05563" lon="3.1515">
        <ele>814.4</ele>
        <time>2019-05-31T10:01:51Z</time>
      </trkpt>
      <trkpt lat="44.05561" lon="3.15154">
        <ele>814.6</ele>
        <time>2019-05-31T10:01:52Z</time>
      </trkpt>
      <trkpt lat="44.05559" lon="3.15159">
        <ele>814.7</ele>
        <time>2019-05-31T10:01:53Z</time>
      </trkpt>
      <trkpt lat="44.05557" lon="3.15164">
        <ele>814.8</ele>
        <time>2019-05-31T10:01:54Z</time>
      </trkpt>
      <trkpt lat="44.05555" lon="3.15168">
        <ele>815.1</ele>
        <time>2019-05-31T10:01:55Z</time>
      </trkpt>
      <trkpt lat="44.05553" lon="3.15172">
        <ele>815.3</ele>
        <time>2019-05-31T10:01:56Z</time>
      </trkpt>
      <trkpt lat="44.05551" lon="3.15176">
        <ele>815.5</ele>
        <time>2019-05-31T10:01:57Z</time>
      </trkpt>
      <trkpt lat="44.05547" lon="3.1518">
        <ele>815.8</ele>
        <time>2019-05-31T10:01:58Z</time>
      </trkpt>
      <trkpt lat="44.05544" lon="3.15184">
        <ele>816</ele>
        <time>2019-05-31T10:01:59Z</time>
      </trkpt>
      <trkpt lat="44.05541" lon="3.15189">
        <ele>816.3</ele>
        <time>2019-05-31T10:02:00Z</time>
      </trkpt>
      <trkpt lat="44.05539" lon="3.15192">
        <ele>816.4</ele>
        <time>2019-05-31T10:02:01Z</time>
      </trkpt>
      <trkpt lat="44.05535" lon="3.15195">
        <ele>816.7</ele>
        <time>2019-05-31T10:02:02Z</time>
      </trkpt>
      <trkpt lat="44.05533" lon="3.15197">
        <ele>816.8</ele>
        <time>2019-05-31T10:02:03Z</time>
      </trkpt>
      <trkpt lat="44.05529" lon="3.152">
        <ele>817.1</ele>
        <time>2019-05-31T10:02:04Z</time>
      </trkpt>
      <trkpt lat="44.05523" lon="3.15205">
        <ele>817.5</ele>
        <time>2019-05-31T10:02:06Z</time>
      </trkpt>
      <trkpt lat="44.05518" lon="3.15207">
        <ele>817.8</ele>
        <time>2019-05-31T10:02:08Z</time>
      </trkpt>
      <trkpt lat="44.05513" lon="3.1521">
        <ele>818.1</ele>
        <time>2019-05-31T10:02:10Z</time>
      </trkpt>
      <trkpt lat="44.0551" lon="3.15211">
        <ele>818.3</ele>
        <time>2019-05-31T10:02:11Z</time>
      </trkpt>
      <trkpt lat="44.05508" lon="3.1521">
        <ele>818.4</ele>
        <time>2019-05-31T10:02:12Z</time>
      </trkpt>
      <trkpt lat="44.05505" lon="3.15212">
        <ele>818.6</ele>
        <time>2019-05-31T10:02:13Z</time>
      </trkpt>
      <trkpt lat="44.05502" lon="3.15215">
        <ele>818.7</ele>
        <time>2019-05-31T10:02:14Z</time>
      </trkpt>
      <trkpt lat="44.05499" lon="3.15218">
        <ele>818.8</ele>
        <time>2019-05-31T10:02:15Z</time>
      </trkpt>
      <trkpt lat="44.05497" lon="3.15221">
        <ele>818.8</ele>
        <time>2019-05-31T10:02:16Z</time>
      </trkpt>
      <trkpt lat="44.05494" lon="3.15225">
        <ele>818.9</ele>
        <time>2019-05-31T10:02:17Z</time>
      </trkpt>
      <trkpt lat="44.05492" lon="3.15229">
        <ele>818.9</ele>
        <time>2019-05-31T10:02:18Z</time>
      </trkpt>
      <trkpt lat="44.05489" lon="3.15233">
        <ele>818.9</ele>
        <time>2019-05-31T10:02:19Z</time>
      </trkpt>
      <trkpt lat="44.05487" lon="3.15236">
        <ele>819</ele>
        <time>2019-05-31T10:02:20Z</time>
      </trkpt>
      <trkpt lat="44.05485" lon="3.1524">
        <ele>819</ele>
        <time>2019-05-31T10:02:21Z</time>
      </trkpt>
      <trkpt lat="44.05481" lon="3.15244">
        <ele>819.1</ele>
        <time>2019-05-31T10:02:23Z</time>
      </trkpt>
      <trkpt lat="44.05476" lon="3.15245">
        <ele>819.1</ele>
        <time>2019-05-31T10:02:25Z</time>
      </trkpt>
      <trkpt lat="44.05471" lon="3.15247">
        <ele>819.2</ele>
        <time>2019-05-31T10:02:27Z</time>
      </trkpt>
      <trkpt lat="44.05469" lon="3.15251">
        <ele>819.2</ele>
        <time>2019-05-31T10:02:29Z</time>
      </trkpt>
      <trkpt lat="44.0547" lon="3.15257">
        <ele>819.3</ele>
        <time>2019-05-31T10:02:31Z</time>
      </trkpt>
      <trkpt lat="44.05471" lon="3.15261">
        <ele>819.4</ele>
        <time>2019-05-31T10:02:33Z</time>
      </trkpt>
      <trkpt lat="44.05471" lon="3.15265">
        <ele>819.5</ele>
        <time>2019-05-31T10:02:35Z</time>
      </trkpt>
      <trkpt lat="44.05471" lon="3.15269">
        <ele>819.6</ele>
        <time>2019-05-31T10:02:37Z</time>
      </trkpt>
      <trkpt lat="44.05471" lon="3.15274">
        <ele>819.7</ele>
        <time>2019-05-31T10:02:39Z</time>
      </trkpt>
      <trkpt lat="44.0547" lon="3.15278">
        <ele>819.8</ele>
        <time>2019-05-31T10:02:41Z</time>
      </trkpt>
      <trkpt lat="44.0547" lon="3.15283">
        <ele>819.9</ele>
        <time>2019-05-31T10:02:43Z</time>
      </trkpt>
      <trkpt lat="44.0547" lon="3.15287">
        <ele>820</ele>
        <time>2019-05-31T10:02:45Z</time>
      </trkpt>
      <trkpt lat="44.0547" lon="3.15291">
        <ele>820.2</ele>
        <time>2019-05-31T10:02:47Z</time>
      </trkpt>
      <trkpt lat="44.0547" lon="3.15295">
        <ele>820.3</ele>
        <time>2019-05-31T10:02:49Z</time>
      </trkpt>
      <trkpt lat="44.05469" lon="3.153">
        <ele>820.5</ele>
        <time>2019-05-31T10:02:51Z</time>
      </trkpt>
      <trkpt lat="44.05468" lon="3.15304">
        <ele>820.7</ele>
        <time>2019-05-31T10:02:54Z</time>
      </trkpt>
      <trkpt lat="44.05465" lon="3.15306">
        <ele>820.8</ele>
        <time>2019-05-31T10:03:27Z</time>
      </trkpt>
      <trkpt lat="44.05464" lon="3.15311">
        <ele>821.1</ele>
        <time>2019-05-31T10:03:29Z</time>
      </trkpt>
      <trkpt lat="44.05462" lon="3.15314">
        <ele>821.2</ele>
        <time>2019-05-31T10:03:30Z</time>
      </trkpt>
      <trkpt lat="44.05461" lon="3.15318">
        <ele>821.3</ele>
        <time>2019-05-31T10:03:31Z</time>
      </trkpt>
      <trkpt lat="44.0546" lon="3.15325">
        <ele>821.4</ele>
        <time>2019-05-31T10:03:33Z</time>
      </trkpt>
      <trkpt lat="44.05458" lon="3.15329">
        <ele>821.5</ele>
        <time>2019-05-31T10:03:34Z</time>
      </trkpt>
      <trkpt lat="44.05457" lon="3.15332">
        <ele>821.6</ele>
        <time>2019-05-31T10:03:35Z</time>
      </trkpt>
      <trkpt lat="44.05456" lon="3.15336">
        <ele>821.7</ele>
        <time>2019-05-31T10:03:36Z</time>
      </trkpt>
      <trkpt lat="44.05455" lon="3.1534">
        <ele>821.8</ele>
        <time>2019-05-31T10:03:37Z</time>
      </trkpt>
      <trkpt lat="44.05453" lon="3.15347">
        <ele>822</ele>
        <time>2019-05-31T10:03:39Z</time>
      </trkpt>
      <trkpt lat="44.05451" lon="3.15351">
        <ele>822.1</ele>
        <time>2019-05-31T10:03:40Z</time>
      </trkpt>
      <trkpt lat="44.0545" lon="3.15357">
        <ele>822.3</ele>
        <time>2019-05-31T10:03:42Z</time>
      </trkpt>
      <trkpt lat="44.05448" lon="3.15363">
        <ele>822.7</ele>
        <time>2019-05-31T10:03:44Z</time>
      </trkpt>
      <trkpt lat="44.05446" lon="3.1537">
        <ele>823</ele>
        <time>2019-05-31T10:03:46Z</time>
      </trkpt>
      <trkpt lat="44.05444" lon="3.15376">
        <ele>823.5</ele>
        <time>2019-05-31T10:03:48Z</time>
      </trkpt>
      <trkpt lat="44.05442" lon="3.15382">
        <ele>823.8</ele>
        <time>2019-05-31T10:03:50Z</time>
      </trkpt>
      <trkpt lat="44.05441" lon="3.15386">
        <ele>824.2</ele>
        <time>2019-05-31T10:03:52Z</time>
      </trkpt>
      <trkpt lat="44.0544" lon="3.15392">
        <ele>824.5</ele>
        <time>2019-05-31T10:03:55Z</time>
      </trkpt>
      <trkpt lat="44.05438" lon="3.15398">
        <ele>824.9</ele>
        <time>2019-05-31T10:03:57Z</time>
      </trkpt>
      <trkpt lat="44.05436" lon="3.15404">
        <ele>825.2</ele>
        <time>2019-05-31T10:03:59Z</time>
      </trkpt>
      <trkpt lat="44.05433" lon="3.1541">
        <ele>825.5</ele>
        <time>2019-05-31T10:04:01Z</time>
      </trkpt>
      <trkpt lat="44.05429" lon="3.15414">
        <ele>825.7</ele>
        <time>2019-05-31T10:04:03Z</time>
      </trkpt>
      <trkpt lat="44.05426" lon="3.15416">
        <ele>825.9</ele>
        <time>2019-05-31T10:04:04Z</time>
      </trkpt>
      <trkpt lat="44.05423" lon="3.15417">
        <ele>826</ele>
        <time>2019-05-31T10:04:05Z</time>
      </trkpt>
      <trkpt lat="44.0542" lon="3.15419">
        <ele>826.1</ele>
        <time>2019-05-31T10:04:06Z</time>
      </trkpt>
      <trkpt lat="44.05417" lon="3.1542">
        <ele>826.1</ele>
        <time>2019-05-31T10:04:07Z</time>
      </trkpt>
      <trkpt lat="44.05414" lon="3.15422">
        <ele>826.1</ele>
        <time>2019-05-31T10:04:08Z</time>
      </trkpt>
      <trkpt lat="44.05409" lon="3.15422">
        <ele>826.1</ele>
        <time>2019-05-31T10:04:10Z</time>
      </trkpt>
      <trkpt lat="44.05404" lon="3.15425">
        <ele>826.4</ele>
        <time>2019-05-31T10:04:12Z</time>
      </trkpt>
      <trkpt lat="44.05402" lon="3.15429">
        <ele>826.5</ele>
        <time>2019-05-31T10:04:13Z</time>
      </trkpt>
      <trkpt lat="44.05401" lon="3.15435">
        <ele>826.6</ele>
        <time>2019-05-31T10:04:14Z</time>
      </trkpt>
      <trkpt lat="44.054" lon="3.1544">
        <ele>826.8</ele>
        <time>2019-05-31T10:04:15Z</time>
      </trkpt>
      <trkpt lat="44.054" lon="3.15446">
        <ele>826.9</ele>
        <time>2019-05-31T10:04:16Z</time>
      </trkpt>
      <trkpt lat="44.054" lon="3.15451">
        <ele>827</ele>
        <time>2019-05-31T10:04:17Z</time>
      </trkpt>
      <trkpt lat="44.054" lon="3.15457">
        <ele>827.1</ele>
        <time>2019-05-31T10:04:18Z</time>
      </trkpt>
      <trkpt lat="44.054" lon="3.15462">
        <ele>827.1</ele>
        <time>2019-05-31T10:04:19Z</time>
      </trkpt>
      <trkpt lat="44.05401" lon="3.15467">
        <ele>827.2</ele>
        <time>2019-05-31T10:04:20Z</time>
      </trkpt>
      <trkpt lat="44.05401" lon="3.15473">
        <ele>827.3</ele>
        <time>2019-05-31T10:04:21Z</time>
      </trkpt>
      <trkpt lat="44.05402" lon="3.15477">
        <ele>827.3</ele>
        <time>2019-05-31T10:04:22Z</time>
      </trkpt>
      <trkpt lat="44.05403" lon="3.15482">
        <ele>827.3</ele>
        <time>2019-05-31T10:04:23Z</time>
      </trkpt>
      <trkpt lat="44.05405" lon="3.15487">
        <ele>827.4</ele>
        <time>2019-05-31T10:04:24Z</time>
      </trkpt>
      <trkpt lat="44.05406" lon="3.15493">
        <ele>827.4</ele>
        <time>2019-05-31T10:04:25Z</time>
      </trkpt>
      <trkpt lat="44.05407" lon="3.15499">
        <ele>827.4</ele>
        <time>2019-05-31T10:04:26Z</time>
      </trkpt>
      <trkpt lat="44.05408" lon="3.15504">
        <ele>827.4</ele>
        <time>2019-05-31T10:04:27Z</time>
      </trkpt>
      <trkpt lat="44.05408" lon="3.15509">
        <ele>827.4</ele>
        <time>2019-05-31T10:04:28Z</time>
      </trkpt>
      <trkpt lat="44.05408" lon="3.15514">
        <ele>827.4</ele>
        <time>2019-05-31T10:04:29Z</time>
      </trkpt>
      <trkpt lat="44.05408" lon="3.15519">
        <ele>827.2</ele>
        <time>2019-05-31T10:04:30Z</time>
      </trkpt>
      <trkpt lat="44.05408" lon="3.15524">
        <ele>827</ele>
        <time>2019-05-31T10:04:31Z</time>
      </trkpt>
      <trkpt lat="44.05408" lon="3.15528">
        <ele>826.8</ele>
        <time>2019-05-31T10:04:32Z</time>
      </trkpt>
      <trkpt lat="44.05408" lon="3.15534">
        <ele>826.5</ele>
        <time>2019-05-31T10:04:33Z</time>
      </trkpt>
      <trkpt lat="44.05409" lon="3.1554">
        <ele>826.3</ele>
        <time>2019-05-31T10:04:34Z</time>
      </trkpt>
      <trkpt lat="44.05409" lon="3.15546">
        <ele>826.1</ele>
        <time>2019-05-31T10:04:35Z</time>
      </trkpt>
      <trkpt lat="44.05409" lon="3.15552">
        <ele>825.8</ele>
        <time>2019-05-31T10:04:36Z</time>
      </trkpt>
      <trkpt lat="44.05408" lon="3.15556">
        <ele>825.6</ele>
        <time>2019-05-31T10:04:37Z</time>
      </trkpt>
      <trkpt lat="44.05408" lon="3.15561">
        <ele>825.4</ele>
        <time>2019-05-31T10:04:38Z</time>
      </trkpt>
      <trkpt lat="44.05406" lon="3.15569">
        <ele>825.1</ele>
        <time>2019-05-31T10:04:40Z</time>
      </trkpt>
      <trkpt lat="44.05407" lon="3.15574">
        <ele>824.9</ele>
        <time>2019-05-31T10:04:41Z</time>
      </trkpt>
      <trkpt lat="44.05406" lon="3.15577">
        <ele>824.7</ele>
        <time>2019-05-31T10:04:42Z</time>
      </trkpt>
      <trkpt lat="44.05406" lon="3.15583">
        <ele>824.5</ele>
        <time>2019-05-31T10:04:43Z</time>
      </trkpt>
      <trkpt lat="44.05405" lon="3.15589">
        <ele>824.2</ele>
        <time>2019-05-31T10:04:44Z</time>
      </trkpt>
      <trkpt lat="44.05404" lon="3.15597">
        <ele>823.8</ele>
        <time>2019-05-31T10:04:45Z</time>
      </trkpt>
      <trkpt lat="44.05406" lon="3.15603">
        <ele>823.5</ele>
        <time>2019-05-31T10:04:46Z</time>
      </trkpt>
      <trkpt lat="44.05407" lon="3.15609">
        <ele>823.2</ele>
        <time>2019-05-31T10:04:47Z</time>
      </trkpt>
      <trkpt lat="44.05407" lon="3.15615">
        <ele>822.9</ele>
        <time>2019-05-31T10:04:48Z</time>
      </trkpt>
      <trkpt lat="44.05406" lon="3.15623">
        <ele>822.5</ele>
        <time>2019-05-31T10:04:49Z</time>
      </trkpt>
      <trkpt lat="44.05406" lon="3.15628">
        <ele>822.2</ele>
        <time>2019-05-31T10:04:50Z</time>
      </trkpt>
      <trkpt lat="44.05405" lon="3.15634">
        <ele>821.9</ele>
        <time>2019-05-31T10:04:51Z</time>
      </trkpt>
      <trkpt lat="44.05405" lon="3.15641">
        <ele>821.6</ele>
        <time>2019-05-31T10:04:52Z</time>
      </trkpt>
      <trkpt lat="44.05407" lon="3.15646">
        <ele>821.2</ele>
        <time>2019-05-31T10:04:53Z</time>
      </trkpt>
      <trkpt lat="44.05409" lon="3.15653">
        <ele>820.8</ele>
        <time>2019-05-31T10:04:54Z</time>
      </trkpt>
      <trkpt lat="44.05411" lon="3.15659">
        <ele>820.4</ele>
        <time>2019-05-31T10:04:55Z</time>
      </trkpt>
      <trkpt lat="44.05413" lon="3.15667">
        <ele>819.9</ele>
        <time>2019-05-31T10:04:56Z</time>
      </trkpt>
      <trkpt lat="44.05414" lon="3.15673">
        <ele>819.5</ele>
        <time>2019-05-31T10:04:57Z</time>
      </trkpt>
      <trkpt lat="44.05416" lon="3.15681">
        <ele>819</ele>
        <time>2019-05-31T10:04:58Z</time>
      </trkpt>
      <trkpt lat="44.05419" lon="3.15688">
        <ele>818.5</ele>
        <time>2019-05-31T10:04:59Z</time>
      </trkpt>
      <trkpt lat="44.05421" lon="3.15695">
        <ele>818</ele>
        <time>2019-05-31T10:05:00Z</time>
      </trkpt>
      <trkpt lat="44.0542" lon="3.15703">
        <ele>817.6</ele>
        <time>2019-05-31T10:05:01Z</time>
      </trkpt>
      <trkpt lat="44.0542" lon="3.15711">
        <ele>817.2</ele>
        <time>2019-05-31T10:05:02Z</time>
      </trkpt>
      <trkpt lat="44.05419" lon="3.15716">
        <ele>817.2</ele>
        <time>2019-05-31T10:05:03Z</time>
      </trkpt>
      <trkpt lat="44.05419" lon="3.15726">
        <ele>816.5</ele>
        <time>2019-05-31T10:05:04Z</time>
      </trkpt>
      <trkpt lat="44.05418" lon="3.15731">
        <ele>816.1</ele>
        <time>2019-05-31T10:05:05Z</time>
      </trkpt>
      <trkpt lat="44.05418" lon="3.15737">
        <ele>815.7</ele>
        <time>2019-05-31T10:05:06Z</time>
      </trkpt>
      <trkpt lat="44.05418" lon="3.15745">
        <ele>815.1</ele>
        <time>2019-05-31T10:05:07Z</time>
      </trkpt>
      <trkpt lat="44.05418" lon="3.15749">
        <ele>814.7</ele>
        <time>2019-05-31T10:05:08Z</time>
      </trkpt>
      <trkpt lat="44.05417" lon="3.15756">
        <ele>814.3</ele>
        <time>2019-05-31T10:05:09Z</time>
      </trkpt>
      <trkpt lat="44.05416" lon="3.15762">
        <ele>814.1</ele>
        <time>2019-05-31T10:05:10Z</time>
      </trkpt>
      <trkpt lat="44.05416" lon="3.15767">
        <ele>814</ele>
        <time>2019-05-31T10:05:11Z</time>
      </trkpt>
      <trkpt lat="44.05415" lon="3.15773">
        <ele>814</ele>
        <time>2019-05-31T10:05:12Z</time>
      </trkpt>
      <trkpt lat="44.05414" lon="3.15779">
        <ele>814.1</ele>
        <time>2019-05-31T10:05:13Z</time>
      </trkpt>
      <trkpt lat="44.05414" lon="3.15783">
        <ele>814.1</ele>
        <time>2019-05-31T10:05:14Z</time>
      </trkpt>
      <trkpt lat="44.05414" lon="3.15789">
        <ele>813.9</ele>
        <time>2019-05-31T10:05:15Z</time>
      </trkpt>
      <trkpt lat="44.05413" lon="3.15793">
        <ele>813.9</ele>
        <time>2019-05-31T10:05:16Z</time>
      </trkpt>
      <trkpt lat="44.05413" lon="3.15797">
        <ele>813.9</ele>
        <time>2019-05-31T10:05:17Z</time>
      </trkpt>
      <trkpt lat="44.05412" lon="3.15803">
        <ele>813.8</ele>
        <time>2019-05-31T10:05:18Z</time>
      </trkpt>
      <trkpt lat="44.05411" lon="3.15809">
        <ele>813.6</ele>
        <time>2019-05-31T10:05:19Z</time>
      </trkpt>
      <trkpt lat="44.0541" lon="3.15816">
        <ele>813.4</ele>
        <time>2019-05-31T10:05:20Z</time>
      </trkpt>
      <trkpt lat="44.0541" lon="3.15823">
        <ele>813.2</ele>
        <time>2019-05-31T10:05:21Z</time>
      </trkpt>
      <trkpt lat="44.05409" lon="3.15831">
        <ele>813</ele>
        <time>2019-05-31T10:05:22Z</time>
      </trkpt>
      <trkpt lat="44.05409" lon="3.15839">
        <ele>812.6</ele>
        <time>2019-05-31T10:05:23Z</time>
      </trkpt>
      <trkpt lat="44.05408" lon="3.15849">
        <ele>812.5</ele>
        <time>2019-05-31T10:05:24Z</time>
      </trkpt>
      <trkpt lat="44.05407" lon="3.15858">
        <ele>812.3</ele>
        <time>2019-05-31T10:05:25Z</time>
      </trkpt>
      <trkpt lat="44.05405" lon="3.15867">
        <ele>812.3</ele>
        <time>2019-05-31T10:05:26Z</time>
      </trkpt>
      <trkpt lat="44.05402" lon="3.15876">
        <ele>812.4</ele>
        <time>2019-05-31T10:05:27Z</time>
      </trkpt>
      <trkpt lat="44.05399" lon="3.15884">
        <ele>812.6</ele>
        <time>2019-05-31T10:05:28Z</time>
      </trkpt>
      <trkpt lat="44.05396" lon="3.15893">
        <ele>812.7</ele>
        <time>2019-05-31T10:05:29Z</time>
      </trkpt>
      <trkpt lat="44.05392" lon="3.15901">
        <ele>812.9</ele>
        <time>2019-05-31T10:05:30Z</time>
      </trkpt>
      <trkpt lat="44.0539" lon="3.15909">
        <ele>813.1</ele>
        <time>2019-05-31T10:05:31Z</time>
      </trkpt>
      <trkpt lat="44.05387" lon="3.15918">
        <ele>813.2</ele>
        <time>2019-05-31T10:05:32Z</time>
      </trkpt>
      <trkpt lat="44.05386" lon="3.15927">
        <ele>813.3</ele>
        <time>2019-05-31T10:05:33Z</time>
      </trkpt>
      <trkpt lat="44.05383" lon="3.15935">
        <ele>813.3</ele>
        <time>2019-05-31T10:05:34Z</time>
      </trkpt>
      <trkpt lat="44.0538" lon="3.15943">
        <ele>813.2</ele>
        <time>2019-05-31T10:05:35Z</time>
      </trkpt>
      <trkpt lat="44.05379" lon="3.15951">
        <ele>813</ele>
        <time>2019-05-31T10:05:36Z</time>
      </trkpt>
      <trkpt lat="44.0538" lon="3.15959">
        <ele>812.8</ele>
        <time>2019-05-31T10:05:37Z</time>
      </trkpt>
      <trkpt lat="44.05381" lon="3.15968">
        <ele>812.6</ele>
        <time>2019-05-31T10:05:38Z</time>
      </trkpt>
      <trkpt lat="44.05381" lon="3.15974">
        <ele>812.5</ele>
        <time>2019-05-31T10:05:39Z</time>
      </trkpt>
      <trkpt lat="44.05381" lon="3.15984">
        <ele>812.3</ele>
        <time>2019-05-31T10:05:40Z</time>
      </trkpt>
      <trkpt lat="44.05382" lon="3.15995">
        <ele>812.1</ele>
        <time>2019-05-31T10:05:41Z</time>
      </trkpt>
      <trkpt lat="44.05381" lon="3.16004">
        <ele>811.9</ele>
        <time>2019-05-31T10:05:42Z</time>
      </trkpt>
      <trkpt lat="44.05382" lon="3.16013">
        <ele>811.8</ele>
        <time>2019-05-31T10:05:43Z</time>
      </trkpt>
      <trkpt lat="44.05382" lon="3.16022">
        <ele>811.6</ele>
        <time>2019-05-31T10:05:44Z</time>
      </trkpt>
      <trkpt lat="44.05381" lon="3.16032">
        <ele>811.3</ele>
        <time>2019-05-31T10:05:45Z</time>
      </trkpt>
      <trkpt lat="44.05381" lon="3.16042">
        <ele>811</ele>
        <time>2019-05-31T10:05:46Z</time>
      </trkpt>
      <trkpt lat="44.05383" lon="3.16052">
        <ele>810.8</ele>
        <time>2019-05-31T10:05:47Z</time>
      </trkpt>
      <trkpt lat="44.05386" lon="3.16063">
        <ele>810.4</ele>
        <time>2019-05-31T10:05:48Z</time>
      </trkpt>
      <trkpt lat="44.05389" lon="3.16073">
        <ele>810.2</ele>
        <time>2019-05-31T10:05:49Z</time>
      </trkpt>
      <trkpt lat="44.05392" lon="3.16081">
        <ele>810</ele>
        <time>2019-05-31T10:05:50Z</time>
      </trkpt>
      <trkpt lat="44.05395" lon="3.16088">
        <ele>809.8</ele>
        <time>2019-05-31T10:05:51Z</time>
      </trkpt>
      <trkpt lat="44.05396" lon="3.16093">
        <ele>809.7</ele>
        <time>2019-05-31T10:05:52Z</time>
      </trkpt>
      <trkpt lat="44.05398" lon="3.16098">
        <ele>809.6</ele>
        <time>2019-05-31T10:05:53Z</time>
      </trkpt>
      <trkpt lat="44.054" lon="3.16107">
        <ele>809.4</ele>
        <time>2019-05-31T10:05:54Z</time>
      </trkpt>
      <trkpt lat="44.05402" lon="3.16113">
        <ele>809.2</ele>
        <time>2019-05-31T10:05:55Z</time>
      </trkpt>
      <trkpt lat="44.05403" lon="3.1612">
        <ele>809.1</ele>
        <time>2019-05-31T10:05:56Z</time>
      </trkpt>
      <trkpt lat="44.05404" lon="3.16126">
        <ele>808.9</ele>
        <time>2019-05-31T10:05:57Z</time>
      </trkpt>
      <trkpt lat="44.05406" lon="3.16133">
        <ele>808.7</ele>
        <time>2019-05-31T10:05:58Z</time>
      </trkpt>
      <trkpt lat="44.05406" lon="3.16139">
        <ele>808.5</ele>
        <time>2019-05-31T10:05:59Z</time>
      </trkpt>
      <trkpt lat="44.05408" lon="3.16148">
        <ele>808.2</ele>
        <time>2019-05-31T10:06:00Z</time>
      </trkpt>
      <trkpt lat="44.05407" lon="3.16155">
        <ele>807.8</ele>
        <time>2019-05-31T10:06:01Z</time>
      </trkpt>
      <trkpt lat="44.0541" lon="3.16164">
        <ele>807.3</ele>
        <time>2019-05-31T10:06:02Z</time>
      </trkpt>
      <trkpt lat="44.05413" lon="3.16173">
        <ele>806.8</ele>
        <time>2019-05-31T10:06:03Z</time>
      </trkpt>
      <trkpt lat="44.05414" lon="3.16183">
        <ele>806.4</ele>
        <time>2019-05-31T10:06:04Z</time>
      </trkpt>
      <trkpt lat="44.05414" lon="3.16193">
        <ele>806</ele>
        <time>2019-05-31T10:06:05Z</time>
      </trkpt>
      <trkpt lat="44.05414" lon="3.16202">
        <ele>805.6</ele>
        <time>2019-05-31T10:06:06Z</time>
      </trkpt>
      <trkpt lat="44.05414" lon="3.16212">
        <ele>805.3</ele>
        <time>2019-05-31T10:06:07Z</time>
      </trkpt>
      <trkpt lat="44.05415" lon="3.16223">
        <ele>804.8</ele>
        <time>2019-05-31T10:06:08Z</time>
      </trkpt>
      <trkpt lat="44.05417" lon="3.16232">
        <ele>804.4</ele>
        <time>2019-05-31T10:06:09Z</time>
      </trkpt>
      <trkpt lat="44.05419" lon="3.16243">
        <ele>804.1</ele>
        <time>2019-05-31T10:06:10Z</time>
      </trkpt>
      <trkpt lat="44.05418" lon="3.16253">
        <ele>803.8</ele>
        <time>2019-05-31T10:06:11Z</time>
      </trkpt>
      <trkpt lat="44.05419" lon="3.16262">
        <ele>803.5</ele>
        <time>2019-05-31T10:06:12Z</time>
      </trkpt>
      <trkpt lat="44.0542" lon="3.16272">
        <ele>803.2</ele>
        <time>2019-05-31T10:06:13Z</time>
      </trkpt>
      <trkpt lat="44.0542" lon="3.16281">
        <ele>803</ele>
        <time>2019-05-31T10:06:14Z</time>
      </trkpt>
      <trkpt lat="44.05421" lon="3.16288">
        <ele>802.8</ele>
        <time>2019-05-31T10:06:15Z</time>
      </trkpt>
      <trkpt lat="44.05422" lon="3.16294">
        <ele>802.7</ele>
        <time>2019-05-31T10:06:16Z</time>
      </trkpt>
      <trkpt lat="44.05424" lon="3.163">
        <ele>802.5</ele>
        <time>2019-05-31T10:06:17Z</time>
      </trkpt>
      <trkpt lat="44.05426" lon="3.16305">
        <ele>802.4</ele>
        <time>2019-05-31T10:06:18Z</time>
      </trkpt>
      <trkpt lat="44.05427" lon="3.16313">
        <ele>802.3</ele>
        <time>2019-05-31T10:06:19Z</time>
      </trkpt>
      <trkpt lat="44.05429" lon="3.16321">
        <ele>802.2</ele>
        <time>2019-05-31T10:06:20Z</time>
      </trkpt>
      <trkpt lat="44.05431" lon="3.16327">
        <ele>802.1</ele>
        <time>2019-05-31T10:06:21Z</time>
      </trkpt>
      <trkpt lat="44.05432" lon="3.16335">
        <ele>802.1</ele>
        <time>2019-05-31T10:06:22Z</time>
      </trkpt>
      <trkpt lat="44.05434" lon="3.16342">
        <ele>802.1</ele>
        <time>2019-05-31T10:06:23Z</time>
      </trkpt>
      <trkpt lat="44.05437" lon="3.16349">
        <ele>802</ele>
        <time>2019-05-31T10:06:24Z</time>
      </trkpt>
      <trkpt lat="44.05438" lon="3.16356">
        <ele>802</ele>
        <time>2019-05-31T10:06:25Z</time>
      </trkpt>
      <trkpt lat="44.05439" lon="3.16365">
        <ele>802</ele>
        <time>2019-05-31T10:06:26Z</time>
      </trkpt>
      <trkpt lat="44.05441" lon="3.16372">
        <ele>802.1</ele>
        <time>2019-05-31T10:06:27Z</time>
      </trkpt>
      <trkpt lat="44.05445" lon="3.1638">
        <ele>802.1</ele>
        <time>2019-05-31T10:06:28Z</time>
      </trkpt>
      <trkpt lat="44.05448" lon="3.16388">
        <ele>802.1</ele>
        <time>2019-05-31T10:06:29Z</time>
      </trkpt>
      <trkpt lat="44.05451" lon="3.16394">
        <ele>802.2</ele>
        <time>2019-05-31T10:06:30Z</time>
      </trkpt>
      <trkpt lat="44.05455" lon="3.16401">
        <ele>802.3</ele>
        <time>2019-05-31T10:06:31Z</time>
      </trkpt>
      <trkpt lat="44.05459" lon="3.16407">
        <ele>802.3</ele>
        <time>2019-05-31T10:06:32Z</time>
      </trkpt>
      <trkpt lat="44.05464" lon="3.16413">
        <ele>802.4</ele>
        <time>2019-05-31T10:06:33Z</time>
      </trkpt>
      <trkpt lat="44.05468" lon="3.16417">
        <ele>802.5</ele>
        <time>2019-05-31T10:06:34Z</time>
      </trkpt>
      <trkpt lat="44.05472" lon="3.16417">
        <ele>802.5</ele>
        <time>2019-05-31T10:06:35Z</time>
      </trkpt>
      <trkpt lat="44.05477" lon="3.16417">
        <ele>802.6</ele>
        <time>2019-05-31T10:06:36Z</time>
      </trkpt>
      <trkpt lat="44.05483" lon="3.16419">
        <ele>802.7</ele>
        <time>2019-05-31T10:06:37Z</time>
      </trkpt>
      <trkpt lat="44.05487" lon="3.16421">
        <ele>802.8</ele>
        <time>2019-05-31T10:06:38Z</time>
      </trkpt>
      <trkpt lat="44.05489" lon="3.16423">
        <ele>802.8</ele>
        <time>2019-05-31T10:06:39Z</time>
      </trkpt>
      <trkpt lat="44.05492" lon="3.16425">
        <ele>802.9</ele>
        <time>2019-05-31T10:06:40Z</time>
      </trkpt>
      <trkpt lat="44.05491" lon="3.16429">
        <ele>802.9</ele>
        <time>2019-05-31T10:06:41Z</time>
      </trkpt>
      <trkpt lat="44.05494" lon="3.16432">
        <ele>803</ele>
        <time>2019-05-31T10:06:42Z</time>
      </trkpt>
      <trkpt lat="44.05494" lon="3.16437">
        <ele>803</ele>
        <time>2019-05-31T10:06:43Z</time>
      </trkpt>
      <trkpt lat="44.05494" lon="3.16441">
        <ele>803.1</ele>
        <time>2019-05-31T10:06:44Z</time>
      </trkpt>
      <trkpt lat="44.05494" lon="3.16444">
        <ele>803.2</ele>
        <time>2019-05-31T10:06:45Z</time>
      </trkpt>
      <trkpt lat="44.05496" lon="3.16449">
        <ele>803.3</ele>
        <time>2019-05-31T10:06:46Z</time>
      </trkpt>
      <trkpt lat="44.05496" lon="3.16455">
        <ele>803.3</ele>
        <time>2019-05-31T10:06:47Z</time>
      </trkpt>
      <trkpt lat="44.05497" lon="3.16459">
        <ele>803.4</ele>
        <time>2019-05-31T10:06:48Z</time>
      </trkpt>
      <trkpt lat="44.05497" lon="3.16464">
        <ele>803.4</ele>
        <time>2019-05-31T10:06:49Z</time>
      </trkpt>
      <trkpt lat="44.05497" lon="3.16469">
        <ele>803.5</ele>
        <time>2019-05-31T10:06:50Z</time>
      </trkpt>
      <trkpt lat="44.05496" lon="3.16474">
        <ele>803.5</ele>
        <time>2019-05-31T10:06:51Z</time>
      </trkpt>
      <trkpt lat="44.05496" lon="3.16479">
        <ele>803.5</ele>
        <time>2019-05-31T10:06:52Z</time>
      </trkpt>
      <trkpt lat="44.05495" lon="3.16484">
        <ele>803.5</ele>
        <time>2019-05-31T10:06:53Z</time>
      </trkpt>
      <trkpt lat="44.05493" lon="3.16489">
        <ele>803.5</ele>
        <time>2019-05-31T10:06:54Z</time>
      </trkpt>
      <trkpt lat="44.05492" lon="3.16494">
        <ele>803.5</ele>
        <time>2019-05-31T10:06:55Z</time>
      </trkpt>
      <trkpt lat="44.05491" lon="3.16498">
        <ele>803.5</ele>
        <time>2019-05-31T10:06:56Z</time>
      </trkpt>
      <trkpt lat="44.05488" lon="3.16499">
        <ele>803.5</ele>
        <time>2019-05-31T10:06:57Z</time>
      </trkpt>
      <trkpt lat="44.05488" lon="3.16505">
        <ele>803.5</ele>
        <time>2019-05-31T10:06:58Z</time>
      </trkpt>
      <trkpt lat="44.05486" lon="3.16512">
        <ele>803.4</ele>
        <time>2019-05-31T10:06:59Z</time>
      </trkpt>
      <trkpt lat="44.05485" lon="3.1652">
        <ele>803.3</ele>
        <time>2019-05-31T10:07:00Z</time>
      </trkpt>
      <trkpt lat="44.05483" lon="3.16528">
        <ele>803.2</ele>
        <time>2019-05-31T10:07:01Z</time>
      </trkpt>
      <trkpt lat="44.05483" lon="3.16535">
        <ele>803</ele>
        <time>2019-05-31T10:07:02Z</time>
      </trkpt>
      <trkpt lat="44.05485" lon="3.16544">
        <ele>802.7</ele>
        <time>2019-05-31T10:07:03Z</time>
      </trkpt>
      <trkpt lat="44.05486" lon="3.16551">
        <ele>802.4</ele>
        <time>2019-05-31T10:07:04Z</time>
      </trkpt>
      <trkpt lat="44.05489" lon="3.16559">
        <ele>802.1</ele>
        <time>2019-05-31T10:07:05Z</time>
      </trkpt>
      <trkpt lat="44.05492" lon="3.16568">
        <ele>801.7</ele>
        <time>2019-05-31T10:07:06Z</time>
      </trkpt>
      <trkpt lat="44.05495" lon="3.16575">
        <ele>801.5</ele>
        <time>2019-05-31T10:07:07Z</time>
      </trkpt>
      <trkpt lat="44.05497" lon="3.16582">
        <ele>801.2</ele>
        <time>2019-05-31T10:07:08Z</time>
      </trkpt>
      <trkpt lat="44.055" lon="3.16588">
        <ele>801</ele>
        <time>2019-05-31T10:07:09Z</time>
      </trkpt>
      <trkpt lat="44.05502" lon="3.16595">
        <ele>800.8</ele>
        <time>2019-05-31T10:07:10Z</time>
      </trkpt>
      <trkpt lat="44.05506" lon="3.166">
        <ele>800.6</ele>
        <time>2019-05-31T10:07:11Z</time>
      </trkpt>
      <trkpt lat="44.05511" lon="3.16605">
        <ele>800.4</ele>
        <time>2019-05-31T10:07:12Z</time>
      </trkpt>
      <trkpt lat="44.05515" lon="3.1661">
        <ele>800.3</ele>
        <time>2019-05-31T10:07:13Z</time>
      </trkpt>
      <trkpt lat="44.0552" lon="3.16615">
        <ele>800.1</ele>
        <time>2019-05-31T10:07:14Z</time>
      </trkpt>
      <trkpt lat="44.05526" lon="3.16619">
        <ele>800</ele>
        <time>2019-05-31T10:07:15Z</time>
      </trkpt>
      <trkpt lat="44.05532" lon="3.16623">
        <ele>799.8</ele>
        <time>2019-05-31T10:07:16Z</time>
      </trkpt>
      <trkpt lat="44.05537" lon="3.16626">
        <ele>799.7</ele>
        <time>2019-05-31T10:07:17Z</time>
      </trkpt>
      <trkpt lat="44.05541" lon="3.1663">
        <ele>799.6</ele>
        <time>2019-05-31T10:07:18Z</time>
      </trkpt>
      <trkpt lat="44.05547" lon="3.16633">
        <ele>799.4</ele>
        <time>2019-05-31T10:07:19Z</time>
      </trkpt>
      <trkpt lat="44.05555" lon="3.16635">
        <ele>799.2</ele>
        <time>2019-05-31T10:07:20Z</time>
      </trkpt>
      <trkpt lat="44.0556" lon="3.16637">
        <ele>799.1</ele>
        <time>2019-05-31T10:07:21Z</time>
      </trkpt>
      <trkpt lat="44.05565" lon="3.16639">
        <ele>799</ele>
        <time>2019-05-31T10:07:22Z</time>
      </trkpt>
      <trkpt lat="44.05571" lon="3.1664">
        <ele>798.9</ele>
        <time>2019-05-31T10:07:23Z</time>
      </trkpt>
      <trkpt lat="44.05576" lon="3.16642">
        <ele>798.8</ele>
        <time>2019-05-31T10:07:24Z</time>
      </trkpt>
      <trkpt lat="44.05581" lon="3.16643">
        <ele>798.6</ele>
        <time>2019-05-31T10:07:25Z</time>
      </trkpt>
      <trkpt lat="44.05586" lon="3.16645">
        <ele>798.5</ele>
        <time>2019-05-31T10:07:26Z</time>
      </trkpt>
      <trkpt lat="44.05591" lon="3.16646">
        <ele>798.4</ele>
        <time>2019-05-31T10:07:27Z</time>
      </trkpt>
      <trkpt lat="44.05597" lon="3.16642">
        <ele>798.2</ele>
        <time>2019-05-31T10:07:28Z</time>
      </trkpt>
      <trkpt lat="44.05602" lon="3.16643">
        <ele>798.1</ele>
        <time>2019-05-31T10:07:29Z</time>
      </trkpt>
      <trkpt lat="44.05607" lon="3.16645">
        <ele>798</ele>
        <time>2019-05-31T10:07:30Z</time>
      </trkpt>
      <trkpt lat="44.05612" lon="3.16647">
        <ele>798</ele>
        <time>2019-05-31T10:07:31Z</time>
      </trkpt>
      <trkpt lat="44.05615" lon="3.16647">
        <ele>797.9</ele>
        <time>2019-05-31T10:07:32Z</time>
      </trkpt>
      <trkpt lat="44.05619" lon="3.16646">
        <ele>797.9</ele>
        <time>2019-05-31T10:07:33Z</time>
      </trkpt>
      <trkpt lat="44.05623" lon="3.16646">
        <ele>797.9</ele>
        <time>2019-05-31T10:07:34Z</time>
      </trkpt>
      <trkpt lat="44.05627" lon="3.1665">
        <ele>797.9</ele>
        <time>2019-05-31T10:07:35Z</time>
      </trkpt>
      <trkpt lat="44.0563" lon="3.1665">
        <ele>797.9</ele>
        <time>2019-05-31T10:07:36Z</time>
      </trkpt>
      <trkpt lat="44.05633" lon="3.16652">
        <ele>797.9</ele>
        <time>2019-05-31T10:07:37Z</time>
      </trkpt>
      <trkpt lat="44.05636" lon="3.16655">
        <ele>797.9</ele>
        <time>2019-05-31T10:07:38Z</time>
      </trkpt>
      <trkpt lat="44.05641" lon="3.16657">
        <ele>797.9</ele>
        <time>2019-05-31T10:07:39Z</time>
      </trkpt>
      <trkpt lat="44.05644" lon="3.16661">
        <ele>797.9</ele>
        <time>2019-05-31T10:07:40Z</time>
      </trkpt>
      <trkpt lat="44.05648" lon="3.16663">
        <ele>798</ele>
        <time>2019-05-31T10:07:41Z</time>
      </trkpt>
      <trkpt lat="44.05652" lon="3.16665">
        <ele>798</ele>
        <time>2019-05-31T10:07:42Z</time>
      </trkpt>
      <trkpt lat="44.05655" lon="3.16667">
        <ele>798.1</ele>
        <time>2019-05-31T10:07:43Z</time>
      </trkpt>
      <trkpt lat="44.05659" lon="3.16669">
        <ele>798.1</ele>
        <time>2019-05-31T10:07:44Z</time>
      </trkpt>
      <trkpt lat="44.05665" lon="3.16671">
        <ele>798.2</ele>
        <time>2019-05-31T10:07:46Z</time>
      </trkpt>
      <trkpt lat="44.0567" lon="3.16673">
        <ele>798.2</ele>
        <time>2019-05-31T10:07:47Z</time>
      </trkpt>
      <trkpt lat="44.05675" lon="3.16675">
        <ele>798.3</ele>
        <time>2019-05-31T10:07:48Z</time>
      </trkpt>
      <trkpt lat="44.05681" lon="3.16676">
        <ele>798.3</ele>
        <time>2019-05-31T10:07:49Z</time>
      </trkpt>
      <trkpt lat="44.05686" lon="3.16678">
        <ele>798.3</ele>
        <time>2019-05-31T10:07:50Z</time>
      </trkpt>
      <trkpt lat="44.05692" lon="3.16676">
        <ele>798.4</ele>
        <time>2019-05-31T10:07:51Z</time>
      </trkpt>
      <trkpt lat="44.05697" lon="3.16677">
        <ele>798.4</ele>
        <time>2019-05-31T10:07:52Z</time>
      </trkpt>
      <trkpt lat="44.05702" lon="3.16679">
        <ele>798.4</ele>
        <time>2019-05-31T10:07:53Z</time>
      </trkpt>
      <trkpt lat="44.05708" lon="3.16682">
        <ele>798.4</ele>
        <time>2019-05-31T10:07:54Z</time>
      </trkpt>
      <trkpt lat="44.05712" lon="3.16683">
        <ele>798.3</ele>
        <time>2019-05-31T10:07:55Z</time>
      </trkpt>
      <trkpt lat="44.05718" lon="3.16684">
        <ele>798.3</ele>
        <time>2019-05-31T10:07:56Z</time>
      </trkpt>
      <trkpt lat="44.05724" lon="3.16686">
        <ele>798.2</ele>
        <time>2019-05-31T10:07:57Z</time>
      </trkpt>
      <trkpt lat="44.05729" lon="3.16688">
        <ele>798.1</ele>
        <time>2019-05-31T10:07:58Z</time>
      </trkpt>
      <trkpt lat="44.05734" lon="3.16689">
        <ele>798.1</ele>
        <time>2019-05-31T10:07:59Z</time>
      </trkpt>
      <trkpt lat="44.05739" lon="3.16691">
        <ele>798</ele>
        <time>2019-05-31T10:08:00Z</time>
      </trkpt>
      <trkpt lat="44.05745" lon="3.16691">
        <ele>797.9</ele>
        <time>2019-05-31T10:08:01Z</time>
      </trkpt>
      <trkpt lat="44.0575" lon="3.16691">
        <ele>797.8</ele>
        <time>2019-05-31T10:08:02Z</time>
      </trkpt>
      <trkpt lat="44.05753" lon="3.16692">
        <ele>797.8</ele>
        <time>2019-05-31T10:08:03Z</time>
      </trkpt>
      <trkpt lat="44.05758" lon="3.16697">
        <ele>797.6</ele>
        <time>2019-05-31T10:08:05Z</time>
      </trkpt>
      <trkpt lat="44.05761" lon="3.16699">
        <ele>797.6</ele>
        <time>2019-05-31T10:08:06Z</time>
      </trkpt>
      <trkpt lat="44.05763" lon="3.16703">
        <ele>797.5</ele>
        <time>2019-05-31T10:08:07Z</time>
      </trkpt>
      <trkpt lat="44.05767" lon="3.16705">
        <ele>797.4</ele>
        <time>2019-05-31T10:08:08Z</time>
      </trkpt>
      <trkpt lat="44.05769" lon="3.16711">
        <ele>797.3</ele>
        <time>2019-05-31T10:08:09Z</time>
      </trkpt>
      <trkpt lat="44.05774" lon="3.16716">
        <ele>797.2</ele>
        <time>2019-05-31T10:08:10Z</time>
      </trkpt>
      <trkpt lat="44.05776" lon="3.16721">
        <ele>797.1</ele>
        <time>2019-05-31T10:08:11Z</time>
      </trkpt>
      <trkpt lat="44.05779" lon="3.16726">
        <ele>797</ele>
        <time>2019-05-31T10:08:12Z</time>
      </trkpt>
      <trkpt lat="44.05783" lon="3.1673">
        <ele>796.9</ele>
        <time>2019-05-31T10:08:13Z</time>
      </trkpt>
      <trkpt lat="44.05785" lon="3.16734">
        <ele>796.8</ele>
        <time>2019-05-31T10:08:14Z</time>
      </trkpt>
      <trkpt lat="44.05788" lon="3.16739">
        <ele>796.7</ele>
        <time>2019-05-31T10:08:15Z</time>
      </trkpt>
      <trkpt lat="44.05789" lon="3.16745">
        <ele>796.6</ele>
        <time>2019-05-31T10:08:17Z</time>
      </trkpt>
      <trkpt lat="44.05794" lon="3.16751">
        <ele>796.5</ele>
        <time>2019-05-31T10:08:18Z</time>
      </trkpt>
      <trkpt lat="44.05795" lon="3.16756">
        <ele>796.4</ele>
        <time>2019-05-31T10:08:19Z</time>
      </trkpt>
      <trkpt lat="44.05797" lon="3.16762">
        <ele>796.4</ele>
        <time>2019-05-31T10:08:20Z</time>
      </trkpt>
      <trkpt lat="44.05797" lon="3.16766">
        <ele>796.3</ele>
        <time>2019-05-31T10:08:21Z</time>
      </trkpt>
      <trkpt lat="44.05799" lon="3.16772">
        <ele>796.3</ele>
        <time>2019-05-31T10:08:22Z</time>
      </trkpt>
      <trkpt lat="44.05804" lon="3.16781">
        <ele>796.1</ele>
        <time>2019-05-31T10:08:23Z</time>
      </trkpt>
      <trkpt lat="44.05805" lon="3.16787">
        <ele>796</ele>
        <time>2019-05-31T10:08:24Z</time>
      </trkpt>
      <trkpt lat="44.05808" lon="3.16795">
        <ele>795.7</ele>
        <time>2019-05-31T10:08:25Z</time>
      </trkpt>
      <trkpt lat="44.05809" lon="3.16804">
        <ele>795.4</ele>
        <time>2019-05-31T10:08:26Z</time>
      </trkpt>
      <trkpt lat="44.05812" lon="3.16813">
        <ele>795.1</ele>
        <time>2019-05-31T10:08:27Z</time>
      </trkpt>
      <trkpt lat="44.05817" lon="3.16823">
        <ele>794.8</ele>
        <time>2019-05-31T10:08:28Z</time>
      </trkpt>
      <trkpt lat="44.0582" lon="3.16831">
        <ele>794.7</ele>
        <time>2019-05-31T10:08:29Z</time>
      </trkpt>
      <trkpt lat="44.05822" lon="3.16839">
        <ele>794.5</ele>
        <time>2019-05-31T10:08:30Z</time>
      </trkpt>
      <trkpt lat="44.05824" lon="3.16846">
        <ele>794.4</ele>
        <time>2019-05-31T10:08:31Z</time>
      </trkpt>
      <trkpt lat="44.05827" lon="3.16854">
        <ele>794.4</ele>
        <time>2019-05-31T10:08:32Z</time>
      </trkpt>
      <trkpt lat="44.05829" lon="3.16861">
        <ele>794.3</ele>
        <time>2019-05-31T10:08:33Z</time>
      </trkpt>
      <trkpt lat="44.05832" lon="3.16867">
        <ele>794.2</ele>
        <time>2019-05-31T10:08:34Z</time>
      </trkpt>
      <trkpt lat="44.05835" lon="3.16875">
        <ele>794.2</ele>
        <time>2019-05-31T10:08:35Z</time>
      </trkpt>
      <trkpt lat="44.05837" lon="3.16883">
        <ele>794.1</ele>
        <time>2019-05-31T10:08:36Z</time>
      </trkpt>
      <trkpt lat="44.05839" lon="3.16889">
        <ele>794.1</ele>
        <time>2019-05-31T10:08:37Z</time>
      </trkpt>
      <trkpt lat="44.05841" lon="3.16895">
        <ele>794.1</ele>
        <time>2019-05-31T10:08:38Z</time>
      </trkpt>
      <trkpt lat="44.05843" lon="3.16904">
        <ele>794</ele>
        <time>2019-05-31T10:08:39Z</time>
      </trkpt>
      <trkpt lat="44.05845" lon="3.16912">
        <ele>794</ele>
        <time>2019-05-31T10:08:40Z</time>
      </trkpt>
      <trkpt lat="44.05848" lon="3.1692">
        <ele>794</ele>
        <time>2019-05-31T10:08:41Z</time>
      </trkpt>
      <trkpt lat="44.05847" lon="3.16926">
        <ele>794</ele>
        <time>2019-05-31T10:08:42Z</time>
      </trkpt>
      <trkpt lat="44.0585" lon="3.16933">
        <ele>794</ele>
        <time>2019-05-31T10:08:43Z</time>
      </trkpt>
      <trkpt lat="44.05851" lon="3.1694">
        <ele>794</ele>
        <time>2019-05-31T10:08:44Z</time>
      </trkpt>
      <trkpt lat="44.05852" lon="3.16948">
        <ele>794.1</ele>
        <time>2019-05-31T10:08:45Z</time>
      </trkpt>
      <trkpt lat="44.05853" lon="3.16954">
        <ele>794.1</ele>
        <time>2019-05-31T10:08:46Z</time>
      </trkpt>
      <trkpt lat="44.05854" lon="3.16961">
        <ele>794.2</ele>
        <time>2019-05-31T10:08:47Z</time>
      </trkpt>
      <trkpt lat="44.05854" lon="3.16969">
        <ele>794.4</ele>
        <time>2019-05-31T10:08:48Z</time>
      </trkpt>
      <trkpt lat="44.05855" lon="3.16975">
        <ele>794.4</ele>
        <time>2019-05-31T10:08:49Z</time>
      </trkpt>
      <trkpt lat="44.05858" lon="3.1698">
        <ele>794.5</ele>
        <time>2019-05-31T10:08:50Z</time>
      </trkpt>
      <trkpt lat="44.05859" lon="3.16986">
        <ele>794.6</ele>
        <time>2019-05-31T10:08:51Z</time>
      </trkpt>
      <trkpt lat="44.05861" lon="3.16992">
        <ele>794.7</ele>
        <time>2019-05-31T10:08:52Z</time>
      </trkpt>
      <trkpt lat="44.05863" lon="3.16998">
        <ele>794.8</ele>
        <time>2019-05-31T10:08:53Z</time>
      </trkpt>
      <trkpt lat="44.05865" lon="3.17005">
        <ele>795</ele>
        <time>2019-05-31T10:08:54Z</time>
      </trkpt>
      <trkpt lat="44.05867" lon="3.17011">
        <ele>795.1</ele>
        <time>2019-05-31T10:08:55Z</time>
      </trkpt>
      <trkpt lat="44.05868" lon="3.1702">
        <ele>795.3</ele>
        <time>2019-05-31T10:08:56Z</time>
      </trkpt>
      <trkpt lat="44.0587" lon="3.17029">
        <ele>795.6</ele>
        <time>2019-05-31T10:08:57Z</time>
      </trkpt>
      <trkpt lat="44.05872" lon="3.17033">
        <ele>795.7</ele>
        <time>2019-05-31T10:08:58Z</time>
      </trkpt>
      <trkpt lat="44.05874" lon="3.17039">
        <ele>795.8</ele>
        <time>2019-05-31T10:08:59Z</time>
      </trkpt>
      <trkpt lat="44.05876" lon="3.17047">
        <ele>796.1</ele>
        <time>2019-05-31T10:09:00Z</time>
      </trkpt>
      <trkpt lat="44.0588" lon="3.17054">
        <ele>796.3</ele>
        <time>2019-05-31T10:09:01Z</time>
      </trkpt>
      <trkpt lat="44.05884" lon="3.17061">
        <ele>796.6</ele>
        <time>2019-05-31T10:09:02Z</time>
      </trkpt>
      <trkpt lat="44.05888" lon="3.17069">
        <ele>796.8</ele>
        <time>2019-05-31T10:09:03Z</time>
      </trkpt>
      <trkpt lat="44.05891" lon="3.17076">
        <ele>797</ele>
        <time>2019-05-31T10:09:04Z</time>
      </trkpt>
      <trkpt lat="44.05895" lon="3.17084">
        <ele>797.2</ele>
        <time>2019-05-31T10:09:05Z</time>
      </trkpt>
      <trkpt lat="44.05899" lon="3.17092">
        <ele>797.3</ele>
        <time>2019-05-31T10:09:06Z</time>
      </trkpt>
      <trkpt lat="44.05904" lon="3.17102">
        <ele>797.5</ele>
        <time>2019-05-31T10:09:07Z</time>
      </trkpt>
      <trkpt lat="44.05907" lon="3.17112">
        <ele>797.5</ele>
        <time>2019-05-31T10:09:08Z</time>
      </trkpt>
      <trkpt lat="44.05909" lon="3.1712">
        <ele>797.6</ele>
        <time>2019-05-31T10:09:09Z</time>
      </trkpt>
      <trkpt lat="44.05911" lon="3.17127">
        <ele>797.6</ele>
        <time>2019-05-31T10:09:10Z</time>
      </trkpt>
      <trkpt lat="44.05908" lon="3.17132">
        <ele>797.6</ele>
        <time>2019-05-31T10:09:11Z</time>
      </trkpt>
      <trkpt lat="44.05908" lon="3.17138">
        <ele>797.5</ele>
        <time>2019-05-31T10:09:12Z</time>
      </trkpt>
      <trkpt lat="44.05909" lon="3.17145">
        <ele>797.5</ele>
        <time>2019-05-31T10:09:13Z</time>
      </trkpt>
      <trkpt lat="44.05911" lon="3.1715">
        <ele>797.4</ele>
        <time>2019-05-31T10:09:14Z</time>
      </trkpt>
      <trkpt lat="44.05912" lon="3.17155">
        <ele>797.4</ele>
        <time>2019-05-31T10:09:15Z</time>
      </trkpt>
      <trkpt lat="44.05916" lon="3.17161">
        <ele>797.2</ele>
        <time>2019-05-31T10:09:16Z</time>
      </trkpt>
      <trkpt lat="44.05918" lon="3.17165">
        <ele>797.1</ele>
        <time>2019-05-31T10:09:17Z</time>
      </trkpt>
      <trkpt lat="44.05919" lon="3.1717">
        <ele>797</ele>
        <time>2019-05-31T10:09:18Z</time>
      </trkpt>
      <trkpt lat="44.05924" lon="3.17175">
        <ele>796.8</ele>
        <time>2019-05-31T10:09:19Z</time>
      </trkpt>
      <trkpt lat="44.0593" lon="3.17179">
        <ele>796.6</ele>
        <time>2019-05-31T10:09:20Z</time>
      </trkpt>
      <trkpt lat="44.05936" lon="3.17183">
        <ele>796.3</ele>
        <time>2019-05-31T10:09:21Z</time>
      </trkpt>
      <trkpt lat="44.0594" lon="3.17186">
        <ele>796.1</ele>
        <time>2019-05-31T10:09:22Z</time>
      </trkpt>
      <trkpt lat="44.05942" lon="3.1719">
        <ele>796</ele>
        <time>2019-05-31T10:09:23Z</time>
      </trkpt>
      <trkpt lat="44.05945" lon="3.17192">
        <ele>795.8</ele>
        <time>2019-05-31T10:09:24Z</time>
      </trkpt>
      <trkpt lat="44.05948" lon="3.17195">
        <ele>795.6</ele>
        <time>2019-05-31T10:09:25Z</time>
      </trkpt>
      <trkpt lat="44.0595" lon="3.17198">
        <ele>795.5</ele>
        <time>2019-05-31T10:09:26Z</time>
      </trkpt>
      <trkpt lat="44.05953" lon="3.17202">
        <ele>795.3</ele>
        <time>2019-05-31T10:09:27Z</time>
      </trkpt>
      <trkpt lat="44.05955" lon="3.17204">
        <ele>795.1</ele>
        <time>2019-05-31T10:09:28Z</time>
      </trkpt>
      <trkpt lat="44.05958" lon="3.17207">
        <ele>795</ele>
        <time>2019-05-31T10:09:29Z</time>
      </trkpt>
      <trkpt lat="44.05961" lon="3.17209">
        <ele>794.8</ele>
        <time>2019-05-31T10:09:30Z</time>
      </trkpt>
      <trkpt lat="44.05964" lon="3.17212">
        <ele>794.7</ele>
        <time>2019-05-31T10:09:31Z</time>
      </trkpt>
      <trkpt lat="44.05967" lon="3.17214">
        <ele>794.6</ele>
        <time>2019-05-31T10:09:32Z</time>
      </trkpt>
      <trkpt lat="44.0597" lon="3.17217">
        <ele>794.4</ele>
        <time>2019-05-31T10:09:33Z</time>
      </trkpt>
      <trkpt lat="44.05973" lon="3.17221">
        <ele>794.3</ele>
        <time>2019-05-31T10:09:34Z</time>
      </trkpt>
      <trkpt lat="44.05976" lon="3.17224">
        <ele>794.3</ele>
        <time>2019-05-31T10:09:35Z</time>
      </trkpt>
      <trkpt lat="44.05979" lon="3.17227">
        <ele>794.2</ele>
        <time>2019-05-31T10:09:36Z</time>
      </trkpt>
      <trkpt lat="44.05982" lon="3.1723">
        <ele>794.2</ele>
        <time>2019-05-31T10:09:37Z</time>
      </trkpt>
      <trkpt lat="44.05984" lon="3.17234">
        <ele>794.2</ele>
        <time>2019-05-31T10:09:38Z</time>
      </trkpt>
      <trkpt lat="44.05987" lon="3.17238">
        <ele>794.1</ele>
        <time>2019-05-31T10:09:39Z</time>
      </trkpt>
      <trkpt lat="44.05989" lon="3.17241">
        <ele>794.2</ele>
        <time>2019-05-31T10:09:40Z</time>
      </trkpt>
      <trkpt lat="44.05991" lon="3.17243">
        <ele>794.2</ele>
        <time>2019-05-31T10:09:41Z</time>
      </trkpt>
      <trkpt lat="44.05994" lon="3.17248">
        <ele>794.2</ele>
        <time>2019-05-31T10:09:43Z</time>
      </trkpt>
      <trkpt lat="44.05996" lon="3.17251">
        <ele>794.3</ele>
        <time>2019-05-31T10:09:44Z</time>
      </trkpt>
      <trkpt lat="44.05999" lon="3.17255">
        <ele>794.3</ele>
        <time>2019-05-31T10:09:45Z</time>
      </trkpt>
      <trkpt lat="44.06001" lon="3.17258">
        <ele>794.3</ele>
        <time>2019-05-31T10:09:46Z</time>
      </trkpt>
      <trkpt lat="44.06004" lon="3.17261">
        <ele>794.4</ele>
        <time>2019-05-31T10:09:47Z</time>
      </trkpt>
      <trkpt lat="44.06006" lon="3.17264">
        <ele>794.5</ele>
        <time>2019-05-31T10:09:48Z</time>
      </trkpt>
      <trkpt lat="44.06008" lon="3.17267">
        <ele>794.6</ele>
        <time>2019-05-31T10:09:49Z</time>
      </trkpt>
      <trkpt lat="44.0601" lon="3.1727">
        <ele>794.7</ele>
        <time>2019-05-31T10:09:50Z</time>
      </trkpt>
      <trkpt lat="44.06012" lon="3.17272">
        <ele>794.8</ele>
        <time>2019-05-31T10:09:51Z</time>
      </trkpt>
      <trkpt lat="44.06014" lon="3.17275">
        <ele>794.9</ele>
        <time>2019-05-31T10:09:52Z</time>
      </trkpt>
      <trkpt lat="44.06017" lon="3.1728">
        <ele>795.1</ele>
        <time>2019-05-31T10:09:54Z</time>
      </trkpt>
      <trkpt lat="44.06019" lon="3.17285">
        <ele>795.2</ele>
        <time>2019-05-31T10:09:56Z</time>
      </trkpt>
      <trkpt lat="44.06023" lon="3.17291">
        <ele>795.4</ele>
        <time>2019-05-31T10:09:58Z</time>
      </trkpt>
      <trkpt lat="44.06025" lon="3.17295">
        <ele>795.5</ele>
        <time>2019-05-31T10:09:59Z</time>
      </trkpt>
      <trkpt lat="44.06027" lon="3.17298">
        <ele>795.7</ele>
        <time>2019-05-31T10:10:00Z</time>
      </trkpt>
      <trkpt lat="44.06029" lon="3.17301">
        <ele>795.8</ele>
        <time>2019-05-31T10:10:01Z</time>
      </trkpt>
      <trkpt lat="44.06032" lon="3.17305">
        <ele>795.9</ele>
        <time>2019-05-31T10:10:02Z</time>
      </trkpt>
      <trkpt lat="44.06033" lon="3.17309">
        <ele>796</ele>
        <time>2019-05-31T10:10:03Z</time>
      </trkpt>
      <trkpt lat="44.06035" lon="3.17312">
        <ele>796.1</ele>
        <time>2019-05-31T10:10:04Z</time>
      </trkpt>
      <trkpt lat="44.06037" lon="3.17317">
        <ele>796.2</ele>
        <time>2019-05-31T10:10:05Z</time>
      </trkpt>
      <trkpt lat="44.06038" lon="3.17321">
        <ele>796.3</ele>
        <time>2019-05-31T10:10:06Z</time>
      </trkpt>
      <trkpt lat="44.06041" lon="3.17327">
        <ele>796.5</ele>
        <time>2019-05-31T10:10:08Z</time>
      </trkpt>
      <trkpt lat="44.06043" lon="3.17333">
        <ele>796.6</ele>
        <time>2019-05-31T10:10:10Z</time>
      </trkpt>
      <trkpt lat="44.06044" lon="3.17337">
        <ele>796.8</ele>
        <time>2019-05-31T10:10:11Z</time>
      </trkpt>
      <trkpt lat="44.06045" lon="3.17343">
        <ele>796.9</ele>
        <time>2019-05-31T10:10:12Z</time>
      </trkpt>
      <trkpt lat="44.06047" lon="3.17349">
        <ele>797.1</ele>
        <time>2019-05-31T10:10:13Z</time>
      </trkpt>
      <trkpt lat="44.06049" lon="3.17354">
        <ele>797.2</ele>
        <time>2019-05-31T10:10:14Z</time>
      </trkpt>
      <trkpt lat="44.06052" lon="3.17359">
        <ele>797.3</ele>
        <time>2019-05-31T10:10:15Z</time>
      </trkpt>
      <trkpt lat="44.06054" lon="3.17364">
        <ele>797.5</ele>
        <time>2019-05-31T10:10:16Z</time>
      </trkpt>
      <trkpt lat="44.06055" lon="3.17369">
        <ele>797.6</ele>
        <time>2019-05-31T10:10:17Z</time>
      </trkpt>
      <trkpt lat="44.06055" lon="3.17375">
        <ele>797.7</ele>
        <time>2019-05-31T10:10:18Z</time>
      </trkpt>
      <trkpt lat="44.06055" lon="3.17379">
        <ele>797.8</ele>
        <time>2019-05-31T10:10:19Z</time>
      </trkpt>
      <trkpt lat="44.06055" lon="3.17384">
        <ele>797.9</ele>
        <time>2019-05-31T10:10:20Z</time>
      </trkpt>
      <trkpt lat="44.06055" lon="3.17391">
        <ele>798.1</ele>
        <time>2019-05-31T10:10:21Z</time>
      </trkpt>
      <trkpt lat="44.06057" lon="3.17398">
        <ele>798.3</ele>
        <time>2019-05-31T10:10:22Z</time>
      </trkpt>
      <trkpt lat="44.06058" lon="3.17405">
        <ele>798.6</ele>
        <time>2019-05-31T10:10:23Z</time>
      </trkpt>
      <trkpt lat="44.06059" lon="3.17411">
        <ele>798.7</ele>
        <time>2019-05-31T10:10:24Z</time>
      </trkpt>
      <trkpt lat="44.06059" lon="3.17425">
        <ele>798.9</ele>
        <time>2019-05-31T10:10:25Z</time>
      </trkpt>
      <trkpt lat="44.06059" lon="3.1743">
        <ele>799</ele>
        <time>2019-05-31T10:10:26Z</time>
      </trkpt>
      <trkpt lat="44.0606" lon="3.17438">
        <ele>799.1</ele>
        <time>2019-05-31T10:10:27Z</time>
      </trkpt>
      <trkpt lat="44.0606" lon="3.17448">
        <ele>799.4</ele>
        <time>2019-05-31T10:10:28Z</time>
      </trkpt>
      <trkpt lat="44.06059" lon="3.17457">
        <ele>799.6</ele>
        <time>2019-05-31T10:10:29Z</time>
      </trkpt>
      <trkpt lat="44.06059" lon="3.17466">
        <ele>799.8</ele>
        <time>2019-05-31T10:10:30Z</time>
      </trkpt>
      <trkpt lat="44.06058" lon="3.17473">
        <ele>800</ele>
        <time>2019-05-31T10:10:31Z</time>
      </trkpt>
      <trkpt lat="44.06058" lon="3.17482">
        <ele>800.1</ele>
        <time>2019-05-31T10:10:32Z</time>
      </trkpt>
      <trkpt lat="44.06058" lon="3.1749">
        <ele>800.3</ele>
        <time>2019-05-31T10:10:33Z</time>
      </trkpt>
      <trkpt lat="44.06057" lon="3.17499">
        <ele>800.5</ele>
        <time>2019-05-31T10:10:34Z</time>
      </trkpt>
      <trkpt lat="44.06057" lon="3.17504">
        <ele>800.5</ele>
        <time>2019-05-31T10:10:35Z</time>
      </trkpt>
      <trkpt lat="44.06055" lon="3.17513">
        <ele>800.7</ele>
        <time>2019-05-31T10:10:36Z</time>
      </trkpt>
      <trkpt lat="44.06056" lon="3.17519">
        <ele>800.8</ele>
        <time>2019-05-31T10:10:37Z</time>
      </trkpt>
      <trkpt lat="44.06056" lon="3.17529">
        <ele>800.9</ele>
        <time>2019-05-31T10:10:38Z</time>
      </trkpt>
      <trkpt lat="44.06056" lon="3.17537">
        <ele>801</ele>
        <time>2019-05-31T10:10:39Z</time>
      </trkpt>
      <trkpt lat="44.06056" lon="3.17545">
        <ele>801.1</ele>
        <time>2019-05-31T10:10:40Z</time>
      </trkpt>
      <trkpt lat="44.06055" lon="3.17553">
        <ele>801.1</ele>
        <time>2019-05-31T10:10:41Z</time>
      </trkpt>
      <trkpt lat="44.06053" lon="3.1756">
        <ele>801.1</ele>
        <time>2019-05-31T10:10:42Z</time>
      </trkpt>
      <trkpt lat="44.06052" lon="3.17571">
        <ele>801.1</ele>
        <time>2019-05-31T10:10:43Z</time>
      </trkpt>
      <trkpt lat="44.06054" lon="3.17578">
        <ele>801.1</ele>
        <time>2019-05-31T10:10:44Z</time>
      </trkpt>
      <trkpt lat="44.06056" lon="3.17588">
        <ele>801</ele>
        <time>2019-05-31T10:10:45Z</time>
      </trkpt>
      <trkpt lat="44.06055" lon="3.17597">
        <ele>801</ele>
        <time>2019-05-31T10:10:46Z</time>
      </trkpt>
      <trkpt lat="44.06056" lon="3.17607">
        <ele>800.8</ele>
        <time>2019-05-31T10:10:47Z</time>
      </trkpt>
      <trkpt lat="44.06052" lon="3.17616">
        <ele>800.7</ele>
        <time>2019-05-31T10:10:48Z</time>
      </trkpt>
      <trkpt lat="44.06051" lon="3.17624">
        <ele>800.6</ele>
        <time>2019-05-31T10:10:49Z</time>
      </trkpt>
      <trkpt lat="44.06051" lon="3.17631">
        <ele>800.5</ele>
        <time>2019-05-31T10:10:50Z</time>
      </trkpt>
      <trkpt lat="44.06051" lon="3.17642">
        <ele>800.3</ele>
        <time>2019-05-31T10:10:51Z</time>
      </trkpt>
      <trkpt lat="44.0605" lon="3.17653">
        <ele>800.2</ele>
        <time>2019-05-31T10:10:52Z</time>
      </trkpt>
      <trkpt lat="44.06048" lon="3.17662">
        <ele>800</ele>
        <time>2019-05-31T10:10:53Z</time>
      </trkpt>
      <trkpt lat="44.06045" lon="3.1767">
        <ele>799.9</ele>
        <time>2019-05-31T10:10:54Z</time>
      </trkpt>
      <trkpt lat="44.06046" lon="3.17678">
        <ele>799.8</ele>
        <time>2019-05-31T10:10:55Z</time>
      </trkpt>
      <trkpt lat="44.06046" lon="3.17687">
        <ele>799.7</ele>
        <time>2019-05-31T10:10:56Z</time>
      </trkpt>
      <trkpt lat="44.06046" lon="3.17696">
        <ele>799.6</ele>
        <time>2019-05-31T10:10:57Z</time>
      </trkpt>
      <trkpt lat="44.06047" lon="3.17705">
        <ele>799.5</ele>
        <time>2019-05-31T10:10:58Z</time>
      </trkpt>
      <trkpt lat="44.06047" lon="3.17714">
        <ele>799.4</ele>
        <time>2019-05-31T10:10:59Z</time>
      </trkpt>
      <trkpt lat="44.06047" lon="3.17725">
        <ele>799.4</ele>
        <time>2019-05-31T10:11:00Z</time>
      </trkpt>
      <trkpt lat="44.06048" lon="3.17737">
        <ele>799.3</ele>
        <time>2019-05-31T10:11:01Z</time>
      </trkpt>
      <trkpt lat="44.0605" lon="3.17749">
        <ele>799.3</ele>
        <time>2019-05-31T10:11:02Z</time>
      </trkpt>
      <trkpt lat="44.06052" lon="3.1776">
        <ele>799.3</ele>
        <time>2019-05-31T10:11:03Z</time>
      </trkpt>
      <trkpt lat="44.06055" lon="3.17767">
        <ele>799.3</ele>
        <time>2019-05-31T10:11:04Z</time>
      </trkpt>
      <trkpt lat="44.06057" lon="3.17776">
        <ele>799.3</ele>
        <time>2019-05-31T10:11:05Z</time>
      </trkpt>
      <trkpt lat="44.0606" lon="3.17784">
        <ele>799.3</ele>
        <time>2019-05-31T10:11:06Z</time>
      </trkpt>
      <trkpt lat="44.06061" lon="3.17794">
        <ele>799.3</ele>
        <time>2019-05-31T10:11:07Z</time>
      </trkpt>
      <trkpt lat="44.06062" lon="3.17804">
        <ele>799.2</ele>
        <time>2019-05-31T10:11:08Z</time>
      </trkpt>
      <trkpt lat="44.06062" lon="3.17812">
        <ele>799.2</ele>
        <time>2019-05-31T10:11:09Z</time>
      </trkpt>
      <trkpt lat="44.06062" lon="3.1782">
        <ele>799.2</ele>
        <time>2019-05-31T10:11:10Z</time>
      </trkpt>
      <trkpt lat="44.06063" lon="3.17827">
        <ele>799.1</ele>
        <time>2019-05-31T10:11:11Z</time>
      </trkpt>
      <trkpt lat="44.06063" lon="3.17832">
        <ele>799.1</ele>
        <time>2019-05-31T10:11:12Z</time>
      </trkpt>
      <trkpt lat="44.06064" lon="3.17838">
        <ele>799</ele>
        <time>2019-05-31T10:11:13Z</time>
      </trkpt>
      <trkpt lat="44.06064" lon="3.17843">
        <ele>799</ele>
        <time>2019-05-31T10:11:14Z</time>
      </trkpt>
      <trkpt lat="44.06068" lon="3.17848">
        <ele>798.9</ele>
        <time>2019-05-31T10:11:15Z</time>
      </trkpt>
      <trkpt lat="44.06069" lon="3.17853">
        <ele>798.9</ele>
        <time>2019-05-31T10:11:16Z</time>
      </trkpt>
      <trkpt lat="44.0607" lon="3.17858">
        <ele>798.8</ele>
        <time>2019-05-31T10:11:17Z</time>
      </trkpt>
      <trkpt lat="44.0607" lon="3.17865">
        <ele>798.7</ele>
        <time>2019-05-31T10:11:18Z</time>
      </trkpt>
      <trkpt lat="44.06069" lon="3.17871">
        <ele>798.6</ele>
        <time>2019-05-31T10:11:19Z</time>
      </trkpt>
      <trkpt lat="44.06068" lon="3.17877">
        <ele>798.6</ele>
        <time>2019-05-31T10:11:20Z</time>
      </trkpt>
      <trkpt lat="44.06066" lon="3.17884">
        <ele>798.5</ele>
        <time>2019-05-31T10:11:21Z</time>
      </trkpt>
      <trkpt lat="44.06065" lon="3.17891">
        <ele>798.4</ele>
        <time>2019-05-31T10:11:22Z</time>
      </trkpt>
      <trkpt lat="44.06065" lon="3.17898">
        <ele>798.3</ele>
        <time>2019-05-31T10:11:23Z</time>
      </trkpt>
      <trkpt lat="44.06064" lon="3.17906">
        <ele>798.2</ele>
        <time>2019-05-31T10:11:24Z</time>
      </trkpt>
      <trkpt lat="44.06064" lon="3.17914">
        <ele>798.1</ele>
        <time>2019-05-31T10:11:25Z</time>
      </trkpt>
      <trkpt lat="44.06064" lon="3.17921">
        <ele>797.9</ele>
        <time>2019-05-31T10:11:26Z</time>
      </trkpt>
      <trkpt lat="44.06065" lon="3.1793">
        <ele>797.8</ele>
        <time>2019-05-31T10:11:27Z</time>
      </trkpt>
      <trkpt lat="44.06066" lon="3.17936">
        <ele>797.6</ele>
        <time>2019-05-31T10:11:28Z</time>
      </trkpt>
      <trkpt lat="44.06067" lon="3.17943">
        <ele>797.5</ele>
        <time>2019-05-31T10:11:29Z</time>
      </trkpt>
      <trkpt lat="44.06068" lon="3.1795">
        <ele>797.3</ele>
        <time>2019-05-31T10:11:30Z</time>
      </trkpt>
      <trkpt lat="44.0607" lon="3.17958">
        <ele>797.1</ele>
        <time>2019-05-31T10:11:31Z</time>
      </trkpt>
      <trkpt lat="44.06071" lon="3.17964">
        <ele>796.9</ele>
        <time>2019-05-31T10:11:32Z</time>
      </trkpt>
      <trkpt lat="44.06071" lon="3.1797">
        <ele>796.8</ele>
        <time>2019-05-31T10:11:33Z</time>
      </trkpt>
      <trkpt lat="44.06072" lon="3.17973">
        <ele>796.7</ele>
        <time>2019-05-31T10:11:34Z</time>
      </trkpt>
      <trkpt lat="44.06073" lon="3.1798">
        <ele>796.5</ele>
        <time>2019-05-31T10:11:36Z</time>
      </trkpt>
      <trkpt lat="44.06075" lon="3.17985">
        <ele>796.4</ele>
        <time>2019-05-31T10:11:39Z</time>
      </trkpt>
      <trkpt lat="44.06077" lon="3.1799">
        <ele>796.2</ele>
        <time>2019-05-31T10:11:40Z</time>
      </trkpt>
      <trkpt lat="44.06077" lon="3.17994">
        <ele>796.1</ele>
        <time>2019-05-31T10:11:41Z</time>
      </trkpt>
      <trkpt lat="44.06079" lon="3.17999">
        <ele>796</ele>
        <time>2019-05-31T10:11:42Z</time>
      </trkpt>
      <trkpt lat="44.06078" lon="3.18004">
        <ele>795.9</ele>
        <time>2019-05-31T10:11:43Z</time>
      </trkpt>
      <trkpt lat="44.06079" lon="3.1801">
        <ele>795.7</ele>
        <time>2019-05-31T10:11:44Z</time>
      </trkpt>
      <trkpt lat="44.06079" lon="3.18016">
        <ele>795.6</ele>
        <time>2019-05-31T10:11:45Z</time>
      </trkpt>
      <trkpt lat="44.0608" lon="3.18022">
        <ele>795.4</ele>
        <time>2019-05-31T10:11:46Z</time>
      </trkpt>
      <trkpt lat="44.06081" lon="3.18028">
        <ele>795.2</ele>
        <time>2019-05-31T10:11:47Z</time>
      </trkpt>
      <trkpt lat="44.06081" lon="3.18033">
        <ele>795.1</ele>
        <time>2019-05-31T10:11:48Z</time>
      </trkpt>
      <trkpt lat="44.06082" lon="3.18039">
        <ele>794.8</ele>
        <time>2019-05-31T10:11:49Z</time>
      </trkpt>
      <trkpt lat="44.06082" lon="3.18044">
        <ele>794.7</ele>
        <time>2019-05-31T10:11:50Z</time>
      </trkpt>
      <trkpt lat="44.06083" lon="3.18049">
        <ele>794.5</ele>
        <time>2019-05-31T10:11:51Z</time>
      </trkpt>
      <trkpt lat="44.06084" lon="3.18055">
        <ele>794.4</ele>
        <time>2019-05-31T10:11:52Z</time>
      </trkpt>
      <trkpt lat="44.06086" lon="3.18059">
        <ele>794.3</ele>
        <time>2019-05-31T10:11:53Z</time>
      </trkpt>
      <trkpt lat="44.06088" lon="3.18063">
        <ele>794.2</ele>
        <time>2019-05-31T10:11:54Z</time>
      </trkpt>
      <trkpt lat="44.0609" lon="3.18066">
        <ele>794.1</ele>
        <time>2019-05-31T10:11:55Z</time>
      </trkpt>
      <trkpt lat="44.06093" lon="3.18068">
        <ele>794</ele>
        <time>2019-05-31T10:11:56Z</time>
      </trkpt>
      <trkpt lat="44.06096" lon="3.1807">
        <ele>793.8</ele>
        <time>2019-05-31T10:11:57Z</time>
      </trkpt>
      <trkpt lat="44.06099" lon="3.18072">
        <ele>793.7</ele>
        <time>2019-05-31T10:11:58Z</time>
      </trkpt>
      <trkpt lat="44.06102" lon="3.18071">
        <ele>793.6</ele>
        <time>2019-05-31T10:11:59Z</time>
      </trkpt>
      <trkpt lat="44.06105" lon="3.18069">
        <ele>793.5</ele>
        <time>2019-05-31T10:12:00Z</time>
      </trkpt>
      <trkpt lat="44.06107" lon="3.18066">
        <ele>793.3</ele>
        <time>2019-05-31T10:12:01Z</time>
      </trkpt>
      <trkpt lat="44.06109" lon="3.18063">
        <ele>793.2</ele>
        <time>2019-05-31T10:12:02Z</time>
      </trkpt>
      <trkpt lat="44.06111" lon="3.1806">
        <ele>793.1</ele>
        <time>2019-05-31T10:12:03Z</time>
      </trkpt>
      <trkpt lat="44.06113" lon="3.18057">
        <ele>793</ele>
        <time>2019-05-31T10:12:04Z</time>
      </trkpt>
      <trkpt lat="44.06118" lon="3.18057">
        <ele>792.7</ele>
        <time>2019-05-31T10:12:06Z</time>
      </trkpt>
      <trkpt lat="44.06122" lon="3.18063">
        <ele>792.5</ele>
        <time>2019-05-31T10:12:08Z</time>
      </trkpt>
      <trkpt lat="44.06123" lon="3.18067">
        <ele>792.4</ele>
        <time>2019-05-31T10:12:09Z</time>
      </trkpt>
      <trkpt lat="44.06124" lon="3.18072">
        <ele>792.3</ele>
        <time>2019-05-31T10:12:10Z</time>
      </trkpt>
      <trkpt lat="44.06125" lon="3.18076">
        <ele>792.2</ele>
        <time>2019-05-31T10:12:11Z</time>
      </trkpt>
      <trkpt lat="44.06127" lon="3.18082">
        <ele>792</ele>
        <time>2019-05-31T10:12:13Z</time>
      </trkpt>
      <trkpt lat="44.06132" lon="3.18085">
        <ele>791.8</ele>
        <time>2019-05-31T10:12:15Z</time>
      </trkpt>
      <trkpt lat="44.06136" lon="3.18084">
        <ele>790.9</ele>
        <time>2019-05-31T10:12:16Z</time>
      </trkpt>
      <trkpt lat="44.06139" lon="3.18082">
        <ele>791</ele>
        <time>2019-05-31T10:12:17Z</time>
      </trkpt>
      <trkpt lat="44.06143" lon="3.18081">
        <ele>791.1</ele>
        <time>2019-05-31T10:12:18Z</time>
      </trkpt>
      <trkpt lat="44.06147" lon="3.1808">
        <ele>791.2</ele>
        <time>2019-05-31T10:12:19Z</time>
      </trkpt>
      <trkpt lat="44.0615" lon="3.1808">
        <ele>791.3</ele>
        <time>2019-05-31T10:12:20Z</time>
      </trkpt>
      <trkpt lat="44.06154" lon="3.1808">
        <ele>791.4</ele>
        <time>2019-05-31T10:12:21Z</time>
      </trkpt>
      <trkpt lat="44.06157" lon="3.1808">
        <ele>791.5</ele>
        <time>2019-05-31T10:12:22Z</time>
      </trkpt>
      <trkpt lat="44.0616" lon="3.1808">
        <ele>791.7</ele>
        <time>2019-05-31T10:12:23Z</time>
      </trkpt>
      <trkpt lat="44.06164" lon="3.18079">
        <ele>791.8</ele>
        <time>2019-05-31T10:12:24Z</time>
      </trkpt>
      <trkpt lat="44.06167" lon="3.18077">
        <ele>792</ele>
        <time>2019-05-31T10:12:25Z</time>
      </trkpt>
      <trkpt lat="44.06171" lon="3.18074">
        <ele>792.1</ele>
        <time>2019-05-31T10:12:26Z</time>
      </trkpt>
      <trkpt lat="44.06175" lon="3.18071">
        <ele>792.3</ele>
        <time>2019-05-31T10:12:27Z</time>
      </trkpt>
      <trkpt lat="44.06179" lon="3.18069">
        <ele>792.5</ele>
        <time>2019-05-31T10:12:28Z</time>
      </trkpt>
      <trkpt lat="44.06182" lon="3.18067">
        <ele>792.6</ele>
        <time>2019-05-31T10:12:29Z</time>
      </trkpt>
      <trkpt lat="44.06186" lon="3.18065">
        <ele>792.7</ele>
        <time>2019-05-31T10:12:30Z</time>
      </trkpt>
      <trkpt lat="44.0619" lon="3.18064">
        <ele>792.8</ele>
        <time>2019-05-31T10:12:31Z</time>
      </trkpt>
      <trkpt lat="44.06193" lon="3.18063">
        <ele>792.9</ele>
        <time>2019-05-31T10:12:32Z</time>
      </trkpt>
      <trkpt lat="44.06196" lon="3.18062">
        <ele>793.1</ele>
        <time>2019-05-31T10:12:33Z</time>
      </trkpt>
      <trkpt lat="44.062" lon="3.18062">
        <ele>793.1</ele>
        <time>2019-05-31T10:12:34Z</time>
      </trkpt>
      <trkpt lat="44.06203" lon="3.18061">
        <ele>793.2</ele>
        <time>2019-05-31T10:12:35Z</time>
      </trkpt>
      <trkpt lat="44.06206" lon="3.18059">
        <ele>793.3</ele>
        <time>2019-05-31T10:12:36Z</time>
      </trkpt>
      <trkpt lat="44.06209" lon="3.18058">
        <ele>793.4</ele>
        <time>2019-05-31T10:12:37Z</time>
      </trkpt>
      <trkpt lat="44.06213" lon="3.18053">
        <ele>793.5</ele>
        <time>2019-05-31T10:12:39Z</time>
      </trkpt>
      <trkpt lat="44.06217" lon="3.18049">
        <ele>793.7</ele>
        <time>2019-05-31T10:12:41Z</time>
      </trkpt>
      <trkpt lat="44.0622" lon="3.18048">
        <ele>793.8</ele>
        <time>2019-05-31T10:12:42Z</time>
      </trkpt>
      <trkpt lat="44.06223" lon="3.18046">
        <ele>793.9</ele>
        <time>2019-05-31T10:12:43Z</time>
      </trkpt>
      <trkpt lat="44.06226" lon="3.18045">
        <ele>794</ele>
        <time>2019-05-31T10:12:44Z</time>
      </trkpt>
      <trkpt lat="44.06229" lon="3.18043">
        <ele>794</ele>
        <time>2019-05-31T10:12:45Z</time>
      </trkpt>
      <trkpt lat="44.06232" lon="3.18041">
        <ele>794.1</ele>
        <time>2019-05-31T10:12:46Z</time>
      </trkpt>
      <trkpt lat="44.06234" lon="3.18038">
        <ele>794.2</ele>
        <time>2019-05-31T10:12:47Z</time>
      </trkpt>
      <trkpt lat="44.06237" lon="3.18037">
        <ele>794.4</ele>
        <time>2019-05-31T10:12:48Z</time>
      </trkpt>
      <trkpt lat="44.06241" lon="3.18035">
        <ele>794.5</ele>
        <time>2019-05-31T10:12:49Z</time>
      </trkpt>
      <trkpt lat="44.06244" lon="3.18033">
        <ele>794.6</ele>
        <time>2019-05-31T10:12:50Z</time>
      </trkpt>
      <trkpt lat="44.06247" lon="3.1803">
        <ele>794.8</ele>
        <time>2019-05-31T10:12:51Z</time>
      </trkpt>
      <trkpt lat="44.0625" lon="3.18028">
        <ele>794.9</ele>
        <time>2019-05-31T10:12:52Z</time>
      </trkpt>
      <trkpt lat="44.06252" lon="3.18025">
        <ele>794.9</ele>
        <time>2019-05-31T10:12:53Z</time>
      </trkpt>
      <trkpt lat="44.06257" lon="3.18021">
        <ele>795.2</ele>
        <time>2019-05-31T10:12:55Z</time>
      </trkpt>
      <trkpt lat="44.0626" lon="3.18018">
        <ele>795.4</ele>
        <time>2019-05-31T10:12:56Z</time>
      </trkpt>
      <trkpt lat="44.06263" lon="3.18016">
        <ele>795.5</ele>
        <time>2019-05-31T10:12:57Z</time>
      </trkpt>
      <trkpt lat="44.06265" lon="3.18013">
        <ele>795.6</ele>
        <time>2019-05-31T10:12:58Z</time>
      </trkpt>
      <trkpt lat="44.06267" lon="3.18011">
        <ele>795.7</ele>
        <time>2019-05-31T10:12:59Z</time>
      </trkpt>
      <trkpt lat="44.0627" lon="3.18008">
        <ele>795.9</ele>
        <time>2019-05-31T10:13:00Z</time>
      </trkpt>
      <trkpt lat="44.06272" lon="3.18005">
        <ele>796.1</ele>
        <time>2019-05-31T10:13:01Z</time>
      </trkpt>
      <trkpt lat="44.06276" lon="3.17999">
        <ele>796.2</ele>
        <time>2019-05-31T10:13:03Z</time>
      </trkpt>
      <trkpt lat="44.06279" lon="3.17996">
        <ele>796.3</ele>
        <time>2019-05-31T10:13:04Z</time>
      </trkpt>
      <trkpt lat="44.06282" lon="3.17993">
        <ele>796.4</ele>
        <time>2019-05-31T10:13:05Z</time>
      </trkpt>
      <trkpt lat="44.06285" lon="3.1799">
        <ele>796.5</ele>
        <time>2019-05-31T10:13:06Z</time>
      </trkpt>
      <trkpt lat="44.06288" lon="3.17987">
        <ele>796.6</ele>
        <time>2019-05-31T10:13:07Z</time>
      </trkpt>
      <trkpt lat="44.06291" lon="3.17984">
        <ele>796.7</ele>
        <time>2019-05-31T10:13:08Z</time>
      </trkpt>
      <trkpt lat="44.06294" lon="3.17982">
        <ele>796.8</ele>
        <time>2019-05-31T10:13:09Z</time>
      </trkpt>
      <trkpt lat="44.06298" lon="3.1798">
        <ele>796.9</ele>
        <time>2019-05-31T10:13:10Z</time>
      </trkpt>
      <trkpt lat="44.06301" lon="3.17978">
        <ele>797</ele>
        <time>2019-05-31T10:13:11Z</time>
      </trkpt>
      <trkpt lat="44.06304" lon="3.17976">
        <ele>797.1</ele>
        <time>2019-05-31T10:13:12Z</time>
      </trkpt>
      <trkpt lat="44.06307" lon="3.17975">
        <ele>797.2</ele>
        <time>2019-05-31T10:13:13Z</time>
      </trkpt>
      <trkpt lat="44.0631" lon="3.17972">
        <ele>797.3</ele>
        <time>2019-05-31T10:13:14Z</time>
      </trkpt>
      <trkpt lat="44.06314" lon="3.1797">
        <ele>797.4</ele>
        <time>2019-05-31T10:13:15Z</time>
      </trkpt>
      <trkpt lat="44.06317" lon="3.17969">
        <ele>797.5</ele>
        <time>2019-05-31T10:13:16Z</time>
      </trkpt>
      <trkpt lat="44.06321" lon="3.17966">
        <ele>797.8</ele>
        <time>2019-05-31T10:13:18Z</time>
      </trkpt>
      <trkpt lat="44.06325" lon="3.17964">
        <ele>797.9</ele>
        <time>2019-05-31T10:13:19Z</time>
      </trkpt>
      <trkpt lat="44.06328" lon="3.17963">
        <ele>798.1</ele>
        <time>2019-05-31T10:13:20Z</time>
      </trkpt>
      <trkpt lat="44.06331" lon="3.17961">
        <ele>798.3</ele>
        <time>2019-05-31T10:13:21Z</time>
      </trkpt>
      <trkpt lat="44.06334" lon="3.1796">
        <ele>798.4</ele>
        <time>2019-05-31T10:13:22Z</time>
      </trkpt>
      <trkpt lat="44.06338" lon="3.17959">
        <ele>798.6</ele>
        <time>2019-05-31T10:13:23Z</time>
      </trkpt>
      <trkpt lat="44.06342" lon="3.17958">
        <ele>798.8</ele>
        <time>2019-05-31T10:13:24Z</time>
      </trkpt>
      <trkpt lat="44.06345" lon="3.17957">
        <ele>798.9</ele>
        <time>2019-05-31T10:13:25Z</time>
      </trkpt>
      <trkpt lat="44.06348" lon="3.17956">
        <ele>798.9</ele>
        <time>2019-05-31T10:13:26Z</time>
      </trkpt>
      <trkpt lat="44.06354" lon="3.17955">
        <ele>799.1</ele>
        <time>2019-05-31T10:13:28Z</time>
      </trkpt>
      <trkpt lat="44.06358" lon="3.17954">
        <ele>799.3</ele>
        <time>2019-05-31T10:13:29Z</time>
      </trkpt>
      <trkpt lat="44.06361" lon="3.17954">
        <ele>799.4</ele>
        <time>2019-05-31T10:13:30Z</time>
      </trkpt>
      <trkpt lat="44.06364" lon="3.17953">
        <ele>799.5</ele>
        <time>2019-05-31T10:13:31Z</time>
      </trkpt>
      <trkpt lat="44.06367" lon="3.17952">
        <ele>799.6</ele>
        <time>2019-05-31T10:13:32Z</time>
      </trkpt>
      <trkpt lat="44.06371" lon="3.17952">
        <ele>799.7</ele>
        <time>2019-05-31T10:13:33Z</time>
      </trkpt>
      <trkpt lat="44.06375" lon="3.17951">
        <ele>799.8</ele>
        <time>2019-05-31T10:13:34Z</time>
      </trkpt>
      <trkpt lat="44.06378" lon="3.17949">
        <ele>799.9</ele>
        <time>2019-05-31T10:13:35Z</time>
      </trkpt>
      <trkpt lat="44.06382" lon="3.17947">
        <ele>800</ele>
        <time>2019-05-31T10:13:36Z</time>
      </trkpt>
      <trkpt lat="44.06386" lon="3.17946">
        <ele>800.1</ele>
        <time>2019-05-31T10:13:37Z</time>
      </trkpt>
      <trkpt lat="44.06389" lon="3.17944">
        <ele>800.3</ele>
        <time>2019-05-31T10:13:38Z</time>
      </trkpt>
      <trkpt lat="44.06393" lon="3.17943">
        <ele>800.4</ele>
        <time>2019-05-31T10:13:39Z</time>
      </trkpt>
      <trkpt lat="44.06396" lon="3.17941">
        <ele>800.5</ele>
        <time>2019-05-31T10:13:40Z</time>
      </trkpt>
      <trkpt lat="44.06399" lon="3.1794">
        <ele>800.6</ele>
        <time>2019-05-31T10:13:41Z</time>
      </trkpt>
      <trkpt lat="44.06403" lon="3.17938">
        <ele>800.8</ele>
        <time>2019-05-31T10:13:42Z</time>
      </trkpt>
      <trkpt lat="44.06406" lon="3.17937">
        <ele>801</ele>
        <time>2019-05-31T10:13:43Z</time>
      </trkpt>
      <trkpt lat="44.06409" lon="3.17935">
        <ele>801.1</ele>
        <time>2019-05-31T10:13:44Z</time>
      </trkpt>
      <trkpt lat="44.06413" lon="3.17934">
        <ele>801.3</ele>
        <time>2019-05-31T10:13:45Z</time>
      </trkpt>
      <trkpt lat="44.06416" lon="3.17932">
        <ele>801.4</ele>
        <time>2019-05-31T10:13:46Z</time>
      </trkpt>
      <trkpt lat="44.0642" lon="3.17931">
        <ele>801.5</ele>
        <time>2019-05-31T10:13:47Z</time>
      </trkpt>
      <trkpt lat="44.06423" lon="3.17929">
        <ele>801.6</ele>
        <time>2019-05-31T10:13:48Z</time>
      </trkpt>
      <trkpt lat="44.06426" lon="3.17927">
        <ele>801.7</ele>
        <time>2019-05-31T10:13:49Z</time>
      </trkpt>
      <trkpt lat="44.0643" lon="3.17925">
        <ele>801.8</ele>
        <time>2019-05-31T10:13:50Z</time>
      </trkpt>
      <trkpt lat="44.06433" lon="3.17923">
        <ele>801.8</ele>
        <time>2019-05-31T10:13:51Z</time>
      </trkpt>
      <trkpt lat="44.06436" lon="3.17922">
        <ele>801.8</ele>
        <time>2019-05-31T10:13:52Z</time>
      </trkpt>
      <trkpt lat="44.06438" lon="3.1792">
        <ele>801.8</ele>
        <time>2019-05-31T10:13:53Z</time>
      </trkpt>
      <trkpt lat="44.06442" lon="3.17918">
        <ele>801.8</ele>
        <time>2019-05-31T10:13:54Z</time>
      </trkpt>
      <trkpt lat="44.06445" lon="3.17917">
        <ele>801.8</ele>
        <time>2019-05-31T10:13:55Z</time>
      </trkpt>
      <trkpt lat="44.06449" lon="3.17915">
        <ele>801.7</ele>
        <time>2019-05-31T10:13:56Z</time>
      </trkpt>
      <trkpt lat="44.06453" lon="3.17913">
        <ele>801.6</ele>
        <time>2019-05-31T10:13:57Z</time>
      </trkpt>
      <trkpt lat="44.06456" lon="3.1791">
        <ele>801.5</ele>
        <time>2019-05-31T10:13:58Z</time>
      </trkpt>
      <trkpt lat="44.0646" lon="3.17908">
        <ele>801.4</ele>
        <time>2019-05-31T10:13:59Z</time>
      </trkpt>
      <trkpt lat="44.06464" lon="3.17906">
        <ele>801.3</ele>
        <time>2019-05-31T10:14:00Z</time>
      </trkpt>
      <trkpt lat="44.06469" lon="3.17906">
        <ele>801</ele>
        <time>2019-05-31T10:14:01Z</time>
      </trkpt>
      <trkpt lat="44.06474" lon="3.17906">
        <ele>800.9</ele>
        <time>2019-05-31T10:14:02Z</time>
      </trkpt>
      <trkpt lat="44.0648" lon="3.17904">
        <ele>800.7</ele>
        <time>2019-05-31T10:14:03Z</time>
      </trkpt>
      <trkpt lat="44.06484" lon="3.17901">
        <ele>800.5</ele>
        <time>2019-05-31T10:14:04Z</time>
      </trkpt>
      <trkpt lat="44.06489" lon="3.17902">
        <ele>800.4</ele>
        <time>2019-05-31T10:14:05Z</time>
      </trkpt>
      <trkpt lat="44.06494" lon="3.17901">
        <ele>800.2</ele>
        <time>2019-05-31T10:14:06Z</time>
      </trkpt>
      <trkpt lat="44.06501" lon="3.179">
        <ele>799.9</ele>
        <time>2019-05-31T10:14:07Z</time>
      </trkpt>
      <trkpt lat="44.06507" lon="3.179">
        <ele>799.7</ele>
        <time>2019-05-31T10:14:08Z</time>
      </trkpt>
      <trkpt lat="44.06515" lon="3.17898">
        <ele>799.4</ele>
        <time>2019-05-31T10:14:09Z</time>
      </trkpt>
      <trkpt lat="44.06521" lon="3.17897">
        <ele>799</ele>
        <time>2019-05-31T10:14:10Z</time>
      </trkpt>
      <trkpt lat="44.06529" lon="3.17893">
        <ele>798.4</ele>
        <time>2019-05-31T10:14:11Z</time>
      </trkpt>
      <trkpt lat="44.06536" lon="3.17891">
        <ele>797.9</ele>
        <time>2019-05-31T10:14:12Z</time>
      </trkpt>
      <trkpt lat="44.06543" lon="3.17889">
        <ele>797.3</ele>
        <time>2019-05-31T10:14:13Z</time>
      </trkpt>
      <trkpt lat="44.06551" lon="3.17886">
        <ele>796.5</ele>
        <time>2019-05-31T10:14:14Z</time>
      </trkpt>
      <trkpt lat="44.06558" lon="3.17884">
        <ele>795.8</ele>
        <time>2019-05-31T10:14:15Z</time>
      </trkpt>
      <trkpt lat="44.06567" lon="3.17882">
        <ele>795.1</ele>
        <time>2019-05-31T10:14:16Z</time>
      </trkpt>
      <trkpt lat="44.06575" lon="3.1788">
        <ele>794.7</ele>
        <time>2019-05-31T10:14:17Z</time>
      </trkpt>
      <trkpt lat="44.06583" lon="3.17878">
        <ele>794.1</ele>
        <time>2019-05-31T10:14:18Z</time>
      </trkpt>
      <trkpt lat="44.06591" lon="3.17874">
        <ele>793.8</ele>
        <time>2019-05-31T10:14:19Z</time>
      </trkpt>
      <trkpt lat="44.06599" lon="3.1787">
        <ele>793.3</ele>
        <time>2019-05-31T10:14:20Z</time>
      </trkpt>
      <trkpt lat="44.06606" lon="3.17865">
        <ele>793</ele>
        <time>2019-05-31T10:14:21Z</time>
      </trkpt>
      <trkpt lat="44.06615" lon="3.17859">
        <ele>792.6</ele>
        <time>2019-05-31T10:14:22Z</time>
      </trkpt>
      <trkpt lat="44.06623" lon="3.17854">
        <ele>792.4</ele>
        <time>2019-05-31T10:14:23Z</time>
      </trkpt>
      <trkpt lat="44.06631" lon="3.1785">
        <ele>791.9</ele>
        <time>2019-05-31T10:14:24Z</time>
      </trkpt>
      <trkpt lat="44.0664" lon="3.17846">
        <ele>791.6</ele>
        <time>2019-05-31T10:14:25Z</time>
      </trkpt>
      <trkpt lat="44.06648" lon="3.17842">
        <ele>791.4</ele>
        <time>2019-05-31T10:14:26Z</time>
      </trkpt>
      <trkpt lat="44.06657" lon="3.17839">
        <ele>791.2</ele>
        <time>2019-05-31T10:14:27Z</time>
      </trkpt>
      <trkpt lat="44.06666" lon="3.17837">
        <ele>790.9</ele>
        <time>2019-05-31T10:14:28Z</time>
      </trkpt>
      <trkpt lat="44.06675" lon="3.17835">
        <ele>790.8</ele>
        <time>2019-05-31T10:14:29Z</time>
      </trkpt>
      <trkpt lat="44.06683" lon="3.17834">
        <ele>790.6</ele>
        <time>2019-05-31T10:14:30Z</time>
      </trkpt>
      <trkpt lat="44.06691" lon="3.17834">
        <ele>790.4</ele>
        <time>2019-05-31T10:14:31Z</time>
      </trkpt>
      <trkpt lat="44.06699" lon="3.17832">
        <ele>790.2</ele>
        <time>2019-05-31T10:14:32Z</time>
      </trkpt>
      <trkpt lat="44.06706" lon="3.17831">
        <ele>790.1</ele>
        <time>2019-05-31T10:14:33Z</time>
      </trkpt>
      <trkpt lat="44.06714" lon="3.1783">
        <ele>789.9</ele>
        <time>2019-05-31T10:14:34Z</time>
      </trkpt>
      <trkpt lat="44.06721" lon="3.17829">
        <ele>789.7</ele>
        <time>2019-05-31T10:14:35Z</time>
      </trkpt>
      <trkpt lat="44.06728" lon="3.17827">
        <ele>789.6</ele>
        <time>2019-05-31T10:14:36Z</time>
      </trkpt>
      <trkpt lat="44.06734" lon="3.17826">
        <ele>789.5</ele>
        <time>2019-05-31T10:14:37Z</time>
      </trkpt>
      <trkpt lat="44.0674" lon="3.17825">
        <ele>789.4</ele>
        <time>2019-05-31T10:14:38Z</time>
      </trkpt>
      <trkpt lat="44.06747" lon="3.17824">
        <ele>789.2</ele>
        <time>2019-05-31T10:14:39Z</time>
      </trkpt>
      <trkpt lat="44.06754" lon="3.17822">
        <ele>789</ele>
        <time>2019-05-31T10:14:40Z</time>
      </trkpt>
      <trkpt lat="44.0676" lon="3.17822">
        <ele>788.9</ele>
        <time>2019-05-31T10:14:41Z</time>
      </trkpt>
      <trkpt lat="44.06767" lon="3.17821">
        <ele>788.8</ele>
        <time>2019-05-31T10:14:42Z</time>
      </trkpt>
      <trkpt lat="44.06775" lon="3.17817">
        <ele>788.5</ele>
        <time>2019-05-31T10:14:43Z</time>
      </trkpt>
      <trkpt lat="44.06782" lon="3.17814">
        <ele>788.4</ele>
        <time>2019-05-31T10:14:44Z</time>
      </trkpt>
      <trkpt lat="44.06788" lon="3.17815">
        <ele>788.3</ele>
        <time>2019-05-31T10:14:45Z</time>
      </trkpt>
      <trkpt lat="44.06795" lon="3.17816">
        <ele>788.2</ele>
        <time>2019-05-31T10:14:46Z</time>
      </trkpt>
      <trkpt lat="44.06803" lon="3.17816">
        <ele>788.1</ele>
        <time>2019-05-31T10:14:47Z</time>
      </trkpt>
      <trkpt lat="44.06812" lon="3.1781">
        <ele>788.1</ele>
        <time>2019-05-31T10:14:48Z</time>
      </trkpt>
      <trkpt lat="44.06818" lon="3.17809">
        <ele>788.1</ele>
        <time>2019-05-31T10:14:49Z</time>
      </trkpt>
      <trkpt lat="44.06825" lon="3.17809">
        <ele>788.1</ele>
        <time>2019-05-31T10:14:50Z</time>
      </trkpt>
      <trkpt lat="44.06832" lon="3.17808">
        <ele>788.2</ele>
        <time>2019-05-31T10:14:51Z</time>
      </trkpt>
      <trkpt lat="44.06838" lon="3.17808">
        <ele>788.3</ele>
        <time>2019-05-31T10:14:52Z</time>
      </trkpt>
      <trkpt lat="44.06844" lon="3.17807">
        <ele>788.5</ele>
        <time>2019-05-31T10:14:53Z</time>
      </trkpt>
      <trkpt lat="44.0685" lon="3.17806">
        <ele>788.7</ele>
        <time>2019-05-31T10:14:54Z</time>
      </trkpt>
      <trkpt lat="44.06855" lon="3.17806">
        <ele>788.9</ele>
        <time>2019-05-31T10:14:55Z</time>
      </trkpt>
      <trkpt lat="44.06861" lon="3.17807">
        <ele>789.1</ele>
        <time>2019-05-31T10:14:56Z</time>
      </trkpt>
      <trkpt lat="44.06867" lon="3.17807">
        <ele>789.3</ele>
        <time>2019-05-31T10:14:57Z</time>
      </trkpt>
      <trkpt lat="44.06872" lon="3.17804">
        <ele>789.5</ele>
        <time>2019-05-31T10:14:58Z</time>
      </trkpt>
      <trkpt lat="44.06877" lon="3.17805">
        <ele>789.7</ele>
        <time>2019-05-31T10:14:59Z</time>
      </trkpt>
      <trkpt lat="44.06883" lon="3.17807">
        <ele>789.8</ele>
        <time>2019-05-31T10:15:00Z</time>
      </trkpt>
      <trkpt lat="44.06888" lon="3.17808">
        <ele>790</ele>
        <time>2019-05-31T10:15:01Z</time>
      </trkpt>
      <trkpt lat="44.06892" lon="3.17809">
        <ele>790.1</ele>
        <time>2019-05-31T10:15:02Z</time>
      </trkpt>
      <trkpt lat="44.06896" lon="3.17809">
        <ele>790.4</ele>
        <time>2019-05-31T10:15:03Z</time>
      </trkpt>
      <trkpt lat="44.06902" lon="3.1781">
        <ele>790.6</ele>
        <time>2019-05-31T10:15:04Z</time>
      </trkpt>
      <trkpt lat="44.06908" lon="3.17811">
        <ele>790.8</ele>
        <time>2019-05-31T10:15:05Z</time>
      </trkpt>
      <trkpt lat="44.06912" lon="3.17812">
        <ele>790.9</ele>
        <time>2019-05-31T10:15:06Z</time>
      </trkpt>
      <trkpt lat="44.06917" lon="3.17815">
        <ele>791.1</ele>
        <time>2019-05-31T10:15:07Z</time>
      </trkpt>
      <trkpt lat="44.06922" lon="3.17816">
        <ele>791.1</ele>
        <time>2019-05-31T10:15:08Z</time>
      </trkpt>
      <trkpt lat="44.06927" lon="3.17817">
        <ele>791.2</ele>
        <time>2019-05-31T10:15:09Z</time>
      </trkpt>
      <trkpt lat="44.06932" lon="3.17818">
        <ele>791.3</ele>
        <time>2019-05-31T10:15:10Z</time>
      </trkpt>
      <trkpt lat="44.06937" lon="3.17819">
        <ele>791.4</ele>
        <time>2019-05-31T10:15:11Z</time>
      </trkpt>
      <trkpt lat="44.06941" lon="3.17819">
        <ele>791.4</ele>
        <time>2019-05-31T10:15:12Z</time>
      </trkpt>
      <trkpt lat="44.06946" lon="3.1782">
        <ele>791.4</ele>
        <time>2019-05-31T10:15:13Z</time>
      </trkpt>
      <trkpt lat="44.06951" lon="3.1782">
        <ele>791.4</ele>
        <time>2019-05-31T10:15:14Z</time>
      </trkpt>
      <trkpt lat="44.06956" lon="3.17821">
        <ele>791.3</ele>
        <time>2019-05-31T10:15:15Z</time>
      </trkpt>
      <trkpt lat="44.0696" lon="3.17821">
        <ele>791.3</ele>
        <time>2019-05-31T10:15:16Z</time>
      </trkpt>
      <trkpt lat="44.06964" lon="3.17822">
        <ele>791.2</ele>
        <time>2019-05-31T10:15:17Z</time>
      </trkpt>
      <trkpt lat="44.06969" lon="3.1782">
        <ele>791.1</ele>
        <time>2019-05-31T10:15:18Z</time>
      </trkpt>
      <trkpt lat="44.06973" lon="3.17819">
        <ele>791.1</ele>
        <time>2019-05-31T10:15:19Z</time>
      </trkpt>
      <trkpt lat="44.06977" lon="3.17819">
        <ele>791</ele>
        <time>2019-05-31T10:15:20Z</time>
      </trkpt>
      <trkpt lat="44.06982" lon="3.17818">
        <ele>791</ele>
        <time>2019-05-31T10:15:21Z</time>
      </trkpt>
      <trkpt lat="44.06986" lon="3.17819">
        <ele>791</ele>
        <time>2019-05-31T10:15:22Z</time>
      </trkpt>
      <trkpt lat="44.06991" lon="3.1782">
        <ele>791.1</ele>
        <time>2019-05-31T10:15:23Z</time>
      </trkpt>
      <trkpt lat="44.06998" lon="3.1782">
        <ele>791.4</ele>
        <time>2019-05-31T10:15:24Z</time>
      </trkpt>
      <trkpt lat="44.07004" lon="3.17823">
        <ele>791.7</ele>
        <time>2019-05-31T10:15:25Z</time>
      </trkpt>
      <trkpt lat="44.07008" lon="3.17828">
        <ele>792</ele>
        <time>2019-05-31T10:15:26Z</time>
      </trkpt>
      <trkpt lat="44.07013" lon="3.17834">
        <ele>792.4</ele>
        <time>2019-05-31T10:15:27Z</time>
      </trkpt>
      <trkpt lat="44.07017" lon="3.17841">
        <ele>792.8</ele>
        <time>2019-05-31T10:15:28Z</time>
      </trkpt>
      <trkpt lat="44.0702" lon="3.17849">
        <ele>793.3</ele>
        <time>2019-05-31T10:15:29Z</time>
      </trkpt>
      <trkpt lat="44.07025" lon="3.17856">
        <ele>793.8</ele>
        <time>2019-05-31T10:15:30Z</time>
      </trkpt>
      <trkpt lat="44.07031" lon="3.17861">
        <ele>794.2</ele>
        <time>2019-05-31T10:15:31Z</time>
      </trkpt>
      <trkpt lat="44.07037" lon="3.17862">
        <ele>794</ele>
        <time>2019-05-31T10:15:32Z</time>
      </trkpt>
      <trkpt lat="44.07044" lon="3.17859">
        <ele>793.9</ele>
        <time>2019-05-31T10:15:33Z</time>
      </trkpt>
      <trkpt lat="44.0705" lon="3.17855">
        <ele>793.6</ele>
        <time>2019-05-31T10:15:34Z</time>
      </trkpt>
      <trkpt lat="44.07055" lon="3.1785">
        <ele>793.2</ele>
        <time>2019-05-31T10:15:35Z</time>
      </trkpt>
      <trkpt lat="44.0706" lon="3.17845">
        <ele>792.9</ele>
        <time>2019-05-31T10:15:36Z</time>
      </trkpt>
      <trkpt lat="44.07066" lon="3.1784">
        <ele>792.8</ele>
        <time>2019-05-31T10:15:37Z</time>
      </trkpt>
      <trkpt lat="44.07071" lon="3.17836">
        <ele>792.5</ele>
        <time>2019-05-31T10:15:38Z</time>
      </trkpt>
      <trkpt lat="44.07074" lon="3.17831">
        <ele>792.3</ele>
        <time>2019-05-31T10:15:39Z</time>
      </trkpt>
      <trkpt lat="44.0708" lon="3.17828">
        <ele>792</ele>
        <time>2019-05-31T10:15:40Z</time>
      </trkpt>
      <trkpt lat="44.07085" lon="3.17822">
        <ele>791.8</ele>
        <time>2019-05-31T10:15:41Z</time>
      </trkpt>
      <trkpt lat="44.07089" lon="3.17818">
        <ele>791.8</ele>
        <time>2019-05-31T10:15:42Z</time>
      </trkpt>
      <trkpt lat="44.07093" lon="3.17812">
        <ele>791.6</ele>
        <time>2019-05-31T10:15:43Z</time>
      </trkpt>
      <trkpt lat="44.07095" lon="3.17804">
        <ele>791.4</ele>
        <time>2019-05-31T10:15:44Z</time>
      </trkpt>
      <trkpt lat="44.071" lon="3.17796">
        <ele>791.1</ele>
        <time>2019-05-31T10:15:45Z</time>
      </trkpt>
      <trkpt lat="44.07102" lon="3.17791">
        <ele>791</ele>
        <time>2019-05-31T10:15:46Z</time>
      </trkpt>
      <trkpt lat="44.07105" lon="3.17786">
        <ele>790.8</ele>
        <time>2019-05-31T10:15:47Z</time>
      </trkpt>
      <trkpt lat="44.07107" lon="3.17781">
        <ele>790.7</ele>
        <time>2019-05-31T10:15:48Z</time>
      </trkpt>
      <trkpt lat="44.07108" lon="3.17777">
        <ele>790.6</ele>
        <time>2019-05-31T10:15:49Z</time>
      </trkpt>
      <trkpt lat="44.0711" lon="3.17772">
        <ele>790.5</ele>
        <time>2019-05-31T10:15:50Z</time>
      </trkpt>
      <trkpt lat="44.07114" lon="3.17766">
        <ele>790.3</ele>
        <time>2019-05-31T10:15:51Z</time>
      </trkpt>
      <trkpt lat="44.07117" lon="3.17761">
        <ele>790.2</ele>
        <time>2019-05-31T10:15:52Z</time>
      </trkpt>
      <trkpt lat="44.07121" lon="3.17759">
        <ele>790.3</ele>
        <time>2019-05-31T10:15:54Z</time>
      </trkpt>
      <trkpt lat="44.07125" lon="3.17758">
        <ele>790.5</ele>
        <time>2019-05-31T10:15:56Z</time>
      </trkpt>
      <trkpt lat="44.07127" lon="3.17753">
        <ele>790.5</ele>
        <time>2019-05-31T10:15:58Z</time>
      </trkpt>
      <trkpt lat="44.07127" lon="3.17746">
        <ele>790.6</ele>
        <time>2019-05-31T10:16:00Z</time>
      </trkpt>
      <trkpt lat="44.07127" lon="3.1774">
        <ele>790.6</ele>
        <time>2019-05-31T10:16:02Z</time>
      </trkpt>
      <trkpt lat="44.07127" lon="3.17733">
        <ele>790.6</ele>
        <time>2019-05-31T10:16:04Z</time>
      </trkpt>
      <trkpt lat="44.07128" lon="3.17729">
        <ele>790.6</ele>
        <time>2019-05-31T10:16:05Z</time>
      </trkpt>
      <trkpt lat="44.07129" lon="3.17725">
        <ele>790.6</ele>
        <time>2019-05-31T10:16:06Z</time>
      </trkpt>
      <trkpt lat="44.0713" lon="3.17719">
        <ele>790.7</ele>
        <time>2019-05-31T10:16:07Z</time>
      </trkpt>
      <trkpt lat="44.07132" lon="3.17714">
        <ele>790.7</ele>
        <time>2019-05-31T10:16:08Z</time>
      </trkpt>
      <trkpt lat="44.07133" lon="3.17706">
        <ele>790.7</ele>
        <time>2019-05-31T10:16:09Z</time>
      </trkpt>
      <trkpt lat="44.07133" lon="3.17702">
        <ele>790.7</ele>
        <time>2019-05-31T10:16:10Z</time>
      </trkpt>
      <trkpt lat="44.07135" lon="3.17695">
        <ele>790.7</ele>
        <time>2019-05-31T10:16:11Z</time>
      </trkpt>
      <trkpt lat="44.07136" lon="3.1769">
        <ele>790.7</ele>
        <time>2019-05-31T10:16:12Z</time>
      </trkpt>
      <trkpt lat="44.07137" lon="3.17685">
        <ele>790.7</ele>
        <time>2019-05-31T10:16:13Z</time>
      </trkpt>
      <trkpt lat="44.0714" lon="3.17678">
        <ele>790.8</ele>
        <time>2019-05-31T10:16:14Z</time>
      </trkpt>
      <trkpt lat="44.07142" lon="3.17671">
        <ele>790.8</ele>
        <time>2019-05-31T10:16:15Z</time>
      </trkpt>
      <trkpt lat="44.07144" lon="3.17666">
        <ele>790.8</ele>
        <time>2019-05-31T10:16:16Z</time>
      </trkpt>
      <trkpt lat="44.07147" lon="3.1766">
        <ele>790.8</ele>
        <time>2019-05-31T10:16:17Z</time>
      </trkpt>
      <trkpt lat="44.07149" lon="3.17653">
        <ele>790.8</ele>
        <time>2019-05-31T10:16:18Z</time>
      </trkpt>
      <trkpt lat="44.07151" lon="3.17647">
        <ele>790.8</ele>
        <time>2019-05-31T10:16:19Z</time>
      </trkpt>
      <trkpt lat="44.07151" lon="3.1764">
        <ele>790.8</ele>
        <time>2019-05-31T10:16:20Z</time>
      </trkpt>
      <trkpt lat="44.07152" lon="3.17634">
        <ele>790.8</ele>
        <time>2019-05-31T10:16:21Z</time>
      </trkpt>
      <trkpt lat="44.07154" lon="3.17628">
        <ele>790.8</ele>
        <time>2019-05-31T10:16:22Z</time>
      </trkpt>
      <trkpt lat="44.07154" lon="3.17621">
        <ele>790.8</ele>
        <time>2019-05-31T10:16:23Z</time>
      </trkpt>
      <trkpt lat="44.07155" lon="3.17615">
        <ele>790.8</ele>
        <time>2019-05-31T10:16:24Z</time>
      </trkpt>
      <trkpt lat="44.07156" lon="3.17608">
        <ele>790.8</ele>
        <time>2019-05-31T10:16:25Z</time>
      </trkpt>
      <trkpt lat="44.07159" lon="3.17603">
        <ele>790.8</ele>
        <time>2019-05-31T10:16:26Z</time>
      </trkpt>
      <trkpt lat="44.0716" lon="3.17594">
        <ele>790.8</ele>
        <time>2019-05-31T10:16:27Z</time>
      </trkpt>
      <trkpt lat="44.07162" lon="3.17588">
        <ele>790.8</ele>
        <time>2019-05-31T10:16:28Z</time>
      </trkpt>
      <trkpt lat="44.07164" lon="3.17581">
        <ele>790.8</ele>
        <time>2019-05-31T10:16:29Z</time>
      </trkpt>
      <trkpt lat="44.07167" lon="3.17575">
        <ele>790.8</ele>
        <time>2019-05-31T10:16:30Z</time>
      </trkpt>
      <trkpt lat="44.07171" lon="3.17568">
        <ele>790.8</ele>
        <time>2019-05-31T10:16:31Z</time>
      </trkpt>
      <trkpt lat="44.07174" lon="3.17562">
        <ele>790.8</ele>
        <time>2019-05-31T10:16:32Z</time>
      </trkpt>
      <trkpt lat="44.07178" lon="3.17558">
        <ele>790.8</ele>
        <time>2019-05-31T10:16:33Z</time>
      </trkpt>
      <trkpt lat="44.07181" lon="3.17554">
        <ele>790.8</ele>
        <time>2019-05-31T10:16:34Z</time>
      </trkpt>
      <trkpt lat="44.07181" lon="3.17546">
        <ele>790.8</ele>
        <time>2019-05-31T10:16:35Z</time>
      </trkpt>
      <trkpt lat="44.07182" lon="3.17538">
        <ele>790.7</ele>
        <time>2019-05-31T10:16:36Z</time>
      </trkpt>
      <trkpt lat="44.07183" lon="3.1753">
        <ele>790.7</ele>
        <time>2019-05-31T10:16:37Z</time>
      </trkpt>
      <trkpt lat="44.07185" lon="3.17516">
        <ele>790.7</ele>
        <time>2019-05-31T10:16:38Z</time>
      </trkpt>
      <trkpt lat="44.07187" lon="3.1751">
        <ele>790.7</ele>
        <time>2019-05-31T10:16:39Z</time>
      </trkpt>
      <trkpt lat="44.0719" lon="3.17504">
        <ele>790.7</ele>
        <time>2019-05-31T10:16:40Z</time>
      </trkpt>
      <trkpt lat="44.07193" lon="3.17497">
        <ele>790.7</ele>
        <time>2019-05-31T10:16:41Z</time>
      </trkpt>
      <trkpt lat="44.07199" lon="3.17491">
        <ele>790.7</ele>
        <time>2019-05-31T10:16:42Z</time>
      </trkpt>
      <trkpt lat="44.07199" lon="3.17484">
        <ele>790.7</ele>
        <time>2019-05-31T10:16:43Z</time>
      </trkpt>
      <trkpt lat="44.07201" lon="3.17478">
        <ele>790.7</ele>
        <time>2019-05-31T10:16:44Z</time>
      </trkpt>
      <trkpt lat="44.07201" lon="3.1747">
        <ele>790.7</ele>
        <time>2019-05-31T10:16:45Z</time>
      </trkpt>
      <trkpt lat="44.07203" lon="3.17465">
        <ele>790.7</ele>
        <time>2019-05-31T10:16:46Z</time>
      </trkpt>
      <trkpt lat="44.07204" lon="3.17457">
        <ele>790.7</ele>
        <time>2019-05-31T10:16:47Z</time>
      </trkpt>
      <trkpt lat="44.07207" lon="3.1745">
        <ele>790.7</ele>
        <time>2019-05-31T10:16:48Z</time>
      </trkpt>
      <trkpt lat="44.0721" lon="3.17446">
        <ele>790.7</ele>
        <time>2019-05-31T10:16:49Z</time>
      </trkpt>
      <trkpt lat="44.07212" lon="3.17438">
        <ele>790.7</ele>
        <time>2019-05-31T10:16:50Z</time>
      </trkpt>
      <trkpt lat="44.07214" lon="3.1743">
        <ele>790.8</ele>
        <time>2019-05-31T10:16:51Z</time>
      </trkpt>
      <trkpt lat="44.07215" lon="3.17424">
        <ele>790.8</ele>
        <time>2019-05-31T10:16:52Z</time>
      </trkpt>
      <trkpt lat="44.07217" lon="3.17418">
        <ele>790.8</ele>
        <time>2019-05-31T10:16:53Z</time>
      </trkpt>
      <trkpt lat="44.07218" lon="3.17412">
        <ele>790.8</ele>
        <time>2019-05-31T10:16:54Z</time>
      </trkpt>
      <trkpt lat="44.07219" lon="3.17407">
        <ele>790.8</ele>
        <time>2019-05-31T10:16:56Z</time>
      </trkpt>
      <trkpt lat="44.0722" lon="3.17403">
        <ele>790.9</ele>
        <time>2019-05-31T10:16:57Z</time>
      </trkpt>
      <trkpt lat="44.07221" lon="3.17399">
        <ele>790.9</ele>
        <time>2019-05-31T10:16:58Z</time>
      </trkpt>
      <trkpt lat="44.07221" lon="3.17395">
        <ele>790.9</ele>
        <time>2019-05-31T10:16:59Z</time>
      </trkpt>
      <trkpt lat="44.07221" lon="3.17388">
        <ele>790.9</ele>
        <time>2019-05-31T10:17:01Z</time>
      </trkpt>
      <trkpt lat="44.07223" lon="3.17378">
        <ele>791</ele>
        <time>2019-05-31T10:17:03Z</time>
      </trkpt>
      <trkpt lat="44.07224" lon="3.17375">
        <ele>791</ele>
        <time>2019-05-31T10:17:05Z</time>
      </trkpt>
      <trkpt lat="44.07225" lon="3.1737">
        <ele>791</ele>
        <time>2019-05-31T10:17:07Z</time>
      </trkpt>
      <trkpt lat="44.07226" lon="3.17363">
        <ele>791</ele>
        <time>2019-05-31T10:17:09Z</time>
      </trkpt>
      <trkpt lat="44.07226" lon="3.1736">
        <ele>791.1</ele>
        <time>2019-05-31T10:17:10Z</time>
      </trkpt>
      <trkpt lat="44.07227" lon="3.17356">
        <ele>791.1</ele>
        <time>2019-05-31T10:17:11Z</time>
      </trkpt>
      <trkpt lat="44.07228" lon="3.17352">
        <ele>791.1</ele>
        <time>2019-05-31T10:17:12Z</time>
      </trkpt>
      <trkpt lat="44.07228" lon="3.17348">
        <ele>791.1</ele>
        <time>2019-05-31T10:17:13Z</time>
      </trkpt>
      <trkpt lat="44.07228" lon="3.17342">
        <ele>791.2</ele>
        <time>2019-05-31T10:17:15Z</time>
      </trkpt>
      <trkpt lat="44.07228" lon="3.17337">
        <ele>791.2</ele>
        <time>2019-05-31T10:17:16Z</time>
      </trkpt>
      <trkpt lat="44.07229" lon="3.17333">
        <ele>791.2</ele>
        <time>2019-05-31T10:17:17Z</time>
      </trkpt>
      <trkpt lat="44.07229" lon="3.1733">
        <ele>791.2</ele>
        <time>2019-05-31T10:17:18Z</time>
      </trkpt>
      <trkpt lat="44.07229" lon="3.17323">
        <ele>791.2</ele>
        <time>2019-05-31T10:17:20Z</time>
      </trkpt>
      <trkpt lat="44.07231" lon="3.17317">
        <ele>791.3</ele>
        <time>2019-05-31T10:17:22Z</time>
      </trkpt>
      <trkpt lat="44.07234" lon="3.17319">
        <ele>791.3</ele>
        <time>2019-05-31T10:17:25Z</time>
      </trkpt>
      <trkpt lat="44.07235" lon="3.17323">
        <ele>791.3</ele>
        <time>2019-05-31T10:17:33Z</time>
      </trkpt>
      <trkpt lat="44.07235" lon="3.17327">
        <ele>791.3</ele>
        <time>2019-05-31T10:17:37Z</time>
      </trkpt>
      <trkpt lat="44.07238" lon="3.1733">
        <ele>791.4</ele>
        <time>2019-05-31T10:17:51Z</time>
      </trkpt>
      <trkpt lat="44.07239" lon="3.17334">
        <ele>791.4</ele>
        <time>2019-05-31T10:17:54Z</time>
      </trkpt>
      <trkpt lat="44.0724" lon="3.17338">
        <ele>791.4</ele>
        <time>2019-05-31T10:17:56Z</time>
      </trkpt>
      <trkpt lat="44.07241" lon="3.17344">
        <ele>791.3</ele>
        <time>2019-05-31T10:17:59Z</time>
      </trkpt>
      <trkpt lat="44.07242" lon="3.1735">
        <ele>791.2</ele>
        <time>2019-05-31T10:18:01Z</time>
      </trkpt>
      <trkpt lat="44.07243" lon="3.17354">
        <ele>791.2</ele>
        <time>2019-05-31T10:18:02Z</time>
      </trkpt>
      <trkpt lat="44.07244" lon="3.17359">
        <ele>791.1</ele>
        <time>2019-05-31T10:18:03Z</time>
      </trkpt>
      <trkpt lat="44.07245" lon="3.17364">
        <ele>791</ele>
        <time>2019-05-31T10:18:04Z</time>
      </trkpt>
      <trkpt lat="44.07245" lon="3.17369">
        <ele>790.9</ele>
        <time>2019-05-31T10:18:05Z</time>
      </trkpt>
      <trkpt lat="44.07247" lon="3.17374">
        <ele>790.8</ele>
        <time>2019-05-31T10:18:06Z</time>
      </trkpt>
      <trkpt lat="44.07248" lon="3.1738">
        <ele>790.7</ele>
        <time>2019-05-31T10:18:07Z</time>
      </trkpt>
      <trkpt lat="44.0725" lon="3.17384">
        <ele>790.6</ele>
        <time>2019-05-31T10:18:08Z</time>
      </trkpt>
      <trkpt lat="44.07255" lon="3.17394">
        <ele>790.3</ele>
        <time>2019-05-31T10:18:09Z</time>
      </trkpt>
      <trkpt lat="44.07261" lon="3.17399">
        <ele>790.1</ele>
        <time>2019-05-31T10:18:10Z</time>
      </trkpt>
      <trkpt lat="44.07264" lon="3.17405">
        <ele>790</ele>
        <time>2019-05-31T10:18:11Z</time>
      </trkpt>
      <trkpt lat="44.07268" lon="3.17411">
        <ele>789.8</ele>
        <time>2019-05-31T10:18:12Z</time>
      </trkpt>
      <trkpt lat="44.07274" lon="3.17423">
        <ele>789.5</ele>
        <time>2019-05-31T10:18:13Z</time>
      </trkpt>
      <trkpt lat="44.07277" lon="3.17435">
        <ele>789.3</ele>
        <time>2019-05-31T10:18:14Z</time>
      </trkpt>
      <trkpt lat="44.07279" lon="3.17444">
        <ele>789.1</ele>
        <time>2019-05-31T10:18:15Z</time>
      </trkpt>
      <trkpt lat="44.07284" lon="3.17453">
        <ele>788.8</ele>
        <time>2019-05-31T10:18:16Z</time>
      </trkpt>
      <trkpt lat="44.07287" lon="3.1746">
        <ele>788.6</ele>
        <time>2019-05-31T10:18:17Z</time>
      </trkpt>
      <trkpt lat="44.07289" lon="3.17468">
        <ele>788.4</ele>
        <time>2019-05-31T10:18:18Z</time>
      </trkpt>
      <trkpt lat="44.07294" lon="3.17474">
        <ele>788.2</ele>
        <time>2019-05-31T10:18:19Z</time>
      </trkpt>
      <trkpt lat="44.07297" lon="3.17479">
        <ele>788.1</ele>
        <time>2019-05-31T10:18:20Z</time>
      </trkpt>
      <trkpt lat="44.07307" lon="3.17482">
        <ele>787.9</ele>
        <time>2019-05-31T10:18:21Z</time>
      </trkpt>
      <trkpt lat="44.0731" lon="3.17485">
        <ele>787.9</ele>
        <time>2019-05-31T10:18:22Z</time>
      </trkpt>
      <trkpt lat="44.07317" lon="3.17494">
        <ele>787.8</ele>
        <time>2019-05-31T10:18:24Z</time>
      </trkpt>
      <trkpt lat="44.07322" lon="3.17496">
        <ele>787.9</ele>
        <time>2019-05-31T10:18:25Z</time>
      </trkpt>
      <trkpt lat="44.07325" lon="3.17495">
        <ele>788</ele>
        <time>2019-05-31T10:18:26Z</time>
      </trkpt>
      <trkpt lat="44.07329" lon="3.17499">
        <ele>788.1</ele>
        <time>2019-05-31T10:18:27Z</time>
      </trkpt>
      <trkpt lat="44.07331" lon="3.17506">
        <ele>788.3</ele>
        <time>2019-05-31T10:18:30Z</time>
      </trkpt>
      <trkpt lat="44.07333" lon="3.1751">
        <ele>788.4</ele>
        <time>2019-05-31T10:18:33Z</time>
      </trkpt>
      <trkpt lat="44.07334" lon="3.17515">
        <ele>788.5</ele>
        <time>2019-05-31T10:18:37Z</time>
      </trkpt>
      <trkpt lat="44.07336" lon="3.1752">
        <ele>788.6</ele>
        <time>2019-05-31T10:18:40Z</time>
      </trkpt>
      <trkpt lat="44.07337" lon="3.17525">
        <ele>788.8</ele>
        <time>2019-05-31T10:18:43Z</time>
      </trkpt>
      <trkpt lat="44.07339" lon="3.17529">
        <ele>788.9</ele>
        <time>2019-05-31T10:18:45Z</time>
      </trkpt>
      <trkpt lat="44.0734" lon="3.17532">
        <ele>789.1</ele>
        <time>2019-05-31T10:18:47Z</time>
      </trkpt>
      <trkpt lat="44.07343" lon="3.17536">
        <ele>789.2</ele>
        <time>2019-05-31T10:18:49Z</time>
      </trkpt>
      <trkpt lat="44.07346" lon="3.17539">
        <ele>789.3</ele>
        <time>2019-05-31T10:18:51Z</time>
      </trkpt>
      <trkpt lat="44.07348" lon="3.17542">
        <ele>789.4</ele>
        <time>2019-05-31T10:18:53Z</time>
      </trkpt>
      <trkpt lat="44.0735" lon="3.17546">
        <ele>789.5</ele>
        <time>2019-05-31T10:18:55Z</time>
      </trkpt>
      <trkpt lat="44.07352" lon="3.1755">
        <ele>789.6</ele>
        <time>2019-05-31T10:18:57Z</time>
      </trkpt>
      <trkpt lat="44.07354" lon="3.17553">
        <ele>789.7</ele>
        <time>2019-05-31T10:18:59Z</time>
      </trkpt>
      <trkpt lat="44.07357" lon="3.17556">
        <ele>789.9</ele>
        <time>2019-05-31T10:19:02Z</time>
      </trkpt>
      <trkpt lat="44.0736" lon="3.17559">
        <ele>790</ele>
        <time>2019-05-31T10:19:05Z</time>
      </trkpt>
      <trkpt lat="44.07363" lon="3.17563">
        <ele>790.1</ele>
        <time>2019-05-31T10:19:07Z</time>
      </trkpt>
      <trkpt lat="44.07365" lon="3.17567">
        <ele>790.3</ele>
        <time>2019-05-31T10:19:09Z</time>
      </trkpt>
      <trkpt lat="44.07367" lon="3.17569">
        <ele>790.4</ele>
        <time>2019-05-31T10:19:14Z</time>
      </trkpt>
      <trkpt lat="44.0737" lon="3.17572">
        <ele>790.5</ele>
        <time>2019-05-31T10:20:17Z</time>
      </trkpt>
      <trkpt lat="44.07372" lon="3.17576">
        <ele>790.7</ele>
        <time>2019-05-31T10:20:19Z</time>
      </trkpt>
      <trkpt lat="44.07375" lon="3.17581">
        <ele>790.9</ele>
        <time>2019-05-31T10:20:21Z</time>
      </trkpt>
      <trkpt lat="44.07379" lon="3.17586">
        <ele>791.1</ele>
        <time>2019-05-31T10:20:23Z</time>
      </trkpt>
      <trkpt lat="44.07381" lon="3.17589">
        <ele>791.2</ele>
        <time>2019-05-31T10:20:24Z</time>
      </trkpt>
      <trkpt lat="44.07384" lon="3.17593">
        <ele>791.4</ele>
        <time>2019-05-31T10:20:25Z</time>
      </trkpt>
      <trkpt lat="44.07387" lon="3.17597">
        <ele>791.5</ele>
        <time>2019-05-31T10:20:26Z</time>
      </trkpt>
      <trkpt lat="44.07397" lon="3.17609">
        <ele>792</ele>
        <time>2019-05-31T10:20:27Z</time>
      </trkpt>
      <trkpt lat="44.07401" lon="3.17615">
        <ele>792.1</ele>
        <time>2019-05-31T10:20:28Z</time>
      </trkpt>
      <trkpt lat="44.07406" lon="3.17618">
        <ele>792.2</ele>
        <time>2019-05-31T10:20:29Z</time>
      </trkpt>
      <trkpt lat="44.0741" lon="3.17625">
        <ele>792.3</ele>
        <time>2019-05-31T10:20:30Z</time>
      </trkpt>
      <trkpt lat="44.07414" lon="3.17629">
        <ele>792.3</ele>
        <time>2019-05-31T10:20:31Z</time>
      </trkpt>
      <trkpt lat="44.07417" lon="3.1763">
        <ele>792.3</ele>
        <time>2019-05-31T10:20:32Z</time>
      </trkpt>
      <trkpt lat="44.07423" lon="3.17634">
        <ele>792.4</ele>
        <time>2019-05-31T10:20:33Z</time>
      </trkpt>
      <trkpt lat="44.07426" lon="3.17642">
        <ele>792.4</ele>
        <time>2019-05-31T10:20:34Z</time>
      </trkpt>
      <trkpt lat="44.07429" lon="3.17648">
        <ele>792.4</ele>
        <time>2019-05-31T10:20:35Z</time>
      </trkpt>
      <trkpt lat="44.07435" lon="3.17652">
        <ele>792.4</ele>
        <time>2019-05-31T10:20:36Z</time>
      </trkpt>
      <trkpt lat="44.0744" lon="3.17655">
        <ele>792.4</ele>
        <time>2019-05-31T10:20:37Z</time>
      </trkpt>
      <trkpt lat="44.07444" lon="3.17659">
        <ele>792.4</ele>
        <time>2019-05-31T10:20:38Z</time>
      </trkpt>
      <trkpt lat="44.07449" lon="3.17661">
        <ele>792.3</ele>
        <time>2019-05-31T10:20:39Z</time>
      </trkpt>
      <trkpt lat="44.07452" lon="3.17663">
        <ele>792.3</ele>
        <time>2019-05-31T10:20:40Z</time>
      </trkpt>
      <trkpt lat="44.07456" lon="3.17668">
        <ele>792.2</ele>
        <time>2019-05-31T10:20:42Z</time>
      </trkpt>
      <trkpt lat="44.07457" lon="3.17674">
        <ele>792.2</ele>
        <time>2019-05-31T10:20:43Z</time>
      </trkpt>
      <trkpt lat="44.0746" lon="3.17678">
        <ele>792.1</ele>
        <time>2019-05-31T10:20:44Z</time>
      </trkpt>
      <trkpt lat="44.07463" lon="3.17683">
        <ele>792</ele>
        <time>2019-05-31T10:20:45Z</time>
      </trkpt>
      <trkpt lat="44.07465" lon="3.17688">
        <ele>791.8</ele>
        <time>2019-05-31T10:20:46Z</time>
      </trkpt>
      <trkpt lat="44.07468" lon="3.17692">
        <ele>791.6</ele>
        <time>2019-05-31T10:20:47Z</time>
      </trkpt>
      <trkpt lat="44.07469" lon="3.17697">
        <ele>791.5</ele>
        <time>2019-05-31T10:20:48Z</time>
      </trkpt>
      <trkpt lat="44.07471" lon="3.17702">
        <ele>791.3</ele>
        <time>2019-05-31T10:20:49Z</time>
      </trkpt>
      <trkpt lat="44.07473" lon="3.17708">
        <ele>791.1</ele>
        <time>2019-05-31T10:20:50Z</time>
      </trkpt>
      <trkpt lat="44.07475" lon="3.17713">
        <ele>791</ele>
        <time>2019-05-31T10:20:51Z</time>
      </trkpt>
      <trkpt lat="44.07476" lon="3.17722">
        <ele>790.7</ele>
        <time>2019-05-31T10:20:52Z</time>
      </trkpt>
      <trkpt lat="44.07478" lon="3.17728">
        <ele>790.6</ele>
        <time>2019-05-31T10:20:53Z</time>
      </trkpt>
      <trkpt lat="44.0748" lon="3.17734">
        <ele>790.4</ele>
        <time>2019-05-31T10:20:54Z</time>
      </trkpt>
      <trkpt lat="44.07483" lon="3.17742">
        <ele>790.2</ele>
        <time>2019-05-31T10:20:55Z</time>
      </trkpt>
      <trkpt lat="44.07485" lon="3.17748">
        <ele>790</ele>
        <time>2019-05-31T10:20:56Z</time>
      </trkpt>
      <trkpt lat="44.07487" lon="3.17754">
        <ele>789.8</ele>
        <time>2019-05-31T10:20:57Z</time>
      </trkpt>
      <trkpt lat="44.07489" lon="3.17759">
        <ele>789.6</ele>
        <time>2019-05-31T10:20:58Z</time>
      </trkpt>
      <trkpt lat="44.07491" lon="3.17763">
        <ele>789.4</ele>
        <time>2019-05-31T10:20:59Z</time>
      </trkpt>
      <trkpt lat="44.07493" lon="3.17767">
        <ele>789.2</ele>
        <time>2019-05-31T10:21:00Z</time>
      </trkpt>
      <trkpt lat="44.07499" lon="3.1777">
        <ele>788.8</ele>
        <time>2019-05-31T10:21:01Z</time>
      </trkpt>
      <trkpt lat="44.07503" lon="3.17774">
        <ele>788.5</ele>
        <time>2019-05-31T10:21:02Z</time>
      </trkpt>
      <trkpt lat="44.07506" lon="3.17779">
        <ele>788.2</ele>
        <time>2019-05-31T10:21:03Z</time>
      </trkpt>
      <trkpt lat="44.07512" lon="3.17785">
        <ele>787.7</ele>
        <time>2019-05-31T10:21:04Z</time>
      </trkpt>
      <trkpt lat="44.07519" lon="3.17789">
        <ele>787.2</ele>
        <time>2019-05-31T10:21:05Z</time>
      </trkpt>
      <trkpt lat="44.07525" lon="3.17796">
        <ele>786.7</ele>
        <time>2019-05-31T10:21:06Z</time>
      </trkpt>
      <trkpt lat="44.0753" lon="3.17802">
        <ele>786.1</ele>
        <time>2019-05-31T10:21:07Z</time>
      </trkpt>
      <trkpt lat="44.07533" lon="3.17811">
        <ele>785.6</ele>
        <time>2019-05-31T10:21:08Z</time>
      </trkpt>
      <trkpt lat="44.07538" lon="3.17818">
        <ele>785.1</ele>
        <time>2019-05-31T10:21:09Z</time>
      </trkpt>
      <trkpt lat="44.07544" lon="3.17824">
        <ele>784.7</ele>
        <time>2019-05-31T10:21:10Z</time>
      </trkpt>
      <trkpt lat="44.07548" lon="3.17829">
        <ele>784.3</ele>
        <time>2019-05-31T10:21:11Z</time>
      </trkpt>
      <trkpt lat="44.07553" lon="3.17836">
        <ele>783.9</ele>
        <time>2019-05-31T10:21:12Z</time>
      </trkpt>
      <trkpt lat="44.07556" lon="3.17838">
        <ele>783.7</ele>
        <time>2019-05-31T10:21:13Z</time>
      </trkpt>
      <trkpt lat="44.07558" lon="3.17848">
        <ele>783.2</ele>
        <time>2019-05-31T10:21:15Z</time>
      </trkpt>
      <trkpt lat="44.0756" lon="3.17853">
        <ele>783</ele>
        <time>2019-05-31T10:21:16Z</time>
      </trkpt>
      <trkpt lat="44.07562" lon="3.17858">
        <ele>782.5</ele>
        <time>2019-05-31T10:21:17Z</time>
      </trkpt>
      <trkpt lat="44.07566" lon="3.17862">
        <ele>781.9</ele>
        <time>2019-05-31T10:21:18Z</time>
      </trkpt>
      <trkpt lat="44.0757" lon="3.17868">
        <ele>781.3</ele>
        <time>2019-05-31T10:21:19Z</time>
      </trkpt>
      <trkpt lat="44.07576" lon="3.17875">
        <ele>780.6</ele>
        <time>2019-05-31T10:21:20Z</time>
      </trkpt>
      <trkpt lat="44.07582" lon="3.17881">
        <ele>779.8</ele>
        <time>2019-05-31T10:21:21Z</time>
      </trkpt>
      <trkpt lat="44.07587" lon="3.1789">
        <ele>779</ele>
        <time>2019-05-31T10:21:22Z</time>
      </trkpt>
      <trkpt lat="44.07592" lon="3.17899">
        <ele>778</ele>
        <time>2019-05-31T10:21:23Z</time>
      </trkpt>
      <trkpt lat="44.07596" lon="3.17907">
        <ele>777</ele>
        <time>2019-05-31T10:21:24Z</time>
      </trkpt>
      <trkpt lat="44.07599" lon="3.17913">
        <ele>776.2</ele>
        <time>2019-05-31T10:21:25Z</time>
      </trkpt>
      <trkpt lat="44.07603" lon="3.17919">
        <ele>775.5</ele>
        <time>2019-05-31T10:21:26Z</time>
      </trkpt>
      <trkpt lat="44.07607" lon="3.17925">
        <ele>774.9</ele>
        <time>2019-05-31T10:21:27Z</time>
      </trkpt>
      <trkpt lat="44.07612" lon="3.17933">
        <ele>774.1</ele>
        <time>2019-05-31T10:21:28Z</time>
      </trkpt>
      <trkpt lat="44.07616" lon="3.1794">
        <ele>773.5</ele>
        <time>2019-05-31T10:21:29Z</time>
      </trkpt>
      <trkpt lat="44.07619" lon="3.17946">
        <ele>773</ele>
        <time>2019-05-31T10:21:30Z</time>
      </trkpt>
      <trkpt lat="44.07624" lon="3.17953">
        <ele>772.4</ele>
        <time>2019-05-31T10:21:31Z</time>
      </trkpt>
      <trkpt lat="44.07627" lon="3.17956">
        <ele>772.1</ele>
        <time>2019-05-31T10:21:32Z</time>
      </trkpt>
      <trkpt lat="44.07631" lon="3.17963">
        <ele>771.5</ele>
        <time>2019-05-31T10:21:33Z</time>
      </trkpt>
      <trkpt lat="44.07635" lon="3.17969">
        <ele>770.9</ele>
        <time>2019-05-31T10:21:34Z</time>
      </trkpt>
      <trkpt lat="44.0764" lon="3.17973">
        <ele>770.4</ele>
        <time>2019-05-31T10:21:35Z</time>
      </trkpt>
      <trkpt lat="44.07643" lon="3.17978">
        <ele>770</ele>
        <time>2019-05-31T10:21:36Z</time>
      </trkpt>
      <trkpt lat="44.07648" lon="3.17985">
        <ele>769.5</ele>
        <time>2019-05-31T10:21:37Z</time>
      </trkpt>
      <trkpt lat="44.07652" lon="3.17989">
        <ele>769</ele>
        <time>2019-05-31T10:21:38Z</time>
      </trkpt>
      <trkpt lat="44.07659" lon="3.17998">
        <ele>768.2</ele>
        <time>2019-05-31T10:21:39Z</time>
      </trkpt>
      <trkpt lat="44.07664" lon="3.18004">
        <ele>767.6</ele>
        <time>2019-05-31T10:21:40Z</time>
      </trkpt>
      <trkpt lat="44.0767" lon="3.18008">
        <ele>767.2</ele>
        <time>2019-05-31T10:21:41Z</time>
      </trkpt>
      <trkpt lat="44.07676" lon="3.18013">
        <ele>766.7</ele>
        <time>2019-05-31T10:21:42Z</time>
      </trkpt>
      <trkpt lat="44.07681" lon="3.18018">
        <ele>766.4</ele>
        <time>2019-05-31T10:21:43Z</time>
      </trkpt>
      <trkpt lat="44.07684" lon="3.18023">
        <ele>766.2</ele>
        <time>2019-05-31T10:21:44Z</time>
      </trkpt>
      <trkpt lat="44.07687" lon="3.18027">
        <ele>766</ele>
        <time>2019-05-31T10:21:45Z</time>
      </trkpt>
      <trkpt lat="44.0769" lon="3.18032">
        <ele>765.9</ele>
        <time>2019-05-31T10:21:46Z</time>
      </trkpt>
      <trkpt lat="44.07692" lon="3.18037">
        <ele>765.8</ele>
        <time>2019-05-31T10:21:47Z</time>
      </trkpt>
      <trkpt lat="44.07694" lon="3.1804">
        <ele>765.7</ele>
        <time>2019-05-31T10:21:48Z</time>
      </trkpt>
      <trkpt lat="44.07697" lon="3.18045">
        <ele>765.6</ele>
        <time>2019-05-31T10:21:49Z</time>
      </trkpt>
      <trkpt lat="44.077" lon="3.18048">
        <ele>765.7</ele>
        <time>2019-05-31T10:21:50Z</time>
      </trkpt>
      <trkpt lat="44.07702" lon="3.18053">
        <ele>765.9</ele>
        <time>2019-05-31T10:21:51Z</time>
      </trkpt>
      <trkpt lat="44.07704" lon="3.18059">
        <ele>766.1</ele>
        <time>2019-05-31T10:21:53Z</time>
      </trkpt>
      <trkpt lat="44.07707" lon="3.18064">
        <ele>766.3</ele>
        <time>2019-05-31T10:21:55Z</time>
      </trkpt>
      <trkpt lat="44.07709" lon="3.18069">
        <ele>766.7</ele>
        <time>2019-05-31T10:21:57Z</time>
      </trkpt>
      <trkpt lat="44.07712" lon="3.18074">
        <ele>767</ele>
        <time>2019-05-31T10:21:59Z</time>
      </trkpt>
      <trkpt lat="44.07716" lon="3.18077">
        <ele>767.3</ele>
        <time>2019-05-31T10:22:01Z</time>
      </trkpt>
      <trkpt lat="44.07719" lon="3.1808">
        <ele>767.5</ele>
        <time>2019-05-31T10:22:03Z</time>
      </trkpt>
      <trkpt lat="44.07722" lon="3.18084">
        <ele>767.9</ele>
        <time>2019-05-31T10:22:05Z</time>
      </trkpt>
      <trkpt lat="44.07725" lon="3.18086">
        <ele>768.2</ele>
        <time>2019-05-31T10:22:07Z</time>
      </trkpt>
      <trkpt lat="44.07727" lon="3.18088">
        <ele>768.5</ele>
        <time>2019-05-31T10:22:09Z</time>
      </trkpt>
      <trkpt lat="44.07729" lon="3.18092">
        <ele>768.8</ele>
        <time>2019-05-31T10:22:11Z</time>
      </trkpt>
      <trkpt lat="44.07731" lon="3.18097">
        <ele>769.3</ele>
        <time>2019-05-31T10:22:13Z</time>
      </trkpt>
      <trkpt lat="44.07733" lon="3.18101">
        <ele>769.6</ele>
        <time>2019-05-31T10:22:15Z</time>
      </trkpt>
      <trkpt lat="44.07736" lon="3.18106">
        <ele>770.2</ele>
        <time>2019-05-31T10:22:17Z</time>
      </trkpt>
      <trkpt lat="44.07739" lon="3.18111">
        <ele>770.7</ele>
        <time>2019-05-31T10:22:19Z</time>
      </trkpt>
      <trkpt lat="44.07742" lon="3.18115">
        <ele>771.1</ele>
        <time>2019-05-31T10:22:21Z</time>
      </trkpt>
      <trkpt lat="44.07745" lon="3.18119">
        <ele>771.1</ele>
        <time>2019-05-31T10:22:23Z</time>
      </trkpt>
      <trkpt lat="44.07749" lon="3.18124">
        <ele>771.2</ele>
        <time>2019-05-31T10:22:25Z</time>
      </trkpt>
      <trkpt lat="44.07752" lon="3.18127">
        <ele>771.2</ele>
        <time>2019-05-31T10:22:27Z</time>
      </trkpt>
      <trkpt lat="44.07756" lon="3.18129">
        <ele>771.2</ele>
        <time>2019-05-31T10:22:29Z</time>
      </trkpt>
      <trkpt lat="44.0776" lon="3.18131">
        <ele>771.2</ele>
        <time>2019-05-31T10:22:32Z</time>
      </trkpt>
      <trkpt lat="44.07765" lon="3.18132">
        <ele>771.1</ele>
        <time>2019-05-31T10:22:34Z</time>
      </trkpt>
      <trkpt lat="44.07769" lon="3.18131">
        <ele>771.1</ele>
        <time>2019-05-31T10:22:35Z</time>
      </trkpt>
      <trkpt lat="44.07773" lon="3.18131">
        <ele>771</ele>
        <time>2019-05-31T10:22:36Z</time>
      </trkpt>
      <trkpt lat="44.07777" lon="3.1813">
        <ele>770.9</ele>
        <time>2019-05-31T10:22:37Z</time>
      </trkpt>
      <trkpt lat="44.07781" lon="3.18129">
        <ele>770.9</ele>
        <time>2019-05-31T10:22:38Z</time>
      </trkpt>
      <trkpt lat="44.07784" lon="3.18129">
        <ele>770.8</ele>
        <time>2019-05-31T10:22:39Z</time>
      </trkpt>
      <trkpt lat="44.07787" lon="3.18128">
        <ele>770.7</ele>
        <time>2019-05-31T10:22:40Z</time>
      </trkpt>
      <trkpt lat="44.0779" lon="3.18129">
        <ele>770.7</ele>
        <time>2019-05-31T10:22:41Z</time>
      </trkpt>
      <trkpt lat="44.07793" lon="3.1813">
        <ele>770.6</ele>
        <time>2019-05-31T10:22:42Z</time>
      </trkpt>
      <trkpt lat="44.07797" lon="3.1813">
        <ele>770.5</ele>
        <time>2019-05-31T10:22:43Z</time>
      </trkpt>
      <trkpt lat="44.07802" lon="3.1813">
        <ele>770.4</ele>
        <time>2019-05-31T10:22:44Z</time>
      </trkpt>
      <trkpt lat="44.07806" lon="3.1813">
        <ele>770.3</ele>
        <time>2019-05-31T10:22:45Z</time>
      </trkpt>
      <trkpt lat="44.07811" lon="3.18129">
        <ele>770.3</ele>
        <time>2019-05-31T10:22:46Z</time>
      </trkpt>
      <trkpt lat="44.07815" lon="3.18129">
        <ele>770.2</ele>
        <time>2019-05-31T10:22:47Z</time>
      </trkpt>
      <trkpt lat="44.07819" lon="3.18128">
        <ele>770.2</ele>
        <time>2019-05-31T10:22:48Z</time>
      </trkpt>
      <trkpt lat="44.07823" lon="3.18128">
        <ele>770.2</ele>
        <time>2019-05-31T10:22:49Z</time>
      </trkpt>
      <trkpt lat="44.07827" lon="3.18128">
        <ele>770.2</ele>
        <time>2019-05-31T10:22:50Z</time>
      </trkpt>
      <trkpt lat="44.07831" lon="3.18128">
        <ele>770.3</ele>
        <time>2019-05-31T10:22:51Z</time>
      </trkpt>
      <trkpt lat="44.07835" lon="3.18128">
        <ele>770.3</ele>
        <time>2019-05-31T10:22:52Z</time>
      </trkpt>
      <trkpt lat="44.07839" lon="3.18127">
        <ele>770.3</ele>
        <time>2019-05-31T10:22:53Z</time>
      </trkpt>
      <trkpt lat="44.07844" lon="3.18126">
        <ele>770.4</ele>
        <time>2019-05-31T10:22:54Z</time>
      </trkpt>
      <trkpt lat="44.07848" lon="3.18125">
        <ele>770.4</ele>
        <time>2019-05-31T10:22:55Z</time>
      </trkpt>
      <trkpt lat="44.07852" lon="3.18125">
        <ele>770.5</ele>
        <time>2019-05-31T10:22:56Z</time>
      </trkpt>
      <trkpt lat="44.07856" lon="3.18126">
        <ele>770.5</ele>
        <time>2019-05-31T10:22:57Z</time>
      </trkpt>
      <trkpt lat="44.0786" lon="3.18128">
        <ele>770.6</ele>
        <time>2019-05-31T10:22:58Z</time>
      </trkpt>
      <trkpt lat="44.07864" lon="3.18129">
        <ele>770.6</ele>
        <time>2019-05-31T10:22:59Z</time>
      </trkpt>
      <trkpt lat="44.07868" lon="3.18131">
        <ele>770.6</ele>
        <time>2019-05-31T10:23:00Z</time>
      </trkpt>
      <trkpt lat="44.07874" lon="3.18134">
        <ele>770.8</ele>
        <time>2019-05-31T10:23:01Z</time>
      </trkpt>
      <trkpt lat="44.07878" lon="3.18134">
        <ele>770.8</ele>
        <time>2019-05-31T10:23:02Z</time>
      </trkpt>
      <trkpt lat="44.07882" lon="3.18133">
        <ele>770.9</ele>
        <time>2019-05-31T10:23:03Z</time>
      </trkpt>
      <trkpt lat="44.07887" lon="3.18131">
        <ele>771</ele>
        <time>2019-05-31T10:23:04Z</time>
      </trkpt>
      <trkpt lat="44.07892" lon="3.1813">
        <ele>771.1</ele>
        <time>2019-05-31T10:23:05Z</time>
      </trkpt>
      <trkpt lat="44.07897" lon="3.18129">
        <ele>771.3</ele>
        <time>2019-05-31T10:23:06Z</time>
      </trkpt>
      <trkpt lat="44.079" lon="3.18129">
        <ele>771.3</ele>
        <time>2019-05-31T10:23:07Z</time>
      </trkpt>
      <trkpt lat="44.07905" lon="3.18127">
        <ele>771.5</ele>
        <time>2019-05-31T10:23:08Z</time>
      </trkpt>
      <trkpt lat="44.07909" lon="3.18127">
        <ele>771.6</ele>
        <time>2019-05-31T10:23:09Z</time>
      </trkpt>
      <trkpt lat="44.07916" lon="3.18125">
        <ele>771.8</ele>
        <time>2019-05-31T10:23:11Z</time>
      </trkpt>
      <trkpt lat="44.07919" lon="3.18124">
        <ele>772</ele>
        <time>2019-05-31T10:23:12Z</time>
      </trkpt>
      <trkpt lat="44.07924" lon="3.18124">
        <ele>772.1</ele>
        <time>2019-05-31T10:23:13Z</time>
      </trkpt>
      <trkpt lat="44.07927" lon="3.18124">
        <ele>772.3</ele>
        <time>2019-05-31T10:23:14Z</time>
      </trkpt>
      <trkpt lat="44.0793" lon="3.18123">
        <ele>772.4</ele>
        <time>2019-05-31T10:23:15Z</time>
      </trkpt>
      <trkpt lat="44.07933" lon="3.18122">
        <ele>772.5</ele>
        <time>2019-05-31T10:23:17Z</time>
      </trkpt>
      <trkpt lat="44.07937" lon="3.18121">
        <ele>772.8</ele>
        <time>2019-05-31T10:23:19Z</time>
      </trkpt>
      <trkpt lat="44.07943" lon="3.18121">
        <ele>773.2</ele>
        <time>2019-05-31T10:23:21Z</time>
      </trkpt>
      <trkpt lat="44.07946" lon="3.1812">
        <ele>773.4</ele>
        <time>2019-05-31T10:23:22Z</time>
      </trkpt>
      <trkpt lat="44.0795" lon="3.18119">
        <ele>773.6</ele>
        <time>2019-05-31T10:23:23Z</time>
      </trkpt>
      <trkpt lat="44.07954" lon="3.18118">
        <ele>773.8</ele>
        <time>2019-05-31T10:23:24Z</time>
      </trkpt>
      <trkpt lat="44.07957" lon="3.18117">
        <ele>774</ele>
        <time>2019-05-31T10:23:25Z</time>
      </trkpt>
      <trkpt lat="44.07961" lon="3.18116">
        <ele>774.3</ele>
        <time>2019-05-31T10:23:26Z</time>
      </trkpt>
      <trkpt lat="44.07965" lon="3.18115">
        <ele>774.5</ele>
        <time>2019-05-31T10:23:27Z</time>
      </trkpt>
      <trkpt lat="44.07968" lon="3.18115">
        <ele>774.7</ele>
        <time>2019-05-31T10:23:28Z</time>
      </trkpt>
      <trkpt lat="44.07971" lon="3.18114">
        <ele>774.9</ele>
        <time>2019-05-31T10:23:29Z</time>
      </trkpt>
      <trkpt lat="44.07974" lon="3.18113">
        <ele>775.1</ele>
        <time>2019-05-31T10:23:30Z</time>
      </trkpt>
      <trkpt lat="44.07978" lon="3.18112">
        <ele>775.3</ele>
        <time>2019-05-31T10:23:31Z</time>
      </trkpt>
      <trkpt lat="44.07981" lon="3.18111">
        <ele>775.4</ele>
        <time>2019-05-31T10:23:32Z</time>
      </trkpt>
      <trkpt lat="44.07985" lon="3.1811">
        <ele>775.6</ele>
        <time>2019-05-31T10:23:33Z</time>
      </trkpt>
      <trkpt lat="44.07988" lon="3.18109">
        <ele>775.7</ele>
        <time>2019-05-31T10:23:34Z</time>
      </trkpt>
      <trkpt lat="44.07991" lon="3.18109">
        <ele>775.9</ele>
        <time>2019-05-31T10:23:35Z</time>
      </trkpt>
      <trkpt lat="44.07997" lon="3.18108">
        <ele>776.3</ele>
        <time>2019-05-31T10:23:37Z</time>
      </trkpt>
      <trkpt lat="44.08" lon="3.18108">
        <ele>776.4</ele>
        <time>2019-05-31T10:23:38Z</time>
      </trkpt>
      <trkpt lat="44.08003" lon="3.18108">
        <ele>776.6</ele>
        <time>2019-05-31T10:23:39Z</time>
      </trkpt>
      <trkpt lat="44.08005" lon="3.18107">
        <ele>776.7</ele>
        <time>2019-05-31T10:23:40Z</time>
      </trkpt>
      <trkpt lat="44.0801" lon="3.18107">
        <ele>777</ele>
        <time>2019-05-31T10:23:42Z</time>
      </trkpt>
      <trkpt lat="44.08013" lon="3.18109">
        <ele>777.3</ele>
        <time>2019-05-31T10:23:44Z</time>
      </trkpt>
      <trkpt lat="44.08016" lon="3.18111">
        <ele>777.5</ele>
        <time>2019-05-31T10:23:46Z</time>
      </trkpt>
      <trkpt lat="44.08017" lon="3.18116">
        <ele>777.7</ele>
        <time>2019-05-31T10:23:48Z</time>
      </trkpt>
      <trkpt lat="44.08016" lon="3.18122">
        <ele>778</ele>
        <time>2019-05-31T10:23:50Z</time>
      </trkpt>
      <trkpt lat="44.08014" lon="3.18129">
        <ele>778.2</ele>
        <time>2019-05-31T10:23:52Z</time>
      </trkpt>
      <trkpt lat="44.08013" lon="3.18133">
        <ele>778.3</ele>
        <time>2019-05-31T10:23:53Z</time>
      </trkpt>
      <trkpt lat="44.08012" lon="3.18137">
        <ele>778.5</ele>
        <time>2019-05-31T10:23:54Z</time>
      </trkpt>
      <trkpt lat="44.08012" lon="3.18142">
        <ele>778.6</ele>
        <time>2019-05-31T10:23:56Z</time>
      </trkpt>
      <trkpt lat="44.08013" lon="3.18147">
        <ele>778.6</ele>
        <time>2019-05-31T10:23:58Z</time>
      </trkpt>
      <trkpt lat="44.08016" lon="3.18151">
        <ele>778.6</ele>
        <time>2019-05-31T10:24:00Z</time>
      </trkpt>
      <trkpt lat="44.08019" lon="3.18154">
        <ele>778.6</ele>
        <time>2019-05-31T10:24:02Z</time>
      </trkpt>
      <trkpt lat="44.08022" lon="3.1816">
        <ele>778.5</ele>
        <time>2019-05-31T10:24:04Z</time>
      </trkpt>
      <trkpt lat="44.08025" lon="3.18164">
        <ele>778.5</ele>
        <time>2019-05-31T10:24:05Z</time>
      </trkpt>
      <trkpt lat="44.08028" lon="3.18168">
        <ele>778.4</ele>
        <time>2019-05-31T10:24:06Z</time>
      </trkpt>
      <trkpt lat="44.0803" lon="3.18173">
        <ele>778.4</ele>
        <time>2019-05-31T10:24:07Z</time>
      </trkpt>
      <trkpt lat="44.08031" lon="3.18177">
        <ele>778.3</ele>
        <time>2019-05-31T10:24:08Z</time>
      </trkpt>
      <trkpt lat="44.08033" lon="3.18181">
        <ele>778.3</ele>
        <time>2019-05-31T10:24:09Z</time>
      </trkpt>
      <trkpt lat="44.08036" lon="3.18185">
        <ele>778.3</ele>
        <time>2019-05-31T10:24:10Z</time>
      </trkpt>
      <trkpt lat="44.08038" lon="3.18189">
        <ele>778.2</ele>
        <time>2019-05-31T10:24:11Z</time>
      </trkpt>
      <trkpt lat="44.0804" lon="3.18193">
        <ele>778.2</ele>
        <time>2019-05-31T10:24:12Z</time>
      </trkpt>
      <trkpt lat="44.08044" lon="3.18197">
        <ele>778.1</ele>
        <time>2019-05-31T10:24:13Z</time>
      </trkpt>
      <trkpt lat="44.08048" lon="3.18199">
        <ele>778</ele>
        <time>2019-05-31T10:24:14Z</time>
      </trkpt>
      <trkpt lat="44.08054" lon="3.182">
        <ele>777.9</ele>
        <time>2019-05-31T10:24:15Z</time>
      </trkpt>
      <trkpt lat="44.08058" lon="3.182">
        <ele>777.8</ele>
        <time>2019-05-31T10:24:16Z</time>
      </trkpt>
      <trkpt lat="44.08061" lon="3.182">
        <ele>777.8</ele>
        <time>2019-05-31T10:24:17Z</time>
      </trkpt>
      <trkpt lat="44.08064" lon="3.18201">
        <ele>777.7</ele>
        <time>2019-05-31T10:24:18Z</time>
      </trkpt>
      <trkpt lat="44.08067" lon="3.18202">
        <ele>777.7</ele>
        <time>2019-05-31T10:24:19Z</time>
      </trkpt>
      <trkpt lat="44.0807" lon="3.18203">
        <ele>777.6</ele>
        <time>2019-05-31T10:24:20Z</time>
      </trkpt>
      <trkpt lat="44.08073" lon="3.18203">
        <ele>777.6</ele>
        <time>2019-05-31T10:24:21Z</time>
      </trkpt>
      <trkpt lat="44.08075" lon="3.18205">
        <ele>777.6</ele>
        <time>2019-05-31T10:24:22Z</time>
      </trkpt>
      <trkpt lat="44.08078" lon="3.18206">
        <ele>777.5</ele>
        <time>2019-05-31T10:24:23Z</time>
      </trkpt>
      <trkpt lat="44.08083" lon="3.18209">
        <ele>777.5</ele>
        <time>2019-05-31T10:24:25Z</time>
      </trkpt>
      <trkpt lat="44.08086" lon="3.18209">
        <ele>777.5</ele>
        <time>2019-05-31T10:24:26Z</time>
      </trkpt>
      <trkpt lat="44.08091" lon="3.18207">
        <ele>777.4</ele>
        <time>2019-05-31T10:24:27Z</time>
      </trkpt>
      <trkpt lat="44.08095" lon="3.18203">
        <ele>777.4</ele>
        <time>2019-05-31T10:24:28Z</time>
      </trkpt>
      <trkpt lat="44.081" lon="3.18199">
        <ele>777.3</ele>
        <time>2019-05-31T10:24:29Z</time>
      </trkpt>
      <trkpt lat="44.08105" lon="3.18195">
        <ele>777.3</ele>
        <time>2019-05-31T10:24:30Z</time>
      </trkpt>
      <trkpt lat="44.08114" lon="3.18183">
        <ele>777.1</ele>
        <time>2019-05-31T10:24:31Z</time>
      </trkpt>
      <trkpt lat="44.08118" lon="3.18181">
        <ele>777.1</ele>
        <time>2019-05-31T10:24:32Z</time>
      </trkpt>
      <trkpt lat="44.08123" lon="3.18178">
        <ele>777</ele>
        <time>2019-05-31T10:24:33Z</time>
      </trkpt>
      <trkpt lat="44.08128" lon="3.18174">
        <ele>777</ele>
        <time>2019-05-31T10:24:34Z</time>
      </trkpt>
      <trkpt lat="44.08133" lon="3.18173">
        <ele>777</ele>
        <time>2019-05-31T10:24:35Z</time>
      </trkpt>
      <trkpt lat="44.08137" lon="3.18172">
        <ele>777.1</ele>
        <time>2019-05-31T10:24:36Z</time>
      </trkpt>
      <trkpt lat="44.08142" lon="3.1817">
        <ele>777.2</ele>
        <time>2019-05-31T10:24:37Z</time>
      </trkpt>
      <trkpt lat="44.08147" lon="3.18171">
        <ele>777.4</ele>
        <time>2019-05-31T10:24:39Z</time>
      </trkpt>
      <trkpt lat="44.08153" lon="3.18172">
        <ele>777.7</ele>
        <time>2019-05-31T10:24:40Z</time>
      </trkpt>
      <trkpt lat="44.08157" lon="3.18173">
        <ele>777.8</ele>
        <time>2019-05-31T10:24:41Z</time>
      </trkpt>
      <trkpt lat="44.0816" lon="3.18174">
        <ele>778</ele>
        <time>2019-05-31T10:24:42Z</time>
      </trkpt>
      <trkpt lat="44.08163" lon="3.18176">
        <ele>778.2</ele>
        <time>2019-05-31T10:24:43Z</time>
      </trkpt>
      <trkpt lat="44.08167" lon="3.18178">
        <ele>778.5</ele>
        <time>2019-05-31T10:24:44Z</time>
      </trkpt>
      <trkpt lat="44.08169" lon="3.1818">
        <ele>778.7</ele>
        <time>2019-05-31T10:24:45Z</time>
      </trkpt>
      <trkpt lat="44.08173" lon="3.18183">
        <ele>779</ele>
        <time>2019-05-31T10:24:46Z</time>
      </trkpt>
      <trkpt lat="44.08175" lon="3.18185">
        <ele>779.3</ele>
        <time>2019-05-31T10:24:47Z</time>
      </trkpt>
      <trkpt lat="44.0818" lon="3.18188">
        <ele>779.8</ele>
        <time>2019-05-31T10:24:49Z</time>
      </trkpt>
      <trkpt lat="44.08184" lon="3.1819">
        <ele>780.2</ele>
        <time>2019-05-31T10:24:51Z</time>
      </trkpt>
      <trkpt lat="44.08187" lon="3.18192">
        <ele>780.5</ele>
        <time>2019-05-31T10:24:53Z</time>
      </trkpt>
      <trkpt lat="44.08191" lon="3.18193">
        <ele>781</ele>
        <time>2019-05-31T10:24:55Z</time>
      </trkpt>
      <trkpt lat="44.08195" lon="3.18192">
        <ele>781.4</ele>
        <time>2019-05-31T10:24:57Z</time>
      </trkpt>
      <trkpt lat="44.08199" lon="3.18193">
        <ele>781.8</ele>
        <time>2019-05-31T10:24:59Z</time>
      </trkpt>
      <trkpt lat="44.08203" lon="3.18195">
        <ele>782.2</ele>
        <time>2019-05-31T10:25:01Z</time>
      </trkpt>
      <trkpt lat="44.08209" lon="3.18197">
        <ele>782.6</ele>
        <time>2019-05-31T10:25:03Z</time>
      </trkpt>
      <trkpt lat="44.08212" lon="3.18199">
        <ele>782.8</ele>
        <time>2019-05-31T10:25:04Z</time>
      </trkpt>
      <trkpt lat="44.08215" lon="3.18199">
        <ele>783</ele>
        <time>2019-05-31T10:25:05Z</time>
      </trkpt>
      <trkpt lat="44.08218" lon="3.18199">
        <ele>783.2</ele>
        <time>2019-05-31T10:25:06Z</time>
      </trkpt>
      <trkpt lat="44.08222" lon="3.18198">
        <ele>783.4</ele>
        <time>2019-05-31T10:25:07Z</time>
      </trkpt>
      <trkpt lat="44.08226" lon="3.18197">
        <ele>783.6</ele>
        <time>2019-05-31T10:25:08Z</time>
      </trkpt>
      <trkpt lat="44.0823" lon="3.18197">
        <ele>783.8</ele>
        <time>2019-05-31T10:25:10Z</time>
      </trkpt>
      <trkpt lat="44.08233" lon="3.18196">
        <ele>783.9</ele>
        <time>2019-05-31T10:25:11Z</time>
      </trkpt>
      <trkpt lat="44.08236" lon="3.18196">
        <ele>784.1</ele>
        <time>2019-05-31T10:25:12Z</time>
      </trkpt>
      <trkpt lat="44.08239" lon="3.18195">
        <ele>784.2</ele>
        <time>2019-05-31T10:25:13Z</time>
      </trkpt>
      <trkpt lat="44.08244" lon="3.18197">
        <ele>784.5</ele>
        <time>2019-05-31T10:25:15Z</time>
      </trkpt>
      <trkpt lat="44.08246" lon="3.18199">
        <ele>784.7</ele>
        <time>2019-05-31T10:25:16Z</time>
      </trkpt>
      <trkpt lat="44.08252" lon="3.18202">
        <ele>785</ele>
        <time>2019-05-31T10:25:18Z</time>
      </trkpt>
      <trkpt lat="44.08255" lon="3.18204">
        <ele>785.1</ele>
        <time>2019-05-31T10:25:19Z</time>
      </trkpt>
      <trkpt lat="44.08258" lon="3.18206">
        <ele>785.3</ele>
        <time>2019-05-31T10:25:20Z</time>
      </trkpt>
      <trkpt lat="44.08261" lon="3.18206">
        <ele>785.5</ele>
        <time>2019-05-31T10:25:21Z</time>
      </trkpt>
      <trkpt lat="44.08266" lon="3.18206">
        <ele>785.9</ele>
        <time>2019-05-31T10:25:23Z</time>
      </trkpt>
      <trkpt lat="44.0827" lon="3.18206">
        <ele>786.1</ele>
        <time>2019-05-31T10:25:25Z</time>
      </trkpt>
      <trkpt lat="44.08274" lon="3.18209">
        <ele>786.5</ele>
        <time>2019-05-31T10:25:27Z</time>
      </trkpt>
      <trkpt lat="44.08278" lon="3.18213">
        <ele>787.1</ele>
        <time>2019-05-31T10:25:29Z</time>
      </trkpt>
      <trkpt lat="44.0828" lon="3.18218">
        <ele>787.5</ele>
        <time>2019-05-31T10:25:31Z</time>
      </trkpt>
      <trkpt lat="44.08283" lon="3.18221">
        <ele>787.9</ele>
        <time>2019-05-31T10:25:34Z</time>
      </trkpt>
      <trkpt lat="44.08287" lon="3.18223">
        <ele>788.3</ele>
        <time>2019-05-31T10:25:36Z</time>
      </trkpt>
      <trkpt lat="44.08291" lon="3.18226">
        <ele>788.7</ele>
        <time>2019-05-31T10:25:38Z</time>
      </trkpt>
      <trkpt lat="44.08295" lon="3.18228">
        <ele>789.1</ele>
        <time>2019-05-31T10:25:40Z</time>
      </trkpt>
      <trkpt lat="44.08299" lon="3.1823">
        <ele>789.4</ele>
        <time>2019-05-31T10:25:42Z</time>
      </trkpt>
      <trkpt lat="44.08302" lon="3.18232">
        <ele>789.7</ele>
        <time>2019-05-31T10:25:44Z</time>
      </trkpt>
      <trkpt lat="44.08306" lon="3.18232">
        <ele>790</ele>
        <time>2019-05-31T10:25:46Z</time>
      </trkpt>
      <trkpt lat="44.08309" lon="3.18233">
        <ele>790.2</ele>
        <time>2019-05-31T10:25:48Z</time>
      </trkpt>
      <trkpt lat="44.08312" lon="3.18235">
        <ele>790.4</ele>
        <time>2019-05-31T10:25:50Z</time>
      </trkpt>
      <trkpt lat="44.08315" lon="3.18237">
        <ele>790.7</ele>
        <time>2019-05-31T10:25:52Z</time>
      </trkpt>
      <trkpt lat="44.08319" lon="3.18239">
        <ele>790.9</ele>
        <time>2019-05-31T10:25:53Z</time>
      </trkpt>
      <trkpt lat="44.08324" lon="3.1824">
        <ele>791.3</ele>
        <time>2019-05-31T10:25:55Z</time>
      </trkpt>
      <trkpt lat="44.08327" lon="3.1824">
        <ele>791.5</ele>
        <time>2019-05-31T10:25:56Z</time>
      </trkpt>
      <trkpt lat="44.0833" lon="3.18241">
        <ele>791.8</ele>
        <time>2019-05-31T10:25:57Z</time>
      </trkpt>
      <trkpt lat="44.08333" lon="3.18242">
        <ele>792.1</ele>
        <time>2019-05-31T10:25:58Z</time>
      </trkpt>
      <trkpt lat="44.08337" lon="3.18242">
        <ele>792.4</ele>
        <time>2019-05-31T10:25:59Z</time>
      </trkpt>
      <trkpt lat="44.0834" lon="3.18243">
        <ele>792.7</ele>
        <time>2019-05-31T10:26:00Z</time>
      </trkpt>
      <trkpt lat="44.08345" lon="3.18244">
        <ele>793.1</ele>
        <time>2019-05-31T10:26:02Z</time>
      </trkpt>
      <trkpt lat="44.08348" lon="3.18244">
        <ele>793.4</ele>
        <time>2019-05-31T10:26:03Z</time>
      </trkpt>
      <trkpt lat="44.08351" lon="3.18244">
        <ele>793.5</ele>
        <time>2019-05-31T10:26:04Z</time>
      </trkpt>
      <trkpt lat="44.08355" lon="3.18245">
        <ele>793.7</ele>
        <time>2019-05-31T10:26:06Z</time>
      </trkpt>
      <trkpt lat="44.08359" lon="3.18244">
        <ele>793.9</ele>
        <time>2019-05-31T10:26:08Z</time>
      </trkpt>
      <trkpt lat="44.08364" lon="3.18243">
        <ele>794.1</ele>
        <time>2019-05-31T10:26:10Z</time>
      </trkpt>
      <trkpt lat="44.08369" lon="3.18244">
        <ele>794.3</ele>
        <time>2019-05-31T10:26:12Z</time>
      </trkpt>
      <trkpt lat="44.08374" lon="3.18243">
        <ele>794.4</ele>
        <time>2019-05-31T10:26:14Z</time>
      </trkpt>
      <trkpt lat="44.08378" lon="3.18243">
        <ele>794.4</ele>
        <time>2019-05-31T10:26:15Z</time>
      </trkpt>
      <trkpt lat="44.08382" lon="3.18242">
        <ele>794.4</ele>
        <time>2019-05-31T10:26:16Z</time>
      </trkpt>
      <trkpt lat="44.08386" lon="3.18241">
        <ele>794.4</ele>
        <time>2019-05-31T10:26:17Z</time>
      </trkpt>
      <trkpt lat="44.0839" lon="3.18241">
        <ele>794.3</ele>
        <time>2019-05-31T10:26:18Z</time>
      </trkpt>
      <trkpt lat="44.08394" lon="3.18241">
        <ele>794.2</ele>
        <time>2019-05-31T10:26:19Z</time>
      </trkpt>
      <trkpt lat="44.08397" lon="3.18242">
        <ele>794.2</ele>
        <time>2019-05-31T10:26:20Z</time>
      </trkpt>
      <trkpt lat="44.08401" lon="3.18244">
        <ele>794.1</ele>
        <time>2019-05-31T10:26:21Z</time>
      </trkpt>
      <trkpt lat="44.08405" lon="3.18245">
        <ele>794</ele>
        <time>2019-05-31T10:26:22Z</time>
      </trkpt>
      <trkpt lat="44.0841" lon="3.18246">
        <ele>793.8</ele>
        <time>2019-05-31T10:26:23Z</time>
      </trkpt>
      <trkpt lat="44.08422" lon="3.18247">
        <ele>793.4</ele>
        <time>2019-05-31T10:26:24Z</time>
      </trkpt>
      <trkpt lat="44.08427" lon="3.18247">
        <ele>793.1</ele>
        <time>2019-05-31T10:26:25Z</time>
      </trkpt>
      <trkpt lat="44.08431" lon="3.18249">
        <ele>793</ele>
        <time>2019-05-31T10:26:26Z</time>
      </trkpt>
      <trkpt lat="44.08436" lon="3.18253">
        <ele>792.7</ele>
        <time>2019-05-31T10:26:27Z</time>
      </trkpt>
      <trkpt lat="44.08442" lon="3.18259">
        <ele>792.3</ele>
        <time>2019-05-31T10:26:29Z</time>
      </trkpt>
      <trkpt lat="44.08447" lon="3.18263">
        <ele>791.7</ele>
        <time>2019-05-31T10:26:30Z</time>
      </trkpt>
      <trkpt lat="44.0845" lon="3.18267">
        <ele>791.3</ele>
        <time>2019-05-31T10:26:31Z</time>
      </trkpt>
      <trkpt lat="44.08454" lon="3.18268">
        <ele>790.8</ele>
        <time>2019-05-31T10:26:32Z</time>
      </trkpt>
      <trkpt lat="44.0846" lon="3.18271">
        <ele>790.4</ele>
        <time>2019-05-31T10:26:33Z</time>
      </trkpt>
      <trkpt lat="44.08464" lon="3.18274">
        <ele>790.1</ele>
        <time>2019-05-31T10:26:34Z</time>
      </trkpt>
      <trkpt lat="44.0847" lon="3.18276">
        <ele>789.5</ele>
        <time>2019-05-31T10:26:35Z</time>
      </trkpt>
      <trkpt lat="44.08477" lon="3.18281">
        <ele>789.3</ele>
        <time>2019-05-31T10:26:36Z</time>
      </trkpt>
      <trkpt lat="44.08488" lon="3.18284">
        <ele>788.9</ele>
        <time>2019-05-31T10:26:37Z</time>
      </trkpt>
      <trkpt lat="44.08489" lon="3.1829">
        <ele>788.8</ele>
        <time>2019-05-31T10:26:38Z</time>
      </trkpt>
      <trkpt lat="44.08498" lon="3.18293">
        <ele>788.5</ele>
        <time>2019-05-31T10:26:39Z</time>
      </trkpt>
      <trkpt lat="44.08505" lon="3.18296">
        <ele>788.4</ele>
        <time>2019-05-31T10:26:40Z</time>
      </trkpt>
      <trkpt lat="44.0851" lon="3.18299">
        <ele>788.3</ele>
        <time>2019-05-31T10:26:41Z</time>
      </trkpt>
      <trkpt lat="44.08517" lon="3.183">
        <ele>788.1</ele>
        <time>2019-05-31T10:26:42Z</time>
      </trkpt>
      <trkpt lat="44.08524" lon="3.18306">
        <ele>787.8</ele>
        <time>2019-05-31T10:26:43Z</time>
      </trkpt>
      <trkpt lat="44.08532" lon="3.1831">
        <ele>787.4</ele>
        <time>2019-05-31T10:26:44Z</time>
      </trkpt>
      <trkpt lat="44.08538" lon="3.18314">
        <ele>787.1</ele>
        <time>2019-05-31T10:26:45Z</time>
      </trkpt>
      <trkpt lat="44.08545" lon="3.18318">
        <ele>786.7</ele>
        <time>2019-05-31T10:26:46Z</time>
      </trkpt>
      <trkpt lat="44.08551" lon="3.1832">
        <ele>786.4</ele>
        <time>2019-05-31T10:26:47Z</time>
      </trkpt>
      <trkpt lat="44.08555" lon="3.18324">
        <ele>786.2</ele>
        <time>2019-05-31T10:26:48Z</time>
      </trkpt>
      <trkpt lat="44.0856" lon="3.18328">
        <ele>785.9</ele>
        <time>2019-05-31T10:26:49Z</time>
      </trkpt>
      <trkpt lat="44.08567" lon="3.1833">
        <ele>785.7</ele>
        <time>2019-05-31T10:26:50Z</time>
      </trkpt>
      <trkpt lat="44.0857" lon="3.18335">
        <ele>785.5</ele>
        <time>2019-05-31T10:26:51Z</time>
      </trkpt>
      <trkpt lat="44.08577" lon="3.18339">
        <ele>785.1</ele>
        <time>2019-05-31T10:26:52Z</time>
      </trkpt>
      <trkpt lat="44.08582" lon="3.18343">
        <ele>784.8</ele>
        <time>2019-05-31T10:26:53Z</time>
      </trkpt>
      <trkpt lat="44.08588" lon="3.18347">
        <ele>784.6</ele>
        <time>2019-05-31T10:26:54Z</time>
      </trkpt>
      <trkpt lat="44.08591" lon="3.18356">
        <ele>784.4</ele>
        <time>2019-05-31T10:26:55Z</time>
      </trkpt>
      <trkpt lat="44.08596" lon="3.1836">
        <ele>784.2</ele>
        <time>2019-05-31T10:26:56Z</time>
      </trkpt>
      <trkpt lat="44.08602" lon="3.18364">
        <ele>783.9</ele>
        <time>2019-05-31T10:26:57Z</time>
      </trkpt>
      <trkpt lat="44.08607" lon="3.18367">
        <ele>783.8</ele>
        <time>2019-05-31T10:26:58Z</time>
      </trkpt>
      <trkpt lat="44.08612" lon="3.1837">
        <ele>783.6</ele>
        <time>2019-05-31T10:26:59Z</time>
      </trkpt>
      <trkpt lat="44.08617" lon="3.18374">
        <ele>783.4</ele>
        <time>2019-05-31T10:27:00Z</time>
      </trkpt>
      <trkpt lat="44.08622" lon="3.1838">
        <ele>783.2</ele>
        <time>2019-05-31T10:27:01Z</time>
      </trkpt>
      <trkpt lat="44.08627" lon="3.18388">
        <ele>783.1</ele>
        <time>2019-05-31T10:27:02Z</time>
      </trkpt>
      <trkpt lat="44.0863" lon="3.18395">
        <ele>783.1</ele>
        <time>2019-05-31T10:27:03Z</time>
      </trkpt>
      <trkpt lat="44.08633" lon="3.18403">
        <ele>783.1</ele>
        <time>2019-05-31T10:27:04Z</time>
      </trkpt>
      <trkpt lat="44.08636" lon="3.18408">
        <ele>783.1</ele>
        <time>2019-05-31T10:27:05Z</time>
      </trkpt>
      <trkpt lat="44.08641" lon="3.18414">
        <ele>783.1</ele>
        <time>2019-05-31T10:27:06Z</time>
      </trkpt>
      <trkpt lat="44.08645" lon="3.1842">
        <ele>783.1</ele>
        <time>2019-05-31T10:27:07Z</time>
      </trkpt>
      <trkpt lat="44.08649" lon="3.18423">
        <ele>783.1</ele>
        <time>2019-05-31T10:27:08Z</time>
      </trkpt>
      <trkpt lat="44.08654" lon="3.18426">
        <ele>783.2</ele>
        <time>2019-05-31T10:27:09Z</time>
      </trkpt>
      <trkpt lat="44.08659" lon="3.18429">
        <ele>783.3</ele>
        <time>2019-05-31T10:27:10Z</time>
      </trkpt>
      <trkpt lat="44.08664" lon="3.18431">
        <ele>783.4</ele>
        <time>2019-05-31T10:27:11Z</time>
      </trkpt>
      <trkpt lat="44.08669" lon="3.18432">
        <ele>783.5</ele>
        <time>2019-05-31T10:27:12Z</time>
      </trkpt>
      <trkpt lat="44.08674" lon="3.18434">
        <ele>783.6</ele>
        <time>2019-05-31T10:27:13Z</time>
      </trkpt>
      <trkpt lat="44.08679" lon="3.18436">
        <ele>783.6</ele>
        <time>2019-05-31T10:27:14Z</time>
      </trkpt>
      <trkpt lat="44.08685" lon="3.18437">
        <ele>783.7</ele>
        <time>2019-05-31T10:27:15Z</time>
      </trkpt>
      <trkpt lat="44.08689" lon="3.1844">
        <ele>783.8</ele>
        <time>2019-05-31T10:27:16Z</time>
      </trkpt>
      <trkpt lat="44.08693" lon="3.18444">
        <ele>783.8</ele>
        <time>2019-05-31T10:27:17Z</time>
      </trkpt>
      <trkpt lat="44.08697" lon="3.18448">
        <ele>783.8</ele>
        <time>2019-05-31T10:27:18Z</time>
      </trkpt>
      <trkpt lat="44.08701" lon="3.1845">
        <ele>783.9</ele>
        <time>2019-05-31T10:27:19Z</time>
      </trkpt>
      <trkpt lat="44.08706" lon="3.18454">
        <ele>783.9</ele>
        <time>2019-05-31T10:27:20Z</time>
      </trkpt>
      <trkpt lat="44.08709" lon="3.18458">
        <ele>783.9</ele>
        <time>2019-05-31T10:27:21Z</time>
      </trkpt>
      <trkpt lat="44.08716" lon="3.1846">
        <ele>783.9</ele>
        <time>2019-05-31T10:27:22Z</time>
      </trkpt>
      <trkpt lat="44.08722" lon="3.1846">
        <ele>784</ele>
        <time>2019-05-31T10:27:23Z</time>
      </trkpt>
      <trkpt lat="44.08726" lon="3.18463">
        <ele>784</ele>
        <time>2019-05-31T10:27:24Z</time>
      </trkpt>
      <trkpt lat="44.0873" lon="3.18466">
        <ele>784.2</ele>
        <time>2019-05-31T10:27:25Z</time>
      </trkpt>
      <trkpt lat="44.08734" lon="3.18468">
        <ele>784.3</ele>
        <time>2019-05-31T10:27:26Z</time>
      </trkpt>
      <trkpt lat="44.08739" lon="3.18469">
        <ele>784.5</ele>
        <time>2019-05-31T10:27:27Z</time>
      </trkpt>
      <trkpt lat="44.08744" lon="3.18471">
        <ele>784.7</ele>
        <time>2019-05-31T10:27:28Z</time>
      </trkpt>
      <trkpt lat="44.08747" lon="3.18476">
        <ele>784.9</ele>
        <time>2019-05-31T10:27:30Z</time>
      </trkpt>
      <trkpt lat="44.08751" lon="3.18476">
        <ele>785.1</ele>
        <time>2019-05-31T10:27:31Z</time>
      </trkpt>
      <trkpt lat="44.08754" lon="3.18478">
        <ele>785.2</ele>
        <time>2019-05-31T10:27:32Z</time>
      </trkpt>
      <trkpt lat="44.08758" lon="3.1848">
        <ele>785.4</ele>
        <time>2019-05-31T10:27:33Z</time>
      </trkpt>
      <trkpt lat="44.08763" lon="3.18487">
        <ele>785.7</ele>
        <time>2019-05-31T10:27:35Z</time>
      </trkpt>
      <trkpt lat="44.08767" lon="3.18489">
        <ele>785.9</ele>
        <time>2019-05-31T10:27:36Z</time>
      </trkpt>
      <trkpt lat="44.0877" lon="3.18492">
        <ele>786.1</ele>
        <time>2019-05-31T10:27:37Z</time>
      </trkpt>
      <trkpt lat="44.08772" lon="3.18495">
        <ele>786.1</ele>
        <time>2019-05-31T10:27:38Z</time>
      </trkpt>
      <trkpt lat="44.08773" lon="3.18499">
        <ele>786.2</ele>
        <time>2019-05-31T10:27:39Z</time>
      </trkpt>
      <trkpt lat="44.08774" lon="3.18504">
        <ele>786.2</ele>
        <time>2019-05-31T10:27:40Z</time>
      </trkpt>
      <trkpt lat="44.08776" lon="3.18509">
        <ele>786.3</ele>
        <time>2019-05-31T10:27:41Z</time>
      </trkpt>
      <trkpt lat="44.08778" lon="3.18512">
        <ele>786.3</ele>
        <time>2019-05-31T10:27:42Z</time>
      </trkpt>
      <trkpt lat="44.0878" lon="3.18515">
        <ele>786.4</ele>
        <time>2019-05-31T10:27:43Z</time>
      </trkpt>
      <trkpt lat="44.08783" lon="3.18517">
        <ele>786.4</ele>
        <time>2019-05-31T10:27:44Z</time>
      </trkpt>
      <trkpt lat="44.08787" lon="3.1852">
        <ele>786.5</ele>
        <time>2019-05-31T10:27:45Z</time>
      </trkpt>
      <trkpt lat="44.08792" lon="3.18523">
        <ele>786.5</ele>
        <time>2019-05-31T10:27:46Z</time>
      </trkpt>
      <trkpt lat="44.08798" lon="3.18529">
        <ele>786.5</ele>
        <time>2019-05-31T10:27:47Z</time>
      </trkpt>
      <trkpt lat="44.08801" lon="3.18532">
        <ele>786.5</ele>
        <time>2019-05-31T10:27:48Z</time>
      </trkpt>
      <trkpt lat="44.08806" lon="3.18534">
        <ele>786.5</ele>
        <time>2019-05-31T10:27:49Z</time>
      </trkpt>
      <trkpt lat="44.08811" lon="3.18536">
        <ele>786.5</ele>
        <time>2019-05-31T10:27:50Z</time>
      </trkpt>
      <trkpt lat="44.08816" lon="3.18536">
        <ele>786.4</ele>
        <time>2019-05-31T10:27:51Z</time>
      </trkpt>
      <trkpt lat="44.0882" lon="3.18535">
        <ele>786.4</ele>
        <time>2019-05-31T10:27:52Z</time>
      </trkpt>
      <trkpt lat="44.08823" lon="3.18534">
        <ele>786.3</ele>
        <time>2019-05-31T10:27:53Z</time>
      </trkpt>
      <trkpt lat="44.0883" lon="3.18533">
        <ele>786.3</ele>
        <time>2019-05-31T10:27:54Z</time>
      </trkpt>
      <trkpt lat="44.08837" lon="3.18532">
        <ele>786.2</ele>
        <time>2019-05-31T10:27:55Z</time>
      </trkpt>
      <trkpt lat="44.08843" lon="3.18534">
        <ele>786.2</ele>
        <time>2019-05-31T10:27:56Z</time>
      </trkpt>
      <trkpt lat="44.08847" lon="3.18536">
        <ele>786.2</ele>
        <time>2019-05-31T10:27:57Z</time>
      </trkpt>
      <trkpt lat="44.08853" lon="3.18536">
        <ele>786.3</ele>
        <time>2019-05-31T10:27:58Z</time>
      </trkpt>
      <trkpt lat="44.08857" lon="3.18536">
        <ele>786.3</ele>
        <time>2019-05-31T10:27:59Z</time>
      </trkpt>
      <trkpt lat="44.08861" lon="3.18535">
        <ele>786.4</ele>
        <time>2019-05-31T10:28:00Z</time>
      </trkpt>
      <trkpt lat="44.08865" lon="3.18535">
        <ele>786.4</ele>
        <time>2019-05-31T10:28:01Z</time>
      </trkpt>
      <trkpt lat="44.08869" lon="3.18533">
        <ele>786.5</ele>
        <time>2019-05-31T10:28:02Z</time>
      </trkpt>
      <trkpt lat="44.08872" lon="3.18533">
        <ele>786.6</ele>
        <time>2019-05-31T10:28:03Z</time>
      </trkpt>
      <trkpt lat="44.08877" lon="3.18533">
        <ele>786.7</ele>
        <time>2019-05-31T10:28:04Z</time>
      </trkpt>
      <trkpt lat="44.0888" lon="3.18535">
        <ele>786.7</ele>
        <time>2019-05-31T10:28:05Z</time>
      </trkpt>
      <trkpt lat="44.08886" lon="3.18535">
        <ele>786.7</ele>
        <time>2019-05-31T10:28:06Z</time>
      </trkpt>
      <trkpt lat="44.0889" lon="3.18535">
        <ele>786.6</ele>
        <time>2019-05-31T10:28:07Z</time>
      </trkpt>
      <trkpt lat="44.08895" lon="3.18533">
        <ele>786.5</ele>
        <time>2019-05-31T10:28:08Z</time>
      </trkpt>
      <trkpt lat="44.08901" lon="3.18532">
        <ele>786.4</ele>
        <time>2019-05-31T10:28:09Z</time>
      </trkpt>
      <trkpt lat="44.08906" lon="3.1853">
        <ele>786.1</ele>
        <time>2019-05-31T10:28:10Z</time>
      </trkpt>
      <trkpt lat="44.0891" lon="3.18528">
        <ele>785.9</ele>
        <time>2019-05-31T10:28:11Z</time>
      </trkpt>
      <trkpt lat="44.08917" lon="3.18525">
        <ele>785.6</ele>
        <time>2019-05-31T10:28:12Z</time>
      </trkpt>
      <trkpt lat="44.08925" lon="3.18521">
        <ele>785.3</ele>
        <time>2019-05-31T10:28:13Z</time>
      </trkpt>
      <trkpt lat="44.08932" lon="3.18517">
        <ele>785</ele>
        <time>2019-05-31T10:28:14Z</time>
      </trkpt>
      <trkpt lat="44.08939" lon="3.18514">
        <ele>784.5</ele>
        <time>2019-05-31T10:28:15Z</time>
      </trkpt>
      <trkpt lat="44.08945" lon="3.18508">
        <ele>784.1</ele>
        <time>2019-05-31T10:28:16Z</time>
      </trkpt>
      <trkpt lat="44.08953" lon="3.18506">
        <ele>783.6</ele>
        <time>2019-05-31T10:28:17Z</time>
      </trkpt>
      <trkpt lat="44.08961" lon="3.18505">
        <ele>783</ele>
        <time>2019-05-31T10:28:18Z</time>
      </trkpt>
      <trkpt lat="44.08965" lon="3.18513">
        <ele>782.7</ele>
        <time>2019-05-31T10:28:19Z</time>
      </trkpt>
      <trkpt lat="44.0897" lon="3.1852">
        <ele>782.4</ele>
        <time>2019-05-31T10:28:20Z</time>
      </trkpt>
      <trkpt lat="44.08973" lon="3.18529">
        <ele>782.1</ele>
        <time>2019-05-31T10:28:21Z</time>
      </trkpt>
      <trkpt lat="44.08978" lon="3.18539">
        <ele>781.7</ele>
        <time>2019-05-31T10:28:22Z</time>
      </trkpt>
      <trkpt lat="44.08983" lon="3.18547">
        <ele>781.3</ele>
        <time>2019-05-31T10:28:23Z</time>
      </trkpt>
      <trkpt lat="44.08988" lon="3.18554">
        <ele>780.8</ele>
        <time>2019-05-31T10:28:24Z</time>
      </trkpt>
      <trkpt lat="44.08992" lon="3.18563">
        <ele>780.4</ele>
        <time>2019-05-31T10:28:25Z</time>
      </trkpt>
      <trkpt lat="44.08997" lon="3.1857">
        <ele>780.1</ele>
        <time>2019-05-31T10:28:26Z</time>
      </trkpt>
      <trkpt lat="44.09003" lon="3.18577">
        <ele>779.4</ele>
        <time>2019-05-31T10:28:27Z</time>
      </trkpt>
      <trkpt lat="44.09012" lon="3.18583">
        <ele>778.3</ele>
        <time>2019-05-31T10:28:28Z</time>
      </trkpt>
      <trkpt lat="44.09018" lon="3.1859">
        <ele>777.5</ele>
        <time>2019-05-31T10:28:29Z</time>
      </trkpt>
      <trkpt lat="44.09023" lon="3.186">
        <ele>776.4</ele>
        <time>2019-05-31T10:28:30Z</time>
      </trkpt>
      <trkpt lat="44.09026" lon="3.18613">
        <ele>775</ele>
        <time>2019-05-31T10:28:31Z</time>
      </trkpt>
      <trkpt lat="44.09029" lon="3.18626">
        <ele>773.4</ele>
        <time>2019-05-31T10:28:32Z</time>
      </trkpt>
      <trkpt lat="44.09029" lon="3.18639">
        <ele>772</ele>
        <time>2019-05-31T10:28:33Z</time>
      </trkpt>
      <trkpt lat="44.09027" lon="3.18651">
        <ele>771.1</ele>
        <time>2019-05-31T10:28:34Z</time>
      </trkpt>
      <trkpt lat="44.09025" lon="3.18664">
        <ele>770.6</ele>
        <time>2019-05-31T10:28:35Z</time>
      </trkpt>
      <trkpt lat="44.09021" lon="3.18675">
        <ele>770.1</ele>
        <time>2019-05-31T10:28:36Z</time>
      </trkpt>
      <trkpt lat="44.09016" lon="3.18685">
        <ele>769.6</ele>
        <time>2019-05-31T10:28:37Z</time>
      </trkpt>
      <trkpt lat="44.0901" lon="3.18698">
        <ele>769.3</ele>
        <time>2019-05-31T10:28:38Z</time>
      </trkpt>
      <trkpt lat="44.09005" lon="3.18708">
        <ele>769</ele>
        <time>2019-05-31T10:28:39Z</time>
      </trkpt>
      <trkpt lat="44.09002" lon="3.18718">
        <ele>768.6</ele>
        <time>2019-05-31T10:28:40Z</time>
      </trkpt>
      <trkpt lat="44.08998" lon="3.18727">
        <ele>768.4</ele>
        <time>2019-05-31T10:28:41Z</time>
      </trkpt>
      <trkpt lat="44.08993" lon="3.18738">
        <ele>768.2</ele>
        <time>2019-05-31T10:28:42Z</time>
      </trkpt>
      <trkpt lat="44.0899" lon="3.18748">
        <ele>768</ele>
        <time>2019-05-31T10:28:43Z</time>
      </trkpt>
      <trkpt lat="44.08986" lon="3.18758">
        <ele>767.7</ele>
        <time>2019-05-31T10:28:44Z</time>
      </trkpt>
      <trkpt lat="44.08984" lon="3.18769">
        <ele>767.5</ele>
        <time>2019-05-31T10:28:45Z</time>
      </trkpt>
      <trkpt lat="44.0898" lon="3.18779">
        <ele>767.3</ele>
        <time>2019-05-31T10:28:46Z</time>
      </trkpt>
      <trkpt lat="44.08978" lon="3.18788">
        <ele>767.1</ele>
        <time>2019-05-31T10:28:47Z</time>
      </trkpt>
      <trkpt lat="44.08975" lon="3.18797">
        <ele>767</ele>
        <time>2019-05-31T10:28:48Z</time>
      </trkpt>
      <trkpt lat="44.08971" lon="3.18805">
        <ele>766.7</ele>
        <time>2019-05-31T10:28:49Z</time>
      </trkpt>
      <trkpt lat="44.08963" lon="3.18814">
        <ele>766.2</ele>
        <time>2019-05-31T10:28:50Z</time>
      </trkpt>
      <trkpt lat="44.08957" lon="3.18819">
        <ele>765.9</ele>
        <time>2019-05-31T10:28:51Z</time>
      </trkpt>
      <trkpt lat="44.08951" lon="3.18826">
        <ele>765.5</ele>
        <time>2019-05-31T10:28:52Z</time>
      </trkpt>
      <trkpt lat="44.08946" lon="3.18836">
        <ele>764.7</ele>
        <time>2019-05-31T10:28:53Z</time>
      </trkpt>
      <trkpt lat="44.08943" lon="3.18848">
        <ele>763.5</ele>
        <time>2019-05-31T10:28:54Z</time>
      </trkpt>
      <trkpt lat="44.0894" lon="3.1886">
        <ele>762.1</ele>
        <time>2019-05-31T10:28:55Z</time>
      </trkpt>
      <trkpt lat="44.08936" lon="3.1887">
        <ele>761.2</ele>
        <time>2019-05-31T10:28:56Z</time>
      </trkpt>
      <trkpt lat="44.08933" lon="3.18876">
        <ele>760.7</ele>
        <time>2019-05-31T10:28:57Z</time>
      </trkpt>
      <trkpt lat="44.08932" lon="3.18884">
        <ele>760.2</ele>
        <time>2019-05-31T10:28:58Z</time>
      </trkpt>
      <trkpt lat="44.08932" lon="3.18889">
        <ele>759.9</ele>
        <time>2019-05-31T10:28:59Z</time>
      </trkpt>
      <trkpt lat="44.08929" lon="3.18896">
        <ele>759.7</ele>
        <time>2019-05-31T10:29:00Z</time>
      </trkpt>
      <trkpt lat="44.08929" lon="3.18902">
        <ele>759.5</ele>
        <time>2019-05-31T10:29:01Z</time>
      </trkpt>
      <trkpt lat="44.08931" lon="3.18907">
        <ele>759.4</ele>
        <time>2019-05-31T10:29:02Z</time>
      </trkpt>
      <trkpt lat="44.08931" lon="3.18911">
        <ele>759.3</ele>
        <time>2019-05-31T10:29:04Z</time>
      </trkpt>
      <trkpt lat="44.08933" lon="3.18917">
        <ele>759.3</ele>
        <time>2019-05-31T10:29:35Z</time>
      </trkpt>
      <trkpt lat="44.08935" lon="3.1892">
        <ele>759.2</ele>
        <time>2019-05-31T10:29:37Z</time>
      </trkpt>
      <trkpt lat="44.08941" lon="3.18922">
        <ele>759.2</ele>
        <time>2019-05-31T10:29:39Z</time>
      </trkpt>
      <trkpt lat="44.08944" lon="3.18923">
        <ele>759.2</ele>
        <time>2019-05-31T10:29:40Z</time>
      </trkpt>
      <trkpt lat="44.08947" lon="3.18923">
        <ele>759.2</ele>
        <time>2019-05-31T10:29:41Z</time>
      </trkpt>
      <trkpt lat="44.0895" lon="3.18924">
        <ele>759.1</ele>
        <time>2019-05-31T10:29:43Z</time>
      </trkpt>
      <trkpt lat="44.08952" lon="3.18926">
        <ele>759.1</ele>
        <time>2019-05-31T10:29:46Z</time>
      </trkpt>
      <trkpt lat="44.08957" lon="3.18929">
        <ele>759.1</ele>
        <time>2019-05-31T10:30:28Z</time>
      </trkpt>
      <trkpt lat="44.08962" lon="3.18935">
        <ele>759</ele>
        <time>2019-05-31T10:30:30Z</time>
      </trkpt>
      <trkpt lat="44.08965" lon="3.18938">
        <ele>759</ele>
        <time>2019-05-31T10:30:31Z</time>
      </trkpt>
      <trkpt lat="44.08968" lon="3.18942">
        <ele>758.9</ele>
        <time>2019-05-31T10:30:32Z</time>
      </trkpt>
      <trkpt lat="44.08973" lon="3.18947">
        <ele>758.7</ele>
        <time>2019-05-31T10:30:33Z</time>
      </trkpt>
      <trkpt lat="44.08976" lon="3.18953">
        <ele>758.6</ele>
        <time>2019-05-31T10:30:34Z</time>
      </trkpt>
      <trkpt lat="44.0898" lon="3.18956">
        <ele>758.5</ele>
        <time>2019-05-31T10:30:35Z</time>
      </trkpt>
      <trkpt lat="44.08986" lon="3.18955">
        <ele>758.4</ele>
        <time>2019-05-31T10:30:36Z</time>
      </trkpt>
      <trkpt lat="44.08989" lon="3.18957">
        <ele>758.3</ele>
        <time>2019-05-31T10:30:37Z</time>
      </trkpt>
      <trkpt lat="44.08991" lon="3.18959">
        <ele>758.2</ele>
        <time>2019-05-31T10:30:38Z</time>
      </trkpt>
      <trkpt lat="44.08998" lon="3.1896">
        <ele>758</ele>
        <time>2019-05-31T10:30:39Z</time>
      </trkpt>
      <trkpt lat="44.09003" lon="3.18961">
        <ele>757.7</ele>
        <time>2019-05-31T10:30:40Z</time>
      </trkpt>
      <trkpt lat="44.09006" lon="3.18963">
        <ele>757.6</ele>
        <time>2019-05-31T10:30:41Z</time>
      </trkpt>
      <trkpt lat="44.09012" lon="3.18968">
        <ele>757.4</ele>
        <time>2019-05-31T10:30:42Z</time>
      </trkpt>
      <trkpt lat="44.09017" lon="3.18975">
        <ele>757.1</ele>
        <time>2019-05-31T10:30:43Z</time>
      </trkpt>
      <trkpt lat="44.09025" lon="3.1898">
        <ele>756.6</ele>
        <time>2019-05-31T10:30:44Z</time>
      </trkpt>
      <trkpt lat="44.09029" lon="3.18986">
        <ele>756.2</ele>
        <time>2019-05-31T10:30:45Z</time>
      </trkpt>
      <trkpt lat="44.09032" lon="3.18988">
        <ele>755.9</ele>
        <time>2019-05-31T10:30:46Z</time>
      </trkpt>
      <trkpt lat="44.09038" lon="3.19">
        <ele>755.3</ele>
        <time>2019-05-31T10:30:47Z</time>
      </trkpt>
      <trkpt lat="44.0904" lon="3.19012">
        <ele>754.6</ele>
        <time>2019-05-31T10:30:48Z</time>
      </trkpt>
      <trkpt lat="44.09044" lon="3.19018">
        <ele>754.2</ele>
        <time>2019-05-31T10:30:49Z</time>
      </trkpt>
      <trkpt lat="44.09052" lon="3.19026">
        <ele>753.3</ele>
        <time>2019-05-31T10:30:50Z</time>
      </trkpt>
      <trkpt lat="44.09058" lon="3.19034">
        <ele>752.8</ele>
        <time>2019-05-31T10:30:51Z</time>
      </trkpt>
      <trkpt lat="44.09064" lon="3.19038">
        <ele>752.2</ele>
        <time>2019-05-31T10:30:52Z</time>
      </trkpt>
      <trkpt lat="44.09075" lon="3.19031">
        <ele>751.4</ele>
        <time>2019-05-31T10:30:53Z</time>
      </trkpt>
      <trkpt lat="44.09081" lon="3.19031">
        <ele>751.1</ele>
        <time>2019-05-31T10:30:54Z</time>
      </trkpt>
      <trkpt lat="44.09089" lon="3.19028">
        <ele>750.5</ele>
        <time>2019-05-31T10:30:55Z</time>
      </trkpt>
      <trkpt lat="44.09092" lon="3.19028">
        <ele>750.3</ele>
        <time>2019-05-31T10:30:56Z</time>
      </trkpt>
      <trkpt lat="44.09095" lon="3.19027">
        <ele>750.2</ele>
        <time>2019-05-31T10:30:57Z</time>
      </trkpt>
      <trkpt lat="44.091" lon="3.19029">
        <ele>749.9</ele>
        <time>2019-05-31T10:30:58Z</time>
      </trkpt>
      <trkpt lat="44.09104" lon="3.19029">
        <ele>749.8</ele>
        <time>2019-05-31T10:30:59Z</time>
      </trkpt>
      <trkpt lat="44.09109" lon="3.19032">
        <ele>749.5</ele>
        <time>2019-05-31T10:31:00Z</time>
      </trkpt>
      <trkpt lat="44.09113" lon="3.19032">
        <ele>749.3</ele>
        <time>2019-05-31T10:31:01Z</time>
      </trkpt>
      <trkpt lat="44.09117" lon="3.19032">
        <ele>749.1</ele>
        <time>2019-05-31T10:31:02Z</time>
      </trkpt>
      <trkpt lat="44.0912" lon="3.19033">
        <ele>749</ele>
        <time>2019-05-31T10:31:04Z</time>
      </trkpt>
      <trkpt lat="44.09124" lon="3.19033">
        <ele>748.8</ele>
        <time>2019-05-31T10:31:05Z</time>
      </trkpt>
      <trkpt lat="44.09128" lon="3.19033">
        <ele>748.5</ele>
        <time>2019-05-31T10:31:07Z</time>
      </trkpt>
      <trkpt lat="44.09133" lon="3.19035">
        <ele>748.3</ele>
        <time>2019-05-31T10:31:09Z</time>
      </trkpt>
      <trkpt lat="44.09136" lon="3.19035">
        <ele>748.2</ele>
        <time>2019-05-31T10:31:10Z</time>
      </trkpt>
      <trkpt lat="44.09139" lon="3.19036">
        <ele>747.9</ele>
        <time>2019-05-31T10:31:11Z</time>
      </trkpt>
      <trkpt lat="44.09142" lon="3.19036">
        <ele>747.7</ele>
        <time>2019-05-31T10:31:12Z</time>
      </trkpt>
      <trkpt lat="44.09145" lon="3.19036">
        <ele>747.6</ele>
        <time>2019-05-31T10:31:13Z</time>
      </trkpt>
      <trkpt lat="44.0915" lon="3.19036">
        <ele>747.5</ele>
        <time>2019-05-31T10:31:15Z</time>
      </trkpt>
      <trkpt lat="44.09154" lon="3.19035">
        <ele>747.3</ele>
        <time>2019-05-31T10:31:16Z</time>
      </trkpt>
      <trkpt lat="44.09159" lon="3.19033">
        <ele>747</ele>
        <time>2019-05-31T10:31:17Z</time>
      </trkpt>
      <trkpt lat="44.09163" lon="3.19031">
        <ele>746.8</ele>
        <time>2019-05-31T10:31:18Z</time>
      </trkpt>
      <trkpt lat="44.09167" lon="3.19029">
        <ele>746.6</ele>
        <time>2019-05-31T10:31:19Z</time>
      </trkpt>
      <trkpt lat="44.09171" lon="3.19028">
        <ele>746.3</ele>
        <time>2019-05-31T10:31:20Z</time>
      </trkpt>
      <trkpt lat="44.09176" lon="3.19026">
        <ele>746</ele>
        <time>2019-05-31T10:31:21Z</time>
      </trkpt>
      <trkpt lat="44.0918" lon="3.19023">
        <ele>746</ele>
        <time>2019-05-31T10:31:22Z</time>
      </trkpt>
      <trkpt lat="44.09184" lon="3.1902">
        <ele>746.1</ele>
        <time>2019-05-31T10:31:23Z</time>
      </trkpt>
      <trkpt lat="44.09187" lon="3.19017">
        <ele>746</ele>
        <time>2019-05-31T10:31:24Z</time>
      </trkpt>
      <trkpt lat="44.0919" lon="3.19014">
        <ele>746</ele>
        <time>2019-05-31T10:31:25Z</time>
      </trkpt>
      <trkpt lat="44.09193" lon="3.19009">
        <ele>746</ele>
        <time>2019-05-31T10:31:27Z</time>
      </trkpt>
      <trkpt lat="44.09196" lon="3.19006">
        <ele>746</ele>
        <time>2019-05-31T10:31:29Z</time>
      </trkpt>
      <trkpt lat="44.09198" lon="3.19004">
        <ele>746</ele>
        <time>2019-05-31T10:31:33Z</time>
      </trkpt>
      <trkpt lat="44.092" lon="3.19001">
        <ele>746</ele>
        <time>2019-05-31T10:31:36Z</time>
      </trkpt>
      <trkpt lat="44.09203" lon="3.18997">
        <ele>746</ele>
        <time>2019-05-31T10:31:42Z</time>
      </trkpt>
      <trkpt lat="44.09206" lon="3.18992">
        <ele>746.1</ele>
        <time>2019-05-31T10:31:44Z</time>
      </trkpt>
      <trkpt lat="44.0921" lon="3.18988">
        <ele>746.6</ele>
        <time>2019-05-31T10:31:46Z</time>
      </trkpt>
      <trkpt lat="44.09212" lon="3.18985">
        <ele>746.9</ele>
        <time>2019-05-31T10:31:47Z</time>
      </trkpt>
      <trkpt lat="44.09215" lon="3.18982">
        <ele>747.1</ele>
        <time>2019-05-31T10:31:48Z</time>
      </trkpt>
      <trkpt lat="44.09219" lon="3.18978">
        <ele>747.2</ele>
        <time>2019-05-31T10:31:50Z</time>
      </trkpt>
      <trkpt lat="44.09222" lon="3.18977">
        <ele>747.3</ele>
        <time>2019-05-31T10:31:51Z</time>
      </trkpt>
      <trkpt lat="44.09225" lon="3.18976">
        <ele>747.1</ele>
        <time>2019-05-31T10:31:52Z</time>
      </trkpt>
      <trkpt lat="44.09229" lon="3.18975">
        <ele>746.9</ele>
        <time>2019-05-31T10:31:53Z</time>
      </trkpt>
      <trkpt lat="44.09232" lon="3.18975">
        <ele>746.7</ele>
        <time>2019-05-31T10:31:54Z</time>
      </trkpt>
      <trkpt lat="44.09235" lon="3.18976">
        <ele>746.5</ele>
        <time>2019-05-31T10:31:55Z</time>
      </trkpt>
      <trkpt lat="44.09239" lon="3.18978">
        <ele>746.4</ele>
        <time>2019-05-31T10:31:56Z</time>
      </trkpt>
      <trkpt lat="44.09243" lon="3.18981">
        <ele>746.2</ele>
        <time>2019-05-31T10:31:57Z</time>
      </trkpt>
      <trkpt lat="44.09247" lon="3.18982">
        <ele>745.9</ele>
        <time>2019-05-31T10:31:58Z</time>
      </trkpt>
      <trkpt lat="44.09251" lon="3.18984">
        <ele>745.6</ele>
        <time>2019-05-31T10:31:59Z</time>
      </trkpt>
      <trkpt lat="44.09255" lon="3.18985">
        <ele>745.4</ele>
        <time>2019-05-31T10:32:00Z</time>
      </trkpt>
      <trkpt lat="44.0926" lon="3.18986">
        <ele>745.3</ele>
        <time>2019-05-31T10:32:01Z</time>
      </trkpt>
      <trkpt lat="44.09264" lon="3.18988">
        <ele>745.2</ele>
        <time>2019-05-31T10:32:02Z</time>
      </trkpt>
      <trkpt lat="44.09268" lon="3.18989">
        <ele>745</ele>
        <time>2019-05-31T10:32:03Z</time>
      </trkpt>
      <trkpt lat="44.09273" lon="3.18989">
        <ele>744.9</ele>
        <time>2019-05-31T10:32:04Z</time>
      </trkpt>
      <trkpt lat="44.09277" lon="3.18989">
        <ele>744.6</ele>
        <time>2019-05-31T10:32:05Z</time>
      </trkpt>
      <trkpt lat="44.09282" lon="3.18988">
        <ele>744.4</ele>
        <time>2019-05-31T10:32:06Z</time>
      </trkpt>
      <trkpt lat="44.09285" lon="3.18986">
        <ele>744.3</ele>
        <time>2019-05-31T10:32:07Z</time>
      </trkpt>
      <trkpt lat="44.09289" lon="3.18984">
        <ele>744.3</ele>
        <time>2019-05-31T10:32:08Z</time>
      </trkpt>
      <trkpt lat="44.09293" lon="3.18982">
        <ele>744.5</ele>
        <time>2019-05-31T10:32:09Z</time>
      </trkpt>
      <trkpt lat="44.09297" lon="3.1898">
        <ele>744.5</ele>
        <time>2019-05-31T10:32:10Z</time>
      </trkpt>
      <trkpt lat="44.09301" lon="3.18979">
        <ele>744.5</ele>
        <time>2019-05-31T10:32:11Z</time>
      </trkpt>
      <trkpt lat="44.09305" lon="3.18977">
        <ele>744.6</ele>
        <time>2019-05-31T10:32:12Z</time>
      </trkpt>
      <trkpt lat="44.09308" lon="3.18976">
        <ele>744.7</ele>
        <time>2019-05-31T10:32:13Z</time>
      </trkpt>
      <trkpt lat="44.09312" lon="3.18975">
        <ele>744.8</ele>
        <time>2019-05-31T10:32:14Z</time>
      </trkpt>
      <trkpt lat="44.09315" lon="3.18974">
        <ele>744.8</ele>
        <time>2019-05-31T10:32:15Z</time>
      </trkpt>
      <trkpt lat="44.09318" lon="3.18974">
        <ele>744.8</ele>
        <time>2019-05-31T10:32:16Z</time>
      </trkpt>
      <trkpt lat="44.09321" lon="3.18973">
        <ele>744.9</ele>
        <time>2019-05-31T10:32:17Z</time>
      </trkpt>
      <trkpt lat="44.09325" lon="3.18973">
        <ele>745</ele>
        <time>2019-05-31T10:32:18Z</time>
      </trkpt>
      <trkpt lat="44.09329" lon="3.18972">
        <ele>745</ele>
        <time>2019-05-31T10:32:19Z</time>
      </trkpt>
      <trkpt lat="44.09332" lon="3.18971">
        <ele>744.9</ele>
        <time>2019-05-31T10:32:20Z</time>
      </trkpt>
      <trkpt lat="44.09336" lon="3.1897">
        <ele>744.7</ele>
        <time>2019-05-31T10:32:21Z</time>
      </trkpt>
      <trkpt lat="44.09342" lon="3.18967">
        <ele>744.8</ele>
        <time>2019-05-31T10:32:22Z</time>
      </trkpt>
      <trkpt lat="44.09346" lon="3.18965">
        <ele>744.6</ele>
        <time>2019-05-31T10:32:23Z</time>
      </trkpt>
      <trkpt lat="44.0935" lon="3.18962">
        <ele>744.3</ele>
        <time>2019-05-31T10:32:24Z</time>
      </trkpt>
      <trkpt lat="44.09354" lon="3.1896">
        <ele>744.2</ele>
        <time>2019-05-31T10:32:25Z</time>
      </trkpt>
      <trkpt lat="44.09359" lon="3.18957">
        <ele>744.1</ele>
        <time>2019-05-31T10:32:26Z</time>
      </trkpt>
      <trkpt lat="44.09363" lon="3.18954">
        <ele>744</ele>
        <time>2019-05-31T10:32:27Z</time>
      </trkpt>
      <trkpt lat="44.09366" lon="3.18952">
        <ele>744</ele>
        <time>2019-05-31T10:32:28Z</time>
      </trkpt>
      <trkpt lat="44.09369" lon="3.18949">
        <ele>744</ele>
        <time>2019-05-31T10:32:29Z</time>
      </trkpt>
      <trkpt lat="44.09373" lon="3.18946">
        <ele>744.1</ele>
        <time>2019-05-31T10:32:30Z</time>
      </trkpt>
      <trkpt lat="44.09376" lon="3.18945">
        <ele>744.3</ele>
        <time>2019-05-31T10:32:31Z</time>
      </trkpt>
      <trkpt lat="44.0938" lon="3.18942">
        <ele>744.4</ele>
        <time>2019-05-31T10:32:32Z</time>
      </trkpt>
      <trkpt lat="44.09383" lon="3.1894">
        <ele>744.4</ele>
        <time>2019-05-31T10:32:33Z</time>
      </trkpt>
      <trkpt lat="44.09386" lon="3.18938">
        <ele>744.5</ele>
        <time>2019-05-31T10:32:34Z</time>
      </trkpt>
      <trkpt lat="44.0939" lon="3.18936">
        <ele>744.5</ele>
        <time>2019-05-31T10:32:35Z</time>
      </trkpt>
      <trkpt lat="44.09393" lon="3.18935">
        <ele>744.4</ele>
        <time>2019-05-31T10:32:36Z</time>
      </trkpt>
      <trkpt lat="44.09396" lon="3.18933">
        <ele>744.4</ele>
        <time>2019-05-31T10:32:37Z</time>
      </trkpt>
      <trkpt lat="44.094" lon="3.18931">
        <ele>744.3</ele>
        <time>2019-05-31T10:32:38Z</time>
      </trkpt>
      <trkpt lat="44.09404" lon="3.18929">
        <ele>744.1</ele>
        <time>2019-05-31T10:32:39Z</time>
      </trkpt>
      <trkpt lat="44.09408" lon="3.18927">
        <ele>743.7</ele>
        <time>2019-05-31T10:32:40Z</time>
      </trkpt>
      <trkpt lat="44.09412" lon="3.18926">
        <ele>743.4</ele>
        <time>2019-05-31T10:32:41Z</time>
      </trkpt>
      <trkpt lat="44.09417" lon="3.18925">
        <ele>743.2</ele>
        <time>2019-05-31T10:32:42Z</time>
      </trkpt>
      <trkpt lat="44.09424" lon="3.18923">
        <ele>742.6</ele>
        <time>2019-05-31T10:32:43Z</time>
      </trkpt>
      <trkpt lat="44.09429" lon="3.18922">
        <ele>742.2</ele>
        <time>2019-05-31T10:32:44Z</time>
      </trkpt>
      <trkpt lat="44.09434" lon="3.18922">
        <ele>742</ele>
        <time>2019-05-31T10:32:45Z</time>
      </trkpt>
      <trkpt lat="44.09439" lon="3.18919">
        <ele>741.7</ele>
        <time>2019-05-31T10:32:46Z</time>
      </trkpt>
      <trkpt lat="44.09446" lon="3.18917">
        <ele>741.4</ele>
        <time>2019-05-31T10:32:47Z</time>
      </trkpt>
      <trkpt lat="44.09453" lon="3.18915">
        <ele>741</ele>
        <time>2019-05-31T10:32:48Z</time>
      </trkpt>
      <trkpt lat="44.0946" lon="3.18913">
        <ele>740.5</ele>
        <time>2019-05-31T10:32:49Z</time>
      </trkpt>
      <trkpt lat="44.09467" lon="3.18912">
        <ele>740.1</ele>
        <time>2019-05-31T10:32:50Z</time>
      </trkpt>
      <trkpt lat="44.09474" lon="3.18912">
        <ele>739.7</ele>
        <time>2019-05-31T10:32:51Z</time>
      </trkpt>
      <trkpt lat="44.0948" lon="3.18912">
        <ele>739.5</ele>
        <time>2019-05-31T10:32:52Z</time>
      </trkpt>
      <trkpt lat="44.09486" lon="3.1891">
        <ele>739.4</ele>
        <time>2019-05-31T10:32:53Z</time>
      </trkpt>
      <trkpt lat="44.09491" lon="3.18911">
        <ele>739</ele>
        <time>2019-05-31T10:32:54Z</time>
      </trkpt>
      <trkpt lat="44.09497" lon="3.18909">
        <ele>738.5</ele>
        <time>2019-05-31T10:32:55Z</time>
      </trkpt>
      <trkpt lat="44.09502" lon="3.18912">
        <ele>738.2</ele>
        <time>2019-05-31T10:32:56Z</time>
      </trkpt>
      <trkpt lat="44.09508" lon="3.18915">
        <ele>737.8</ele>
        <time>2019-05-31T10:32:57Z</time>
      </trkpt>
      <trkpt lat="44.09514" lon="3.18917">
        <ele>737.4</ele>
        <time>2019-05-31T10:32:58Z</time>
      </trkpt>
      <trkpt lat="44.09519" lon="3.18921">
        <ele>737.2</ele>
        <time>2019-05-31T10:32:59Z</time>
      </trkpt>
      <trkpt lat="44.09524" lon="3.18925">
        <ele>736.9</ele>
        <time>2019-05-31T10:33:00Z</time>
      </trkpt>
      <trkpt lat="44.09529" lon="3.18928">
        <ele>736.7</ele>
        <time>2019-05-31T10:33:01Z</time>
      </trkpt>
      <trkpt lat="44.09535" lon="3.18931">
        <ele>736.5</ele>
        <time>2019-05-31T10:33:02Z</time>
      </trkpt>
      <trkpt lat="44.0954" lon="3.18933">
        <ele>736.4</ele>
        <time>2019-05-31T10:33:03Z</time>
      </trkpt>
      <trkpt lat="44.09546" lon="3.18935">
        <ele>736.4</ele>
        <time>2019-05-31T10:33:04Z</time>
      </trkpt>
      <trkpt lat="44.0955" lon="3.18937">
        <ele>736.2</ele>
        <time>2019-05-31T10:33:05Z</time>
      </trkpt>
      <trkpt lat="44.09554" lon="3.1894">
        <ele>736.1</ele>
        <time>2019-05-31T10:33:06Z</time>
      </trkpt>
      <trkpt lat="44.09559" lon="3.18942">
        <ele>735.9</ele>
        <time>2019-05-31T10:33:07Z</time>
      </trkpt>
      <trkpt lat="44.09562" lon="3.18945">
        <ele>735.7</ele>
        <time>2019-05-31T10:33:08Z</time>
      </trkpt>
      <trkpt lat="44.09568" lon="3.18949">
        <ele>735.4</ele>
        <time>2019-05-31T10:33:09Z</time>
      </trkpt>
      <trkpt lat="44.09572" lon="3.18951">
        <ele>735.2</ele>
        <time>2019-05-31T10:33:10Z</time>
      </trkpt>
      <trkpt lat="44.09578" lon="3.1895">
        <ele>734.9</ele>
        <time>2019-05-31T10:33:11Z</time>
      </trkpt>
      <trkpt lat="44.09581" lon="3.1895">
        <ele>734.7</ele>
        <time>2019-05-31T10:33:12Z</time>
      </trkpt>
      <trkpt lat="44.09587" lon="3.18949">
        <ele>734.4</ele>
        <time>2019-05-31T10:33:13Z</time>
      </trkpt>
      <trkpt lat="44.09593" lon="3.18948">
        <ele>734.2</ele>
        <time>2019-05-31T10:33:14Z</time>
      </trkpt>
      <trkpt lat="44.09598" lon="3.18949">
        <ele>734.1</ele>
        <time>2019-05-31T10:33:15Z</time>
      </trkpt>
      <trkpt lat="44.09603" lon="3.18948">
        <ele>734</ele>
        <time>2019-05-31T10:33:16Z</time>
      </trkpt>
      <trkpt lat="44.09608" lon="3.18948">
        <ele>733.9</ele>
        <time>2019-05-31T10:33:17Z</time>
      </trkpt>
      <trkpt lat="44.09612" lon="3.18947">
        <ele>733.8</ele>
        <time>2019-05-31T10:33:18Z</time>
      </trkpt>
      <trkpt lat="44.09617" lon="3.18946">
        <ele>733.7</ele>
        <time>2019-05-31T10:33:19Z</time>
      </trkpt>
      <trkpt lat="44.09621" lon="3.18946">
        <ele>733.6</ele>
        <time>2019-05-31T10:33:20Z</time>
      </trkpt>
      <trkpt lat="44.09624" lon="3.18945">
        <ele>733.5</ele>
        <time>2019-05-31T10:33:21Z</time>
      </trkpt>
      <trkpt lat="44.09627" lon="3.18951">
        <ele>733.4</ele>
        <time>2019-05-31T10:33:23Z</time>
      </trkpt>
      <trkpt lat="44.09632" lon="3.18954">
        <ele>733.3</ele>
        <time>2019-05-31T10:33:24Z</time>
      </trkpt>
      <trkpt lat="44.09639" lon="3.18958">
        <ele>733.1</ele>
        <time>2019-05-31T10:33:25Z</time>
      </trkpt>
      <trkpt lat="44.09643" lon="3.18963">
        <ele>733</ele>
        <time>2019-05-31T10:33:26Z</time>
      </trkpt>
      <trkpt lat="44.09646" lon="3.18967">
        <ele>732.9</ele>
        <time>2019-05-31T10:33:27Z</time>
      </trkpt>
      <trkpt lat="44.09651" lon="3.18971">
        <ele>732.8</ele>
        <time>2019-05-31T10:33:28Z</time>
      </trkpt>
      <trkpt lat="44.09654" lon="3.18983">
        <ele>732.3</ele>
        <time>2019-05-31T10:33:29Z</time>
      </trkpt>
      <trkpt lat="44.09655" lon="3.18989">
        <ele>731.9</ele>
        <time>2019-05-31T10:33:30Z</time>
      </trkpt>
      <trkpt lat="44.09656" lon="3.18998">
        <ele>731.2</ele>
        <time>2019-05-31T10:33:31Z</time>
      </trkpt>
      <trkpt lat="44.09661" lon="3.19008">
        <ele>730.7</ele>
        <time>2019-05-31T10:33:32Z</time>
      </trkpt>
      <trkpt lat="44.09663" lon="3.19015">
        <ele>730.4</ele>
        <time>2019-05-31T10:33:33Z</time>
      </trkpt>
      <trkpt lat="44.09667" lon="3.19026">
        <ele>730.2</ele>
        <time>2019-05-31T10:33:34Z</time>
      </trkpt>
      <trkpt lat="44.09671" lon="3.19033">
        <ele>730.1</ele>
        <time>2019-05-31T10:33:35Z</time>
      </trkpt>
      <trkpt lat="44.09676" lon="3.19039">
        <ele>730.2</ele>
        <time>2019-05-31T10:33:36Z</time>
      </trkpt>
      <trkpt lat="44.09682" lon="3.19043">
        <ele>730.3</ele>
        <time>2019-05-31T10:33:37Z</time>
      </trkpt>
      <trkpt lat="44.09688" lon="3.19046">
        <ele>730.5</ele>
        <time>2019-05-31T10:33:38Z</time>
      </trkpt>
      <trkpt lat="44.09691" lon="3.19049">
        <ele>730.6</ele>
        <time>2019-05-31T10:33:39Z</time>
      </trkpt>
      <trkpt lat="44.09695" lon="3.19053">
        <ele>730.7</ele>
        <time>2019-05-31T10:33:40Z</time>
      </trkpt>
      <trkpt lat="44.09698" lon="3.19056">
        <ele>730.9</ele>
        <time>2019-05-31T10:33:41Z</time>
      </trkpt>
      <trkpt lat="44.09702" lon="3.19059">
        <ele>731.2</ele>
        <time>2019-05-31T10:33:42Z</time>
      </trkpt>
      <trkpt lat="44.09705" lon="3.19063">
        <ele>731.4</ele>
        <time>2019-05-31T10:33:43Z</time>
      </trkpt>
      <trkpt lat="44.09708" lon="3.19067">
        <ele>731.6</ele>
        <time>2019-05-31T10:33:44Z</time>
      </trkpt>
      <trkpt lat="44.0971" lon="3.1907">
        <ele>731.7</ele>
        <time>2019-05-31T10:33:45Z</time>
      </trkpt>
      <trkpt lat="44.09713" lon="3.19074">
        <ele>732</ele>
        <time>2019-05-31T10:33:46Z</time>
      </trkpt>
      <trkpt lat="44.09717" lon="3.19076">
        <ele>732.4</ele>
        <time>2019-05-31T10:33:47Z</time>
      </trkpt>
      <trkpt lat="44.09722" lon="3.19078">
        <ele>732.9</ele>
        <time>2019-05-31T10:33:48Z</time>
      </trkpt>
      <trkpt lat="44.09724" lon="3.19081">
        <ele>733.2</ele>
        <time>2019-05-31T10:33:49Z</time>
      </trkpt>
      <trkpt lat="44.09726" lon="3.19084">
        <ele>733.3</ele>
        <time>2019-05-31T10:33:50Z</time>
      </trkpt>
      <trkpt lat="44.09729" lon="3.19087">
        <ele>733.5</ele>
        <time>2019-05-31T10:33:51Z</time>
      </trkpt>
      <trkpt lat="44.09731" lon="3.1909">
        <ele>733.5</ele>
        <time>2019-05-31T10:33:52Z</time>
      </trkpt>
      <trkpt lat="44.09735" lon="3.19095">
        <ele>733.3</ele>
        <time>2019-05-31T10:33:54Z</time>
      </trkpt>
      <trkpt lat="44.0974" lon="3.19097">
        <ele>733</ele>
        <time>2019-05-31T10:33:56Z</time>
      </trkpt>
      <trkpt lat="44.09743" lon="3.19094">
        <ele>732.8</ele>
        <time>2019-05-31T10:33:57Z</time>
      </trkpt>
      <trkpt lat="44.09746" lon="3.19089">
        <ele>732.3</ele>
        <time>2019-05-31T10:33:58Z</time>
      </trkpt>
      <trkpt lat="44.09748" lon="3.19084">
        <ele>731.8</ele>
        <time>2019-05-31T10:33:59Z</time>
      </trkpt>
      <trkpt lat="44.09751" lon="3.19078">
        <ele>731.1</ele>
        <time>2019-05-31T10:34:00Z</time>
      </trkpt>
      <trkpt lat="44.09754" lon="3.19076">
        <ele>730.9</ele>
        <time>2019-05-31T10:34:01Z</time>
      </trkpt>
      <trkpt lat="44.0976" lon="3.19071">
        <ele>730.5</ele>
        <time>2019-05-31T10:34:02Z</time>
      </trkpt>
      <trkpt lat="44.09765" lon="3.19067">
        <ele>730</ele>
        <time>2019-05-31T10:34:03Z</time>
      </trkpt>
      <trkpt lat="44.0977" lon="3.19064">
        <ele>729.6</ele>
        <time>2019-05-31T10:34:04Z</time>
      </trkpt>
      <trkpt lat="44.09775" lon="3.19059">
        <ele>729.1</ele>
        <time>2019-05-31T10:34:05Z</time>
      </trkpt>
      <trkpt lat="44.09782" lon="3.19053">
        <ele>728.2</ele>
        <time>2019-05-31T10:34:06Z</time>
      </trkpt>
      <trkpt lat="44.09787" lon="3.1905">
        <ele>727.7</ele>
        <time>2019-05-31T10:34:07Z</time>
      </trkpt>
      <trkpt lat="44.09792" lon="3.19049">
        <ele>727.3</ele>
        <time>2019-05-31T10:34:08Z</time>
      </trkpt>
      <trkpt lat="44.09796" lon="3.19045">
        <ele>726.8</ele>
        <time>2019-05-31T10:34:09Z</time>
      </trkpt>
      <trkpt lat="44.09803" lon="3.19042">
        <ele>726.1</ele>
        <time>2019-05-31T10:34:10Z</time>
      </trkpt>
      <trkpt lat="44.09808" lon="3.19036">
        <ele>725.5</ele>
        <time>2019-05-31T10:34:11Z</time>
      </trkpt>
      <trkpt lat="44.09809" lon="3.19029">
        <ele>725.2</ele>
        <time>2019-05-31T10:34:12Z</time>
      </trkpt>
      <trkpt lat="44.09817" lon="3.19023">
        <ele>724.6</ele>
        <time>2019-05-31T10:34:13Z</time>
      </trkpt>
      <trkpt lat="44.09822" lon="3.19018">
        <ele>724.2</ele>
        <time>2019-05-31T10:34:14Z</time>
      </trkpt>
      <trkpt lat="44.0983" lon="3.19014">
        <ele>723.5</ele>
        <time>2019-05-31T10:34:15Z</time>
      </trkpt>
      <trkpt lat="44.09836" lon="3.19008">
        <ele>723</ele>
        <time>2019-05-31T10:34:16Z</time>
      </trkpt>
      <trkpt lat="44.09844" lon="3.19008">
        <ele>722.5</ele>
        <time>2019-05-31T10:34:17Z</time>
      </trkpt>
      <trkpt lat="44.09851" lon="3.19008">
        <ele>722.1</ele>
        <time>2019-05-31T10:34:18Z</time>
      </trkpt>
      <trkpt lat="44.09856" lon="3.19003">
        <ele>721.9</ele>
        <time>2019-05-31T10:34:19Z</time>
      </trkpt>
      <trkpt lat="44.09863" lon="3.19001">
        <ele>722</ele>
        <time>2019-05-31T10:34:20Z</time>
      </trkpt>
      <trkpt lat="44.0987" lon="3.19001">
        <ele>721.7</ele>
        <time>2019-05-31T10:34:21Z</time>
      </trkpt>
      <trkpt lat="44.09878" lon="3.18997">
        <ele>721.8</ele>
        <time>2019-05-31T10:34:22Z</time>
      </trkpt>
      <trkpt lat="44.09884" lon="3.18996">
        <ele>721.5</ele>
        <time>2019-05-31T10:34:23Z</time>
      </trkpt>
      <trkpt lat="44.09889" lon="3.18992">
        <ele>721.2</ele>
        <time>2019-05-31T10:34:24Z</time>
      </trkpt>
      <trkpt lat="44.09896" lon="3.18989">
        <ele>720.9</ele>
        <time>2019-05-31T10:34:25Z</time>
      </trkpt>
      <trkpt lat="44.09899" lon="3.18983">
        <ele>720.6</ele>
        <time>2019-05-31T10:34:26Z</time>
      </trkpt>
      <trkpt lat="44.09907" lon="3.18979">
        <ele>720.1</ele>
        <time>2019-05-31T10:34:27Z</time>
      </trkpt>
      <trkpt lat="44.09912" lon="3.18975">
        <ele>719.8</ele>
        <time>2019-05-31T10:34:28Z</time>
      </trkpt>
      <trkpt lat="44.09919" lon="3.1897">
        <ele>719.8</ele>
        <time>2019-05-31T10:34:29Z</time>
      </trkpt>
      <trkpt lat="44.09925" lon="3.18966">
        <ele>720</ele>
        <time>2019-05-31T10:34:30Z</time>
      </trkpt>
      <trkpt lat="44.09929" lon="3.18958">
        <ele>719.8</ele>
        <time>2019-05-31T10:34:31Z</time>
      </trkpt>
      <trkpt lat="44.09933" lon="3.18952">
        <ele>719.4</ele>
        <time>2019-05-31T10:34:32Z</time>
      </trkpt>
      <trkpt lat="44.09938" lon="3.18947">
        <ele>719.2</ele>
        <time>2019-05-31T10:34:33Z</time>
      </trkpt>
      <trkpt lat="44.09945" lon="3.18944">
        <ele>718.6</ele>
        <time>2019-05-31T10:34:34Z</time>
      </trkpt>
      <trkpt lat="44.09951" lon="3.18943">
        <ele>718.2</ele>
        <time>2019-05-31T10:34:35Z</time>
      </trkpt>
      <trkpt lat="44.09958" lon="3.18939">
        <ele>718</ele>
        <time>2019-05-31T10:34:36Z</time>
      </trkpt>
      <trkpt lat="44.09964" lon="3.18938">
        <ele>718</ele>
        <time>2019-05-31T10:34:37Z</time>
      </trkpt>
      <trkpt lat="44.0997" lon="3.18932">
        <ele>717.5</ele>
        <time>2019-05-31T10:34:38Z</time>
      </trkpt>
      <trkpt lat="44.09975" lon="3.18928">
        <ele>717.3</ele>
        <time>2019-05-31T10:34:39Z</time>
      </trkpt>
      <trkpt lat="44.0998" lon="3.18924">
        <ele>717.4</ele>
        <time>2019-05-31T10:34:40Z</time>
      </trkpt>
      <trkpt lat="44.09986" lon="3.1892">
        <ele>717.3</ele>
        <time>2019-05-31T10:34:41Z</time>
      </trkpt>
      <trkpt lat="44.09991" lon="3.18919">
        <ele>717.5</ele>
        <time>2019-05-31T10:34:42Z</time>
      </trkpt>
      <trkpt lat="44.09998" lon="3.18917">
        <ele>718.3</ele>
        <time>2019-05-31T10:34:43Z</time>
      </trkpt>
      <trkpt lat="44.10005" lon="3.18918">
        <ele>718.4</ele>
        <time>2019-05-31T10:34:44Z</time>
      </trkpt>
      <trkpt lat="44.10015" lon="3.18914">
        <ele>719.5</ele>
        <time>2019-05-31T10:34:45Z</time>
      </trkpt>
      <trkpt lat="44.10022" lon="3.1891">
        <ele>719.6</ele>
        <time>2019-05-31T10:34:46Z</time>
      </trkpt>
      <trkpt lat="44.10029" lon="3.18903">
        <ele>720</ele>
        <time>2019-05-31T10:34:47Z</time>
      </trkpt>
      <trkpt lat="44.10034" lon="3.18897">
        <ele>720.3</ele>
        <time>2019-05-31T10:34:48Z</time>
      </trkpt>
      <trkpt lat="44.10041" lon="3.1889">
        <ele>720.6</ele>
        <time>2019-05-31T10:34:49Z</time>
      </trkpt>
      <trkpt lat="44.10049" lon="3.18884">
        <ele>721.6</ele>
        <time>2019-05-31T10:34:50Z</time>
      </trkpt>
      <trkpt lat="44.1006" lon="3.18882">
        <ele>723.1</ele>
        <time>2019-05-31T10:34:51Z</time>
      </trkpt>
      <trkpt lat="44.10065" lon="3.1888">
        <ele>724</ele>
        <time>2019-05-31T10:34:52Z</time>
      </trkpt>
      <trkpt lat="44.10067" lon="3.18875">
        <ele>724</ele>
        <time>2019-05-31T10:34:53Z</time>
      </trkpt>
      <trkpt lat="44.10065" lon="3.1887">
        <ele>724.2</ele>
        <time>2019-05-31T10:34:54Z</time>
      </trkpt>
      <trkpt lat="44.10063" lon="3.18864">
        <ele>724.4</ele>
        <time>2019-05-31T10:34:55Z</time>
      </trkpt>
      <trkpt lat="44.10061" lon="3.1886">
        <ele>724.6</ele>
        <time>2019-05-31T10:34:56Z</time>
      </trkpt>
      <trkpt lat="44.10059" lon="3.18854">
        <ele>724.8</ele>
        <time>2019-05-31T10:34:57Z</time>
      </trkpt>
      <trkpt lat="44.10055" lon="3.18851">
        <ele>724.9</ele>
        <time>2019-05-31T10:34:58Z</time>
      </trkpt>
      <trkpt lat="44.10052" lon="3.18845">
        <ele>725</ele>
        <time>2019-05-31T10:34:59Z</time>
      </trkpt>
      <trkpt lat="44.10052" lon="3.18841">
        <ele>725.1</ele>
        <time>2019-05-31T10:35:00Z</time>
      </trkpt>
      <trkpt lat="44.10047" lon="3.18839">
        <ele>725.2</ele>
        <time>2019-05-31T10:35:01Z</time>
      </trkpt>
      <trkpt lat="44.10046" lon="3.18834">
        <ele>725.3</ele>
        <time>2019-05-31T10:35:02Z</time>
      </trkpt>
      <trkpt lat="44.10045" lon="3.1883">
        <ele>725.4</ele>
        <time>2019-05-31T10:35:03Z</time>
      </trkpt>
      <trkpt lat="44.10043" lon="3.18824">
        <ele>725.5</ele>
        <time>2019-05-31T10:35:05Z</time>
      </trkpt>
      <trkpt lat="44.1004" lon="3.18821">
        <ele>725.6</ele>
        <time>2019-05-31T10:35:06Z</time>
      </trkpt>
      <trkpt lat="44.10038" lon="3.18817">
        <ele>725.7</ele>
        <time>2019-05-31T10:35:07Z</time>
      </trkpt>
      <trkpt lat="44.10035" lon="3.18814">
        <ele>725.7</ele>
        <time>2019-05-31T10:35:08Z</time>
      </trkpt>
      <trkpt lat="44.10033" lon="3.1881">
        <ele>725.8</ele>
        <time>2019-05-31T10:35:09Z</time>
      </trkpt>
      <trkpt lat="44.10031" lon="3.18805">
        <ele>726</ele>
        <time>2019-05-31T10:35:10Z</time>
      </trkpt>
      <trkpt lat="44.10028" lon="3.188">
        <ele>726.1</ele>
        <time>2019-05-31T10:35:11Z</time>
      </trkpt>
      <trkpt lat="44.10026" lon="3.18795">
        <ele>726.3</ele>
        <time>2019-05-31T10:35:12Z</time>
      </trkpt>
      <trkpt lat="44.10024" lon="3.18789">
        <ele>726.5</ele>
        <time>2019-05-31T10:35:13Z</time>
      </trkpt>
      <trkpt lat="44.10023" lon="3.18784">
        <ele>726.8</ele>
        <time>2019-05-31T10:35:14Z</time>
      </trkpt>
      <trkpt lat="44.10022" lon="3.18781">
        <ele>727</ele>
        <time>2019-05-31T10:35:15Z</time>
      </trkpt>
      <trkpt lat="44.10021" lon="3.18777">
        <ele>727.2</ele>
        <time>2019-05-31T10:35:16Z</time>
      </trkpt>
      <trkpt lat="44.1002" lon="3.18773">
        <ele>727.4</ele>
        <time>2019-05-31T10:35:17Z</time>
      </trkpt>
      <trkpt lat="44.10019" lon="3.18769">
        <ele>727.6</ele>
        <time>2019-05-31T10:35:18Z</time>
      </trkpt>
      <trkpt lat="44.10018" lon="3.18765">
        <ele>727.8</ele>
        <time>2019-05-31T10:35:19Z</time>
      </trkpt>
      <trkpt lat="44.10017" lon="3.1876">
        <ele>728.1</ele>
        <time>2019-05-31T10:35:20Z</time>
      </trkpt>
      <trkpt lat="44.10016" lon="3.18756">
        <ele>728.3</ele>
        <time>2019-05-31T10:35:21Z</time>
      </trkpt>
      <trkpt lat="44.10016" lon="3.18752">
        <ele>728.5</ele>
        <time>2019-05-31T10:35:22Z</time>
      </trkpt>
      <trkpt lat="44.10014" lon="3.18745">
        <ele>728.8</ele>
        <time>2019-05-31T10:35:24Z</time>
      </trkpt>
      <trkpt lat="44.10013" lon="3.18742">
        <ele>728.9</ele>
        <time>2019-05-31T10:35:25Z</time>
      </trkpt>
      <trkpt lat="44.10011" lon="3.18738">
        <ele>729.1</ele>
        <time>2019-05-31T10:35:26Z</time>
      </trkpt>
      <trkpt lat="44.1001" lon="3.18734">
        <ele>729.2</ele>
        <time>2019-05-31T10:35:27Z</time>
      </trkpt>
      <trkpt lat="44.10008" lon="3.18731">
        <ele>729.3</ele>
        <time>2019-05-31T10:35:28Z</time>
      </trkpt>
      <trkpt lat="44.10006" lon="3.18724">
        <ele>729.4</ele>
        <time>2019-05-31T10:35:30Z</time>
      </trkpt>
      <trkpt lat="44.10005" lon="3.1872">
        <ele>729.5</ele>
        <time>2019-05-31T10:35:31Z</time>
      </trkpt>
      <trkpt lat="44.10003" lon="3.18714">
        <ele>729.6</ele>
        <time>2019-05-31T10:35:33Z</time>
      </trkpt>
      <trkpt lat="44.10001" lon="3.18707">
        <ele>729.7</ele>
        <time>2019-05-31T10:35:35Z</time>
      </trkpt>
      <trkpt lat="44.09999" lon="3.18704">
        <ele>729.7</ele>
        <time>2019-05-31T10:35:36Z</time>
      </trkpt>
      <trkpt lat="44.09997" lon="3.18697">
        <ele>729.8</ele>
        <time>2019-05-31T10:35:38Z</time>
      </trkpt>
      <trkpt lat="44.09996" lon="3.18693">
        <ele>729.8</ele>
        <time>2019-05-31T10:35:39Z</time>
      </trkpt>
      <trkpt lat="44.09995" lon="3.18688">
        <ele>729.9</ele>
        <time>2019-05-31T10:35:40Z</time>
      </trkpt>
      <trkpt lat="44.09995" lon="3.18683">
        <ele>729.9</ele>
        <time>2019-05-31T10:35:41Z</time>
      </trkpt>
      <trkpt lat="44.09995" lon="3.18676">
        <ele>730</ele>
        <time>2019-05-31T10:35:43Z</time>
      </trkpt>
      <trkpt lat="44.09995" lon="3.18673">
        <ele>730</ele>
        <time>2019-05-31T10:35:44Z</time>
      </trkpt>
      <trkpt lat="44.09994" lon="3.18668">
        <ele>730.1</ele>
        <time>2019-05-31T10:35:45Z</time>
      </trkpt>
      <trkpt lat="44.09994" lon="3.18661">
        <ele>730.2</ele>
        <time>2019-05-31T10:35:47Z</time>
      </trkpt>
      <trkpt lat="44.09994" lon="3.18655">
        <ele>730.3</ele>
        <time>2019-05-31T10:35:49Z</time>
      </trkpt>
      <trkpt lat="44.09996" lon="3.18651">
        <ele>730.4</ele>
        <time>2019-05-31T10:35:51Z</time>
      </trkpt>
      <trkpt lat="44.1" lon="3.18645">
        <ele>730.5</ele>
        <time>2019-05-31T10:35:53Z</time>
      </trkpt>
      <trkpt lat="44.10002" lon="3.18642">
        <ele>730.7</ele>
        <time>2019-05-31T10:35:54Z</time>
      </trkpt>
      <trkpt lat="44.10004" lon="3.18639">
        <ele>730.8</ele>
        <time>2019-05-31T10:35:55Z</time>
      </trkpt>
      <trkpt lat="44.10006" lon="3.18636">
        <ele>730.9</ele>
        <time>2019-05-31T10:35:56Z</time>
      </trkpt>
      <trkpt lat="44.10008" lon="3.18633">
        <ele>731</ele>
        <time>2019-05-31T10:35:57Z</time>
      </trkpt>
      <trkpt lat="44.1001" lon="3.18627">
        <ele>731.2</ele>
        <time>2019-05-31T10:35:59Z</time>
      </trkpt>
      <trkpt lat="44.10013" lon="3.1862">
        <ele>731.4</ele>
        <time>2019-05-31T10:36:01Z</time>
      </trkpt>
      <trkpt lat="44.10014" lon="3.18617">
        <ele>731.5</ele>
        <time>2019-05-31T10:36:02Z</time>
      </trkpt>
      <trkpt lat="44.10016" lon="3.18612">
        <ele>731.6</ele>
        <time>2019-05-31T10:36:03Z</time>
      </trkpt>
      <trkpt lat="44.10018" lon="3.18608">
        <ele>731.8</ele>
        <time>2019-05-31T10:36:04Z</time>
      </trkpt>
      <trkpt lat="44.10021" lon="3.18603">
        <ele>732</ele>
        <time>2019-05-31T10:36:06Z</time>
      </trkpt>
      <trkpt lat="44.10024" lon="3.18597">
        <ele>732.2</ele>
        <time>2019-05-31T10:36:08Z</time>
      </trkpt>
      <trkpt lat="44.10026" lon="3.18593">
        <ele>732.4</ele>
        <time>2019-05-31T10:36:09Z</time>
      </trkpt>
      <trkpt lat="44.10028" lon="3.1859">
        <ele>732.5</ele>
        <time>2019-05-31T10:36:10Z</time>
      </trkpt>
      <trkpt lat="44.10029" lon="3.18587">
        <ele>732.6</ele>
        <time>2019-05-31T10:36:11Z</time>
      </trkpt>
      <trkpt lat="44.10031" lon="3.18584">
        <ele>732.7</ele>
        <time>2019-05-31T10:36:12Z</time>
      </trkpt>
      <trkpt lat="44.10034" lon="3.18579">
        <ele>732.9</ele>
        <time>2019-05-31T10:36:14Z</time>
      </trkpt>
      <trkpt lat="44.10036" lon="3.18575">
        <ele>733</ele>
        <time>2019-05-31T10:36:15Z</time>
      </trkpt>
      <trkpt lat="44.10038" lon="3.1857">
        <ele>733.2</ele>
        <time>2019-05-31T10:36:17Z</time>
      </trkpt>
      <trkpt lat="44.1004" lon="3.18567">
        <ele>733.3</ele>
        <time>2019-05-31T10:36:18Z</time>
      </trkpt>
      <trkpt lat="44.10043" lon="3.18562">
        <ele>733.6</ele>
        <time>2019-05-31T10:36:20Z</time>
      </trkpt>
      <trkpt lat="44.10046" lon="3.18558">
        <ele>734</ele>
        <time>2019-05-31T10:36:22Z</time>
      </trkpt>
      <trkpt lat="44.1005" lon="3.18554">
        <ele>734.3</ele>
        <time>2019-05-31T10:36:24Z</time>
      </trkpt>
      <trkpt lat="44.10053" lon="3.1855">
        <ele>734.6</ele>
        <time>2019-05-31T10:36:26Z</time>
      </trkpt>
      <trkpt lat="44.10057" lon="3.18548">
        <ele>734.9</ele>
        <time>2019-05-31T10:36:28Z</time>
      </trkpt>
      <trkpt lat="44.10061" lon="3.18546">
        <ele>735.2</ele>
        <time>2019-05-31T10:36:30Z</time>
      </trkpt>
      <trkpt lat="44.10065" lon="3.18549">
        <ele>735.6</ele>
        <time>2019-05-31T10:36:36Z</time>
      </trkpt>
      <trkpt lat="44.10068" lon="3.18555">
        <ele>736.1</ele>
        <time>2019-05-31T10:36:38Z</time>
      </trkpt>
      <trkpt lat="44.1007" lon="3.18561">
        <ele>736.6</ele>
        <time>2019-05-31T10:36:40Z</time>
      </trkpt>
      <trkpt lat="44.10071" lon="3.18565">
        <ele>737</ele>
        <time>2019-05-31T10:36:42Z</time>
      </trkpt>
      <trkpt lat="44.10071" lon="3.1857">
        <ele>737.3</ele>
        <time>2019-05-31T10:36:44Z</time>
      </trkpt>
      <trkpt lat="44.10071" lon="3.18575">
        <ele>737.6</ele>
        <time>2019-05-31T10:36:46Z</time>
      </trkpt>
      <trkpt lat="44.10071" lon="3.18582">
        <ele>738</ele>
        <time>2019-05-31T10:36:48Z</time>
      </trkpt>
      <trkpt lat="44.10073" lon="3.18588">
        <ele>738.3</ele>
        <time>2019-05-31T10:36:50Z</time>
      </trkpt>
      <trkpt lat="44.10075" lon="3.18592">
        <ele>738.6</ele>
        <time>2019-05-31T10:36:52Z</time>
      </trkpt>
      <trkpt lat="44.10077" lon="3.18597">
        <ele>738.8</ele>
        <time>2019-05-31T10:36:54Z</time>
      </trkpt>
      <trkpt lat="44.10079" lon="3.18601">
        <ele>739</ele>
        <time>2019-05-31T10:36:56Z</time>
      </trkpt>
      <trkpt lat="44.10081" lon="3.18607">
        <ele>739.2</ele>
        <time>2019-05-31T10:36:58Z</time>
      </trkpt>
      <trkpt lat="44.10082" lon="3.18611">
        <ele>739.4</ele>
        <time>2019-05-31T10:37:01Z</time>
      </trkpt>
      <trkpt lat="44.10083" lon="3.18616">
        <ele>739.6</ele>
        <time>2019-05-31T10:37:04Z</time>
      </trkpt>
      <trkpt lat="44.10086" lon="3.1862">
        <ele>739.8</ele>
        <time>2019-05-31T10:37:06Z</time>
      </trkpt>
      <trkpt lat="44.10089" lon="3.18622">
        <ele>740</ele>
        <time>2019-05-31T10:37:08Z</time>
      </trkpt>
      <trkpt lat="44.10092" lon="3.18623">
        <ele>740.2</ele>
        <time>2019-05-31T10:37:10Z</time>
      </trkpt>
      <trkpt lat="44.10096" lon="3.18622">
        <ele>740.5</ele>
        <time>2019-05-31T10:37:12Z</time>
      </trkpt>
      <trkpt lat="44.101" lon="3.18621">
        <ele>740.6</ele>
        <time>2019-05-31T10:37:14Z</time>
      </trkpt>
      <trkpt lat="44.10104" lon="3.18623">
        <ele>740.8</ele>
        <time>2019-05-31T10:37:16Z</time>
      </trkpt>
      <trkpt lat="44.10108" lon="3.18626">
        <ele>741</ele>
        <time>2019-05-31T10:37:18Z</time>
      </trkpt>
      <trkpt lat="44.1011" lon="3.18629">
        <ele>741.1</ele>
        <time>2019-05-31T10:37:20Z</time>
      </trkpt>
      <trkpt lat="44.10113" lon="3.18634">
        <ele>741.3</ele>
        <time>2019-05-31T10:37:22Z</time>
      </trkpt>
      <trkpt lat="44.10114" lon="3.1864">
        <ele>741.5</ele>
        <time>2019-05-31T10:37:24Z</time>
      </trkpt>
      <trkpt lat="44.10115" lon="3.18646">
        <ele>741.6</ele>
        <time>2019-05-31T10:37:26Z</time>
      </trkpt>
      <trkpt lat="44.10116" lon="3.18649">
        <ele>741.8</ele>
        <time>2019-05-31T10:37:28Z</time>
      </trkpt>
      <trkpt lat="44.10118" lon="3.18653">
        <ele>741.9</ele>
        <time>2019-05-31T10:37:30Z</time>
      </trkpt>
      <trkpt lat="44.1012" lon="3.18657">
        <ele>742</ele>
        <time>2019-05-31T10:37:32Z</time>
      </trkpt>
      <trkpt lat="44.10122" lon="3.18663">
        <ele>742.1</ele>
        <time>2019-05-31T10:37:34Z</time>
      </trkpt>
      <trkpt lat="44.10123" lon="3.1867">
        <ele>742.3</ele>
        <time>2019-05-31T10:37:36Z</time>
      </trkpt>
      <trkpt lat="44.10123" lon="3.18678">
        <ele>742.4</ele>
        <time>2019-05-31T10:37:38Z</time>
      </trkpt>
      <trkpt lat="44.10124" lon="3.18682">
        <ele>742.4</ele>
        <time>2019-05-31T10:37:39Z</time>
      </trkpt>
      <trkpt lat="44.10125" lon="3.18686">
        <ele>742.4</ele>
        <time>2019-05-31T10:37:40Z</time>
      </trkpt>
      <trkpt lat="44.10126" lon="3.1869">
        <ele>742.4</ele>
        <time>2019-05-31T10:37:41Z</time>
      </trkpt>
      <trkpt lat="44.10127" lon="3.18694">
        <ele>742.4</ele>
        <time>2019-05-31T10:37:42Z</time>
      </trkpt>
      <trkpt lat="44.10128" lon="3.18699">
        <ele>742.4</ele>
        <time>2019-05-31T10:37:43Z</time>
      </trkpt>
      <trkpt lat="44.10129" lon="3.18703">
        <ele>742.4</ele>
        <time>2019-05-31T10:37:44Z</time>
      </trkpt>
      <trkpt lat="44.1013" lon="3.18708">
        <ele>742.4</ele>
        <time>2019-05-31T10:37:45Z</time>
      </trkpt>
      <trkpt lat="44.10132" lon="3.18713">
        <ele>742.3</ele>
        <time>2019-05-31T10:37:46Z</time>
      </trkpt>
      <trkpt lat="44.10133" lon="3.18717">
        <ele>742.3</ele>
        <time>2019-05-31T10:37:47Z</time>
      </trkpt>
      <trkpt lat="44.10136" lon="3.18722">
        <ele>742.2</ele>
        <time>2019-05-31T10:37:48Z</time>
      </trkpt>
      <trkpt lat="44.10139" lon="3.18726">
        <ele>742.2</ele>
        <time>2019-05-31T10:37:49Z</time>
      </trkpt>
      <trkpt lat="44.10142" lon="3.18728">
        <ele>742.1</ele>
        <time>2019-05-31T10:37:50Z</time>
      </trkpt>
      <trkpt lat="44.10145" lon="3.18732">
        <ele>742</ele>
        <time>2019-05-31T10:37:51Z</time>
      </trkpt>
      <trkpt lat="44.10148" lon="3.18735">
        <ele>741.9</ele>
        <time>2019-05-31T10:37:52Z</time>
      </trkpt>
      <trkpt lat="44.1015" lon="3.18738">
        <ele>741.8</ele>
        <time>2019-05-31T10:37:53Z</time>
      </trkpt>
      <trkpt lat="44.10152" lon="3.18742">
        <ele>741.7</ele>
        <time>2019-05-31T10:37:54Z</time>
      </trkpt>
      <trkpt lat="44.10154" lon="3.18746">
        <ele>741.6</ele>
        <time>2019-05-31T10:37:55Z</time>
      </trkpt>
      <trkpt lat="44.10156" lon="3.1875">
        <ele>741.5</ele>
        <time>2019-05-31T10:37:56Z</time>
      </trkpt>
      <trkpt lat="44.10159" lon="3.18754">
        <ele>741.5</ele>
        <time>2019-05-31T10:37:57Z</time>
      </trkpt>
      <trkpt lat="44.10163" lon="3.18756">
        <ele>741.4</ele>
        <time>2019-05-31T10:37:58Z</time>
      </trkpt>
      <trkpt lat="44.10166" lon="3.18758">
        <ele>741.3</ele>
        <time>2019-05-31T10:37:59Z</time>
      </trkpt>
      <trkpt lat="44.10169" lon="3.1876">
        <ele>741.2</ele>
        <time>2019-05-31T10:38:00Z</time>
      </trkpt>
      <trkpt lat="44.10172" lon="3.18761">
        <ele>741.3</ele>
        <time>2019-05-31T10:38:01Z</time>
      </trkpt>
      <trkpt lat="44.10175" lon="3.18762">
        <ele>741.5</ele>
        <time>2019-05-31T10:38:02Z</time>
      </trkpt>
      <trkpt lat="44.10177" lon="3.18762">
        <ele>741.6</ele>
        <time>2019-05-31T10:38:03Z</time>
      </trkpt>
      <trkpt lat="44.10183" lon="3.18761">
        <ele>741.7</ele>
        <time>2019-05-31T10:38:05Z</time>
      </trkpt>
      <trkpt lat="44.10188" lon="3.18762">
        <ele>741.9</ele>
        <time>2019-05-31T10:38:07Z</time>
      </trkpt>
      <trkpt lat="44.10191" lon="3.18763">
        <ele>742</ele>
        <time>2019-05-31T10:38:08Z</time>
      </trkpt>
      <trkpt lat="44.10195" lon="3.18763">
        <ele>742.2</ele>
        <time>2019-05-31T10:38:10Z</time>
      </trkpt>
      <trkpt lat="44.102" lon="3.18763">
        <ele>742.5</ele>
        <time>2019-05-31T10:38:12Z</time>
      </trkpt>
      <trkpt lat="44.10203" lon="3.18763">
        <ele>742.6</ele>
        <time>2019-05-31T10:38:13Z</time>
      </trkpt>
      <trkpt lat="44.10206" lon="3.18764">
        <ele>742.7</ele>
        <time>2019-05-31T10:38:14Z</time>
      </trkpt>
      <trkpt lat="44.10209" lon="3.18764">
        <ele>742.8</ele>
        <time>2019-05-31T10:38:15Z</time>
      </trkpt>
      <trkpt lat="44.10214" lon="3.18764">
        <ele>742.9</ele>
        <time>2019-05-31T10:38:17Z</time>
      </trkpt>
      <trkpt lat="44.10217" lon="3.18765">
        <ele>742.9</ele>
        <time>2019-05-31T10:38:18Z</time>
      </trkpt>
      <trkpt lat="44.10221" lon="3.18764">
        <ele>743</ele>
        <time>2019-05-31T10:38:20Z</time>
      </trkpt>
      <trkpt lat="44.10224" lon="3.18762">
        <ele>743.1</ele>
        <time>2019-05-31T10:38:21Z</time>
      </trkpt>
      <trkpt lat="44.10228" lon="3.1876">
        <ele>742.9</ele>
        <time>2019-05-31T10:38:22Z</time>
      </trkpt>
      <trkpt lat="44.10231" lon="3.18758">
        <ele>742.6</ele>
        <time>2019-05-31T10:38:23Z</time>
      </trkpt>
      <trkpt lat="44.10234" lon="3.18756">
        <ele>742.6</ele>
        <time>2019-05-31T10:38:24Z</time>
      </trkpt>
      <trkpt lat="44.10239" lon="3.18754">
        <ele>742.4</ele>
        <time>2019-05-31T10:38:26Z</time>
      </trkpt>
      <trkpt lat="44.10242" lon="3.18752">
        <ele>742</ele>
        <time>2019-05-31T10:38:27Z</time>
      </trkpt>
      <trkpt lat="44.10247" lon="3.1875">
        <ele>741.5</ele>
        <time>2019-05-31T10:38:28Z</time>
      </trkpt>
      <trkpt lat="44.10251" lon="3.18749">
        <ele>741</ele>
        <time>2019-05-31T10:38:29Z</time>
      </trkpt>
      <trkpt lat="44.10254" lon="3.18747">
        <ele>740.7</ele>
        <time>2019-05-31T10:38:30Z</time>
      </trkpt>
      <trkpt lat="44.10257" lon="3.18747">
        <ele>740.5</ele>
        <time>2019-05-31T10:38:31Z</time>
      </trkpt>
      <trkpt lat="44.10261" lon="3.18747">
        <ele>740.3</ele>
        <time>2019-05-31T10:38:32Z</time>
      </trkpt>
      <trkpt lat="44.10266" lon="3.18747">
        <ele>740.1</ele>
        <time>2019-05-31T10:38:33Z</time>
      </trkpt>
      <trkpt lat="44.1027" lon="3.18747">
        <ele>739.9</ele>
        <time>2019-05-31T10:38:34Z</time>
      </trkpt>
      <trkpt lat="44.10273" lon="3.18748">
        <ele>739.7</ele>
        <time>2019-05-31T10:38:35Z</time>
      </trkpt>
      <trkpt lat="44.10278" lon="3.1875">
        <ele>739.5</ele>
        <time>2019-05-31T10:38:37Z</time>
      </trkpt>
      <trkpt lat="44.10281" lon="3.18751">
        <ele>739.4</ele>
        <time>2019-05-31T10:38:38Z</time>
      </trkpt>
      <trkpt lat="44.10285" lon="3.18752">
        <ele>739.3</ele>
        <time>2019-05-31T10:38:39Z</time>
      </trkpt>
      <trkpt lat="44.10288" lon="3.18752">
        <ele>739.2</ele>
        <time>2019-05-31T10:38:40Z</time>
      </trkpt>
      <trkpt lat="44.10292" lon="3.18751">
        <ele>739.1</ele>
        <time>2019-05-31T10:38:41Z</time>
      </trkpt>
      <trkpt lat="44.10296" lon="3.18749">
        <ele>739</ele>
        <time>2019-05-31T10:38:42Z</time>
      </trkpt>
      <trkpt lat="44.10301" lon="3.18748">
        <ele>739</ele>
        <time>2019-05-31T10:38:43Z</time>
      </trkpt>
      <trkpt lat="44.10305" lon="3.18748">
        <ele>739</ele>
        <time>2019-05-31T10:38:44Z</time>
      </trkpt>
      <trkpt lat="44.10308" lon="3.18748">
        <ele>739</ele>
        <time>2019-05-31T10:38:45Z</time>
      </trkpt>
      <trkpt lat="44.10313" lon="3.18749">
        <ele>739</ele>
        <time>2019-05-31T10:38:47Z</time>
      </trkpt>
      <trkpt lat="44.10317" lon="3.18749">
        <ele>739</ele>
        <time>2019-05-31T10:38:49Z</time>
      </trkpt>
      <trkpt lat="44.10327" lon="3.18752">
        <ele>739.1</ele>
        <time>2019-05-31T10:38:51Z</time>
      </trkpt>
      <trkpt lat="44.10334" lon="3.18752">
        <ele>739.1</ele>
        <time>2019-05-31T10:38:52Z</time>
      </trkpt>
      <trkpt lat="44.10341" lon="3.18752">
        <ele>739.1</ele>
        <time>2019-05-31T10:38:53Z</time>
      </trkpt>
      <trkpt lat="44.10345" lon="3.18752">
        <ele>739.1</ele>
        <time>2019-05-31T10:38:54Z</time>
      </trkpt>
      <trkpt lat="44.10349" lon="3.18754">
        <ele>739.1</ele>
        <time>2019-05-31T10:38:55Z</time>
      </trkpt>
      <trkpt lat="44.10353" lon="3.18755">
        <ele>739.1</ele>
        <time>2019-05-31T10:38:56Z</time>
      </trkpt>
      <trkpt lat="44.10357" lon="3.18757">
        <ele>739.1</ele>
        <time>2019-05-31T10:38:57Z</time>
      </trkpt>
      <trkpt lat="44.10365" lon="3.18756">
        <ele>739.3</ele>
        <time>2019-05-31T10:38:59Z</time>
      </trkpt>
      <trkpt lat="44.10369" lon="3.18758">
        <ele>739.3</ele>
        <time>2019-05-31T10:39:00Z</time>
      </trkpt>
      <trkpt lat="44.10374" lon="3.18757">
        <ele>739.4</ele>
        <time>2019-05-31T10:39:01Z</time>
      </trkpt>
      <trkpt lat="44.10384" lon="3.18756">
        <ele>739.6</ele>
        <time>2019-05-31T10:39:02Z</time>
      </trkpt>
      <trkpt lat="44.10387" lon="3.18757">
        <ele>739.8</ele>
        <time>2019-05-31T10:39:03Z</time>
      </trkpt>
      <trkpt lat="44.10391" lon="3.18759">
        <ele>739.9</ele>
        <time>2019-05-31T10:39:04Z</time>
      </trkpt>
      <trkpt lat="44.10397" lon="3.18756">
        <ele>740.2</ele>
        <time>2019-05-31T10:39:05Z</time>
      </trkpt>
      <trkpt lat="44.10401" lon="3.18756">
        <ele>740.4</ele>
        <time>2019-05-31T10:39:06Z</time>
      </trkpt>
      <trkpt lat="44.10405" lon="3.18756">
        <ele>740.7</ele>
        <time>2019-05-31T10:39:07Z</time>
      </trkpt>
      <trkpt lat="44.10409" lon="3.18756">
        <ele>740.9</ele>
        <time>2019-05-31T10:39:08Z</time>
      </trkpt>
      <trkpt lat="44.10412" lon="3.18757">
        <ele>741.1</ele>
        <time>2019-05-31T10:39:09Z</time>
      </trkpt>
      <trkpt lat="44.10415" lon="3.18756">
        <ele>741.3</ele>
        <time>2019-05-31T10:39:10Z</time>
      </trkpt>
      <trkpt lat="44.10419" lon="3.18756">
        <ele>741.5</ele>
        <time>2019-05-31T10:39:11Z</time>
      </trkpt>
      <trkpt lat="44.10423" lon="3.18757">
        <ele>741.8</ele>
        <time>2019-05-31T10:39:12Z</time>
      </trkpt>
      <trkpt lat="44.10427" lon="3.18758">
        <ele>742.1</ele>
        <time>2019-05-31T10:39:13Z</time>
      </trkpt>
      <trkpt lat="44.1043" lon="3.18759">
        <ele>742.4</ele>
        <time>2019-05-31T10:39:14Z</time>
      </trkpt>
      <trkpt lat="44.10433" lon="3.1876">
        <ele>742.6</ele>
        <time>2019-05-31T10:39:15Z</time>
      </trkpt>
      <trkpt lat="44.10439" lon="3.18758">
        <ele>743</ele>
        <time>2019-05-31T10:39:17Z</time>
      </trkpt>
      <trkpt lat="44.10443" lon="3.18756">
        <ele>743.4</ele>
        <time>2019-05-31T10:39:19Z</time>
      </trkpt>
      <trkpt lat="44.10446" lon="3.18754">
        <ele>743.6</ele>
        <time>2019-05-31T10:39:20Z</time>
      </trkpt>
      <trkpt lat="44.10451" lon="3.18753">
        <ele>743.8</ele>
        <time>2019-05-31T10:39:21Z</time>
      </trkpt>
      <trkpt lat="44.10456" lon="3.18752">
        <ele>744</ele>
        <time>2019-05-31T10:39:22Z</time>
      </trkpt>
      <trkpt lat="44.10465" lon="3.18751">
        <ele>743.6</ele>
        <time>2019-05-31T10:39:23Z</time>
      </trkpt>
      <trkpt lat="44.1047" lon="3.18749">
        <ele>743.8</ele>
        <time>2019-05-31T10:39:24Z</time>
      </trkpt>
      <trkpt lat="44.10475" lon="3.18746">
        <ele>744.1</ele>
        <time>2019-05-31T10:39:25Z</time>
      </trkpt>
      <trkpt lat="44.10478" lon="3.18748">
        <ele>744.2</ele>
        <time>2019-05-31T10:39:26Z</time>
      </trkpt>
      <trkpt lat="44.10482" lon="3.1875">
        <ele>744.3</ele>
        <time>2019-05-31T10:39:28Z</time>
      </trkpt>
      <trkpt lat="44.10488" lon="3.1875">
        <ele>744.1</ele>
        <time>2019-05-31T10:39:29Z</time>
      </trkpt>
      <trkpt lat="44.10492" lon="3.1875">
        <ele>744.2</ele>
        <time>2019-05-31T10:39:30Z</time>
      </trkpt>
      <trkpt lat="44.10498" lon="3.18749">
        <ele>744.6</ele>
        <time>2019-05-31T10:39:31Z</time>
      </trkpt>
      <trkpt lat="44.10503" lon="3.18749">
        <ele>745.1</ele>
        <time>2019-05-31T10:39:32Z</time>
      </trkpt>
      <trkpt lat="44.10508" lon="3.1875">
        <ele>745.5</ele>
        <time>2019-05-31T10:39:33Z</time>
      </trkpt>
      <trkpt lat="44.10514" lon="3.18752">
        <ele>745.6</ele>
        <time>2019-05-31T10:39:34Z</time>
      </trkpt>
      <trkpt lat="44.10521" lon="3.18749">
        <ele>746.1</ele>
        <time>2019-05-31T10:39:35Z</time>
      </trkpt>
      <trkpt lat="44.10525" lon="3.1875">
        <ele>746.3</ele>
        <time>2019-05-31T10:39:36Z</time>
      </trkpt>
      <trkpt lat="44.10531" lon="3.18753">
        <ele>746.3</ele>
        <time>2019-05-31T10:39:37Z</time>
      </trkpt>
      <trkpt lat="44.10536" lon="3.18753">
        <ele>746.4</ele>
        <time>2019-05-31T10:39:38Z</time>
      </trkpt>
      <trkpt lat="44.10541" lon="3.18755">
        <ele>746.6</ele>
        <time>2019-05-31T10:39:39Z</time>
      </trkpt>
      <trkpt lat="44.10544" lon="3.18757">
        <ele>746.6</ele>
        <time>2019-05-31T10:39:40Z</time>
      </trkpt>
      <trkpt lat="44.10549" lon="3.18759">
        <ele>746.5</ele>
        <time>2019-05-31T10:39:41Z</time>
      </trkpt>
      <trkpt lat="44.10553" lon="3.1876">
        <ele>746.4</ele>
        <time>2019-05-31T10:39:42Z</time>
      </trkpt>
      <trkpt lat="44.10556" lon="3.1876">
        <ele>746.4</ele>
        <time>2019-05-31T10:39:43Z</time>
      </trkpt>
      <trkpt lat="44.1056" lon="3.18762">
        <ele>746.4</ele>
        <time>2019-05-31T10:39:44Z</time>
      </trkpt>
      <trkpt lat="44.10564" lon="3.18765">
        <ele>746.5</ele>
        <time>2019-05-31T10:39:46Z</time>
      </trkpt>
      <trkpt lat="44.10567" lon="3.18767">
        <ele>746.5</ele>
        <time>2019-05-31T10:39:47Z</time>
      </trkpt>
      <trkpt lat="44.10572" lon="3.18768">
        <ele>746.4</ele>
        <time>2019-05-31T10:39:48Z</time>
      </trkpt>
      <trkpt lat="44.10576" lon="3.18768">
        <ele>746.4</ele>
        <time>2019-05-31T10:39:49Z</time>
      </trkpt>
      <trkpt lat="44.10581" lon="3.18768">
        <ele>746.6</ele>
        <time>2019-05-31T10:39:50Z</time>
      </trkpt>
      <trkpt lat="44.10585" lon="3.18767">
        <ele>746.7</ele>
        <time>2019-05-31T10:39:51Z</time>
      </trkpt>
      <trkpt lat="44.1059" lon="3.18766">
        <ele>746.7</ele>
        <time>2019-05-31T10:39:52Z</time>
      </trkpt>
      <trkpt lat="44.10595" lon="3.18765">
        <ele>746.6</ele>
        <time>2019-05-31T10:39:53Z</time>
      </trkpt>
      <trkpt lat="44.10599" lon="3.18765">
        <ele>746.5</ele>
        <time>2019-05-31T10:39:54Z</time>
      </trkpt>
      <trkpt lat="44.10603" lon="3.18765">
        <ele>746.6</ele>
        <time>2019-05-31T10:39:55Z</time>
      </trkpt>
      <trkpt lat="44.10607" lon="3.18765">
        <ele>746.7</ele>
        <time>2019-05-31T10:39:56Z</time>
      </trkpt>
      <trkpt lat="44.10611" lon="3.18766">
        <ele>747</ele>
        <time>2019-05-31T10:39:57Z</time>
      </trkpt>
      <trkpt lat="44.10614" lon="3.18767">
        <ele>747.2</ele>
        <time>2019-05-31T10:39:58Z</time>
      </trkpt>
      <trkpt lat="44.10618" lon="3.18769">
        <ele>747.5</ele>
        <time>2019-05-31T10:39:59Z</time>
      </trkpt>
      <trkpt lat="44.10621" lon="3.18771">
        <ele>747.7</ele>
        <time>2019-05-31T10:40:00Z</time>
      </trkpt>
      <trkpt lat="44.10624" lon="3.18773">
        <ele>748</ele>
        <time>2019-05-31T10:40:01Z</time>
      </trkpt>
      <trkpt lat="44.10627" lon="3.18775">
        <ele>748.4</ele>
        <time>2019-05-31T10:40:02Z</time>
      </trkpt>
      <trkpt lat="44.10631" lon="3.18777">
        <ele>748.7</ele>
        <time>2019-05-31T10:40:03Z</time>
      </trkpt>
      <trkpt lat="44.10635" lon="3.18777">
        <ele>748.9</ele>
        <time>2019-05-31T10:40:04Z</time>
      </trkpt>
      <trkpt lat="44.10639" lon="3.18778">
        <ele>749.2</ele>
        <time>2019-05-31T10:40:05Z</time>
      </trkpt>
      <trkpt lat="44.10644" lon="3.18777">
        <ele>749.8</ele>
        <time>2019-05-31T10:40:06Z</time>
      </trkpt>
      <trkpt lat="44.10653" lon="3.1877">
        <ele>750.8</ele>
        <time>2019-05-31T10:40:07Z</time>
      </trkpt>
      <trkpt lat="44.10655" lon="3.18761">
        <ele>750.8</ele>
        <time>2019-05-31T10:40:09Z</time>
      </trkpt>
      <trkpt lat="44.10653" lon="3.18756">
        <ele>750.7</ele>
        <time>2019-05-31T10:40:10Z</time>
      </trkpt>
      <trkpt lat="44.10656" lon="3.18751">
        <ele>750.7</ele>
        <time>2019-05-31T10:40:12Z</time>
      </trkpt>
      <trkpt lat="44.10655" lon="3.18746">
        <ele>750.9</ele>
        <time>2019-05-31T10:40:14Z</time>
      </trkpt>
      <trkpt lat="44.10659" lon="3.18739">
        <ele>751.3</ele>
        <time>2019-05-31T10:40:16Z</time>
      </trkpt>
      <trkpt lat="44.10659" lon="3.18735">
        <ele>751.3</ele>
        <time>2019-05-31T10:40:17Z</time>
      </trkpt>
      <trkpt lat="44.1066" lon="3.1873">
        <ele>751.5</ele>
        <time>2019-05-31T10:40:19Z</time>
      </trkpt>
      <trkpt lat="44.10662" lon="3.18724">
        <ele>751.9</ele>
        <time>2019-05-31T10:40:21Z</time>
      </trkpt>
      <trkpt lat="44.10663" lon="3.18719">
        <ele>752.2</ele>
        <time>2019-05-31T10:40:23Z</time>
      </trkpt>
      <trkpt lat="44.10664" lon="3.18715">
        <ele>752.5</ele>
        <time>2019-05-31T10:40:26Z</time>
      </trkpt>
      <trkpt lat="44.10665" lon="3.1871">
        <ele>752.9</ele>
        <time>2019-05-31T10:40:28Z</time>
      </trkpt>
      <trkpt lat="44.10666" lon="3.18704">
        <ele>753.7</ele>
        <time>2019-05-31T10:40:30Z</time>
      </trkpt>
      <trkpt lat="44.10667" lon="3.18697">
        <ele>754.7</ele>
        <time>2019-05-31T10:40:32Z</time>
      </trkpt>
      <trkpt lat="44.10666" lon="3.18693">
        <ele>755.2</ele>
        <time>2019-05-31T10:40:34Z</time>
      </trkpt>
      <trkpt lat="44.10667" lon="3.18688">
        <ele>755.6</ele>
        <time>2019-05-31T10:40:36Z</time>
      </trkpt>
      <trkpt lat="44.10668" lon="3.18681">
        <ele>756.3</ele>
        <time>2019-05-31T10:40:38Z</time>
      </trkpt>
      <trkpt lat="44.10668" lon="3.18675">
        <ele>757</ele>
        <time>2019-05-31T10:40:40Z</time>
      </trkpt>
      <trkpt lat="44.10668" lon="3.18669">
        <ele>757.5</ele>
        <time>2019-05-31T10:40:42Z</time>
      </trkpt>
      <trkpt lat="44.10667" lon="3.18663">
        <ele>758</ele>
        <time>2019-05-31T10:40:44Z</time>
      </trkpt>
      <trkpt lat="44.10667" lon="3.1866">
        <ele>758.4</ele>
        <time>2019-05-31T10:40:45Z</time>
      </trkpt>
      <trkpt lat="44.10665" lon="3.18654">
        <ele>759</ele>
        <time>2019-05-31T10:40:47Z</time>
      </trkpt>
      <trkpt lat="44.10664" lon="3.18648">
        <ele>759.6</ele>
        <time>2019-05-31T10:40:49Z</time>
      </trkpt>
      <trkpt lat="44.10663" lon="3.18642">
        <ele>760.1</ele>
        <time>2019-05-31T10:40:51Z</time>
      </trkpt>
      <trkpt lat="44.10661" lon="3.18637">
        <ele>760.2</ele>
        <time>2019-05-31T10:40:53Z</time>
      </trkpt>
      <trkpt lat="44.10658" lon="3.18631">
        <ele>760.3</ele>
        <time>2019-05-31T10:40:55Z</time>
      </trkpt>
      <trkpt lat="44.10655" lon="3.18626">
        <ele>760.4</ele>
        <time>2019-05-31T10:40:57Z</time>
      </trkpt>
      <trkpt lat="44.10652" lon="3.1862">
        <ele>760.6</ele>
        <time>2019-05-31T10:40:59Z</time>
      </trkpt>
      <trkpt lat="44.10649" lon="3.18614">
        <ele>760.5</ele>
        <time>2019-05-31T10:41:01Z</time>
      </trkpt>
      <trkpt lat="44.10648" lon="3.18609">
        <ele>760.6</ele>
        <time>2019-05-31T10:41:03Z</time>
      </trkpt>
      <trkpt lat="44.10646" lon="3.18603">
        <ele>760.9</ele>
        <time>2019-05-31T10:41:05Z</time>
      </trkpt>
      <trkpt lat="44.10645" lon="3.18599">
        <ele>761</ele>
        <time>2019-05-31T10:41:07Z</time>
      </trkpt>
      <trkpt lat="44.10644" lon="3.18595">
        <ele>761.1</ele>
        <time>2019-05-31T10:41:09Z</time>
      </trkpt>
      <trkpt lat="44.10644" lon="3.18591">
        <ele>761.1</ele>
        <time>2019-05-31T10:41:11Z</time>
      </trkpt>
      <trkpt lat="44.10643" lon="3.18587">
        <ele>761.2</ele>
        <time>2019-05-31T10:41:13Z</time>
      </trkpt>
      <trkpt lat="44.10642" lon="3.18582">
        <ele>761.4</ele>
        <time>2019-05-31T10:41:15Z</time>
      </trkpt>
      <trkpt lat="44.10642" lon="3.18578">
        <ele>761.5</ele>
        <time>2019-05-31T10:41:19Z</time>
      </trkpt>
      <trkpt lat="44.10641" lon="3.18575">
        <ele>761.5</ele>
        <time>2019-05-31T10:42:08Z</time>
      </trkpt>
      <trkpt lat="44.10638" lon="3.18574">
        <ele>761.4</ele>
        <time>2019-05-31T10:47:04Z</time>
      </trkpt>
      <trkpt lat="44.10636" lon="3.18571">
        <ele>761.4</ele>
        <time>2019-05-31T11:03:55Z</time>
      </trkpt>
      <trkpt lat="44.10634" lon="3.18568">
        <ele>761.5</ele>
        <time>2019-05-31T11:03:57Z</time>
      </trkpt>
      <trkpt lat="44.10633" lon="3.18562">
        <ele>761.6</ele>
        <time>2019-05-31T11:03:59Z</time>
      </trkpt>
      <trkpt lat="44.10631" lon="3.18558">
        <ele>761.8</ele>
        <time>2019-05-31T11:04:01Z</time>
      </trkpt>
      <trkpt lat="44.10628" lon="3.18553">
        <ele>761.9</ele>
        <time>2019-05-31T11:04:03Z</time>
      </trkpt>
      <trkpt lat="44.10626" lon="3.18548">
        <ele>762.1</ele>
        <time>2019-05-31T11:04:05Z</time>
      </trkpt>
      <trkpt lat="44.10623" lon="3.18544">
        <ele>762.2</ele>
        <time>2019-05-31T11:04:07Z</time>
      </trkpt>
      <trkpt lat="44.1062" lon="3.1854">
        <ele>762.3</ele>
        <time>2019-05-31T11:04:09Z</time>
      </trkpt>
      <trkpt lat="44.10617" lon="3.18535">
        <ele>762.2</ele>
        <time>2019-05-31T11:04:11Z</time>
      </trkpt>
      <trkpt lat="44.10613" lon="3.1853">
        <ele>762.1</ele>
        <time>2019-05-31T11:04:13Z</time>
      </trkpt>
      <trkpt lat="44.10611" lon="3.18526">
        <ele>762.2</ele>
        <time>2019-05-31T11:04:15Z</time>
      </trkpt>
      <trkpt lat="44.10609" lon="3.18521">
        <ele>762.4</ele>
        <time>2019-05-31T11:04:17Z</time>
      </trkpt>
      <trkpt lat="44.10607" lon="3.18514">
        <ele>762.8</ele>
        <time>2019-05-31T11:04:19Z</time>
      </trkpt>
      <trkpt lat="44.10606" lon="3.18509">
        <ele>763.2</ele>
        <time>2019-05-31T11:04:21Z</time>
      </trkpt>
      <trkpt lat="44.10606" lon="3.18503">
        <ele>763.7</ele>
        <time>2019-05-31T11:04:23Z</time>
      </trkpt>
      <trkpt lat="44.10607" lon="3.18497">
        <ele>764.2</ele>
        <time>2019-05-31T11:04:25Z</time>
      </trkpt>
      <trkpt lat="44.1061" lon="3.18492">
        <ele>764.6</ele>
        <time>2019-05-31T11:04:27Z</time>
      </trkpt>
      <trkpt lat="44.10613" lon="3.18488">
        <ele>764.9</ele>
        <time>2019-05-31T11:04:29Z</time>
      </trkpt>
      <trkpt lat="44.10616" lon="3.18483">
        <ele>765.3</ele>
        <time>2019-05-31T11:04:31Z</time>
      </trkpt>
      <trkpt lat="44.10619" lon="3.18479">
        <ele>765.7</ele>
        <time>2019-05-31T11:04:33Z</time>
      </trkpt>
      <trkpt lat="44.10622" lon="3.18476">
        <ele>766.1</ele>
        <time>2019-05-31T11:04:35Z</time>
      </trkpt>
      <trkpt lat="44.10626" lon="3.18474">
        <ele>766.5</ele>
        <time>2019-05-31T11:04:37Z</time>
      </trkpt>
      <trkpt lat="44.1063" lon="3.18472">
        <ele>766.8</ele>
        <time>2019-05-31T11:04:39Z</time>
      </trkpt>
      <trkpt lat="44.10635" lon="3.18469">
        <ele>767.2</ele>
        <time>2019-05-31T11:04:41Z</time>
      </trkpt>
      <trkpt lat="44.10639" lon="3.18467">
        <ele>767.7</ele>
        <time>2019-05-31T11:04:43Z</time>
      </trkpt>
      <trkpt lat="44.10643" lon="3.18465">
        <ele>768.2</ele>
        <time>2019-05-31T11:04:45Z</time>
      </trkpt>
      <trkpt lat="44.10646" lon="3.18462">
        <ele>768.5</ele>
        <time>2019-05-31T11:04:47Z</time>
      </trkpt>
      <trkpt lat="44.1065" lon="3.18458">
        <ele>768.7</ele>
        <time>2019-05-31T11:04:49Z</time>
      </trkpt>
      <trkpt lat="44.10653" lon="3.18456">
        <ele>768.8</ele>
        <time>2019-05-31T11:04:51Z</time>
      </trkpt>
      <trkpt lat="44.10657" lon="3.18451">
        <ele>769</ele>
        <time>2019-05-31T11:04:53Z</time>
      </trkpt>
      <trkpt lat="44.10659" lon="3.18448">
        <ele>769</ele>
        <time>2019-05-31T11:04:54Z</time>
      </trkpt>
      <trkpt lat="44.10662" lon="3.18445">
        <ele>769.1</ele>
        <time>2019-05-31T11:04:55Z</time>
      </trkpt>
      <trkpt lat="44.10666" lon="3.1844">
        <ele>769.3</ele>
        <time>2019-05-31T11:04:57Z</time>
      </trkpt>
      <trkpt lat="44.10668" lon="3.18437">
        <ele>769.4</ele>
        <time>2019-05-31T11:04:58Z</time>
      </trkpt>
      <trkpt lat="44.10671" lon="3.18432">
        <ele>769.6</ele>
        <time>2019-05-31T11:05:00Z</time>
      </trkpt>
      <trkpt lat="44.10675" lon="3.18428">
        <ele>769.5</ele>
        <time>2019-05-31T11:05:02Z</time>
      </trkpt>
      <trkpt lat="44.10678" lon="3.18425">
        <ele>769.5</ele>
        <time>2019-05-31T11:05:04Z</time>
      </trkpt>
      <trkpt lat="44.10681" lon="3.18421">
        <ele>769.4</ele>
        <time>2019-05-31T11:05:06Z</time>
      </trkpt>
      <trkpt lat="44.10684" lon="3.18417">
        <ele>769.4</ele>
        <time>2019-05-31T11:05:08Z</time>
      </trkpt>
      <trkpt lat="44.10687" lon="3.18412">
        <ele>769.3</ele>
        <time>2019-05-31T11:05:10Z</time>
      </trkpt>
      <trkpt lat="44.10691" lon="3.18407">
        <ele>769.2</ele>
        <time>2019-05-31T11:05:12Z</time>
      </trkpt>
      <trkpt lat="44.10693" lon="3.18404">
        <ele>769.2</ele>
        <time>2019-05-31T11:05:13Z</time>
      </trkpt>
      <trkpt lat="44.10696" lon="3.18398">
        <ele>768.8</ele>
        <time>2019-05-31T11:05:15Z</time>
      </trkpt>
      <trkpt lat="44.10699" lon="3.18394">
        <ele>768.5</ele>
        <time>2019-05-31T11:05:17Z</time>
      </trkpt>
      <trkpt lat="44.10702" lon="3.18389">
        <ele>768.1</ele>
        <time>2019-05-31T11:05:19Z</time>
      </trkpt>
      <trkpt lat="44.10704" lon="3.18387">
        <ele>767.9</ele>
        <time>2019-05-31T11:05:20Z</time>
      </trkpt>
      <trkpt lat="44.10708" lon="3.18382">
        <ele>767.6</ele>
        <time>2019-05-31T11:05:22Z</time>
      </trkpt>
      <trkpt lat="44.1071" lon="3.18378">
        <ele>767.3</ele>
        <time>2019-05-31T11:05:24Z</time>
      </trkpt>
      <trkpt lat="44.10714" lon="3.18374">
        <ele>766.9</ele>
        <time>2019-05-31T11:05:26Z</time>
      </trkpt>
      <trkpt lat="44.10718" lon="3.1837">
        <ele>766.8</ele>
        <time>2019-05-31T11:05:28Z</time>
      </trkpt>
      <trkpt lat="44.10722" lon="3.18368">
        <ele>766.7</ele>
        <time>2019-05-31T11:05:30Z</time>
      </trkpt>
      <trkpt lat="44.10726" lon="3.18365">
        <ele>766.6</ele>
        <time>2019-05-31T11:05:32Z</time>
      </trkpt>
      <trkpt lat="44.1073" lon="3.18364">
        <ele>766.5</ele>
        <time>2019-05-31T11:05:34Z</time>
      </trkpt>
      <trkpt lat="44.10735" lon="3.18365">
        <ele>766.4</ele>
        <time>2019-05-31T11:05:36Z</time>
      </trkpt>
      <trkpt lat="44.10739" lon="3.18364">
        <ele>766.3</ele>
        <time>2019-05-31T11:05:38Z</time>
      </trkpt>
      <trkpt lat="44.10742" lon="3.18362">
        <ele>766.2</ele>
        <time>2019-05-31T11:05:39Z</time>
      </trkpt>
      <trkpt lat="44.10745" lon="3.18361">
        <ele>766.1</ele>
        <time>2019-05-31T11:05:40Z</time>
      </trkpt>
      <trkpt lat="44.10749" lon="3.1836">
        <ele>766.2</ele>
        <time>2019-05-31T11:05:42Z</time>
      </trkpt>
      <trkpt lat="44.10752" lon="3.18363">
        <ele>766.4</ele>
        <time>2019-05-31T11:05:44Z</time>
      </trkpt>
      <trkpt lat="44.10755" lon="3.18368">
        <ele>766.5</ele>
        <time>2019-05-31T11:05:46Z</time>
      </trkpt>
      <trkpt lat="44.10757" lon="3.18372">
        <ele>766.6</ele>
        <time>2019-05-31T11:05:48Z</time>
      </trkpt>
      <trkpt lat="44.1076" lon="3.18375">
        <ele>766.8</ele>
        <time>2019-05-31T11:05:50Z</time>
      </trkpt>
      <trkpt lat="44.10763" lon="3.18379">
        <ele>766.9</ele>
        <time>2019-05-31T11:05:52Z</time>
      </trkpt>
      <trkpt lat="44.10766" lon="3.18383">
        <ele>767</ele>
        <time>2019-05-31T11:05:54Z</time>
      </trkpt>
      <trkpt lat="44.10768" lon="3.18387">
        <ele>767.1</ele>
        <time>2019-05-31T11:05:56Z</time>
      </trkpt>
      <trkpt lat="44.10771" lon="3.18391">
        <ele>767.2</ele>
        <time>2019-05-31T11:05:58Z</time>
      </trkpt>
      <trkpt lat="44.10774" lon="3.18392">
        <ele>767.2</ele>
        <time>2019-05-31T11:05:59Z</time>
      </trkpt>
      <trkpt lat="44.10778" lon="3.18391">
        <ele>767.3</ele>
        <time>2019-05-31T11:06:01Z</time>
      </trkpt>
      <trkpt lat="44.10782" lon="3.18391">
        <ele>767.4</ele>
        <time>2019-05-31T11:06:03Z</time>
      </trkpt>
      <trkpt lat="44.10786" lon="3.18391">
        <ele>767.5</ele>
        <time>2019-05-31T11:06:05Z</time>
      </trkpt>
      <trkpt lat="44.1079" lon="3.18392">
        <ele>767.5</ele>
        <time>2019-05-31T11:06:07Z</time>
      </trkpt>
      <trkpt lat="44.10796" lon="3.18394">
        <ele>767.6</ele>
        <time>2019-05-31T11:06:09Z</time>
      </trkpt>
      <trkpt lat="44.10799" lon="3.18394">
        <ele>767.7</ele>
        <time>2019-05-31T11:06:10Z</time>
      </trkpt>
      <trkpt lat="44.10803" lon="3.18395">
        <ele>767.8</ele>
        <time>2019-05-31T11:06:12Z</time>
      </trkpt>
      <trkpt lat="44.10807" lon="3.18394">
        <ele>767.8</ele>
        <time>2019-05-31T11:06:14Z</time>
      </trkpt>
      <trkpt lat="44.10812" lon="3.18393">
        <ele>767.9</ele>
        <time>2019-05-31T11:06:16Z</time>
      </trkpt>
      <trkpt lat="44.10814" lon="3.1839">
        <ele>767.9</ele>
        <time>2019-05-31T11:06:18Z</time>
      </trkpt>
      <trkpt lat="44.10819" lon="3.18389">
        <ele>768</ele>
        <time>2019-05-31T11:06:20Z</time>
      </trkpt>
      <trkpt lat="44.10821" lon="3.18388">
        <ele>768</ele>
        <time>2019-05-31T11:06:21Z</time>
      </trkpt>
      <trkpt lat="44.10824" lon="3.18387">
        <ele>768</ele>
        <time>2019-05-31T11:06:22Z</time>
      </trkpt>
      <trkpt lat="44.10827" lon="3.18386">
        <ele>768.1</ele>
        <time>2019-05-31T11:06:23Z</time>
      </trkpt>
      <trkpt lat="44.1083" lon="3.18384">
        <ele>768.1</ele>
        <time>2019-05-31T11:06:24Z</time>
      </trkpt>
      <trkpt lat="44.10835" lon="3.18382">
        <ele>768.1</ele>
        <time>2019-05-31T11:06:26Z</time>
      </trkpt>
      <trkpt lat="44.10838" lon="3.18382">
        <ele>768.2</ele>
        <time>2019-05-31T11:06:27Z</time>
      </trkpt>
      <trkpt lat="44.10841" lon="3.18381">
        <ele>768.2</ele>
        <time>2019-05-31T11:06:28Z</time>
      </trkpt>
      <trkpt lat="44.10846" lon="3.1838">
        <ele>768.2</ele>
        <time>2019-05-31T11:06:30Z</time>
      </trkpt>
      <trkpt lat="44.10849" lon="3.18379">
        <ele>768.2</ele>
        <time>2019-05-31T11:06:32Z</time>
      </trkpt>
      <trkpt lat="44.10852" lon="3.18378">
        <ele>768.3</ele>
        <time>2019-05-31T11:06:34Z</time>
      </trkpt>
      <trkpt lat="44.10856" lon="3.18376">
        <ele>768.3</ele>
        <time>2019-05-31T11:06:36Z</time>
      </trkpt>
      <trkpt lat="44.1086" lon="3.18375">
        <ele>768.3</ele>
        <time>2019-05-31T11:06:38Z</time>
      </trkpt>
      <trkpt lat="44.10865" lon="3.18374">
        <ele>768.3</ele>
        <time>2019-05-31T11:06:40Z</time>
      </trkpt>
      <trkpt lat="44.1087" lon="3.18374">
        <ele>768.4</ele>
        <time>2019-05-31T11:06:42Z</time>
      </trkpt>
      <trkpt lat="44.10875" lon="3.18373">
        <ele>768.4</ele>
        <time>2019-05-31T11:06:44Z</time>
      </trkpt>
      <trkpt lat="44.10879" lon="3.18372">
        <ele>768.4</ele>
        <time>2019-05-31T11:06:46Z</time>
      </trkpt>
      <trkpt lat="44.10883" lon="3.1837">
        <ele>768.4</ele>
        <time>2019-05-31T11:06:48Z</time>
      </trkpt>
      <trkpt lat="44.10886" lon="3.18367">
        <ele>768.4</ele>
        <time>2019-05-31T11:06:50Z</time>
      </trkpt>
      <trkpt lat="44.10889" lon="3.18366">
        <ele>768.4</ele>
        <time>2019-05-31T11:06:52Z</time>
      </trkpt>
      <trkpt lat="44.10893" lon="3.18365">
        <ele>768.4</ele>
        <time>2019-05-31T11:06:54Z</time>
      </trkpt>
      <trkpt lat="44.10897" lon="3.18366">
        <ele>768.4</ele>
        <time>2019-05-31T11:06:56Z</time>
      </trkpt>
      <trkpt lat="44.10901" lon="3.18369">
        <ele>768.4</ele>
        <time>2019-05-31T11:06:58Z</time>
      </trkpt>
      <trkpt lat="44.10905" lon="3.18369">
        <ele>768.4</ele>
        <time>2019-05-31T11:07:00Z</time>
      </trkpt>
      <trkpt lat="44.10908" lon="3.18368">
        <ele>768.4</ele>
        <time>2019-05-31T11:07:01Z</time>
      </trkpt>
      <trkpt lat="44.10911" lon="3.18368">
        <ele>768.4</ele>
        <time>2019-05-31T11:07:02Z</time>
      </trkpt>
      <trkpt lat="44.10914" lon="3.18366">
        <ele>768.4</ele>
        <time>2019-05-31T11:07:03Z</time>
      </trkpt>
      <trkpt lat="44.10917" lon="3.18365">
        <ele>768.4</ele>
        <time>2019-05-31T11:07:04Z</time>
      </trkpt>
      <trkpt lat="44.1092" lon="3.18365">
        <ele>768.4</ele>
        <time>2019-05-31T11:07:05Z</time>
      </trkpt>
      <trkpt lat="44.10923" lon="3.18365">
        <ele>768.3</ele>
        <time>2019-05-31T11:07:06Z</time>
      </trkpt>
      <trkpt lat="44.10926" lon="3.18365">
        <ele>768.3</ele>
        <time>2019-05-31T11:07:07Z</time>
      </trkpt>
      <trkpt lat="44.10929" lon="3.18365">
        <ele>768.3</ele>
        <time>2019-05-31T11:07:08Z</time>
      </trkpt>
      <trkpt lat="44.10932" lon="3.18364">
        <ele>768.2</ele>
        <time>2019-05-31T11:07:09Z</time>
      </trkpt>
      <trkpt lat="44.10935" lon="3.18363">
        <ele>768.2</ele>
        <time>2019-05-31T11:07:10Z</time>
      </trkpt>
      <trkpt lat="44.10938" lon="3.18362">
        <ele>768.2</ele>
        <time>2019-05-31T11:07:11Z</time>
      </trkpt>
      <trkpt lat="44.10941" lon="3.1836">
        <ele>768.2</ele>
        <time>2019-05-31T11:07:12Z</time>
      </trkpt>
      <trkpt lat="44.10945" lon="3.18357">
        <ele>768.1</ele>
        <time>2019-05-31T11:07:14Z</time>
      </trkpt>
      <trkpt lat="44.1095" lon="3.18356">
        <ele>768</ele>
        <time>2019-05-31T11:07:16Z</time>
      </trkpt>
      <trkpt lat="44.10954" lon="3.18356">
        <ele>768</ele>
        <time>2019-05-31T11:07:17Z</time>
      </trkpt>
      <trkpt lat="44.10957" lon="3.18357">
        <ele>768</ele>
        <time>2019-05-31T11:07:18Z</time>
      </trkpt>
      <trkpt lat="44.10961" lon="3.18358">
        <ele>767.9</ele>
        <time>2019-05-31T11:07:19Z</time>
      </trkpt>
      <trkpt lat="44.10964" lon="3.18362">
        <ele>767.9</ele>
        <time>2019-05-31T11:07:20Z</time>
      </trkpt>
      <trkpt lat="44.10968" lon="3.18365">
        <ele>767.8</ele>
        <time>2019-05-31T11:07:21Z</time>
      </trkpt>
      <trkpt lat="44.10972" lon="3.18367">
        <ele>767.8</ele>
        <time>2019-05-31T11:07:22Z</time>
      </trkpt>
      <trkpt lat="44.10976" lon="3.18369">
        <ele>767.8</ele>
        <time>2019-05-31T11:07:23Z</time>
      </trkpt>
      <trkpt lat="44.1098" lon="3.18369">
        <ele>767.8</ele>
        <time>2019-05-31T11:07:24Z</time>
      </trkpt>
      <trkpt lat="44.10984" lon="3.18369">
        <ele>767.7</ele>
        <time>2019-05-31T11:07:25Z</time>
      </trkpt>
      <trkpt lat="44.10988" lon="3.18369">
        <ele>767.7</ele>
        <time>2019-05-31T11:07:26Z</time>
      </trkpt>
      <trkpt lat="44.10991" lon="3.18369">
        <ele>767.7</ele>
        <time>2019-05-31T11:07:27Z</time>
      </trkpt>
      <trkpt lat="44.10994" lon="3.1837">
        <ele>767.7</ele>
        <time>2019-05-31T11:07:28Z</time>
      </trkpt>
      <trkpt lat="44.10997" lon="3.18371">
        <ele>767.7</ele>
        <time>2019-05-31T11:07:29Z</time>
      </trkpt>
      <trkpt lat="44.11001" lon="3.18375">
        <ele>767.7</ele>
        <time>2019-05-31T11:07:31Z</time>
      </trkpt>
      <trkpt lat="44.11004" lon="3.1838">
        <ele>767.6</ele>
        <time>2019-05-31T11:07:33Z</time>
      </trkpt>
      <trkpt lat="44.11007" lon="3.18384">
        <ele>767.5</ele>
        <time>2019-05-31T11:07:35Z</time>
      </trkpt>
      <trkpt lat="44.11009" lon="3.18388">
        <ele>767.4</ele>
        <time>2019-05-31T11:07:37Z</time>
      </trkpt>
      <trkpt lat="44.11012" lon="3.18393">
        <ele>767.2</ele>
        <time>2019-05-31T11:07:39Z</time>
      </trkpt>
      <trkpt lat="44.11015" lon="3.18399">
        <ele>766.9</ele>
        <time>2019-05-31T11:07:41Z</time>
      </trkpt>
      <trkpt lat="44.11017" lon="3.18404">
        <ele>766.6</ele>
        <time>2019-05-31T11:07:43Z</time>
      </trkpt>
      <trkpt lat="44.11016" lon="3.18411">
        <ele>766.2</ele>
        <time>2019-05-31T11:07:45Z</time>
      </trkpt>
      <trkpt lat="44.11014" lon="3.18416">
        <ele>765.8</ele>
        <time>2019-05-31T11:07:46Z</time>
      </trkpt>
      <trkpt lat="44.11012" lon="3.1842">
        <ele>765.4</ele>
        <time>2019-05-31T11:07:47Z</time>
      </trkpt>
      <trkpt lat="44.11008" lon="3.18424">
        <ele>765</ele>
        <time>2019-05-31T11:07:48Z</time>
      </trkpt>
      <trkpt lat="44.11006" lon="3.1843">
        <ele>764.6</ele>
        <time>2019-05-31T11:07:49Z</time>
      </trkpt>
      <trkpt lat="44.11006" lon="3.18435">
        <ele>764.3</ele>
        <time>2019-05-31T11:07:50Z</time>
      </trkpt>
      <trkpt lat="44.11015" lon="3.18436">
        <ele>763.7</ele>
        <time>2019-05-31T11:07:51Z</time>
      </trkpt>
      <trkpt lat="44.11018" lon="3.18438">
        <ele>763.5</ele>
        <time>2019-05-31T11:07:52Z</time>
      </trkpt>
      <trkpt lat="44.11022" lon="3.18442">
        <ele>763.2</ele>
        <time>2019-05-31T11:07:53Z</time>
      </trkpt>
      <trkpt lat="44.11025" lon="3.18445">
        <ele>763</ele>
        <time>2019-05-31T11:07:54Z</time>
      </trkpt>
      <trkpt lat="44.11026" lon="3.1845">
        <ele>762.7</ele>
        <time>2019-05-31T11:07:55Z</time>
      </trkpt>
      <trkpt lat="44.11027" lon="3.18454">
        <ele>762.4</ele>
        <time>2019-05-31T11:07:56Z</time>
      </trkpt>
      <trkpt lat="44.11031" lon="3.18459">
        <ele>762</ele>
        <time>2019-05-31T11:07:57Z</time>
      </trkpt>
      <trkpt lat="44.1103" lon="3.18465">
        <ele>761.7</ele>
        <time>2019-05-31T11:07:58Z</time>
      </trkpt>
      <trkpt lat="44.11031" lon="3.18475">
        <ele>761.4</ele>
        <time>2019-05-31T11:07:59Z</time>
      </trkpt>
      <trkpt lat="44.11036" lon="3.18481">
        <ele>761.1</ele>
        <time>2019-05-31T11:08:00Z</time>
      </trkpt>
      <trkpt lat="44.11039" lon="3.18487">
        <ele>760.8</ele>
        <time>2019-05-31T11:08:01Z</time>
      </trkpt>
      <trkpt lat="44.11041" lon="3.18492">
        <ele>760.7</ele>
        <time>2019-05-31T11:08:02Z</time>
      </trkpt>
      <trkpt lat="44.11043" lon="3.18496">
        <ele>760.6</ele>
        <time>2019-05-31T11:08:03Z</time>
      </trkpt>
      <trkpt lat="44.11045" lon="3.185">
        <ele>760.4</ele>
        <time>2019-05-31T11:08:04Z</time>
      </trkpt>
      <trkpt lat="44.11047" lon="3.18504">
        <ele>760.3</ele>
        <time>2019-05-31T11:08:05Z</time>
      </trkpt>
      <trkpt lat="44.11049" lon="3.18507">
        <ele>760.2</ele>
        <time>2019-05-31T11:08:06Z</time>
      </trkpt>
      <trkpt lat="44.11051" lon="3.18512">
        <ele>760.1</ele>
        <time>2019-05-31T11:08:07Z</time>
      </trkpt>
      <trkpt lat="44.11052" lon="3.18519">
        <ele>760</ele>
        <time>2019-05-31T11:08:08Z</time>
      </trkpt>
      <trkpt lat="44.11054" lon="3.18525">
        <ele>759.8</ele>
        <time>2019-05-31T11:08:09Z</time>
      </trkpt>
      <trkpt lat="44.11057" lon="3.18524">
        <ele>759.8</ele>
        <time>2019-05-31T11:08:10Z</time>
      </trkpt>
      <trkpt lat="44.11063" lon="3.18529">
        <ele>759.6</ele>
        <time>2019-05-31T11:08:11Z</time>
      </trkpt>
      <trkpt lat="44.11066" lon="3.18534">
        <ele>759.4</ele>
        <time>2019-05-31T11:08:12Z</time>
      </trkpt>
      <trkpt lat="44.11068" lon="3.18539">
        <ele>759.2</ele>
        <time>2019-05-31T11:08:13Z</time>
      </trkpt>
      <trkpt lat="44.11071" lon="3.18543">
        <ele>759</ele>
        <time>2019-05-31T11:08:14Z</time>
      </trkpt>
      <trkpt lat="44.11073" lon="3.18546">
        <ele>758.8</ele>
        <time>2019-05-31T11:08:15Z</time>
      </trkpt>
      <trkpt lat="44.11076" lon="3.18548">
        <ele>758.7</ele>
        <time>2019-05-31T11:08:16Z</time>
      </trkpt>
      <trkpt lat="44.1108" lon="3.18549">
        <ele>758.5</ele>
        <time>2019-05-31T11:08:17Z</time>
      </trkpt>
      <trkpt lat="44.11089" lon="3.1855">
        <ele>758</ele>
        <time>2019-05-31T11:08:18Z</time>
      </trkpt>
      <trkpt lat="44.11095" lon="3.18553">
        <ele>757.8</ele>
        <time>2019-05-31T11:08:19Z</time>
      </trkpt>
      <trkpt lat="44.11099" lon="3.18556">
        <ele>757.5</ele>
        <time>2019-05-31T11:08:20Z</time>
      </trkpt>
      <trkpt lat="44.11106" lon="3.18558">
        <ele>757.3</ele>
        <time>2019-05-31T11:08:21Z</time>
      </trkpt>
      <trkpt lat="44.1111" lon="3.1856">
        <ele>757.2</ele>
        <time>2019-05-31T11:08:22Z</time>
      </trkpt>
      <trkpt lat="44.11115" lon="3.18562">
        <ele>757.3</ele>
        <time>2019-05-31T11:08:23Z</time>
      </trkpt>
      <trkpt lat="44.11119" lon="3.1856">
        <ele>757.4</ele>
        <time>2019-05-31T11:08:24Z</time>
      </trkpt>
      <trkpt lat="44.11124" lon="3.1856">
        <ele>757.6</ele>
        <time>2019-05-31T11:08:25Z</time>
      </trkpt>
      <trkpt lat="44.11129" lon="3.18558">
        <ele>757.8</ele>
        <time>2019-05-31T11:08:29Z</time>
      </trkpt>
      <trkpt lat="44.11132" lon="3.18558">
        <ele>758.1</ele>
        <time>2019-05-31T11:08:31Z</time>
      </trkpt>
      <trkpt lat="44.11136" lon="3.18558">
        <ele>758.5</ele>
        <time>2019-05-31T11:08:33Z</time>
      </trkpt>
      <trkpt lat="44.11139" lon="3.1856">
        <ele>758.9</ele>
        <time>2019-05-31T11:08:35Z</time>
      </trkpt>
      <trkpt lat="44.11143" lon="3.18559">
        <ele>759.4</ele>
        <time>2019-05-31T11:08:38Z</time>
      </trkpt>
      <trkpt lat="44.11147" lon="3.18559">
        <ele>759.8</ele>
        <time>2019-05-31T11:08:40Z</time>
      </trkpt>
      <trkpt lat="44.1115" lon="3.18559">
        <ele>760.2</ele>
        <time>2019-05-31T11:08:42Z</time>
      </trkpt>
      <trkpt lat="44.11154" lon="3.18561">
        <ele>760.8</ele>
        <time>2019-05-31T11:08:44Z</time>
      </trkpt>
      <trkpt lat="44.11158" lon="3.18564">
        <ele>761.2</ele>
        <time>2019-05-31T11:08:46Z</time>
      </trkpt>
      <trkpt lat="44.11162" lon="3.18566">
        <ele>761.6</ele>
        <time>2019-05-31T11:08:48Z</time>
      </trkpt>
      <trkpt lat="44.11166" lon="3.18569">
        <ele>762</ele>
        <time>2019-05-31T11:08:50Z</time>
      </trkpt>
      <trkpt lat="44.11171" lon="3.18572">
        <ele>762.2</ele>
        <time>2019-05-31T11:08:52Z</time>
      </trkpt>
      <trkpt lat="44.11173" lon="3.18575">
        <ele>762.4</ele>
        <time>2019-05-31T11:08:53Z</time>
      </trkpt>
      <trkpt lat="44.11176" lon="3.18577">
        <ele>762.5</ele>
        <time>2019-05-31T11:08:54Z</time>
      </trkpt>
      <trkpt lat="44.11179" lon="3.18581">
        <ele>762.5</ele>
        <time>2019-05-31T11:08:55Z</time>
      </trkpt>
      <trkpt lat="44.11183" lon="3.18585">
        <ele>762.6</ele>
        <time>2019-05-31T11:08:56Z</time>
      </trkpt>
      <trkpt lat="44.11186" lon="3.18588">
        <ele>762.6</ele>
        <time>2019-05-31T11:08:57Z</time>
      </trkpt>
      <trkpt lat="44.11188" lon="3.18592">
        <ele>762.5</ele>
        <time>2019-05-31T11:08:58Z</time>
      </trkpt>
      <trkpt lat="44.1119" lon="3.18594">
        <ele>762.5</ele>
        <time>2019-05-31T11:08:59Z</time>
      </trkpt>
      <trkpt lat="44.11193" lon="3.18596">
        <ele>762.5</ele>
        <time>2019-05-31T11:09:00Z</time>
      </trkpt>
      <trkpt lat="44.11196" lon="3.18599">
        <ele>762.5</ele>
        <time>2019-05-31T11:09:02Z</time>
      </trkpt>
      <trkpt lat="44.11198" lon="3.18601">
        <ele>762.5</ele>
        <time>2019-05-31T11:09:04Z</time>
      </trkpt>
      <trkpt lat="44.11202" lon="3.18598">
        <ele>762.4</ele>
        <time>2019-05-31T11:09:06Z</time>
      </trkpt>
      <trkpt lat="44.11205" lon="3.18596">
        <ele>762.4</ele>
        <time>2019-05-31T11:09:07Z</time>
      </trkpt>
      <trkpt lat="44.11211" lon="3.18594">
        <ele>762.4</ele>
        <time>2019-05-31T11:09:08Z</time>
      </trkpt>
      <trkpt lat="44.11215" lon="3.18592">
        <ele>762.5</ele>
        <time>2019-05-31T11:09:09Z</time>
      </trkpt>
      <trkpt lat="44.11219" lon="3.18591">
        <ele>762.5</ele>
        <time>2019-05-31T11:09:10Z</time>
      </trkpt>
      <trkpt lat="44.11222" lon="3.18591">
        <ele>762.5</ele>
        <time>2019-05-31T11:09:11Z</time>
      </trkpt>
      <trkpt lat="44.11226" lon="3.1859">
        <ele>762.6</ele>
        <time>2019-05-31T11:09:13Z</time>
      </trkpt>
      <trkpt lat="44.11229" lon="3.18589">
        <ele>762.6</ele>
        <time>2019-05-31T11:09:14Z</time>
      </trkpt>
      <trkpt lat="44.11232" lon="3.18589">
        <ele>762.7</ele>
        <time>2019-05-31T11:09:15Z</time>
      </trkpt>
      <trkpt lat="44.11237" lon="3.18587">
        <ele>762.8</ele>
        <time>2019-05-31T11:09:17Z</time>
      </trkpt>
      <trkpt lat="44.11242" lon="3.18586">
        <ele>762.9</ele>
        <time>2019-05-31T11:09:19Z</time>
      </trkpt>
      <trkpt lat="44.11246" lon="3.18584">
        <ele>763.1</ele>
        <time>2019-05-31T11:09:21Z</time>
      </trkpt>
      <trkpt lat="44.1125" lon="3.18584">
        <ele>763.2</ele>
        <time>2019-05-31T11:09:23Z</time>
      </trkpt>
      <trkpt lat="44.11253" lon="3.18583">
        <ele>763.3</ele>
        <time>2019-05-31T11:09:25Z</time>
      </trkpt>
      <trkpt lat="44.11257" lon="3.18581">
        <ele>763.4</ele>
        <time>2019-05-31T11:09:27Z</time>
      </trkpt>
      <trkpt lat="44.11261" lon="3.18578">
        <ele>763.6</ele>
        <time>2019-05-31T11:09:29Z</time>
      </trkpt>
      <trkpt lat="44.11266" lon="3.18579">
        <ele>763.7</ele>
        <time>2019-05-31T11:09:31Z</time>
      </trkpt>
      <trkpt lat="44.11269" lon="3.1858">
        <ele>763.9</ele>
        <time>2019-05-31T11:09:32Z</time>
      </trkpt>
      <trkpt lat="44.11272" lon="3.18581">
        <ele>764</ele>
        <time>2019-05-31T11:09:33Z</time>
      </trkpt>
      <trkpt lat="44.11277" lon="3.18581">
        <ele>764.3</ele>
        <time>2019-05-31T11:09:35Z</time>
      </trkpt>
      <trkpt lat="44.11281" lon="3.18581">
        <ele>764.5</ele>
        <time>2019-05-31T11:09:37Z</time>
      </trkpt>
      <trkpt lat="44.11285" lon="3.1858">
        <ele>764.8</ele>
        <time>2019-05-31T11:09:39Z</time>
      </trkpt>
      <trkpt lat="44.11289" lon="3.18579">
        <ele>765</ele>
        <time>2019-05-31T11:09:41Z</time>
      </trkpt>
      <trkpt lat="44.11293" lon="3.18576">
        <ele>765.2</ele>
        <time>2019-05-31T11:09:43Z</time>
      </trkpt>
      <trkpt lat="44.11296" lon="3.18574">
        <ele>765.4</ele>
        <time>2019-05-31T11:09:45Z</time>
      </trkpt>
      <trkpt lat="44.113" lon="3.18574">
        <ele>765.7</ele>
        <time>2019-05-31T11:09:47Z</time>
      </trkpt>
      <trkpt lat="44.11302" lon="3.18573">
        <ele>766</ele>
        <time>2019-05-31T11:09:49Z</time>
      </trkpt>
      <trkpt lat="44.11307" lon="3.18576">
        <ele>766.1</ele>
        <time>2019-05-31T11:09:51Z</time>
      </trkpt>
      <trkpt lat="44.1131" lon="3.18578">
        <ele>766.2</ele>
        <time>2019-05-31T11:09:53Z</time>
      </trkpt>
      <trkpt lat="44.11315" lon="3.18581">
        <ele>766.3</ele>
        <time>2019-05-31T11:09:55Z</time>
      </trkpt>
      <trkpt lat="44.11318" lon="3.18584">
        <ele>766.3</ele>
        <time>2019-05-31T11:09:56Z</time>
      </trkpt>
      <trkpt lat="44.11321" lon="3.18587">
        <ele>766.3</ele>
        <time>2019-05-31T11:09:58Z</time>
      </trkpt>
      <trkpt lat="44.11324" lon="3.18592">
        <ele>766.3</ele>
        <time>2019-05-31T11:10:00Z</time>
      </trkpt>
      <trkpt lat="44.11325" lon="3.18595">
        <ele>766.2</ele>
        <time>2019-05-31T11:10:08Z</time>
      </trkpt>
      <trkpt lat="44.11325" lon="3.18597">
        <ele>766.2</ele>
        <time>2019-05-31T11:10:50Z</time>
      </trkpt>
      <trkpt lat="44.11326" lon="3.18599">
        <ele>766.2</ele>
        <time>2019-05-31T11:11:24Z</time>
      </trkpt>
      <trkpt lat="44.11327" lon="3.18601">
        <ele>766.1</ele>
        <time>2019-05-31T11:11:25Z</time>
      </trkpt>
      <trkpt lat="44.11324" lon="3.18606">
        <ele>766</ele>
        <time>2019-05-31T11:11:26Z</time>
      </trkpt>
      <trkpt lat="44.11321" lon="3.1861">
        <ele>766</ele>
        <time>2019-05-31T11:11:27Z</time>
      </trkpt>
      <trkpt lat="44.1132" lon="3.18615">
        <ele>766.1</ele>
        <time>2019-05-31T11:11:28Z</time>
      </trkpt>
      <trkpt lat="44.11319" lon="3.1862">
        <ele>766.2</ele>
        <time>2019-05-31T11:11:29Z</time>
      </trkpt>
      <trkpt lat="44.1132" lon="3.18626">
        <ele>766.4</ele>
        <time>2019-05-31T11:11:30Z</time>
      </trkpt>
      <trkpt lat="44.11322" lon="3.1863">
        <ele>766.6</ele>
        <time>2019-05-31T11:11:31Z</time>
      </trkpt>
      <trkpt lat="44.11324" lon="3.18633">
        <ele>766.8</ele>
        <time>2019-05-31T11:11:32Z</time>
      </trkpt>
      <trkpt lat="44.11328" lon="3.18637">
        <ele>767.1</ele>
        <time>2019-05-31T11:11:34Z</time>
      </trkpt>
      <trkpt lat="44.1133" lon="3.18639">
        <ele>767.3</ele>
        <time>2019-05-31T11:11:35Z</time>
      </trkpt>
      <trkpt lat="44.11333" lon="3.18641">
        <ele>767.4</ele>
        <time>2019-05-31T11:11:36Z</time>
      </trkpt>
      <trkpt lat="44.11335" lon="3.18646">
        <ele>767.7</ele>
        <time>2019-05-31T11:11:38Z</time>
      </trkpt>
      <trkpt lat="44.11337" lon="3.18652">
        <ele>768</ele>
        <time>2019-05-31T11:11:40Z</time>
      </trkpt>
      <trkpt lat="44.1134" lon="3.18658">
        <ele>768.6</ele>
        <time>2019-05-31T11:11:42Z</time>
      </trkpt>
      <trkpt lat="44.11342" lon="3.1866">
        <ele>768.8</ele>
        <time>2019-05-31T11:11:43Z</time>
      </trkpt>
      <trkpt lat="44.11348" lon="3.18664">
        <ele>769.2</ele>
        <time>2019-05-31T11:11:45Z</time>
      </trkpt>
      <trkpt lat="44.11351" lon="3.18666">
        <ele>769.5</ele>
        <time>2019-05-31T11:11:46Z</time>
      </trkpt>
      <trkpt lat="44.11354" lon="3.18668">
        <ele>769.7</ele>
        <time>2019-05-31T11:11:47Z</time>
      </trkpt>
      <trkpt lat="44.11358" lon="3.1867">
        <ele>770.1</ele>
        <time>2019-05-31T11:11:48Z</time>
      </trkpt>
      <trkpt lat="44.11361" lon="3.18672">
        <ele>770.4</ele>
        <time>2019-05-31T11:11:49Z</time>
      </trkpt>
      <trkpt lat="44.11365" lon="3.18675">
        <ele>771.1</ele>
        <time>2019-05-31T11:11:50Z</time>
      </trkpt>
      <trkpt lat="44.1137" lon="3.18676">
        <ele>771.6</ele>
        <time>2019-05-31T11:11:51Z</time>
      </trkpt>
      <trkpt lat="44.11373" lon="3.18678">
        <ele>772</ele>
        <time>2019-05-31T11:11:52Z</time>
      </trkpt>
      <trkpt lat="44.11377" lon="3.1868">
        <ele>772.4</ele>
        <time>2019-05-31T11:11:54Z</time>
      </trkpt>
      <trkpt lat="44.11382" lon="3.18679">
        <ele>773.2</ele>
        <time>2019-05-31T11:11:56Z</time>
      </trkpt>
      <trkpt lat="44.11386" lon="3.18677">
        <ele>774</ele>
        <time>2019-05-31T11:11:58Z</time>
      </trkpt>
      <trkpt lat="44.11391" lon="3.18674">
        <ele>774.9</ele>
        <time>2019-05-31T11:12:00Z</time>
      </trkpt>
      <trkpt lat="44.11393" lon="3.18668">
        <ele>775.6</ele>
        <time>2019-05-31T11:12:02Z</time>
      </trkpt>
      <trkpt lat="44.11391" lon="3.18662">
        <ele>776.5</ele>
        <time>2019-05-31T11:12:04Z</time>
      </trkpt>
      <trkpt lat="44.11393" lon="3.18659">
        <ele>777.2</ele>
        <time>2019-05-31T11:12:15Z</time>
      </trkpt>
      <trkpt lat="44.11396" lon="3.18655">
        <ele>777.9</ele>
        <time>2019-05-31T11:12:18Z</time>
      </trkpt>
      <trkpt lat="44.11398" lon="3.18653">
        <ele>778.5</ele>
        <time>2019-05-31T11:12:20Z</time>
      </trkpt>
      <trkpt lat="44.11401" lon="3.1865">
        <ele>779.2</ele>
        <time>2019-05-31T11:12:22Z</time>
      </trkpt>
      <trkpt lat="44.11405" lon="3.18649">
        <ele>780</ele>
        <time>2019-05-31T11:12:24Z</time>
      </trkpt>
      <trkpt lat="44.11409" lon="3.18651">
        <ele>780.9</ele>
        <time>2019-05-31T11:12:26Z</time>
      </trkpt>
      <trkpt lat="44.11412" lon="3.18652">
        <ele>781.3</ele>
        <time>2019-05-31T11:12:27Z</time>
      </trkpt>
      <trkpt lat="44.11415" lon="3.18654">
        <ele>781.8</ele>
        <time>2019-05-31T11:12:28Z</time>
      </trkpt>
      <trkpt lat="44.11418" lon="3.18657">
        <ele>782.3</ele>
        <time>2019-05-31T11:12:29Z</time>
      </trkpt>
      <trkpt lat="44.11422" lon="3.18662">
        <ele>783.3</ele>
        <time>2019-05-31T11:12:30Z</time>
      </trkpt>
      <trkpt lat="44.11426" lon="3.18665">
        <ele>784.1</ele>
        <time>2019-05-31T11:12:31Z</time>
      </trkpt>
      <trkpt lat="44.11427" lon="3.18671">
        <ele>785</ele>
        <time>2019-05-31T11:12:32Z</time>
      </trkpt>
      <trkpt lat="44.11431" lon="3.18669">
        <ele>786</ele>
        <time>2019-05-31T11:12:33Z</time>
      </trkpt>
      <trkpt lat="44.11434" lon="3.1867">
        <ele>786.4</ele>
        <time>2019-05-31T11:12:35Z</time>
      </trkpt>
      <trkpt lat="44.11437" lon="3.18671">
        <ele>786.8</ele>
        <time>2019-05-31T11:12:37Z</time>
      </trkpt>
      <trkpt lat="44.11442" lon="3.18674">
        <ele>787.5</ele>
        <time>2019-05-31T11:12:39Z</time>
      </trkpt>
      <trkpt lat="44.11446" lon="3.18676">
        <ele>788.2</ele>
        <time>2019-05-31T11:12:41Z</time>
      </trkpt>
      <trkpt lat="44.1145" lon="3.18678">
        <ele>788.9</ele>
        <time>2019-05-31T11:12:43Z</time>
      </trkpt>
      <trkpt lat="44.11455" lon="3.18678">
        <ele>789.7</ele>
        <time>2019-05-31T11:12:45Z</time>
      </trkpt>
      <trkpt lat="44.11458" lon="3.18678">
        <ele>790.2</ele>
        <time>2019-05-31T11:12:46Z</time>
      </trkpt>
      <trkpt lat="44.11461" lon="3.18679">
        <ele>790.7</ele>
        <time>2019-05-31T11:12:47Z</time>
      </trkpt>
      <trkpt lat="44.11465" lon="3.18681">
        <ele>791.2</ele>
        <time>2019-05-31T11:12:49Z</time>
      </trkpt>
      <trkpt lat="44.1147" lon="3.18684">
        <ele>791.7</ele>
        <time>2019-05-31T11:12:51Z</time>
      </trkpt>
      <trkpt lat="44.11473" lon="3.18686">
        <ele>792</ele>
        <time>2019-05-31T11:12:52Z</time>
      </trkpt>
      <trkpt lat="44.11474" lon="3.18692">
        <ele>792.2</ele>
        <time>2019-05-31T11:12:54Z</time>
      </trkpt>
      <trkpt lat="44.11471" lon="3.18697">
        <ele>792.2</ele>
        <time>2019-05-31T11:12:56Z</time>
      </trkpt>
      <trkpt lat="44.1147" lon="3.18701">
        <ele>792.3</ele>
        <time>2019-05-31T11:12:58Z</time>
      </trkpt>
      <trkpt lat="44.11468" lon="3.18705">
        <ele>792.2</ele>
        <time>2019-05-31T11:13:00Z</time>
      </trkpt>
      <trkpt lat="44.11465" lon="3.18711">
        <ele>792</ele>
        <time>2019-05-31T11:13:02Z</time>
      </trkpt>
      <trkpt lat="44.11465" lon="3.18722">
        <ele>791.4</ele>
        <time>2019-05-31T11:13:03Z</time>
      </trkpt>
      <trkpt lat="44.11467" lon="3.18729">
        <ele>791.2</ele>
        <time>2019-05-31T11:13:04Z</time>
      </trkpt>
      <trkpt lat="44.1147" lon="3.18737">
        <ele>790.9</ele>
        <time>2019-05-31T11:13:05Z</time>
      </trkpt>
      <trkpt lat="44.11472" lon="3.18743">
        <ele>790.7</ele>
        <time>2019-05-31T11:13:06Z</time>
      </trkpt>
      <trkpt lat="44.11476" lon="3.18748">
        <ele>790.6</ele>
        <time>2019-05-31T11:13:07Z</time>
      </trkpt>
      <trkpt lat="44.11478" lon="3.18753">
        <ele>790.5</ele>
        <time>2019-05-31T11:13:08Z</time>
      </trkpt>
      <trkpt lat="44.11486" lon="3.18754">
        <ele>790.5</ele>
        <time>2019-05-31T11:13:09Z</time>
      </trkpt>
      <trkpt lat="44.11489" lon="3.18758">
        <ele>790.5</ele>
        <time>2019-05-31T11:13:10Z</time>
      </trkpt>
      <trkpt lat="44.11495" lon="3.18755">
        <ele>790.6</ele>
        <time>2019-05-31T11:13:12Z</time>
      </trkpt>
      <trkpt lat="44.11498" lon="3.18749">
        <ele>790.8</ele>
        <time>2019-05-31T11:13:13Z</time>
      </trkpt>
      <trkpt lat="44.115" lon="3.18747">
        <ele>790.9</ele>
        <time>2019-05-31T11:13:14Z</time>
      </trkpt>
      <trkpt lat="44.11505" lon="3.18746">
        <ele>791.2</ele>
        <time>2019-05-31T11:13:16Z</time>
      </trkpt>
      <trkpt lat="44.11509" lon="3.18745">
        <ele>791.5</ele>
        <time>2019-05-31T11:13:17Z</time>
      </trkpt>
      <trkpt lat="44.11513" lon="3.18742">
        <ele>791.8</ele>
        <time>2019-05-31T11:13:19Z</time>
      </trkpt>
      <trkpt lat="44.11517" lon="3.18743">
        <ele>792.3</ele>
        <time>2019-05-31T11:13:21Z</time>
      </trkpt>
      <trkpt lat="44.11522" lon="3.18744">
        <ele>792.8</ele>
        <time>2019-05-31T11:13:23Z</time>
      </trkpt>
      <trkpt lat="44.11524" lon="3.18743">
        <ele>793.3</ele>
        <time>2019-05-31T11:13:27Z</time>
      </trkpt>
      <trkpt lat="44.11527" lon="3.18742">
        <ele>793.7</ele>
        <time>2019-05-31T11:13:32Z</time>
      </trkpt>
      <trkpt lat="44.11529" lon="3.1874">
        <ele>794.2</ele>
        <time>2019-05-31T11:14:19Z</time>
      </trkpt>
      <trkpt lat="44.1153" lon="3.18736">
        <ele>794.6</ele>
        <time>2019-05-31T11:14:25Z</time>
      </trkpt>
      <trkpt lat="44.1153" lon="3.1874">
        <ele>795</ele>
        <time>2019-05-31T11:14:44Z</time>
      </trkpt>
      <trkpt lat="44.11527" lon="3.18737">
        <ele>795.5</ele>
        <time>2019-05-31T11:16:57Z</time>
      </trkpt>
      <trkpt lat="44.11529" lon="3.18737">
        <ele>795.9</ele>
        <time>2019-05-31T11:17:11Z</time>
      </trkpt>
      <trkpt lat="44.11529" lon="3.18746">
        <ele>796.9</ele>
        <time>2019-05-31T11:19:17Z</time>
      </trkpt>
      <trkpt lat="44.1153" lon="3.18752">
        <ele>797.5</ele>
        <time>2019-05-31T11:19:19Z</time>
      </trkpt>
      <trkpt lat="44.11533" lon="3.18757">
        <ele>798.2</ele>
        <time>2019-05-31T11:19:21Z</time>
      </trkpt>
      <trkpt lat="44.11533" lon="3.18763">
        <ele>798.8</ele>
        <time>2019-05-31T11:19:23Z</time>
      </trkpt>
      <trkpt lat="44.11531" lon="3.18766">
        <ele>799.3</ele>
        <time>2019-05-31T11:19:25Z</time>
      </trkpt>
      <trkpt lat="44.11528" lon="3.18768">
        <ele>799.8</ele>
        <time>2019-05-31T11:19:27Z</time>
      </trkpt>
      <trkpt lat="44.11526" lon="3.18772">
        <ele>800.4</ele>
        <time>2019-05-31T11:19:29Z</time>
      </trkpt>
      <trkpt lat="44.11527" lon="3.18778">
        <ele>801.2</ele>
        <time>2019-05-31T11:19:31Z</time>
      </trkpt>
      <trkpt lat="44.11527" lon="3.18785">
        <ele>801.9</ele>
        <time>2019-05-31T11:19:33Z</time>
      </trkpt>
      <trkpt lat="44.11527" lon="3.1879">
        <ele>802.5</ele>
        <time>2019-05-31T11:19:35Z</time>
      </trkpt>
      <trkpt lat="44.11526" lon="3.18794">
        <ele>803</ele>
        <time>2019-05-31T11:19:38Z</time>
      </trkpt>
      <trkpt lat="44.11524" lon="3.18798">
        <ele>803.5</ele>
        <time>2019-05-31T11:19:40Z</time>
      </trkpt>
      <trkpt lat="44.11521" lon="3.18801">
        <ele>803.9</ele>
        <time>2019-05-31T11:19:41Z</time>
      </trkpt>
      <trkpt lat="44.11515" lon="3.18806">
        <ele>804.8</ele>
        <time>2019-05-31T11:19:42Z</time>
      </trkpt>
      <trkpt lat="44.11505" lon="3.18806">
        <ele>805.8</ele>
        <time>2019-05-31T11:19:43Z</time>
      </trkpt>
      <trkpt lat="44.11499" lon="3.18808">
        <ele>806.5</ele>
        <time>2019-05-31T11:19:45Z</time>
      </trkpt>
      <trkpt lat="44.11495" lon="3.1881">
        <ele>807.1</ele>
        <time>2019-05-31T11:19:46Z</time>
      </trkpt>
      <trkpt lat="44.11491" lon="3.18811">
        <ele>807.9</ele>
        <time>2019-05-31T11:19:47Z</time>
      </trkpt>
      <trkpt lat="44.11487" lon="3.18811">
        <ele>808.4</ele>
        <time>2019-05-31T11:19:48Z</time>
      </trkpt>
      <trkpt lat="44.11484" lon="3.18814">
        <ele>809</ele>
        <time>2019-05-31T11:19:50Z</time>
      </trkpt>
      <trkpt lat="44.11482" lon="3.18822">
        <ele>809.9</ele>
        <time>2019-05-31T11:19:51Z</time>
      </trkpt>
      <trkpt lat="44.1148" lon="3.18825">
        <ele>810.5</ele>
        <time>2019-05-31T11:19:52Z</time>
      </trkpt>
      <trkpt lat="44.11481" lon="3.1883">
        <ele>811</ele>
        <time>2019-05-31T11:19:53Z</time>
      </trkpt>
      <trkpt lat="44.11477" lon="3.18834">
        <ele>811.5</ele>
        <time>2019-05-31T11:19:54Z</time>
      </trkpt>
      <trkpt lat="44.11475" lon="3.18838">
        <ele>811.8</ele>
        <time>2019-05-31T11:19:55Z</time>
      </trkpt>
      <trkpt lat="44.11472" lon="3.18841">
        <ele>812</ele>
        <time>2019-05-31T11:19:57Z</time>
      </trkpt>
      <trkpt lat="44.11469" lon="3.18843">
        <ele>812.1</ele>
        <time>2019-05-31T11:19:58Z</time>
      </trkpt>
      <trkpt lat="44.11466" lon="3.18845">
        <ele>812.1</ele>
        <time>2019-05-31T11:19:59Z</time>
      </trkpt>
      <trkpt lat="44.11461" lon="3.18848">
        <ele>812</ele>
        <time>2019-05-31T11:20:00Z</time>
      </trkpt>
      <trkpt lat="44.11458" lon="3.1885">
        <ele>811.8</ele>
        <time>2019-05-31T11:20:01Z</time>
      </trkpt>
      <trkpt lat="44.11454" lon="3.18852">
        <ele>811.4</ele>
        <time>2019-05-31T11:20:03Z</time>
      </trkpt>
      <trkpt lat="44.11452" lon="3.18854">
        <ele>811</ele>
        <time>2019-05-31T11:20:05Z</time>
      </trkpt>
      <trkpt lat="44.11453" lon="3.18857">
        <ele>810.5</ele>
        <time>2019-05-31T11:20:10Z</time>
      </trkpt>
      <trkpt lat="44.11453" lon="3.18862">
        <ele>809.8</ele>
        <time>2019-05-31T11:20:12Z</time>
      </trkpt>
      <trkpt lat="44.11452" lon="3.18866">
        <ele>809.2</ele>
        <time>2019-05-31T11:20:13Z</time>
      </trkpt>
      <trkpt lat="44.11449" lon="3.18871">
        <ele>808.1</ele>
        <time>2019-05-31T11:20:14Z</time>
      </trkpt>
      <trkpt lat="44.11447" lon="3.18876">
        <ele>806.9</ele>
        <time>2019-05-31T11:20:16Z</time>
      </trkpt>
      <trkpt lat="44.11445" lon="3.1888">
        <ele>806.2</ele>
        <time>2019-05-31T11:20:17Z</time>
      </trkpt>
      <trkpt lat="44.11444" lon="3.18884">
        <ele>805.4</ele>
        <time>2019-05-31T11:20:18Z</time>
      </trkpt>
      <trkpt lat="44.11443" lon="3.18888">
        <ele>804.7</ele>
        <time>2019-05-31T11:20:19Z</time>
      </trkpt>
      <trkpt lat="44.11443" lon="3.18893">
        <ele>804</ele>
        <time>2019-05-31T11:20:20Z</time>
      </trkpt>
      <trkpt lat="44.11442" lon="3.18896">
        <ele>803.3</ele>
        <time>2019-05-31T11:20:21Z</time>
      </trkpt>
      <trkpt lat="44.11443" lon="3.18901">
        <ele>802.4</ele>
        <time>2019-05-31T11:20:22Z</time>
      </trkpt>
      <trkpt lat="44.11445" lon="3.18904">
        <ele>801.5</ele>
        <time>2019-05-31T11:20:23Z</time>
      </trkpt>
      <trkpt lat="44.11447" lon="3.18908">
        <ele>801.2</ele>
        <time>2019-05-31T11:20:24Z</time>
      </trkpt>
      <trkpt lat="44.11449" lon="3.18912">
        <ele>801.7</ele>
        <time>2019-05-31T11:20:25Z</time>
      </trkpt>
      <trkpt lat="44.11453" lon="3.18916">
        <ele>802.2</ele>
        <time>2019-05-31T11:20:26Z</time>
      </trkpt>
      <trkpt lat="44.11456" lon="3.1892">
        <ele>802.7</ele>
        <time>2019-05-31T11:20:27Z</time>
      </trkpt>
      <trkpt lat="44.11459" lon="3.18923">
        <ele>803.1</ele>
        <time>2019-05-31T11:20:28Z</time>
      </trkpt>
      <trkpt lat="44.11463" lon="3.18924">
        <ele>803.5</ele>
        <time>2019-05-31T11:20:29Z</time>
      </trkpt>
      <trkpt lat="44.11466" lon="3.18926">
        <ele>803.8</ele>
        <time>2019-05-31T11:20:30Z</time>
      </trkpt>
      <trkpt lat="44.1147" lon="3.1893">
        <ele>804.1</ele>
        <time>2019-05-31T11:20:32Z</time>
      </trkpt>
      <trkpt lat="44.11471" lon="3.18933">
        <ele>804.3</ele>
        <time>2019-05-31T11:20:33Z</time>
      </trkpt>
      <trkpt lat="44.11472" lon="3.18937">
        <ele>804.4</ele>
        <time>2019-05-31T11:20:34Z</time>
      </trkpt>
      <trkpt lat="44.11473" lon="3.18941">
        <ele>804.5</ele>
        <time>2019-05-31T11:20:35Z</time>
      </trkpt>
      <trkpt lat="44.11474" lon="3.18945">
        <ele>804.6</ele>
        <time>2019-05-31T11:20:36Z</time>
      </trkpt>
      <trkpt lat="44.11475" lon="3.18949">
        <ele>804.6</ele>
        <time>2019-05-31T11:20:37Z</time>
      </trkpt>
      <trkpt lat="44.11477" lon="3.18952">
        <ele>804.7</ele>
        <time>2019-05-31T11:20:38Z</time>
      </trkpt>
      <trkpt lat="44.11481" lon="3.18957">
        <ele>804.8</ele>
        <time>2019-05-31T11:20:40Z</time>
      </trkpt>
      <trkpt lat="44.11483" lon="3.1896">
        <ele>804.8</ele>
        <time>2019-05-31T11:20:41Z</time>
      </trkpt>
      <trkpt lat="44.11485" lon="3.18963">
        <ele>804.8</ele>
        <time>2019-05-31T11:20:42Z</time>
      </trkpt>
      <trkpt lat="44.11485" lon="3.18969">
        <ele>804.8</ele>
        <time>2019-05-31T11:20:44Z</time>
      </trkpt>
      <trkpt lat="44.11483" lon="3.18973">
        <ele>804.7</ele>
        <time>2019-05-31T11:20:46Z</time>
      </trkpt>
      <trkpt lat="44.1148" lon="3.18975">
        <ele>804.7</ele>
        <time>2019-05-31T11:20:47Z</time>
      </trkpt>
      <trkpt lat="44.11479" lon="3.1898">
        <ele>804.6</ele>
        <time>2019-05-31T11:20:49Z</time>
      </trkpt>
      <trkpt lat="44.11481" lon="3.18986">
        <ele>804.5</ele>
        <time>2019-05-31T11:20:51Z</time>
      </trkpt>
      <trkpt lat="44.11483" lon="3.18989">
        <ele>804.4</ele>
        <time>2019-05-31T11:20:52Z</time>
      </trkpt>
      <trkpt lat="44.11486" lon="3.18995">
        <ele>804.3</ele>
        <time>2019-05-31T11:20:54Z</time>
      </trkpt>
      <trkpt lat="44.11487" lon="3.18999">
        <ele>804.2</ele>
        <time>2019-05-31T11:20:55Z</time>
      </trkpt>
      <trkpt lat="44.11489" lon="3.19004">
        <ele>804.1</ele>
        <time>2019-05-31T11:20:57Z</time>
      </trkpt>
      <trkpt lat="44.11489" lon="3.1901">
        <ele>803.9</ele>
        <time>2019-05-31T11:20:59Z</time>
      </trkpt>
      <trkpt lat="44.11487" lon="3.19017">
        <ele>803.7</ele>
        <time>2019-05-31T11:21:01Z</time>
      </trkpt>
      <trkpt lat="44.11485" lon="3.1902">
        <ele>803.6</ele>
        <time>2019-05-31T11:21:02Z</time>
      </trkpt>
      <trkpt lat="44.11482" lon="3.19026">
        <ele>803.3</ele>
        <time>2019-05-31T11:21:04Z</time>
      </trkpt>
      <trkpt lat="44.1148" lon="3.19029">
        <ele>803.2</ele>
        <time>2019-05-31T11:21:05Z</time>
      </trkpt>
      <trkpt lat="44.11478" lon="3.19031">
        <ele>803</ele>
        <time>2019-05-31T11:21:06Z</time>
      </trkpt>
      <trkpt lat="44.11473" lon="3.19033">
        <ele>802.6</ele>
        <time>2019-05-31T11:21:08Z</time>
      </trkpt>
      <trkpt lat="44.1147" lon="3.19034">
        <ele>802.4</ele>
        <time>2019-05-31T11:21:09Z</time>
      </trkpt>
      <trkpt lat="44.11467" lon="3.19036">
        <ele>802.1</ele>
        <time>2019-05-31T11:21:10Z</time>
      </trkpt>
      <trkpt lat="44.11464" lon="3.19038">
        <ele>801.9</ele>
        <time>2019-05-31T11:21:11Z</time>
      </trkpt>
      <trkpt lat="44.1146" lon="3.1904">
        <ele>801.5</ele>
        <time>2019-05-31T11:21:12Z</time>
      </trkpt>
      <trkpt lat="44.11456" lon="3.19042">
        <ele>801.1</ele>
        <time>2019-05-31T11:21:13Z</time>
      </trkpt>
      <trkpt lat="44.11453" lon="3.19044">
        <ele>800.8</ele>
        <time>2019-05-31T11:21:14Z</time>
      </trkpt>
      <trkpt lat="44.11451" lon="3.19049">
        <ele>800.4</ele>
        <time>2019-05-31T11:21:16Z</time>
      </trkpt>
      <trkpt lat="44.11451" lon="3.19053">
        <ele>800.2</ele>
        <time>2019-05-31T11:21:18Z</time>
      </trkpt>
      <trkpt lat="44.11451" lon="3.19057">
        <ele>800</ele>
        <time>2019-05-31T11:21:20Z</time>
      </trkpt>
      <trkpt lat="44.11448" lon="3.1906">
        <ele>799.8</ele>
        <time>2019-05-31T11:21:22Z</time>
      </trkpt>
      <trkpt lat="44.11443" lon="3.19063">
        <ele>799.5</ele>
        <time>2019-05-31T11:21:24Z</time>
      </trkpt>
      <trkpt lat="44.1144" lon="3.19065">
        <ele>799.4</ele>
        <time>2019-05-31T11:21:25Z</time>
      </trkpt>
      <trkpt lat="44.11437" lon="3.19066">
        <ele>799.2</ele>
        <time>2019-05-31T11:21:27Z</time>
      </trkpt>
      <trkpt lat="44.11434" lon="3.19067">
        <ele>799.1</ele>
        <time>2019-05-31T11:21:29Z</time>
      </trkpt>
      <trkpt lat="44.1143" lon="3.1907">
        <ele>799</ele>
        <time>2019-05-31T11:21:31Z</time>
      </trkpt>
      <trkpt lat="44.11428" lon="3.19074">
        <ele>798.8</ele>
        <time>2019-05-31T11:21:34Z</time>
      </trkpt>
      <trkpt lat="44.11425" lon="3.19075">
        <ele>798.7</ele>
        <time>2019-05-31T11:21:38Z</time>
      </trkpt>
      <trkpt lat="44.11423" lon="3.19078">
        <ele>798.6</ele>
        <time>2019-05-31T11:21:42Z</time>
      </trkpt>
      <trkpt lat="44.11421" lon="3.19082">
        <ele>798.5</ele>
        <time>2019-05-31T11:21:47Z</time>
      </trkpt>
      <trkpt lat="44.11421" lon="3.19086">
        <ele>798.4</ele>
        <time>2019-05-31T11:21:50Z</time>
      </trkpt>
      <trkpt lat="44.1142" lon="3.19089">
        <ele>798.3</ele>
        <time>2019-05-31T11:21:52Z</time>
      </trkpt>
      <trkpt lat="44.11419" lon="3.19094">
        <ele>798.3</ele>
        <time>2019-05-31T11:21:54Z</time>
      </trkpt>
      <trkpt lat="44.11418" lon="3.19097">
        <ele>798.2</ele>
        <time>2019-05-31T11:21:56Z</time>
      </trkpt>
      <trkpt lat="44.11416" lon="3.19105">
        <ele>798.1</ele>
        <time>2019-05-31T11:22:07Z</time>
      </trkpt>
      <trkpt lat="44.11417" lon="3.1911">
        <ele>798</ele>
        <time>2019-05-31T11:22:09Z</time>
      </trkpt>
      <trkpt lat="44.11418" lon="3.19114">
        <ele>798</ele>
        <time>2019-05-31T11:22:10Z</time>
      </trkpt>
      <trkpt lat="44.11419" lon="3.19119">
        <ele>797.9</ele>
        <time>2019-05-31T11:22:11Z</time>
      </trkpt>
      <trkpt lat="44.1142" lon="3.19124">
        <ele>797.7</ele>
        <time>2019-05-31T11:22:12Z</time>
      </trkpt>
      <trkpt lat="44.11419" lon="3.19129">
        <ele>797.6</ele>
        <time>2019-05-31T11:22:13Z</time>
      </trkpt>
      <trkpt lat="44.11417" lon="3.19135">
        <ele>797.3</ele>
        <time>2019-05-31T11:22:14Z</time>
      </trkpt>
      <trkpt lat="44.11415" lon="3.19139">
        <ele>797.1</ele>
        <time>2019-05-31T11:22:15Z</time>
      </trkpt>
      <trkpt lat="44.11412" lon="3.19142">
        <ele>797</ele>
        <time>2019-05-31T11:22:16Z</time>
      </trkpt>
      <trkpt lat="44.11407" lon="3.19144">
        <ele>796.7</ele>
        <time>2019-05-31T11:22:18Z</time>
      </trkpt>
      <trkpt lat="44.11402" lon="3.19142">
        <ele>796.4</ele>
        <time>2019-05-31T11:22:20Z</time>
      </trkpt>
      <trkpt lat="44.114" lon="3.19141">
        <ele>796.3</ele>
        <time>2019-05-31T11:22:21Z</time>
      </trkpt>
      <trkpt lat="44.11394" lon="3.19141">
        <ele>796</ele>
        <time>2019-05-31T11:22:23Z</time>
      </trkpt>
      <trkpt lat="44.11391" lon="3.19143">
        <ele>795.9</ele>
        <time>2019-05-31T11:22:24Z</time>
      </trkpt>
      <trkpt lat="44.11388" lon="3.19145">
        <ele>795.6</ele>
        <time>2019-05-31T11:22:26Z</time>
      </trkpt>
      <trkpt lat="44.11385" lon="3.19146">
        <ele>795.5</ele>
        <time>2019-05-31T11:22:28Z</time>
      </trkpt>
      <trkpt lat="44.11378" lon="3.19148">
        <ele>795.1</ele>
        <time>2019-05-31T11:23:14Z</time>
      </trkpt>
      <trkpt lat="44.11376" lon="3.19151">
        <ele>795</ele>
        <time>2019-05-31T11:23:17Z</time>
      </trkpt>
      <trkpt lat="44.11374" lon="3.19154">
        <ele>794.9</ele>
        <time>2019-05-31T11:23:21Z</time>
      </trkpt>
      <trkpt lat="44.1137" lon="3.19157">
        <ele>794.9</ele>
        <time>2019-05-31T11:23:23Z</time>
      </trkpt>
      <trkpt lat="44.11368" lon="3.19159">
        <ele>794.9</ele>
        <time>2019-05-31T11:23:24Z</time>
      </trkpt>
      <trkpt lat="44.11364" lon="3.19163">
        <ele>795.1</ele>
        <time>2019-05-31T11:23:26Z</time>
      </trkpt>
      <trkpt lat="44.11361" lon="3.19165">
        <ele>795.3</ele>
        <time>2019-05-31T11:23:27Z</time>
      </trkpt>
      <trkpt lat="44.11357" lon="3.19166">
        <ele>795.7</ele>
        <time>2019-05-31T11:23:29Z</time>
      </trkpt>
      <trkpt lat="44.11354" lon="3.19167">
        <ele>796</ele>
        <time>2019-05-31T11:23:31Z</time>
      </trkpt>
      <trkpt lat="44.1135" lon="3.19173">
        <ele>796.7</ele>
        <time>2019-05-31T11:23:43Z</time>
      </trkpt>
      <trkpt lat="44.11348" lon="3.19177">
        <ele>797</ele>
        <time>2019-05-31T11:23:44Z</time>
      </trkpt>
      <trkpt lat="44.11346" lon="3.1918">
        <ele>797.2</ele>
        <time>2019-05-31T11:23:45Z</time>
      </trkpt>
      <trkpt lat="44.11345" lon="3.19184">
        <ele>797.3</ele>
        <time>2019-05-31T11:23:46Z</time>
      </trkpt>
      <trkpt lat="44.11342" lon="3.1919">
        <ele>797.4</ele>
        <time>2019-05-31T11:23:48Z</time>
      </trkpt>
      <trkpt lat="44.11338" lon="3.19194">
        <ele>797.5</ele>
        <time>2019-05-31T11:23:50Z</time>
      </trkpt>
      <trkpt lat="44.11334" lon="3.19195">
        <ele>797.4</ele>
        <time>2019-05-31T11:23:52Z</time>
      </trkpt>
      <trkpt lat="44.11331" lon="3.19198">
        <ele>797.1</ele>
        <time>2019-05-31T11:24:11Z</time>
      </trkpt>
      <trkpt lat="44.11328" lon="3.192">
        <ele>796.8</ele>
        <time>2019-05-31T11:24:12Z</time>
      </trkpt>
      <trkpt lat="44.11326" lon="3.19202">
        <ele>796.5</ele>
        <time>2019-05-31T11:24:13Z</time>
      </trkpt>
      <trkpt lat="44.11323" lon="3.19204">
        <ele>796</ele>
        <time>2019-05-31T11:24:15Z</time>
      </trkpt>
      <trkpt lat="44.1132" lon="3.19208">
        <ele>795.2</ele>
        <time>2019-05-31T11:24:17Z</time>
      </trkpt>
      <trkpt lat="44.11318" lon="3.19211">
        <ele>794.7</ele>
        <time>2019-05-31T11:24:18Z</time>
      </trkpt>
      <trkpt lat="44.11315" lon="3.19214">
        <ele>794.1</ele>
        <time>2019-05-31T11:24:19Z</time>
      </trkpt>
      <trkpt lat="44.11311" lon="3.19217">
        <ele>793.4</ele>
        <time>2019-05-31T11:24:20Z</time>
      </trkpt>
      <trkpt lat="44.11309" lon="3.19219">
        <ele>792.9</ele>
        <time>2019-05-31T11:24:21Z</time>
      </trkpt>
      <trkpt lat="44.11306" lon="3.19222">
        <ele>792.2</ele>
        <time>2019-05-31T11:24:23Z</time>
      </trkpt>
      <trkpt lat="44.11305" lon="3.19228">
        <ele>791.2</ele>
        <time>2019-05-31T11:24:25Z</time>
      </trkpt>
      <trkpt lat="44.11303" lon="3.19231">
        <ele>790.6</ele>
        <time>2019-05-31T11:24:26Z</time>
      </trkpt>
      <trkpt lat="44.11301" lon="3.19239">
        <ele>788.9</ele>
        <time>2019-05-31T11:24:28Z</time>
      </trkpt>
      <trkpt lat="44.11301" lon="3.19244">
        <ele>787.6</ele>
        <time>2019-05-31T11:24:29Z</time>
      </trkpt>
      <trkpt lat="44.11301" lon="3.19249">
        <ele>786.1</ele>
        <time>2019-05-31T11:24:30Z</time>
      </trkpt>
      <trkpt lat="44.11301" lon="3.19253">
        <ele>784.8</ele>
        <time>2019-05-31T11:24:31Z</time>
      </trkpt>
      <trkpt lat="44.11301" lon="3.1926">
        <ele>782.5</ele>
        <time>2019-05-31T11:24:33Z</time>
      </trkpt>
      <trkpt lat="44.11302" lon="3.19266">
        <ele>780.2</ele>
        <time>2019-05-31T11:24:35Z</time>
      </trkpt>
      <trkpt lat="44.11302" lon="3.19271">
        <ele>778.7</ele>
        <time>2019-05-31T11:24:36Z</time>
      </trkpt>
      <trkpt lat="44.11302" lon="3.19277">
        <ele>776.5</ele>
        <time>2019-05-31T11:24:37Z</time>
      </trkpt>
      <trkpt lat="44.11301" lon="3.19284">
        <ele>774.1</ele>
        <time>2019-05-31T11:24:38Z</time>
      </trkpt>
      <trkpt lat="44.11301" lon="3.19291">
        <ele>771.7</ele>
        <time>2019-05-31T11:24:39Z</time>
      </trkpt>
      <trkpt lat="44.11303" lon="3.19298">
        <ele>769.4</ele>
        <time>2019-05-31T11:24:40Z</time>
      </trkpt>
      <trkpt lat="44.11305" lon="3.19303">
        <ele>767.6</ele>
        <time>2019-05-31T11:24:41Z</time>
      </trkpt>
      <trkpt lat="44.11307" lon="3.19307">
        <ele>766.2</ele>
        <time>2019-05-31T11:24:42Z</time>
      </trkpt>
      <trkpt lat="44.1131" lon="3.19309">
        <ele>764.5</ele>
        <time>2019-05-31T11:24:44Z</time>
      </trkpt>
      <trkpt lat="44.11313" lon="3.1931">
        <ele>763.2</ele>
        <time>2019-05-31T11:24:46Z</time>
      </trkpt>
      <trkpt lat="44.11317" lon="3.19314">
        <ele>761.8</ele>
        <time>2019-05-31T11:24:48Z</time>
      </trkpt>
      <trkpt lat="44.11321" lon="3.19322">
        <ele>759.9</ele>
        <time>2019-05-31T11:24:50Z</time>
      </trkpt>
      <trkpt lat="44.11323" lon="3.19328">
        <ele>758.8</ele>
        <time>2019-05-31T11:24:51Z</time>
      </trkpt>
      <trkpt lat="44.11326" lon="3.19334">
        <ele>757.8</ele>
        <time>2019-05-31T11:24:52Z</time>
      </trkpt>
      <trkpt lat="44.11336" lon="3.1935">
        <ele>754.9</ele>
        <time>2019-05-31T11:24:53Z</time>
      </trkpt>
      <trkpt lat="44.11338" lon="3.1936">
        <ele>753.3</ele>
        <time>2019-05-31T11:24:54Z</time>
      </trkpt>
      <trkpt lat="44.11346" lon="3.19381">
        <ele>750.2</ele>
        <time>2019-05-31T11:24:55Z</time>
      </trkpt>
      <trkpt lat="44.11353" lon="3.19394">
        <ele>748.3</ele>
        <time>2019-05-31T11:24:56Z</time>
      </trkpt>
      <trkpt lat="44.11359" lon="3.1941">
        <ele>746.4</ele>
        <time>2019-05-31T11:24:57Z</time>
      </trkpt>
      <trkpt lat="44.11364" lon="3.19426">
        <ele>744.5</ele>
        <time>2019-05-31T11:24:58Z</time>
      </trkpt>
      <trkpt lat="44.11372" lon="3.19436">
        <ele>742.9</ele>
        <time>2019-05-31T11:24:59Z</time>
      </trkpt>
      <trkpt lat="44.11378" lon="3.19451">
        <ele>741.2</ele>
        <time>2019-05-31T11:25:00Z</time>
      </trkpt>
      <trkpt lat="44.11383" lon="3.19464">
        <ele>739.8</ele>
        <time>2019-05-31T11:25:01Z</time>
      </trkpt>
      <trkpt lat="44.11384" lon="3.19471">
        <ele>739.1</ele>
        <time>2019-05-31T11:25:02Z</time>
      </trkpt>
      <trkpt lat="44.11376" lon="3.1947">
        <ele>738.4</ele>
        <time>2019-05-31T11:25:03Z</time>
      </trkpt>
      <trkpt lat="44.11374" lon="3.19475">
        <ele>738.2</ele>
        <time>2019-05-31T11:25:04Z</time>
      </trkpt>
      <trkpt lat="44.11371" lon="3.19481">
        <ele>738.1</ele>
        <time>2019-05-31T11:25:05Z</time>
      </trkpt>
      <trkpt lat="44.11371" lon="3.19492">
        <ele>737.9</ele>
        <time>2019-05-31T11:25:06Z</time>
      </trkpt>
      <trkpt lat="44.11368" lon="3.19497">
        <ele>737.9</ele>
        <time>2019-05-31T11:25:07Z</time>
      </trkpt>
      <trkpt lat="44.11365" lon="3.19504">
        <ele>737.9</ele>
        <time>2019-05-31T11:25:08Z</time>
      </trkpt>
      <trkpt lat="44.11363" lon="3.19511">
        <ele>738</ele>
        <time>2019-05-31T11:25:09Z</time>
      </trkpt>
      <trkpt lat="44.11363" lon="3.19518">
        <ele>738.1</ele>
        <time>2019-05-31T11:25:10Z</time>
      </trkpt>
      <trkpt lat="44.11362" lon="3.19525">
        <ele>738.3</ele>
        <time>2019-05-31T11:25:11Z</time>
      </trkpt>
      <trkpt lat="44.11359" lon="3.19535">
        <ele>738.6</ele>
        <time>2019-05-31T11:25:12Z</time>
      </trkpt>
      <trkpt lat="44.11358" lon="3.19543">
        <ele>738.9</ele>
        <time>2019-05-31T11:25:13Z</time>
      </trkpt>
      <trkpt lat="44.11362" lon="3.19549">
        <ele>739.3</ele>
        <time>2019-05-31T11:25:14Z</time>
      </trkpt>
      <trkpt lat="44.11361" lon="3.19555">
        <ele>739.5</ele>
        <time>2019-05-31T11:25:15Z</time>
      </trkpt>
      <trkpt lat="44.11359" lon="3.1956">
        <ele>739.7</ele>
        <time>2019-05-31T11:25:16Z</time>
      </trkpt>
      <trkpt lat="44.1136" lon="3.19567">
        <ele>739.8</ele>
        <time>2019-05-31T11:25:17Z</time>
      </trkpt>
      <trkpt lat="44.11359" lon="3.19572">
        <ele>739.9</ele>
        <time>2019-05-31T11:25:18Z</time>
      </trkpt>
      <trkpt lat="44.11359" lon="3.19578">
        <ele>740</ele>
        <time>2019-05-31T11:25:19Z</time>
      </trkpt>
      <trkpt lat="44.11356" lon="3.19585">
        <ele>740</ele>
        <time>2019-05-31T11:25:21Z</time>
      </trkpt>
      <trkpt lat="44.11356" lon="3.1959">
        <ele>740</ele>
        <time>2019-05-31T11:25:22Z</time>
      </trkpt>
      <trkpt lat="44.11354" lon="3.19595">
        <ele>740</ele>
        <time>2019-05-31T11:25:23Z</time>
      </trkpt>
      <trkpt lat="44.11352" lon="3.196">
        <ele>740</ele>
        <time>2019-05-31T11:25:24Z</time>
      </trkpt>
      <trkpt lat="44.1135" lon="3.19604">
        <ele>740</ele>
        <time>2019-05-31T11:25:25Z</time>
      </trkpt>
      <trkpt lat="44.11348" lon="3.19608">
        <ele>739.9</ele>
        <time>2019-05-31T11:25:26Z</time>
      </trkpt>
      <trkpt lat="44.11347" lon="3.19613">
        <ele>739.9</ele>
        <time>2019-05-31T11:25:27Z</time>
      </trkpt>
      <trkpt lat="44.11346" lon="3.19618">
        <ele>739.9</ele>
        <time>2019-05-31T11:25:28Z</time>
      </trkpt>
      <trkpt lat="44.11344" lon="3.19622">
        <ele>739.8</ele>
        <time>2019-05-31T11:25:29Z</time>
      </trkpt>
      <trkpt lat="44.11343" lon="3.19627">
        <ele>739.7</ele>
        <time>2019-05-31T11:25:30Z</time>
      </trkpt>
      <trkpt lat="44.11341" lon="3.19633">
        <ele>739.5</ele>
        <time>2019-05-31T11:25:31Z</time>
      </trkpt>
      <trkpt lat="44.11339" lon="3.19638">
        <ele>739.3</ele>
        <time>2019-05-31T11:25:32Z</time>
      </trkpt>
      <trkpt lat="44.11338" lon="3.19644">
        <ele>739</ele>
        <time>2019-05-31T11:25:33Z</time>
      </trkpt>
      <trkpt lat="44.11338" lon="3.19652">
        <ele>738.7</ele>
        <time>2019-05-31T11:25:34Z</time>
      </trkpt>
      <trkpt lat="44.11339" lon="3.1966">
        <ele>738.5</ele>
        <time>2019-05-31T11:25:35Z</time>
      </trkpt>
      <trkpt lat="44.1134" lon="3.19667">
        <ele>738.2</ele>
        <time>2019-05-31T11:25:36Z</time>
      </trkpt>
      <trkpt lat="44.1134" lon="3.19674">
        <ele>738</ele>
        <time>2019-05-31T11:25:37Z</time>
      </trkpt>
      <trkpt lat="44.1134" lon="3.19681">
        <ele>737.8</ele>
        <time>2019-05-31T11:25:38Z</time>
      </trkpt>
      <trkpt lat="44.11339" lon="3.19687">
        <ele>737.5</ele>
        <time>2019-05-31T11:25:39Z</time>
      </trkpt>
      <trkpt lat="44.11338" lon="3.19692">
        <ele>737.3</ele>
        <time>2019-05-31T11:25:40Z</time>
      </trkpt>
      <trkpt lat="44.11337" lon="3.19698">
        <ele>737.1</ele>
        <time>2019-05-31T11:25:41Z</time>
      </trkpt>
      <trkpt lat="44.11336" lon="3.19704">
        <ele>736.9</ele>
        <time>2019-05-31T11:25:42Z</time>
      </trkpt>
      <trkpt lat="44.11334" lon="3.19711">
        <ele>736.4</ele>
        <time>2019-05-31T11:25:43Z</time>
      </trkpt>
      <trkpt lat="44.1133" lon="3.19725">
        <ele>735.7</ele>
        <time>2019-05-31T11:25:44Z</time>
      </trkpt>
      <trkpt lat="44.1133" lon="3.19732">
        <ele>735.4</ele>
        <time>2019-05-31T11:25:45Z</time>
      </trkpt>
      <trkpt lat="44.11328" lon="3.19736">
        <ele>735.2</ele>
        <time>2019-05-31T11:25:46Z</time>
      </trkpt>
      <trkpt lat="44.11327" lon="3.19741">
        <ele>735</ele>
        <time>2019-05-31T11:25:47Z</time>
      </trkpt>
      <trkpt lat="44.11327" lon="3.19744">
        <ele>734.7</ele>
        <time>2019-05-31T11:25:48Z</time>
      </trkpt>
      <trkpt lat="44.11326" lon="3.1975">
        <ele>734.2</ele>
        <time>2019-05-31T11:25:49Z</time>
      </trkpt>
      <trkpt lat="44.11326" lon="3.19758">
        <ele>733.8</ele>
        <time>2019-05-31T11:25:50Z</time>
      </trkpt>
      <trkpt lat="44.11326" lon="3.19765">
        <ele>733.3</ele>
        <time>2019-05-31T11:25:51Z</time>
      </trkpt>
      <trkpt lat="44.11326" lon="3.19771">
        <ele>732.9</ele>
        <time>2019-05-31T11:25:52Z</time>
      </trkpt>
      <trkpt lat="44.11323" lon="3.19777">
        <ele>732.2</ele>
        <time>2019-05-31T11:25:53Z</time>
      </trkpt>
      <trkpt lat="44.1132" lon="3.19784">
        <ele>731.5</ele>
        <time>2019-05-31T11:25:54Z</time>
      </trkpt>
      <trkpt lat="44.11316" lon="3.19789">
        <ele>731</ele>
        <time>2019-05-31T11:25:55Z</time>
      </trkpt>
      <trkpt lat="44.11315" lon="3.19799">
        <ele>730.4</ele>
        <time>2019-05-31T11:25:56Z</time>
      </trkpt>
      <trkpt lat="44.11315" lon="3.19807">
        <ele>729.8</ele>
        <time>2019-05-31T11:25:57Z</time>
      </trkpt>
      <trkpt lat="44.11316" lon="3.19812">
        <ele>729.4</ele>
        <time>2019-05-31T11:25:58Z</time>
      </trkpt>
      <trkpt lat="44.11316" lon="3.19817">
        <ele>728.9</ele>
        <time>2019-05-31T11:25:59Z</time>
      </trkpt>
      <trkpt lat="44.11317" lon="3.19824">
        <ele>728.3</ele>
        <time>2019-05-31T11:26:00Z</time>
      </trkpt>
      <trkpt lat="44.1132" lon="3.19833">
        <ele>727.9</ele>
        <time>2019-05-31T11:26:01Z</time>
      </trkpt>
      <trkpt lat="44.11323" lon="3.19839">
        <ele>727.7</ele>
        <time>2019-05-31T11:26:02Z</time>
      </trkpt>
      <trkpt lat="44.11327" lon="3.19843">
        <ele>727.4</ele>
        <time>2019-05-31T11:26:03Z</time>
      </trkpt>
      <trkpt lat="44.11329" lon="3.1985">
        <ele>727.1</ele>
        <time>2019-05-31T11:26:04Z</time>
      </trkpt>
      <trkpt lat="44.11332" lon="3.19854">
        <ele>726.9</ele>
        <time>2019-05-31T11:26:05Z</time>
      </trkpt>
      <trkpt lat="44.11335" lon="3.19858">
        <ele>726.9</ele>
        <time>2019-05-31T11:26:06Z</time>
      </trkpt>
      <trkpt lat="44.11337" lon="3.19861">
        <ele>726.8</ele>
        <time>2019-05-31T11:26:07Z</time>
      </trkpt>
      <trkpt lat="44.11339" lon="3.19864">
        <ele>726.7</ele>
        <time>2019-05-31T11:26:08Z</time>
      </trkpt>
      <trkpt lat="44.11342" lon="3.19867">
        <ele>726.6</ele>
        <time>2019-05-31T11:26:09Z</time>
      </trkpt>
      <trkpt lat="44.11344" lon="3.19871">
        <ele>726.5</ele>
        <time>2019-05-31T11:26:10Z</time>
      </trkpt>
      <trkpt lat="44.11348" lon="3.19874">
        <ele>726.4</ele>
        <time>2019-05-31T11:26:11Z</time>
      </trkpt>
      <trkpt lat="44.11351" lon="3.19877">
        <ele>726.3</ele>
        <time>2019-05-31T11:26:12Z</time>
      </trkpt>
      <trkpt lat="44.11354" lon="3.19879">
        <ele>726.2</ele>
        <time>2019-05-31T11:26:13Z</time>
      </trkpt>
      <trkpt lat="44.11357" lon="3.19882">
        <ele>726.2</ele>
        <time>2019-05-31T11:26:14Z</time>
      </trkpt>
      <trkpt lat="44.11361" lon="3.19884">
        <ele>726.1</ele>
        <time>2019-05-31T11:26:15Z</time>
      </trkpt>
      <trkpt lat="44.11364" lon="3.19886">
        <ele>726</ele>
        <time>2019-05-31T11:26:16Z</time>
      </trkpt>
      <trkpt lat="44.11368" lon="3.19888">
        <ele>725.9</ele>
        <time>2019-05-31T11:26:17Z</time>
      </trkpt>
      <trkpt lat="44.11372" lon="3.1989">
        <ele>725.9</ele>
        <time>2019-05-31T11:26:18Z</time>
      </trkpt>
      <trkpt lat="44.11375" lon="3.19892">
        <ele>725.9</ele>
        <time>2019-05-31T11:26:19Z</time>
      </trkpt>
      <trkpt lat="44.11378" lon="3.19895">
        <ele>725.9</ele>
        <time>2019-05-31T11:26:20Z</time>
      </trkpt>
      <trkpt lat="44.11381" lon="3.19898">
        <ele>725.9</ele>
        <time>2019-05-31T11:26:21Z</time>
      </trkpt>
      <trkpt lat="44.11384" lon="3.19901">
        <ele>725.8</ele>
        <time>2019-05-31T11:26:22Z</time>
      </trkpt>
      <trkpt lat="44.11388" lon="3.19902">
        <ele>725.8</ele>
        <time>2019-05-31T11:26:23Z</time>
      </trkpt>
      <trkpt lat="44.11391" lon="3.19903">
        <ele>725.8</ele>
        <time>2019-05-31T11:26:24Z</time>
      </trkpt>
      <trkpt lat="44.11394" lon="3.19904">
        <ele>725.8</ele>
        <time>2019-05-31T11:26:25Z</time>
      </trkpt>
      <trkpt lat="44.11398" lon="3.19905">
        <ele>725.8</ele>
        <time>2019-05-31T11:26:27Z</time>
      </trkpt>
      <trkpt lat="44.11401" lon="3.19908">
        <ele>725.8</ele>
        <time>2019-05-31T11:26:28Z</time>
      </trkpt>
      <trkpt lat="44.11404" lon="3.19912">
        <ele>725.7</ele>
        <time>2019-05-31T11:26:29Z</time>
      </trkpt>
      <trkpt lat="44.11407" lon="3.19916">
        <ele>725.6</ele>
        <time>2019-05-31T11:26:30Z</time>
      </trkpt>
      <trkpt lat="44.1141" lon="3.1992">
        <ele>725.5</ele>
        <time>2019-05-31T11:26:31Z</time>
      </trkpt>
      <trkpt lat="44.11412" lon="3.19925">
        <ele>725.3</ele>
        <time>2019-05-31T11:26:32Z</time>
      </trkpt>
      <trkpt lat="44.11415" lon="3.19929">
        <ele>725.2</ele>
        <time>2019-05-31T11:26:33Z</time>
      </trkpt>
      <trkpt lat="44.11417" lon="3.19934">
        <ele>725</ele>
        <time>2019-05-31T11:26:34Z</time>
      </trkpt>
      <trkpt lat="44.1142" lon="3.19938">
        <ele>724.8</ele>
        <time>2019-05-31T11:26:35Z</time>
      </trkpt>
      <trkpt lat="44.11421" lon="3.19944">
        <ele>724.5</ele>
        <time>2019-05-31T11:26:36Z</time>
      </trkpt>
      <trkpt lat="44.11422" lon="3.19949">
        <ele>724.3</ele>
        <time>2019-05-31T11:26:37Z</time>
      </trkpt>
      <trkpt lat="44.11422" lon="3.19955">
        <ele>724.1</ele>
        <time>2019-05-31T11:26:38Z</time>
      </trkpt>
      <trkpt lat="44.11423" lon="3.19961">
        <ele>723.9</ele>
        <time>2019-05-31T11:26:39Z</time>
      </trkpt>
      <trkpt lat="44.11428" lon="3.19967">
        <ele>723.5</ele>
        <time>2019-05-31T11:26:40Z</time>
      </trkpt>
      <trkpt lat="44.1143" lon="3.19974">
        <ele>723</ele>
        <time>2019-05-31T11:26:41Z</time>
      </trkpt>
      <trkpt lat="44.11431" lon="3.19979">
        <ele>722.6</ele>
        <time>2019-05-31T11:26:42Z</time>
      </trkpt>
      <trkpt lat="44.1143" lon="3.19986">
        <ele>722.3</ele>
        <time>2019-05-31T11:26:43Z</time>
      </trkpt>
      <trkpt lat="44.1143" lon="3.19991">
        <ele>722</ele>
        <time>2019-05-31T11:26:45Z</time>
      </trkpt>
      <trkpt lat="44.11426" lon="3.19991">
        <ele>721.6</ele>
        <time>2019-05-31T11:26:46Z</time>
      </trkpt>
      <trkpt lat="44.11423" lon="3.19991">
        <ele>721.4</ele>
        <time>2019-05-31T11:26:47Z</time>
      </trkpt>
      <trkpt lat="44.1142" lon="3.19994">
        <ele>721</ele>
        <time>2019-05-31T11:26:48Z</time>
      </trkpt>
      <trkpt lat="44.11414" lon="3.19994">
        <ele>720.4</ele>
        <time>2019-05-31T11:26:50Z</time>
      </trkpt>
      <trkpt lat="44.11407" lon="3.19998">
        <ele>719.7</ele>
        <time>2019-05-31T11:26:52Z</time>
      </trkpt>
      <trkpt lat="44.11402" lon="3.20003">
        <ele>719.3</ele>
        <time>2019-05-31T11:26:53Z</time>
      </trkpt>
      <trkpt lat="44.11399" lon="3.20008">
        <ele>718.8</ele>
        <time>2019-05-31T11:26:54Z</time>
      </trkpt>
      <trkpt lat="44.11392" lon="3.20016">
        <ele>717.7</ele>
        <time>2019-05-31T11:26:55Z</time>
      </trkpt>
      <trkpt lat="44.11386" lon="3.2002">
        <ele>717.1</ele>
        <time>2019-05-31T11:26:56Z</time>
      </trkpt>
      <trkpt lat="44.11381" lon="3.20026">
        <ele>716.3</ele>
        <time>2019-05-31T11:26:57Z</time>
      </trkpt>
      <trkpt lat="44.11376" lon="3.2003">
        <ele>715.7</ele>
        <time>2019-05-31T11:26:58Z</time>
      </trkpt>
      <trkpt lat="44.11368" lon="3.20038">
        <ele>714.5</ele>
        <time>2019-05-31T11:26:59Z</time>
      </trkpt>
      <trkpt lat="44.11363" lon="3.20046">
        <ele>713.6</ele>
        <time>2019-05-31T11:27:00Z</time>
      </trkpt>
      <trkpt lat="44.11358" lon="3.20055">
        <ele>712.7</ele>
        <time>2019-05-31T11:27:01Z</time>
      </trkpt>
      <trkpt lat="44.11352" lon="3.20064">
        <ele>711.6</ele>
        <time>2019-05-31T11:27:02Z</time>
      </trkpt>
      <trkpt lat="44.11344" lon="3.20075">
        <ele>710.2</ele>
        <time>2019-05-31T11:27:03Z</time>
      </trkpt>
      <trkpt lat="44.1134" lon="3.2008">
        <ele>709.5</ele>
        <time>2019-05-31T11:27:04Z</time>
      </trkpt>
      <trkpt lat="44.11335" lon="3.20087">
        <ele>708.6</ele>
        <time>2019-05-31T11:27:05Z</time>
      </trkpt>
      <trkpt lat="44.11327" lon="3.20096">
        <ele>707.3</ele>
        <time>2019-05-31T11:27:06Z</time>
      </trkpt>
      <trkpt lat="44.11323" lon="3.20105">
        <ele>706.3</ele>
        <time>2019-05-31T11:27:07Z</time>
      </trkpt>
      <trkpt lat="44.11315" lon="3.20114">
        <ele>705.2</ele>
        <time>2019-05-31T11:27:08Z</time>
      </trkpt>
      <trkpt lat="44.11309" lon="3.20122">
        <ele>704.2</ele>
        <time>2019-05-31T11:27:09Z</time>
      </trkpt>
      <trkpt lat="44.11302" lon="3.20135">
        <ele>702.8</ele>
        <time>2019-05-31T11:27:10Z</time>
      </trkpt>
      <trkpt lat="44.11295" lon="3.2015">
        <ele>701.4</ele>
        <time>2019-05-31T11:27:11Z</time>
      </trkpt>
      <trkpt lat="44.11288" lon="3.2016">
        <ele>700.1</ele>
        <time>2019-05-31T11:27:12Z</time>
      </trkpt>
      <trkpt lat="44.1128" lon="3.20166">
        <ele>698.6</ele>
        <time>2019-05-31T11:27:13Z</time>
      </trkpt>
      <trkpt lat="44.11273" lon="3.20177">
        <ele>696.9</ele>
        <time>2019-05-31T11:27:14Z</time>
      </trkpt>
      <trkpt lat="44.11268" lon="3.20178">
        <ele>696.2</ele>
        <time>2019-05-31T11:27:16Z</time>
      </trkpt>
      <trkpt lat="44.11266" lon="3.20174">
        <ele>695.7</ele>
        <time>2019-05-31T11:27:17Z</time>
      </trkpt>
      <trkpt lat="44.11264" lon="3.20172">
        <ele>695.2</ele>
        <time>2019-05-31T11:27:18Z</time>
      </trkpt>
      <trkpt lat="44.11262" lon="3.20168">
        <ele>694.5</ele>
        <time>2019-05-31T11:27:19Z</time>
      </trkpt>
      <trkpt lat="44.11258" lon="3.20167">
        <ele>693.8</ele>
        <time>2019-05-31T11:27:20Z</time>
      </trkpt>
      <trkpt lat="44.11255" lon="3.20166">
        <ele>693.2</ele>
        <time>2019-05-31T11:27:21Z</time>
      </trkpt>
      <trkpt lat="44.11252" lon="3.20165">
        <ele>692.4</ele>
        <time>2019-05-31T11:27:22Z</time>
      </trkpt>
      <trkpt lat="44.11247" lon="3.20164">
        <ele>691.4</ele>
        <time>2019-05-31T11:27:24Z</time>
      </trkpt>
      <trkpt lat="44.11243" lon="3.20164">
        <ele>690.6</ele>
        <time>2019-05-31T11:27:26Z</time>
      </trkpt>
      <trkpt lat="44.1124" lon="3.20164">
        <ele>690</ele>
        <time>2019-05-31T11:27:27Z</time>
      </trkpt>
      <trkpt lat="44.11236" lon="3.20163">
        <ele>689.2</ele>
        <time>2019-05-31T11:27:28Z</time>
      </trkpt>
      <trkpt lat="44.1123" lon="3.20164">
        <ele>688</ele>
        <time>2019-05-31T11:27:29Z</time>
      </trkpt>
      <trkpt lat="44.11225" lon="3.20161">
        <ele>686.9</ele>
        <time>2019-05-31T11:27:30Z</time>
      </trkpt>
      <trkpt lat="44.11219" lon="3.20155">
        <ele>685.6</ele>
        <time>2019-05-31T11:27:31Z</time>
      </trkpt>
      <trkpt lat="44.11213" lon="3.2015">
        <ele>684.3</ele>
        <time>2019-05-31T11:27:32Z</time>
      </trkpt>
      <trkpt lat="44.1122" lon="3.20146">
        <ele>682.9</ele>
        <time>2019-05-31T11:27:33Z</time>
      </trkpt>
      <trkpt lat="44.11223" lon="3.2014">
        <ele>681.7</ele>
        <time>2019-05-31T11:27:34Z</time>
      </trkpt>
      <trkpt lat="44.11224" lon="3.20134">
        <ele>680.8</ele>
        <time>2019-05-31T11:27:35Z</time>
      </trkpt>
      <trkpt lat="44.11226" lon="3.20128">
        <ele>679.8</ele>
        <time>2019-05-31T11:27:36Z</time>
      </trkpt>
      <trkpt lat="44.11216" lon="3.20127">
        <ele>677.6</ele>
        <time>2019-05-31T11:27:38Z</time>
      </trkpt>
      <trkpt lat="44.11207" lon="3.20126">
        <ele>675.8</ele>
        <time>2019-05-31T11:27:40Z</time>
      </trkpt>
      <trkpt lat="44.11202" lon="3.20122">
        <ele>674.4</ele>
        <time>2019-05-31T11:27:41Z</time>
      </trkpt>
      <trkpt lat="44.11191" lon="3.20118">
        <ele>672.7</ele>
        <time>2019-05-31T11:27:42Z</time>
      </trkpt>
      <trkpt lat="44.11185" lon="3.20115">
        <ele>671.6</ele>
        <time>2019-05-31T11:27:43Z</time>
      </trkpt>
      <trkpt lat="44.11177" lon="3.20112">
        <ele>670.3</ele>
        <time>2019-05-31T11:27:44Z</time>
      </trkpt>
      <trkpt lat="44.11171" lon="3.2011">
        <ele>669.2</ele>
        <time>2019-05-31T11:27:45Z</time>
      </trkpt>
      <trkpt lat="44.11163" lon="3.20112">
        <ele>668.2</ele>
        <time>2019-05-31T11:27:46Z</time>
      </trkpt>
      <trkpt lat="44.11159" lon="3.20119">
        <ele>667.5</ele>
        <time>2019-05-31T11:27:47Z</time>
      </trkpt>
      <trkpt lat="44.11155" lon="3.20126">
        <ele>667</ele>
        <time>2019-05-31T11:27:48Z</time>
      </trkpt>
      <trkpt lat="44.1115" lon="3.20128">
        <ele>666.5</ele>
        <time>2019-05-31T11:27:49Z</time>
      </trkpt>
      <trkpt lat="44.11146" lon="3.20132">
        <ele>666.1</ele>
        <time>2019-05-31T11:27:50Z</time>
      </trkpt>
      <trkpt lat="44.11142" lon="3.20135">
        <ele>665.7</ele>
        <time>2019-05-31T11:27:51Z</time>
      </trkpt>
      <trkpt lat="44.11137" lon="3.20138">
        <ele>665.2</ele>
        <time>2019-05-31T11:27:52Z</time>
      </trkpt>
      <trkpt lat="44.11132" lon="3.20141">
        <ele>664.7</ele>
        <time>2019-05-31T11:27:53Z</time>
      </trkpt>
      <trkpt lat="44.1112" lon="3.20151">
        <ele>663.2</ele>
        <time>2019-05-31T11:27:54Z</time>
      </trkpt>
      <trkpt lat="44.11117" lon="3.20157">
        <ele>662.7</ele>
        <time>2019-05-31T11:27:55Z</time>
      </trkpt>
      <trkpt lat="44.11116" lon="3.20165">
        <ele>662.3</ele>
        <time>2019-05-31T11:27:56Z</time>
      </trkpt>
      <trkpt lat="44.11113" lon="3.20175">
        <ele>661.8</ele>
        <time>2019-05-31T11:27:57Z</time>
      </trkpt>
      <trkpt lat="44.11107" lon="3.20182">
        <ele>661.6</ele>
        <time>2019-05-31T11:27:58Z</time>
      </trkpt>
      <trkpt lat="44.11105" lon="3.20191">
        <ele>661.4</ele>
        <time>2019-05-31T11:27:59Z</time>
      </trkpt>
      <trkpt lat="44.11102" lon="3.20198">
        <ele>661.2</ele>
        <time>2019-05-31T11:28:00Z</time>
      </trkpt>
      <trkpt lat="44.11105" lon="3.20206">
        <ele>661.2</ele>
        <time>2019-05-31T11:28:01Z</time>
      </trkpt>
      <trkpt lat="44.11108" lon="3.20213">
        <ele>661.1</ele>
        <time>2019-05-31T11:28:02Z</time>
      </trkpt>
      <trkpt lat="44.1111" lon="3.20218">
        <ele>661.1</ele>
        <time>2019-05-31T11:28:03Z</time>
      </trkpt>
      <trkpt lat="44.1111" lon="3.20224">
        <ele>661.1</ele>
        <time>2019-05-31T11:28:04Z</time>
      </trkpt>
      <trkpt lat="44.1111" lon="3.2023">
        <ele>661.1</ele>
        <time>2019-05-31T11:28:05Z</time>
      </trkpt>
      <trkpt lat="44.11111" lon="3.20236">
        <ele>661.2</ele>
        <time>2019-05-31T11:28:06Z</time>
      </trkpt>
      <trkpt lat="44.11113" lon="3.20243">
        <ele>661.3</ele>
        <time>2019-05-31T11:28:07Z</time>
      </trkpt>
      <trkpt lat="44.11114" lon="3.20251">
        <ele>661.4</ele>
        <time>2019-05-31T11:28:08Z</time>
      </trkpt>
      <trkpt lat="44.11115" lon="3.20257">
        <ele>661.5</ele>
        <time>2019-05-31T11:28:09Z</time>
      </trkpt>
      <trkpt lat="44.11116" lon="3.20264">
        <ele>661.7</ele>
        <time>2019-05-31T11:28:10Z</time>
      </trkpt>
      <trkpt lat="44.11116" lon="3.20272">
        <ele>661.9</ele>
        <time>2019-05-31T11:28:11Z</time>
      </trkpt>
      <trkpt lat="44.11117" lon="3.20279">
        <ele>662.1</ele>
        <time>2019-05-31T11:28:12Z</time>
      </trkpt>
      <trkpt lat="44.11118" lon="3.20286">
        <ele>662.3</ele>
        <time>2019-05-31T11:28:13Z</time>
      </trkpt>
      <trkpt lat="44.11119" lon="3.20291">
        <ele>662.4</ele>
        <time>2019-05-31T11:28:14Z</time>
      </trkpt>
      <trkpt lat="44.11119" lon="3.20296">
        <ele>662.5</ele>
        <time>2019-05-31T11:28:16Z</time>
      </trkpt>
      <trkpt lat="44.1112" lon="3.20304">
        <ele>662.7</ele>
        <time>2019-05-31T11:28:18Z</time>
      </trkpt>
      <trkpt lat="44.1112" lon="3.2031">
        <ele>662.9</ele>
        <time>2019-05-31T11:28:19Z</time>
      </trkpt>
      <trkpt lat="44.1112" lon="3.20316">
        <ele>663</ele>
        <time>2019-05-31T11:28:20Z</time>
      </trkpt>
      <trkpt lat="44.1112" lon="3.20323">
        <ele>663.2</ele>
        <time>2019-05-31T11:28:21Z</time>
      </trkpt>
      <trkpt lat="44.11119" lon="3.2033">
        <ele>663.3</ele>
        <time>2019-05-31T11:28:22Z</time>
      </trkpt>
      <trkpt lat="44.11119" lon="3.20337">
        <ele>663.4</ele>
        <time>2019-05-31T11:28:23Z</time>
      </trkpt>
      <trkpt lat="44.11117" lon="3.20343">
        <ele>663.5</ele>
        <time>2019-05-31T11:28:24Z</time>
      </trkpt>
      <trkpt lat="44.11116" lon="3.20348">
        <ele>663.6</ele>
        <time>2019-05-31T11:28:25Z</time>
      </trkpt>
      <trkpt lat="44.11115" lon="3.20353">
        <ele>663.6</ele>
        <time>2019-05-31T11:28:26Z</time>
      </trkpt>
      <trkpt lat="44.11113" lon="3.20357">
        <ele>663.6</ele>
        <time>2019-05-31T11:28:27Z</time>
      </trkpt>
      <trkpt lat="44.11111" lon="3.20362">
        <ele>663.7</ele>
        <time>2019-05-31T11:28:28Z</time>
      </trkpt>
      <trkpt lat="44.11109" lon="3.20366">
        <ele>663.7</ele>
        <time>2019-05-31T11:28:29Z</time>
      </trkpt>
      <trkpt lat="44.11106" lon="3.20373">
        <ele>663.7</ele>
        <time>2019-05-31T11:28:31Z</time>
      </trkpt>
      <trkpt lat="44.11102" lon="3.20378">
        <ele>663.7</ele>
        <time>2019-05-31T11:28:32Z</time>
      </trkpt>
      <trkpt lat="44.11101" lon="3.20385">
        <ele>663.7</ele>
        <time>2019-05-31T11:28:33Z</time>
      </trkpt>
      <trkpt lat="44.11099" lon="3.20391">
        <ele>663.7</ele>
        <time>2019-05-31T11:28:34Z</time>
      </trkpt>
      <trkpt lat="44.11097" lon="3.20399">
        <ele>663.7</ele>
        <time>2019-05-31T11:28:35Z</time>
      </trkpt>
      <trkpt lat="44.11095" lon="3.20405">
        <ele>663.7</ele>
        <time>2019-05-31T11:28:36Z</time>
      </trkpt>
      <trkpt lat="44.11092" lon="3.2041">
        <ele>663.7</ele>
        <time>2019-05-31T11:28:37Z</time>
      </trkpt>
      <trkpt lat="44.11089" lon="3.20414">
        <ele>663.7</ele>
        <time>2019-05-31T11:28:38Z</time>
      </trkpt>
      <trkpt lat="44.11087" lon="3.2042">
        <ele>663.7</ele>
        <time>2019-05-31T11:28:39Z</time>
      </trkpt>
      <trkpt lat="44.11084" lon="3.20427">
        <ele>663.7</ele>
        <time>2019-05-31T11:28:40Z</time>
      </trkpt>
      <trkpt lat="44.11082" lon="3.20434">
        <ele>663.7</ele>
        <time>2019-05-31T11:28:41Z</time>
      </trkpt>
      <trkpt lat="44.11082" lon="3.20441">
        <ele>663.7</ele>
        <time>2019-05-31T11:28:42Z</time>
      </trkpt>
      <trkpt lat="44.11081" lon="3.20449">
        <ele>663.7</ele>
        <time>2019-05-31T11:28:43Z</time>
      </trkpt>
      <trkpt lat="44.1108" lon="3.20455">
        <ele>663.7</ele>
        <time>2019-05-31T11:28:44Z</time>
      </trkpt>
      <trkpt lat="44.11077" lon="3.20461">
        <ele>663.7</ele>
        <time>2019-05-31T11:28:45Z</time>
      </trkpt>
      <trkpt lat="44.11074" lon="3.20466">
        <ele>663.8</ele>
        <time>2019-05-31T11:28:46Z</time>
      </trkpt>
      <trkpt lat="44.11073" lon="3.20471">
        <ele>663.8</ele>
        <time>2019-05-31T11:28:47Z</time>
      </trkpt>
      <trkpt lat="44.11071" lon="3.20475">
        <ele>663.8</ele>
        <time>2019-05-31T11:28:48Z</time>
      </trkpt>
      <trkpt lat="44.11069" lon="3.2048">
        <ele>663.8</ele>
        <time>2019-05-31T11:28:49Z</time>
      </trkpt>
      <trkpt lat="44.11067" lon="3.20485">
        <ele>663.8</ele>
        <time>2019-05-31T11:28:50Z</time>
      </trkpt>
      <trkpt lat="44.11066" lon="3.20491">
        <ele>663.8</ele>
        <time>2019-05-31T11:28:51Z</time>
      </trkpt>
      <trkpt lat="44.11065" lon="3.20497">
        <ele>663.9</ele>
        <time>2019-05-31T11:28:52Z</time>
      </trkpt>
      <trkpt lat="44.11064" lon="3.20501">
        <ele>663.8</ele>
        <time>2019-05-31T11:28:53Z</time>
      </trkpt>
      <trkpt lat="44.11062" lon="3.20508">
        <ele>663.8</ele>
        <time>2019-05-31T11:28:55Z</time>
      </trkpt>
      <trkpt lat="44.11058" lon="3.20513">
        <ele>663.8</ele>
        <time>2019-05-31T11:28:57Z</time>
      </trkpt>
      <trkpt lat="44.11055" lon="3.20517">
        <ele>663.8</ele>
        <time>2019-05-31T11:28:58Z</time>
      </trkpt>
      <trkpt lat="44.11051" lon="3.20522">
        <ele>663.7</ele>
        <time>2019-05-31T11:28:59Z</time>
      </trkpt>
      <trkpt lat="44.11047" lon="3.20527">
        <ele>663.6</ele>
        <time>2019-05-31T11:29:00Z</time>
      </trkpt>
      <trkpt lat="44.11044" lon="3.20531">
        <ele>663.6</ele>
        <time>2019-05-31T11:29:01Z</time>
      </trkpt>
      <trkpt lat="44.1104" lon="3.20535">
        <ele>663.5</ele>
        <time>2019-05-31T11:29:02Z</time>
      </trkpt>
      <trkpt lat="44.11037" lon="3.20538">
        <ele>663.4</ele>
        <time>2019-05-31T11:29:03Z</time>
      </trkpt>
      <trkpt lat="44.11034" lon="3.20542">
        <ele>663.3</ele>
        <time>2019-05-31T11:29:04Z</time>
      </trkpt>
      <trkpt lat="44.11029" lon="3.20544">
        <ele>663.2</ele>
        <time>2019-05-31T11:29:05Z</time>
      </trkpt>
      <trkpt lat="44.11024" lon="3.20547">
        <ele>663</ele>
        <time>2019-05-31T11:29:06Z</time>
      </trkpt>
      <trkpt lat="44.1102" lon="3.2055">
        <ele>662.8</ele>
        <time>2019-05-31T11:29:07Z</time>
      </trkpt>
      <trkpt lat="44.11017" lon="3.20552">
        <ele>662.7</ele>
        <time>2019-05-31T11:29:08Z</time>
      </trkpt>
      <trkpt lat="44.11014" lon="3.20554">
        <ele>662.5</ele>
        <time>2019-05-31T11:29:09Z</time>
      </trkpt>
      <trkpt lat="44.11011" lon="3.20556">
        <ele>662.4</ele>
        <time>2019-05-31T11:29:10Z</time>
      </trkpt>
      <trkpt lat="44.11007" lon="3.2056">
        <ele>662.2</ele>
        <time>2019-05-31T11:29:11Z</time>
      </trkpt>
      <trkpt lat="44.11003" lon="3.20566">
        <ele>661.9</ele>
        <time>2019-05-31T11:29:12Z</time>
      </trkpt>
      <trkpt lat="44.10992" lon="3.20581">
        <ele>660.9</ele>
        <time>2019-05-31T11:29:13Z</time>
      </trkpt>
      <trkpt lat="44.10985" lon="3.20587">
        <ele>660.6</ele>
        <time>2019-05-31T11:29:14Z</time>
      </trkpt>
      <trkpt lat="44.1098" lon="3.20591">
        <ele>660.4</ele>
        <time>2019-05-31T11:29:15Z</time>
      </trkpt>
      <trkpt lat="44.10977" lon="3.20597">
        <ele>660.1</ele>
        <time>2019-05-31T11:29:16Z</time>
      </trkpt>
      <trkpt lat="44.10976" lon="3.20601">
        <ele>660</ele>
        <time>2019-05-31T11:29:17Z</time>
      </trkpt>
      <trkpt lat="44.10974" lon="3.20605">
        <ele>659.9</ele>
        <time>2019-05-31T11:29:18Z</time>
      </trkpt>
      <trkpt lat="44.10972" lon="3.2061">
        <ele>659.7</ele>
        <time>2019-05-31T11:29:19Z</time>
      </trkpt>
      <trkpt lat="44.10971" lon="3.20617">
        <ele>659.6</ele>
        <time>2019-05-31T11:29:20Z</time>
      </trkpt>
      <trkpt lat="44.10966" lon="3.20626">
        <ele>659.5</ele>
        <time>2019-05-31T11:29:21Z</time>
      </trkpt>
      <trkpt lat="44.10961" lon="3.20635">
        <ele>659.4</ele>
        <time>2019-05-31T11:29:22Z</time>
      </trkpt>
      <trkpt lat="44.10959" lon="3.20644">
        <ele>659.4</ele>
        <time>2019-05-31T11:29:23Z</time>
      </trkpt>
      <trkpt lat="44.10952" lon="3.20652">
        <ele>659.3</ele>
        <time>2019-05-31T11:29:24Z</time>
      </trkpt>
      <trkpt lat="44.1095" lon="3.2066">
        <ele>659.3</ele>
        <time>2019-05-31T11:29:25Z</time>
      </trkpt>
      <trkpt lat="44.10947" lon="3.2067">
        <ele>659.2</ele>
        <time>2019-05-31T11:29:26Z</time>
      </trkpt>
      <trkpt lat="44.10944" lon="3.20678">
        <ele>659.2</ele>
        <time>2019-05-31T11:29:27Z</time>
      </trkpt>
      <trkpt lat="44.10948" lon="3.20689">
        <ele>659.1</ele>
        <time>2019-05-31T11:29:28Z</time>
      </trkpt>
      <trkpt lat="44.10944" lon="3.20698">
        <ele>659.1</ele>
        <time>2019-05-31T11:29:29Z</time>
      </trkpt>
      <trkpt lat="44.10941" lon="3.20706">
        <ele>659</ele>
        <time>2019-05-31T11:29:30Z</time>
      </trkpt>
      <trkpt lat="44.1094" lon="3.20717">
        <ele>659</ele>
        <time>2019-05-31T11:29:31Z</time>
      </trkpt>
      <trkpt lat="44.10934" lon="3.20725">
        <ele>658.9</ele>
        <time>2019-05-31T11:29:32Z</time>
      </trkpt>
      <trkpt lat="44.10933" lon="3.20732">
        <ele>658.9</ele>
        <time>2019-05-31T11:29:33Z</time>
      </trkpt>
      <trkpt lat="44.10923" lon="3.20732">
        <ele>658.8</ele>
        <time>2019-05-31T11:29:34Z</time>
      </trkpt>
      <trkpt lat="44.10921" lon="3.20736">
        <ele>658.8</ele>
        <time>2019-05-31T11:29:35Z</time>
      </trkpt>
      <trkpt lat="44.10916" lon="3.20743">
        <ele>658.7</ele>
        <time>2019-05-31T11:29:36Z</time>
      </trkpt>
      <trkpt lat="44.10911" lon="3.20745">
        <ele>658.7</ele>
        <time>2019-05-31T11:29:37Z</time>
      </trkpt>
      <trkpt lat="44.10908" lon="3.2075">
        <ele>658.7</ele>
        <time>2019-05-31T11:29:38Z</time>
      </trkpt>
      <trkpt lat="44.10905" lon="3.20754">
        <ele>658.6</ele>
        <time>2019-05-31T11:29:39Z</time>
      </trkpt>
      <trkpt lat="44.109" lon="3.20758">
        <ele>658.6</ele>
        <time>2019-05-31T11:29:40Z</time>
      </trkpt>
      <trkpt lat="44.10899" lon="3.20764">
        <ele>658.6</ele>
        <time>2019-05-31T11:29:41Z</time>
      </trkpt>
      <trkpt lat="44.10897" lon="3.20771">
        <ele>658.6</ele>
        <time>2019-05-31T11:29:42Z</time>
      </trkpt>
      <trkpt lat="44.10893" lon="3.20777">
        <ele>658.5</ele>
        <time>2019-05-31T11:29:43Z</time>
      </trkpt>
      <trkpt lat="44.10888" lon="3.20782">
        <ele>658.5</ele>
        <time>2019-05-31T11:29:44Z</time>
      </trkpt>
      <trkpt lat="44.10884" lon="3.20791">
        <ele>658.4</ele>
        <time>2019-05-31T11:29:45Z</time>
      </trkpt>
      <trkpt lat="44.1088" lon="3.20795">
        <ele>658.4</ele>
        <time>2019-05-31T11:29:46Z</time>
      </trkpt>
      <trkpt lat="44.10883" lon="3.208">
        <ele>658.4</ele>
        <time>2019-05-31T11:29:47Z</time>
      </trkpt>
      <trkpt lat="44.10876" lon="3.20807">
        <ele>658.3</ele>
        <time>2019-05-31T11:29:48Z</time>
      </trkpt>
      <trkpt lat="44.10871" lon="3.20811">
        <ele>658.2</ele>
        <time>2019-05-31T11:29:49Z</time>
      </trkpt>
      <trkpt lat="44.10867" lon="3.20817">
        <ele>658.1</ele>
        <time>2019-05-31T11:29:50Z</time>
      </trkpt>
      <trkpt lat="44.10859" lon="3.20822">
        <ele>657.9</ele>
        <time>2019-05-31T11:29:51Z</time>
      </trkpt>
      <trkpt lat="44.10856" lon="3.20826">
        <ele>658</ele>
        <time>2019-05-31T11:29:52Z</time>
      </trkpt>
      <trkpt lat="44.10852" lon="3.2083">
        <ele>658.1</ele>
        <time>2019-05-31T11:29:53Z</time>
      </trkpt>
      <trkpt lat="44.10847" lon="3.20829">
        <ele>658.2</ele>
        <time>2019-05-31T11:29:54Z</time>
      </trkpt>
      <trkpt lat="44.10843" lon="3.20833">
        <ele>658.4</ele>
        <time>2019-05-31T11:29:55Z</time>
      </trkpt>
      <trkpt lat="44.10839" lon="3.20835">
        <ele>658.5</ele>
        <time>2019-05-31T11:29:56Z</time>
      </trkpt>
      <trkpt lat="44.10833" lon="3.20836">
        <ele>658.6</ele>
        <time>2019-05-31T11:29:57Z</time>
      </trkpt>
      <trkpt lat="44.10829" lon="3.20838">
        <ele>658.7</ele>
        <time>2019-05-31T11:29:58Z</time>
      </trkpt>
      <trkpt lat="44.10826" lon="3.20843">
        <ele>658.9</ele>
        <time>2019-05-31T11:29:59Z</time>
      </trkpt>
      <trkpt lat="44.10824" lon="3.20851">
        <ele>659</ele>
        <time>2019-05-31T11:30:01Z</time>
      </trkpt>
      <trkpt lat="44.10826" lon="3.20861">
        <ele>659.4</ele>
        <time>2019-05-31T11:30:02Z</time>
      </trkpt>
      <trkpt lat="44.10832" lon="3.20864">
        <ele>659.8</ele>
        <time>2019-05-31T11:30:03Z</time>
      </trkpt>
      <trkpt lat="44.10836" lon="3.2087">
        <ele>660.3</ele>
        <time>2019-05-31T11:30:06Z</time>
      </trkpt>
      <trkpt lat="44.10838" lon="3.20873">
        <ele>660.5</ele>
        <time>2019-05-31T11:30:07Z</time>
      </trkpt>
      <trkpt lat="44.1084" lon="3.20877">
        <ele>660.7</ele>
        <time>2019-05-31T11:30:08Z</time>
      </trkpt>
      <trkpt lat="44.10843" lon="3.20881">
        <ele>661.1</ele>
        <time>2019-05-31T11:30:10Z</time>
      </trkpt>
      <trkpt lat="44.10846" lon="3.20884">
        <ele>661.4</ele>
        <time>2019-05-31T11:30:12Z</time>
      </trkpt>
      <trkpt lat="44.10848" lon="3.20888">
        <ele>661.7</ele>
        <time>2019-05-31T11:30:14Z</time>
      </trkpt>
      <trkpt lat="44.10851" lon="3.20889">
        <ele>662.1</ele>
        <time>2019-05-31T11:30:16Z</time>
      </trkpt>
      <trkpt lat="44.10853" lon="3.20893">
        <ele>662.3</ele>
        <time>2019-05-31T11:30:19Z</time>
      </trkpt>
      <trkpt lat="44.10855" lon="3.20897">
        <ele>662.8</ele>
        <time>2019-05-31T11:30:22Z</time>
      </trkpt>
      <trkpt lat="44.10857" lon="3.209">
        <ele>663.1</ele>
        <time>2019-05-31T11:30:24Z</time>
      </trkpt>
      <trkpt lat="44.10859" lon="3.20905">
        <ele>663.3</ele>
        <time>2019-05-31T11:30:27Z</time>
      </trkpt>
      <trkpt lat="44.1086" lon="3.20909">
        <ele>663.5</ele>
        <time>2019-05-31T11:30:29Z</time>
      </trkpt>
      <trkpt lat="44.10861" lon="3.20914">
        <ele>663.7</ele>
        <time>2019-05-31T11:30:31Z</time>
      </trkpt>
      <trkpt lat="44.10864" lon="3.20919">
        <ele>664</ele>
        <time>2019-05-31T11:30:33Z</time>
      </trkpt>
      <trkpt lat="44.10866" lon="3.20923">
        <ele>664.3</ele>
        <time>2019-05-31T11:30:35Z</time>
      </trkpt>
      <trkpt lat="44.10869" lon="3.20928">
        <ele>664.7</ele>
        <time>2019-05-31T11:30:37Z</time>
      </trkpt>
      <trkpt lat="44.1087" lon="3.20932">
        <ele>664.9</ele>
        <time>2019-05-31T11:30:39Z</time>
      </trkpt>
      <trkpt lat="44.10871" lon="3.20936">
        <ele>665.2</ele>
        <time>2019-05-31T11:30:41Z</time>
      </trkpt>
      <trkpt lat="44.10872" lon="3.2094">
        <ele>665.5</ele>
        <time>2019-05-31T11:30:43Z</time>
      </trkpt>
      <trkpt lat="44.10874" lon="3.20946">
        <ele>665.9</ele>
        <time>2019-05-31T11:30:46Z</time>
      </trkpt>
      <trkpt lat="44.10875" lon="3.20951">
        <ele>666.3</ele>
        <time>2019-05-31T11:30:49Z</time>
      </trkpt>
      <trkpt lat="44.10876" lon="3.20956">
        <ele>666.7</ele>
        <time>2019-05-31T11:30:51Z</time>
      </trkpt>
      <trkpt lat="44.10877" lon="3.20961">
        <ele>667.1</ele>
        <time>2019-05-31T11:30:53Z</time>
      </trkpt>
      <trkpt lat="44.10879" lon="3.20967">
        <ele>667.4</ele>
        <time>2019-05-31T11:30:55Z</time>
      </trkpt>
      <trkpt lat="44.10881" lon="3.20973">
        <ele>667.7</ele>
        <time>2019-05-31T11:30:57Z</time>
      </trkpt>
      <trkpt lat="44.10883" lon="3.20979">
        <ele>668.1</ele>
        <time>2019-05-31T11:30:59Z</time>
      </trkpt>
      <trkpt lat="44.10884" lon="3.20984">
        <ele>668.5</ele>
        <time>2019-05-31T11:31:01Z</time>
      </trkpt>
      <trkpt lat="44.10886" lon="3.20989">
        <ele>668.8</ele>
        <time>2019-05-31T11:31:03Z</time>
      </trkpt>
      <trkpt lat="44.10888" lon="3.20992">
        <ele>669</ele>
        <time>2019-05-31T11:31:05Z</time>
      </trkpt>
      <trkpt lat="44.1089" lon="3.20996">
        <ele>669.2</ele>
        <time>2019-05-31T11:31:07Z</time>
      </trkpt>
      <trkpt lat="44.10892" lon="3.20999">
        <ele>669.4</ele>
        <time>2019-05-31T11:31:10Z</time>
      </trkpt>
      <trkpt lat="44.10893" lon="3.21003">
        <ele>669.6</ele>
        <time>2019-05-31T11:31:12Z</time>
      </trkpt>
      <trkpt lat="44.10896" lon="3.21008">
        <ele>669.8</ele>
        <time>2019-05-31T11:31:14Z</time>
      </trkpt>
      <trkpt lat="44.10898" lon="3.21012">
        <ele>670.1</ele>
        <time>2019-05-31T11:31:16Z</time>
      </trkpt>
      <trkpt lat="44.10899" lon="3.21016">
        <ele>670.3</ele>
        <time>2019-05-31T11:31:18Z</time>
      </trkpt>
      <trkpt lat="44.10901" lon="3.21021">
        <ele>670.5</ele>
        <time>2019-05-31T11:31:21Z</time>
      </trkpt>
      <trkpt lat="44.10902" lon="3.21024">
        <ele>670.7</ele>
        <time>2019-05-31T11:31:23Z</time>
      </trkpt>
      <trkpt lat="44.10902" lon="3.21029">
        <ele>670.9</ele>
        <time>2019-05-31T11:31:25Z</time>
      </trkpt>
      <trkpt lat="44.10902" lon="3.21035">
        <ele>671.1</ele>
        <time>2019-05-31T11:31:27Z</time>
      </trkpt>
      <trkpt lat="44.10902" lon="3.21039">
        <ele>671.3</ele>
        <time>2019-05-31T11:31:29Z</time>
      </trkpt>
      <trkpt lat="44.10904" lon="3.21045">
        <ele>671.5</ele>
        <time>2019-05-31T11:31:31Z</time>
      </trkpt>
      <trkpt lat="44.10905" lon="3.21052">
        <ele>671.8</ele>
        <time>2019-05-31T11:31:33Z</time>
      </trkpt>
      <trkpt lat="44.10906" lon="3.21057">
        <ele>672.1</ele>
        <time>2019-05-31T11:31:35Z</time>
      </trkpt>
      <trkpt lat="44.10906" lon="3.21061">
        <ele>672.3</ele>
        <time>2019-05-31T11:31:37Z</time>
      </trkpt>
      <trkpt lat="44.10905" lon="3.21065">
        <ele>672.5</ele>
        <time>2019-05-31T11:31:40Z</time>
      </trkpt>
      <trkpt lat="44.10905" lon="3.21071">
        <ele>672.8</ele>
        <time>2019-05-31T11:31:43Z</time>
      </trkpt>
      <trkpt lat="44.10904" lon="3.21075">
        <ele>673.1</ele>
        <time>2019-05-31T11:31:45Z</time>
      </trkpt>
      <trkpt lat="44.10902" lon="3.2108">
        <ele>673.4</ele>
        <time>2019-05-31T11:31:47Z</time>
      </trkpt>
      <trkpt lat="44.10901" lon="3.21084">
        <ele>673.6</ele>
        <time>2019-05-31T11:31:49Z</time>
      </trkpt>
      <trkpt lat="44.10899" lon="3.21088">
        <ele>673.9</ele>
        <time>2019-05-31T11:31:52Z</time>
      </trkpt>
      <trkpt lat="44.10897" lon="3.21091">
        <ele>674.4</ele>
        <time>2019-05-31T11:31:55Z</time>
      </trkpt>
      <trkpt lat="44.10895" lon="3.21095">
        <ele>674.8</ele>
        <time>2019-05-31T11:31:57Z</time>
      </trkpt>
      <trkpt lat="44.10895" lon="3.21099">
        <ele>675.3</ele>
        <time>2019-05-31T11:31:59Z</time>
      </trkpt>
      <trkpt lat="44.10894" lon="3.21103">
        <ele>675.6</ele>
        <time>2019-05-31T11:32:01Z</time>
      </trkpt>
      <trkpt lat="44.10893" lon="3.21106">
        <ele>676</ele>
        <time>2019-05-31T11:32:03Z</time>
      </trkpt>
      <trkpt lat="44.10893" lon="3.21113">
        <ele>676.6</ele>
        <time>2019-05-31T11:32:05Z</time>
      </trkpt>
      <trkpt lat="44.10893" lon="3.2112">
        <ele>677.2</ele>
        <time>2019-05-31T11:32:07Z</time>
      </trkpt>
      <trkpt lat="44.10893" lon="3.21124">
        <ele>677.5</ele>
        <time>2019-05-31T11:32:08Z</time>
      </trkpt>
      <trkpt lat="44.10893" lon="3.21127">
        <ele>677.9</ele>
        <time>2019-05-31T11:32:09Z</time>
      </trkpt>
      <trkpt lat="44.10893" lon="3.21134">
        <ele>678.3</ele>
        <time>2019-05-31T11:32:11Z</time>
      </trkpt>
      <trkpt lat="44.10893" lon="3.21139">
        <ele>678.8</ele>
        <time>2019-05-31T11:32:13Z</time>
      </trkpt>
      <trkpt lat="44.10895" lon="3.21144">
        <ele>679.1</ele>
        <time>2019-05-31T11:32:15Z</time>
      </trkpt>
      <trkpt lat="44.10897" lon="3.2115">
        <ele>679.6</ele>
        <time>2019-05-31T11:32:17Z</time>
      </trkpt>
      <trkpt lat="44.10899" lon="3.21157">
        <ele>680.1</ele>
        <time>2019-05-31T11:32:19Z</time>
      </trkpt>
      <trkpt lat="44.109" lon="3.21163">
        <ele>680.5</ele>
        <time>2019-05-31T11:32:21Z</time>
      </trkpt>
      <trkpt lat="44.109" lon="3.2117">
        <ele>681.2</ele>
        <time>2019-05-31T11:32:23Z</time>
      </trkpt>
      <trkpt lat="44.10901" lon="3.21174">
        <ele>681.5</ele>
        <time>2019-05-31T11:32:24Z</time>
      </trkpt>
      <trkpt lat="44.10901" lon="3.21179">
        <ele>681.9</ele>
        <time>2019-05-31T11:32:26Z</time>
      </trkpt>
      <trkpt lat="44.109" lon="3.21186">
        <ele>682.3</ele>
        <time>2019-05-31T11:32:28Z</time>
      </trkpt>
      <trkpt lat="44.10901" lon="3.21193">
        <ele>682.8</ele>
        <time>2019-05-31T11:32:30Z</time>
      </trkpt>
      <trkpt lat="44.10901" lon="3.21198">
        <ele>683.2</ele>
        <time>2019-05-31T11:32:32Z</time>
      </trkpt>
      <trkpt lat="44.10901" lon="3.21204">
        <ele>683.7</ele>
        <time>2019-05-31T11:32:34Z</time>
      </trkpt>
      <trkpt lat="44.10901" lon="3.2121">
        <ele>684.2</ele>
        <time>2019-05-31T11:32:36Z</time>
      </trkpt>
      <trkpt lat="44.10901" lon="3.21215">
        <ele>684.7</ele>
        <time>2019-05-31T11:32:38Z</time>
      </trkpt>
      <trkpt lat="44.10902" lon="3.21222">
        <ele>685.3</ele>
        <time>2019-05-31T11:32:40Z</time>
      </trkpt>
      <trkpt lat="44.10903" lon="3.21228">
        <ele>685.8</ele>
        <time>2019-05-31T11:32:42Z</time>
      </trkpt>
      <trkpt lat="44.10903" lon="3.21234">
        <ele>686.2</ele>
        <time>2019-05-31T11:32:44Z</time>
      </trkpt>
      <trkpt lat="44.10904" lon="3.21239">
        <ele>686.6</ele>
        <time>2019-05-31T11:32:46Z</time>
      </trkpt>
      <trkpt lat="44.10905" lon="3.21244">
        <ele>686.9</ele>
        <time>2019-05-31T11:32:48Z</time>
      </trkpt>
      <trkpt lat="44.10905" lon="3.2125">
        <ele>687.3</ele>
        <time>2019-05-31T11:32:50Z</time>
      </trkpt>
      <trkpt lat="44.10905" lon="3.21256">
        <ele>687.5</ele>
        <time>2019-05-31T11:32:52Z</time>
      </trkpt>
      <trkpt lat="44.10906" lon="3.21261">
        <ele>687.6</ele>
        <time>2019-05-31T11:32:54Z</time>
      </trkpt>
      <trkpt lat="44.10907" lon="3.21267">
        <ele>687.8</ele>
        <time>2019-05-31T11:32:56Z</time>
      </trkpt>
      <trkpt lat="44.10907" lon="3.21272">
        <ele>687.9</ele>
        <time>2019-05-31T11:32:58Z</time>
      </trkpt>
      <trkpt lat="44.10905" lon="3.21275">
        <ele>687.9</ele>
        <time>2019-05-31T11:33:00Z</time>
      </trkpt>
      <trkpt lat="44.10905" lon="3.2128">
        <ele>687.9</ele>
        <time>2019-05-31T11:33:02Z</time>
      </trkpt>
      <trkpt lat="44.10906" lon="3.21287">
        <ele>688</ele>
        <time>2019-05-31T11:33:04Z</time>
      </trkpt>
      <trkpt lat="44.10905" lon="3.21292">
        <ele>688</ele>
        <time>2019-05-31T11:33:06Z</time>
      </trkpt>
      <trkpt lat="44.10905" lon="3.21298">
        <ele>687.9</ele>
        <time>2019-05-31T11:33:08Z</time>
      </trkpt>
      <trkpt lat="44.10905" lon="3.21305">
        <ele>687.9</ele>
        <time>2019-05-31T11:33:10Z</time>
      </trkpt>
      <trkpt lat="44.10904" lon="3.21313">
        <ele>687.9</ele>
        <time>2019-05-31T11:33:12Z</time>
      </trkpt>
      <trkpt lat="44.10904" lon="3.21317">
        <ele>687.8</ele>
        <time>2019-05-31T11:33:13Z</time>
      </trkpt>
      <trkpt lat="44.10903" lon="3.21321">
        <ele>687.8</ele>
        <time>2019-05-31T11:33:14Z</time>
      </trkpt>
      <trkpt lat="44.10902" lon="3.21326">
        <ele>687.7</ele>
        <time>2019-05-31T11:33:15Z</time>
      </trkpt>
      <trkpt lat="44.10901" lon="3.21331">
        <ele>687.7</ele>
        <time>2019-05-31T11:33:16Z</time>
      </trkpt>
      <trkpt lat="44.10899" lon="3.21335">
        <ele>687.6</ele>
        <time>2019-05-31T11:33:17Z</time>
      </trkpt>
      <trkpt lat="44.10898" lon="3.21339">
        <ele>687.6</ele>
        <time>2019-05-31T11:33:18Z</time>
      </trkpt>
      <trkpt lat="44.10896" lon="3.21343">
        <ele>687.5</ele>
        <time>2019-05-31T11:33:19Z</time>
      </trkpt>
      <trkpt lat="44.10895" lon="3.21347">
        <ele>687.4</ele>
        <time>2019-05-31T11:33:20Z</time>
      </trkpt>
      <trkpt lat="44.10894" lon="3.2135">
        <ele>687.4</ele>
        <time>2019-05-31T11:33:21Z</time>
      </trkpt>
      <trkpt lat="44.10893" lon="3.21354">
        <ele>687.3</ele>
        <time>2019-05-31T11:33:22Z</time>
      </trkpt>
      <trkpt lat="44.10891" lon="3.21358">
        <ele>687.2</ele>
        <time>2019-05-31T11:33:23Z</time>
      </trkpt>
      <trkpt lat="44.10889" lon="3.21362">
        <ele>687.1</ele>
        <time>2019-05-31T11:33:24Z</time>
      </trkpt>
      <trkpt lat="44.10887" lon="3.21367">
        <ele>686.9</ele>
        <time>2019-05-31T11:33:25Z</time>
      </trkpt>
      <trkpt lat="44.10885" lon="3.2137">
        <ele>686.8</ele>
        <time>2019-05-31T11:33:26Z</time>
      </trkpt>
      <trkpt lat="44.10883" lon="3.21374">
        <ele>686.6</ele>
        <time>2019-05-31T11:33:27Z</time>
      </trkpt>
      <trkpt lat="44.1088" lon="3.21377">
        <ele>686.5</ele>
        <time>2019-05-31T11:33:28Z</time>
      </trkpt>
      <trkpt lat="44.10878" lon="3.2138">
        <ele>686.3</ele>
        <time>2019-05-31T11:33:29Z</time>
      </trkpt>
      <trkpt lat="44.10876" lon="3.21384">
        <ele>686</ele>
        <time>2019-05-31T11:33:30Z</time>
      </trkpt>
      <trkpt lat="44.10874" lon="3.21388">
        <ele>685.8</ele>
        <time>2019-05-31T11:33:31Z</time>
      </trkpt>
      <trkpt lat="44.10871" lon="3.21392">
        <ele>685.6</ele>
        <time>2019-05-31T11:33:32Z</time>
      </trkpt>
      <trkpt lat="44.10869" lon="3.21395">
        <ele>685.4</ele>
        <time>2019-05-31T11:33:33Z</time>
      </trkpt>
      <trkpt lat="44.10867" lon="3.21398">
        <ele>685.3</ele>
        <time>2019-05-31T11:33:34Z</time>
      </trkpt>
      <trkpt lat="44.10865" lon="3.21401">
        <ele>685.1</ele>
        <time>2019-05-31T11:33:35Z</time>
      </trkpt>
      <trkpt lat="44.10863" lon="3.21405">
        <ele>685</ele>
        <time>2019-05-31T11:33:36Z</time>
      </trkpt>
      <trkpt lat="44.10861" lon="3.21409">
        <ele>684.9</ele>
        <time>2019-05-31T11:33:37Z</time>
      </trkpt>
      <trkpt lat="44.10858" lon="3.21412">
        <ele>684.7</ele>
        <time>2019-05-31T11:33:38Z</time>
      </trkpt>
      <trkpt lat="44.10856" lon="3.21414">
        <ele>684.6</ele>
        <time>2019-05-31T11:33:39Z</time>
      </trkpt>
      <trkpt lat="44.10851" lon="3.21418">
        <ele>684.4</ele>
        <time>2019-05-31T11:33:41Z</time>
      </trkpt>
      <trkpt lat="44.10848" lon="3.21421">
        <ele>684.3</ele>
        <time>2019-05-31T11:33:42Z</time>
      </trkpt>
      <trkpt lat="44.10846" lon="3.21424">
        <ele>684.2</ele>
        <time>2019-05-31T11:33:43Z</time>
      </trkpt>
      <trkpt lat="44.10841" lon="3.2143">
        <ele>684</ele>
        <time>2019-05-31T11:33:45Z</time>
      </trkpt>
      <trkpt lat="44.10839" lon="3.21433">
        <ele>684</ele>
        <time>2019-05-31T11:33:46Z</time>
      </trkpt>
      <trkpt lat="44.10836" lon="3.21436">
        <ele>683.8</ele>
        <time>2019-05-31T11:33:47Z</time>
      </trkpt>
      <trkpt lat="44.10833" lon="3.21439">
        <ele>683.7</ele>
        <time>2019-05-31T11:33:48Z</time>
      </trkpt>
      <trkpt lat="44.1083" lon="3.21441">
        <ele>683.6</ele>
        <time>2019-05-31T11:33:49Z</time>
      </trkpt>
      <trkpt lat="44.10827" lon="3.21445">
        <ele>683.5</ele>
        <time>2019-05-31T11:33:50Z</time>
      </trkpt>
      <trkpt lat="44.10825" lon="3.21448">
        <ele>683.3</ele>
        <time>2019-05-31T11:33:51Z</time>
      </trkpt>
      <trkpt lat="44.10822" lon="3.21453">
        <ele>683.2</ele>
        <time>2019-05-31T11:33:52Z</time>
      </trkpt>
      <trkpt lat="44.10819" lon="3.21458">
        <ele>683</ele>
        <time>2019-05-31T11:33:53Z</time>
      </trkpt>
      <trkpt lat="44.10817" lon="3.21462">
        <ele>682.9</ele>
        <time>2019-05-31T11:33:54Z</time>
      </trkpt>
      <trkpt lat="44.10815" lon="3.21466">
        <ele>682.8</ele>
        <time>2019-05-31T11:33:55Z</time>
      </trkpt>
      <trkpt lat="44.10813" lon="3.2147">
        <ele>682.8</ele>
        <time>2019-05-31T11:33:56Z</time>
      </trkpt>
      <trkpt lat="44.10811" lon="3.21473">
        <ele>682.8</ele>
        <time>2019-05-31T11:33:57Z</time>
      </trkpt>
      <trkpt lat="44.10808" lon="3.21475">
        <ele>682.8</ele>
        <time>2019-05-31T11:33:58Z</time>
      </trkpt>
      <trkpt lat="44.10804" lon="3.21477">
        <ele>682.8</ele>
        <time>2019-05-31T11:33:59Z</time>
      </trkpt>
      <trkpt lat="44.10802" lon="3.21479">
        <ele>682.9</ele>
        <time>2019-05-31T11:34:00Z</time>
      </trkpt>
      <trkpt lat="44.10798" lon="3.2148">
        <ele>682.9</ele>
        <time>2019-05-31T11:34:02Z</time>
      </trkpt>
      <trkpt lat="44.10795" lon="3.21481">
        <ele>683</ele>
        <time>2019-05-31T11:34:03Z</time>
      </trkpt>
      <trkpt lat="44.10791" lon="3.21482">
        <ele>683.2</ele>
        <time>2019-05-31T11:34:05Z</time>
      </trkpt>
      <trkpt lat="44.10787" lon="3.21483">
        <ele>683.5</ele>
        <time>2019-05-31T11:34:07Z</time>
      </trkpt>
      <trkpt lat="44.10784" lon="3.21486">
        <ele>683.7</ele>
        <time>2019-05-31T11:34:09Z</time>
      </trkpt>
      <trkpt lat="44.10782" lon="3.21488">
        <ele>684.1</ele>
        <time>2019-05-31T11:34:11Z</time>
      </trkpt>
      <trkpt lat="44.10779" lon="3.21489">
        <ele>684.4</ele>
        <time>2019-05-31T11:34:13Z</time>
      </trkpt>
      <trkpt lat="44.10775" lon="3.21488">
        <ele>685</ele>
        <time>2019-05-31T11:34:15Z</time>
      </trkpt>
      <trkpt lat="44.1077" lon="3.21487">
        <ele>685.7</ele>
        <time>2019-05-31T11:34:17Z</time>
      </trkpt>
      <trkpt lat="44.10767" lon="3.21487">
        <ele>686.3</ele>
        <time>2019-05-31T11:34:19Z</time>
      </trkpt>
      <trkpt lat="44.10764" lon="3.21488">
        <ele>686.7</ele>
        <time>2019-05-31T11:34:22Z</time>
      </trkpt>
      <trkpt lat="44.10761" lon="3.21488">
        <ele>687.1</ele>
        <time>2019-05-31T11:34:24Z</time>
      </trkpt>
      <trkpt lat="44.10757" lon="3.21487">
        <ele>687.6</ele>
        <time>2019-05-31T11:34:26Z</time>
      </trkpt>
      <trkpt lat="44.10754" lon="3.21485">
        <ele>688.2</ele>
        <time>2019-05-31T11:34:29Z</time>
      </trkpt>
      <trkpt lat="44.1075" lon="3.21483">
        <ele>688.5</ele>
        <time>2019-05-31T11:34:31Z</time>
      </trkpt>
      <trkpt lat="44.10746" lon="3.21482">
        <ele>688.8</ele>
        <time>2019-05-31T11:34:33Z</time>
      </trkpt>
      <trkpt lat="44.10743" lon="3.21482">
        <ele>689.1</ele>
        <time>2019-05-31T11:34:35Z</time>
      </trkpt>
      <trkpt lat="44.10737" lon="3.21483">
        <ele>689.5</ele>
        <time>2019-05-31T11:34:37Z</time>
      </trkpt>
      <trkpt lat="44.10732" lon="3.21484">
        <ele>690.1</ele>
        <time>2019-05-31T11:34:39Z</time>
      </trkpt>
      <trkpt lat="44.10728" lon="3.21485">
        <ele>690.5</ele>
        <time>2019-05-31T11:34:41Z</time>
      </trkpt>
      <trkpt lat="44.10723" lon="3.21485">
        <ele>691</ele>
        <time>2019-05-31T11:34:43Z</time>
      </trkpt>
      <trkpt lat="44.10718" lon="3.21486">
        <ele>691.5</ele>
        <time>2019-05-31T11:34:45Z</time>
      </trkpt>
      <trkpt lat="44.10712" lon="3.21487">
        <ele>692.1</ele>
        <time>2019-05-31T11:34:47Z</time>
      </trkpt>
      <trkpt lat="44.10708" lon="3.21488">
        <ele>692.4</ele>
        <time>2019-05-31T11:34:48Z</time>
      </trkpt>
      <trkpt lat="44.10705" lon="3.21488">
        <ele>692.6</ele>
        <time>2019-05-31T11:34:49Z</time>
      </trkpt>
      <trkpt lat="44.10701" lon="3.21488">
        <ele>692.9</ele>
        <time>2019-05-31T11:34:51Z</time>
      </trkpt>
      <trkpt lat="44.10697" lon="3.21489">
        <ele>693.2</ele>
        <time>2019-05-31T11:34:53Z</time>
      </trkpt>
      <trkpt lat="44.10694" lon="3.21489">
        <ele>693.6</ele>
        <time>2019-05-31T11:34:55Z</time>
      </trkpt>
      <trkpt lat="44.10689" lon="3.21488">
        <ele>694</ele>
        <time>2019-05-31T11:34:57Z</time>
      </trkpt>
      <trkpt lat="44.10686" lon="3.21485">
        <ele>694.2</ele>
        <time>2019-05-31T11:34:59Z</time>
      </trkpt>
      <trkpt lat="44.10682" lon="3.21484">
        <ele>694.4</ele>
        <time>2019-05-31T11:35:03Z</time>
      </trkpt>
      <trkpt lat="44.10679" lon="3.21484">
        <ele>694.6</ele>
        <time>2019-05-31T11:35:05Z</time>
      </trkpt>
      <trkpt lat="44.10675" lon="3.21483">
        <ele>694.8</ele>
        <time>2019-05-31T11:35:07Z</time>
      </trkpt>
      <trkpt lat="44.10672" lon="3.21484">
        <ele>695</ele>
        <time>2019-05-31T11:35:09Z</time>
      </trkpt>
      <trkpt lat="44.10666" lon="3.21485">
        <ele>695.3</ele>
        <time>2019-05-31T11:35:11Z</time>
      </trkpt>
      <trkpt lat="44.10663" lon="3.21485">
        <ele>695.4</ele>
        <time>2019-05-31T11:35:12Z</time>
      </trkpt>
      <trkpt lat="44.1066" lon="3.21484">
        <ele>695.6</ele>
        <time>2019-05-31T11:35:13Z</time>
      </trkpt>
      <trkpt lat="44.10657" lon="3.21483">
        <ele>695.8</ele>
        <time>2019-05-31T11:35:14Z</time>
      </trkpt>
      <trkpt lat="44.10654" lon="3.21482">
        <ele>696</ele>
        <time>2019-05-31T11:35:15Z</time>
      </trkpt>
      <trkpt lat="44.1065" lon="3.21481">
        <ele>696.2</ele>
        <time>2019-05-31T11:35:16Z</time>
      </trkpt>
      <trkpt lat="44.10647" lon="3.2148">
        <ele>697.1</ele>
        <time>2019-05-31T11:35:17Z</time>
      </trkpt>
      <trkpt lat="44.10644" lon="3.21479">
        <ele>697.2</ele>
        <time>2019-05-31T11:35:18Z</time>
      </trkpt>
      <trkpt lat="44.1064" lon="3.21479">
        <ele>697.4</ele>
        <time>2019-05-31T11:35:19Z</time>
      </trkpt>
      <trkpt lat="44.10637" lon="3.21479">
        <ele>697.5</ele>
        <time>2019-05-31T11:35:20Z</time>
      </trkpt>
      <trkpt lat="44.10633" lon="3.2148">
        <ele>697.6</ele>
        <time>2019-05-31T11:35:21Z</time>
      </trkpt>
      <trkpt lat="44.1063" lon="3.2148">
        <ele>697.7</ele>
        <time>2019-05-31T11:35:22Z</time>
      </trkpt>
      <trkpt lat="44.10627" lon="3.2148">
        <ele>697.7</ele>
        <time>2019-05-31T11:35:23Z</time>
      </trkpt>
      <trkpt lat="44.10624" lon="3.21479">
        <ele>697.8</ele>
        <time>2019-05-31T11:35:24Z</time>
      </trkpt>
      <trkpt lat="44.10621" lon="3.21481">
        <ele>697.8</ele>
        <time>2019-05-31T11:35:26Z</time>
      </trkpt>
      <trkpt lat="44.10616" lon="3.21482">
        <ele>697.8</ele>
        <time>2019-05-31T11:35:28Z</time>
      </trkpt>
      <trkpt lat="44.10612" lon="3.21482">
        <ele>697.8</ele>
        <time>2019-05-31T11:35:30Z</time>
      </trkpt>
      <trkpt lat="44.10609" lon="3.21482">
        <ele>697.8</ele>
        <time>2019-05-31T11:35:31Z</time>
      </trkpt>
      <trkpt lat="44.10604" lon="3.21482">
        <ele>698</ele>
        <time>2019-05-31T11:35:33Z</time>
      </trkpt>
      <trkpt lat="44.10601" lon="3.21481">
        <ele>698.1</ele>
        <time>2019-05-31T11:35:34Z</time>
      </trkpt>
      <trkpt lat="44.10597" lon="3.21481">
        <ele>698.1</ele>
        <time>2019-05-31T11:35:35Z</time>
      </trkpt>
      <trkpt lat="44.10594" lon="3.2148">
        <ele>698.1</ele>
        <time>2019-05-31T11:35:36Z</time>
      </trkpt>
      <trkpt lat="44.10591" lon="3.21479">
        <ele>698.1</ele>
        <time>2019-05-31T11:35:37Z</time>
      </trkpt>
      <trkpt lat="44.10587" lon="3.21478">
        <ele>698.1</ele>
        <time>2019-05-31T11:35:38Z</time>
      </trkpt>
      <trkpt lat="44.10584" lon="3.21477">
        <ele>698.1</ele>
        <time>2019-05-31T11:35:39Z</time>
      </trkpt>
      <trkpt lat="44.1058" lon="3.21476">
        <ele>698.2</ele>
        <time>2019-05-31T11:35:41Z</time>
      </trkpt>
      <trkpt lat="44.10576" lon="3.21474">
        <ele>698.4</ele>
        <time>2019-05-31T11:35:43Z</time>
      </trkpt>
      <trkpt lat="44.10572" lon="3.21473">
        <ele>698.5</ele>
        <time>2019-05-31T11:35:46Z</time>
      </trkpt>
      <trkpt lat="44.10569" lon="3.21475">
        <ele>698.5</ele>
        <time>2019-05-31T11:35:49Z</time>
      </trkpt>
      <trkpt lat="44.10566" lon="3.21477">
        <ele>698.5</ele>
        <time>2019-05-31T11:35:56Z</time>
      </trkpt>
      <trkpt lat="44.10562" lon="3.21479">
        <ele>698.4</ele>
        <time>2019-05-31T11:35:58Z</time>
      </trkpt>
      <trkpt lat="44.1056" lon="3.2148">
        <ele>698.4</ele>
        <time>2019-05-31T11:35:59Z</time>
      </trkpt>
      <trkpt lat="44.10557" lon="3.21481">
        <ele>698.3</ele>
        <time>2019-05-31T11:36:00Z</time>
      </trkpt>
      <trkpt lat="44.10552" lon="3.21485">
        <ele>698.2</ele>
        <time>2019-05-31T11:36:02Z</time>
      </trkpt>
      <trkpt lat="44.10549" lon="3.21489">
        <ele>698.1</ele>
        <time>2019-05-31T11:36:03Z</time>
      </trkpt>
      <trkpt lat="44.10547" lon="3.21492">
        <ele>698</ele>
        <time>2019-05-31T11:36:04Z</time>
      </trkpt>
      <trkpt lat="44.10543" lon="3.21495">
        <ele>697.9</ele>
        <time>2019-05-31T11:36:05Z</time>
      </trkpt>
      <trkpt lat="44.10531" lon="3.21493">
        <ele>697.5</ele>
        <time>2019-05-31T11:36:06Z</time>
      </trkpt>
      <trkpt lat="44.10526" lon="3.21493">
        <ele>697.3</ele>
        <time>2019-05-31T11:36:07Z</time>
      </trkpt>
      <trkpt lat="44.10521" lon="3.21493">
        <ele>697</ele>
        <time>2019-05-31T11:36:08Z</time>
      </trkpt>
      <trkpt lat="44.10516" lon="3.21493">
        <ele>696.7</ele>
        <time>2019-05-31T11:36:09Z</time>
      </trkpt>
      <trkpt lat="44.10513" lon="3.21492">
        <ele>696.5</ele>
        <time>2019-05-31T11:36:10Z</time>
      </trkpt>
      <trkpt lat="44.10507" lon="3.21488">
        <ele>696.2</ele>
        <time>2019-05-31T11:36:12Z</time>
      </trkpt>
      <trkpt lat="44.10501" lon="3.21487">
        <ele>695.9</ele>
        <time>2019-05-31T11:36:14Z</time>
      </trkpt>
      <trkpt lat="44.10498" lon="3.21485">
        <ele>695.8</ele>
        <time>2019-05-31T11:36:15Z</time>
      </trkpt>
      <trkpt lat="44.10495" lon="3.21484">
        <ele>695.7</ele>
        <time>2019-05-31T11:36:16Z</time>
      </trkpt>
      <trkpt lat="44.10491" lon="3.21486">
        <ele>695.6</ele>
        <time>2019-05-31T11:36:17Z</time>
      </trkpt>
      <trkpt lat="44.10486" lon="3.21488">
        <ele>695.4</ele>
        <time>2019-05-31T11:36:18Z</time>
      </trkpt>
      <trkpt lat="44.10481" lon="3.2149">
        <ele>695.3</ele>
        <time>2019-05-31T11:36:19Z</time>
      </trkpt>
      <trkpt lat="44.10476" lon="3.21495">
        <ele>695.1</ele>
        <time>2019-05-31T11:36:20Z</time>
      </trkpt>
      <trkpt lat="44.10471" lon="3.21497">
        <ele>694.9</ele>
        <time>2019-05-31T11:36:21Z</time>
      </trkpt>
      <trkpt lat="44.10467" lon="3.21496">
        <ele>694.7</ele>
        <time>2019-05-31T11:36:22Z</time>
      </trkpt>
      <trkpt lat="44.10462" lon="3.21497">
        <ele>694.4</ele>
        <time>2019-05-31T11:36:23Z</time>
      </trkpt>
      <trkpt lat="44.10455" lon="3.21496">
        <ele>694</ele>
        <time>2019-05-31T11:36:24Z</time>
      </trkpt>
      <trkpt lat="44.1045" lon="3.21496">
        <ele>693.6</ele>
        <time>2019-05-31T11:36:25Z</time>
      </trkpt>
      <trkpt lat="44.10444" lon="3.21498">
        <ele>693.1</ele>
        <time>2019-05-31T11:36:26Z</time>
      </trkpt>
      <trkpt lat="44.10438" lon="3.21499">
        <ele>692.6</ele>
        <time>2019-05-31T11:36:27Z</time>
      </trkpt>
      <trkpt lat="44.10435" lon="3.21499">
        <ele>692.2</ele>
        <time>2019-05-31T11:36:28Z</time>
      </trkpt>
      <trkpt lat="44.10431" lon="3.21499">
        <ele>691.8</ele>
        <time>2019-05-31T11:36:29Z</time>
      </trkpt>
      <trkpt lat="44.10428" lon="3.21498">
        <ele>691.4</ele>
        <time>2019-05-31T11:36:30Z</time>
      </trkpt>
      <trkpt lat="44.10424" lon="3.21496">
        <ele>691.5</ele>
        <time>2019-05-31T11:36:32Z</time>
      </trkpt>
      <trkpt lat="44.10418" lon="3.21494">
        <ele>691.6</ele>
        <time>2019-05-31T11:36:33Z</time>
      </trkpt>
      <trkpt lat="44.10414" lon="3.21491">
        <ele>691.7</ele>
        <time>2019-05-31T11:36:34Z</time>
      </trkpt>
      <trkpt lat="44.10406" lon="3.21488">
        <ele>691.8</ele>
        <time>2019-05-31T11:36:35Z</time>
      </trkpt>
      <trkpt lat="44.10403" lon="3.21485">
        <ele>691.8</ele>
        <time>2019-05-31T11:36:36Z</time>
      </trkpt>
      <trkpt lat="44.10399" lon="3.2148">
        <ele>691.8</ele>
        <time>2019-05-31T11:36:38Z</time>
      </trkpt>
      <trkpt lat="44.10396" lon="3.21477">
        <ele>691.8</ele>
        <time>2019-05-31T11:36:39Z</time>
      </trkpt>
      <trkpt lat="44.10392" lon="3.21474">
        <ele>691.9</ele>
        <time>2019-05-31T11:36:40Z</time>
      </trkpt>
      <trkpt lat="44.10389" lon="3.2147">
        <ele>691.9</ele>
        <time>2019-05-31T11:36:41Z</time>
      </trkpt>
      <trkpt lat="44.10385" lon="3.21467">
        <ele>691.9</ele>
        <time>2019-05-31T11:36:42Z</time>
      </trkpt>
      <trkpt lat="44.10382" lon="3.21464">
        <ele>691.9</ele>
        <time>2019-05-31T11:36:43Z</time>
      </trkpt>
      <trkpt lat="44.10379" lon="3.21463">
        <ele>691.9</ele>
        <time>2019-05-31T11:36:44Z</time>
      </trkpt>
      <trkpt lat="44.10375" lon="3.21461">
        <ele>691.9</ele>
        <time>2019-05-31T11:36:45Z</time>
      </trkpt>
      <trkpt lat="44.10368" lon="3.2146">
        <ele>692</ele>
        <time>2019-05-31T11:36:46Z</time>
      </trkpt>
      <trkpt lat="44.10362" lon="3.21459">
        <ele>692</ele>
        <time>2019-05-31T11:36:48Z</time>
      </trkpt>
      <trkpt lat="44.10358" lon="3.21457">
        <ele>692.1</ele>
        <time>2019-05-31T11:36:49Z</time>
      </trkpt>
      <trkpt lat="44.10355" lon="3.21455">
        <ele>692.1</ele>
        <time>2019-05-31T11:36:50Z</time>
      </trkpt>
      <trkpt lat="44.1035" lon="3.21453">
        <ele>692.1</ele>
        <time>2019-05-31T11:36:51Z</time>
      </trkpt>
      <trkpt lat="44.10346" lon="3.21453">
        <ele>692.1</ele>
        <time>2019-05-31T11:36:53Z</time>
      </trkpt>
      <trkpt lat="44.10342" lon="3.21451">
        <ele>692.2</ele>
        <time>2019-05-31T11:36:54Z</time>
      </trkpt>
      <trkpt lat="44.10336" lon="3.21449">
        <ele>692.2</ele>
        <time>2019-05-31T11:36:56Z</time>
      </trkpt>
      <trkpt lat="44.10333" lon="3.21447">
        <ele>692.2</ele>
        <time>2019-05-31T11:36:57Z</time>
      </trkpt>
      <trkpt lat="44.10329" lon="3.21444">
        <ele>692.2</ele>
        <time>2019-05-31T11:36:58Z</time>
      </trkpt>
      <trkpt lat="44.10325" lon="3.21441">
        <ele>692.2</ele>
        <time>2019-05-31T11:37:00Z</time>
      </trkpt>
      <trkpt lat="44.1032" lon="3.21438">
        <ele>692.2</ele>
        <time>2019-05-31T11:37:02Z</time>
      </trkpt>
      <trkpt lat="44.10317" lon="3.21436">
        <ele>692.2</ele>
        <time>2019-05-31T11:37:03Z</time>
      </trkpt>
      <trkpt lat="44.10314" lon="3.21435">
        <ele>692.2</ele>
        <time>2019-05-31T11:37:04Z</time>
      </trkpt>
      <trkpt lat="44.10311" lon="3.21433">
        <ele>692.3</ele>
        <time>2019-05-31T11:37:05Z</time>
      </trkpt>
      <trkpt lat="44.10305" lon="3.21431">
        <ele>692.3</ele>
        <time>2019-05-31T11:37:07Z</time>
      </trkpt>
      <trkpt lat="44.10302" lon="3.2143">
        <ele>692.3</ele>
        <time>2019-05-31T11:37:08Z</time>
      </trkpt>
      <trkpt lat="44.10299" lon="3.21428">
        <ele>692.3</ele>
        <time>2019-05-31T11:37:09Z</time>
      </trkpt>
      <trkpt lat="44.10296" lon="3.21425">
        <ele>692.3</ele>
        <time>2019-05-31T11:37:10Z</time>
      </trkpt>
      <trkpt lat="44.10291" lon="3.21422">
        <ele>692.2</ele>
        <time>2019-05-31T11:37:12Z</time>
      </trkpt>
      <trkpt lat="44.10289" lon="3.21419">
        <ele>692.2</ele>
        <time>2019-05-31T11:37:13Z</time>
      </trkpt>
      <trkpt lat="44.10286" lon="3.21416">
        <ele>692.1</ele>
        <time>2019-05-31T11:37:14Z</time>
      </trkpt>
      <trkpt lat="44.10284" lon="3.21413">
        <ele>692.1</ele>
        <time>2019-05-31T11:37:15Z</time>
      </trkpt>
      <trkpt lat="44.10281" lon="3.2141">
        <ele>692</ele>
        <time>2019-05-31T11:37:16Z</time>
      </trkpt>
      <trkpt lat="44.10279" lon="3.21407">
        <ele>692</ele>
        <time>2019-05-31T11:37:17Z</time>
      </trkpt>
      <trkpt lat="44.10274" lon="3.21403">
        <ele>691.9</ele>
        <time>2019-05-31T11:37:19Z</time>
      </trkpt>
      <trkpt lat="44.10271" lon="3.214">
        <ele>691.8</ele>
        <time>2019-05-31T11:37:20Z</time>
      </trkpt>
      <trkpt lat="44.10268" lon="3.21397">
        <ele>691.7</ele>
        <time>2019-05-31T11:37:21Z</time>
      </trkpt>
      <trkpt lat="44.10265" lon="3.21395">
        <ele>691.6</ele>
        <time>2019-05-31T11:37:22Z</time>
      </trkpt>
      <trkpt lat="44.10263" lon="3.21392">
        <ele>691.5</ele>
        <time>2019-05-31T11:37:23Z</time>
      </trkpt>
      <trkpt lat="44.10259" lon="3.21389">
        <ele>691.4</ele>
        <time>2019-05-31T11:37:24Z</time>
      </trkpt>
      <trkpt lat="44.10256" lon="3.21385">
        <ele>691.3</ele>
        <time>2019-05-31T11:37:25Z</time>
      </trkpt>
      <trkpt lat="44.10253" lon="3.21382">
        <ele>691.2</ele>
        <time>2019-05-31T11:37:26Z</time>
      </trkpt>
      <trkpt lat="44.1025" lon="3.21378">
        <ele>691</ele>
        <time>2019-05-31T11:37:27Z</time>
      </trkpt>
      <trkpt lat="44.10247" lon="3.21374">
        <ele>690.9</ele>
        <time>2019-05-31T11:37:28Z</time>
      </trkpt>
      <trkpt lat="44.10245" lon="3.21371">
        <ele>690.8</ele>
        <time>2019-05-31T11:37:29Z</time>
      </trkpt>
      <trkpt lat="44.10242" lon="3.21366">
        <ele>690.7</ele>
        <time>2019-05-31T11:37:30Z</time>
      </trkpt>
      <trkpt lat="44.10239" lon="3.21361">
        <ele>690.5</ele>
        <time>2019-05-31T11:37:31Z</time>
      </trkpt>
      <trkpt lat="44.10236" lon="3.21356">
        <ele>690.3</ele>
        <time>2019-05-31T11:37:32Z</time>
      </trkpt>
      <trkpt lat="44.10234" lon="3.2135">
        <ele>690.1</ele>
        <time>2019-05-31T11:37:33Z</time>
      </trkpt>
      <trkpt lat="44.10231" lon="3.21345">
        <ele>689.9</ele>
        <time>2019-05-31T11:37:34Z</time>
      </trkpt>
      <trkpt lat="44.10229" lon="3.21338">
        <ele>689.7</ele>
        <time>2019-05-31T11:37:35Z</time>
      </trkpt>
      <trkpt lat="44.10226" lon="3.21333">
        <ele>689.5</ele>
        <time>2019-05-31T11:37:36Z</time>
      </trkpt>
      <trkpt lat="44.10225" lon="3.21327">
        <ele>689.3</ele>
        <time>2019-05-31T11:37:37Z</time>
      </trkpt>
      <trkpt lat="44.10224" lon="3.21321">
        <ele>689.1</ele>
        <time>2019-05-31T11:37:38Z</time>
      </trkpt>
      <trkpt lat="44.10224" lon="3.21314">
        <ele>688.9</ele>
        <time>2019-05-31T11:37:39Z</time>
      </trkpt>
      <trkpt lat="44.10224" lon="3.21307">
        <ele>688.7</ele>
        <time>2019-05-31T11:37:40Z</time>
      </trkpt>
      <trkpt lat="44.10225" lon="3.21301">
        <ele>688.5</ele>
        <time>2019-05-31T11:37:41Z</time>
      </trkpt>
      <trkpt lat="44.10224" lon="3.21294">
        <ele>688.3</ele>
        <time>2019-05-31T11:37:42Z</time>
      </trkpt>
      <trkpt lat="44.10225" lon="3.21289">
        <ele>688.2</ele>
        <time>2019-05-31T11:37:43Z</time>
      </trkpt>
      <trkpt lat="44.10226" lon="3.21281">
        <ele>687.9</ele>
        <time>2019-05-31T11:37:45Z</time>
      </trkpt>
      <trkpt lat="44.10228" lon="3.21276">
        <ele>687.7</ele>
        <time>2019-05-31T11:37:46Z</time>
      </trkpt>
      <trkpt lat="44.10229" lon="3.21271">
        <ele>687.5</ele>
        <time>2019-05-31T11:37:47Z</time>
      </trkpt>
      <trkpt lat="44.10228" lon="3.21263">
        <ele>687.1</ele>
        <time>2019-05-31T11:37:48Z</time>
      </trkpt>
      <trkpt lat="44.10229" lon="3.2126">
        <ele>687</ele>
        <time>2019-05-31T11:37:49Z</time>
      </trkpt>
      <trkpt lat="44.10231" lon="3.21256">
        <ele>686.6</ele>
        <time>2019-05-31T11:37:50Z</time>
      </trkpt>
      <trkpt lat="44.10232" lon="3.21252">
        <ele>686.3</ele>
        <time>2019-05-31T11:37:51Z</time>
      </trkpt>
      <trkpt lat="44.10231" lon="3.21248">
        <ele>686</ele>
        <time>2019-05-31T11:37:52Z</time>
      </trkpt>
      <trkpt lat="44.10228" lon="3.21245">
        <ele>685.5</ele>
        <time>2019-05-31T11:37:53Z</time>
      </trkpt>
      <trkpt lat="44.10225" lon="3.21243">
        <ele>684.9</ele>
        <time>2019-05-31T11:37:54Z</time>
      </trkpt>
      <trkpt lat="44.10222" lon="3.21242">
        <ele>684.6</ele>
        <time>2019-05-31T11:37:55Z</time>
      </trkpt>
      <trkpt lat="44.10216" lon="3.21239">
        <ele>684</ele>
        <time>2019-05-31T11:37:56Z</time>
      </trkpt>
      <trkpt lat="44.10211" lon="3.21238">
        <ele>683.7</ele>
        <time>2019-05-31T11:37:57Z</time>
      </trkpt>
      <trkpt lat="44.10207" lon="3.21235">
        <ele>683.2</ele>
        <time>2019-05-31T11:37:58Z</time>
      </trkpt>
      <trkpt lat="44.10202" lon="3.21232">
        <ele>682.8</ele>
        <time>2019-05-31T11:37:59Z</time>
      </trkpt>
      <trkpt lat="44.10197" lon="3.21231">
        <ele>682.7</ele>
        <time>2019-05-31T11:38:00Z</time>
      </trkpt>
      <trkpt lat="44.10192" lon="3.21229">
        <ele>682.4</ele>
        <time>2019-05-31T11:38:01Z</time>
      </trkpt>
      <trkpt lat="44.10187" lon="3.2123">
        <ele>682.3</ele>
        <time>2019-05-31T11:38:02Z</time>
      </trkpt>
      <trkpt lat="44.10182" lon="3.2123">
        <ele>682.2</ele>
        <time>2019-05-31T11:38:03Z</time>
      </trkpt>
      <trkpt lat="44.10176" lon="3.2123">
        <ele>682</ele>
        <time>2019-05-31T11:38:04Z</time>
      </trkpt>
      <trkpt lat="44.10173" lon="3.21232">
        <ele>681.9</ele>
        <time>2019-05-31T11:38:05Z</time>
      </trkpt>
      <trkpt lat="44.10168" lon="3.21233">
        <ele>681.8</ele>
        <time>2019-05-31T11:38:06Z</time>
      </trkpt>
      <trkpt lat="44.10164" lon="3.21235">
        <ele>681.7</ele>
        <time>2019-05-31T11:38:07Z</time>
      </trkpt>
      <trkpt lat="44.10162" lon="3.21235">
        <ele>681.7</ele>
        <time>2019-05-31T11:38:08Z</time>
      </trkpt>
      <trkpt lat="44.10157" lon="3.21237">
        <ele>681.7</ele>
        <time>2019-05-31T11:38:09Z</time>
      </trkpt>
      <trkpt lat="44.10153" lon="3.21239">
        <ele>681.8</ele>
        <time>2019-05-31T11:38:10Z</time>
      </trkpt>
      <trkpt lat="44.10148" lon="3.21243">
        <ele>681.9</ele>
        <time>2019-05-31T11:38:11Z</time>
      </trkpt>
      <trkpt lat="44.10143" lon="3.21246">
        <ele>682.1</ele>
        <time>2019-05-31T11:38:12Z</time>
      </trkpt>
      <trkpt lat="44.10137" lon="3.21247">
        <ele>682.2</ele>
        <time>2019-05-31T11:38:13Z</time>
      </trkpt>
      <trkpt lat="44.10131" lon="3.21246">
        <ele>682.4</ele>
        <time>2019-05-31T11:38:14Z</time>
      </trkpt>
      <trkpt lat="44.10128" lon="3.21245">
        <ele>682.5</ele>
        <time>2019-05-31T11:38:15Z</time>
      </trkpt>
      <trkpt lat="44.10124" lon="3.21243">
        <ele>682.5</ele>
        <time>2019-05-31T11:38:16Z</time>
      </trkpt>
      <trkpt lat="44.10118" lon="3.21241">
        <ele>682.4</ele>
        <time>2019-05-31T11:38:17Z</time>
      </trkpt>
      <trkpt lat="44.10112" lon="3.21239">
        <ele>682.4</ele>
        <time>2019-05-31T11:38:19Z</time>
      </trkpt>
      <trkpt lat="44.10108" lon="3.21237">
        <ele>682.4</ele>
        <time>2019-05-31T11:38:20Z</time>
      </trkpt>
      <trkpt lat="44.10104" lon="3.21234">
        <ele>682.4</ele>
        <time>2019-05-31T11:38:21Z</time>
      </trkpt>
      <trkpt lat="44.10101" lon="3.21232">
        <ele>682.4</ele>
        <time>2019-05-31T11:38:22Z</time>
      </trkpt>
      <trkpt lat="44.10098" lon="3.21229">
        <ele>682.4</ele>
        <time>2019-05-31T11:38:23Z</time>
      </trkpt>
      <trkpt lat="44.10095" lon="3.21228">
        <ele>682.4</ele>
        <time>2019-05-31T11:38:24Z</time>
      </trkpt>
      <trkpt lat="44.10091" lon="3.21225">
        <ele>682.4</ele>
        <time>2019-05-31T11:38:25Z</time>
      </trkpt>
      <trkpt lat="44.10087" lon="3.21223">
        <ele>682.3</ele>
        <time>2019-05-31T11:38:26Z</time>
      </trkpt>
      <trkpt lat="44.10083" lon="3.21221">
        <ele>682.2</ele>
        <time>2019-05-31T11:38:27Z</time>
      </trkpt>
      <trkpt lat="44.10079" lon="3.21218">
        <ele>682.1</ele>
        <time>2019-05-31T11:38:28Z</time>
      </trkpt>
      <trkpt lat="44.10074" lon="3.21214">
        <ele>682</ele>
        <time>2019-05-31T11:38:29Z</time>
      </trkpt>
      <trkpt lat="44.1007" lon="3.21211">
        <ele>681.9</ele>
        <time>2019-05-31T11:38:30Z</time>
      </trkpt>
      <trkpt lat="44.10065" lon="3.21206">
        <ele>681.7</ele>
        <time>2019-05-31T11:38:31Z</time>
      </trkpt>
      <trkpt lat="44.1006" lon="3.21202">
        <ele>681.4</ele>
        <time>2019-05-31T11:38:32Z</time>
      </trkpt>
      <trkpt lat="44.10055" lon="3.21198">
        <ele>681.1</ele>
        <time>2019-05-31T11:38:33Z</time>
      </trkpt>
      <trkpt lat="44.10051" lon="3.21194">
        <ele>681.1</ele>
        <time>2019-05-31T11:38:34Z</time>
      </trkpt>
      <trkpt lat="44.10048" lon="3.21191">
        <ele>680.9</ele>
        <time>2019-05-31T11:38:35Z</time>
      </trkpt>
      <trkpt lat="44.10042" lon="3.21187">
        <ele>680.6</ele>
        <time>2019-05-31T11:38:36Z</time>
      </trkpt>
      <trkpt lat="44.10039" lon="3.21186">
        <ele>680.4</ele>
        <time>2019-05-31T11:38:37Z</time>
      </trkpt>
      <trkpt lat="44.10036" lon="3.21181">
        <ele>680.2</ele>
        <time>2019-05-31T11:38:38Z</time>
      </trkpt>
      <trkpt lat="44.10031" lon="3.21177">
        <ele>680</ele>
        <time>2019-05-31T11:38:39Z</time>
      </trkpt>
      <trkpt lat="44.10028" lon="3.21173">
        <ele>679.9</ele>
        <time>2019-05-31T11:38:40Z</time>
      </trkpt>
      <trkpt lat="44.10024" lon="3.2117">
        <ele>679.7</ele>
        <time>2019-05-31T11:38:41Z</time>
      </trkpt>
      <trkpt lat="44.10021" lon="3.21167">
        <ele>679.4</ele>
        <time>2019-05-31T11:38:42Z</time>
      </trkpt>
      <trkpt lat="44.10016" lon="3.21164">
        <ele>679.3</ele>
        <time>2019-05-31T11:38:43Z</time>
      </trkpt>
      <trkpt lat="44.10011" lon="3.21162">
        <ele>679.1</ele>
        <time>2019-05-31T11:38:44Z</time>
      </trkpt>
      <trkpt lat="44.10007" lon="3.21161">
        <ele>679</ele>
        <time>2019-05-31T11:38:45Z</time>
      </trkpt>
      <trkpt lat="44.10003" lon="3.2116">
        <ele>678.9</ele>
        <time>2019-05-31T11:38:46Z</time>
      </trkpt>
      <trkpt lat="44.09999" lon="3.21157">
        <ele>678.9</ele>
        <time>2019-05-31T11:38:47Z</time>
      </trkpt>
      <trkpt lat="44.09994" lon="3.21156">
        <ele>678.8</ele>
        <time>2019-05-31T11:38:48Z</time>
      </trkpt>
      <trkpt lat="44.09988" lon="3.21154">
        <ele>678.6</ele>
        <time>2019-05-31T11:38:49Z</time>
      </trkpt>
      <trkpt lat="44.09982" lon="3.21153">
        <ele>678.4</ele>
        <time>2019-05-31T11:38:50Z</time>
      </trkpt>
      <trkpt lat="44.09977" lon="3.21153">
        <ele>678.3</ele>
        <time>2019-05-31T11:38:51Z</time>
      </trkpt>
      <trkpt lat="44.09972" lon="3.21152">
        <ele>678.2</ele>
        <time>2019-05-31T11:38:52Z</time>
      </trkpt>
      <trkpt lat="44.09967" lon="3.21152">
        <ele>678</ele>
        <time>2019-05-31T11:38:53Z</time>
      </trkpt>
      <trkpt lat="44.09962" lon="3.21153">
        <ele>677.9</ele>
        <time>2019-05-31T11:38:54Z</time>
      </trkpt>
      <trkpt lat="44.09957" lon="3.21153">
        <ele>677.7</ele>
        <time>2019-05-31T11:38:55Z</time>
      </trkpt>
      <trkpt lat="44.09953" lon="3.21153">
        <ele>677.5</ele>
        <time>2019-05-31T11:38:56Z</time>
      </trkpt>
      <trkpt lat="44.09945" lon="3.21153">
        <ele>677.2</ele>
        <time>2019-05-31T11:38:57Z</time>
      </trkpt>
      <trkpt lat="44.09938" lon="3.21153">
        <ele>676.8</ele>
        <time>2019-05-31T11:38:58Z</time>
      </trkpt>
      <trkpt lat="44.09929" lon="3.21159">
        <ele>676.4</ele>
        <time>2019-05-31T11:38:59Z</time>
      </trkpt>
      <trkpt lat="44.09923" lon="3.21161">
        <ele>676.5</ele>
        <time>2019-05-31T11:39:00Z</time>
      </trkpt>
      <trkpt lat="44.09915" lon="3.21163">
        <ele>676.4</ele>
        <time>2019-05-31T11:39:01Z</time>
      </trkpt>
      <trkpt lat="44.09907" lon="3.21163">
        <ele>676.3</ele>
        <time>2019-05-31T11:39:02Z</time>
      </trkpt>
      <trkpt lat="44.099" lon="3.21163">
        <ele>676.5</ele>
        <time>2019-05-31T11:39:03Z</time>
      </trkpt>
      <trkpt lat="44.09892" lon="3.21162">
        <ele>676.4</ele>
        <time>2019-05-31T11:39:04Z</time>
      </trkpt>
      <trkpt lat="44.09885" lon="3.21162">
        <ele>676.4</ele>
        <time>2019-05-31T11:39:05Z</time>
      </trkpt>
      <trkpt lat="44.09878" lon="3.21159">
        <ele>676.1</ele>
        <time>2019-05-31T11:39:06Z</time>
      </trkpt>
      <trkpt lat="44.09873" lon="3.2115">
        <ele>675.9</ele>
        <time>2019-05-31T11:39:07Z</time>
      </trkpt>
      <trkpt lat="44.09866" lon="3.21144">
        <ele>675.4</ele>
        <time>2019-05-31T11:39:08Z</time>
      </trkpt>
      <trkpt lat="44.0986" lon="3.21136">
        <ele>675.1</ele>
        <time>2019-05-31T11:39:09Z</time>
      </trkpt>
      <trkpt lat="44.09855" lon="3.2113">
        <ele>674.9</ele>
        <time>2019-05-31T11:39:10Z</time>
      </trkpt>
      <trkpt lat="44.09852" lon="3.21125">
        <ele>674.7</ele>
        <time>2019-05-31T11:39:11Z</time>
      </trkpt>
      <trkpt lat="44.09849" lon="3.2112">
        <ele>674.6</ele>
        <time>2019-05-31T11:39:12Z</time>
      </trkpt>
      <trkpt lat="44.09846" lon="3.21114">
        <ele>674.6</ele>
        <time>2019-05-31T11:39:13Z</time>
      </trkpt>
      <trkpt lat="44.09844" lon="3.21108">
        <ele>674.6</ele>
        <time>2019-05-31T11:39:14Z</time>
      </trkpt>
      <trkpt lat="44.0984" lon="3.21104">
        <ele>674.7</ele>
        <time>2019-05-31T11:39:15Z</time>
      </trkpt>
      <trkpt lat="44.09835" lon="3.21101">
        <ele>674.7</ele>
        <time>2019-05-31T11:39:16Z</time>
      </trkpt>
      <trkpt lat="44.0983" lon="3.21097">
        <ele>675.1</ele>
        <time>2019-05-31T11:39:18Z</time>
      </trkpt>
      <trkpt lat="44.09825" lon="3.21094">
        <ele>675.4</ele>
        <time>2019-05-31T11:39:19Z</time>
      </trkpt>
      <trkpt lat="44.09822" lon="3.21091">
        <ele>675.5</ele>
        <time>2019-05-31T11:39:20Z</time>
      </trkpt>
      <trkpt lat="44.0982" lon="3.21089">
        <ele>675.7</ele>
        <time>2019-05-31T11:39:21Z</time>
      </trkpt>
      <trkpt lat="44.09816" lon="3.21087">
        <ele>675.9</ele>
        <time>2019-05-31T11:39:22Z</time>
      </trkpt>
      <trkpt lat="44.09815" lon="3.21082">
        <ele>676</ele>
        <time>2019-05-31T11:39:23Z</time>
      </trkpt>
      <trkpt lat="44.09813" lon="3.21079">
        <ele>676.2</ele>
        <time>2019-05-31T11:39:24Z</time>
      </trkpt>
      <trkpt lat="44.09808" lon="3.21075">
        <ele>676.4</ele>
        <time>2019-05-31T11:39:25Z</time>
      </trkpt>
      <trkpt lat="44.09803" lon="3.21071">
        <ele>676.7</ele>
        <time>2019-05-31T11:39:26Z</time>
      </trkpt>
      <trkpt lat="44.09801" lon="3.21068">
        <ele>676.9</ele>
        <time>2019-05-31T11:39:27Z</time>
      </trkpt>
      <trkpt lat="44.09799" lon="3.21064">
        <ele>677</ele>
        <time>2019-05-31T11:39:28Z</time>
      </trkpt>
      <trkpt lat="44.09794" lon="3.2106">
        <ele>677.2</ele>
        <time>2019-05-31T11:39:30Z</time>
      </trkpt>
      <trkpt lat="44.09789" lon="3.21054">
        <ele>677.5</ele>
        <time>2019-05-31T11:39:32Z</time>
      </trkpt>
      <trkpt lat="44.09785" lon="3.21051">
        <ele>677.8</ele>
        <time>2019-05-31T11:39:33Z</time>
      </trkpt>
      <trkpt lat="44.09781" lon="3.2105">
        <ele>678</ele>
        <time>2019-05-31T11:39:34Z</time>
      </trkpt>
      <trkpt lat="44.09777" lon="3.21047">
        <ele>678.1</ele>
        <time>2019-05-31T11:39:35Z</time>
      </trkpt>
      <trkpt lat="44.09773" lon="3.21045">
        <ele>678.2</ele>
        <time>2019-05-31T11:39:36Z</time>
      </trkpt>
      <trkpt lat="44.0977" lon="3.21042">
        <ele>678.4</ele>
        <time>2019-05-31T11:39:37Z</time>
      </trkpt>
      <trkpt lat="44.09767" lon="3.21039">
        <ele>678.5</ele>
        <time>2019-05-31T11:39:38Z</time>
      </trkpt>
      <trkpt lat="44.09763" lon="3.21036">
        <ele>678.6</ele>
        <time>2019-05-31T11:39:39Z</time>
      </trkpt>
      <trkpt lat="44.0976" lon="3.21033">
        <ele>678.7</ele>
        <time>2019-05-31T11:39:40Z</time>
      </trkpt>
      <trkpt lat="44.09756" lon="3.21029">
        <ele>678.7</ele>
        <time>2019-05-31T11:39:41Z</time>
      </trkpt>
      <trkpt lat="44.09752" lon="3.21026">
        <ele>678.7</ele>
        <time>2019-05-31T11:39:42Z</time>
      </trkpt>
      <trkpt lat="44.09748" lon="3.21023">
        <ele>678.7</ele>
        <time>2019-05-31T11:39:43Z</time>
      </trkpt>
      <trkpt lat="44.09744" lon="3.21021">
        <ele>678.8</ele>
        <time>2019-05-31T11:39:44Z</time>
      </trkpt>
      <trkpt lat="44.09741" lon="3.21017">
        <ele>678.8</ele>
        <time>2019-05-31T11:39:45Z</time>
      </trkpt>
      <trkpt lat="44.09736" lon="3.21013">
        <ele>678.8</ele>
        <time>2019-05-31T11:39:46Z</time>
      </trkpt>
      <trkpt lat="44.09731" lon="3.21011">
        <ele>678.8</ele>
        <time>2019-05-31T11:39:47Z</time>
      </trkpt>
      <trkpt lat="44.09727" lon="3.2101">
        <ele>678.9</ele>
        <time>2019-05-31T11:39:48Z</time>
      </trkpt>
      <trkpt lat="44.09721" lon="3.21008">
        <ele>679.3</ele>
        <time>2019-05-31T11:39:49Z</time>
      </trkpt>
      <trkpt lat="44.09715" lon="3.21006">
        <ele>679.4</ele>
        <time>2019-05-31T11:39:50Z</time>
      </trkpt>
      <trkpt lat="44.0971" lon="3.21006">
        <ele>679.3</ele>
        <time>2019-05-31T11:39:51Z</time>
      </trkpt>
      <trkpt lat="44.09706" lon="3.21008">
        <ele>679.5</ele>
        <time>2019-05-31T11:39:52Z</time>
      </trkpt>
      <trkpt lat="44.09702" lon="3.21008">
        <ele>679.6</ele>
        <time>2019-05-31T11:39:53Z</time>
      </trkpt>
      <trkpt lat="44.09699" lon="3.21007">
        <ele>679.7</ele>
        <time>2019-05-31T11:39:54Z</time>
      </trkpt>
      <trkpt lat="44.09694" lon="3.21006">
        <ele>679.9</ele>
        <time>2019-05-31T11:39:55Z</time>
      </trkpt>
      <trkpt lat="44.09689" lon="3.21004">
        <ele>680.1</ele>
        <time>2019-05-31T11:39:56Z</time>
      </trkpt>
      <trkpt lat="44.09682" lon="3.21003">
        <ele>680.5</ele>
        <time>2019-05-31T11:39:57Z</time>
      </trkpt>
      <trkpt lat="44.09676" lon="3.21001">
        <ele>680.8</ele>
        <time>2019-05-31T11:39:59Z</time>
      </trkpt>
      <trkpt lat="44.09673" lon="3.20999">
        <ele>681</ele>
        <time>2019-05-31T11:40:00Z</time>
      </trkpt>
      <trkpt lat="44.0967" lon="3.20999">
        <ele>681.3</ele>
        <time>2019-05-31T11:40:01Z</time>
      </trkpt>
      <trkpt lat="44.09666" lon="3.20998">
        <ele>681.3</ele>
        <time>2019-05-31T11:40:02Z</time>
      </trkpt>
      <trkpt lat="44.09661" lon="3.21001">
        <ele>681.5</ele>
        <time>2019-05-31T11:40:04Z</time>
      </trkpt>
      <trkpt lat="44.09654" lon="3.21001">
        <ele>682</ele>
        <time>2019-05-31T11:40:06Z</time>
      </trkpt>
      <trkpt lat="44.09648" lon="3.21001">
        <ele>682.3</ele>
        <time>2019-05-31T11:40:07Z</time>
      </trkpt>
      <trkpt lat="44.09645" lon="3.21002">
        <ele>682.6</ele>
        <time>2019-05-31T11:40:08Z</time>
      </trkpt>
      <trkpt lat="44.09642" lon="3.21004">
        <ele>682.9</ele>
        <time>2019-05-31T11:40:09Z</time>
      </trkpt>
      <trkpt lat="44.09638" lon="3.21005">
        <ele>683</ele>
        <time>2019-05-31T11:40:10Z</time>
      </trkpt>
      <trkpt lat="44.09635" lon="3.21005">
        <ele>683.1</ele>
        <time>2019-05-31T11:40:11Z</time>
      </trkpt>
      <trkpt lat="44.09632" lon="3.21006">
        <ele>683.2</ele>
        <time>2019-05-31T11:40:12Z</time>
      </trkpt>
      <trkpt lat="44.09629" lon="3.21006">
        <ele>683.3</ele>
        <time>2019-05-31T11:40:13Z</time>
      </trkpt>
      <trkpt lat="44.09625" lon="3.21005">
        <ele>683.4</ele>
        <time>2019-05-31T11:40:14Z</time>
      </trkpt>
      <trkpt lat="44.09622" lon="3.21005">
        <ele>683.4</ele>
        <time>2019-05-31T11:40:15Z</time>
      </trkpt>
      <trkpt lat="44.09619" lon="3.21003">
        <ele>683.3</ele>
        <time>2019-05-31T11:40:16Z</time>
      </trkpt>
      <trkpt lat="44.09616" lon="3.21">
        <ele>683.4</ele>
        <time>2019-05-31T11:40:17Z</time>
      </trkpt>
      <trkpt lat="44.09614" lon="3.20998">
        <ele>683.4</ele>
        <time>2019-05-31T11:40:18Z</time>
      </trkpt>
      <trkpt lat="44.09612" lon="3.20996">
        <ele>683.3</ele>
        <time>2019-05-31T11:40:19Z</time>
      </trkpt>
      <trkpt lat="44.09607" lon="3.20993">
        <ele>683.1</ele>
        <time>2019-05-31T11:40:21Z</time>
      </trkpt>
      <trkpt lat="44.09604" lon="3.2099">
        <ele>683.1</ele>
        <time>2019-05-31T11:40:23Z</time>
      </trkpt>
      <trkpt lat="44.09602" lon="3.20986">
        <ele>683</ele>
        <time>2019-05-31T11:40:25Z</time>
      </trkpt>
      <trkpt lat="44.09601" lon="3.20981">
        <ele>682.8</ele>
        <time>2019-05-31T11:40:26Z</time>
      </trkpt>
      <trkpt lat="44.09601" lon="3.20976">
        <ele>682.5</ele>
        <time>2019-05-31T11:40:27Z</time>
      </trkpt>
      <trkpt lat="44.096" lon="3.20971">
        <ele>682.4</ele>
        <time>2019-05-31T11:40:28Z</time>
      </trkpt>
      <trkpt lat="44.09597" lon="3.20966">
        <ele>682.3</ele>
        <time>2019-05-31T11:40:29Z</time>
      </trkpt>
      <trkpt lat="44.09595" lon="3.20962">
        <ele>682.2</ele>
        <time>2019-05-31T11:40:30Z</time>
      </trkpt>
      <trkpt lat="44.09592" lon="3.20958">
        <ele>682.2</ele>
        <time>2019-05-31T11:40:31Z</time>
      </trkpt>
      <trkpt lat="44.09589" lon="3.20954">
        <ele>682.2</ele>
        <time>2019-05-31T11:40:32Z</time>
      </trkpt>
      <trkpt lat="44.09588" lon="3.20951">
        <ele>682.2</ele>
        <time>2019-05-31T11:40:33Z</time>
      </trkpt>
      <trkpt lat="44.09585" lon="3.20946">
        <ele>682</ele>
        <time>2019-05-31T11:40:34Z</time>
      </trkpt>
      <trkpt lat="44.09582" lon="3.20942">
        <ele>682.1</ele>
        <time>2019-05-31T11:40:35Z</time>
      </trkpt>
      <trkpt lat="44.0958" lon="3.20938">
        <ele>682.2</ele>
        <time>2019-05-31T11:40:36Z</time>
      </trkpt>
      <trkpt lat="44.09578" lon="3.20935">
        <ele>682.3</ele>
        <time>2019-05-31T11:40:37Z</time>
      </trkpt>
      <trkpt lat="44.09575" lon="3.20932">
        <ele>682.5</ele>
        <time>2019-05-31T11:40:39Z</time>
      </trkpt>
      <trkpt lat="44.09572" lon="3.20928">
        <ele>682.7</ele>
        <time>2019-05-31T11:40:41Z</time>
      </trkpt>
      <trkpt lat="44.0957" lon="3.20926">
        <ele>682.7</ele>
        <time>2019-05-31T11:40:42Z</time>
      </trkpt>
      <trkpt lat="44.09567" lon="3.20923">
        <ele>683</ele>
        <time>2019-05-31T11:40:43Z</time>
      </trkpt>
      <trkpt lat="44.09565" lon="3.20921">
        <ele>683.4</ele>
        <time>2019-05-31T11:40:44Z</time>
      </trkpt>
      <trkpt lat="44.09561" lon="3.20916">
        <ele>683.9</ele>
        <time>2019-05-31T11:40:46Z</time>
      </trkpt>
      <trkpt lat="44.09559" lon="3.20913">
        <ele>684.1</ele>
        <time>2019-05-31T11:40:47Z</time>
      </trkpt>
      <trkpt lat="44.09557" lon="3.2091">
        <ele>684.6</ele>
        <time>2019-05-31T11:40:48Z</time>
      </trkpt>
      <trkpt lat="44.09554" lon="3.20907">
        <ele>685</ele>
        <time>2019-05-31T11:40:49Z</time>
      </trkpt>
      <trkpt lat="44.09551" lon="3.20902">
        <ele>685.5</ele>
        <time>2019-05-31T11:40:51Z</time>
      </trkpt>
      <trkpt lat="44.09548" lon="3.20897">
        <ele>686.1</ele>
        <time>2019-05-31T11:40:53Z</time>
      </trkpt>
      <trkpt lat="44.09546" lon="3.20892">
        <ele>686.8</ele>
        <time>2019-05-31T11:40:55Z</time>
      </trkpt>
      <trkpt lat="44.09544" lon="3.20887">
        <ele>687.9</ele>
        <time>2019-05-31T11:40:57Z</time>
      </trkpt>
      <trkpt lat="44.09541" lon="3.20884">
        <ele>688</ele>
        <time>2019-05-31T11:40:58Z</time>
      </trkpt>
      <trkpt lat="44.09539" lon="3.20881">
        <ele>688.4</ele>
        <time>2019-05-31T11:40:59Z</time>
      </trkpt>
      <trkpt lat="44.09535" lon="3.20877">
        <ele>689.1</ele>
        <time>2019-05-31T11:41:01Z</time>
      </trkpt>
      <trkpt lat="44.0953" lon="3.20873">
        <ele>689.6</ele>
        <time>2019-05-31T11:41:03Z</time>
      </trkpt>
      <trkpt lat="44.09527" lon="3.2087">
        <ele>689.7</ele>
        <time>2019-05-31T11:41:05Z</time>
      </trkpt>
      <trkpt lat="44.09525" lon="3.20867">
        <ele>690.2</ele>
        <time>2019-05-31T11:41:07Z</time>
      </trkpt>
      <trkpt lat="44.09522" lon="3.20863">
        <ele>690.7</ele>
        <time>2019-05-31T11:41:09Z</time>
      </trkpt>
      <trkpt lat="44.0952" lon="3.2086">
        <ele>691.2</ele>
        <time>2019-05-31T11:41:11Z</time>
      </trkpt>
      <trkpt lat="44.09516" lon="3.20856">
        <ele>691.7</ele>
        <time>2019-05-31T11:41:13Z</time>
      </trkpt>
      <trkpt lat="44.09514" lon="3.20854">
        <ele>691.7</ele>
        <time>2019-05-31T11:41:15Z</time>
      </trkpt>
      <trkpt lat="44.09511" lon="3.20852">
        <ele>692.2</ele>
        <time>2019-05-31T11:41:17Z</time>
      </trkpt>
      <trkpt lat="44.09509" lon="3.20849">
        <ele>692.3</ele>
        <time>2019-05-31T11:41:19Z</time>
      </trkpt>
      <trkpt lat="44.09507" lon="3.20845">
        <ele>692.9</ele>
        <time>2019-05-31T11:41:23Z</time>
      </trkpt>
      <trkpt lat="44.09505" lon="3.20841">
        <ele>693.4</ele>
        <time>2019-05-31T11:41:26Z</time>
      </trkpt>
      <trkpt lat="44.09503" lon="3.20836">
        <ele>694.1</ele>
        <time>2019-05-31T11:41:28Z</time>
      </trkpt>
      <trkpt lat="44.095" lon="3.20832">
        <ele>694.9</ele>
        <time>2019-05-31T11:41:30Z</time>
      </trkpt>
      <trkpt lat="44.09498" lon="3.20828">
        <ele>695.7</ele>
        <time>2019-05-31T11:41:32Z</time>
      </trkpt>
      <trkpt lat="44.09495" lon="3.20826">
        <ele>696.5</ele>
        <time>2019-05-31T11:41:34Z</time>
      </trkpt>
      <trkpt lat="44.09491" lon="3.20824">
        <ele>696.6</ele>
        <time>2019-05-31T11:41:36Z</time>
      </trkpt>
      <trkpt lat="44.09488" lon="3.20823">
        <ele>696.8</ele>
        <time>2019-05-31T11:41:44Z</time>
      </trkpt>
      <trkpt lat="44.09486" lon="3.20822">
        <ele>697.5</ele>
        <time>2019-05-31T11:41:49Z</time>
      </trkpt>
      <trkpt lat="44.09482" lon="3.20819">
        <ele>697.6</ele>
        <time>2019-05-31T11:41:52Z</time>
      </trkpt>
      <trkpt lat="44.09479" lon="3.20817">
        <ele>698.3</ele>
        <time>2019-05-31T11:41:54Z</time>
      </trkpt>
      <trkpt lat="44.09477" lon="3.20814">
        <ele>698.5</ele>
        <time>2019-05-31T11:41:56Z</time>
      </trkpt>
      <trkpt lat="44.09475" lon="3.20812">
        <ele>699</ele>
        <time>2019-05-31T11:41:58Z</time>
      </trkpt>
      <trkpt lat="44.09472" lon="3.20808">
        <ele>699.8</ele>
        <time>2019-05-31T11:42:01Z</time>
      </trkpt>
      <trkpt lat="44.09469" lon="3.20805">
        <ele>699.9</ele>
        <time>2019-05-31T11:42:03Z</time>
      </trkpt>
      <trkpt lat="44.09465" lon="3.20803">
        <ele>700.6</ele>
        <time>2019-05-31T11:42:05Z</time>
      </trkpt>
      <trkpt lat="44.09462" lon="3.208">
        <ele>701.8</ele>
        <time>2019-05-31T11:42:07Z</time>
      </trkpt>
      <trkpt lat="44.0946" lon="3.20797">
        <ele>701.9</ele>
        <time>2019-05-31T11:42:09Z</time>
      </trkpt>
      <trkpt lat="44.09457" lon="3.20794">
        <ele>702.7</ele>
        <time>2019-05-31T11:42:11Z</time>
      </trkpt>
      <trkpt lat="44.09455" lon="3.20791">
        <ele>703.4</ele>
        <time>2019-05-31T11:42:13Z</time>
      </trkpt>
      <trkpt lat="44.09453" lon="3.20789">
        <ele>703.5</ele>
        <time>2019-05-31T11:42:16Z</time>
      </trkpt>
      <trkpt lat="44.09449" lon="3.20788">
        <ele>703.6</ele>
        <time>2019-05-31T11:42:21Z</time>
      </trkpt>
      <trkpt lat="44.09446" lon="3.20786">
        <ele>704.4</ele>
        <time>2019-05-31T11:42:23Z</time>
      </trkpt>
      <trkpt lat="44.09443" lon="3.20784">
        <ele>705.3</ele>
        <time>2019-05-31T11:42:26Z</time>
      </trkpt>
      <trkpt lat="44.0944" lon="3.20782">
        <ele>705.3</ele>
        <time>2019-05-31T11:42:29Z</time>
      </trkpt>
      <trkpt lat="44.09437" lon="3.2078">
        <ele>705.5</ele>
        <time>2019-05-31T11:42:34Z</time>
      </trkpt>
      <trkpt lat="44.09435" lon="3.20779">
        <ele>706.3</ele>
        <time>2019-05-31T11:42:39Z</time>
      </trkpt>
      <trkpt lat="44.09431" lon="3.20779">
        <ele>706.4</ele>
        <time>2019-05-31T11:42:41Z</time>
      </trkpt>
      <trkpt lat="44.09428" lon="3.20777">
        <ele>706.5</ele>
        <time>2019-05-31T11:42:43Z</time>
      </trkpt>
      <trkpt lat="44.09424" lon="3.20775">
        <ele>707.4</ele>
        <time>2019-05-31T11:42:46Z</time>
      </trkpt>
      <trkpt lat="44.09421" lon="3.20774">
        <ele>707.6</ele>
        <time>2019-05-31T11:42:50Z</time>
      </trkpt>
      <trkpt lat="44.09417" lon="3.20773">
        <ele>707.7</ele>
        <time>2019-05-31T11:42:52Z</time>
      </trkpt>
      <trkpt lat="44.09414" lon="3.20771">
        <ele>707.8</ele>
        <time>2019-05-31T11:42:54Z</time>
      </trkpt>
      <trkpt lat="44.09412" lon="3.2077">
        <ele>708.6</ele>
        <time>2019-05-31T11:42:56Z</time>
      </trkpt>
      <trkpt lat="44.09408" lon="3.20769">
        <ele>708.7</ele>
        <time>2019-05-31T11:42:58Z</time>
      </trkpt>
      <trkpt lat="44.09405" lon="3.20768">
        <ele>708.8</ele>
        <time>2019-05-31T11:43:01Z</time>
      </trkpt>
      <trkpt lat="44.09403" lon="3.20765">
        <ele>709.4</ele>
        <time>2019-05-31T11:46:08Z</time>
      </trkpt>
      <trkpt lat="44.09401" lon="3.20761">
        <ele>710.1</ele>
        <time>2019-05-31T11:46:10Z</time>
      </trkpt>
      <trkpt lat="44.09399" lon="3.20758">
        <ele>710.7</ele>
        <time>2019-05-31T11:46:12Z</time>
      </trkpt>
      <trkpt lat="44.09396" lon="3.20754">
        <ele>711.4</ele>
        <time>2019-05-31T11:46:14Z</time>
      </trkpt>
      <trkpt lat="44.09393" lon="3.20749">
        <ele>711.4</ele>
        <time>2019-05-31T11:46:16Z</time>
      </trkpt>
      <trkpt lat="44.09391" lon="3.20747">
        <ele>712.1</ele>
        <time>2019-05-31T11:46:18Z</time>
      </trkpt>
      <trkpt lat="44.09388" lon="3.20746">
        <ele>712</ele>
        <time>2019-05-31T11:46:20Z</time>
      </trkpt>
      <trkpt lat="44.09387" lon="3.20742">
        <ele>712.7</ele>
        <time>2019-05-31T11:46:24Z</time>
      </trkpt>
      <trkpt lat="44.09387" lon="3.20738">
        <ele>713.3</ele>
        <time>2019-05-31T11:46:27Z</time>
      </trkpt>
      <trkpt lat="44.09384" lon="3.20733">
        <ele>713.9</ele>
        <time>2019-05-31T11:46:30Z</time>
      </trkpt>
      <trkpt lat="44.09382" lon="3.2073">
        <ele>714.5</ele>
        <time>2019-05-31T11:46:32Z</time>
      </trkpt>
      <trkpt lat="44.09378" lon="3.20726">
        <ele>715</ele>
        <time>2019-05-31T11:46:35Z</time>
      </trkpt>
      <trkpt lat="44.09375" lon="3.20723">
        <ele>715.7</ele>
        <time>2019-05-31T11:46:37Z</time>
      </trkpt>
      <trkpt lat="44.09371" lon="3.20721">
        <ele>715.7</ele>
        <time>2019-05-31T11:46:39Z</time>
      </trkpt>
      <trkpt lat="44.09368" lon="3.2072">
        <ele>715.7</ele>
        <time>2019-05-31T11:46:41Z</time>
      </trkpt>
      <trkpt lat="44.09367" lon="3.20717">
        <ele>716.3</ele>
        <time>2019-05-31T11:46:43Z</time>
      </trkpt>
      <trkpt lat="44.09366" lon="3.20713">
        <ele>716.9</ele>
        <time>2019-05-31T11:46:46Z</time>
      </trkpt>
      <trkpt lat="44.09362" lon="3.20709">
        <ele>717.6</ele>
        <time>2019-05-31T11:46:48Z</time>
      </trkpt>
      <trkpt lat="44.0936" lon="3.20706">
        <ele>717.6</ele>
        <time>2019-05-31T11:46:49Z</time>
      </trkpt>
      <trkpt lat="44.09357" lon="3.20703">
        <ele>718.3</ele>
        <time>2019-05-31T11:46:51Z</time>
      </trkpt>
      <trkpt lat="44.09354" lon="3.20699">
        <ele>719</ele>
        <time>2019-05-31T11:46:53Z</time>
      </trkpt>
      <trkpt lat="44.09351" lon="3.20696">
        <ele>719.6</ele>
        <time>2019-05-31T11:46:55Z</time>
      </trkpt>
      <trkpt lat="44.09348" lon="3.20692">
        <ele>720.2</ele>
        <time>2019-05-31T11:46:57Z</time>
      </trkpt>
      <trkpt lat="44.09345" lon="3.20686">
        <ele>720.8</ele>
        <time>2019-05-31T11:46:59Z</time>
      </trkpt>
      <trkpt lat="44.09342" lon="3.20681">
        <ele>721.3</ele>
        <time>2019-05-31T11:47:01Z</time>
      </trkpt>
      <trkpt lat="44.09339" lon="3.20676">
        <ele>722.4</ele>
        <time>2019-05-31T11:47:03Z</time>
      </trkpt>
      <trkpt lat="44.09338" lon="3.20672">
        <ele>722.4</ele>
        <time>2019-05-31T11:47:06Z</time>
      </trkpt>
      <trkpt lat="44.09337" lon="3.20668">
        <ele>722.9</ele>
        <time>2019-05-31T11:47:08Z</time>
      </trkpt>
      <trkpt lat="44.09334" lon="3.20663">
        <ele>724.3</ele>
        <time>2019-05-31T11:47:10Z</time>
      </trkpt>
      <trkpt lat="44.09332" lon="3.20656">
        <ele>724.9</ele>
        <time>2019-05-31T11:47:12Z</time>
      </trkpt>
      <trkpt lat="44.0933" lon="3.20653">
        <ele>725.7</ele>
        <time>2019-05-31T11:47:14Z</time>
      </trkpt>
      <trkpt lat="44.09327" lon="3.20651">
        <ele>726.4</ele>
        <time>2019-05-31T11:47:16Z</time>
      </trkpt>
      <trkpt lat="44.09324" lon="3.20646">
        <ele>727.1</ele>
        <time>2019-05-31T11:47:18Z</time>
      </trkpt>
      <trkpt lat="44.09322" lon="3.20643">
        <ele>727</ele>
        <time>2019-05-31T11:47:20Z</time>
      </trkpt>
      <trkpt lat="44.0932" lon="3.2064">
        <ele>727.7</ele>
        <time>2019-05-31T11:47:22Z</time>
      </trkpt>
      <trkpt lat="44.09317" lon="3.20638">
        <ele>728.4</ele>
        <time>2019-05-31T11:47:24Z</time>
      </trkpt>
      <trkpt lat="44.09314" lon="3.20635">
        <ele>728.3</ele>
        <time>2019-05-31T11:47:27Z</time>
      </trkpt>
      <trkpt lat="44.09312" lon="3.20632">
        <ele>728.9</ele>
        <time>2019-05-31T11:47:29Z</time>
      </trkpt>
      <trkpt lat="44.0931" lon="3.20629">
        <ele>729.5</ele>
        <time>2019-05-31T11:47:31Z</time>
      </trkpt>
      <trkpt lat="44.09307" lon="3.20627">
        <ele>729.3</ele>
        <time>2019-05-31T11:47:33Z</time>
      </trkpt>
      <trkpt lat="44.09304" lon="3.20623">
        <ele>730</ele>
        <time>2019-05-31T11:47:35Z</time>
      </trkpt>
      <trkpt lat="44.09301" lon="3.2062">
        <ele>730.6</ele>
        <time>2019-05-31T11:47:37Z</time>
      </trkpt>
      <trkpt lat="44.09299" lon="3.20617">
        <ele>730.4</ele>
        <time>2019-05-31T11:47:39Z</time>
      </trkpt>
      <trkpt lat="44.09296" lon="3.20615">
        <ele>731</ele>
        <time>2019-05-31T11:47:41Z</time>
      </trkpt>
      <trkpt lat="44.09294" lon="3.20611">
        <ele>731.6</ele>
        <time>2019-05-31T11:47:44Z</time>
      </trkpt>
      <trkpt lat="44.09291" lon="3.20607">
        <ele>732.1</ele>
        <time>2019-05-31T11:47:47Z</time>
      </trkpt>
      <trkpt lat="44.09287" lon="3.20603">
        <ele>732.7</ele>
        <time>2019-05-31T11:47:49Z</time>
      </trkpt>
      <trkpt lat="44.09284" lon="3.206">
        <ele>732.6</ele>
        <time>2019-05-31T11:47:51Z</time>
      </trkpt>
      <trkpt lat="44.09282" lon="3.20597">
        <ele>733.2</ele>
        <time>2019-05-31T11:47:53Z</time>
      </trkpt>
      <trkpt lat="44.0928" lon="3.20594">
        <ele>733.9</ele>
        <time>2019-05-31T11:47:55Z</time>
      </trkpt>
      <trkpt lat="44.09278" lon="3.20589">
        <ele>734.5</ele>
        <time>2019-05-31T11:47:57Z</time>
      </trkpt>
      <trkpt lat="44.09274" lon="3.20585">
        <ele>735.1</ele>
        <time>2019-05-31T11:47:59Z</time>
      </trkpt>
      <trkpt lat="44.09271" lon="3.20582">
        <ele>735.8</ele>
        <time>2019-05-31T11:48:01Z</time>
      </trkpt>
      <trkpt lat="44.09268" lon="3.20577">
        <ele>736.6</ele>
        <time>2019-05-31T11:48:04Z</time>
      </trkpt>
      <trkpt lat="44.09266" lon="3.20574">
        <ele>736.5</ele>
        <time>2019-05-31T11:48:06Z</time>
      </trkpt>
      <trkpt lat="44.09262" lon="3.2057">
        <ele>737.2</ele>
        <time>2019-05-31T11:48:08Z</time>
      </trkpt>
      <trkpt lat="44.0926" lon="3.20567">
        <ele>738</ele>
        <time>2019-05-31T11:48:10Z</time>
      </trkpt>
      <trkpt lat="44.09258" lon="3.20562">
        <ele>738.7</ele>
        <time>2019-05-31T11:48:12Z</time>
      </trkpt>
      <trkpt lat="44.09256" lon="3.20558">
        <ele>739.4</ele>
        <time>2019-05-31T11:48:14Z</time>
      </trkpt>
      <trkpt lat="44.09253" lon="3.20553">
        <ele>740.1</ele>
        <time>2019-05-31T11:48:16Z</time>
      </trkpt>
      <trkpt lat="44.0925" lon="3.2055">
        <ele>740.7</ele>
        <time>2019-05-31T11:48:21Z</time>
      </trkpt>
      <trkpt lat="44.09246" lon="3.20546">
        <ele>741.3</ele>
        <time>2019-05-31T11:48:23Z</time>
      </trkpt>
      <trkpt lat="44.09243" lon="3.20544">
        <ele>741.2</ele>
        <time>2019-05-31T11:48:25Z</time>
      </trkpt>
      <trkpt lat="44.09239" lon="3.20539">
        <ele>741.7</ele>
        <time>2019-05-31T11:48:27Z</time>
      </trkpt>
      <trkpt lat="44.09235" lon="3.20535">
        <ele>742.3</ele>
        <time>2019-05-31T11:48:29Z</time>
      </trkpt>
      <trkpt lat="44.09233" lon="3.20533">
        <ele>743</ele>
        <time>2019-05-31T11:48:31Z</time>
      </trkpt>
      <trkpt lat="44.09232" lon="3.20529">
        <ele>743.8</ele>
        <time>2019-05-31T11:48:34Z</time>
      </trkpt>
      <trkpt lat="44.09231" lon="3.20526">
        <ele>744.6</ele>
        <time>2019-05-31T11:48:38Z</time>
      </trkpt>
      <trkpt lat="44.09227" lon="3.20525">
        <ele>744.4</ele>
        <time>2019-05-31T11:48:40Z</time>
      </trkpt>
      <trkpt lat="44.09224" lon="3.20523">
        <ele>744.1</ele>
        <time>2019-05-31T11:48:42Z</time>
      </trkpt>
      <trkpt lat="44.09221" lon="3.20521">
        <ele>744.7</ele>
        <time>2019-05-31T11:48:45Z</time>
      </trkpt>
      <trkpt lat="44.09218" lon="3.20517">
        <ele>745.2</ele>
        <time>2019-05-31T11:48:48Z</time>
      </trkpt>
      <trkpt lat="44.09217" lon="3.20513">
        <ele>744.9</ele>
        <time>2019-05-31T11:48:51Z</time>
      </trkpt>
      <trkpt lat="44.09213" lon="3.20511">
        <ele>745.4</ele>
        <time>2019-05-31T11:48:54Z</time>
      </trkpt>
      <trkpt lat="44.09211" lon="3.20508">
        <ele>745.9</ele>
        <time>2019-05-31T11:48:57Z</time>
      </trkpt>
      <trkpt lat="44.09208" lon="3.20504">
        <ele>746.4</ele>
        <time>2019-05-31T11:49:01Z</time>
      </trkpt>
      <trkpt lat="44.09206" lon="3.20501">
        <ele>746.4</ele>
        <time>2019-05-31T11:49:04Z</time>
      </trkpt>
      <trkpt lat="44.09204" lon="3.20498">
        <ele>747</ele>
        <time>2019-05-31T11:49:06Z</time>
      </trkpt>
      <trkpt lat="44.09201" lon="3.20495">
        <ele>747.5</ele>
        <time>2019-05-31T11:49:08Z</time>
      </trkpt>
      <trkpt lat="44.09198" lon="3.20493">
        <ele>747.4</ele>
        <time>2019-05-31T11:49:10Z</time>
      </trkpt>
      <trkpt lat="44.09195" lon="3.20491">
        <ele>748</ele>
        <time>2019-05-31T11:49:12Z</time>
      </trkpt>
      <trkpt lat="44.09192" lon="3.20489">
        <ele>747.9</ele>
        <time>2019-05-31T11:49:14Z</time>
      </trkpt>
      <trkpt lat="44.09189" lon="3.20486">
        <ele>748.5</ele>
        <time>2019-05-31T11:49:16Z</time>
      </trkpt>
      <trkpt lat="44.09186" lon="3.20483">
        <ele>749</ele>
        <time>2019-05-31T11:49:18Z</time>
      </trkpt>
      <trkpt lat="44.09184" lon="3.2048">
        <ele>749</ele>
        <time>2019-05-31T11:49:20Z</time>
      </trkpt>
      <trkpt lat="44.09182" lon="3.20477">
        <ele>749.6</ele>
        <time>2019-05-31T11:49:22Z</time>
      </trkpt>
      <trkpt lat="44.09179" lon="3.20475">
        <ele>749.4</ele>
        <time>2019-05-31T11:49:25Z</time>
      </trkpt>
      <trkpt lat="44.09177" lon="3.20472">
        <ele>749.9</ele>
        <time>2019-05-31T11:49:29Z</time>
      </trkpt>
      <trkpt lat="44.09175" lon="3.20468">
        <ele>750.4</ele>
        <time>2019-05-31T11:49:33Z</time>
      </trkpt>
      <trkpt lat="44.09172" lon="3.20465">
        <ele>750.9</ele>
        <time>2019-05-31T11:49:39Z</time>
      </trkpt>
      <trkpt lat="44.09169" lon="3.20463">
        <ele>750.8</ele>
        <time>2019-05-31T11:49:43Z</time>
      </trkpt>
      <trkpt lat="44.09166" lon="3.2046">
        <ele>751.1</ele>
        <time>2019-05-31T11:49:45Z</time>
      </trkpt>
      <trkpt lat="44.09163" lon="3.20458">
        <ele>751</ele>
        <time>2019-05-31T11:49:47Z</time>
      </trkpt>
      <trkpt lat="44.09162" lon="3.20454">
        <ele>751.3</ele>
        <time>2019-05-31T11:49:50Z</time>
      </trkpt>
      <trkpt lat="44.0916" lon="3.20449">
        <ele>751.8</ele>
        <time>2019-05-31T11:49:53Z</time>
      </trkpt>
      <trkpt lat="44.09159" lon="3.20443">
        <ele>752.6</ele>
        <time>2019-05-31T11:49:56Z</time>
      </trkpt>
      <trkpt lat="44.09158" lon="3.20438">
        <ele>753.1</ele>
        <time>2019-05-31T11:49:58Z</time>
      </trkpt>
      <trkpt lat="44.09159" lon="3.20435">
        <ele>753.6</ele>
        <time>2019-05-31T11:50:01Z</time>
      </trkpt>
      <trkpt lat="44.0916" lon="3.2043">
        <ele>754.3</ele>
        <time>2019-05-31T11:50:04Z</time>
      </trkpt>
      <trkpt lat="44.09162" lon="3.20426">
        <ele>754.8</ele>
        <time>2019-05-31T11:50:06Z</time>
      </trkpt>
      <trkpt lat="44.09164" lon="3.20424">
        <ele>755</ele>
        <time>2019-05-31T11:50:08Z</time>
      </trkpt>
      <trkpt lat="44.09167" lon="3.20423">
        <ele>755.7</ele>
        <time>2019-05-31T11:50:11Z</time>
      </trkpt>
      <trkpt lat="44.09169" lon="3.20418">
        <ele>756.4</ele>
        <time>2019-05-31T11:50:14Z</time>
      </trkpt>
      <trkpt lat="44.09171" lon="3.20415">
        <ele>756.4</ele>
        <time>2019-05-31T11:50:17Z</time>
      </trkpt>
      <trkpt lat="44.09172" lon="3.20411">
        <ele>757.1</ele>
        <time>2019-05-31T11:50:20Z</time>
      </trkpt>
      <trkpt lat="44.09174" lon="3.20405">
        <ele>757.9</ele>
        <time>2019-05-31T11:50:22Z</time>
      </trkpt>
      <trkpt lat="44.09175" lon="3.20401">
        <ele>758.3</ele>
        <time>2019-05-31T11:50:23Z</time>
      </trkpt>
      <trkpt lat="44.09175" lon="3.20397">
        <ele>758.8</ele>
        <time>2019-05-31T11:50:24Z</time>
      </trkpt>
      <trkpt lat="44.09177" lon="3.20392">
        <ele>759.2</ele>
        <time>2019-05-31T11:50:26Z</time>
      </trkpt>
      <trkpt lat="44.0918" lon="3.20391">
        <ele>759.4</ele>
        <time>2019-05-31T11:50:27Z</time>
      </trkpt>
      <trkpt lat="44.09183" lon="3.20391">
        <ele>759.6</ele>
        <time>2019-05-31T11:50:28Z</time>
      </trkpt>
      <trkpt lat="44.09186" lon="3.20388">
        <ele>760.1</ele>
        <time>2019-05-31T11:50:31Z</time>
      </trkpt>
      <trkpt lat="44.09189" lon="3.20386">
        <ele>760.3</ele>
        <time>2019-05-31T11:50:33Z</time>
      </trkpt>
      <trkpt lat="44.09191" lon="3.20385">
        <ele>760.6</ele>
        <time>2019-05-31T11:50:35Z</time>
      </trkpt>
      <trkpt lat="44.09194" lon="3.20384">
        <ele>761.1</ele>
        <time>2019-05-31T11:50:37Z</time>
      </trkpt>
      <trkpt lat="44.09197" lon="3.20381">
        <ele>761.4</ele>
        <time>2019-05-31T11:50:40Z</time>
      </trkpt>
      <trkpt lat="44.092" lon="3.20378">
        <ele>761.9</ele>
        <time>2019-05-31T11:50:42Z</time>
      </trkpt>
      <trkpt lat="44.09203" lon="3.20373">
        <ele>762.4</ele>
        <time>2019-05-31T11:50:44Z</time>
      </trkpt>
      <trkpt lat="44.09205" lon="3.20369">
        <ele>762.7</ele>
        <time>2019-05-31T11:50:46Z</time>
      </trkpt>
      <trkpt lat="44.09208" lon="3.20363">
        <ele>763.4</ele>
        <time>2019-05-31T11:50:48Z</time>
      </trkpt>
      <trkpt lat="44.09209" lon="3.2036">
        <ele>763.6</ele>
        <time>2019-05-31T11:50:50Z</time>
      </trkpt>
      <trkpt lat="44.0921" lon="3.20355">
        <ele>763.8</ele>
        <time>2019-05-31T11:50:52Z</time>
      </trkpt>
      <trkpt lat="44.09212" lon="3.2035">
        <ele>764.5</ele>
        <time>2019-05-31T11:50:54Z</time>
      </trkpt>
      <trkpt lat="44.09213" lon="3.20344">
        <ele>764.8</ele>
        <time>2019-05-31T11:50:56Z</time>
      </trkpt>
      <trkpt lat="44.09212" lon="3.20337">
        <ele>765.3</ele>
        <time>2019-05-31T11:50:58Z</time>
      </trkpt>
      <trkpt lat="44.0921" lon="3.20331">
        <ele>765.2</ele>
        <time>2019-05-31T11:51:00Z</time>
      </trkpt>
      <trkpt lat="44.09208" lon="3.20325">
        <ele>765.2</ele>
        <time>2019-05-31T11:51:02Z</time>
      </trkpt>
      <trkpt lat="44.09208" lon="3.2032">
        <ele>765.6</ele>
        <time>2019-05-31T11:51:04Z</time>
      </trkpt>
      <trkpt lat="44.09209" lon="3.20315">
        <ele>765.8</ele>
        <time>2019-05-31T11:51:06Z</time>
      </trkpt>
      <trkpt lat="44.09209" lon="3.2031">
        <ele>766.4</ele>
        <time>2019-05-31T11:51:09Z</time>
      </trkpt>
      <trkpt lat="44.09211" lon="3.20304">
        <ele>766.6</ele>
        <time>2019-05-31T11:51:11Z</time>
      </trkpt>
      <trkpt lat="44.09213" lon="3.20301">
        <ele>767.2</ele>
        <time>2019-05-31T11:51:12Z</time>
      </trkpt>
      <trkpt lat="44.09215" lon="3.20296">
        <ele>767.7</ele>
        <time>2019-05-31T11:51:14Z</time>
      </trkpt>
      <trkpt lat="44.09214" lon="3.2029">
        <ele>767.7</ele>
        <time>2019-05-31T11:51:16Z</time>
      </trkpt>
      <trkpt lat="44.09212" lon="3.20287">
        <ele>767.9</ele>
        <time>2019-05-31T11:51:17Z</time>
      </trkpt>
      <trkpt lat="44.09209" lon="3.20284">
        <ele>767.9</ele>
        <time>2019-05-31T11:51:18Z</time>
      </trkpt>
      <trkpt lat="44.09207" lon="3.20282">
        <ele>767.6</ele>
        <time>2019-05-31T11:51:19Z</time>
      </trkpt>
      <trkpt lat="44.09204" lon="3.2028">
        <ele>767.6</ele>
        <time>2019-05-31T11:51:20Z</time>
      </trkpt>
      <trkpt lat="44.09202" lon="3.20278">
        <ele>767.4</ele>
        <time>2019-05-31T11:51:21Z</time>
      </trkpt>
      <trkpt lat="44.09197" lon="3.20275">
        <ele>767.3</ele>
        <time>2019-05-31T11:51:23Z</time>
      </trkpt>
      <trkpt lat="44.09195" lon="3.20271">
        <ele>767.2</ele>
        <time>2019-05-31T11:51:26Z</time>
      </trkpt>
      <trkpt lat="44.09194" lon="3.20267">
        <ele>767.4</ele>
        <time>2019-05-31T11:51:29Z</time>
      </trkpt>
      <trkpt lat="44.09192" lon="3.20263">
        <ele>767.3</ele>
        <time>2019-05-31T11:51:31Z</time>
      </trkpt>
      <trkpt lat="44.09191" lon="3.20258">
        <ele>767.4</ele>
        <time>2019-05-31T11:51:33Z</time>
      </trkpt>
      <trkpt lat="44.09189" lon="3.20253">
        <ele>767.3</ele>
        <time>2019-05-31T11:51:35Z</time>
      </trkpt>
      <trkpt lat="44.09188" lon="3.20249">
        <ele>767.5</ele>
        <time>2019-05-31T11:51:36Z</time>
      </trkpt>
      <trkpt lat="44.09185" lon="3.20244">
        <ele>767.4</ele>
        <time>2019-05-31T11:51:38Z</time>
      </trkpt>
      <trkpt lat="44.09183" lon="3.20239">
        <ele>767.4</ele>
        <time>2019-05-31T11:51:40Z</time>
      </trkpt>
      <trkpt lat="44.0918" lon="3.20235">
        <ele>767.1</ele>
        <time>2019-05-31T11:51:42Z</time>
      </trkpt>
      <trkpt lat="44.09177" lon="3.20231">
        <ele>767</ele>
        <time>2019-05-31T11:51:44Z</time>
      </trkpt>
      <trkpt lat="44.09174" lon="3.20228">
        <ele>766.9</ele>
        <time>2019-05-31T11:51:46Z</time>
      </trkpt>
      <trkpt lat="44.09171" lon="3.20224">
        <ele>766.9</ele>
        <time>2019-05-31T11:51:48Z</time>
      </trkpt>
      <trkpt lat="44.09169" lon="3.2022">
        <ele>767.1</ele>
        <time>2019-05-31T11:51:50Z</time>
      </trkpt>
      <trkpt lat="44.09167" lon="3.20216">
        <ele>767.1</ele>
        <time>2019-05-31T11:51:52Z</time>
      </trkpt>
      <trkpt lat="44.09166" lon="3.20211">
        <ele>767.4</ele>
        <time>2019-05-31T11:51:55Z</time>
      </trkpt>
      <trkpt lat="44.09163" lon="3.20209">
        <ele>767.2</ele>
        <time>2019-05-31T11:51:58Z</time>
      </trkpt>
      <trkpt lat="44.0916" lon="3.20207">
        <ele>767.2</ele>
        <time>2019-05-31T11:52:01Z</time>
      </trkpt>
      <trkpt lat="44.09159" lon="3.20204">
        <ele>767.1</ele>
        <time>2019-05-31T11:52:05Z</time>
      </trkpt>
      <trkpt lat="44.09157" lon="3.20193">
        <ele>767.6</ele>
        <time>2019-05-31T11:55:17Z</time>
      </trkpt>
      <trkpt lat="44.09155" lon="3.20189">
        <ele>767.6</ele>
        <time>2019-05-31T11:55:19Z</time>
      </trkpt>
      <trkpt lat="44.09152" lon="3.20185">
        <ele>767.6</ele>
        <time>2019-05-31T11:55:22Z</time>
      </trkpt>
      <trkpt lat="44.09152" lon="3.20181">
        <ele>767.7</ele>
        <time>2019-05-31T11:55:24Z</time>
      </trkpt>
      <trkpt lat="44.09152" lon="3.20174">
        <ele>767.8</ele>
        <time>2019-05-31T11:55:26Z</time>
      </trkpt>
      <trkpt lat="44.09151" lon="3.2017">
        <ele>767.9</ele>
        <time>2019-05-31T11:55:27Z</time>
      </trkpt>
      <trkpt lat="44.0915" lon="3.20163">
        <ele>767.7</ele>
        <time>2019-05-31T11:55:29Z</time>
      </trkpt>
      <trkpt lat="44.09147" lon="3.20158">
        <ele>767.7</ele>
        <time>2019-05-31T11:55:30Z</time>
      </trkpt>
      <trkpt lat="44.09144" lon="3.20153">
        <ele>767.4</ele>
        <time>2019-05-31T11:55:31Z</time>
      </trkpt>
      <trkpt lat="44.09142" lon="3.20148">
        <ele>767.1</ele>
        <time>2019-05-31T11:55:32Z</time>
      </trkpt>
      <trkpt lat="44.09139" lon="3.20144">
        <ele>766.7</ele>
        <time>2019-05-31T11:55:33Z</time>
      </trkpt>
      <trkpt lat="44.09137" lon="3.20139">
        <ele>766.4</ele>
        <time>2019-05-31T11:55:34Z</time>
      </trkpt>
      <trkpt lat="44.09134" lon="3.20134">
        <ele>766</ele>
        <time>2019-05-31T11:55:35Z</time>
      </trkpt>
      <trkpt lat="44.09133" lon="3.2013">
        <ele>765.9</ele>
        <time>2019-05-31T11:55:36Z</time>
      </trkpt>
      <trkpt lat="44.09134" lon="3.20125">
        <ele>765.8</ele>
        <time>2019-05-31T11:55:37Z</time>
      </trkpt>
      <trkpt lat="44.09141" lon="3.2011">
        <ele>765.8</ele>
        <time>2019-05-31T11:55:38Z</time>
      </trkpt>
      <trkpt lat="44.09138" lon="3.20098">
        <ele>765.5</ele>
        <time>2019-05-31T11:55:39Z</time>
      </trkpt>
      <trkpt lat="44.09137" lon="3.2009">
        <ele>765</ele>
        <time>2019-05-31T11:55:40Z</time>
      </trkpt>
      <trkpt lat="44.09137" lon="3.20085">
        <ele>764.9</ele>
        <time>2019-05-31T11:55:41Z</time>
      </trkpt>
      <trkpt lat="44.09132" lon="3.20076">
        <ele>764.2</ele>
        <time>2019-05-31T11:55:42Z</time>
      </trkpt>
      <trkpt lat="44.09131" lon="3.20065">
        <ele>763.6</ele>
        <time>2019-05-31T11:55:43Z</time>
      </trkpt>
      <trkpt lat="44.09131" lon="3.20055">
        <ele>763.2</ele>
        <time>2019-05-31T11:55:44Z</time>
      </trkpt>
      <trkpt lat="44.09127" lon="3.20045">
        <ele>762.5</ele>
        <time>2019-05-31T11:55:45Z</time>
      </trkpt>
      <trkpt lat="44.09125" lon="3.20037">
        <ele>762.1</ele>
        <time>2019-05-31T11:55:46Z</time>
      </trkpt>
      <trkpt lat="44.09122" lon="3.20028">
        <ele>761.6</ele>
        <time>2019-05-31T11:55:47Z</time>
      </trkpt>
      <trkpt lat="44.09126" lon="3.20022">
        <ele>761.7</ele>
        <time>2019-05-31T11:55:48Z</time>
      </trkpt>
      <trkpt lat="44.09126" lon="3.20017">
        <ele>761.5</ele>
        <time>2019-05-31T11:55:49Z</time>
      </trkpt>
      <trkpt lat="44.09126" lon="3.20007">
        <ele>761.1</ele>
        <time>2019-05-31T11:55:50Z</time>
      </trkpt>
      <trkpt lat="44.09128" lon="3.2">
        <ele>760.7</ele>
        <time>2019-05-31T11:55:51Z</time>
      </trkpt>
      <trkpt lat="44.09129" lon="3.19992">
        <ele>760.5</ele>
        <time>2019-05-31T11:55:52Z</time>
      </trkpt>
      <trkpt lat="44.09126" lon="3.19983">
        <ele>759.8</ele>
        <time>2019-05-31T11:55:53Z</time>
      </trkpt>
      <trkpt lat="44.09125" lon="3.19977">
        <ele>759.2</ele>
        <time>2019-05-31T11:55:54Z</time>
      </trkpt>
      <trkpt lat="44.09122" lon="3.19967">
        <ele>758.3</ele>
        <time>2019-05-31T11:55:55Z</time>
      </trkpt>
      <trkpt lat="44.0912" lon="3.19957">
        <ele>757.9</ele>
        <time>2019-05-31T11:55:56Z</time>
      </trkpt>
      <trkpt lat="44.09117" lon="3.19947">
        <ele>757.3</ele>
        <time>2019-05-31T11:55:57Z</time>
      </trkpt>
      <trkpt lat="44.09114" lon="3.19939">
        <ele>756.6</ele>
        <time>2019-05-31T11:55:58Z</time>
      </trkpt>
      <trkpt lat="44.09109" lon="3.19933">
        <ele>755.7</ele>
        <time>2019-05-31T11:55:59Z</time>
      </trkpt>
      <trkpt lat="44.09106" lon="3.19925">
        <ele>755</ele>
        <time>2019-05-31T11:56:00Z</time>
      </trkpt>
      <trkpt lat="44.09101" lon="3.19918">
        <ele>754.5</ele>
        <time>2019-05-31T11:56:01Z</time>
      </trkpt>
      <trkpt lat="44.09097" lon="3.19912">
        <ele>753.4</ele>
        <time>2019-05-31T11:56:02Z</time>
      </trkpt>
      <trkpt lat="44.09087" lon="3.19914">
        <ele>753.1</ele>
        <time>2019-05-31T11:56:03Z</time>
      </trkpt>
      <trkpt lat="44.09082" lon="3.19914">
        <ele>752.6</ele>
        <time>2019-05-31T11:56:04Z</time>
      </trkpt>
      <trkpt lat="44.09076" lon="3.19914">
        <ele>752.1</ele>
        <time>2019-05-31T11:56:05Z</time>
      </trkpt>
      <trkpt lat="44.09064" lon="3.19915">
        <ele>751.3</ele>
        <time>2019-05-31T11:56:06Z</time>
      </trkpt>
      <trkpt lat="44.09057" lon="3.19915">
        <ele>750.3</ele>
        <time>2019-05-31T11:56:07Z</time>
      </trkpt>
      <trkpt lat="44.09049" lon="3.19918">
        <ele>750</ele>
        <time>2019-05-31T11:56:08Z</time>
      </trkpt>
      <trkpt lat="44.09042" lon="3.19921">
        <ele>749.1</ele>
        <time>2019-05-31T11:56:09Z</time>
      </trkpt>
      <trkpt lat="44.09035" lon="3.19924">
        <ele>748.9</ele>
        <time>2019-05-31T11:56:10Z</time>
      </trkpt>
      <trkpt lat="44.09027" lon="3.19921">
        <ele>748.1</ele>
        <time>2019-05-31T11:56:11Z</time>
      </trkpt>
      <trkpt lat="44.09021" lon="3.19919">
        <ele>747.7</ele>
        <time>2019-05-31T11:56:12Z</time>
      </trkpt>
      <trkpt lat="44.09015" lon="3.19918">
        <ele>747.4</ele>
        <time>2019-05-31T11:56:13Z</time>
      </trkpt>
      <trkpt lat="44.09008" lon="3.19916">
        <ele>746.8</ele>
        <time>2019-05-31T11:56:14Z</time>
      </trkpt>
      <trkpt lat="44.09002" lon="3.19915">
        <ele>746.4</ele>
        <time>2019-05-31T11:56:15Z</time>
      </trkpt>
      <trkpt lat="44.08995" lon="3.19915">
        <ele>746.2</ele>
        <time>2019-05-31T11:56:16Z</time>
      </trkpt>
      <trkpt lat="44.0899" lon="3.19909">
        <ele>745.8</ele>
        <time>2019-05-31T11:56:17Z</time>
      </trkpt>
      <trkpt lat="44.08985" lon="3.19903">
        <ele>745.2</ele>
        <time>2019-05-31T11:56:18Z</time>
      </trkpt>
      <trkpt lat="44.0898" lon="3.19895">
        <ele>744.8</ele>
        <time>2019-05-31T11:56:19Z</time>
      </trkpt>
      <trkpt lat="44.08976" lon="3.1989">
        <ele>744.3</ele>
        <time>2019-05-31T11:56:20Z</time>
      </trkpt>
      <trkpt lat="44.08972" lon="3.19886">
        <ele>744.1</ele>
        <time>2019-05-31T11:56:21Z</time>
      </trkpt>
      <trkpt lat="44.08968" lon="3.19879">
        <ele>744</ele>
        <time>2019-05-31T11:56:22Z</time>
      </trkpt>
      <trkpt lat="44.08964" lon="3.19873">
        <ele>743.7</ele>
        <time>2019-05-31T11:56:23Z</time>
      </trkpt>
      <trkpt lat="44.08961" lon="3.19867">
        <ele>743.6</ele>
        <time>2019-05-31T11:56:24Z</time>
      </trkpt>
      <trkpt lat="44.08958" lon="3.19861">
        <ele>743.4</ele>
        <time>2019-05-31T11:56:25Z</time>
      </trkpt>
      <trkpt lat="44.08954" lon="3.19854">
        <ele>743.3</ele>
        <time>2019-05-31T11:56:26Z</time>
      </trkpt>
      <trkpt lat="44.0895" lon="3.1985">
        <ele>743.2</ele>
        <time>2019-05-31T11:56:27Z</time>
      </trkpt>
      <trkpt lat="44.08947" lon="3.19844">
        <ele>743.2</ele>
        <time>2019-05-31T11:56:28Z</time>
      </trkpt>
      <trkpt lat="44.08944" lon="3.19839">
        <ele>743.1</ele>
        <time>2019-05-31T11:56:29Z</time>
      </trkpt>
      <trkpt lat="44.08941" lon="3.19834">
        <ele>743.1</ele>
        <time>2019-05-31T11:56:30Z</time>
      </trkpt>
      <trkpt lat="44.08937" lon="3.19829">
        <ele>743.2</ele>
        <time>2019-05-31T11:56:31Z</time>
      </trkpt>
      <trkpt lat="44.08935" lon="3.19824">
        <ele>743.1</ele>
        <time>2019-05-31T11:56:32Z</time>
      </trkpt>
      <trkpt lat="44.08932" lon="3.19819">
        <ele>743.1</ele>
        <time>2019-05-31T11:56:33Z</time>
      </trkpt>
      <trkpt lat="44.0893" lon="3.19815">
        <ele>743.1</ele>
        <time>2019-05-31T11:56:34Z</time>
      </trkpt>
      <trkpt lat="44.08927" lon="3.19811">
        <ele>743.2</ele>
        <time>2019-05-31T11:56:35Z</time>
      </trkpt>
      <trkpt lat="44.08925" lon="3.19807">
        <ele>743.2</ele>
        <time>2019-05-31T11:56:36Z</time>
      </trkpt>
      <trkpt lat="44.08922" lon="3.19801">
        <ele>743.3</ele>
        <time>2019-05-31T11:56:37Z</time>
      </trkpt>
      <trkpt lat="44.0892" lon="3.19798">
        <ele>743.2</ele>
        <time>2019-05-31T11:56:38Z</time>
      </trkpt>
      <trkpt lat="44.08918" lon="3.19794">
        <ele>743.3</ele>
        <time>2019-05-31T11:56:39Z</time>
      </trkpt>
      <trkpt lat="44.08917" lon="3.19788">
        <ele>743.2</ele>
        <time>2019-05-31T11:56:40Z</time>
      </trkpt>
      <trkpt lat="44.08914" lon="3.19784">
        <ele>743.3</ele>
        <time>2019-05-31T11:56:41Z</time>
      </trkpt>
      <trkpt lat="44.08912" lon="3.19782">
        <ele>743.4</ele>
        <time>2019-05-31T11:56:42Z</time>
      </trkpt>
      <trkpt lat="44.08912" lon="3.19777">
        <ele>743.3</ele>
        <time>2019-05-31T11:56:43Z</time>
      </trkpt>
      <trkpt lat="44.0891" lon="3.19773">
        <ele>743.3</ele>
        <time>2019-05-31T11:56:44Z</time>
      </trkpt>
      <trkpt lat="44.08907" lon="3.19769">
        <ele>743.4</ele>
        <time>2019-05-31T11:56:45Z</time>
      </trkpt>
      <trkpt lat="44.08905" lon="3.19766">
        <ele>743.5</ele>
        <time>2019-05-31T11:56:46Z</time>
      </trkpt>
      <trkpt lat="44.08903" lon="3.19762">
        <ele>743.6</ele>
        <time>2019-05-31T11:56:47Z</time>
      </trkpt>
      <trkpt lat="44.08901" lon="3.19758">
        <ele>743.6</ele>
        <time>2019-05-31T11:56:48Z</time>
      </trkpt>
      <trkpt lat="44.08898" lon="3.19755">
        <ele>743.8</ele>
        <time>2019-05-31T11:56:49Z</time>
      </trkpt>
      <trkpt lat="44.08895" lon="3.19753">
        <ele>743.9</ele>
        <time>2019-05-31T11:56:50Z</time>
      </trkpt>
      <trkpt lat="44.08892" lon="3.19751">
        <ele>744</ele>
        <time>2019-05-31T11:56:51Z</time>
      </trkpt>
      <trkpt lat="44.08889" lon="3.19748">
        <ele>744.1</ele>
        <time>2019-05-31T11:56:53Z</time>
      </trkpt>
      <trkpt lat="44.08886" lon="3.19746">
        <ele>744.2</ele>
        <time>2019-05-31T11:56:58Z</time>
      </trkpt>
      <trkpt lat="44.08885" lon="3.19742">
        <ele>744.2</ele>
        <time>2019-05-31T11:57:34Z</time>
      </trkpt>
      <trkpt lat="44.08883" lon="3.19738">
        <ele>744.3</ele>
        <time>2019-05-31T11:57:37Z</time>
      </trkpt>
      <trkpt lat="44.08881" lon="3.19735">
        <ele>744.4</ele>
        <time>2019-05-31T11:57:39Z</time>
      </trkpt>
      <trkpt lat="44.08878" lon="3.19731">
        <ele>744.5</ele>
        <time>2019-05-31T11:57:41Z</time>
      </trkpt>
      <trkpt lat="44.08875" lon="3.19728">
        <ele>744.6</ele>
        <time>2019-05-31T11:57:42Z</time>
      </trkpt>
      <trkpt lat="44.08873" lon="3.19726">
        <ele>744.6</ele>
        <time>2019-05-31T11:57:43Z</time>
      </trkpt>
      <trkpt lat="44.0887" lon="3.19725">
        <ele>744.7</ele>
        <time>2019-05-31T11:57:44Z</time>
      </trkpt>
      <trkpt lat="44.08868" lon="3.19723">
        <ele>744.8</ele>
        <time>2019-05-31T11:57:45Z</time>
      </trkpt>
      <trkpt lat="44.08865" lon="3.19722">
        <ele>744.9</ele>
        <time>2019-05-31T11:57:46Z</time>
      </trkpt>
      <trkpt lat="44.0886" lon="3.1972">
        <ele>745</ele>
        <time>2019-05-31T11:57:48Z</time>
      </trkpt>
      <trkpt lat="44.08857" lon="3.19718">
        <ele>745</ele>
        <time>2019-05-31T11:57:50Z</time>
      </trkpt>
      <trkpt lat="44.08854" lon="3.19717">
        <ele>745.2</ele>
        <time>2019-05-31T11:57:52Z</time>
      </trkpt>
      <trkpt lat="44.08851" lon="3.19713">
        <ele>745.3</ele>
        <time>2019-05-31T11:57:54Z</time>
      </trkpt>
      <trkpt lat="44.08848" lon="3.19707">
        <ele>745.3</ele>
        <time>2019-05-31T11:57:56Z</time>
      </trkpt>
      <trkpt lat="44.08847" lon="3.197">
        <ele>745.3</ele>
        <time>2019-05-31T11:57:58Z</time>
      </trkpt>
      <trkpt lat="44.08847" lon="3.19695">
        <ele>745.2</ele>
        <time>2019-05-31T11:57:59Z</time>
      </trkpt>
      <trkpt lat="44.08848" lon="3.19691">
        <ele>745.2</ele>
        <time>2019-05-31T11:58:00Z</time>
      </trkpt>
      <trkpt lat="44.0885" lon="3.19686">
        <ele>745.1</ele>
        <time>2019-05-31T11:58:01Z</time>
      </trkpt>
      <trkpt lat="44.08851" lon="3.19681">
        <ele>745</ele>
        <time>2019-05-31T11:58:02Z</time>
      </trkpt>
      <trkpt lat="44.08852" lon="3.19677">
        <ele>745</ele>
        <time>2019-05-31T11:58:03Z</time>
      </trkpt>
      <trkpt lat="44.08853" lon="3.19672">
        <ele>744.9</ele>
        <time>2019-05-31T11:58:04Z</time>
      </trkpt>
      <trkpt lat="44.08853" lon="3.19668">
        <ele>744.9</ele>
        <time>2019-05-31T11:58:05Z</time>
      </trkpt>
      <trkpt lat="44.08852" lon="3.19664">
        <ele>744.9</ele>
        <time>2019-05-31T11:58:06Z</time>
      </trkpt>
      <trkpt lat="44.08851" lon="3.19661">
        <ele>744.9</ele>
        <time>2019-05-31T11:58:07Z</time>
      </trkpt>
      <trkpt lat="44.08849" lon="3.19657">
        <ele>744.9</ele>
        <time>2019-05-31T11:58:08Z</time>
      </trkpt>
      <trkpt lat="44.08846" lon="3.19654">
        <ele>745</ele>
        <time>2019-05-31T11:58:09Z</time>
      </trkpt>
      <trkpt lat="44.08843" lon="3.19651">
        <ele>745.1</ele>
        <time>2019-05-31T11:58:10Z</time>
      </trkpt>
      <trkpt lat="44.0884" lon="3.19648">
        <ele>745.2</ele>
        <time>2019-05-31T11:58:11Z</time>
      </trkpt>
      <trkpt lat="44.08838" lon="3.19647">
        <ele>745.3</ele>
        <time>2019-05-31T11:58:12Z</time>
      </trkpt>
      <trkpt lat="44.08835" lon="3.19645">
        <ele>745.4</ele>
        <time>2019-05-31T11:58:13Z</time>
      </trkpt>
      <trkpt lat="44.08832" lon="3.19643">
        <ele>745.5</ele>
        <time>2019-05-31T11:58:14Z</time>
      </trkpt>
      <trkpt lat="44.08829" lon="3.1964">
        <ele>745.6</ele>
        <time>2019-05-31T11:58:15Z</time>
      </trkpt>
      <trkpt lat="44.08825" lon="3.19637">
        <ele>745.7</ele>
        <time>2019-05-31T11:58:16Z</time>
      </trkpt>
      <trkpt lat="44.08822" lon="3.19635">
        <ele>745.8</ele>
        <time>2019-05-31T11:58:17Z</time>
      </trkpt>
      <trkpt lat="44.08819" lon="3.19633">
        <ele>745.9</ele>
        <time>2019-05-31T11:58:18Z</time>
      </trkpt>
      <trkpt lat="44.08816" lon="3.19631">
        <ele>746.1</ele>
        <time>2019-05-31T11:58:19Z</time>
      </trkpt>
      <trkpt lat="44.08813" lon="3.19629">
        <ele>746.3</ele>
        <time>2019-05-31T11:58:20Z</time>
      </trkpt>
      <trkpt lat="44.0881" lon="3.19627">
        <ele>746.5</ele>
        <time>2019-05-31T11:58:21Z</time>
      </trkpt>
      <trkpt lat="44.08807" lon="3.19625">
        <ele>746.6</ele>
        <time>2019-05-31T11:58:22Z</time>
      </trkpt>
      <trkpt lat="44.08804" lon="3.19623">
        <ele>746.8</ele>
        <time>2019-05-31T11:58:23Z</time>
      </trkpt>
      <trkpt lat="44.08802" lon="3.19621">
        <ele>747</ele>
        <time>2019-05-31T11:58:24Z</time>
      </trkpt>
      <trkpt lat="44.08799" lon="3.19619">
        <ele>747.2</ele>
        <time>2019-05-31T11:58:25Z</time>
      </trkpt>
      <trkpt lat="44.08796" lon="3.19617">
        <ele>747.4</ele>
        <time>2019-05-31T11:58:26Z</time>
      </trkpt>
      <trkpt lat="44.08793" lon="3.19615">
        <ele>747.6</ele>
        <time>2019-05-31T11:58:27Z</time>
      </trkpt>
      <trkpt lat="44.08789" lon="3.19611">
        <ele>747.9</ele>
        <time>2019-05-31T11:58:29Z</time>
      </trkpt>
      <trkpt lat="44.08786" lon="3.19609">
        <ele>748.1</ele>
        <time>2019-05-31T11:58:30Z</time>
      </trkpt>
      <trkpt lat="44.08783" lon="3.19607">
        <ele>748.3</ele>
        <time>2019-05-31T11:58:31Z</time>
      </trkpt>
      <trkpt lat="44.08781" lon="3.19604">
        <ele>748.5</ele>
        <time>2019-05-31T11:58:32Z</time>
      </trkpt>
      <trkpt lat="44.08779" lon="3.19601">
        <ele>748.6</ele>
        <time>2019-05-31T11:58:33Z</time>
      </trkpt>
      <trkpt lat="44.08777" lon="3.19599">
        <ele>748.8</ele>
        <time>2019-05-31T11:58:34Z</time>
      </trkpt>
      <trkpt lat="44.08774" lon="3.19597">
        <ele>748.9</ele>
        <time>2019-05-31T11:58:35Z</time>
      </trkpt>
      <trkpt lat="44.08772" lon="3.19595">
        <ele>749.1</ele>
        <time>2019-05-31T11:58:36Z</time>
      </trkpt>
      <trkpt lat="44.08769" lon="3.19593">
        <ele>749.2</ele>
        <time>2019-05-31T11:58:37Z</time>
      </trkpt>
      <trkpt lat="44.08767" lon="3.1959">
        <ele>749.4</ele>
        <time>2019-05-31T11:58:38Z</time>
      </trkpt>
      <trkpt lat="44.08764" lon="3.19588">
        <ele>749.6</ele>
        <time>2019-05-31T11:58:39Z</time>
      </trkpt>
      <trkpt lat="44.08759" lon="3.19585">
        <ele>749.9</ele>
        <time>2019-05-31T11:58:41Z</time>
      </trkpt>
      <trkpt lat="44.08755" lon="3.19581">
        <ele>750.1</ele>
        <time>2019-05-31T11:58:43Z</time>
      </trkpt>
      <trkpt lat="44.08753" lon="3.19579">
        <ele>750.3</ele>
        <time>2019-05-31T11:58:44Z</time>
      </trkpt>
      <trkpt lat="44.0875" lon="3.19576">
        <ele>750.5</ele>
        <time>2019-05-31T11:58:45Z</time>
      </trkpt>
      <trkpt lat="44.08748" lon="3.19574">
        <ele>750.7</ele>
        <time>2019-05-31T11:58:46Z</time>
      </trkpt>
      <trkpt lat="44.08745" lon="3.19571">
        <ele>750.9</ele>
        <time>2019-05-31T11:58:47Z</time>
      </trkpt>
      <trkpt lat="44.08743" lon="3.19568">
        <ele>751</ele>
        <time>2019-05-31T11:58:48Z</time>
      </trkpt>
      <trkpt lat="44.08741" lon="3.19566">
        <ele>751.2</ele>
        <time>2019-05-31T11:58:49Z</time>
      </trkpt>
      <trkpt lat="44.08736" lon="3.19562">
        <ele>751.5</ele>
        <time>2019-05-31T11:58:51Z</time>
      </trkpt>
      <trkpt lat="44.08733" lon="3.19559">
        <ele>751.7</ele>
        <time>2019-05-31T11:58:52Z</time>
      </trkpt>
      <trkpt lat="44.08731" lon="3.19557">
        <ele>751.9</ele>
        <time>2019-05-31T11:58:53Z</time>
      </trkpt>
      <trkpt lat="44.08727" lon="3.19553">
        <ele>752.1</ele>
        <time>2019-05-31T11:58:55Z</time>
      </trkpt>
      <trkpt lat="44.08724" lon="3.19548">
        <ele>752.4</ele>
        <time>2019-05-31T11:58:57Z</time>
      </trkpt>
      <trkpt lat="44.08721" lon="3.19544">
        <ele>752.7</ele>
        <time>2019-05-31T11:58:59Z</time>
      </trkpt>
      <trkpt lat="44.08717" lon="3.1954">
        <ele>752.9</ele>
        <time>2019-05-31T11:59:01Z</time>
      </trkpt>
      <trkpt lat="44.08712" lon="3.19536">
        <ele>753.2</ele>
        <time>2019-05-31T11:59:03Z</time>
      </trkpt>
      <trkpt lat="44.08708" lon="3.19533">
        <ele>753.4</ele>
        <time>2019-05-31T11:59:05Z</time>
      </trkpt>
      <trkpt lat="44.08706" lon="3.19531">
        <ele>753.6</ele>
        <time>2019-05-31T11:59:06Z</time>
      </trkpt>
      <trkpt lat="44.08702" lon="3.19527">
        <ele>753.8</ele>
        <time>2019-05-31T11:59:08Z</time>
      </trkpt>
      <trkpt lat="44.08697" lon="3.19523">
        <ele>754.1</ele>
        <time>2019-05-31T11:59:10Z</time>
      </trkpt>
      <trkpt lat="44.08695" lon="3.19521">
        <ele>754.2</ele>
        <time>2019-05-31T11:59:11Z</time>
      </trkpt>
      <trkpt lat="44.0869" lon="3.19517">
        <ele>754.5</ele>
        <time>2019-05-31T11:59:13Z</time>
      </trkpt>
      <trkpt lat="44.08688" lon="3.19515">
        <ele>754.6</ele>
        <time>2019-05-31T11:59:14Z</time>
      </trkpt>
      <trkpt lat="44.08685" lon="3.19514">
        <ele>754.7</ele>
        <time>2019-05-31T11:59:15Z</time>
      </trkpt>
      <trkpt lat="44.08683" lon="3.19512">
        <ele>754.9</ele>
        <time>2019-05-31T11:59:16Z</time>
      </trkpt>
      <trkpt lat="44.0868" lon="3.1951">
        <ele>755</ele>
        <time>2019-05-31T11:59:17Z</time>
      </trkpt>
      <trkpt lat="44.08675" lon="3.19507">
        <ele>755.3</ele>
        <time>2019-05-31T11:59:19Z</time>
      </trkpt>
      <trkpt lat="44.0867" lon="3.19503">
        <ele>755.6</ele>
        <time>2019-05-31T11:59:21Z</time>
      </trkpt>
      <trkpt lat="44.08667" lon="3.19501">
        <ele>755.7</ele>
        <time>2019-05-31T11:59:22Z</time>
      </trkpt>
      <trkpt lat="44.08665" lon="3.19498">
        <ele>755.9</ele>
        <time>2019-05-31T11:59:23Z</time>
      </trkpt>
      <trkpt lat="44.08662" lon="3.19496">
        <ele>756</ele>
        <time>2019-05-31T11:59:24Z</time>
      </trkpt>
      <trkpt lat="44.08658" lon="3.19491">
        <ele>756.3</ele>
        <time>2019-05-31T11:59:26Z</time>
      </trkpt>
      <trkpt lat="44.08657" lon="3.19488">
        <ele>756.4</ele>
        <time>2019-05-31T11:59:27Z</time>
      </trkpt>
      <trkpt lat="44.08654" lon="3.19483">
        <ele>756.6</ele>
        <time>2019-05-31T11:59:29Z</time>
      </trkpt>
      <trkpt lat="44.08654" lon="3.19479">
        <ele>756.7</ele>
        <time>2019-05-31T11:59:30Z</time>
      </trkpt>
      <trkpt lat="44.08653" lon="3.19474">
        <ele>756.9</ele>
        <time>2019-05-31T11:59:31Z</time>
      </trkpt>
      <trkpt lat="44.08653" lon="3.19468">
        <ele>757.1</ele>
        <time>2019-05-31T11:59:33Z</time>
      </trkpt>
      <trkpt lat="44.08653" lon="3.19461">
        <ele>757.3</ele>
        <time>2019-05-31T11:59:35Z</time>
      </trkpt>
      <trkpt lat="44.08654" lon="3.19458">
        <ele>757.5</ele>
        <time>2019-05-31T11:59:37Z</time>
      </trkpt>
      <trkpt lat="44.08656" lon="3.19452">
        <ele>757.7</ele>
        <time>2019-05-31T11:59:39Z</time>
      </trkpt>
      <trkpt lat="44.08657" lon="3.19446">
        <ele>757.9</ele>
        <time>2019-05-31T11:59:41Z</time>
      </trkpt>
      <trkpt lat="44.08658" lon="3.1944">
        <ele>758.1</ele>
        <time>2019-05-31T11:59:43Z</time>
      </trkpt>
      <trkpt lat="44.08658" lon="3.19436">
        <ele>758.2</ele>
        <time>2019-05-31T11:59:44Z</time>
      </trkpt>
      <trkpt lat="44.08659" lon="3.19431">
        <ele>758.4</ele>
        <time>2019-05-31T11:59:45Z</time>
      </trkpt>
      <trkpt lat="44.08659" lon="3.19428">
        <ele>758.5</ele>
        <time>2019-05-31T11:59:46Z</time>
      </trkpt>
      <trkpt lat="44.0866" lon="3.19424">
        <ele>758.6</ele>
        <time>2019-05-31T11:59:47Z</time>
      </trkpt>
      <trkpt lat="44.0866" lon="3.19419">
        <ele>758.7</ele>
        <time>2019-05-31T11:59:48Z</time>
      </trkpt>
      <trkpt lat="44.08661" lon="3.19415">
        <ele>758.9</ele>
        <time>2019-05-31T11:59:49Z</time>
      </trkpt>
      <trkpt lat="44.08662" lon="3.19411">
        <ele>759</ele>
        <time>2019-05-31T11:59:50Z</time>
      </trkpt>
      <trkpt lat="44.08663" lon="3.19402">
        <ele>759.2</ele>
        <time>2019-05-31T11:59:52Z</time>
      </trkpt>
      <trkpt lat="44.08663" lon="3.19398">
        <ele>759.3</ele>
        <time>2019-05-31T11:59:53Z</time>
      </trkpt>
      <trkpt lat="44.08662" lon="3.19392">
        <ele>759.5</ele>
        <time>2019-05-31T11:59:55Z</time>
      </trkpt>
      <trkpt lat="44.08661" lon="3.19384">
        <ele>759.8</ele>
        <time>2019-05-31T11:59:57Z</time>
      </trkpt>
      <trkpt lat="44.08661" lon="3.1938">
        <ele>759.9</ele>
        <time>2019-05-31T11:59:58Z</time>
      </trkpt>
      <trkpt lat="44.0866" lon="3.19376">
        <ele>760</ele>
        <time>2019-05-31T11:59:59Z</time>
      </trkpt>
      <trkpt lat="44.0866" lon="3.19369">
        <ele>760.2</ele>
        <time>2019-05-31T12:00:01Z</time>
      </trkpt>
      <trkpt lat="44.0866" lon="3.19361">
        <ele>760.4</ele>
        <time>2019-05-31T12:00:03Z</time>
      </trkpt>
      <trkpt lat="44.0866" lon="3.19355">
        <ele>760.6</ele>
        <time>2019-05-31T12:00:05Z</time>
      </trkpt>
      <trkpt lat="44.0866" lon="3.19351">
        <ele>760.7</ele>
        <time>2019-05-31T12:00:06Z</time>
      </trkpt>
      <trkpt lat="44.0866" lon="3.19346">
        <ele>760.9</ele>
        <time>2019-05-31T12:00:07Z</time>
      </trkpt>
      <trkpt lat="44.0866" lon="3.19341">
        <ele>761.1</ele>
        <time>2019-05-31T12:00:08Z</time>
      </trkpt>
      <trkpt lat="44.0866" lon="3.19337">
        <ele>761.2</ele>
        <time>2019-05-31T12:00:09Z</time>
      </trkpt>
      <trkpt lat="44.08659" lon="3.19333">
        <ele>761.4</ele>
        <time>2019-05-31T12:00:10Z</time>
      </trkpt>
      <trkpt lat="44.0866" lon="3.19329">
        <ele>761.5</ele>
        <time>2019-05-31T12:00:11Z</time>
      </trkpt>
      <trkpt lat="44.08661" lon="3.19325">
        <ele>761.7</ele>
        <time>2019-05-31T12:00:12Z</time>
      </trkpt>
      <trkpt lat="44.08661" lon="3.1932">
        <ele>761.8</ele>
        <time>2019-05-31T12:00:13Z</time>
      </trkpt>
      <trkpt lat="44.08661" lon="3.19316">
        <ele>762</ele>
        <time>2019-05-31T12:00:14Z</time>
      </trkpt>
      <trkpt lat="44.08661" lon="3.19312">
        <ele>762.2</ele>
        <time>2019-05-31T12:00:15Z</time>
      </trkpt>
      <trkpt lat="44.08662" lon="3.19307">
        <ele>762.4</ele>
        <time>2019-05-31T12:00:16Z</time>
      </trkpt>
      <trkpt lat="44.08662" lon="3.19303">
        <ele>762.5</ele>
        <time>2019-05-31T12:00:17Z</time>
      </trkpt>
      <trkpt lat="44.08662" lon="3.19295">
        <ele>762.9</ele>
        <time>2019-05-31T12:00:19Z</time>
      </trkpt>
      <trkpt lat="44.08662" lon="3.19291">
        <ele>763.1</ele>
        <time>2019-05-31T12:00:20Z</time>
      </trkpt>
      <trkpt lat="44.08662" lon="3.19286">
        <ele>763.3</ele>
        <time>2019-05-31T12:00:21Z</time>
      </trkpt>
      <trkpt lat="44.08662" lon="3.1928">
        <ele>763.6</ele>
        <time>2019-05-31T12:00:23Z</time>
      </trkpt>
      <trkpt lat="44.08662" lon="3.19275">
        <ele>763.8</ele>
        <time>2019-05-31T12:00:24Z</time>
      </trkpt>
      <trkpt lat="44.08662" lon="3.1927">
        <ele>764</ele>
        <time>2019-05-31T12:00:25Z</time>
      </trkpt>
      <trkpt lat="44.08662" lon="3.19266">
        <ele>764.2</ele>
        <time>2019-05-31T12:00:26Z</time>
      </trkpt>
      <trkpt lat="44.08662" lon="3.19262">
        <ele>764.4</ele>
        <time>2019-05-31T12:00:27Z</time>
      </trkpt>
      <trkpt lat="44.08663" lon="3.19255">
        <ele>764.7</ele>
        <time>2019-05-31T12:00:29Z</time>
      </trkpt>
      <trkpt lat="44.08664" lon="3.19248">
        <ele>765.1</ele>
        <time>2019-05-31T12:00:31Z</time>
      </trkpt>
      <trkpt lat="44.08664" lon="3.19243">
        <ele>765.3</ele>
        <time>2019-05-31T12:00:33Z</time>
      </trkpt>
      <trkpt lat="44.08665" lon="3.19236">
        <ele>765.7</ele>
        <time>2019-05-31T12:00:35Z</time>
      </trkpt>
      <trkpt lat="44.08665" lon="3.19232">
        <ele>765.9</ele>
        <time>2019-05-31T12:00:36Z</time>
      </trkpt>
      <trkpt lat="44.08665" lon="3.19227">
        <ele>766.1</ele>
        <time>2019-05-31T12:00:37Z</time>
      </trkpt>
      <trkpt lat="44.08666" lon="3.19221">
        <ele>766.4</ele>
        <time>2019-05-31T12:00:39Z</time>
      </trkpt>
      <trkpt lat="44.08667" lon="3.19216">
        <ele>766.7</ele>
        <time>2019-05-31T12:00:41Z</time>
      </trkpt>
      <trkpt lat="44.08668" lon="3.19208">
        <ele>767.1</ele>
        <time>2019-05-31T12:00:43Z</time>
      </trkpt>
      <trkpt lat="44.08669" lon="3.19204">
        <ele>767.4</ele>
        <time>2019-05-31T12:00:44Z</time>
      </trkpt>
      <trkpt lat="44.08669" lon="3.192">
        <ele>767.6</ele>
        <time>2019-05-31T12:00:45Z</time>
      </trkpt>
      <trkpt lat="44.08668" lon="3.19193">
        <ele>768</ele>
        <time>2019-05-31T12:00:47Z</time>
      </trkpt>
      <trkpt lat="44.08667" lon="3.19187">
        <ele>768.3</ele>
        <time>2019-05-31T12:00:49Z</time>
      </trkpt>
      <trkpt lat="44.08666" lon="3.19182">
        <ele>768.6</ele>
        <time>2019-05-31T12:00:51Z</time>
      </trkpt>
      <trkpt lat="44.08665" lon="3.19177">
        <ele>768.9</ele>
        <time>2019-05-31T12:00:53Z</time>
      </trkpt>
      <trkpt lat="44.08665" lon="3.19172">
        <ele>769.1</ele>
        <time>2019-05-31T12:00:54Z</time>
      </trkpt>
      <trkpt lat="44.08664" lon="3.19166">
        <ele>769.4</ele>
        <time>2019-05-31T12:00:56Z</time>
      </trkpt>
      <trkpt lat="44.08663" lon="3.19162">
        <ele>769.7</ele>
        <time>2019-05-31T12:00:58Z</time>
      </trkpt>
      <trkpt lat="44.08661" lon="3.19156">
        <ele>770</ele>
        <time>2019-05-31T12:01:00Z</time>
      </trkpt>
      <trkpt lat="44.08659" lon="3.19151">
        <ele>770.3</ele>
        <time>2019-05-31T12:01:02Z</time>
      </trkpt>
      <trkpt lat="44.08656" lon="3.19147">
        <ele>770.5</ele>
        <time>2019-05-31T12:01:04Z</time>
      </trkpt>
      <trkpt lat="44.08653" lon="3.19144">
        <ele>770.8</ele>
        <time>2019-05-31T12:01:06Z</time>
      </trkpt>
      <trkpt lat="44.0865" lon="3.19141">
        <ele>771</ele>
        <time>2019-05-31T12:01:08Z</time>
      </trkpt>
      <trkpt lat="44.08645" lon="3.19138">
        <ele>771.4</ele>
        <time>2019-05-31T12:01:10Z</time>
      </trkpt>
      <trkpt lat="44.08643" lon="3.19136">
        <ele>771.6</ele>
        <time>2019-05-31T12:01:11Z</time>
      </trkpt>
      <trkpt lat="44.08639" lon="3.19134">
        <ele>771.9</ele>
        <time>2019-05-31T12:01:13Z</time>
      </trkpt>
      <trkpt lat="44.08636" lon="3.19131">
        <ele>772.1</ele>
        <time>2019-05-31T12:01:15Z</time>
      </trkpt>
      <trkpt lat="44.08632" lon="3.19129">
        <ele>772.3</ele>
        <time>2019-05-31T12:01:17Z</time>
      </trkpt>
      <trkpt lat="44.08628" lon="3.19129">
        <ele>772.6</ele>
        <time>2019-05-31T12:01:19Z</time>
      </trkpt>
      <trkpt lat="44.08624" lon="3.1913">
        <ele>772.8</ele>
        <time>2019-05-31T12:01:21Z</time>
      </trkpt>
      <trkpt lat="44.08619" lon="3.1913">
        <ele>773</ele>
        <time>2019-05-31T12:01:23Z</time>
      </trkpt>
      <trkpt lat="44.08617" lon="3.19131">
        <ele>773.1</ele>
        <time>2019-05-31T12:01:24Z</time>
      </trkpt>
      <trkpt lat="44.08614" lon="3.19131">
        <ele>773.3</ele>
        <time>2019-05-31T12:01:25Z</time>
      </trkpt>
      <trkpt lat="44.08611" lon="3.19131">
        <ele>773.4</ele>
        <time>2019-05-31T12:01:26Z</time>
      </trkpt>
      <trkpt lat="44.08606" lon="3.19131">
        <ele>773.6</ele>
        <time>2019-05-31T12:01:28Z</time>
      </trkpt>
      <trkpt lat="44.08604" lon="3.19132">
        <ele>773.8</ele>
        <time>2019-05-31T12:01:29Z</time>
      </trkpt>
      <trkpt lat="44.08601" lon="3.19132">
        <ele>773.9</ele>
        <time>2019-05-31T12:01:30Z</time>
      </trkpt>
      <trkpt lat="44.08597" lon="3.19134">
        <ele>774.2</ele>
        <time>2019-05-31T12:01:32Z</time>
      </trkpt>
      <trkpt lat="44.08593" lon="3.19137">
        <ele>774.5</ele>
        <time>2019-05-31T12:01:34Z</time>
      </trkpt>
      <trkpt lat="44.08589" lon="3.19139">
        <ele>774.8</ele>
        <time>2019-05-31T12:01:36Z</time>
      </trkpt>
      <trkpt lat="44.08585" lon="3.19141">
        <ele>775</ele>
        <time>2019-05-31T12:01:38Z</time>
      </trkpt>
      <trkpt lat="44.08581" lon="3.19142">
        <ele>775.3</ele>
        <time>2019-05-31T12:01:40Z</time>
      </trkpt>
      <trkpt lat="44.08577" lon="3.19144">
        <ele>775.6</ele>
        <time>2019-05-31T12:01:42Z</time>
      </trkpt>
      <trkpt lat="44.08573" lon="3.19146">
        <ele>776.1</ele>
        <time>2019-05-31T12:01:44Z</time>
      </trkpt>
      <trkpt lat="44.0857" lon="3.19147">
        <ele>776.4</ele>
        <time>2019-05-31T12:01:45Z</time>
      </trkpt>
      <trkpt lat="44.08565" lon="3.1915">
        <ele>776.8</ele>
        <time>2019-05-31T12:01:47Z</time>
      </trkpt>
      <trkpt lat="44.0856" lon="3.19152">
        <ele>777.3</ele>
        <time>2019-05-31T12:01:49Z</time>
      </trkpt>
      <trkpt lat="44.08556" lon="3.19153">
        <ele>777.7</ele>
        <time>2019-05-31T12:01:51Z</time>
      </trkpt>
      <trkpt lat="44.08551" lon="3.19155">
        <ele>778.1</ele>
        <time>2019-05-31T12:01:53Z</time>
      </trkpt>
      <trkpt lat="44.08548" lon="3.19155">
        <ele>778.3</ele>
        <time>2019-05-31T12:01:55Z</time>
      </trkpt>
      <trkpt lat="44.08543" lon="3.19155">
        <ele>778.7</ele>
        <time>2019-05-31T12:01:57Z</time>
      </trkpt>
      <trkpt lat="44.0854" lon="3.19155">
        <ele>779</ele>
        <time>2019-05-31T12:01:59Z</time>
      </trkpt>
      <trkpt lat="44.08537" lon="3.19155">
        <ele>779.2</ele>
        <time>2019-05-31T12:02:00Z</time>
      </trkpt>
      <trkpt lat="44.08534" lon="3.19154">
        <ele>779.4</ele>
        <time>2019-05-31T12:02:01Z</time>
      </trkpt>
      <trkpt lat="44.08528" lon="3.19153">
        <ele>779.8</ele>
        <time>2019-05-31T12:02:03Z</time>
      </trkpt>
      <trkpt lat="44.08524" lon="3.19152">
        <ele>780.1</ele>
        <time>2019-05-31T12:02:05Z</time>
      </trkpt>
      <trkpt lat="44.0852" lon="3.1915">
        <ele>780.3</ele>
        <time>2019-05-31T12:02:08Z</time>
      </trkpt>
      <trkpt lat="44.08517" lon="3.19147">
        <ele>780.5</ele>
        <time>2019-05-31T12:02:10Z</time>
      </trkpt>
      <trkpt lat="44.08513" lon="3.19144">
        <ele>780.8</ele>
        <time>2019-05-31T12:02:12Z</time>
      </trkpt>
      <trkpt lat="44.08509" lon="3.19142">
        <ele>781.1</ele>
        <time>2019-05-31T12:02:14Z</time>
      </trkpt>
      <trkpt lat="44.08507" lon="3.19139">
        <ele>781.2</ele>
        <time>2019-05-31T12:02:16Z</time>
      </trkpt>
      <trkpt lat="44.08507" lon="3.19135">
        <ele>781.4</ele>
        <time>2019-05-31T12:02:18Z</time>
      </trkpt>
      <trkpt lat="44.08507" lon="3.19131">
        <ele>781.6</ele>
        <time>2019-05-31T12:02:20Z</time>
      </trkpt>
      <trkpt lat="44.08505" lon="3.19127">
        <ele>781.8</ele>
        <time>2019-05-31T12:02:22Z</time>
      </trkpt>
      <trkpt lat="44.08503" lon="3.19125">
        <ele>782</ele>
        <time>2019-05-31T12:02:23Z</time>
      </trkpt>
      <trkpt lat="44.08499" lon="3.1912">
        <ele>782.3</ele>
        <time>2019-05-31T12:02:25Z</time>
      </trkpt>
      <trkpt lat="44.08495" lon="3.19117">
        <ele>782.6</ele>
        <time>2019-05-31T12:02:27Z</time>
      </trkpt>
      <trkpt lat="44.08492" lon="3.19115">
        <ele>782.7</ele>
        <time>2019-05-31T12:02:29Z</time>
      </trkpt>
      <trkpt lat="44.0849" lon="3.19112">
        <ele>782.9</ele>
        <time>2019-05-31T12:02:31Z</time>
      </trkpt>
      <trkpt lat="44.08487" lon="3.19107">
        <ele>783.2</ele>
        <time>2019-05-31T12:02:34Z</time>
      </trkpt>
      <trkpt lat="44.08483" lon="3.19103">
        <ele>783.5</ele>
        <time>2019-05-31T12:02:36Z</time>
      </trkpt>
      <trkpt lat="44.08479" lon="3.19102">
        <ele>783.7</ele>
        <time>2019-05-31T12:02:38Z</time>
      </trkpt>
      <trkpt lat="44.08475" lon="3.19099">
        <ele>784</ele>
        <time>2019-05-31T12:02:40Z</time>
      </trkpt>
      <trkpt lat="44.08472" lon="3.19095">
        <ele>784.2</ele>
        <time>2019-05-31T12:02:42Z</time>
      </trkpt>
      <trkpt lat="44.0847" lon="3.1909">
        <ele>784.4</ele>
        <time>2019-05-31T12:02:44Z</time>
      </trkpt>
      <trkpt lat="44.08466" lon="3.19086">
        <ele>784.7</ele>
        <time>2019-05-31T12:02:46Z</time>
      </trkpt>
      <trkpt lat="44.08464" lon="3.19085">
        <ele>784.9</ele>
        <time>2019-05-31T12:02:47Z</time>
      </trkpt>
      <trkpt lat="44.08461" lon="3.19083">
        <ele>785.1</ele>
        <time>2019-05-31T12:02:48Z</time>
      </trkpt>
      <trkpt lat="44.08458" lon="3.19082">
        <ele>785.3</ele>
        <time>2019-05-31T12:02:49Z</time>
      </trkpt>
      <trkpt lat="44.08454" lon="3.19078">
        <ele>785.7</ele>
        <time>2019-05-31T12:02:51Z</time>
      </trkpt>
      <trkpt lat="44.08451" lon="3.19074">
        <ele>786</ele>
        <time>2019-05-31T12:02:53Z</time>
      </trkpt>
      <trkpt lat="44.08447" lon="3.19071">
        <ele>786.3</ele>
        <time>2019-05-31T12:02:55Z</time>
      </trkpt>
      <trkpt lat="44.08444" lon="3.19066">
        <ele>786.6</ele>
        <time>2019-05-31T12:02:57Z</time>
      </trkpt>
      <trkpt lat="44.08441" lon="3.19062">
        <ele>786.9</ele>
        <time>2019-05-31T12:02:59Z</time>
      </trkpt>
      <trkpt lat="44.08437" lon="3.19058">
        <ele>787.3</ele>
        <time>2019-05-31T12:03:01Z</time>
      </trkpt>
      <trkpt lat="44.08435" lon="3.19053">
        <ele>787.6</ele>
        <time>2019-05-31T12:03:03Z</time>
      </trkpt>
      <trkpt lat="44.08432" lon="3.1905">
        <ele>787.9</ele>
        <time>2019-05-31T12:03:05Z</time>
      </trkpt>
      <trkpt lat="44.08429" lon="3.19048">
        <ele>788.2</ele>
        <time>2019-05-31T12:03:07Z</time>
      </trkpt>
      <trkpt lat="44.08426" lon="3.19044">
        <ele>788.6</ele>
        <time>2019-05-31T12:03:09Z</time>
      </trkpt>
      <trkpt lat="44.08423" lon="3.1904">
        <ele>789</ele>
        <time>2019-05-31T12:03:11Z</time>
      </trkpt>
      <trkpt lat="44.0842" lon="3.19034">
        <ele>789.4</ele>
        <time>2019-05-31T12:03:13Z</time>
      </trkpt>
      <trkpt lat="44.08418" lon="3.1903">
        <ele>789.8</ele>
        <time>2019-05-31T12:03:15Z</time>
      </trkpt>
      <trkpt lat="44.08415" lon="3.19025">
        <ele>790.2</ele>
        <time>2019-05-31T12:03:17Z</time>
      </trkpt>
      <trkpt lat="44.08413" lon="3.19021">
        <ele>790.5</ele>
        <time>2019-05-31T12:03:19Z</time>
      </trkpt>
      <trkpt lat="44.0841" lon="3.19016">
        <ele>790.9</ele>
        <time>2019-05-31T12:03:21Z</time>
      </trkpt>
      <trkpt lat="44.08408" lon="3.19012">
        <ele>791.2</ele>
        <time>2019-05-31T12:03:23Z</time>
      </trkpt>
      <trkpt lat="44.08406" lon="3.19008">
        <ele>791.4</ele>
        <time>2019-05-31T12:03:25Z</time>
      </trkpt>
      <trkpt lat="44.08405" lon="3.19003">
        <ele>791.6</ele>
        <time>2019-05-31T12:03:27Z</time>
      </trkpt>
      <trkpt lat="44.08403" lon="3.18998">
        <ele>791.8</ele>
        <time>2019-05-31T12:03:29Z</time>
      </trkpt>
      <trkpt lat="44.08401" lon="3.18996">
        <ele>792</ele>
        <time>2019-05-31T12:03:30Z</time>
      </trkpt>
      <trkpt lat="44.08399" lon="3.18994">
        <ele>792.1</ele>
        <time>2019-05-31T12:03:31Z</time>
      </trkpt>
      <trkpt lat="44.08396" lon="3.18991">
        <ele>792.3</ele>
        <time>2019-05-31T12:03:33Z</time>
      </trkpt>
      <trkpt lat="44.08392" lon="3.18987">
        <ele>792.5</ele>
        <time>2019-05-31T12:03:35Z</time>
      </trkpt>
      <trkpt lat="44.08387" lon="3.18985">
        <ele>792.7</ele>
        <time>2019-05-31T12:03:37Z</time>
      </trkpt>
      <trkpt lat="44.08382" lon="3.18982">
        <ele>792.9</ele>
        <time>2019-05-31T12:03:39Z</time>
      </trkpt>
      <trkpt lat="44.08379" lon="3.18981">
        <ele>793</ele>
        <time>2019-05-31T12:03:41Z</time>
      </trkpt>
      <trkpt lat="44.08374" lon="3.1898">
        <ele>793.2</ele>
        <time>2019-05-31T12:03:43Z</time>
      </trkpt>
      <trkpt lat="44.08371" lon="3.18979">
        <ele>793.3</ele>
        <time>2019-05-31T12:03:44Z</time>
      </trkpt>
      <trkpt lat="44.08368" lon="3.18977">
        <ele>793.5</ele>
        <time>2019-05-31T12:03:45Z</time>
      </trkpt>
      <trkpt lat="44.08365" lon="3.18977">
        <ele>793.6</ele>
        <time>2019-05-31T12:03:46Z</time>
      </trkpt>
      <trkpt lat="44.08361" lon="3.18976">
        <ele>793.7</ele>
        <time>2019-05-31T12:03:47Z</time>
      </trkpt>
      <trkpt lat="44.08356" lon="3.18975">
        <ele>793.8</ele>
        <time>2019-05-31T12:03:49Z</time>
      </trkpt>
      <trkpt lat="44.08353" lon="3.18974">
        <ele>793.8</ele>
        <time>2019-05-31T12:03:50Z</time>
      </trkpt>
      <trkpt lat="44.08349" lon="3.18972">
        <ele>793.8</ele>
        <time>2019-05-31T12:03:51Z</time>
      </trkpt>
      <trkpt lat="44.08344" lon="3.1897">
        <ele>793.9</ele>
        <time>2019-05-31T12:03:52Z</time>
      </trkpt>
      <trkpt lat="44.0834" lon="3.18969">
        <ele>793.9</ele>
        <time>2019-05-31T12:03:53Z</time>
      </trkpt>
      <trkpt lat="44.08336" lon="3.18969">
        <ele>793.9</ele>
        <time>2019-05-31T12:03:54Z</time>
      </trkpt>
      <trkpt lat="44.08332" lon="3.18969">
        <ele>794</ele>
        <time>2019-05-31T12:03:55Z</time>
      </trkpt>
      <trkpt lat="44.08328" lon="3.18969">
        <ele>794</ele>
        <time>2019-05-31T12:03:56Z</time>
      </trkpt>
      <trkpt lat="44.08324" lon="3.18968">
        <ele>794</ele>
        <time>2019-05-31T12:03:57Z</time>
      </trkpt>
      <trkpt lat="44.0832" lon="3.18968">
        <ele>794.1</ele>
        <time>2019-05-31T12:03:58Z</time>
      </trkpt>
      <trkpt lat="44.08316" lon="3.18968">
        <ele>794.1</ele>
        <time>2019-05-31T12:03:59Z</time>
      </trkpt>
      <trkpt lat="44.08313" lon="3.18968">
        <ele>794.1</ele>
        <time>2019-05-31T12:04:00Z</time>
      </trkpt>
      <trkpt lat="44.08308" lon="3.18969">
        <ele>794.2</ele>
        <time>2019-05-31T12:04:02Z</time>
      </trkpt>
      <trkpt lat="44.08304" lon="3.18969">
        <ele>794.2</ele>
        <time>2019-05-31T12:04:03Z</time>
      </trkpt>
      <trkpt lat="44.08301" lon="3.18969">
        <ele>794.3</ele>
        <time>2019-05-31T12:04:04Z</time>
      </trkpt>
      <trkpt lat="44.08298" lon="3.18968">
        <ele>794.3</ele>
        <time>2019-05-31T12:04:05Z</time>
      </trkpt>
      <trkpt lat="44.08293" lon="3.18967">
        <ele>794.4</ele>
        <time>2019-05-31T12:04:06Z</time>
      </trkpt>
      <trkpt lat="44.08289" lon="3.18967">
        <ele>794.5</ele>
        <time>2019-05-31T12:04:07Z</time>
      </trkpt>
      <trkpt lat="44.08284" lon="3.18966">
        <ele>794.5</ele>
        <time>2019-05-31T12:04:08Z</time>
      </trkpt>
      <trkpt lat="44.0828" lon="3.18965">
        <ele>794.6</ele>
        <time>2019-05-31T12:04:09Z</time>
      </trkpt>
      <trkpt lat="44.08277" lon="3.18964">
        <ele>794.7</ele>
        <time>2019-05-31T12:04:10Z</time>
      </trkpt>
      <trkpt lat="44.08272" lon="3.18963">
        <ele>794.8</ele>
        <time>2019-05-31T12:04:12Z</time>
      </trkpt>
      <trkpt lat="44.08269" lon="3.18963">
        <ele>794.9</ele>
        <time>2019-05-31T12:04:13Z</time>
      </trkpt>
      <trkpt lat="44.08264" lon="3.18963">
        <ele>795.1</ele>
        <time>2019-05-31T12:04:14Z</time>
      </trkpt>
      <trkpt lat="44.08258" lon="3.18962">
        <ele>795.3</ele>
        <time>2019-05-31T12:04:15Z</time>
      </trkpt>
      <trkpt lat="44.08253" lon="3.18962">
        <ele>795.5</ele>
        <time>2019-05-31T12:04:16Z</time>
      </trkpt>
      <trkpt lat="44.08249" lon="3.18961">
        <ele>795.6</ele>
        <time>2019-05-31T12:04:17Z</time>
      </trkpt>
      <trkpt lat="44.08245" lon="3.18961">
        <ele>795.7</ele>
        <time>2019-05-31T12:04:18Z</time>
      </trkpt>
      <trkpt lat="44.0824" lon="3.18962">
        <ele>795.9</ele>
        <time>2019-05-31T12:04:19Z</time>
      </trkpt>
      <trkpt lat="44.08236" lon="3.18962">
        <ele>796.2</ele>
        <time>2019-05-31T12:04:20Z</time>
      </trkpt>
      <trkpt lat="44.08233" lon="3.18962">
        <ele>796.4</ele>
        <time>2019-05-31T12:04:21Z</time>
      </trkpt>
      <trkpt lat="44.08229" lon="3.18963">
        <ele>796.5</ele>
        <time>2019-05-31T12:04:22Z</time>
      </trkpt>
      <trkpt lat="44.08225" lon="3.18963">
        <ele>796.6</ele>
        <time>2019-05-31T12:04:23Z</time>
      </trkpt>
      <trkpt lat="44.08223" lon="3.18964">
        <ele>796.7</ele>
        <time>2019-05-31T12:04:24Z</time>
      </trkpt>
      <trkpt lat="44.08218" lon="3.18964">
        <ele>796.9</ele>
        <time>2019-05-31T12:04:26Z</time>
      </trkpt>
      <trkpt lat="44.08213" lon="3.18964">
        <ele>797.1</ele>
        <time>2019-05-31T12:04:28Z</time>
      </trkpt>
      <trkpt lat="44.08207" lon="3.18965">
        <ele>797.6</ele>
        <time>2019-05-31T12:04:30Z</time>
      </trkpt>
      <trkpt lat="44.08203" lon="3.18965">
        <ele>797.7</ele>
        <time>2019-05-31T12:04:31Z</time>
      </trkpt>
      <trkpt lat="44.082" lon="3.18964">
        <ele>797.8</ele>
        <time>2019-05-31T12:04:32Z</time>
      </trkpt>
      <trkpt lat="44.08196" lon="3.18965">
        <ele>798</ele>
        <time>2019-05-31T12:04:34Z</time>
      </trkpt>
      <trkpt lat="44.08191" lon="3.18967">
        <ele>798.2</ele>
        <time>2019-05-31T12:04:36Z</time>
      </trkpt>
      <trkpt lat="44.08188" lon="3.18968">
        <ele>798.3</ele>
        <time>2019-05-31T12:04:37Z</time>
      </trkpt>
      <trkpt lat="44.08185" lon="3.18968">
        <ele>798.4</ele>
        <time>2019-05-31T12:04:38Z</time>
      </trkpt>
      <trkpt lat="44.08182" lon="3.18969">
        <ele>798.5</ele>
        <time>2019-05-31T12:04:39Z</time>
      </trkpt>
      <trkpt lat="44.08178" lon="3.1897">
        <ele>798.7</ele>
        <time>2019-05-31T12:04:41Z</time>
      </trkpt>
      <trkpt lat="44.08173" lon="3.18969">
        <ele>798.9</ele>
        <time>2019-05-31T12:04:43Z</time>
      </trkpt>
      <trkpt lat="44.0817" lon="3.18968">
        <ele>799</ele>
        <time>2019-05-31T12:04:45Z</time>
      </trkpt>
      <trkpt lat="44.08167" lon="3.18968">
        <ele>799.1</ele>
        <time>2019-05-31T12:04:47Z</time>
      </trkpt>
      <trkpt lat="44.08163" lon="3.18967">
        <ele>799.3</ele>
        <time>2019-05-31T12:04:49Z</time>
      </trkpt>
      <trkpt lat="44.08159" lon="3.18968">
        <ele>799.4</ele>
        <time>2019-05-31T12:04:51Z</time>
      </trkpt>
      <trkpt lat="44.08155" lon="3.18971">
        <ele>799.6</ele>
        <time>2019-05-31T12:04:53Z</time>
      </trkpt>
      <trkpt lat="44.0815" lon="3.18974">
        <ele>799.8</ele>
        <time>2019-05-31T12:04:55Z</time>
      </trkpt>
      <trkpt lat="44.08146" lon="3.18976">
        <ele>800</ele>
        <time>2019-05-31T12:04:57Z</time>
      </trkpt>
      <trkpt lat="44.08143" lon="3.18976">
        <ele>800.1</ele>
        <time>2019-05-31T12:04:58Z</time>
      </trkpt>
      <trkpt lat="44.08139" lon="3.18976">
        <ele>800.2</ele>
        <time>2019-05-31T12:04:59Z</time>
      </trkpt>
      <trkpt lat="44.08136" lon="3.18977">
        <ele>800.3</ele>
        <time>2019-05-31T12:05:00Z</time>
      </trkpt>
      <trkpt lat="44.0813" lon="3.18978">
        <ele>800.5</ele>
        <time>2019-05-31T12:05:02Z</time>
      </trkpt>
      <trkpt lat="44.08127" lon="3.18979">
        <ele>800.6</ele>
        <time>2019-05-31T12:05:03Z</time>
      </trkpt>
      <trkpt lat="44.08122" lon="3.18978">
        <ele>800.8</ele>
        <time>2019-05-31T12:05:05Z</time>
      </trkpt>
      <trkpt lat="44.08117" lon="3.18978">
        <ele>800.9</ele>
        <time>2019-05-31T12:05:07Z</time>
      </trkpt>
      <trkpt lat="44.08114" lon="3.18978">
        <ele>801</ele>
        <time>2019-05-31T12:05:08Z</time>
      </trkpt>
      <trkpt lat="44.0811" lon="3.18977">
        <ele>801.2</ele>
        <time>2019-05-31T12:05:09Z</time>
      </trkpt>
      <trkpt lat="44.08106" lon="3.18977">
        <ele>801.3</ele>
        <time>2019-05-31T12:05:10Z</time>
      </trkpt>
      <trkpt lat="44.08102" lon="3.18977">
        <ele>801.4</ele>
        <time>2019-05-31T12:05:11Z</time>
      </trkpt>
      <trkpt lat="44.08097" lon="3.18976">
        <ele>801.6</ele>
        <time>2019-05-31T12:05:12Z</time>
      </trkpt>
      <trkpt lat="44.08093" lon="3.18976">
        <ele>801.7</ele>
        <time>2019-05-31T12:05:13Z</time>
      </trkpt>
      <trkpt lat="44.0809" lon="3.18976">
        <ele>801.9</ele>
        <time>2019-05-31T12:05:14Z</time>
      </trkpt>
      <trkpt lat="44.08086" lon="3.18977">
        <ele>802.1</ele>
        <time>2019-05-31T12:05:15Z</time>
      </trkpt>
      <trkpt lat="44.08083" lon="3.18977">
        <ele>802.3</ele>
        <time>2019-05-31T12:05:16Z</time>
      </trkpt>
      <trkpt lat="44.08079" lon="3.18977">
        <ele>802.4</ele>
        <time>2019-05-31T12:05:17Z</time>
      </trkpt>
      <trkpt lat="44.08075" lon="3.18977">
        <ele>802.5</ele>
        <time>2019-05-31T12:05:18Z</time>
      </trkpt>
      <trkpt lat="44.08073" lon="3.18976">
        <ele>802.6</ele>
        <time>2019-05-31T12:05:19Z</time>
      </trkpt>
      <trkpt lat="44.08069" lon="3.18976">
        <ele>802.8</ele>
        <time>2019-05-31T12:05:21Z</time>
      </trkpt>
      <trkpt lat="44.08063" lon="3.18975">
        <ele>803</ele>
        <time>2019-05-31T12:05:23Z</time>
      </trkpt>
      <trkpt lat="44.0806" lon="3.18975">
        <ele>803.1</ele>
        <time>2019-05-31T12:05:24Z</time>
      </trkpt>
      <trkpt lat="44.08057" lon="3.18975">
        <ele>803.3</ele>
        <time>2019-05-31T12:05:25Z</time>
      </trkpt>
      <trkpt lat="44.08053" lon="3.18975">
        <ele>803.5</ele>
        <time>2019-05-31T12:05:26Z</time>
      </trkpt>
      <trkpt lat="44.08049" lon="3.18975">
        <ele>803.7</ele>
        <time>2019-05-31T12:05:27Z</time>
      </trkpt>
      <trkpt lat="44.08046" lon="3.18975">
        <ele>803.9</ele>
        <time>2019-05-31T12:05:28Z</time>
      </trkpt>
      <trkpt lat="44.08041" lon="3.18975">
        <ele>804.2</ele>
        <time>2019-05-31T12:05:30Z</time>
      </trkpt>
      <trkpt lat="44.08038" lon="3.18976">
        <ele>804.4</ele>
        <time>2019-05-31T12:05:31Z</time>
      </trkpt>
      <trkpt lat="44.08035" lon="3.18978">
        <ele>804.5</ele>
        <time>2019-05-31T12:05:32Z</time>
      </trkpt>
      <trkpt lat="44.08033" lon="3.18979">
        <ele>804.6</ele>
        <time>2019-05-31T12:05:33Z</time>
      </trkpt>
      <trkpt lat="44.08029" lon="3.1898">
        <ele>804.7</ele>
        <time>2019-05-31T12:05:34Z</time>
      </trkpt>
      <trkpt lat="44.08026" lon="3.18981">
        <ele>804.8</ele>
        <time>2019-05-31T12:05:35Z</time>
      </trkpt>
      <trkpt lat="44.08023" lon="3.18982">
        <ele>804.9</ele>
        <time>2019-05-31T12:05:36Z</time>
      </trkpt>
      <trkpt lat="44.0802" lon="3.18983">
        <ele>805</ele>
        <time>2019-05-31T12:05:37Z</time>
      </trkpt>
      <trkpt lat="44.08017" lon="3.18985">
        <ele>805.1</ele>
        <time>2019-05-31T12:05:38Z</time>
      </trkpt>
      <trkpt lat="44.08014" lon="3.18987">
        <ele>805.2</ele>
        <time>2019-05-31T12:05:39Z</time>
      </trkpt>
      <trkpt lat="44.08012" lon="3.18988">
        <ele>805.4</ele>
        <time>2019-05-31T12:05:40Z</time>
      </trkpt>
      <trkpt lat="44.08009" lon="3.18989">
        <ele>805.6</ele>
        <time>2019-05-31T12:05:41Z</time>
      </trkpt>
      <trkpt lat="44.08005" lon="3.1899">
        <ele>805.8</ele>
        <time>2019-05-31T12:05:42Z</time>
      </trkpt>
      <trkpt lat="44.08001" lon="3.18991">
        <ele>805.9</ele>
        <time>2019-05-31T12:05:43Z</time>
      </trkpt>
      <trkpt lat="44.07998" lon="3.18992">
        <ele>806.1</ele>
        <time>2019-05-31T12:05:44Z</time>
      </trkpt>
      <trkpt lat="44.07994" lon="3.18993">
        <ele>806.2</ele>
        <time>2019-05-31T12:05:45Z</time>
      </trkpt>
      <trkpt lat="44.07991" lon="3.18994">
        <ele>806.4</ele>
        <time>2019-05-31T12:05:46Z</time>
      </trkpt>
      <trkpt lat="44.07988" lon="3.18994">
        <ele>806.5</ele>
        <time>2019-05-31T12:05:47Z</time>
      </trkpt>
      <trkpt lat="44.07985" lon="3.18994">
        <ele>806.7</ele>
        <time>2019-05-31T12:05:48Z</time>
      </trkpt>
      <trkpt lat="44.07982" lon="3.18995">
        <ele>806.8</ele>
        <time>2019-05-31T12:05:49Z</time>
      </trkpt>
      <trkpt lat="44.07979" lon="3.18996">
        <ele>807</ele>
        <time>2019-05-31T12:05:50Z</time>
      </trkpt>
      <trkpt lat="44.07976" lon="3.18998">
        <ele>807.2</ele>
        <time>2019-05-31T12:05:51Z</time>
      </trkpt>
      <trkpt lat="44.07973" lon="3.18999">
        <ele>807.3</ele>
        <time>2019-05-31T12:05:52Z</time>
      </trkpt>
      <trkpt lat="44.07971" lon="3.19001">
        <ele>807.4</ele>
        <time>2019-05-31T12:05:53Z</time>
      </trkpt>
      <trkpt lat="44.07968" lon="3.19003">
        <ele>807.6</ele>
        <time>2019-05-31T12:05:54Z</time>
      </trkpt>
      <trkpt lat="44.07965" lon="3.19005">
        <ele>807.7</ele>
        <time>2019-05-31T12:05:55Z</time>
      </trkpt>
      <trkpt lat="44.07962" lon="3.19006">
        <ele>807.8</ele>
        <time>2019-05-31T12:05:56Z</time>
      </trkpt>
      <trkpt lat="44.07957" lon="3.19009">
        <ele>808</ele>
        <time>2019-05-31T12:05:58Z</time>
      </trkpt>
      <trkpt lat="44.07954" lon="3.1901">
        <ele>808.1</ele>
        <time>2019-05-31T12:05:59Z</time>
      </trkpt>
      <trkpt lat="44.07951" lon="3.19012">
        <ele>808.2</ele>
        <time>2019-05-31T12:06:00Z</time>
      </trkpt>
      <trkpt lat="44.07948" lon="3.19014">
        <ele>808.4</ele>
        <time>2019-05-31T12:06:01Z</time>
      </trkpt>
      <trkpt lat="44.07945" lon="3.19015">
        <ele>808.5</ele>
        <time>2019-05-31T12:06:02Z</time>
      </trkpt>
      <trkpt lat="44.07942" lon="3.19016">
        <ele>808.6</ele>
        <time>2019-05-31T12:06:03Z</time>
      </trkpt>
      <trkpt lat="44.07939" lon="3.19017">
        <ele>808.8</ele>
        <time>2019-05-31T12:06:04Z</time>
      </trkpt>
      <trkpt lat="44.07937" lon="3.19019">
        <ele>808.9</ele>
        <time>2019-05-31T12:06:05Z</time>
      </trkpt>
      <trkpt lat="44.07933" lon="3.19021">
        <ele>809.1</ele>
        <time>2019-05-31T12:06:07Z</time>
      </trkpt>
      <trkpt lat="44.0793" lon="3.19022">
        <ele>809.3</ele>
        <time>2019-05-31T12:06:09Z</time>
      </trkpt>
      <trkpt lat="44.07926" lon="3.19025">
        <ele>809.5</ele>
        <time>2019-05-31T12:06:11Z</time>
      </trkpt>
      <trkpt lat="44.07923" lon="3.19027">
        <ele>809.8</ele>
        <time>2019-05-31T12:06:13Z</time>
      </trkpt>
      <trkpt lat="44.0792" lon="3.19029">
        <ele>809.9</ele>
        <time>2019-05-31T12:06:15Z</time>
      </trkpt>
      <trkpt lat="44.07917" lon="3.19031">
        <ele>810.1</ele>
        <time>2019-05-31T12:06:18Z</time>
      </trkpt>
      <trkpt lat="44.07914" lon="3.19033">
        <ele>810.3</ele>
        <time>2019-05-31T12:06:20Z</time>
      </trkpt>
      <trkpt lat="44.0791" lon="3.19034">
        <ele>810.6</ele>
        <time>2019-05-31T12:06:22Z</time>
      </trkpt>
      <trkpt lat="44.07907" lon="3.19035">
        <ele>810.7</ele>
        <time>2019-05-31T12:06:24Z</time>
      </trkpt>
      <trkpt lat="44.07903" lon="3.19035">
        <ele>811</ele>
        <time>2019-05-31T12:06:26Z</time>
      </trkpt>
      <trkpt lat="44.079" lon="3.19034">
        <ele>811.1</ele>
        <time>2019-05-31T12:06:27Z</time>
      </trkpt>
      <trkpt lat="44.07897" lon="3.19034">
        <ele>811.3</ele>
        <time>2019-05-31T12:06:28Z</time>
      </trkpt>
      <trkpt lat="44.07893" lon="3.19032">
        <ele>811.7</ele>
        <time>2019-05-31T12:06:30Z</time>
      </trkpt>
      <trkpt lat="44.07889" lon="3.1903">
        <ele>811.9</ele>
        <time>2019-05-31T12:06:32Z</time>
      </trkpt>
      <trkpt lat="44.07886" lon="3.19028">
        <ele>812.1</ele>
        <time>2019-05-31T12:06:34Z</time>
      </trkpt>
      <trkpt lat="44.07883" lon="3.19026">
        <ele>812.3</ele>
        <time>2019-05-31T12:06:36Z</time>
      </trkpt>
      <trkpt lat="44.07877" lon="3.19024">
        <ele>812.5</ele>
        <time>2019-05-31T12:06:38Z</time>
      </trkpt>
      <trkpt lat="44.07873" lon="3.19022">
        <ele>812.7</ele>
        <time>2019-05-31T12:06:40Z</time>
      </trkpt>
      <trkpt lat="44.0787" lon="3.19021">
        <ele>812.8</ele>
        <time>2019-05-31T12:06:41Z</time>
      </trkpt>
      <trkpt lat="44.07867" lon="3.1902">
        <ele>812.9</ele>
        <time>2019-05-31T12:06:43Z</time>
      </trkpt>
      <trkpt lat="44.07863" lon="3.1902">
        <ele>813</ele>
        <time>2019-05-31T12:06:45Z</time>
      </trkpt>
      <trkpt lat="44.0786" lon="3.19019">
        <ele>813.2</ele>
        <time>2019-05-31T12:06:46Z</time>
      </trkpt>
      <trkpt lat="44.07857" lon="3.19018">
        <ele>813.3</ele>
        <time>2019-05-31T12:06:47Z</time>
      </trkpt>
      <trkpt lat="44.07854" lon="3.19017">
        <ele>813.5</ele>
        <time>2019-05-31T12:06:48Z</time>
      </trkpt>
      <trkpt lat="44.07851" lon="3.19017">
        <ele>813.7</ele>
        <time>2019-05-31T12:06:49Z</time>
      </trkpt>
      <trkpt lat="44.07847" lon="3.19018">
        <ele>814</ele>
        <time>2019-05-31T12:06:51Z</time>
      </trkpt>
      <trkpt lat="44.07842" lon="3.19018">
        <ele>814.2</ele>
        <time>2019-05-31T12:06:53Z</time>
      </trkpt>
      <trkpt lat="44.07837" lon="3.19018">
        <ele>814.5</ele>
        <time>2019-05-31T12:06:55Z</time>
      </trkpt>
      <trkpt lat="44.07833" lon="3.19018">
        <ele>814.7</ele>
        <time>2019-05-31T12:06:57Z</time>
      </trkpt>
      <trkpt lat="44.07828" lon="3.19019">
        <ele>815</ele>
        <time>2019-05-31T12:06:59Z</time>
      </trkpt>
      <trkpt lat="44.07824" lon="3.19019">
        <ele>815.2</ele>
        <time>2019-05-31T12:07:00Z</time>
      </trkpt>
      <trkpt lat="44.07821" lon="3.19019">
        <ele>815.3</ele>
        <time>2019-05-31T12:07:01Z</time>
      </trkpt>
      <trkpt lat="44.07817" lon="3.1902">
        <ele>815.5</ele>
        <time>2019-05-31T12:07:02Z</time>
      </trkpt>
      <trkpt lat="44.07813" lon="3.1902">
        <ele>815.6</ele>
        <time>2019-05-31T12:07:03Z</time>
      </trkpt>
      <trkpt lat="44.0781" lon="3.1902">
        <ele>815.7</ele>
        <time>2019-05-31T12:07:04Z</time>
      </trkpt>
      <trkpt lat="44.07806" lon="3.1902">
        <ele>815.8</ele>
        <time>2019-05-31T12:07:05Z</time>
      </trkpt>
      <trkpt lat="44.07802" lon="3.19021">
        <ele>815.8</ele>
        <time>2019-05-31T12:07:06Z</time>
      </trkpt>
      <trkpt lat="44.07798" lon="3.1902">
        <ele>815.9</ele>
        <time>2019-05-31T12:07:07Z</time>
      </trkpt>
      <trkpt lat="44.07793" lon="3.19019">
        <ele>815.9</ele>
        <time>2019-05-31T12:07:08Z</time>
      </trkpt>
      <trkpt lat="44.07789" lon="3.19018">
        <ele>816</ele>
        <time>2019-05-31T12:07:09Z</time>
      </trkpt>
      <trkpt lat="44.07786" lon="3.19017">
        <ele>816</ele>
        <time>2019-05-31T12:07:10Z</time>
      </trkpt>
      <trkpt lat="44.07783" lon="3.19015">
        <ele>816</ele>
        <time>2019-05-31T12:07:11Z</time>
      </trkpt>
      <trkpt lat="44.07781" lon="3.19012">
        <ele>816</ele>
        <time>2019-05-31T12:07:12Z</time>
      </trkpt>
      <trkpt lat="44.0778" lon="3.19009">
        <ele>816</ele>
        <time>2019-05-31T12:07:13Z</time>
      </trkpt>
      <trkpt lat="44.07778" lon="3.19004">
        <ele>816</ele>
        <time>2019-05-31T12:07:14Z</time>
      </trkpt>
      <trkpt lat="44.07777" lon="3.18996">
        <ele>816</ele>
        <time>2019-05-31T12:07:15Z</time>
      </trkpt>
      <trkpt lat="44.07775" lon="3.18988">
        <ele>816</ele>
        <time>2019-05-31T12:07:16Z</time>
      </trkpt>
      <trkpt lat="44.07771" lon="3.18981">
        <ele>815.9</ele>
        <time>2019-05-31T12:07:17Z</time>
      </trkpt>
      <trkpt lat="44.07767" lon="3.18974">
        <ele>815.8</ele>
        <time>2019-05-31T12:07:18Z</time>
      </trkpt>
      <trkpt lat="44.07761" lon="3.18968">
        <ele>815.6</ele>
        <time>2019-05-31T12:07:19Z</time>
      </trkpt>
      <trkpt lat="44.07754" lon="3.18964">
        <ele>815.5</ele>
        <time>2019-05-31T12:07:20Z</time>
      </trkpt>
      <trkpt lat="44.07747" lon="3.18961">
        <ele>815.2</ele>
        <time>2019-05-31T12:07:21Z</time>
      </trkpt>
      <trkpt lat="44.07741" lon="3.18959">
        <ele>815</ele>
        <time>2019-05-31T12:07:22Z</time>
      </trkpt>
      <trkpt lat="44.07735" lon="3.18957">
        <ele>814.7</ele>
        <time>2019-05-31T12:07:23Z</time>
      </trkpt>
      <trkpt lat="44.07724" lon="3.18959">
        <ele>814.1</ele>
        <time>2019-05-31T12:07:24Z</time>
      </trkpt>
      <trkpt lat="44.07714" lon="3.18961">
        <ele>813.5</ele>
        <time>2019-05-31T12:07:25Z</time>
      </trkpt>
      <trkpt lat="44.07703" lon="3.18962">
        <ele>812.8</ele>
        <time>2019-05-31T12:07:26Z</time>
      </trkpt>
      <trkpt lat="44.07697" lon="3.18961">
        <ele>812.1</ele>
        <time>2019-05-31T12:07:27Z</time>
      </trkpt>
      <trkpt lat="44.07687" lon="3.1896">
        <ele>811.2</ele>
        <time>2019-05-31T12:07:28Z</time>
      </trkpt>
      <trkpt lat="44.07677" lon="3.18963">
        <ele>810</ele>
        <time>2019-05-31T12:07:29Z</time>
      </trkpt>
      <trkpt lat="44.07667" lon="3.18966">
        <ele>808.9</ele>
        <time>2019-05-31T12:07:30Z</time>
      </trkpt>
      <trkpt lat="44.07655" lon="3.18974">
        <ele>807.7</ele>
        <time>2019-05-31T12:07:31Z</time>
      </trkpt>
      <trkpt lat="44.07647" lon="3.1898">
        <ele>807</ele>
        <time>2019-05-31T12:07:32Z</time>
      </trkpt>
      <trkpt lat="44.07638" lon="3.18985">
        <ele>806.3</ele>
        <time>2019-05-31T12:07:33Z</time>
      </trkpt>
      <trkpt lat="44.07633" lon="3.18989">
        <ele>805.9</ele>
        <time>2019-05-31T12:07:34Z</time>
      </trkpt>
      <trkpt lat="44.0763" lon="3.18995">
        <ele>805.5</ele>
        <time>2019-05-31T12:07:35Z</time>
      </trkpt>
      <trkpt lat="44.07626" lon="3.18998">
        <ele>805.2</ele>
        <time>2019-05-31T12:07:36Z</time>
      </trkpt>
      <trkpt lat="44.0762" lon="3.19">
        <ele>804.7</ele>
        <time>2019-05-31T12:07:39Z</time>
      </trkpt>
      <trkpt lat="44.07617" lon="3.19002">
        <ele>804.5</ele>
        <time>2019-05-31T12:08:58Z</time>
      </trkpt>
      <trkpt lat="44.07614" lon="3.19004">
        <ele>804.3</ele>
        <time>2019-05-31T12:08:59Z</time>
      </trkpt>
      <trkpt lat="44.0761" lon="3.19004">
        <ele>804</ele>
        <time>2019-05-31T12:09:00Z</time>
      </trkpt>
      <trkpt lat="44.07606" lon="3.19005">
        <ele>803.7</ele>
        <time>2019-05-31T12:09:01Z</time>
      </trkpt>
      <trkpt lat="44.07601" lon="3.19007">
        <ele>803.4</ele>
        <time>2019-05-31T12:09:02Z</time>
      </trkpt>
      <trkpt lat="44.07595" lon="3.19008">
        <ele>802.9</ele>
        <time>2019-05-31T12:09:03Z</time>
      </trkpt>
      <trkpt lat="44.0759" lon="3.19011">
        <ele>802.6</ele>
        <time>2019-05-31T12:09:04Z</time>
      </trkpt>
      <trkpt lat="44.07584" lon="3.19012">
        <ele>802.1</ele>
        <time>2019-05-31T12:09:05Z</time>
      </trkpt>
      <trkpt lat="44.07579" lon="3.19012">
        <ele>801.8</ele>
        <time>2019-05-31T12:09:06Z</time>
      </trkpt>
      <trkpt lat="44.07573" lon="3.19012">
        <ele>801.4</ele>
        <time>2019-05-31T12:09:07Z</time>
      </trkpt>
      <trkpt lat="44.07568" lon="3.19011">
        <ele>801.1</ele>
        <time>2019-05-31T12:09:08Z</time>
      </trkpt>
      <trkpt lat="44.07561" lon="3.19009">
        <ele>800.7</ele>
        <time>2019-05-31T12:09:09Z</time>
      </trkpt>
      <trkpt lat="44.07557" lon="3.19008">
        <ele>800.5</ele>
        <time>2019-05-31T12:09:10Z</time>
      </trkpt>
      <trkpt lat="44.07554" lon="3.19006">
        <ele>800.4</ele>
        <time>2019-05-31T12:09:11Z</time>
      </trkpt>
      <trkpt lat="44.07549" lon="3.19005">
        <ele>800.2</ele>
        <time>2019-05-31T12:09:12Z</time>
      </trkpt>
      <trkpt lat="44.07546" lon="3.19004">
        <ele>800.1</ele>
        <time>2019-05-31T12:09:13Z</time>
      </trkpt>
      <trkpt lat="44.07542" lon="3.19004">
        <ele>800</ele>
        <time>2019-05-31T12:09:14Z</time>
      </trkpt>
      <trkpt lat="44.07538" lon="3.19002">
        <ele>799.8</ele>
        <time>2019-05-31T12:09:15Z</time>
      </trkpt>
      <trkpt lat="44.07533" lon="3.19002">
        <ele>799.7</ele>
        <time>2019-05-31T12:09:16Z</time>
      </trkpt>
      <trkpt lat="44.07528" lon="3.18999">
        <ele>799.6</ele>
        <time>2019-05-31T12:09:17Z</time>
      </trkpt>
      <trkpt lat="44.07525" lon="3.18997">
        <ele>799.5</ele>
        <time>2019-05-31T12:09:18Z</time>
      </trkpt>
      <trkpt lat="44.07523" lon="3.18993">
        <ele>799.5</ele>
        <time>2019-05-31T12:09:19Z</time>
      </trkpt>
      <trkpt lat="44.07521" lon="3.18988">
        <ele>799.4</ele>
        <time>2019-05-31T12:09:20Z</time>
      </trkpt>
      <trkpt lat="44.07521" lon="3.18984">
        <ele>799.4</ele>
        <time>2019-05-31T12:09:21Z</time>
      </trkpt>
      <trkpt lat="44.07521" lon="3.1898">
        <ele>799.5</ele>
        <time>2019-05-31T12:09:22Z</time>
      </trkpt>
      <trkpt lat="44.07522" lon="3.18976">
        <ele>799.5</ele>
        <time>2019-05-31T12:09:23Z</time>
      </trkpt>
      <trkpt lat="44.07522" lon="3.18971">
        <ele>799.8</ele>
        <time>2019-05-31T12:09:24Z</time>
      </trkpt>
      <trkpt lat="44.07524" lon="3.18966">
        <ele>799.9</ele>
        <time>2019-05-31T12:09:25Z</time>
      </trkpt>
      <trkpt lat="44.07525" lon="3.18961">
        <ele>799.9</ele>
        <time>2019-05-31T12:09:26Z</time>
      </trkpt>
      <trkpt lat="44.07527" lon="3.18956">
        <ele>800.3</ele>
        <time>2019-05-31T12:09:27Z</time>
      </trkpt>
      <trkpt lat="44.07529" lon="3.18951">
        <ele>800.7</ele>
        <time>2019-05-31T12:09:28Z</time>
      </trkpt>
      <trkpt lat="44.07532" lon="3.18946">
        <ele>800.9</ele>
        <time>2019-05-31T12:09:29Z</time>
      </trkpt>
      <trkpt lat="44.07534" lon="3.1894">
        <ele>801.3</ele>
        <time>2019-05-31T12:09:30Z</time>
      </trkpt>
      <trkpt lat="44.07536" lon="3.18935">
        <ele>801.7</ele>
        <time>2019-05-31T12:09:31Z</time>
      </trkpt>
      <trkpt lat="44.07538" lon="3.1893">
        <ele>802.1</ele>
        <time>2019-05-31T12:09:32Z</time>
      </trkpt>
      <trkpt lat="44.07541" lon="3.18925">
        <ele>802.6</ele>
        <time>2019-05-31T12:09:33Z</time>
      </trkpt>
      <trkpt lat="44.07543" lon="3.1892">
        <ele>802.7</ele>
        <time>2019-05-31T12:09:34Z</time>
      </trkpt>
      <trkpt lat="44.07546" lon="3.18916">
        <ele>803</ele>
        <time>2019-05-31T12:09:35Z</time>
      </trkpt>
      <trkpt lat="44.07548" lon="3.18911">
        <ele>803.4</ele>
        <time>2019-05-31T12:09:36Z</time>
      </trkpt>
      <trkpt lat="44.07551" lon="3.18907">
        <ele>803.9</ele>
        <time>2019-05-31T12:09:37Z</time>
      </trkpt>
      <trkpt lat="44.07553" lon="3.18903">
        <ele>804</ele>
        <time>2019-05-31T12:09:38Z</time>
      </trkpt>
      <trkpt lat="44.07555" lon="3.18899">
        <ele>804.6</ele>
        <time>2019-05-31T12:09:39Z</time>
      </trkpt>
      <trkpt lat="44.07557" lon="3.18895">
        <ele>805.1</ele>
        <time>2019-05-31T12:09:40Z</time>
      </trkpt>
      <trkpt lat="44.07558" lon="3.1889">
        <ele>805.3</ele>
        <time>2019-05-31T12:09:41Z</time>
      </trkpt>
      <trkpt lat="44.07559" lon="3.18886">
        <ele>805.4</ele>
        <time>2019-05-31T12:09:42Z</time>
      </trkpt>
      <trkpt lat="44.07558" lon="3.18882">
        <ele>805.5</ele>
        <time>2019-05-31T12:09:43Z</time>
      </trkpt>
      <trkpt lat="44.07557" lon="3.18877">
        <ele>805.6</ele>
        <time>2019-05-31T12:09:44Z</time>
      </trkpt>
      <trkpt lat="44.07555" lon="3.18873">
        <ele>805.3</ele>
        <time>2019-05-31T12:09:45Z</time>
      </trkpt>
      <trkpt lat="44.07552" lon="3.1887">
        <ele>804.9</ele>
        <time>2019-05-31T12:09:46Z</time>
      </trkpt>
      <trkpt lat="44.07549" lon="3.18868">
        <ele>804.4</ele>
        <time>2019-05-31T12:09:47Z</time>
      </trkpt>
      <trkpt lat="44.07547" lon="3.18865">
        <ele>804</ele>
        <time>2019-05-31T12:09:48Z</time>
      </trkpt>
      <trkpt lat="44.07544" lon="3.18862">
        <ele>803.6</ele>
        <time>2019-05-31T12:09:50Z</time>
      </trkpt>
      <trkpt lat="44.0754" lon="3.18858">
        <ele>803.1</ele>
        <time>2019-05-31T12:09:52Z</time>
      </trkpt>
      <trkpt lat="44.07537" lon="3.18854">
        <ele>802.7</ele>
        <time>2019-05-31T12:09:54Z</time>
      </trkpt>
      <trkpt lat="44.07535" lon="3.18851">
        <ele>802.2</ele>
        <time>2019-05-31T12:09:56Z</time>
      </trkpt>
      <trkpt lat="44.07532" lon="3.18849">
        <ele>802.2</ele>
        <time>2019-05-31T12:09:58Z</time>
      </trkpt>
      <trkpt lat="44.07529" lon="3.18845">
        <ele>801.7</ele>
        <time>2019-05-31T12:10:02Z</time>
      </trkpt>
      <trkpt lat="44.07526" lon="3.18842">
        <ele>801.2</ele>
        <time>2019-05-31T12:10:05Z</time>
      </trkpt>
      <trkpt lat="44.07523" lon="3.18841">
        <ele>800.7</ele>
        <time>2019-05-31T12:10:08Z</time>
      </trkpt>
      <trkpt lat="44.07521" lon="3.1884">
        <ele>800.2</ele>
        <time>2019-05-31T12:10:14Z</time>
      </trkpt>
      <trkpt lat="44.07521" lon="3.18844">
        <ele>800.3</ele>
        <time>2019-05-31T12:10:28Z</time>
      </trkpt>
      <trkpt lat="44.07524" lon="3.18848">
        <ele>800.8</ele>
        <time>2019-05-31T12:10:31Z</time>
      </trkpt>
      <trkpt lat="44.07526" lon="3.18851">
        <ele>801.4</ele>
        <time>2019-05-31T12:10:33Z</time>
      </trkpt>
      <trkpt lat="44.07528" lon="3.18853">
        <ele>801.4</ele>
        <time>2019-05-31T12:10:35Z</time>
      </trkpt>
      <trkpt lat="44.07532" lon="3.18854">
        <ele>802</ele>
        <time>2019-05-31T12:10:38Z</time>
      </trkpt>
      <trkpt lat="44.07535" lon="3.18856">
        <ele>803</ele>
        <time>2019-05-31T12:10:41Z</time>
      </trkpt>
      <trkpt lat="44.07538" lon="3.18855">
        <ele>803</ele>
        <time>2019-05-31T12:10:43Z</time>
      </trkpt>
      <trkpt lat="44.0754" lon="3.18853">
        <ele>803.4</ele>
        <time>2019-05-31T12:10:45Z</time>
      </trkpt>
      <trkpt lat="44.07541" lon="3.18849">
        <ele>803.8</ele>
        <time>2019-05-31T12:10:48Z</time>
      </trkpt>
      <trkpt lat="44.07544" lon="3.18846">
        <ele>803.8</ele>
        <time>2019-05-31T12:10:57Z</time>
      </trkpt>
      <trkpt lat="44.07547" lon="3.18845">
        <ele>804.3</ele>
        <time>2019-05-31T12:11:42Z</time>
      </trkpt>
      <trkpt lat="44.0755" lon="3.18847">
        <ele>804.7</ele>
        <time>2019-05-31T12:11:47Z</time>
      </trkpt>
      <trkpt lat="44.07549" lon="3.18842">
        <ele>804.6</ele>
        <time>2019-05-31T12:12:55Z</time>
      </trkpt>
      <trkpt lat="44.07547" lon="3.18843">
        <ele>804.2</ele>
        <time>2019-05-31T12:13:02Z</time>
      </trkpt>
      <trkpt lat="44.07545" lon="3.18845">
        <ele>804.3</ele>
        <time>2019-05-31T12:13:05Z</time>
      </trkpt>
      <trkpt lat="44.07541" lon="3.18849">
        <ele>804</ele>
        <time>2019-05-31T12:13:07Z</time>
      </trkpt>
      <trkpt lat="44.07538" lon="3.1885">
        <ele>803.6</ele>
        <time>2019-05-31T12:13:09Z</time>
      </trkpt>
      <trkpt lat="44.07533" lon="3.18849">
        <ele>802.7</ele>
        <time>2019-05-31T12:13:11Z</time>
      </trkpt>
      <trkpt lat="44.07531" lon="3.18847">
        <ele>802.2</ele>
        <time>2019-05-31T12:13:13Z</time>
      </trkpt>
      <trkpt lat="44.07528" lon="3.18846">
        <ele>801.7</ele>
        <time>2019-05-31T12:13:16Z</time>
      </trkpt>
      <trkpt lat="44.07527" lon="3.18849">
        <ele>801.8</ele>
        <time>2019-05-31T12:13:25Z</time>
      </trkpt>
      <trkpt lat="44.07524" lon="3.18847">
        <ele>801.3</ele>
        <time>2019-05-31T12:13:42Z</time>
      </trkpt>
      <trkpt lat="44.07522" lon="3.18844">
        <ele>801.3</ele>
        <time>2019-05-31T12:13:44Z</time>
      </trkpt>
      <trkpt lat="44.07521" lon="3.18841">
        <ele>800.8</ele>
        <time>2019-05-31T12:13:46Z</time>
      </trkpt>
      <trkpt lat="44.07518" lon="3.18835">
        <ele>800.2</ele>
        <time>2019-05-31T12:13:48Z</time>
      </trkpt>
      <trkpt lat="44.07515" lon="3.1883">
        <ele>799.7</ele>
        <time>2019-05-31T12:13:50Z</time>
      </trkpt>
      <trkpt lat="44.07513" lon="3.18826">
        <ele>799.2</ele>
        <time>2019-05-31T12:13:51Z</time>
      </trkpt>
      <trkpt lat="44.07511" lon="3.18822">
        <ele>799</ele>
        <time>2019-05-31T12:13:52Z</time>
      </trkpt>
      <trkpt lat="44.07509" lon="3.18817">
        <ele>798.4</ele>
        <time>2019-05-31T12:13:54Z</time>
      </trkpt>
      <trkpt lat="44.07509" lon="3.18812">
        <ele>798.2</ele>
        <time>2019-05-31T12:13:56Z</time>
      </trkpt>
      <trkpt lat="44.07511" lon="3.18807">
        <ele>798.4</ele>
        <time>2019-05-31T12:13:58Z</time>
      </trkpt>
      <trkpt lat="44.07515" lon="3.18801">
        <ele>798.5</ele>
        <time>2019-05-31T12:14:00Z</time>
      </trkpt>
      <trkpt lat="44.07518" lon="3.18798">
        <ele>798.6</ele>
        <time>2019-05-31T12:14:02Z</time>
      </trkpt>
      <trkpt lat="44.07522" lon="3.18794">
        <ele>798.7</ele>
        <time>2019-05-31T12:14:04Z</time>
      </trkpt>
      <trkpt lat="44.07524" lon="3.18791">
        <ele>798.9</ele>
        <time>2019-05-31T12:14:05Z</time>
      </trkpt>
      <trkpt lat="44.07526" lon="3.18787">
        <ele>799</ele>
        <time>2019-05-31T12:14:06Z</time>
      </trkpt>
      <trkpt lat="44.07528" lon="3.18783">
        <ele>798.7</ele>
        <time>2019-05-31T12:14:07Z</time>
      </trkpt>
      <trkpt lat="44.07531" lon="3.18778">
        <ele>798.8</ele>
        <time>2019-05-31T12:14:08Z</time>
      </trkpt>
      <trkpt lat="44.07532" lon="3.18767">
        <ele>798.6</ele>
        <time>2019-05-31T12:14:09Z</time>
      </trkpt>
      <trkpt lat="44.07534" lon="3.18761">
        <ele>797.8</ele>
        <time>2019-05-31T12:14:10Z</time>
      </trkpt>
      <trkpt lat="44.07538" lon="3.18755">
        <ele>798.3</ele>
        <time>2019-05-31T12:14:11Z</time>
      </trkpt>
      <trkpt lat="44.07539" lon="3.18745">
        <ele>797</ele>
        <time>2019-05-31T12:14:12Z</time>
      </trkpt>
      <trkpt lat="44.07536" lon="3.18734">
        <ele>795.8</ele>
        <time>2019-05-31T12:14:13Z</time>
      </trkpt>
      <trkpt lat="44.07534" lon="3.18725">
        <ele>794.6</ele>
        <time>2019-05-31T12:14:14Z</time>
      </trkpt>
      <trkpt lat="44.07532" lon="3.18715">
        <ele>793.6</ele>
        <time>2019-05-31T12:14:15Z</time>
      </trkpt>
      <trkpt lat="44.07529" lon="3.18707">
        <ele>792.4</ele>
        <time>2019-05-31T12:14:16Z</time>
      </trkpt>
      <trkpt lat="44.07524" lon="3.18699">
        <ele>790.9</ele>
        <time>2019-05-31T12:14:17Z</time>
      </trkpt>
      <trkpt lat="44.07521" lon="3.1869">
        <ele>789.7</ele>
        <time>2019-05-31T12:14:18Z</time>
      </trkpt>
      <trkpt lat="44.07517" lon="3.1868">
        <ele>788.1</ele>
        <time>2019-05-31T12:14:19Z</time>
      </trkpt>
      <trkpt lat="44.07513" lon="3.18672">
        <ele>787</ele>
        <time>2019-05-31T12:14:20Z</time>
      </trkpt>
      <trkpt lat="44.07512" lon="3.18664">
        <ele>786.5</ele>
        <time>2019-05-31T12:14:21Z</time>
      </trkpt>
      <trkpt lat="44.07513" lon="3.18658">
        <ele>785.8</ele>
        <time>2019-05-31T12:14:22Z</time>
      </trkpt>
      <trkpt lat="44.07512" lon="3.18651">
        <ele>785.5</ele>
        <time>2019-05-31T12:14:23Z</time>
      </trkpt>
      <trkpt lat="44.0751" lon="3.18645">
        <ele>784.8</ele>
        <time>2019-05-31T12:14:24Z</time>
      </trkpt>
      <trkpt lat="44.07509" lon="3.1864">
        <ele>784.5</ele>
        <time>2019-05-31T12:14:25Z</time>
      </trkpt>
      <trkpt lat="44.07512" lon="3.18633">
        <ele>784</ele>
        <time>2019-05-31T12:14:26Z</time>
      </trkpt>
      <trkpt lat="44.07514" lon="3.18627">
        <ele>783.7</ele>
        <time>2019-05-31T12:14:27Z</time>
      </trkpt>
      <trkpt lat="44.07515" lon="3.18623">
        <ele>783.5</ele>
        <time>2019-05-31T12:14:28Z</time>
      </trkpt>
      <trkpt lat="44.07518" lon="3.18617">
        <ele>783.2</ele>
        <time>2019-05-31T12:14:29Z</time>
      </trkpt>
      <trkpt lat="44.07521" lon="3.18612">
        <ele>782.7</ele>
        <time>2019-05-31T12:14:30Z</time>
      </trkpt>
      <trkpt lat="44.07525" lon="3.18607">
        <ele>782.3</ele>
        <time>2019-05-31T12:14:31Z</time>
      </trkpt>
      <trkpt lat="44.07527" lon="3.18602">
        <ele>781.9</ele>
        <time>2019-05-31T12:14:32Z</time>
      </trkpt>
      <trkpt lat="44.07529" lon="3.18595">
        <ele>781.5</ele>
        <time>2019-05-31T12:14:33Z</time>
      </trkpt>
      <trkpt lat="44.07531" lon="3.18589">
        <ele>781.1</ele>
        <time>2019-05-31T12:14:34Z</time>
      </trkpt>
      <trkpt lat="44.07534" lon="3.18582">
        <ele>780.5</ele>
        <time>2019-05-31T12:14:35Z</time>
      </trkpt>
      <trkpt lat="44.07536" lon="3.18576">
        <ele>780.1</ele>
        <time>2019-05-31T12:14:36Z</time>
      </trkpt>
      <trkpt lat="44.07538" lon="3.18567">
        <ele>779.6</ele>
        <time>2019-05-31T12:14:37Z</time>
      </trkpt>
      <trkpt lat="44.07539" lon="3.18557">
        <ele>779.1</ele>
        <time>2019-05-31T12:14:38Z</time>
      </trkpt>
      <trkpt lat="44.0754" lon="3.18549">
        <ele>778.9</ele>
        <time>2019-05-31T12:14:39Z</time>
      </trkpt>
      <trkpt lat="44.0754" lon="3.18542">
        <ele>778.7</ele>
        <time>2019-05-31T12:14:40Z</time>
      </trkpt>
      <trkpt lat="44.07542" lon="3.18535">
        <ele>778.5</ele>
        <time>2019-05-31T12:14:41Z</time>
      </trkpt>
      <trkpt lat="44.07544" lon="3.18527">
        <ele>778.4</ele>
        <time>2019-05-31T12:14:42Z</time>
      </trkpt>
      <trkpt lat="44.07546" lon="3.1852">
        <ele>778.5</ele>
        <time>2019-05-31T12:14:43Z</time>
      </trkpt>
      <trkpt lat="44.07546" lon="3.18512">
        <ele>778.5</ele>
        <time>2019-05-31T12:14:44Z</time>
      </trkpt>
      <trkpt lat="44.07547" lon="3.18504">
        <ele>778.5</ele>
        <time>2019-05-31T12:14:45Z</time>
      </trkpt>
      <trkpt lat="44.07551" lon="3.18502">
        <ele>778.3</ele>
        <time>2019-05-31T12:14:46Z</time>
      </trkpt>
      <trkpt lat="44.07555" lon="3.18497">
        <ele>778.2</ele>
        <time>2019-05-31T12:14:47Z</time>
      </trkpt>
      <trkpt lat="44.07559" lon="3.18492">
        <ele>777.9</ele>
        <time>2019-05-31T12:14:48Z</time>
      </trkpt>
      <trkpt lat="44.07563" lon="3.18487">
        <ele>777.7</ele>
        <time>2019-05-31T12:14:49Z</time>
      </trkpt>
      <trkpt lat="44.07566" lon="3.18481">
        <ele>777.7</ele>
        <time>2019-05-31T12:14:50Z</time>
      </trkpt>
      <trkpt lat="44.07571" lon="3.18476">
        <ele>777.7</ele>
        <time>2019-05-31T12:14:51Z</time>
      </trkpt>
      <trkpt lat="44.07575" lon="3.18468">
        <ele>777.6</ele>
        <time>2019-05-31T12:14:52Z</time>
      </trkpt>
      <trkpt lat="44.07578" lon="3.18459">
        <ele>777.5</ele>
        <time>2019-05-31T12:14:53Z</time>
      </trkpt>
      <trkpt lat="44.07582" lon="3.18455">
        <ele>777.4</ele>
        <time>2019-05-31T12:14:54Z</time>
      </trkpt>
      <trkpt lat="44.07587" lon="3.18449">
        <ele>777.2</ele>
        <time>2019-05-31T12:14:55Z</time>
      </trkpt>
      <trkpt lat="44.07593" lon="3.18444">
        <ele>776.9</ele>
        <time>2019-05-31T12:14:56Z</time>
      </trkpt>
      <trkpt lat="44.07599" lon="3.18441">
        <ele>776.7</ele>
        <time>2019-05-31T12:14:57Z</time>
      </trkpt>
      <trkpt lat="44.07604" lon="3.18439">
        <ele>776.9</ele>
        <time>2019-05-31T12:14:58Z</time>
      </trkpt>
      <trkpt lat="44.07608" lon="3.18439">
        <ele>777.1</ele>
        <time>2019-05-31T12:14:59Z</time>
      </trkpt>
      <trkpt lat="44.07611" lon="3.18441">
        <ele>777.3</ele>
        <time>2019-05-31T12:15:00Z</time>
      </trkpt>
      <trkpt lat="44.07617" lon="3.18444">
        <ele>777.5</ele>
        <time>2019-05-31T12:15:02Z</time>
      </trkpt>
      <trkpt lat="44.07621" lon="3.18443">
        <ele>777.7</ele>
        <time>2019-05-31T12:15:03Z</time>
      </trkpt>
      <trkpt lat="44.07626" lon="3.18443">
        <ele>777.9</ele>
        <time>2019-05-31T12:15:05Z</time>
      </trkpt>
      <trkpt lat="44.07629" lon="3.18442">
        <ele>778</ele>
        <time>2019-05-31T12:15:06Z</time>
      </trkpt>
      <trkpt lat="44.07634" lon="3.1844">
        <ele>778.3</ele>
        <time>2019-05-31T12:15:08Z</time>
      </trkpt>
      <trkpt lat="44.07638" lon="3.18439">
        <ele>778.6</ele>
        <time>2019-05-31T12:15:10Z</time>
      </trkpt>
      <trkpt lat="44.07642" lon="3.18439">
        <ele>779</ele>
        <time>2019-05-31T12:15:12Z</time>
      </trkpt>
      <trkpt lat="44.07645" lon="3.18439">
        <ele>779.2</ele>
        <time>2019-05-31T12:15:14Z</time>
      </trkpt>
      <trkpt lat="44.07648" lon="3.18439">
        <ele>779.5</ele>
        <time>2019-05-31T12:15:16Z</time>
      </trkpt>
      <trkpt lat="44.07652" lon="3.18438">
        <ele>779.8</ele>
        <time>2019-05-31T12:15:18Z</time>
      </trkpt>
      <trkpt lat="44.07655" lon="3.18437">
        <ele>780.1</ele>
        <time>2019-05-31T12:15:21Z</time>
      </trkpt>
      <trkpt lat="44.07655" lon="3.18441">
        <ele>780.4</ele>
        <time>2019-05-31T12:15:26Z</time>
      </trkpt>
      <trkpt lat="44.07653" lon="3.18442">
        <ele>779.8</ele>
        <time>2019-05-31T12:15:32Z</time>
      </trkpt>
      <trkpt lat="44.07655" lon="3.18444">
        <ele>780.6</ele>
        <time>2019-05-31T12:15:37Z</time>
      </trkpt>
      <trkpt lat="44.07658" lon="3.18444">
        <ele>780.7</ele>
        <time>2019-05-31T12:15:40Z</time>
      </trkpt>
      <trkpt lat="44.07661" lon="3.18446">
        <ele>780.8</ele>
        <time>2019-05-31T12:15:43Z</time>
      </trkpt>
      <trkpt lat="44.07669" lon="3.18447">
        <ele>781.1</ele>
        <time>2019-05-31T12:16:22Z</time>
      </trkpt>
      <trkpt lat="44.07672" lon="3.18447">
        <ele>781.3</ele>
        <time>2019-05-31T12:16:25Z</time>
      </trkpt>
      <trkpt lat="44.07675" lon="3.18444">
        <ele>781.4</ele>
        <time>2019-05-31T12:16:31Z</time>
      </trkpt>
      <trkpt lat="44.07677" lon="3.18442">
        <ele>781.5</ele>
        <time>2019-05-31T12:16:36Z</time>
      </trkpt>
      <trkpt lat="44.07676" lon="3.18438">
        <ele>781.7</ele>
        <time>2019-05-31T12:16:44Z</time>
      </trkpt>
      <trkpt lat="44.07678" lon="3.18434">
        <ele>781.8</ele>
        <time>2019-05-31T12:16:52Z</time>
      </trkpt>
      <trkpt lat="44.07678" lon="3.18438">
        <ele>781.9</ele>
        <time>2019-05-31T12:22:37Z</time>
      </trkpt>
      <trkpt lat="44.07676" lon="3.18441">
        <ele>782</ele>
        <time>2019-05-31T12:22:41Z</time>
      </trkpt>
      <trkpt lat="44.07673" lon="3.18443">
        <ele>782.2</ele>
        <time>2019-05-31T12:22:44Z</time>
      </trkpt>
      <trkpt lat="44.07671" lon="3.18445">
        <ele>782.3</ele>
        <time>2019-05-31T12:22:48Z</time>
      </trkpt>
      <trkpt lat="44.07668" lon="3.18447">
        <ele>782.4</ele>
        <time>2019-05-31T12:22:51Z</time>
      </trkpt>
      <trkpt lat="44.07669" lon="3.18451">
        <ele>782.5</ele>
        <time>2019-05-31T12:22:55Z</time>
      </trkpt>
      <trkpt lat="44.0767" lon="3.18455">
        <ele>782.6</ele>
        <time>2019-05-31T12:22:58Z</time>
      </trkpt>
      <trkpt lat="44.07673" lon="3.18457">
        <ele>782.8</ele>
        <time>2019-05-31T12:23:02Z</time>
      </trkpt>
      <trkpt lat="44.07676" lon="3.18458">
        <ele>782.9</ele>
        <time>2019-05-31T12:23:14Z</time>
      </trkpt>
      <trkpt lat="44.07678" lon="3.18458">
        <ele>783</ele>
        <time>2019-05-31T12:23:33Z</time>
      </trkpt>
      <trkpt lat="44.07675" lon="3.18455">
        <ele>783.2</ele>
        <time>2019-05-31T12:25:44Z</time>
      </trkpt>
      <trkpt lat="44.07673" lon="3.18452">
        <ele>783.3</ele>
        <time>2019-05-31T12:25:46Z</time>
      </trkpt>
      <trkpt lat="44.0767" lon="3.18451">
        <ele>782.8</ele>
        <time>2019-05-31T12:26:16Z</time>
      </trkpt>
      <trkpt lat="44.07666" lon="3.1845">
        <ele>782.3</ele>
        <time>2019-05-31T12:26:19Z</time>
      </trkpt>
      <trkpt lat="44.07664" lon="3.18447">
        <ele>781.9</ele>
        <time>2019-05-31T12:26:21Z</time>
      </trkpt>
      <trkpt lat="44.07661" lon="3.18444">
        <ele>781.5</ele>
        <time>2019-05-31T12:26:23Z</time>
      </trkpt>
      <trkpt lat="44.07659" lon="3.18441">
        <ele>781.1</ele>
        <time>2019-05-31T12:26:25Z</time>
      </trkpt>
      <trkpt lat="44.07659" lon="3.18436">
        <ele>780.7</ele>
        <time>2019-05-31T12:26:28Z</time>
      </trkpt>
      <trkpt lat="44.07661" lon="3.18433">
        <ele>780.3</ele>
        <time>2019-05-31T12:26:32Z</time>
      </trkpt>
      <trkpt lat="44.07664" lon="3.1843">
        <ele>780.3</ele>
        <time>2019-05-31T12:26:35Z</time>
      </trkpt>
      <trkpt lat="44.07667" lon="3.18426">
        <ele>780.3</ele>
        <time>2019-05-31T12:26:38Z</time>
      </trkpt>
      <trkpt lat="44.0767" lon="3.18422">
        <ele>780.4</ele>
        <time>2019-05-31T12:26:40Z</time>
      </trkpt>
      <trkpt lat="44.07672" lon="3.18415">
        <ele>780.3</ele>
        <time>2019-05-31T12:26:42Z</time>
      </trkpt>
      <trkpt lat="44.07673" lon="3.18411">
        <ele>780.2</ele>
        <time>2019-05-31T12:26:43Z</time>
      </trkpt>
      <trkpt lat="44.07674" lon="3.18407">
        <ele>780.2</ele>
        <time>2019-05-31T12:26:44Z</time>
      </trkpt>
      <trkpt lat="44.07674" lon="3.18403">
        <ele>780.1</ele>
        <time>2019-05-31T12:26:45Z</time>
      </trkpt>
      <trkpt lat="44.07675" lon="3.18399">
        <ele>780.1</ele>
        <time>2019-05-31T12:26:46Z</time>
      </trkpt>
      <trkpt lat="44.07676" lon="3.18395">
        <ele>780</ele>
        <time>2019-05-31T12:26:47Z</time>
      </trkpt>
      <trkpt lat="44.07677" lon="3.1839">
        <ele>780</ele>
        <time>2019-05-31T12:26:48Z</time>
      </trkpt>
      <trkpt lat="44.07678" lon="3.18386">
        <ele>779.9</ele>
        <time>2019-05-31T12:26:49Z</time>
      </trkpt>
      <trkpt lat="44.07679" lon="3.18381">
        <ele>779.8</ele>
        <time>2019-05-31T12:26:50Z</time>
      </trkpt>
      <trkpt lat="44.07679" lon="3.18376">
        <ele>779.7</ele>
        <time>2019-05-31T12:26:51Z</time>
      </trkpt>
      <trkpt lat="44.07679" lon="3.18371">
        <ele>779.6</ele>
        <time>2019-05-31T12:26:52Z</time>
      </trkpt>
      <trkpt lat="44.07679" lon="3.18367">
        <ele>779.5</ele>
        <time>2019-05-31T12:26:53Z</time>
      </trkpt>
      <trkpt lat="44.07677" lon="3.1836">
        <ele>779.4</ele>
        <time>2019-05-31T12:26:55Z</time>
      </trkpt>
      <trkpt lat="44.07679" lon="3.18363">
        <ele>779.4</ele>
        <time>2019-05-31T12:27:32Z</time>
      </trkpt>
      <trkpt lat="44.0768" lon="3.18367">
        <ele>779.3</ele>
        <time>2019-05-31T12:27:33Z</time>
      </trkpt>
      <trkpt lat="44.0768" lon="3.18372">
        <ele>779.2</ele>
        <time>2019-05-31T12:27:34Z</time>
      </trkpt>
      <trkpt lat="44.0768" lon="3.18378">
        <ele>779.1</ele>
        <time>2019-05-31T12:27:36Z</time>
      </trkpt>
      <trkpt lat="44.0768" lon="3.18384">
        <ele>779</ele>
        <time>2019-05-31T12:27:38Z</time>
      </trkpt>
      <trkpt lat="44.07678" lon="3.1838">
        <ele>778.9</ele>
        <time>2019-05-31T12:31:43Z</time>
      </trkpt>
      <trkpt lat="44.07679" lon="3.18375">
        <ele>778.8</ele>
        <time>2019-05-31T12:31:44Z</time>
      </trkpt>
      <trkpt lat="44.07679" lon="3.1837">
        <ele>778.7</ele>
        <time>2019-05-31T12:31:45Z</time>
      </trkpt>
      <trkpt lat="44.07681" lon="3.18365">
        <ele>778.6</ele>
        <time>2019-05-31T12:31:46Z</time>
      </trkpt>
      <trkpt lat="44.07682" lon="3.1836">
        <ele>778.5</ele>
        <time>2019-05-31T12:31:47Z</time>
      </trkpt>
      <trkpt lat="44.07683" lon="3.18356">
        <ele>778.3</ele>
        <time>2019-05-31T12:31:48Z</time>
      </trkpt>
      <trkpt lat="44.07685" lon="3.18351">
        <ele>778</ele>
        <time>2019-05-31T12:31:49Z</time>
      </trkpt>
      <trkpt lat="44.07687" lon="3.18346">
        <ele>777.8</ele>
        <time>2019-05-31T12:31:50Z</time>
      </trkpt>
      <trkpt lat="44.07689" lon="3.18341">
        <ele>777.5</ele>
        <time>2019-05-31T12:31:51Z</time>
      </trkpt>
      <trkpt lat="44.07692" lon="3.18337">
        <ele>777.3</ele>
        <time>2019-05-31T12:31:52Z</time>
      </trkpt>
      <trkpt lat="44.07693" lon="3.18332">
        <ele>777.1</ele>
        <time>2019-05-31T12:31:53Z</time>
      </trkpt>
      <trkpt lat="44.07694" lon="3.18328">
        <ele>776.9</ele>
        <time>2019-05-31T12:32:00Z</time>
      </trkpt>
      <trkpt lat="44.07696" lon="3.18325">
        <ele>776.8</ele>
        <time>2019-05-31T12:32:04Z</time>
      </trkpt>
      <trkpt lat="44.07696" lon="3.18321">
        <ele>776.7</ele>
        <time>2019-05-31T12:32:08Z</time>
      </trkpt>
      <trkpt lat="44.07697" lon="3.18316">
        <ele>776.5</ele>
        <time>2019-05-31T12:32:10Z</time>
      </trkpt>
      <trkpt lat="44.07699" lon="3.1831">
        <ele>776.4</ele>
        <time>2019-05-31T12:32:12Z</time>
      </trkpt>
      <trkpt lat="44.07701" lon="3.18307">
        <ele>776.3</ele>
        <time>2019-05-31T12:32:13Z</time>
      </trkpt>
      <trkpt lat="44.07702" lon="3.18303">
        <ele>776.2</ele>
        <time>2019-05-31T12:32:14Z</time>
      </trkpt>
      <trkpt lat="44.07703" lon="3.18296">
        <ele>776.1</ele>
        <time>2019-05-31T12:32:16Z</time>
      </trkpt>
      <trkpt lat="44.07704" lon="3.18292">
        <ele>776</ele>
        <time>2019-05-31T12:32:17Z</time>
      </trkpt>
      <trkpt lat="44.07705" lon="3.18287">
        <ele>775.9</ele>
        <time>2019-05-31T12:32:18Z</time>
      </trkpt>
      <trkpt lat="44.07706" lon="3.18283">
        <ele>775.8</ele>
        <time>2019-05-31T12:32:19Z</time>
      </trkpt>
      <trkpt lat="44.07707" lon="3.18278">
        <ele>775.7</ele>
        <time>2019-05-31T12:32:20Z</time>
      </trkpt>
      <trkpt lat="44.07708" lon="3.18274">
        <ele>775.7</ele>
        <time>2019-05-31T12:32:21Z</time>
      </trkpt>
      <trkpt lat="44.07709" lon="3.18269">
        <ele>775.6</ele>
        <time>2019-05-31T12:32:22Z</time>
      </trkpt>
      <trkpt lat="44.07709" lon="3.18265">
        <ele>775.6</ele>
        <time>2019-05-31T12:32:23Z</time>
      </trkpt>
      <trkpt lat="44.07708" lon="3.1826">
        <ele>775.5</ele>
        <time>2019-05-31T12:32:24Z</time>
      </trkpt>
      <trkpt lat="44.07706" lon="3.18256">
        <ele>775.5</ele>
        <time>2019-05-31T12:32:25Z</time>
      </trkpt>
      <trkpt lat="44.07704" lon="3.18252">
        <ele>775.4</ele>
        <time>2019-05-31T12:32:26Z</time>
      </trkpt>
      <trkpt lat="44.07702" lon="3.18248">
        <ele>775.4</ele>
        <time>2019-05-31T12:32:27Z</time>
      </trkpt>
      <trkpt lat="44.077" lon="3.18245">
        <ele>775.3</ele>
        <time>2019-05-31T12:32:28Z</time>
      </trkpt>
      <trkpt lat="44.07699" lon="3.18239">
        <ele>775.2</ele>
        <time>2019-05-31T12:32:30Z</time>
      </trkpt>
      <trkpt lat="44.077" lon="3.18234">
        <ele>775.2</ele>
        <time>2019-05-31T12:32:31Z</time>
      </trkpt>
      <trkpt lat="44.07701" lon="3.1823">
        <ele>775.1</ele>
        <time>2019-05-31T12:32:32Z</time>
      </trkpt>
      <trkpt lat="44.07701" lon="3.18225">
        <ele>775</ele>
        <time>2019-05-31T12:32:33Z</time>
      </trkpt>
      <trkpt lat="44.07701" lon="3.1822">
        <ele>775</ele>
        <time>2019-05-31T12:32:34Z</time>
      </trkpt>
      <trkpt lat="44.07701" lon="3.18214">
        <ele>774.9</ele>
        <time>2019-05-31T12:32:35Z</time>
      </trkpt>
      <trkpt lat="44.07701" lon="3.18209">
        <ele>774.9</ele>
        <time>2019-05-31T12:32:36Z</time>
      </trkpt>
      <trkpt lat="44.07701" lon="3.18202">
        <ele>774.8</ele>
        <time>2019-05-31T12:32:37Z</time>
      </trkpt>
      <trkpt lat="44.07701" lon="3.18196">
        <ele>774.7</ele>
        <time>2019-05-31T12:32:38Z</time>
      </trkpt>
      <trkpt lat="44.07704" lon="3.18189">
        <ele>774.6</ele>
        <time>2019-05-31T12:32:39Z</time>
      </trkpt>
      <trkpt lat="44.07706" lon="3.18183">
        <ele>774.6</ele>
        <time>2019-05-31T12:32:40Z</time>
      </trkpt>
      <trkpt lat="44.07709" lon="3.18178">
        <ele>774.5</ele>
        <time>2019-05-31T12:32:41Z</time>
      </trkpt>
      <trkpt lat="44.07711" lon="3.18173">
        <ele>774.4</ele>
        <time>2019-05-31T12:32:42Z</time>
      </trkpt>
      <trkpt lat="44.07713" lon="3.18169">
        <ele>774.3</ele>
        <time>2019-05-31T12:32:43Z</time>
      </trkpt>
      <trkpt lat="44.07715" lon="3.18166">
        <ele>774.3</ele>
        <time>2019-05-31T12:32:44Z</time>
      </trkpt>
      <trkpt lat="44.07718" lon="3.18161">
        <ele>774.1</ele>
        <time>2019-05-31T12:32:45Z</time>
      </trkpt>
      <trkpt lat="44.0772" lon="3.18156">
        <ele>774</ele>
        <time>2019-05-31T12:32:46Z</time>
      </trkpt>
      <trkpt lat="44.07722" lon="3.18151">
        <ele>773.9</ele>
        <time>2019-05-31T12:32:47Z</time>
      </trkpt>
      <trkpt lat="44.07726" lon="3.18147">
        <ele>773.7</ele>
        <time>2019-05-31T12:32:48Z</time>
      </trkpt>
      <trkpt lat="44.07728" lon="3.18143">
        <ele>773.6</ele>
        <time>2019-05-31T12:32:49Z</time>
      </trkpt>
      <trkpt lat="44.07731" lon="3.18139">
        <ele>773.5</ele>
        <time>2019-05-31T12:32:50Z</time>
      </trkpt>
      <trkpt lat="44.07734" lon="3.18136">
        <ele>773.4</ele>
        <time>2019-05-31T12:32:51Z</time>
      </trkpt>
      <trkpt lat="44.07738" lon="3.18133">
        <ele>773.2</ele>
        <time>2019-05-31T12:32:52Z</time>
      </trkpt>
      <trkpt lat="44.07742" lon="3.18131">
        <ele>772.9</ele>
        <time>2019-05-31T12:32:53Z</time>
      </trkpt>
      <trkpt lat="44.07745" lon="3.18128">
        <ele>772.7</ele>
        <time>2019-05-31T12:32:54Z</time>
      </trkpt>
      <trkpt lat="44.07749" lon="3.18126">
        <ele>772.4</ele>
        <time>2019-05-31T12:32:55Z</time>
      </trkpt>
      <trkpt lat="44.07753" lon="3.18123">
        <ele>772.1</ele>
        <time>2019-05-31T12:32:56Z</time>
      </trkpt>
      <trkpt lat="44.07755" lon="3.18121">
        <ele>771.8</ele>
        <time>2019-05-31T12:32:57Z</time>
      </trkpt>
      <trkpt lat="44.07756" lon="3.18114">
        <ele>771.4</ele>
        <time>2019-05-31T12:32:59Z</time>
      </trkpt>
      <trkpt lat="44.07753" lon="3.1811">
        <ele>771.1</ele>
        <time>2019-05-31T12:33:00Z</time>
      </trkpt>
      <trkpt lat="44.07745" lon="3.18105">
        <ele>770.8</ele>
        <time>2019-05-31T12:33:01Z</time>
      </trkpt>
      <trkpt lat="44.07742" lon="3.18102">
        <ele>770.2</ele>
        <time>2019-05-31T12:33:02Z</time>
      </trkpt>
      <trkpt lat="44.07738" lon="3.18097">
        <ele>769.7</ele>
        <time>2019-05-31T12:33:03Z</time>
      </trkpt>
      <trkpt lat="44.07736" lon="3.18093">
        <ele>769.3</ele>
        <time>2019-05-31T12:33:04Z</time>
      </trkpt>
      <trkpt lat="44.07733" lon="3.1809">
        <ele>768.9</ele>
        <time>2019-05-31T12:33:05Z</time>
      </trkpt>
      <trkpt lat="44.0773" lon="3.18087">
        <ele>768.5</ele>
        <time>2019-05-31T12:33:06Z</time>
      </trkpt>
      <trkpt lat="44.07728" lon="3.18084">
        <ele>768.2</ele>
        <time>2019-05-31T12:33:07Z</time>
      </trkpt>
      <trkpt lat="44.07725" lon="3.1808">
        <ele>767.9</ele>
        <time>2019-05-31T12:33:08Z</time>
      </trkpt>
      <trkpt lat="44.07722" lon="3.18076">
        <ele>767.5</ele>
        <time>2019-05-31T12:33:09Z</time>
      </trkpt>
      <trkpt lat="44.0772" lon="3.18071">
        <ele>767.2</ele>
        <time>2019-05-31T12:33:10Z</time>
      </trkpt>
      <trkpt lat="44.07716" lon="3.18066">
        <ele>766.9</ele>
        <time>2019-05-31T12:33:11Z</time>
      </trkpt>
      <trkpt lat="44.07713" lon="3.1806">
        <ele>766.5</ele>
        <time>2019-05-31T12:33:12Z</time>
      </trkpt>
      <trkpt lat="44.07708" lon="3.18054">
        <ele>766.1</ele>
        <time>2019-05-31T12:33:13Z</time>
      </trkpt>
      <trkpt lat="44.07706" lon="3.18048">
        <ele>765.9</ele>
        <time>2019-05-31T12:33:14Z</time>
      </trkpt>
      <trkpt lat="44.07705" lon="3.18043">
        <ele>765.7</ele>
        <time>2019-05-31T12:33:15Z</time>
      </trkpt>
      <trkpt lat="44.07702" lon="3.18038">
        <ele>765.5</ele>
        <time>2019-05-31T12:33:16Z</time>
      </trkpt>
      <trkpt lat="44.07703" lon="3.18033">
        <ele>765.2</ele>
        <time>2019-05-31T12:33:17Z</time>
      </trkpt>
      <trkpt lat="44.07707" lon="3.18029">
        <ele>764.7</ele>
        <time>2019-05-31T12:33:18Z</time>
      </trkpt>
      <trkpt lat="44.0771" lon="3.18024">
        <ele>764.2</ele>
        <time>2019-05-31T12:33:19Z</time>
      </trkpt>
      <trkpt lat="44.07717" lon="3.18022">
        <ele>763.6</ele>
        <time>2019-05-31T12:33:20Z</time>
      </trkpt>
      <trkpt lat="44.07722" lon="3.18021">
        <ele>763.2</ele>
        <time>2019-05-31T12:33:21Z</time>
      </trkpt>
      <trkpt lat="44.07727" lon="3.18023">
        <ele>762.9</ele>
        <time>2019-05-31T12:33:22Z</time>
      </trkpt>
      <trkpt lat="44.07733" lon="3.18026">
        <ele>762.4</ele>
        <time>2019-05-31T12:33:23Z</time>
      </trkpt>
      <trkpt lat="44.07738" lon="3.18027">
        <ele>762.1</ele>
        <time>2019-05-31T12:33:24Z</time>
      </trkpt>
      <trkpt lat="44.07743" lon="3.18027">
        <ele>761.8</ele>
        <time>2019-05-31T12:33:25Z</time>
      </trkpt>
      <trkpt lat="44.07749" lon="3.18026">
        <ele>761.4</ele>
        <time>2019-05-31T12:33:26Z</time>
      </trkpt>
      <trkpt lat="44.07755" lon="3.18025">
        <ele>760.9</ele>
        <time>2019-05-31T12:33:27Z</time>
      </trkpt>
      <trkpt lat="44.07762" lon="3.18025">
        <ele>760.5</ele>
        <time>2019-05-31T12:33:28Z</time>
      </trkpt>
      <trkpt lat="44.0777" lon="3.18023">
        <ele>760.1</ele>
        <time>2019-05-31T12:33:29Z</time>
      </trkpt>
      <trkpt lat="44.07778" lon="3.18024">
        <ele>759.9</ele>
        <time>2019-05-31T12:33:30Z</time>
      </trkpt>
      <trkpt lat="44.07785" lon="3.18025">
        <ele>759.7</ele>
        <time>2019-05-31T12:33:31Z</time>
      </trkpt>
      <trkpt lat="44.07791" lon="3.18025">
        <ele>759.4</ele>
        <time>2019-05-31T12:33:32Z</time>
      </trkpt>
      <trkpt lat="44.07797" lon="3.18025">
        <ele>759.3</ele>
        <time>2019-05-31T12:33:33Z</time>
      </trkpt>
      <trkpt lat="44.07803" lon="3.18026">
        <ele>759.1</ele>
        <time>2019-05-31T12:33:34Z</time>
      </trkpt>
      <trkpt lat="44.0781" lon="3.18027">
        <ele>758.9</ele>
        <time>2019-05-31T12:33:35Z</time>
      </trkpt>
      <trkpt lat="44.07817" lon="3.18029">
        <ele>758.8</ele>
        <time>2019-05-31T12:33:36Z</time>
      </trkpt>
      <trkpt lat="44.07823" lon="3.18029">
        <ele>758.6</ele>
        <time>2019-05-31T12:33:37Z</time>
      </trkpt>
      <trkpt lat="44.07829" lon="3.1803">
        <ele>758.4</ele>
        <time>2019-05-31T12:33:38Z</time>
      </trkpt>
      <trkpt lat="44.07837" lon="3.1803">
        <ele>758</ele>
        <time>2019-05-31T12:33:39Z</time>
      </trkpt>
      <trkpt lat="44.07844" lon="3.18031">
        <ele>757.6</ele>
        <time>2019-05-31T12:33:40Z</time>
      </trkpt>
      <trkpt lat="44.0785" lon="3.18032">
        <ele>757.1</ele>
        <time>2019-05-31T12:33:41Z</time>
      </trkpt>
      <trkpt lat="44.07856" lon="3.18034">
        <ele>756.8</ele>
        <time>2019-05-31T12:33:42Z</time>
      </trkpt>
      <trkpt lat="44.07863" lon="3.18035">
        <ele>756.5</ele>
        <time>2019-05-31T12:33:43Z</time>
      </trkpt>
      <trkpt lat="44.0787" lon="3.18034">
        <ele>756.1</ele>
        <time>2019-05-31T12:33:44Z</time>
      </trkpt>
      <trkpt lat="44.07875" lon="3.18035">
        <ele>755.9</ele>
        <time>2019-05-31T12:33:45Z</time>
      </trkpt>
      <trkpt lat="44.07882" lon="3.18033">
        <ele>755.6</ele>
        <time>2019-05-31T12:33:46Z</time>
      </trkpt>
      <trkpt lat="44.07887" lon="3.18033">
        <ele>755.4</ele>
        <time>2019-05-31T12:33:47Z</time>
      </trkpt>
      <trkpt lat="44.07894" lon="3.18032">
        <ele>755.2</ele>
        <time>2019-05-31T12:33:48Z</time>
      </trkpt>
      <trkpt lat="44.079" lon="3.18032">
        <ele>754.9</ele>
        <time>2019-05-31T12:33:49Z</time>
      </trkpt>
      <trkpt lat="44.07907" lon="3.18031">
        <ele>754.6</ele>
        <time>2019-05-31T12:33:50Z</time>
      </trkpt>
      <trkpt lat="44.07912" lon="3.18033">
        <ele>754.4</ele>
        <time>2019-05-31T12:33:51Z</time>
      </trkpt>
      <trkpt lat="44.07918" lon="3.18032">
        <ele>754.2</ele>
        <time>2019-05-31T12:33:52Z</time>
      </trkpt>
      <trkpt lat="44.07924" lon="3.1803">
        <ele>753.9</ele>
        <time>2019-05-31T12:33:53Z</time>
      </trkpt>
      <trkpt lat="44.0793" lon="3.18027">
        <ele>753.7</ele>
        <time>2019-05-31T12:33:54Z</time>
      </trkpt>
      <trkpt lat="44.07936" lon="3.18026">
        <ele>753.5</ele>
        <time>2019-05-31T12:33:55Z</time>
      </trkpt>
      <trkpt lat="44.07941" lon="3.18024">
        <ele>753.2</ele>
        <time>2019-05-31T12:33:56Z</time>
      </trkpt>
      <trkpt lat="44.07944" lon="3.1802">
        <ele>753</ele>
        <time>2019-05-31T12:33:57Z</time>
      </trkpt>
      <trkpt lat="44.07946" lon="3.18017">
        <ele>752.9</ele>
        <time>2019-05-31T12:33:58Z</time>
      </trkpt>
      <trkpt lat="44.07948" lon="3.18011">
        <ele>752.7</ele>
        <time>2019-05-31T12:33:59Z</time>
      </trkpt>
      <trkpt lat="44.0795" lon="3.18003">
        <ele>752.5</ele>
        <time>2019-05-31T12:34:00Z</time>
      </trkpt>
      <trkpt lat="44.07951" lon="3.17998">
        <ele>752.4</ele>
        <time>2019-05-31T12:34:01Z</time>
      </trkpt>
      <trkpt lat="44.07952" lon="3.17993">
        <ele>752.3</ele>
        <time>2019-05-31T12:34:02Z</time>
      </trkpt>
      <trkpt lat="44.07954" lon="3.17986">
        <ele>752</ele>
        <time>2019-05-31T12:34:04Z</time>
      </trkpt>
      <trkpt lat="44.07957" lon="3.17986">
        <ele>751.9</ele>
        <time>2019-05-31T12:34:08Z</time>
      </trkpt>
      <trkpt lat="44.0796" lon="3.17988">
        <ele>751.8</ele>
        <time>2019-05-31T12:36:58Z</time>
      </trkpt>
      <trkpt lat="44.07965" lon="3.17985">
        <ele>751.4</ele>
        <time>2019-05-31T12:37:00Z</time>
      </trkpt>
      <trkpt lat="44.07968" lon="3.17983">
        <ele>751.2</ele>
        <time>2019-05-31T12:37:01Z</time>
      </trkpt>
      <trkpt lat="44.07972" lon="3.17982">
        <ele>751.1</ele>
        <time>2019-05-31T12:37:02Z</time>
      </trkpt>
      <trkpt lat="44.07978" lon="3.1798">
        <ele>750.8</ele>
        <time>2019-05-31T12:37:03Z</time>
      </trkpt>
      <trkpt lat="44.07985" lon="3.17981">
        <ele>750.5</ele>
        <time>2019-05-31T12:37:04Z</time>
      </trkpt>
      <trkpt lat="44.0799" lon="3.17982">
        <ele>750.2</ele>
        <time>2019-05-31T12:37:05Z</time>
      </trkpt>
      <trkpt lat="44.07997" lon="3.17982">
        <ele>750</ele>
        <time>2019-05-31T12:37:06Z</time>
      </trkpt>
      <trkpt lat="44.08004" lon="3.1798">
        <ele>749.6</ele>
        <time>2019-05-31T12:37:07Z</time>
      </trkpt>
      <trkpt lat="44.08011" lon="3.17979">
        <ele>749.3</ele>
        <time>2019-05-31T12:37:08Z</time>
      </trkpt>
      <trkpt lat="44.0802" lon="3.1798">
        <ele>748.8</ele>
        <time>2019-05-31T12:37:09Z</time>
      </trkpt>
      <trkpt lat="44.08028" lon="3.17977">
        <ele>748.4</ele>
        <time>2019-05-31T12:37:10Z</time>
      </trkpt>
      <trkpt lat="44.08037" lon="3.17977">
        <ele>748.1</ele>
        <time>2019-05-31T12:37:11Z</time>
      </trkpt>
      <trkpt lat="44.08045" lon="3.17975">
        <ele>747.8</ele>
        <time>2019-05-31T12:37:12Z</time>
      </trkpt>
      <trkpt lat="44.08052" lon="3.1797">
        <ele>747.6</ele>
        <time>2019-05-31T12:37:13Z</time>
      </trkpt>
      <trkpt lat="44.08059" lon="3.17965">
        <ele>747.5</ele>
        <time>2019-05-31T12:37:14Z</time>
      </trkpt>
      <trkpt lat="44.08066" lon="3.17966">
        <ele>747.3</ele>
        <time>2019-05-31T12:37:15Z</time>
      </trkpt>
      <trkpt lat="44.08073" lon="3.17965">
        <ele>747.1</ele>
        <time>2019-05-31T12:37:16Z</time>
      </trkpt>
      <trkpt lat="44.0808" lon="3.17963">
        <ele>746.9</ele>
        <time>2019-05-31T12:37:17Z</time>
      </trkpt>
      <trkpt lat="44.08088" lon="3.17962">
        <ele>746.7</ele>
        <time>2019-05-31T12:37:18Z</time>
      </trkpt>
      <trkpt lat="44.08095" lon="3.1796">
        <ele>746.4</ele>
        <time>2019-05-31T12:37:19Z</time>
      </trkpt>
      <trkpt lat="44.08103" lon="3.17954">
        <ele>745.9</ele>
        <time>2019-05-31T12:37:20Z</time>
      </trkpt>
      <trkpt lat="44.08111" lon="3.17952">
        <ele>745.6</ele>
        <time>2019-05-31T12:37:21Z</time>
      </trkpt>
      <trkpt lat="44.08118" lon="3.17949">
        <ele>745.3</ele>
        <time>2019-05-31T12:37:22Z</time>
      </trkpt>
      <trkpt lat="44.08124" lon="3.17948">
        <ele>745</ele>
        <time>2019-05-31T12:37:23Z</time>
      </trkpt>
      <trkpt lat="44.08132" lon="3.17942">
        <ele>744.5</ele>
        <time>2019-05-31T12:37:24Z</time>
      </trkpt>
      <trkpt lat="44.08141" lon="3.17942">
        <ele>744</ele>
        <time>2019-05-31T12:37:25Z</time>
      </trkpt>
      <trkpt lat="44.08149" lon="3.17942">
        <ele>743.5</ele>
        <time>2019-05-31T12:37:26Z</time>
      </trkpt>
      <trkpt lat="44.08158" lon="3.17943">
        <ele>743</ele>
        <time>2019-05-31T12:37:27Z</time>
      </trkpt>
      <trkpt lat="44.08166" lon="3.17944">
        <ele>742.7</ele>
        <time>2019-05-31T12:37:28Z</time>
      </trkpt>
      <trkpt lat="44.08174" lon="3.17944">
        <ele>742.3</ele>
        <time>2019-05-31T12:37:29Z</time>
      </trkpt>
      <trkpt lat="44.0818" lon="3.17942">
        <ele>741.9</ele>
        <time>2019-05-31T12:37:30Z</time>
      </trkpt>
      <trkpt lat="44.08188" lon="3.17942">
        <ele>741.3</ele>
        <time>2019-05-31T12:37:31Z</time>
      </trkpt>
      <trkpt lat="44.08197" lon="3.17946">
        <ele>740.8</ele>
        <time>2019-05-31T12:37:32Z</time>
      </trkpt>
      <trkpt lat="44.08202" lon="3.17953">
        <ele>740.4</ele>
        <time>2019-05-31T12:37:33Z</time>
      </trkpt>
      <trkpt lat="44.08209" lon="3.17959">
        <ele>739.9</ele>
        <time>2019-05-31T12:37:34Z</time>
      </trkpt>
      <trkpt lat="44.08216" lon="3.17964">
        <ele>739.5</ele>
        <time>2019-05-31T12:37:35Z</time>
      </trkpt>
      <trkpt lat="44.08222" lon="3.17967">
        <ele>739.2</ele>
        <time>2019-05-31T12:37:36Z</time>
      </trkpt>
      <trkpt lat="44.08231" lon="3.17969">
        <ele>738.9</ele>
        <time>2019-05-31T12:37:37Z</time>
      </trkpt>
      <trkpt lat="44.08239" lon="3.17969">
        <ele>738.6</ele>
        <time>2019-05-31T12:37:38Z</time>
      </trkpt>
      <trkpt lat="44.08247" lon="3.17971">
        <ele>738.3</ele>
        <time>2019-05-31T12:37:39Z</time>
      </trkpt>
      <trkpt lat="44.08251" lon="3.17967">
        <ele>738.1</ele>
        <time>2019-05-31T12:37:40Z</time>
      </trkpt>
      <trkpt lat="44.08258" lon="3.17965">
        <ele>737.8</ele>
        <time>2019-05-31T12:37:41Z</time>
      </trkpt>
      <trkpt lat="44.08266" lon="3.17966">
        <ele>737.5</ele>
        <time>2019-05-31T12:37:42Z</time>
      </trkpt>
      <trkpt lat="44.0827" lon="3.17967">
        <ele>737.3</ele>
        <time>2019-05-31T12:37:43Z</time>
      </trkpt>
      <trkpt lat="44.08275" lon="3.17967">
        <ele>737</ele>
        <time>2019-05-31T12:37:44Z</time>
      </trkpt>
      <trkpt lat="44.0828" lon="3.17968">
        <ele>736.7</ele>
        <time>2019-05-31T12:37:45Z</time>
      </trkpt>
      <trkpt lat="44.08286" lon="3.1797">
        <ele>736.5</ele>
        <time>2019-05-31T12:37:46Z</time>
      </trkpt>
      <trkpt lat="44.08291" lon="3.17969">
        <ele>736.2</ele>
        <time>2019-05-31T12:37:47Z</time>
      </trkpt>
      <trkpt lat="44.08298" lon="3.17968">
        <ele>735.7</ele>
        <time>2019-05-31T12:37:48Z</time>
      </trkpt>
      <trkpt lat="44.08304" lon="3.17967">
        <ele>735.5</ele>
        <time>2019-05-31T12:37:49Z</time>
      </trkpt>
      <trkpt lat="44.08311" lon="3.17963">
        <ele>735.1</ele>
        <time>2019-05-31T12:37:50Z</time>
      </trkpt>
      <trkpt lat="44.08318" lon="3.17961">
        <ele>734.8</ele>
        <time>2019-05-31T12:37:51Z</time>
      </trkpt>
      <trkpt lat="44.08325" lon="3.17963">
        <ele>734.4</ele>
        <time>2019-05-31T12:37:52Z</time>
      </trkpt>
      <trkpt lat="44.08337" lon="3.17963">
        <ele>733.7</ele>
        <time>2019-05-31T12:37:53Z</time>
      </trkpt>
      <trkpt lat="44.08343" lon="3.17966">
        <ele>733.3</ele>
        <time>2019-05-31T12:37:54Z</time>
      </trkpt>
      <trkpt lat="44.08346" lon="3.1797">
        <ele>733</ele>
        <time>2019-05-31T12:37:55Z</time>
      </trkpt>
      <trkpt lat="44.0835" lon="3.17972">
        <ele>732.7</ele>
        <time>2019-05-31T12:37:56Z</time>
      </trkpt>
      <trkpt lat="44.08349" lon="3.17977">
        <ele>732.4</ele>
        <time>2019-05-31T12:37:57Z</time>
      </trkpt>
      <trkpt lat="44.08352" lon="3.1798">
        <ele>732.2</ele>
        <time>2019-05-31T12:37:58Z</time>
      </trkpt>
      <trkpt lat="44.08357" lon="3.17981">
        <ele>731.8</ele>
        <time>2019-05-31T12:37:59Z</time>
      </trkpt>
      <trkpt lat="44.08362" lon="3.17983">
        <ele>731.4</ele>
        <time>2019-05-31T12:38:00Z</time>
      </trkpt>
      <trkpt lat="44.08367" lon="3.17984">
        <ele>730.9</ele>
        <time>2019-05-31T12:38:01Z</time>
      </trkpt>
      <trkpt lat="44.08373" lon="3.17983">
        <ele>730.3</ele>
        <time>2019-05-31T12:38:02Z</time>
      </trkpt>
      <trkpt lat="44.08377" lon="3.17983">
        <ele>729.9</ele>
        <time>2019-05-31T12:38:03Z</time>
      </trkpt>
      <trkpt lat="44.08381" lon="3.17984">
        <ele>729.4</ele>
        <time>2019-05-31T12:38:04Z</time>
      </trkpt>
      <trkpt lat="44.08387" lon="3.17988">
        <ele>728.5</ele>
        <time>2019-05-31T12:38:05Z</time>
      </trkpt>
      <trkpt lat="44.08392" lon="3.17989">
        <ele>728</ele>
        <time>2019-05-31T12:38:06Z</time>
      </trkpt>
      <trkpt lat="44.08395" lon="3.17991">
        <ele>727.6</ele>
        <time>2019-05-31T12:38:07Z</time>
      </trkpt>
      <trkpt lat="44.08401" lon="3.17996">
        <ele>726.9</ele>
        <time>2019-05-31T12:38:08Z</time>
      </trkpt>
      <trkpt lat="44.08406" lon="3.17999">
        <ele>726</ele>
        <time>2019-05-31T12:38:09Z</time>
      </trkpt>
      <trkpt lat="44.08412" lon="3.18003">
        <ele>725.2</ele>
        <time>2019-05-31T12:38:10Z</time>
      </trkpt>
      <trkpt lat="44.08418" lon="3.18005">
        <ele>724.5</ele>
        <time>2019-05-31T12:38:11Z</time>
      </trkpt>
      <trkpt lat="44.08422" lon="3.17998">
        <ele>723.8</ele>
        <time>2019-05-31T12:38:12Z</time>
      </trkpt>
      <trkpt lat="44.08426" lon="3.17991">
        <ele>723.2</ele>
        <time>2019-05-31T12:38:13Z</time>
      </trkpt>
      <trkpt lat="44.0843" lon="3.17986">
        <ele>722.7</ele>
        <time>2019-05-31T12:38:14Z</time>
      </trkpt>
      <trkpt lat="44.08434" lon="3.17981">
        <ele>722.3</ele>
        <time>2019-05-31T12:38:15Z</time>
      </trkpt>
      <trkpt lat="44.08436" lon="3.17978">
        <ele>722</ele>
        <time>2019-05-31T12:38:16Z</time>
      </trkpt>
      <trkpt lat="44.0844" lon="3.17973">
        <ele>721.4</ele>
        <time>2019-05-31T12:38:17Z</time>
      </trkpt>
      <trkpt lat="44.08444" lon="3.1797">
        <ele>720.9</ele>
        <time>2019-05-31T12:38:18Z</time>
      </trkpt>
      <trkpt lat="44.0845" lon="3.17966">
        <ele>720.6</ele>
        <time>2019-05-31T12:38:19Z</time>
      </trkpt>
      <trkpt lat="44.08454" lon="3.17959">
        <ele>720.2</ele>
        <time>2019-05-31T12:38:20Z</time>
      </trkpt>
      <trkpt lat="44.08456" lon="3.17951">
        <ele>719.9</ele>
        <time>2019-05-31T12:38:21Z</time>
      </trkpt>
      <trkpt lat="44.08457" lon="3.17945">
        <ele>719.6</ele>
        <time>2019-05-31T12:38:22Z</time>
      </trkpt>
      <trkpt lat="44.08457" lon="3.17936">
        <ele>719.1</ele>
        <time>2019-05-31T12:38:23Z</time>
      </trkpt>
      <trkpt lat="44.08457" lon="3.17928">
        <ele>718.5</ele>
        <time>2019-05-31T12:38:24Z</time>
      </trkpt>
      <trkpt lat="44.08457" lon="3.1792">
        <ele>718</ele>
        <time>2019-05-31T12:38:25Z</time>
      </trkpt>
      <trkpt lat="44.08458" lon="3.17911">
        <ele>717.5</ele>
        <time>2019-05-31T12:38:26Z</time>
      </trkpt>
      <trkpt lat="44.08457" lon="3.17904">
        <ele>717.1</ele>
        <time>2019-05-31T12:38:27Z</time>
      </trkpt>
      <trkpt lat="44.08457" lon="3.17898">
        <ele>716.7</ele>
        <time>2019-05-31T12:38:28Z</time>
      </trkpt>
      <trkpt lat="44.08455" lon="3.17893">
        <ele>716.5</ele>
        <time>2019-05-31T12:38:29Z</time>
      </trkpt>
      <trkpt lat="44.08455" lon="3.17888">
        <ele>716.2</ele>
        <time>2019-05-31T12:38:30Z</time>
      </trkpt>
      <trkpt lat="44.08456" lon="3.17882">
        <ele>715.9</ele>
        <time>2019-05-31T12:38:31Z</time>
      </trkpt>
      <trkpt lat="44.08456" lon="3.17876">
        <ele>715.7</ele>
        <time>2019-05-31T12:38:32Z</time>
      </trkpt>
      <trkpt lat="44.08457" lon="3.17868">
        <ele>715.3</ele>
        <time>2019-05-31T12:38:34Z</time>
      </trkpt>
      <trkpt lat="44.08458" lon="3.17863">
        <ele>715.1</ele>
        <time>2019-05-31T12:38:37Z</time>
      </trkpt>
      <trkpt lat="44.08462" lon="3.17859">
        <ele>714.8</ele>
        <time>2019-05-31T12:38:39Z</time>
      </trkpt>
      <trkpt lat="44.08467" lon="3.17854">
        <ele>714.5</ele>
        <time>2019-05-31T12:38:41Z</time>
      </trkpt>
      <trkpt lat="44.0847" lon="3.17851">
        <ele>714.3</ele>
        <time>2019-05-31T12:38:42Z</time>
      </trkpt>
      <trkpt lat="44.08472" lon="3.17847">
        <ele>714.1</ele>
        <time>2019-05-31T12:38:43Z</time>
      </trkpt>
      <trkpt lat="44.08474" lon="3.17844">
        <ele>713.9</ele>
        <time>2019-05-31T12:38:44Z</time>
      </trkpt>
      <trkpt lat="44.08477" lon="3.17842">
        <ele>713.8</ele>
        <time>2019-05-31T12:38:45Z</time>
      </trkpt>
      <trkpt lat="44.0848" lon="3.17841">
        <ele>713.6</ele>
        <time>2019-05-31T12:38:46Z</time>
      </trkpt>
      <trkpt lat="44.08484" lon="3.1784">
        <ele>713.5</ele>
        <time>2019-05-31T12:38:47Z</time>
      </trkpt>
      <trkpt lat="44.08486" lon="3.17838">
        <ele>713.4</ele>
        <time>2019-05-31T12:38:48Z</time>
      </trkpt>
      <trkpt lat="44.08489" lon="3.17837">
        <ele>713.2</ele>
        <time>2019-05-31T12:38:49Z</time>
      </trkpt>
      <trkpt lat="44.08492" lon="3.17835">
        <ele>713</ele>
        <time>2019-05-31T12:38:50Z</time>
      </trkpt>
      <trkpt lat="44.08496" lon="3.17833">
        <ele>712.8</ele>
        <time>2019-05-31T12:38:51Z</time>
      </trkpt>
      <trkpt lat="44.08501" lon="3.1783">
        <ele>712.5</ele>
        <time>2019-05-31T12:38:52Z</time>
      </trkpt>
      <trkpt lat="44.08505" lon="3.17812">
        <ele>711.7</ele>
        <time>2019-05-31T12:38:53Z</time>
      </trkpt>
      <trkpt lat="44.08508" lon="3.17803">
        <ele>711.3</ele>
        <time>2019-05-31T12:38:54Z</time>
      </trkpt>
      <trkpt lat="44.08512" lon="3.17792">
        <ele>710.7</ele>
        <time>2019-05-31T12:38:55Z</time>
      </trkpt>
      <trkpt lat="44.08517" lon="3.17791">
        <ele>710.2</ele>
        <time>2019-05-31T12:38:57Z</time>
      </trkpt>
      <trkpt lat="44.08521" lon="3.17785">
        <ele>709.9</ele>
        <time>2019-05-31T12:38:58Z</time>
      </trkpt>
      <trkpt lat="44.08527" lon="3.17769">
        <ele>708.9</ele>
        <time>2019-05-31T12:38:59Z</time>
      </trkpt>
      <trkpt lat="44.08532" lon="3.17755">
        <ele>708</ele>
        <time>2019-05-31T12:39:00Z</time>
      </trkpt>
      <trkpt lat="44.08537" lon="3.17751">
        <ele>707.5</ele>
        <time>2019-05-31T12:39:01Z</time>
      </trkpt>
      <trkpt lat="44.08544" lon="3.17745">
        <ele>707</ele>
        <time>2019-05-31T12:39:02Z</time>
      </trkpt>
      <trkpt lat="44.08548" lon="3.17743">
        <ele>706.8</ele>
        <time>2019-05-31T12:39:03Z</time>
      </trkpt>
      <trkpt lat="44.08551" lon="3.17744">
        <ele>706.6</ele>
        <time>2019-05-31T12:39:04Z</time>
      </trkpt>
      <trkpt lat="44.08556" lon="3.17744">
        <ele>706.3</ele>
        <time>2019-05-31T12:39:05Z</time>
      </trkpt>
      <trkpt lat="44.08562" lon="3.17738">
        <ele>705.9</ele>
        <time>2019-05-31T12:39:06Z</time>
      </trkpt>
      <trkpt lat="44.08568" lon="3.17732">
        <ele>705.4</ele>
        <time>2019-05-31T12:39:07Z</time>
      </trkpt>
      <trkpt lat="44.08571" lon="3.17726">
        <ele>705.1</ele>
        <time>2019-05-31T12:39:08Z</time>
      </trkpt>
      <trkpt lat="44.08574" lon="3.17723">
        <ele>704.9</ele>
        <time>2019-05-31T12:39:09Z</time>
      </trkpt>
      <trkpt lat="44.08576" lon="3.17721">
        <ele>704.7</ele>
        <time>2019-05-31T12:39:10Z</time>
      </trkpt>
      <trkpt lat="44.08581" lon="3.17716">
        <ele>704.4</ele>
        <time>2019-05-31T12:39:12Z</time>
      </trkpt>
      <trkpt lat="44.08585" lon="3.17713">
        <ele>704.1</ele>
        <time>2019-05-31T12:39:13Z</time>
      </trkpt>
      <trkpt lat="44.08588" lon="3.17713">
        <ele>703.9</ele>
        <time>2019-05-31T12:39:14Z</time>
      </trkpt>
      <trkpt lat="44.08591" lon="3.17714">
        <ele>703.7</ele>
        <time>2019-05-31T12:39:15Z</time>
      </trkpt>
      <trkpt lat="44.08597" lon="3.17712">
        <ele>703.4</ele>
        <time>2019-05-31T12:39:16Z</time>
      </trkpt>
      <trkpt lat="44.08602" lon="3.1771">
        <ele>703</ele>
        <time>2019-05-31T12:39:17Z</time>
      </trkpt>
      <trkpt lat="44.08609" lon="3.17705">
        <ele>702.5</ele>
        <time>2019-05-31T12:39:18Z</time>
      </trkpt>
      <trkpt lat="44.08611" lon="3.17701">
        <ele>702.3</ele>
        <time>2019-05-31T12:39:19Z</time>
      </trkpt>
      <trkpt lat="44.08614" lon="3.17693">
        <ele>702</ele>
        <time>2019-05-31T12:39:20Z</time>
      </trkpt>
      <trkpt lat="44.08618" lon="3.17686">
        <ele>701.7</ele>
        <time>2019-05-31T12:39:21Z</time>
      </trkpt>
      <trkpt lat="44.08621" lon="3.17682">
        <ele>701.4</ele>
        <time>2019-05-31T12:39:22Z</time>
      </trkpt>
      <trkpt lat="44.08624" lon="3.17679">
        <ele>701.2</ele>
        <time>2019-05-31T12:39:23Z</time>
      </trkpt>
      <trkpt lat="44.08629" lon="3.17671">
        <ele>700.8</ele>
        <time>2019-05-31T12:39:24Z</time>
      </trkpt>
      <trkpt lat="44.08634" lon="3.17663">
        <ele>700.5</ele>
        <time>2019-05-31T12:39:25Z</time>
      </trkpt>
      <trkpt lat="44.08636" lon="3.1766">
        <ele>700.3</ele>
        <time>2019-05-31T12:39:26Z</time>
      </trkpt>
      <trkpt lat="44.0864" lon="3.1766">
        <ele>700.2</ele>
        <time>2019-05-31T12:39:27Z</time>
      </trkpt>
      <trkpt lat="44.08646" lon="3.17653">
        <ele>699.9</ele>
        <time>2019-05-31T12:39:28Z</time>
      </trkpt>
      <trkpt lat="44.08652" lon="3.17647">
        <ele>699.7</ele>
        <time>2019-05-31T12:39:29Z</time>
      </trkpt>
      <trkpt lat="44.08657" lon="3.17646">
        <ele>699.5</ele>
        <time>2019-05-31T12:39:30Z</time>
      </trkpt>
      <trkpt lat="44.08664" lon="3.17642">
        <ele>699.3</ele>
        <time>2019-05-31T12:39:31Z</time>
      </trkpt>
      <trkpt lat="44.0867" lon="3.17637">
        <ele>699.1</ele>
        <time>2019-05-31T12:39:32Z</time>
      </trkpt>
      <trkpt lat="44.08675" lon="3.17634">
        <ele>699</ele>
        <time>2019-05-31T12:39:33Z</time>
      </trkpt>
      <trkpt lat="44.08677" lon="3.17628">
        <ele>698.8</ele>
        <time>2019-05-31T12:39:34Z</time>
      </trkpt>
      <trkpt lat="44.08681" lon="3.17624">
        <ele>698.6</ele>
        <time>2019-05-31T12:39:35Z</time>
      </trkpt>
      <trkpt lat="44.08688" lon="3.17616">
        <ele>698.2</ele>
        <time>2019-05-31T12:39:36Z</time>
      </trkpt>
      <trkpt lat="44.08693" lon="3.17612">
        <ele>697.9</ele>
        <time>2019-05-31T12:39:37Z</time>
      </trkpt>
      <trkpt lat="44.08695" lon="3.17609">
        <ele>697.8</ele>
        <time>2019-05-31T12:39:38Z</time>
      </trkpt>
      <trkpt lat="44.08697" lon="3.17604">
        <ele>697.7</ele>
        <time>2019-05-31T12:39:39Z</time>
      </trkpt>
      <trkpt lat="44.08702" lon="3.17598">
        <ele>697.3</ele>
        <time>2019-05-31T12:39:41Z</time>
      </trkpt>
      <trkpt lat="44.08706" lon="3.17596">
        <ele>697.1</ele>
        <time>2019-05-31T12:39:42Z</time>
      </trkpt>
      <trkpt lat="44.08709" lon="3.17595">
        <ele>697</ele>
        <time>2019-05-31T12:39:43Z</time>
      </trkpt>
      <trkpt lat="44.08715" lon="3.17591">
        <ele>696.8</ele>
        <time>2019-05-31T12:39:44Z</time>
      </trkpt>
      <trkpt lat="44.08723" lon="3.17582">
        <ele>696.4</ele>
        <time>2019-05-31T12:39:45Z</time>
      </trkpt>
      <trkpt lat="44.08728" lon="3.17576">
        <ele>696.2</ele>
        <time>2019-05-31T12:39:46Z</time>
      </trkpt>
      <trkpt lat="44.08732" lon="3.17572">
        <ele>696</ele>
        <time>2019-05-31T12:39:47Z</time>
      </trkpt>
      <trkpt lat="44.08734" lon="3.17569">
        <ele>695.9</ele>
        <time>2019-05-31T12:39:48Z</time>
      </trkpt>
      <trkpt lat="44.0874" lon="3.1757">
        <ele>695.6</ele>
        <time>2019-05-31T12:39:49Z</time>
      </trkpt>
      <trkpt lat="44.08744" lon="3.17572">
        <ele>695.5</ele>
        <time>2019-05-31T12:39:50Z</time>
      </trkpt>
      <trkpt lat="44.08747" lon="3.17574">
        <ele>695.3</ele>
        <time>2019-05-31T12:39:51Z</time>
      </trkpt>
      <trkpt lat="44.08751" lon="3.17574">
        <ele>695.1</ele>
        <time>2019-05-31T12:39:52Z</time>
      </trkpt>
      <trkpt lat="44.08754" lon="3.17572">
        <ele>695</ele>
        <time>2019-05-31T12:39:53Z</time>
      </trkpt>
      <trkpt lat="44.0876" lon="3.1757">
        <ele>694.8</ele>
        <time>2019-05-31T12:39:54Z</time>
      </trkpt>
      <trkpt lat="44.08765" lon="3.17568">
        <ele>694.6</ele>
        <time>2019-05-31T12:39:55Z</time>
      </trkpt>
      <trkpt lat="44.08769" lon="3.17566">
        <ele>694.5</ele>
        <time>2019-05-31T12:39:56Z</time>
      </trkpt>
      <trkpt lat="44.08774" lon="3.17564">
        <ele>694.4</ele>
        <time>2019-05-31T12:39:57Z</time>
      </trkpt>
      <trkpt lat="44.08779" lon="3.17565">
        <ele>694.4</ele>
        <time>2019-05-31T12:39:58Z</time>
      </trkpt>
      <trkpt lat="44.08783" lon="3.17566">
        <ele>694.4</ele>
        <time>2019-05-31T12:39:59Z</time>
      </trkpt>
      <trkpt lat="44.08787" lon="3.17566">
        <ele>694.4</ele>
        <time>2019-05-31T12:40:00Z</time>
      </trkpt>
      <trkpt lat="44.0879" lon="3.17566">
        <ele>694.4</ele>
        <time>2019-05-31T12:40:01Z</time>
      </trkpt>
      <trkpt lat="44.08795" lon="3.17565">
        <ele>694.4</ele>
        <time>2019-05-31T12:40:02Z</time>
      </trkpt>
      <trkpt lat="44.088" lon="3.17564">
        <ele>694.4</ele>
        <time>2019-05-31T12:40:03Z</time>
      </trkpt>
      <trkpt lat="44.08805" lon="3.17562">
        <ele>694.3</ele>
        <time>2019-05-31T12:40:04Z</time>
      </trkpt>
      <trkpt lat="44.08814" lon="3.17557">
        <ele>694</ele>
        <time>2019-05-31T12:40:05Z</time>
      </trkpt>
      <trkpt lat="44.08819" lon="3.17558">
        <ele>693.8</ele>
        <time>2019-05-31T12:40:06Z</time>
      </trkpt>
      <trkpt lat="44.08823" lon="3.17556">
        <ele>693.5</ele>
        <time>2019-05-31T12:40:07Z</time>
      </trkpt>
      <trkpt lat="44.08826" lon="3.17549">
        <ele>693.1</ele>
        <time>2019-05-31T12:40:08Z</time>
      </trkpt>
      <trkpt lat="44.08831" lon="3.1754">
        <ele>692.4</ele>
        <time>2019-05-31T12:40:10Z</time>
      </trkpt>
      <trkpt lat="44.08835" lon="3.17532">
        <ele>691.7</ele>
        <time>2019-05-31T12:40:11Z</time>
      </trkpt>
      <trkpt lat="44.08838" lon="3.17527">
        <ele>691.3</ele>
        <time>2019-05-31T12:40:12Z</time>
      </trkpt>
      <trkpt lat="44.08841" lon="3.1753">
        <ele>690.9</ele>
        <time>2019-05-31T12:40:13Z</time>
      </trkpt>
      <trkpt lat="44.08847" lon="3.17526">
        <ele>690.3</ele>
        <time>2019-05-31T12:40:14Z</time>
      </trkpt>
      <trkpt lat="44.08851" lon="3.17526">
        <ele>690</ele>
        <time>2019-05-31T12:40:15Z</time>
      </trkpt>
      <trkpt lat="44.08854" lon="3.17523">
        <ele>689.6</ele>
        <time>2019-05-31T12:40:16Z</time>
      </trkpt>
      <trkpt lat="44.08857" lon="3.1752">
        <ele>689</ele>
        <time>2019-05-31T12:40:17Z</time>
      </trkpt>
      <trkpt lat="44.08861" lon="3.17516">
        <ele>688.1</ele>
        <time>2019-05-31T12:40:18Z</time>
      </trkpt>
      <trkpt lat="44.08864" lon="3.17512">
        <ele>687.4</ele>
        <time>2019-05-31T12:40:19Z</time>
      </trkpt>
      <trkpt lat="44.08867" lon="3.17507">
        <ele>686.7</ele>
        <time>2019-05-31T12:40:20Z</time>
      </trkpt>
      <trkpt lat="44.08868" lon="3.17503">
        <ele>686.2</ele>
        <time>2019-05-31T12:40:21Z</time>
      </trkpt>
      <trkpt lat="44.08869" lon="3.17498">
        <ele>685.7</ele>
        <time>2019-05-31T12:40:23Z</time>
      </trkpt>
      <trkpt lat="44.08871" lon="3.17495">
        <ele>685</ele>
        <time>2019-05-31T12:40:25Z</time>
      </trkpt>
      <trkpt lat="44.08872" lon="3.17492">
        <ele>684.5</ele>
        <time>2019-05-31T12:40:27Z</time>
      </trkpt>
      <trkpt lat="44.08874" lon="3.17485">
        <ele>683.5</ele>
        <time>2019-05-31T12:40:29Z</time>
      </trkpt>
      <trkpt lat="44.08876" lon="3.17481">
        <ele>683</ele>
        <time>2019-05-31T12:40:30Z</time>
      </trkpt>
      <trkpt lat="44.08877" lon="3.17476">
        <ele>682.3</ele>
        <time>2019-05-31T12:40:31Z</time>
      </trkpt>
      <trkpt lat="44.08878" lon="3.17471">
        <ele>681.6</ele>
        <time>2019-05-31T12:40:32Z</time>
      </trkpt>
      <trkpt lat="44.08878" lon="3.17468">
        <ele>681.1</ele>
        <time>2019-05-31T12:40:33Z</time>
      </trkpt>
      <trkpt lat="44.08879" lon="3.17459">
        <ele>680</ele>
        <time>2019-05-31T12:40:39Z</time>
      </trkpt>
      <trkpt lat="44.08879" lon="3.17455">
        <ele>679.5</ele>
        <time>2019-05-31T12:41:26Z</time>
      </trkpt>
      <trkpt lat="44.0888" lon="3.17451">
        <ele>679</ele>
        <time>2019-05-31T12:41:28Z</time>
      </trkpt>
      <trkpt lat="44.0888" lon="3.17446">
        <ele>678.6</ele>
        <time>2019-05-31T12:41:36Z</time>
      </trkpt>
      <trkpt lat="44.08881" lon="3.17442">
        <ele>678.2</ele>
        <time>2019-05-31T12:41:37Z</time>
      </trkpt>
      <trkpt lat="44.08884" lon="3.17438">
        <ele>677.7</ele>
        <time>2019-05-31T12:41:38Z</time>
      </trkpt>
      <trkpt lat="44.08886" lon="3.17434">
        <ele>677.2</ele>
        <time>2019-05-31T12:41:39Z</time>
      </trkpt>
      <trkpt lat="44.08889" lon="3.1743">
        <ele>676.8</ele>
        <time>2019-05-31T12:41:40Z</time>
      </trkpt>
      <trkpt lat="44.08891" lon="3.17428">
        <ele>676.4</ele>
        <time>2019-05-31T12:41:43Z</time>
      </trkpt>
      <trkpt lat="44.08893" lon="3.17423">
        <ele>676</ele>
        <time>2019-05-31T12:41:45Z</time>
      </trkpt>
      <trkpt lat="44.08892" lon="3.17416">
        <ele>675.2</ele>
        <time>2019-05-31T12:41:47Z</time>
      </trkpt>
      <trkpt lat="44.08889" lon="3.17412">
        <ele>674.4</ele>
        <time>2019-05-31T12:41:49Z</time>
      </trkpt>
      <trkpt lat="44.08884" lon="3.17413">
        <ele>673</ele>
        <time>2019-05-31T12:41:51Z</time>
      </trkpt>
      <trkpt lat="44.08881" lon="3.17415">
        <ele>672.2</ele>
        <time>2019-05-31T12:41:52Z</time>
      </trkpt>
      <trkpt lat="44.08878" lon="3.17416">
        <ele>671.6</ele>
        <time>2019-05-31T12:41:53Z</time>
      </trkpt>
      <trkpt lat="44.08874" lon="3.17414">
        <ele>670.7</ele>
        <time>2019-05-31T12:41:55Z</time>
      </trkpt>
      <trkpt lat="44.08874" lon="3.1741">
        <ele>669.9</ele>
        <time>2019-05-31T12:41:57Z</time>
      </trkpt>
      <trkpt lat="44.08873" lon="3.17404">
        <ele>669.3</ele>
        <time>2019-05-31T12:41:59Z</time>
      </trkpt>
      <trkpt lat="44.08872" lon="3.17398">
        <ele>668.8</ele>
        <time>2019-05-31T12:42:01Z</time>
      </trkpt>
      <trkpt lat="44.0887" lon="3.17394">
        <ele>668.4</ele>
        <time>2019-05-31T12:42:03Z</time>
      </trkpt>
      <trkpt lat="44.08866" lon="3.17392">
        <ele>668</ele>
        <time>2019-05-31T12:42:05Z</time>
      </trkpt>
      <trkpt lat="44.08862" lon="3.17389">
        <ele>667.9</ele>
        <time>2019-05-31T12:42:07Z</time>
      </trkpt>
      <trkpt lat="44.0886" lon="3.17386">
        <ele>667.8</ele>
        <time>2019-05-31T12:42:08Z</time>
      </trkpt>
      <trkpt lat="44.08859" lon="3.17383">
        <ele>667.8</ele>
        <time>2019-05-31T12:42:10Z</time>
      </trkpt>
      <trkpt lat="44.08856" lon="3.17384">
        <ele>667.7</ele>
        <time>2019-05-31T12:42:20Z</time>
      </trkpt>
      <trkpt lat="44.08853" lon="3.17386">
        <ele>667.7</ele>
        <time>2019-05-31T12:42:26Z</time>
      </trkpt>
      <trkpt lat="44.08851" lon="3.17383">
        <ele>667.5</ele>
        <time>2019-05-31T12:42:35Z</time>
      </trkpt>
      <trkpt lat="44.0885" lon="3.17378">
        <ele>667.4</ele>
        <time>2019-05-31T12:42:38Z</time>
      </trkpt>
      <trkpt lat="44.0885" lon="3.17374">
        <ele>667.3</ele>
        <time>2019-05-31T12:42:39Z</time>
      </trkpt>
      <trkpt lat="44.0885" lon="3.17369">
        <ele>667.1</ele>
        <time>2019-05-31T12:42:40Z</time>
      </trkpt>
      <trkpt lat="44.0885" lon="3.17363">
        <ele>666.9</ele>
        <time>2019-05-31T12:42:41Z</time>
      </trkpt>
      <trkpt lat="44.08849" lon="3.17357">
        <ele>666.5</ele>
        <time>2019-05-31T12:42:42Z</time>
      </trkpt>
      <trkpt lat="44.08847" lon="3.17351">
        <ele>665.9</ele>
        <time>2019-05-31T12:42:43Z</time>
      </trkpt>
      <trkpt lat="44.08844" lon="3.17346">
        <ele>665.3</ele>
        <time>2019-05-31T12:42:44Z</time>
      </trkpt>
      <trkpt lat="44.08839" lon="3.17341">
        <ele>664.5</ele>
        <time>2019-05-31T12:42:45Z</time>
      </trkpt>
      <trkpt lat="44.08835" lon="3.17336">
        <ele>663.8</ele>
        <time>2019-05-31T12:42:46Z</time>
      </trkpt>
      <trkpt lat="44.08828" lon="3.17322">
        <ele>662.7</ele>
        <time>2019-05-31T12:42:47Z</time>
      </trkpt>
      <trkpt lat="44.08825" lon="3.17315">
        <ele>662.1</ele>
        <time>2019-05-31T12:42:48Z</time>
      </trkpt>
      <trkpt lat="44.08823" lon="3.17307">
        <ele>661.5</ele>
        <time>2019-05-31T12:42:49Z</time>
      </trkpt>
      <trkpt lat="44.08819" lon="3.173">
        <ele>661</ele>
        <time>2019-05-31T12:42:50Z</time>
      </trkpt>
      <trkpt lat="44.08812" lon="3.17295">
        <ele>660.4</ele>
        <time>2019-05-31T12:42:51Z</time>
      </trkpt>
      <trkpt lat="44.08804" lon="3.17291">
        <ele>659.8</ele>
        <time>2019-05-31T12:42:52Z</time>
      </trkpt>
      <trkpt lat="44.08799" lon="3.17287">
        <ele>659.4</ele>
        <time>2019-05-31T12:42:53Z</time>
      </trkpt>
      <trkpt lat="44.08797" lon="3.17283">
        <ele>659.1</ele>
        <time>2019-05-31T12:42:54Z</time>
      </trkpt>
      <trkpt lat="44.08793" lon="3.17281">
        <ele>658.7</ele>
        <time>2019-05-31T12:42:55Z</time>
      </trkpt>
      <trkpt lat="44.0879" lon="3.17279">
        <ele>658.6</ele>
        <time>2019-05-31T12:42:56Z</time>
      </trkpt>
      <trkpt lat="44.08787" lon="3.17278">
        <ele>658.4</ele>
        <time>2019-05-31T12:42:58Z</time>
      </trkpt>
      <trkpt lat="44.08785" lon="3.17276">
        <ele>658.2</ele>
        <time>2019-05-31T12:42:59Z</time>
      </trkpt>
      <trkpt lat="44.08781" lon="3.17273">
        <ele>658.2</ele>
        <time>2019-05-31T12:43:01Z</time>
      </trkpt>
      <trkpt lat="44.08779" lon="3.17269">
        <ele>658.1</ele>
        <time>2019-05-31T12:43:03Z</time>
      </trkpt>
      <trkpt lat="44.08776" lon="3.17269">
        <ele>657.9</ele>
        <time>2019-05-31T12:43:04Z</time>
      </trkpt>
      <trkpt lat="44.08774" lon="3.17267">
        <ele>657.7</ele>
        <time>2019-05-31T12:43:06Z</time>
      </trkpt>
      <trkpt lat="44.08775" lon="3.17264">
        <ele>657.3</ele>
        <time>2019-05-31T12:43:16Z</time>
      </trkpt>
      <trkpt lat="44.08777" lon="3.17267">
        <ele>657</ele>
        <time>2019-05-31T12:43:20Z</time>
      </trkpt>
      <trkpt lat="44.08774" lon="3.1726">
        <ele>656.4</ele>
        <time>2019-05-31T12:45:32Z</time>
      </trkpt>
      <trkpt lat="44.08774" lon="3.17255">
        <ele>656.1</ele>
        <time>2019-05-31T12:45:34Z</time>
      </trkpt>
      <trkpt lat="44.08774" lon="3.17249">
        <ele>655.7</ele>
        <time>2019-05-31T12:45:36Z</time>
      </trkpt>
      <trkpt lat="44.08772" lon="3.17242">
        <ele>655.3</ele>
        <time>2019-05-31T12:45:38Z</time>
      </trkpt>
      <trkpt lat="44.08771" lon="3.17237">
        <ele>655.1</ele>
        <time>2019-05-31T12:45:40Z</time>
      </trkpt>
      <trkpt lat="44.08772" lon="3.17232">
        <ele>654.8</ele>
        <time>2019-05-31T12:45:42Z</time>
      </trkpt>
      <trkpt lat="44.08771" lon="3.17228">
        <ele>654.7</ele>
        <time>2019-05-31T12:45:44Z</time>
      </trkpt>
      <trkpt lat="44.08767" lon="3.17225">
        <ele>655.1</ele>
        <time>2019-05-31T12:45:46Z</time>
      </trkpt>
      <trkpt lat="44.08763" lon="3.17223">
        <ele>655.7</ele>
        <time>2019-05-31T12:45:48Z</time>
      </trkpt>
      <trkpt lat="44.08758" lon="3.17223">
        <ele>656</ele>
        <time>2019-05-31T12:45:50Z</time>
      </trkpt>
      <trkpt lat="44.08752" lon="3.17224">
        <ele>656.6</ele>
        <time>2019-05-31T12:45:52Z</time>
      </trkpt>
      <trkpt lat="44.08748" lon="3.17226">
        <ele>657.1</ele>
        <time>2019-05-31T12:45:53Z</time>
      </trkpt>
      <trkpt lat="44.08745" lon="3.17228">
        <ele>657.6</ele>
        <time>2019-05-31T12:45:54Z</time>
      </trkpt>
      <trkpt lat="44.08742" lon="3.17231">
        <ele>658.4</ele>
        <time>2019-05-31T12:45:55Z</time>
      </trkpt>
      <trkpt lat="44.0874" lon="3.17234">
        <ele>659.1</ele>
        <time>2019-05-31T12:45:56Z</time>
      </trkpt>
      <trkpt lat="44.08737" lon="3.17236">
        <ele>659.6</ele>
        <time>2019-05-31T12:45:57Z</time>
      </trkpt>
      <trkpt lat="44.08733" lon="3.17238">
        <ele>660.3</ele>
        <time>2019-05-31T12:45:59Z</time>
      </trkpt>
      <trkpt lat="44.08728" lon="3.17239">
        <ele>660.9</ele>
        <time>2019-05-31T12:46:01Z</time>
      </trkpt>
      <trkpt lat="44.08725" lon="3.17239">
        <ele>661.3</ele>
        <time>2019-05-31T12:46:02Z</time>
      </trkpt>
      <trkpt lat="44.08722" lon="3.1724">
        <ele>661.7</ele>
        <time>2019-05-31T12:46:03Z</time>
      </trkpt>
      <trkpt lat="44.08718" lon="3.17242">
        <ele>662.3</ele>
        <time>2019-05-31T12:46:05Z</time>
      </trkpt>
      <trkpt lat="44.08713" lon="3.17242">
        <ele>662.7</ele>
        <time>2019-05-31T12:46:07Z</time>
      </trkpt>
      <trkpt lat="44.08711" lon="3.17239">
        <ele>662.7</ele>
        <time>2019-05-31T12:46:09Z</time>
      </trkpt>
      <trkpt lat="44.0871" lon="3.17234">
        <ele>662.4</ele>
        <time>2019-05-31T12:46:11Z</time>
      </trkpt>
      <trkpt lat="44.0871" lon="3.1723">
        <ele>662.2</ele>
        <time>2019-05-31T12:46:12Z</time>
      </trkpt>
      <trkpt lat="44.08708" lon="3.17225">
        <ele>661.9</ele>
        <time>2019-05-31T12:46:14Z</time>
      </trkpt>
      <trkpt lat="44.08706" lon="3.17223">
        <ele>661.6</ele>
        <time>2019-05-31T12:46:17Z</time>
      </trkpt>
      <trkpt lat="44.08705" lon="3.17218">
        <ele>661.3</ele>
        <time>2019-05-31T12:46:20Z</time>
      </trkpt>
      <trkpt lat="44.08703" lon="3.17214">
        <ele>661.1</ele>
        <time>2019-05-31T12:46:22Z</time>
      </trkpt>
      <trkpt lat="44.08702" lon="3.1721">
        <ele>660.8</ele>
        <time>2019-05-31T12:46:24Z</time>
      </trkpt>
      <trkpt lat="44.08702" lon="3.17206">
        <ele>660.5</ele>
        <time>2019-05-31T12:46:26Z</time>
      </trkpt>
      <trkpt lat="44.08701" lon="3.17202">
        <ele>660.2</ele>
        <time>2019-05-31T12:46:29Z</time>
      </trkpt>
      <trkpt lat="44.08702" lon="3.17199">
        <ele>659.9</ele>
        <time>2019-05-31T12:46:31Z</time>
      </trkpt>
      <trkpt lat="44.08702" lon="3.17194">
        <ele>659.7</ele>
        <time>2019-05-31T12:46:33Z</time>
      </trkpt>
      <trkpt lat="44.08702" lon="3.1719">
        <ele>659.4</ele>
        <time>2019-05-31T12:46:35Z</time>
      </trkpt>
      <trkpt lat="44.08702" lon="3.17186">
        <ele>659.1</ele>
        <time>2019-05-31T12:46:37Z</time>
      </trkpt>
      <trkpt lat="44.08702" lon="3.17181">
        <ele>659</ele>
        <time>2019-05-31T12:46:39Z</time>
      </trkpt>
      <trkpt lat="44.08703" lon="3.17175">
        <ele>658.8</ele>
        <time>2019-05-31T12:46:41Z</time>
      </trkpt>
      <trkpt lat="44.08704" lon="3.17169">
        <ele>658.5</ele>
        <time>2019-05-31T12:46:43Z</time>
      </trkpt>
      <trkpt lat="44.08704" lon="3.17165">
        <ele>658.3</ele>
        <time>2019-05-31T12:46:46Z</time>
      </trkpt>
      <trkpt lat="44.08706" lon="3.17161">
        <ele>658</ele>
        <time>2019-05-31T12:46:48Z</time>
      </trkpt>
      <trkpt lat="44.08707" lon="3.17157">
        <ele>657.6</ele>
        <time>2019-05-31T12:46:50Z</time>
      </trkpt>
      <trkpt lat="44.08707" lon="3.17152">
        <ele>657.1</ele>
        <time>2019-05-31T12:46:53Z</time>
      </trkpt>
      <trkpt lat="44.08708" lon="3.17147">
        <ele>656.8</ele>
        <time>2019-05-31T12:46:55Z</time>
      </trkpt>
      <trkpt lat="44.08708" lon="3.17144">
        <ele>656.4</ele>
        <time>2019-05-31T12:46:57Z</time>
      </trkpt>
      <trkpt lat="44.08709" lon="3.1714">
        <ele>656</ele>
        <time>2019-05-31T12:46:59Z</time>
      </trkpt>
      <trkpt lat="44.0871" lon="3.17135">
        <ele>655.6</ele>
        <time>2019-05-31T12:47:01Z</time>
      </trkpt>
      <trkpt lat="44.08711" lon="3.17131">
        <ele>655.3</ele>
        <time>2019-05-31T12:47:04Z</time>
      </trkpt>
      <trkpt lat="44.08712" lon="3.17125">
        <ele>654.9</ele>
        <time>2019-05-31T12:47:07Z</time>
      </trkpt>
      <trkpt lat="44.08712" lon="3.17121">
        <ele>654.6</ele>
        <time>2019-05-31T12:47:09Z</time>
      </trkpt>
      <trkpt lat="44.08712" lon="3.17117">
        <ele>654.2</ele>
        <time>2019-05-31T12:47:11Z</time>
      </trkpt>
      <trkpt lat="44.08712" lon="3.17113">
        <ele>653.9</ele>
        <time>2019-05-31T12:47:13Z</time>
      </trkpt>
      <trkpt lat="44.08713" lon="3.17109">
        <ele>653.8</ele>
        <time>2019-05-31T12:47:17Z</time>
      </trkpt>
      <trkpt lat="44.08715" lon="3.17105">
        <ele>653.7</ele>
        <time>2019-05-31T12:47:19Z</time>
      </trkpt>
      <trkpt lat="44.08716" lon="3.171">
        <ele>653.8</ele>
        <time>2019-05-31T12:47:21Z</time>
      </trkpt>
      <trkpt lat="44.08717" lon="3.17093">
        <ele>653.9</ele>
        <time>2019-05-31T12:47:23Z</time>
      </trkpt>
      <trkpt lat="44.08716" lon="3.17086">
        <ele>653.8</ele>
        <time>2019-05-31T12:47:25Z</time>
      </trkpt>
      <trkpt lat="44.08717" lon="3.17079">
        <ele>653.5</ele>
        <time>2019-05-31T12:47:27Z</time>
      </trkpt>
      <trkpt lat="44.08718" lon="3.17073">
        <ele>653.3</ele>
        <time>2019-05-31T12:47:29Z</time>
      </trkpt>
      <trkpt lat="44.08716" lon="3.17069">
        <ele>653.3</ele>
        <time>2019-05-31T12:47:31Z</time>
      </trkpt>
      <trkpt lat="44.08712" lon="3.17065">
        <ele>654.4</ele>
        <time>2019-05-31T12:47:33Z</time>
      </trkpt>
      <trkpt lat="44.0871" lon="3.17063">
        <ele>655.1</ele>
        <time>2019-05-31T12:47:34Z</time>
      </trkpt>
      <trkpt lat="44.08706" lon="3.17062">
        <ele>655.9</ele>
        <time>2019-05-31T12:47:36Z</time>
      </trkpt>
      <trkpt lat="44.08702" lon="3.1706">
        <ele>656.8</ele>
        <time>2019-05-31T12:47:39Z</time>
      </trkpt>
      <trkpt lat="44.08698" lon="3.17059">
        <ele>657.8</ele>
        <time>2019-05-31T12:47:41Z</time>
      </trkpt>
      <trkpt lat="44.08694" lon="3.17059">
        <ele>658.9</ele>
        <time>2019-05-31T12:47:43Z</time>
      </trkpt>
      <trkpt lat="44.08691" lon="3.17058">
        <ele>659.9</ele>
        <time>2019-05-31T12:47:45Z</time>
      </trkpt>
      <trkpt lat="44.08688" lon="3.17056">
        <ele>660.9</ele>
        <time>2019-05-31T12:47:47Z</time>
      </trkpt>
      <trkpt lat="44.08685" lon="3.17054">
        <ele>662.2</ele>
        <time>2019-05-31T12:47:49Z</time>
      </trkpt>
      <trkpt lat="44.0868" lon="3.17053">
        <ele>663.9</ele>
        <time>2019-05-31T12:47:51Z</time>
      </trkpt>
      <trkpt lat="44.08677" lon="3.17052">
        <ele>665</ele>
        <time>2019-05-31T12:47:52Z</time>
      </trkpt>
      <trkpt lat="44.08674" lon="3.1705">
        <ele>666.3</ele>
        <time>2019-05-31T12:47:53Z</time>
      </trkpt>
      <trkpt lat="44.08671" lon="3.17048">
        <ele>667.4</ele>
        <time>2019-05-31T12:47:54Z</time>
      </trkpt>
      <trkpt lat="44.08666" lon="3.17045">
        <ele>668.8</ele>
        <time>2019-05-31T12:47:56Z</time>
      </trkpt>
      <trkpt lat="44.08663" lon="3.17043">
        <ele>669.8</ele>
        <time>2019-05-31T12:47:58Z</time>
      </trkpt>
      <trkpt lat="44.08659" lon="3.17039">
        <ele>671</ele>
        <time>2019-05-31T12:48:00Z</time>
      </trkpt>
      <trkpt lat="44.08657" lon="3.17037">
        <ele>671.7</ele>
        <time>2019-05-31T12:48:01Z</time>
      </trkpt>
      <trkpt lat="44.08654" lon="3.17033">
        <ele>673.1</ele>
        <time>2019-05-31T12:48:02Z</time>
      </trkpt>
      <trkpt lat="44.08651" lon="3.1703">
        <ele>674.6</ele>
        <time>2019-05-31T12:48:03Z</time>
      </trkpt>
      <trkpt lat="44.08649" lon="3.17027">
        <ele>675.7</ele>
        <time>2019-05-31T12:48:04Z</time>
      </trkpt>
      <trkpt lat="44.08647" lon="3.17025">
        <ele>676.5</ele>
        <time>2019-05-31T12:48:05Z</time>
      </trkpt>
      <trkpt lat="44.08639" lon="3.17019">
        <ele>679.2</ele>
        <time>2019-05-31T12:48:06Z</time>
      </trkpt>
      <trkpt lat="44.08637" lon="3.17016">
        <ele>680.1</ele>
        <time>2019-05-31T12:48:07Z</time>
      </trkpt>
      <trkpt lat="44.08636" lon="3.17012">
        <ele>681.3</ele>
        <time>2019-05-31T12:48:08Z</time>
      </trkpt>
      <trkpt lat="44.0863" lon="3.17007">
        <ele>683.3</ele>
        <time>2019-05-31T12:48:09Z</time>
      </trkpt>
      <trkpt lat="44.08624" lon="3.17004">
        <ele>685.5</ele>
        <time>2019-05-31T12:48:10Z</time>
      </trkpt>
      <trkpt lat="44.08621" lon="3.17003">
        <ele>692</ele>
        <time>2019-05-31T12:48:16Z</time>
      </trkpt>
      <trkpt lat="44.08624" lon="3.17003">
        <ele>692.4</ele>
        <time>2019-05-31T12:48:19Z</time>
      </trkpt>
      <trkpt lat="44.08626" lon="3.17002">
        <ele>692.7</ele>
        <time>2019-05-31T12:48:21Z</time>
      </trkpt>
      <trkpt lat="44.08629" lon="3.16998">
        <ele>693.1</ele>
        <time>2019-05-31T12:48:23Z</time>
      </trkpt>
      <trkpt lat="44.08633" lon="3.16995">
        <ele>693.6</ele>
        <time>2019-05-31T12:48:25Z</time>
      </trkpt>
      <trkpt lat="44.08636" lon="3.1699">
        <ele>694</ele>
        <time>2019-05-31T12:48:27Z</time>
      </trkpt>
      <trkpt lat="44.08639" lon="3.16988">
        <ele>694.4</ele>
        <time>2019-05-31T12:48:29Z</time>
      </trkpt>
      <trkpt lat="44.08643" lon="3.16986">
        <ele>694.8</ele>
        <time>2019-05-31T12:48:31Z</time>
      </trkpt>
      <trkpt lat="44.08647" lon="3.16985">
        <ele>695.3</ele>
        <time>2019-05-31T12:48:33Z</time>
      </trkpt>
      <trkpt lat="44.0865" lon="3.16982">
        <ele>695.8</ele>
        <time>2019-05-31T12:48:36Z</time>
      </trkpt>
      <trkpt lat="44.08653" lon="3.16979">
        <ele>696.1</ele>
        <time>2019-05-31T12:48:38Z</time>
      </trkpt>
      <trkpt lat="44.08655" lon="3.16974">
        <ele>696.6</ele>
        <time>2019-05-31T12:48:40Z</time>
      </trkpt>
      <trkpt lat="44.08658" lon="3.16969">
        <ele>697</ele>
        <time>2019-05-31T12:48:42Z</time>
      </trkpt>
      <trkpt lat="44.0866" lon="3.16966">
        <ele>697.3</ele>
        <time>2019-05-31T12:48:44Z</time>
      </trkpt>
      <trkpt lat="44.08664" lon="3.16964">
        <ele>697.7</ele>
        <time>2019-05-31T12:48:47Z</time>
      </trkpt>
      <trkpt lat="44.08667" lon="3.16962">
        <ele>698.1</ele>
        <time>2019-05-31T12:48:49Z</time>
      </trkpt>
      <trkpt lat="44.0867" lon="3.16959">
        <ele>698.6</ele>
        <time>2019-05-31T12:48:52Z</time>
      </trkpt>
      <trkpt lat="44.08673" lon="3.16958">
        <ele>698.9</ele>
        <time>2019-05-31T12:48:55Z</time>
      </trkpt>
      <trkpt lat="44.08676" lon="3.16955">
        <ele>699.2</ele>
        <time>2019-05-31T12:48:57Z</time>
      </trkpt>
      <trkpt lat="44.08678" lon="3.16953">
        <ele>699.5</ele>
        <time>2019-05-31T12:48:59Z</time>
      </trkpt>
      <trkpt lat="44.0868" lon="3.16948">
        <ele>699.8</ele>
        <time>2019-05-31T12:49:01Z</time>
      </trkpt>
      <trkpt lat="44.08681" lon="3.16943">
        <ele>700.1</ele>
        <time>2019-05-31T12:49:03Z</time>
      </trkpt>
      <trkpt lat="44.08682" lon="3.16938">
        <ele>700.4</ele>
        <time>2019-05-31T12:49:05Z</time>
      </trkpt>
      <trkpt lat="44.08683" lon="3.16933">
        <ele>700.6</ele>
        <time>2019-05-31T12:49:07Z</time>
      </trkpt>
      <trkpt lat="44.08685" lon="3.16928">
        <ele>700.9</ele>
        <time>2019-05-31T12:49:10Z</time>
      </trkpt>
      <trkpt lat="44.08686" lon="3.16924">
        <ele>701.2</ele>
        <time>2019-05-31T12:49:13Z</time>
      </trkpt>
      <trkpt lat="44.08687" lon="3.16919">
        <ele>701.5</ele>
        <time>2019-05-31T12:49:16Z</time>
      </trkpt>
      <trkpt lat="44.0869" lon="3.16912">
        <ele>701.9</ele>
        <time>2019-05-31T12:49:18Z</time>
      </trkpt>
      <trkpt lat="44.08691" lon="3.16908">
        <ele>702.1</ele>
        <time>2019-05-31T12:49:19Z</time>
      </trkpt>
      <trkpt lat="44.08691" lon="3.16901">
        <ele>702.4</ele>
        <time>2019-05-31T12:49:21Z</time>
      </trkpt>
      <trkpt lat="44.08692" lon="3.16894">
        <ele>702.8</ele>
        <time>2019-05-31T12:49:23Z</time>
      </trkpt>
      <trkpt lat="44.08692" lon="3.16889">
        <ele>703</ele>
        <time>2019-05-31T12:49:25Z</time>
      </trkpt>
      <trkpt lat="44.08693" lon="3.16884">
        <ele>703.3</ele>
        <time>2019-05-31T12:49:29Z</time>
      </trkpt>
      <trkpt lat="44.08692" lon="3.16878">
        <ele>703.5</ele>
        <time>2019-05-31T12:49:31Z</time>
      </trkpt>
      <trkpt lat="44.08691" lon="3.16874">
        <ele>703.7</ele>
        <time>2019-05-31T12:49:33Z</time>
      </trkpt>
      <trkpt lat="44.08691" lon="3.16868">
        <ele>704</ele>
        <time>2019-05-31T12:49:35Z</time>
      </trkpt>
      <trkpt lat="44.0869" lon="3.16863">
        <ele>704.3</ele>
        <time>2019-05-31T12:49:37Z</time>
      </trkpt>
      <trkpt lat="44.08691" lon="3.16859">
        <ele>704.5</ele>
        <time>2019-05-31T12:49:39Z</time>
      </trkpt>
      <trkpt lat="44.08692" lon="3.16853">
        <ele>704.7</ele>
        <time>2019-05-31T12:49:41Z</time>
      </trkpt>
      <trkpt lat="44.08693" lon="3.16847">
        <ele>705</ele>
        <time>2019-05-31T12:49:43Z</time>
      </trkpt>
      <trkpt lat="44.08694" lon="3.16842">
        <ele>705.2</ele>
        <time>2019-05-31T12:49:45Z</time>
      </trkpt>
      <trkpt lat="44.08697" lon="3.16836">
        <ele>705.5</ele>
        <time>2019-05-31T12:49:47Z</time>
      </trkpt>
      <trkpt lat="44.08698" lon="3.1683">
        <ele>705.7</ele>
        <time>2019-05-31T12:49:49Z</time>
      </trkpt>
      <trkpt lat="44.08697" lon="3.16823">
        <ele>705.9</ele>
        <time>2019-05-31T12:49:51Z</time>
      </trkpt>
      <trkpt lat="44.08696" lon="3.16817">
        <ele>706.1</ele>
        <time>2019-05-31T12:49:53Z</time>
      </trkpt>
      <trkpt lat="44.08695" lon="3.16813">
        <ele>706.3</ele>
        <time>2019-05-31T12:49:54Z</time>
      </trkpt>
      <trkpt lat="44.08695" lon="3.16809">
        <ele>706.4</ele>
        <time>2019-05-31T12:49:55Z</time>
      </trkpt>
      <trkpt lat="44.08693" lon="3.16802">
        <ele>706.7</ele>
        <time>2019-05-31T12:49:57Z</time>
      </trkpt>
      <trkpt lat="44.08693" lon="3.16797">
        <ele>706.9</ele>
        <time>2019-05-31T12:49:58Z</time>
      </trkpt>
      <trkpt lat="44.08692" lon="3.16793">
        <ele>707.1</ele>
        <time>2019-05-31T12:49:59Z</time>
      </trkpt>
      <trkpt lat="44.08691" lon="3.16787">
        <ele>707.3</ele>
        <time>2019-05-31T12:50:01Z</time>
      </trkpt>
      <trkpt lat="44.08688" lon="3.16781">
        <ele>707.6</ele>
        <time>2019-05-31T12:50:03Z</time>
      </trkpt>
      <trkpt lat="44.08687" lon="3.16777">
        <ele>707.7</ele>
        <time>2019-05-31T12:50:05Z</time>
      </trkpt>
      <trkpt lat="44.08684" lon="3.16772">
        <ele>708</ele>
        <time>2019-05-31T12:50:07Z</time>
      </trkpt>
      <trkpt lat="44.08684" lon="3.16767">
        <ele>708.2</ele>
        <time>2019-05-31T12:50:09Z</time>
      </trkpt>
      <trkpt lat="44.08685" lon="3.16762">
        <ele>708.4</ele>
        <time>2019-05-31T12:50:11Z</time>
      </trkpt>
      <trkpt lat="44.08685" lon="3.16757">
        <ele>708.6</ele>
        <time>2019-05-31T12:50:13Z</time>
      </trkpt>
      <trkpt lat="44.08686" lon="3.16751">
        <ele>708.9</ele>
        <time>2019-05-31T12:50:15Z</time>
      </trkpt>
      <trkpt lat="44.08688" lon="3.16746">
        <ele>709.1</ele>
        <time>2019-05-31T12:50:17Z</time>
      </trkpt>
      <trkpt lat="44.08689" lon="3.1674">
        <ele>709.4</ele>
        <time>2019-05-31T12:50:20Z</time>
      </trkpt>
      <trkpt lat="44.0869" lon="3.16737">
        <ele>709.6</ele>
        <time>2019-05-31T12:50:22Z</time>
      </trkpt>
      <trkpt lat="44.0869" lon="3.16733">
        <ele>709.8</ele>
        <time>2019-05-31T12:50:24Z</time>
      </trkpt>
      <trkpt lat="44.08688" lon="3.16729">
        <ele>709.9</ele>
        <time>2019-05-31T12:50:26Z</time>
      </trkpt>
      <trkpt lat="44.08688" lon="3.16723">
        <ele>710.2</ele>
        <time>2019-05-31T12:50:28Z</time>
      </trkpt>
      <trkpt lat="44.08687" lon="3.16718">
        <ele>710.4</ele>
        <time>2019-05-31T12:50:30Z</time>
      </trkpt>
      <trkpt lat="44.08686" lon="3.16712">
        <ele>710.7</ele>
        <time>2019-05-31T12:50:32Z</time>
      </trkpt>
      <trkpt lat="44.08685" lon="3.16707">
        <ele>711</ele>
        <time>2019-05-31T12:50:34Z</time>
      </trkpt>
      <trkpt lat="44.08683" lon="3.16702">
        <ele>711.3</ele>
        <time>2019-05-31T12:50:36Z</time>
      </trkpt>
      <trkpt lat="44.08683" lon="3.16697">
        <ele>711.5</ele>
        <time>2019-05-31T12:50:38Z</time>
      </trkpt>
      <trkpt lat="44.08683" lon="3.16692">
        <ele>711.8</ele>
        <time>2019-05-31T12:50:40Z</time>
      </trkpt>
      <trkpt lat="44.08683" lon="3.16688">
        <ele>712</ele>
        <time>2019-05-31T12:50:42Z</time>
      </trkpt>
      <trkpt lat="44.08684" lon="3.16684">
        <ele>712.1</ele>
        <time>2019-05-31T12:50:44Z</time>
      </trkpt>
      <trkpt lat="44.08683" lon="3.16679">
        <ele>712.2</ele>
        <time>2019-05-31T12:50:47Z</time>
      </trkpt>
      <trkpt lat="44.08684" lon="3.16673">
        <ele>712.4</ele>
        <time>2019-05-31T12:50:49Z</time>
      </trkpt>
      <trkpt lat="44.08685" lon="3.16668">
        <ele>712.5</ele>
        <time>2019-05-31T12:50:52Z</time>
      </trkpt>
      <trkpt lat="44.08685" lon="3.16664">
        <ele>712.6</ele>
        <time>2019-05-31T12:50:54Z</time>
      </trkpt>
      <trkpt lat="44.08686" lon="3.1666">
        <ele>712.7</ele>
        <time>2019-05-31T12:50:55Z</time>
      </trkpt>
      <trkpt lat="44.08687" lon="3.16657">
        <ele>712.8</ele>
        <time>2019-05-31T12:50:56Z</time>
      </trkpt>
      <trkpt lat="44.08689" lon="3.1665">
        <ele>713</ele>
        <time>2019-05-31T12:50:58Z</time>
      </trkpt>
      <trkpt lat="44.08691" lon="3.16644">
        <ele>713.1</ele>
        <time>2019-05-31T12:51:00Z</time>
      </trkpt>
      <trkpt lat="44.08693" lon="3.16638">
        <ele>713.2</ele>
        <time>2019-05-31T12:51:02Z</time>
      </trkpt>
      <trkpt lat="44.08694" lon="3.16632">
        <ele>713.4</ele>
        <time>2019-05-31T12:51:04Z</time>
      </trkpt>
      <trkpt lat="44.08696" lon="3.16625">
        <ele>713.5</ele>
        <time>2019-05-31T12:51:06Z</time>
      </trkpt>
      <trkpt lat="44.08698" lon="3.16621">
        <ele>713.6</ele>
        <time>2019-05-31T12:51:07Z</time>
      </trkpt>
      <trkpt lat="44.08699" lon="3.16615">
        <ele>713.8</ele>
        <time>2019-05-31T12:51:09Z</time>
      </trkpt>
      <trkpt lat="44.08701" lon="3.1661">
        <ele>714</ele>
        <time>2019-05-31T12:51:11Z</time>
      </trkpt>
      <trkpt lat="44.08701" lon="3.16606">
        <ele>714.1</ele>
        <time>2019-05-31T12:51:12Z</time>
      </trkpt>
      <trkpt lat="44.08701" lon="3.16601">
        <ele>714.2</ele>
        <time>2019-05-31T12:51:14Z</time>
      </trkpt>
      <trkpt lat="44.08702" lon="3.16595">
        <ele>714.3</ele>
        <time>2019-05-31T12:51:16Z</time>
      </trkpt>
      <trkpt lat="44.08702" lon="3.16591">
        <ele>714.5</ele>
        <time>2019-05-31T12:51:17Z</time>
      </trkpt>
      <trkpt lat="44.08704" lon="3.16583">
        <ele>714.7</ele>
        <time>2019-05-31T12:51:19Z</time>
      </trkpt>
      <trkpt lat="44.08705" lon="3.1658">
        <ele>714.8</ele>
        <time>2019-05-31T12:51:20Z</time>
      </trkpt>
      <trkpt lat="44.08707" lon="3.16574">
        <ele>714.9</ele>
        <time>2019-05-31T12:51:22Z</time>
      </trkpt>
      <trkpt lat="44.08708" lon="3.16569">
        <ele>715.1</ele>
        <time>2019-05-31T12:51:23Z</time>
      </trkpt>
      <trkpt lat="44.08709" lon="3.16562">
        <ele>715.2</ele>
        <time>2019-05-31T12:51:24Z</time>
      </trkpt>
      <trkpt lat="44.08709" lon="3.16557">
        <ele>715.4</ele>
        <time>2019-05-31T12:51:25Z</time>
      </trkpt>
      <trkpt lat="44.08709" lon="3.1655">
        <ele>715.6</ele>
        <time>2019-05-31T12:51:26Z</time>
      </trkpt>
      <trkpt lat="44.0871" lon="3.16545">
        <ele>715.7</ele>
        <time>2019-05-31T12:51:27Z</time>
      </trkpt>
      <trkpt lat="44.08711" lon="3.1654">
        <ele>715.8</ele>
        <time>2019-05-31T12:51:28Z</time>
      </trkpt>
      <trkpt lat="44.08711" lon="3.16536">
        <ele>715.9</ele>
        <time>2019-05-31T12:51:29Z</time>
      </trkpt>
      <trkpt lat="44.08711" lon="3.16531">
        <ele>716</ele>
        <time>2019-05-31T12:51:30Z</time>
      </trkpt>
      <trkpt lat="44.08711" lon="3.16526">
        <ele>716.1</ele>
        <time>2019-05-31T12:51:31Z</time>
      </trkpt>
      <trkpt lat="44.08711" lon="3.16521">
        <ele>716.2</ele>
        <time>2019-05-31T12:51:32Z</time>
      </trkpt>
      <trkpt lat="44.08711" lon="3.16517">
        <ele>716.3</ele>
        <time>2019-05-31T12:51:33Z</time>
      </trkpt>
      <trkpt lat="44.08712" lon="3.1651">
        <ele>716.6</ele>
        <time>2019-05-31T12:51:35Z</time>
      </trkpt>
      <trkpt lat="44.08712" lon="3.16505">
        <ele>716.8</ele>
        <time>2019-05-31T12:51:37Z</time>
      </trkpt>
      <trkpt lat="44.08715" lon="3.16502">
        <ele>717</ele>
        <time>2019-05-31T12:51:39Z</time>
      </trkpt>
      <trkpt lat="44.08718" lon="3.16501">
        <ele>717.2</ele>
        <time>2019-05-31T12:51:41Z</time>
      </trkpt>
      <trkpt lat="44.08721" lon="3.16501">
        <ele>717.5</ele>
        <time>2019-05-31T12:51:43Z</time>
      </trkpt>
      <trkpt lat="44.08725" lon="3.16499">
        <ele>717.8</ele>
        <time>2019-05-31T12:51:45Z</time>
      </trkpt>
      <trkpt lat="44.0873" lon="3.16498">
        <ele>718.1</ele>
        <time>2019-05-31T12:51:47Z</time>
      </trkpt>
      <trkpt lat="44.08733" lon="3.16497">
        <ele>718.4</ele>
        <time>2019-05-31T12:51:49Z</time>
      </trkpt>
      <trkpt lat="44.08736" lon="3.16494">
        <ele>718.8</ele>
        <time>2019-05-31T12:51:52Z</time>
      </trkpt>
      <trkpt lat="44.08738" lon="3.16493">
        <ele>719</ele>
        <time>2019-05-31T12:51:54Z</time>
      </trkpt>
      <trkpt lat="44.08742" lon="3.16492">
        <ele>719.3</ele>
        <time>2019-05-31T12:51:56Z</time>
      </trkpt>
      <trkpt lat="44.08745" lon="3.16493">
        <ele>719.5</ele>
        <time>2019-05-31T12:51:58Z</time>
      </trkpt>
      <trkpt lat="44.08749" lon="3.16491">
        <ele>719.7</ele>
        <time>2019-05-31T12:52:01Z</time>
      </trkpt>
      <trkpt lat="44.08752" lon="3.16489">
        <ele>720</ele>
        <time>2019-05-31T12:52:03Z</time>
      </trkpt>
      <trkpt lat="44.08756" lon="3.16487">
        <ele>720.2</ele>
        <time>2019-05-31T12:52:05Z</time>
      </trkpt>
      <trkpt lat="44.0876" lon="3.16485">
        <ele>720.4</ele>
        <time>2019-05-31T12:52:07Z</time>
      </trkpt>
      <trkpt lat="44.08764" lon="3.16483">
        <ele>720.7</ele>
        <time>2019-05-31T12:52:09Z</time>
      </trkpt>
      <trkpt lat="44.08767" lon="3.16479">
        <ele>720.9</ele>
        <time>2019-05-31T12:52:11Z</time>
      </trkpt>
      <trkpt lat="44.08771" lon="3.16476">
        <ele>721.1</ele>
        <time>2019-05-31T12:52:13Z</time>
      </trkpt>
      <trkpt lat="44.08774" lon="3.16473">
        <ele>721.3</ele>
        <time>2019-05-31T12:52:14Z</time>
      </trkpt>
      <trkpt lat="44.08777" lon="3.16471">
        <ele>721.4</ele>
        <time>2019-05-31T12:52:15Z</time>
      </trkpt>
      <trkpt lat="44.08782" lon="3.16467">
        <ele>721.7</ele>
        <time>2019-05-31T12:52:17Z</time>
      </trkpt>
      <trkpt lat="44.08785" lon="3.16465">
        <ele>721.8</ele>
        <time>2019-05-31T12:52:18Z</time>
      </trkpt>
      <trkpt lat="44.08787" lon="3.16463">
        <ele>721.9</ele>
        <time>2019-05-31T12:52:19Z</time>
      </trkpt>
      <trkpt lat="44.08792" lon="3.16461">
        <ele>722.1</ele>
        <time>2019-05-31T12:52:21Z</time>
      </trkpt>
      <trkpt lat="44.08794" lon="3.1646">
        <ele>722.2</ele>
        <time>2019-05-31T12:52:22Z</time>
      </trkpt>
      <trkpt lat="44.08798" lon="3.16457">
        <ele>722.4</ele>
        <time>2019-05-31T12:52:24Z</time>
      </trkpt>
      <trkpt lat="44.08802" lon="3.16452">
        <ele>722.7</ele>
        <time>2019-05-31T12:52:26Z</time>
      </trkpt>
      <trkpt lat="44.08804" lon="3.16449">
        <ele>722.9</ele>
        <time>2019-05-31T12:52:28Z</time>
      </trkpt>
      <trkpt lat="44.08807" lon="3.16446">
        <ele>723.1</ele>
        <time>2019-05-31T12:52:30Z</time>
      </trkpt>
      <trkpt lat="44.08811" lon="3.16442">
        <ele>723.3</ele>
        <time>2019-05-31T12:52:33Z</time>
      </trkpt>
      <trkpt lat="44.08813" lon="3.16438">
        <ele>723.5</ele>
        <time>2019-05-31T12:52:35Z</time>
      </trkpt>
      <trkpt lat="44.08815" lon="3.16435">
        <ele>723.6</ele>
        <time>2019-05-31T12:52:37Z</time>
      </trkpt>
      <trkpt lat="44.08817" lon="3.16428">
        <ele>723.8</ele>
        <time>2019-05-31T12:52:39Z</time>
      </trkpt>
      <trkpt lat="44.0882" lon="3.16423">
        <ele>724</ele>
        <time>2019-05-31T12:52:41Z</time>
      </trkpt>
      <trkpt lat="44.08823" lon="3.1642">
        <ele>724.1</ele>
        <time>2019-05-31T12:52:43Z</time>
      </trkpt>
      <trkpt lat="44.08827" lon="3.16416">
        <ele>724.3</ele>
        <time>2019-05-31T12:52:45Z</time>
      </trkpt>
      <trkpt lat="44.08829" lon="3.16413">
        <ele>724.4</ele>
        <time>2019-05-31T12:52:46Z</time>
      </trkpt>
      <trkpt lat="44.08831" lon="3.16411">
        <ele>724.5</ele>
        <time>2019-05-31T12:52:47Z</time>
      </trkpt>
      <trkpt lat="44.08835" lon="3.16409">
        <ele>724.7</ele>
        <time>2019-05-31T12:52:49Z</time>
      </trkpt>
      <trkpt lat="44.08838" lon="3.16405">
        <ele>724.9</ele>
        <time>2019-05-31T12:52:51Z</time>
      </trkpt>
      <trkpt lat="44.0884" lon="3.16402">
        <ele>725</ele>
        <time>2019-05-31T12:52:52Z</time>
      </trkpt>
      <trkpt lat="44.08844" lon="3.16398">
        <ele>725.2</ele>
        <time>2019-05-31T12:52:54Z</time>
      </trkpt>
      <trkpt lat="44.08845" lon="3.16394">
        <ele>725.3</ele>
        <time>2019-05-31T12:52:55Z</time>
      </trkpt>
      <trkpt lat="44.08847" lon="3.1639">
        <ele>725.4</ele>
        <time>2019-05-31T12:52:56Z</time>
      </trkpt>
      <trkpt lat="44.08849" lon="3.16384">
        <ele>725.6</ele>
        <time>2019-05-31T12:52:58Z</time>
      </trkpt>
      <trkpt lat="44.08851" lon="3.16378">
        <ele>725.8</ele>
        <time>2019-05-31T12:53:00Z</time>
      </trkpt>
      <trkpt lat="44.08853" lon="3.16372">
        <ele>726</ele>
        <time>2019-05-31T12:53:02Z</time>
      </trkpt>
      <trkpt lat="44.08854" lon="3.16368">
        <ele>726.2</ele>
        <time>2019-05-31T12:53:03Z</time>
      </trkpt>
      <trkpt lat="44.08854" lon="3.16362">
        <ele>726.5</ele>
        <time>2019-05-31T12:53:05Z</time>
      </trkpt>
      <trkpt lat="44.08856" lon="3.16357">
        <ele>726.7</ele>
        <time>2019-05-31T12:53:07Z</time>
      </trkpt>
      <trkpt lat="44.08857" lon="3.16351">
        <ele>726.9</ele>
        <time>2019-05-31T12:53:09Z</time>
      </trkpt>
      <trkpt lat="44.0886" lon="3.16346">
        <ele>727.2</ele>
        <time>2019-05-31T12:53:11Z</time>
      </trkpt>
      <trkpt lat="44.08863" lon="3.16341">
        <ele>727.4</ele>
        <time>2019-05-31T12:53:13Z</time>
      </trkpt>
      <trkpt lat="44.08865" lon="3.16336">
        <ele>727.6</ele>
        <time>2019-05-31T12:53:15Z</time>
      </trkpt>
      <trkpt lat="44.08866" lon="3.1633">
        <ele>727.7</ele>
        <time>2019-05-31T12:53:17Z</time>
      </trkpt>
      <trkpt lat="44.08868" lon="3.16325">
        <ele>727.9</ele>
        <time>2019-05-31T12:53:19Z</time>
      </trkpt>
      <trkpt lat="44.0887" lon="3.16321">
        <ele>728.1</ele>
        <time>2019-05-31T12:53:21Z</time>
      </trkpt>
      <trkpt lat="44.08873" lon="3.16316">
        <ele>728.3</ele>
        <time>2019-05-31T12:53:23Z</time>
      </trkpt>
      <trkpt lat="44.08874" lon="3.1631">
        <ele>728.5</ele>
        <time>2019-05-31T12:53:25Z</time>
      </trkpt>
      <trkpt lat="44.08875" lon="3.16303">
        <ele>728.6</ele>
        <time>2019-05-31T12:53:27Z</time>
      </trkpt>
      <trkpt lat="44.08876" lon="3.16297">
        <ele>728.9</ele>
        <time>2019-05-31T12:53:29Z</time>
      </trkpt>
      <trkpt lat="44.08876" lon="3.16292">
        <ele>729</ele>
        <time>2019-05-31T12:53:31Z</time>
      </trkpt>
      <trkpt lat="44.08876" lon="3.16287">
        <ele>729.1</ele>
        <time>2019-05-31T12:53:33Z</time>
      </trkpt>
      <trkpt lat="44.08876" lon="3.16282">
        <ele>729.2</ele>
        <time>2019-05-31T12:53:34Z</time>
      </trkpt>
      <trkpt lat="44.08875" lon="3.16276">
        <ele>729.3</ele>
        <time>2019-05-31T12:53:36Z</time>
      </trkpt>
      <trkpt lat="44.08875" lon="3.16268">
        <ele>729.5</ele>
        <time>2019-05-31T12:53:38Z</time>
      </trkpt>
      <trkpt lat="44.08876" lon="3.16265">
        <ele>729.5</ele>
        <time>2019-05-31T12:53:39Z</time>
      </trkpt>
      <trkpt lat="44.08877" lon="3.16261">
        <ele>729.6</ele>
        <time>2019-05-31T12:53:40Z</time>
      </trkpt>
      <trkpt lat="44.08877" lon="3.16256">
        <ele>729.6</ele>
        <time>2019-05-31T12:53:41Z</time>
      </trkpt>
      <trkpt lat="44.08877" lon="3.16252">
        <ele>729.7</ele>
        <time>2019-05-31T12:53:42Z</time>
      </trkpt>
      <trkpt lat="44.08877" lon="3.16248">
        <ele>729.7</ele>
        <time>2019-05-31T12:53:43Z</time>
      </trkpt>
      <trkpt lat="44.08878" lon="3.16244">
        <ele>729.7</ele>
        <time>2019-05-31T12:53:44Z</time>
      </trkpt>
      <trkpt lat="44.08878" lon="3.1624">
        <ele>729.8</ele>
        <time>2019-05-31T12:53:45Z</time>
      </trkpt>
      <trkpt lat="44.08879" lon="3.16235">
        <ele>729.8</ele>
        <time>2019-05-31T12:53:46Z</time>
      </trkpt>
      <trkpt lat="44.0888" lon="3.16231">
        <ele>729.8</ele>
        <time>2019-05-31T12:53:47Z</time>
      </trkpt>
      <trkpt lat="44.0888" lon="3.16227">
        <ele>729.7</ele>
        <time>2019-05-31T12:53:48Z</time>
      </trkpt>
      <trkpt lat="44.08882" lon="3.1622">
        <ele>729.7</ele>
        <time>2019-05-31T12:53:50Z</time>
      </trkpt>
      <trkpt lat="44.08883" lon="3.16215">
        <ele>729.6</ele>
        <time>2019-05-31T12:53:51Z</time>
      </trkpt>
      <trkpt lat="44.08884" lon="3.1621">
        <ele>729.5</ele>
        <time>2019-05-31T12:53:52Z</time>
      </trkpt>
      <trkpt lat="44.08884" lon="3.16204">
        <ele>729.4</ele>
        <time>2019-05-31T12:53:53Z</time>
      </trkpt>
      <trkpt lat="44.08884" lon="3.16199">
        <ele>729.3</ele>
        <time>2019-05-31T12:53:54Z</time>
      </trkpt>
      <trkpt lat="44.08883" lon="3.16193">
        <ele>729.2</ele>
        <time>2019-05-31T12:53:55Z</time>
      </trkpt>
      <trkpt lat="44.08882" lon="3.16187">
        <ele>729.1</ele>
        <time>2019-05-31T12:53:56Z</time>
      </trkpt>
      <trkpt lat="44.08881" lon="3.16181">
        <ele>729.1</ele>
        <time>2019-05-31T12:53:57Z</time>
      </trkpt>
      <trkpt lat="44.0888" lon="3.16176">
        <ele>729</ele>
        <time>2019-05-31T12:53:58Z</time>
      </trkpt>
      <trkpt lat="44.0888" lon="3.16171">
        <ele>729</ele>
        <time>2019-05-31T12:53:59Z</time>
      </trkpt>
      <trkpt lat="44.08879" lon="3.16166">
        <ele>729.1</ele>
        <time>2019-05-31T12:54:00Z</time>
      </trkpt>
      <trkpt lat="44.08878" lon="3.16161">
        <ele>729.1</ele>
        <time>2019-05-31T12:54:01Z</time>
      </trkpt>
      <trkpt lat="44.08876" lon="3.16157">
        <ele>729.1</ele>
        <time>2019-05-31T12:54:02Z</time>
      </trkpt>
      <trkpt lat="44.08874" lon="3.16152">
        <ele>729.2</ele>
        <time>2019-05-31T12:54:03Z</time>
      </trkpt>
      <trkpt lat="44.08872" lon="3.16148">
        <ele>729.3</ele>
        <time>2019-05-31T12:54:04Z</time>
      </trkpt>
      <trkpt lat="44.08871" lon="3.16144">
        <ele>729.4</ele>
        <time>2019-05-31T12:54:05Z</time>
      </trkpt>
      <trkpt lat="44.08869" lon="3.1614">
        <ele>729.5</ele>
        <time>2019-05-31T12:54:06Z</time>
      </trkpt>
      <trkpt lat="44.08868" lon="3.16137">
        <ele>729.6</ele>
        <time>2019-05-31T12:54:07Z</time>
      </trkpt>
      <trkpt lat="44.08867" lon="3.16133">
        <ele>729.8</ele>
        <time>2019-05-31T12:54:08Z</time>
      </trkpt>
      <trkpt lat="44.08866" lon="3.1613">
        <ele>730</ele>
        <time>2019-05-31T12:54:09Z</time>
      </trkpt>
      <trkpt lat="44.08865" lon="3.16126">
        <ele>730.3</ele>
        <time>2019-05-31T12:54:10Z</time>
      </trkpt>
      <trkpt lat="44.08864" lon="3.16119">
        <ele>730.8</ele>
        <time>2019-05-31T12:54:12Z</time>
      </trkpt>
      <trkpt lat="44.08863" lon="3.16112">
        <ele>731.2</ele>
        <time>2019-05-31T12:54:14Z</time>
      </trkpt>
      <trkpt lat="44.08864" lon="3.16108">
        <ele>731.4</ele>
        <time>2019-05-31T12:54:16Z</time>
      </trkpt>
      <trkpt lat="44.08865" lon="3.16104">
        <ele>731.6</ele>
        <time>2019-05-31T12:54:21Z</time>
      </trkpt>
      <trkpt lat="44.08867" lon="3.16101">
        <ele>731.8</ele>
        <time>2019-05-31T12:54:25Z</time>
      </trkpt>
      <trkpt lat="44.08871" lon="3.161">
        <ele>732.1</ele>
        <time>2019-05-31T12:54:27Z</time>
      </trkpt>
      <trkpt lat="44.08873" lon="3.16099">
        <ele>732.4</ele>
        <time>2019-05-31T12:54:29Z</time>
      </trkpt>
      <trkpt lat="44.08876" lon="3.16097">
        <ele>732.8</ele>
        <time>2019-05-31T12:54:32Z</time>
      </trkpt>
      <trkpt lat="44.08879" lon="3.16092">
        <ele>733.2</ele>
        <time>2019-05-31T12:54:34Z</time>
      </trkpt>
      <trkpt lat="44.08881" lon="3.16087">
        <ele>733.5</ele>
        <time>2019-05-31T12:54:36Z</time>
      </trkpt>
      <trkpt lat="44.08882" lon="3.16083">
        <ele>733.8</ele>
        <time>2019-05-31T12:54:39Z</time>
      </trkpt>
      <trkpt lat="44.08884" lon="3.16078">
        <ele>734.2</ele>
        <time>2019-05-31T12:56:38Z</time>
      </trkpt>
      <trkpt lat="44.08887" lon="3.16074">
        <ele>734.7</ele>
        <time>2019-05-31T12:56:41Z</time>
      </trkpt>
      <trkpt lat="44.0889" lon="3.1607">
        <ele>734.7</ele>
        <time>2019-05-31T12:56:45Z</time>
      </trkpt>
      <trkpt lat="44.08892" lon="3.16064">
        <ele>734.8</ele>
        <time>2019-05-31T12:56:47Z</time>
      </trkpt>
      <trkpt lat="44.08895" lon="3.16059">
        <ele>735</ele>
        <time>2019-05-31T12:56:49Z</time>
      </trkpt>
      <trkpt lat="44.08897" lon="3.16055">
        <ele>735.2</ele>
        <time>2019-05-31T12:56:51Z</time>
      </trkpt>
      <trkpt lat="44.08899" lon="3.16051">
        <ele>735.3</ele>
        <time>2019-05-31T12:56:53Z</time>
      </trkpt>
      <trkpt lat="44.08901" lon="3.16047">
        <ele>735.4</ele>
        <time>2019-05-31T12:56:56Z</time>
      </trkpt>
      <trkpt lat="44.08902" lon="3.16043">
        <ele>735.7</ele>
        <time>2019-05-31T12:56:58Z</time>
      </trkpt>
      <trkpt lat="44.08904" lon="3.16038">
        <ele>736.3</ele>
        <time>2019-05-31T12:57:00Z</time>
      </trkpt>
      <trkpt lat="44.08906" lon="3.16034">
        <ele>736.7</ele>
        <time>2019-05-31T12:57:02Z</time>
      </trkpt>
      <trkpt lat="44.08908" lon="3.1603">
        <ele>737</ele>
        <time>2019-05-31T12:57:04Z</time>
      </trkpt>
      <trkpt lat="44.08909" lon="3.16026">
        <ele>737.2</ele>
        <time>2019-05-31T12:57:05Z</time>
      </trkpt>
      <trkpt lat="44.08911" lon="3.16022">
        <ele>737.5</ele>
        <time>2019-05-31T12:57:06Z</time>
      </trkpt>
      <trkpt lat="44.08912" lon="3.16018">
        <ele>737.8</ele>
        <time>2019-05-31T12:57:07Z</time>
      </trkpt>
      <trkpt lat="44.08913" lon="3.16013">
        <ele>738.2</ele>
        <time>2019-05-31T12:57:09Z</time>
      </trkpt>
      <trkpt lat="44.08916" lon="3.16007">
        <ele>738.4</ele>
        <time>2019-05-31T12:57:11Z</time>
      </trkpt>
      <trkpt lat="44.08918" lon="3.16002">
        <ele>738.6</ele>
        <time>2019-05-31T12:57:13Z</time>
      </trkpt>
      <trkpt lat="44.0892" lon="3.15998">
        <ele>738.9</ele>
        <time>2019-05-31T12:57:15Z</time>
      </trkpt>
      <trkpt lat="44.08921" lon="3.15994">
        <ele>739.1</ele>
        <time>2019-05-31T12:57:17Z</time>
      </trkpt>
      <trkpt lat="44.08923" lon="3.15989">
        <ele>739.5</ele>
        <time>2019-05-31T12:57:20Z</time>
      </trkpt>
      <trkpt lat="44.08925" lon="3.15984">
        <ele>739.9</ele>
        <time>2019-05-31T12:57:22Z</time>
      </trkpt>
      <trkpt lat="44.08926" lon="3.15978">
        <ele>740.3</ele>
        <time>2019-05-31T12:57:24Z</time>
      </trkpt>
      <trkpt lat="44.08928" lon="3.15973">
        <ele>740.4</ele>
        <time>2019-05-31T12:57:26Z</time>
      </trkpt>
      <trkpt lat="44.08929" lon="3.15967">
        <ele>740.4</ele>
        <time>2019-05-31T12:57:28Z</time>
      </trkpt>
      <trkpt lat="44.08929" lon="3.15959">
        <ele>740.4</ele>
        <time>2019-05-31T12:57:30Z</time>
      </trkpt>
      <trkpt lat="44.08928" lon="3.15952">
        <ele>740.5</ele>
        <time>2019-05-31T12:57:32Z</time>
      </trkpt>
      <trkpt lat="44.08927" lon="3.15949">
        <ele>740.6</ele>
        <time>2019-05-31T12:57:33Z</time>
      </trkpt>
      <trkpt lat="44.08927" lon="3.15941">
        <ele>740.5</ele>
        <time>2019-05-31T12:57:35Z</time>
      </trkpt>
      <trkpt lat="44.08927" lon="3.15935">
        <ele>740.5</ele>
        <time>2019-05-31T12:57:37Z</time>
      </trkpt>
      <trkpt lat="44.08927" lon="3.15929">
        <ele>740.6</ele>
        <time>2019-05-31T12:57:39Z</time>
      </trkpt>
      <trkpt lat="44.08928" lon="3.15923">
        <ele>740.6</ele>
        <time>2019-05-31T12:57:41Z</time>
      </trkpt>
      <trkpt lat="44.0893" lon="3.15917">
        <ele>740.5</ele>
        <time>2019-05-31T12:57:43Z</time>
      </trkpt>
      <trkpt lat="44.08931" lon="3.15911">
        <ele>740.3</ele>
        <time>2019-05-31T12:57:45Z</time>
      </trkpt>
      <trkpt lat="44.08933" lon="3.15905">
        <ele>740</ele>
        <time>2019-05-31T12:57:47Z</time>
      </trkpt>
      <trkpt lat="44.08935" lon="3.15899">
        <ele>739.7</ele>
        <time>2019-05-31T12:57:49Z</time>
      </trkpt>
      <trkpt lat="44.08937" lon="3.15894">
        <ele>739.4</ele>
        <time>2019-05-31T12:57:50Z</time>
      </trkpt>
      <trkpt lat="44.08939" lon="3.15889">
        <ele>739</ele>
        <time>2019-05-31T12:57:51Z</time>
      </trkpt>
      <trkpt lat="44.0894" lon="3.15883">
        <ele>738.8</ele>
        <time>2019-05-31T12:57:52Z</time>
      </trkpt>
      <trkpt lat="44.08941" lon="3.15878">
        <ele>738.7</ele>
        <time>2019-05-31T12:57:53Z</time>
      </trkpt>
      <trkpt lat="44.08941" lon="3.15873">
        <ele>738.8</ele>
        <time>2019-05-31T12:57:54Z</time>
      </trkpt>
      <trkpt lat="44.0894" lon="3.15869">
        <ele>738.9</ele>
        <time>2019-05-31T12:57:55Z</time>
      </trkpt>
      <trkpt lat="44.08938" lon="3.15863">
        <ele>739</ele>
        <time>2019-05-31T12:57:57Z</time>
      </trkpt>
      <trkpt lat="44.08935" lon="3.1586">
        <ele>739.1</ele>
        <time>2019-05-31T12:57:59Z</time>
      </trkpt>
      <trkpt lat="44.08932" lon="3.15858">
        <ele>739.3</ele>
        <time>2019-05-31T12:58:00Z</time>
      </trkpt>
      <trkpt lat="44.08928" lon="3.15857">
        <ele>739.9</ele>
        <time>2019-05-31T12:58:01Z</time>
      </trkpt>
      <trkpt lat="44.08925" lon="3.15855">
        <ele>739.9</ele>
        <time>2019-05-31T12:58:02Z</time>
      </trkpt>
      <trkpt lat="44.08922" lon="3.15855">
        <ele>739.8</ele>
        <time>2019-05-31T12:58:03Z</time>
      </trkpt>
      <trkpt lat="44.08919" lon="3.15851">
        <ele>739.7</ele>
        <time>2019-05-31T12:58:05Z</time>
      </trkpt>
      <trkpt lat="44.08919" lon="3.15845">
        <ele>739.6</ele>
        <time>2019-05-31T12:58:07Z</time>
      </trkpt>
      <trkpt lat="44.0892" lon="3.15837">
        <ele>739.5</ele>
        <time>2019-05-31T12:58:09Z</time>
      </trkpt>
      <trkpt lat="44.0892" lon="3.15832">
        <ele>739.4</ele>
        <time>2019-05-31T12:58:10Z</time>
      </trkpt>
      <trkpt lat="44.08921" lon="3.15827">
        <ele>739.3</ele>
        <time>2019-05-31T12:58:11Z</time>
      </trkpt>
      <trkpt lat="44.08923" lon="3.15822">
        <ele>739.3</ele>
        <time>2019-05-31T12:58:12Z</time>
      </trkpt>
      <trkpt lat="44.08925" lon="3.15818">
        <ele>739.3</ele>
        <time>2019-05-31T12:58:13Z</time>
      </trkpt>
      <trkpt lat="44.08927" lon="3.15813">
        <ele>739.3</ele>
        <time>2019-05-31T12:58:14Z</time>
      </trkpt>
      <trkpt lat="44.08929" lon="3.15809">
        <ele>739.3</ele>
        <time>2019-05-31T12:58:15Z</time>
      </trkpt>
      <trkpt lat="44.0893" lon="3.15805">
        <ele>739.3</ele>
        <time>2019-05-31T12:58:16Z</time>
      </trkpt>
      <trkpt lat="44.08929" lon="3.15801">
        <ele>739.3</ele>
        <time>2019-05-31T12:58:17Z</time>
      </trkpt>
      <trkpt lat="44.08927" lon="3.15796">
        <ele>739.3</ele>
        <time>2019-05-31T12:58:18Z</time>
      </trkpt>
      <trkpt lat="44.08924" lon="3.15791">
        <ele>739.3</ele>
        <time>2019-05-31T12:58:19Z</time>
      </trkpt>
      <trkpt lat="44.08921" lon="3.15787">
        <ele>739.3</ele>
        <time>2019-05-31T12:58:20Z</time>
      </trkpt>
      <trkpt lat="44.08915" lon="3.15782">
        <ele>739.3</ele>
        <time>2019-05-31T12:58:21Z</time>
      </trkpt>
      <trkpt lat="44.08912" lon="3.15779">
        <ele>739.3</ele>
        <time>2019-05-31T12:58:22Z</time>
      </trkpt>
      <trkpt lat="44.0891" lon="3.15774">
        <ele>739.3</ele>
        <time>2019-05-31T12:58:23Z</time>
      </trkpt>
      <trkpt lat="44.08909" lon="3.15769">
        <ele>739.2</ele>
        <time>2019-05-31T12:58:24Z</time>
      </trkpt>
      <trkpt lat="44.08906" lon="3.15763">
        <ele>739.2</ele>
        <time>2019-05-31T12:58:25Z</time>
      </trkpt>
      <trkpt lat="44.08904" lon="3.1576">
        <ele>739.1</ele>
        <time>2019-05-31T12:58:26Z</time>
      </trkpt>
      <trkpt lat="44.08899" lon="3.15756">
        <ele>739</ele>
        <time>2019-05-31T12:58:27Z</time>
      </trkpt>
      <trkpt lat="44.08893" lon="3.15755">
        <ele>738.9</ele>
        <time>2019-05-31T12:58:28Z</time>
      </trkpt>
      <trkpt lat="44.08888" lon="3.15753">
        <ele>738.9</ele>
        <time>2019-05-31T12:58:29Z</time>
      </trkpt>
      <trkpt lat="44.08884" lon="3.15748">
        <ele>738.8</ele>
        <time>2019-05-31T12:58:31Z</time>
      </trkpt>
      <trkpt lat="44.08881" lon="3.15746">
        <ele>738.7</ele>
        <time>2019-05-31T12:58:32Z</time>
      </trkpt>
      <trkpt lat="44.08878" lon="3.15744">
        <ele>738.7</ele>
        <time>2019-05-31T12:58:33Z</time>
      </trkpt>
      <trkpt lat="44.08874" lon="3.1574">
        <ele>738.6</ele>
        <time>2019-05-31T12:58:35Z</time>
      </trkpt>
      <trkpt lat="44.0887" lon="3.15737">
        <ele>738.6</ele>
        <time>2019-05-31T12:58:37Z</time>
      </trkpt>
      <trkpt lat="44.08865" lon="3.15733">
        <ele>738.6</ele>
        <time>2019-05-31T12:58:39Z</time>
      </trkpt>
      <trkpt lat="44.08862" lon="3.15731">
        <ele>738.7</ele>
        <time>2019-05-31T12:58:40Z</time>
      </trkpt>
      <trkpt lat="44.08858" lon="3.15726">
        <ele>738.8</ele>
        <time>2019-05-31T12:58:42Z</time>
      </trkpt>
      <trkpt lat="44.08856" lon="3.15723">
        <ele>738.8</ele>
        <time>2019-05-31T12:58:43Z</time>
      </trkpt>
      <trkpt lat="44.08852" lon="3.1572">
        <ele>738.9</ele>
        <time>2019-05-31T12:58:44Z</time>
      </trkpt>
      <trkpt lat="44.08848" lon="3.15717">
        <ele>739</ele>
        <time>2019-05-31T12:58:45Z</time>
      </trkpt>
      <trkpt lat="44.08843" lon="3.15714">
        <ele>739.2</ele>
        <time>2019-05-31T12:58:46Z</time>
      </trkpt>
      <trkpt lat="44.08839" lon="3.15711">
        <ele>739.4</ele>
        <time>2019-05-31T12:58:47Z</time>
      </trkpt>
      <trkpt lat="44.08835" lon="3.15709">
        <ele>739.6</ele>
        <time>2019-05-31T12:58:48Z</time>
      </trkpt>
      <trkpt lat="44.08832" lon="3.15707">
        <ele>739.7</ele>
        <time>2019-05-31T12:58:49Z</time>
      </trkpt>
      <trkpt lat="44.08829" lon="3.15701">
        <ele>740</ele>
        <time>2019-05-31T12:58:51Z</time>
      </trkpt>
      <trkpt lat="44.08827" lon="3.15697">
        <ele>740.2</ele>
        <time>2019-05-31T12:58:52Z</time>
      </trkpt>
      <trkpt lat="44.08826" lon="3.15694">
        <ele>740.4</ele>
        <time>2019-05-31T12:58:53Z</time>
      </trkpt>
      <trkpt lat="44.08824" lon="3.15691">
        <ele>740.5</ele>
        <time>2019-05-31T12:58:54Z</time>
      </trkpt>
      <trkpt lat="44.08821" lon="3.15685">
        <ele>740.9</ele>
        <time>2019-05-31T12:58:56Z</time>
      </trkpt>
      <trkpt lat="44.08818" lon="3.1568">
        <ele>741.3</ele>
        <time>2019-05-31T12:58:58Z</time>
      </trkpt>
      <trkpt lat="44.08817" lon="3.15675">
        <ele>741.5</ele>
        <time>2019-05-31T12:59:00Z</time>
      </trkpt>
      <trkpt lat="44.08815" lon="3.15669">
        <ele>741.8</ele>
        <time>2019-05-31T12:59:02Z</time>
      </trkpt>
      <trkpt lat="44.08814" lon="3.15666">
        <ele>742</ele>
        <time>2019-05-31T12:59:03Z</time>
      </trkpt>
      <trkpt lat="44.08811" lon="3.15663">
        <ele>742.3</ele>
        <time>2019-05-31T12:59:04Z</time>
      </trkpt>
      <trkpt lat="44.08809" lon="3.15661">
        <ele>742.5</ele>
        <time>2019-05-31T12:59:05Z</time>
      </trkpt>
      <trkpt lat="44.08806" lon="3.15657">
        <ele>742.9</ele>
        <time>2019-05-31T12:59:07Z</time>
      </trkpt>
      <trkpt lat="44.08802" lon="3.15652">
        <ele>743.4</ele>
        <time>2019-05-31T12:59:09Z</time>
      </trkpt>
      <trkpt lat="44.088" lon="3.15647">
        <ele>743.8</ele>
        <time>2019-05-31T12:59:10Z</time>
      </trkpt>
      <trkpt lat="44.08797" lon="3.15644">
        <ele>744.2</ele>
        <time>2019-05-31T12:59:11Z</time>
      </trkpt>
      <trkpt lat="44.08794" lon="3.15642">
        <ele>744.6</ele>
        <time>2019-05-31T12:59:12Z</time>
      </trkpt>
      <trkpt lat="44.08791" lon="3.1564">
        <ele>745</ele>
        <time>2019-05-31T12:59:13Z</time>
      </trkpt>
      <trkpt lat="44.08788" lon="3.15638">
        <ele>745.4</ele>
        <time>2019-05-31T12:59:15Z</time>
      </trkpt>
      <trkpt lat="44.08785" lon="3.15634">
        <ele>745.9</ele>
        <time>2019-05-31T12:59:17Z</time>
      </trkpt>
      <trkpt lat="44.0878" lon="3.15631">
        <ele>746.6</ele>
        <time>2019-05-31T12:59:19Z</time>
      </trkpt>
      <trkpt lat="44.08778" lon="3.15628">
        <ele>746.9</ele>
        <time>2019-05-31T12:59:20Z</time>
      </trkpt>
      <trkpt lat="44.08776" lon="3.15625">
        <ele>747.1</ele>
        <time>2019-05-31T12:59:21Z</time>
      </trkpt>
      <trkpt lat="44.08774" lon="3.15622">
        <ele>747.3</ele>
        <time>2019-05-31T12:59:22Z</time>
      </trkpt>
      <trkpt lat="44.08773" lon="3.15616">
        <ele>747.6</ele>
        <time>2019-05-31T12:59:24Z</time>
      </trkpt>
      <trkpt lat="44.08772" lon="3.1561">
        <ele>747.9</ele>
        <time>2019-05-31T12:59:26Z</time>
      </trkpt>
      <trkpt lat="44.08772" lon="3.15606">
        <ele>748.1</ele>
        <time>2019-05-31T12:59:28Z</time>
      </trkpt>
      <trkpt lat="44.08772" lon="3.156">
        <ele>748.4</ele>
        <time>2019-05-31T12:59:30Z</time>
      </trkpt>
      <trkpt lat="44.08773" lon="3.15596">
        <ele>748.6</ele>
        <time>2019-05-31T12:59:32Z</time>
      </trkpt>
      <trkpt lat="44.08774" lon="3.15592">
        <ele>748.8</ele>
        <time>2019-05-31T12:59:34Z</time>
      </trkpt>
      <trkpt lat="44.08776" lon="3.15586">
        <ele>749.1</ele>
        <time>2019-05-31T12:59:36Z</time>
      </trkpt>
      <trkpt lat="44.08777" lon="3.15583">
        <ele>749.3</ele>
        <time>2019-05-31T12:59:37Z</time>
      </trkpt>
      <trkpt lat="44.08779" lon="3.1558">
        <ele>749.4</ele>
        <time>2019-05-31T12:59:38Z</time>
      </trkpt>
      <trkpt lat="44.08781" lon="3.15577">
        <ele>749.5</ele>
        <time>2019-05-31T12:59:39Z</time>
      </trkpt>
      <trkpt lat="44.08783" lon="3.1557">
        <ele>749.8</ele>
        <time>2019-05-31T12:59:41Z</time>
      </trkpt>
      <trkpt lat="44.08784" lon="3.15566">
        <ele>749.9</ele>
        <time>2019-05-31T12:59:42Z</time>
      </trkpt>
      <trkpt lat="44.08784" lon="3.1556">
        <ele>750.1</ele>
        <time>2019-05-31T12:59:44Z</time>
      </trkpt>
      <trkpt lat="44.08785" lon="3.15554">
        <ele>750.2</ele>
        <time>2019-05-31T12:59:46Z</time>
      </trkpt>
      <trkpt lat="44.08786" lon="3.15548">
        <ele>750.4</ele>
        <time>2019-05-31T12:59:48Z</time>
      </trkpt>
      <trkpt lat="44.08787" lon="3.15542">
        <ele>750.6</ele>
        <time>2019-05-31T12:59:50Z</time>
      </trkpt>
      <trkpt lat="44.08788" lon="3.15538">
        <ele>750.7</ele>
        <time>2019-05-31T12:59:51Z</time>
      </trkpt>
      <trkpt lat="44.0879" lon="3.15535">
        <ele>750.8</ele>
        <time>2019-05-31T12:59:52Z</time>
      </trkpt>
      <trkpt lat="44.08791" lon="3.15531">
        <ele>750.9</ele>
        <time>2019-05-31T12:59:53Z</time>
      </trkpt>
      <trkpt lat="44.0879" lon="3.15524">
        <ele>751.1</ele>
        <time>2019-05-31T12:59:55Z</time>
      </trkpt>
      <trkpt lat="44.0879" lon="3.15519">
        <ele>751.3</ele>
        <time>2019-05-31T12:59:57Z</time>
      </trkpt>
      <trkpt lat="44.0879" lon="3.15512">
        <ele>751.5</ele>
        <time>2019-05-31T12:59:59Z</time>
      </trkpt>
      <trkpt lat="44.08791" lon="3.15507">
        <ele>751.6</ele>
        <time>2019-05-31T13:00:01Z</time>
      </trkpt>
      <trkpt lat="44.08792" lon="3.15501">
        <ele>751.7</ele>
        <time>2019-05-31T13:00:03Z</time>
      </trkpt>
      <trkpt lat="44.08792" lon="3.15494">
        <ele>751.8</ele>
        <time>2019-05-31T13:00:05Z</time>
      </trkpt>
      <trkpt lat="44.08791" lon="3.1549">
        <ele>751.9</ele>
        <time>2019-05-31T13:00:06Z</time>
      </trkpt>
      <trkpt lat="44.08791" lon="3.15485">
        <ele>752</ele>
        <time>2019-05-31T13:00:07Z</time>
      </trkpt>
      <trkpt lat="44.08791" lon="3.15481">
        <ele>752.1</ele>
        <time>2019-05-31T13:00:08Z</time>
      </trkpt>
      <trkpt lat="44.08791" lon="3.15477">
        <ele>752.2</ele>
        <time>2019-05-31T13:00:09Z</time>
      </trkpt>
      <trkpt lat="44.08791" lon="3.15472">
        <ele>752.3</ele>
        <time>2019-05-31T13:00:10Z</time>
      </trkpt>
      <trkpt lat="44.0879" lon="3.15468">
        <ele>752.4</ele>
        <time>2019-05-31T13:00:11Z</time>
      </trkpt>
      <trkpt lat="44.0879" lon="3.15463">
        <ele>752.5</ele>
        <time>2019-05-31T13:00:12Z</time>
      </trkpt>
      <trkpt lat="44.08789" lon="3.15456">
        <ele>752.6</ele>
        <time>2019-05-31T13:00:14Z</time>
      </trkpt>
      <trkpt lat="44.08788" lon="3.15452">
        <ele>752.7</ele>
        <time>2019-05-31T13:00:15Z</time>
      </trkpt>
      <trkpt lat="44.08787" lon="3.15449">
        <ele>752.7</ele>
        <time>2019-05-31T13:00:16Z</time>
      </trkpt>
      <trkpt lat="44.08786" lon="3.15445">
        <ele>752.6</ele>
        <time>2019-05-31T13:00:17Z</time>
      </trkpt>
      <trkpt lat="44.08785" lon="3.15437">
        <ele>752</ele>
        <time>2019-05-31T13:00:19Z</time>
      </trkpt>
      <trkpt lat="44.08784" lon="3.15432">
        <ele>751.5</ele>
        <time>2019-05-31T13:00:20Z</time>
      </trkpt>
      <trkpt lat="44.08784" lon="3.15427">
        <ele>750.5</ele>
        <time>2019-05-31T13:00:21Z</time>
      </trkpt>
      <trkpt lat="44.08782" lon="3.15421">
        <ele>750.4</ele>
        <time>2019-05-31T13:00:22Z</time>
      </trkpt>
      <trkpt lat="44.0878" lon="3.15416">
        <ele>749.8</ele>
        <time>2019-05-31T13:00:23Z</time>
      </trkpt>
      <trkpt lat="44.08778" lon="3.15411">
        <ele>749.6</ele>
        <time>2019-05-31T13:00:24Z</time>
      </trkpt>
      <trkpt lat="44.08776" lon="3.15406">
        <ele>748.8</ele>
        <time>2019-05-31T13:00:25Z</time>
      </trkpt>
      <trkpt lat="44.08775" lon="3.154">
        <ele>748.1</ele>
        <time>2019-05-31T13:00:26Z</time>
      </trkpt>
      <trkpt lat="44.08772" lon="3.15394">
        <ele>747.6</ele>
        <time>2019-05-31T13:00:27Z</time>
      </trkpt>
      <trkpt lat="44.08767" lon="3.15386">
        <ele>746.6</ele>
        <time>2019-05-31T13:00:28Z</time>
      </trkpt>
      <trkpt lat="44.08764" lon="3.15381">
        <ele>746</ele>
        <time>2019-05-31T13:00:29Z</time>
      </trkpt>
      <trkpt lat="44.08758" lon="3.15377">
        <ele>745.5</ele>
        <time>2019-05-31T13:00:30Z</time>
      </trkpt>
      <trkpt lat="44.08754" lon="3.15374">
        <ele>744.8</ele>
        <time>2019-05-31T13:00:31Z</time>
      </trkpt>
      <trkpt lat="44.08748" lon="3.1537">
        <ele>744.2</ele>
        <time>2019-05-31T13:00:32Z</time>
      </trkpt>
      <trkpt lat="44.08741" lon="3.15367">
        <ele>743.5</ele>
        <time>2019-05-31T13:00:33Z</time>
      </trkpt>
      <trkpt lat="44.08734" lon="3.15366">
        <ele>743.4</ele>
        <time>2019-05-31T13:00:34Z</time>
      </trkpt>
      <trkpt lat="44.08728" lon="3.15365">
        <ele>743.3</ele>
        <time>2019-05-31T13:00:35Z</time>
      </trkpt>
      <trkpt lat="44.08723" lon="3.15365">
        <ele>743.2</ele>
        <time>2019-05-31T13:00:36Z</time>
      </trkpt>
      <trkpt lat="44.08718" lon="3.15361">
        <ele>742</ele>
        <time>2019-05-31T13:00:37Z</time>
      </trkpt>
      <trkpt lat="44.08712" lon="3.15357">
        <ele>740.6</ele>
        <time>2019-05-31T13:00:38Z</time>
      </trkpt>
      <trkpt lat="44.08706" lon="3.15352">
        <ele>739.1</ele>
        <time>2019-05-31T13:00:39Z</time>
      </trkpt>
      <trkpt lat="44.087" lon="3.15348">
        <ele>737.7</ele>
        <time>2019-05-31T13:00:40Z</time>
      </trkpt>
      <trkpt lat="44.08694" lon="3.15343">
        <ele>736.4</ele>
        <time>2019-05-31T13:00:41Z</time>
      </trkpt>
      <trkpt lat="44.08685" lon="3.1534">
        <ele>735.3</ele>
        <time>2019-05-31T13:00:42Z</time>
      </trkpt>
      <trkpt lat="44.08676" lon="3.15336">
        <ele>734.2</ele>
        <time>2019-05-31T13:00:43Z</time>
      </trkpt>
      <trkpt lat="44.08669" lon="3.15334">
        <ele>734.4</ele>
        <time>2019-05-31T13:00:44Z</time>
      </trkpt>
      <trkpt lat="44.08661" lon="3.15331">
        <ele>733.5</ele>
        <time>2019-05-31T13:00:45Z</time>
      </trkpt>
      <trkpt lat="44.08653" lon="3.15328">
        <ele>732.6</ele>
        <time>2019-05-31T13:00:46Z</time>
      </trkpt>
      <trkpt lat="44.08646" lon="3.15323">
        <ele>731.6</ele>
        <time>2019-05-31T13:00:47Z</time>
      </trkpt>
      <trkpt lat="44.08638" lon="3.15322">
        <ele>732</ele>
        <time>2019-05-31T13:00:48Z</time>
      </trkpt>
      <trkpt lat="44.08631" lon="3.15324">
        <ele>732.3</ele>
        <time>2019-05-31T13:00:49Z</time>
      </trkpt>
      <trkpt lat="44.08625" lon="3.15323">
        <ele>732.6</ele>
        <time>2019-05-31T13:00:50Z</time>
      </trkpt>
      <trkpt lat="44.08621" lon="3.15322">
        <ele>732.8</ele>
        <time>2019-05-31T13:00:51Z</time>
      </trkpt>
      <trkpt lat="44.08618" lon="3.15326">
        <ele>733.9</ele>
        <time>2019-05-31T13:00:52Z</time>
      </trkpt>
      <trkpt lat="44.08614" lon="3.15327">
        <ele>734.4</ele>
        <time>2019-05-31T13:00:53Z</time>
      </trkpt>
      <trkpt lat="44.08609" lon="3.15332">
        <ele>735.6</ele>
        <time>2019-05-31T13:00:54Z</time>
      </trkpt>
      <trkpt lat="44.08606" lon="3.1533">
        <ele>735.9</ele>
        <time>2019-05-31T13:00:55Z</time>
      </trkpt>
      <trkpt lat="44.08603" lon="3.15329">
        <ele>735.1</ele>
        <time>2019-05-31T13:00:56Z</time>
      </trkpt>
      <trkpt lat="44.08597" lon="3.15325">
        <ele>735.6</ele>
        <time>2019-05-31T13:00:57Z</time>
      </trkpt>
      <trkpt lat="44.0859" lon="3.15322">
        <ele>735</ele>
        <time>2019-05-31T13:00:58Z</time>
      </trkpt>
      <trkpt lat="44.08581" lon="3.15314">
        <ele>733.7</ele>
        <time>2019-05-31T13:00:59Z</time>
      </trkpt>
      <trkpt lat="44.08571" lon="3.15314">
        <ele>734.3</ele>
        <time>2019-05-31T13:01:00Z</time>
      </trkpt>
      <trkpt lat="44.0856" lon="3.15312">
        <ele>734.8</ele>
        <time>2019-05-31T13:01:01Z</time>
      </trkpt>
      <trkpt lat="44.08548" lon="3.15313">
        <ele>735</ele>
        <time>2019-05-31T13:01:02Z</time>
      </trkpt>
      <trkpt lat="44.08539" lon="3.15315">
        <ele>735.1</ele>
        <time>2019-05-31T13:01:03Z</time>
      </trkpt>
      <trkpt lat="44.08529" lon="3.15316">
        <ele>735.2</ele>
        <time>2019-05-31T13:01:04Z</time>
      </trkpt>
      <trkpt lat="44.08519" lon="3.15315">
        <ele>735.2</ele>
        <time>2019-05-31T13:01:05Z</time>
      </trkpt>
      <trkpt lat="44.08511" lon="3.15321">
        <ele>736</ele>
        <time>2019-05-31T13:01:06Z</time>
      </trkpt>
      <trkpt lat="44.08503" lon="3.1532">
        <ele>735.1</ele>
        <time>2019-05-31T13:01:07Z</time>
      </trkpt>
      <trkpt lat="44.08496" lon="3.15318">
        <ele>734.3</ele>
        <time>2019-05-31T13:01:08Z</time>
      </trkpt>
      <trkpt lat="44.08488" lon="3.15313">
        <ele>733.4</ele>
        <time>2019-05-31T13:01:09Z</time>
      </trkpt>
      <trkpt lat="44.08482" lon="3.15307">
        <ele>732.1</ele>
        <time>2019-05-31T13:01:10Z</time>
      </trkpt>
      <trkpt lat="44.08475" lon="3.15315">
        <ele>732.6</ele>
        <time>2019-05-31T13:01:11Z</time>
      </trkpt>
      <trkpt lat="44.08469" lon="3.15315">
        <ele>732.3</ele>
        <time>2019-05-31T13:01:12Z</time>
      </trkpt>
      <trkpt lat="44.08462" lon="3.15318">
        <ele>732.3</ele>
        <time>2019-05-31T13:01:13Z</time>
      </trkpt>
      <trkpt lat="44.08457" lon="3.15315">
        <ele>731.9</ele>
        <time>2019-05-31T13:01:14Z</time>
      </trkpt>
      <trkpt lat="44.08451" lon="3.15308">
        <ele>731.5</ele>
        <time>2019-05-31T13:01:15Z</time>
      </trkpt>
      <trkpt lat="44.08453" lon="3.15304">
        <ele>731.2</ele>
        <time>2019-05-31T13:01:16Z</time>
      </trkpt>
      <trkpt lat="44.08453" lon="3.15308">
        <ele>731.4</ele>
        <time>2019-05-31T13:01:17Z</time>
      </trkpt>
      <trkpt lat="44.08453" lon="3.15313">
        <ele>731.6</ele>
        <time>2019-05-31T13:01:23Z</time>
      </trkpt>
      <trkpt lat="44.08451" lon="3.15312">
        <ele>731.3</ele>
        <time>2019-05-31T13:01:46Z</time>
      </trkpt>
      <trkpt lat="44.08451" lon="3.15306">
        <ele>730.9</ele>
        <time>2019-05-31T13:02:36Z</time>
      </trkpt>
      <trkpt lat="44.08453" lon="3.15302">
        <ele>730.7</ele>
        <time>2019-05-31T13:02:40Z</time>
      </trkpt>
      <trkpt lat="44.08456" lon="3.15299">
        <ele>730.5</ele>
        <time>2019-05-31T13:02:42Z</time>
      </trkpt>
      <trkpt lat="44.08458" lon="3.15295">
        <ele>730.4</ele>
        <time>2019-05-31T13:02:44Z</time>
      </trkpt>
      <trkpt lat="44.0846" lon="3.15292">
        <ele>730.2</ele>
        <time>2019-05-31T13:02:46Z</time>
      </trkpt>
      <trkpt lat="44.08462" lon="3.15289">
        <ele>730.1</ele>
        <time>2019-05-31T13:02:48Z</time>
      </trkpt>
      <trkpt lat="44.08464" lon="3.15285">
        <ele>730</ele>
        <time>2019-05-31T13:02:50Z</time>
      </trkpt>
      <trkpt lat="44.08466" lon="3.15281">
        <ele>729.8</ele>
        <time>2019-05-31T13:02:52Z</time>
      </trkpt>
      <trkpt lat="44.08468" lon="3.15276">
        <ele>729.8</ele>
        <time>2019-05-31T13:02:54Z</time>
      </trkpt>
      <trkpt lat="44.0847" lon="3.15273">
        <ele>729.6</ele>
        <time>2019-05-31T13:02:56Z</time>
      </trkpt>
      <trkpt lat="44.08471" lon="3.15268">
        <ele>729.6</ele>
        <time>2019-05-31T13:02:58Z</time>
      </trkpt>
      <trkpt lat="44.08473" lon="3.15262">
        <ele>729.5</ele>
        <time>2019-05-31T13:03:00Z</time>
      </trkpt>
      <trkpt lat="44.08475" lon="3.15256">
        <ele>729.5</ele>
        <time>2019-05-31T13:03:02Z</time>
      </trkpt>
      <trkpt lat="44.08477" lon="3.15251">
        <ele>729.5</ele>
        <time>2019-05-31T13:03:04Z</time>
      </trkpt>
      <trkpt lat="44.08479" lon="3.15246">
        <ele>729.5</ele>
        <time>2019-05-31T13:03:06Z</time>
      </trkpt>
      <trkpt lat="44.08482" lon="3.15241">
        <ele>729.4</ele>
        <time>2019-05-31T13:03:08Z</time>
      </trkpt>
      <trkpt lat="44.08484" lon="3.15238">
        <ele>729.5</ele>
        <time>2019-05-31T13:03:10Z</time>
      </trkpt>
      <trkpt lat="44.08487" lon="3.15235">
        <ele>729.7</ele>
        <time>2019-05-31T13:03:12Z</time>
      </trkpt>
      <trkpt lat="44.0849" lon="3.15232">
        <ele>729.8</ele>
        <time>2019-05-31T13:03:14Z</time>
      </trkpt>
      <trkpt lat="44.08493" lon="3.15229">
        <ele>729.8</ele>
        <time>2019-05-31T13:03:16Z</time>
      </trkpt>
      <trkpt lat="44.08495" lon="3.15226">
        <ele>729.9</ele>
        <time>2019-05-31T13:03:17Z</time>
      </trkpt>
      <trkpt lat="44.08497" lon="3.15223">
        <ele>729.9</ele>
        <time>2019-05-31T13:03:18Z</time>
      </trkpt>
      <trkpt lat="44.08499" lon="3.1522">
        <ele>729.9</ele>
        <time>2019-05-31T13:03:19Z</time>
      </trkpt>
      <trkpt lat="44.08501" lon="3.15217">
        <ele>729.9</ele>
        <time>2019-05-31T13:03:20Z</time>
      </trkpt>
      <trkpt lat="44.08504" lon="3.15213">
        <ele>730</ele>
        <time>2019-05-31T13:03:22Z</time>
      </trkpt>
      <trkpt lat="44.08508" lon="3.15208">
        <ele>730.2</ele>
        <time>2019-05-31T13:03:24Z</time>
      </trkpt>
      <trkpt lat="44.0851" lon="3.15205">
        <ele>730</ele>
        <time>2019-05-31T13:03:25Z</time>
      </trkpt>
      <trkpt lat="44.08512" lon="3.15201">
        <ele>729.8</ele>
        <time>2019-05-31T13:03:26Z</time>
      </trkpt>
      <trkpt lat="44.08514" lon="3.15199">
        <ele>729.5</ele>
        <time>2019-05-31T13:03:27Z</time>
      </trkpt>
      <trkpt lat="44.08516" lon="3.15196">
        <ele>729.6</ele>
        <time>2019-05-31T13:03:28Z</time>
      </trkpt>
      <trkpt lat="44.08519" lon="3.15193">
        <ele>729.6</ele>
        <time>2019-05-31T13:03:29Z</time>
      </trkpt>
      <trkpt lat="44.08522" lon="3.1519">
        <ele>729.7</ele>
        <time>2019-05-31T13:03:30Z</time>
      </trkpt>
      <trkpt lat="44.08524" lon="3.15186">
        <ele>729.9</ele>
        <time>2019-05-31T13:03:31Z</time>
      </trkpt>
      <trkpt lat="44.08527" lon="3.15181">
        <ele>730.1</ele>
        <time>2019-05-31T13:03:32Z</time>
      </trkpt>
      <trkpt lat="44.0853" lon="3.15177">
        <ele>730.2</ele>
        <time>2019-05-31T13:03:33Z</time>
      </trkpt>
      <trkpt lat="44.08532" lon="3.15172">
        <ele>730.4</ele>
        <time>2019-05-31T13:03:34Z</time>
      </trkpt>
      <trkpt lat="44.08534" lon="3.15168">
        <ele>730.5</ele>
        <time>2019-05-31T13:03:35Z</time>
      </trkpt>
      <trkpt lat="44.08536" lon="3.15164">
        <ele>730.6</ele>
        <time>2019-05-31T13:03:36Z</time>
      </trkpt>
      <trkpt lat="44.08538" lon="3.15161">
        <ele>730.7</ele>
        <time>2019-05-31T13:03:37Z</time>
      </trkpt>
      <trkpt lat="44.08542" lon="3.15155">
        <ele>730.7</ele>
        <time>2019-05-31T13:03:39Z</time>
      </trkpt>
      <trkpt lat="44.08545" lon="3.15151">
        <ele>730.6</ele>
        <time>2019-05-31T13:03:41Z</time>
      </trkpt>
      <trkpt lat="44.08548" lon="3.15149">
        <ele>730.9</ele>
        <time>2019-05-31T13:03:43Z</time>
      </trkpt>
      <trkpt lat="44.08552" lon="3.15147">
        <ele>731.2</ele>
        <time>2019-05-31T13:03:45Z</time>
      </trkpt>
      <trkpt lat="44.08555" lon="3.15144">
        <ele>731.5</ele>
        <time>2019-05-31T13:03:47Z</time>
      </trkpt>
      <trkpt lat="44.08558" lon="3.1514">
        <ele>731.8</ele>
        <time>2019-05-31T13:03:49Z</time>
      </trkpt>
      <trkpt lat="44.08561" lon="3.15136">
        <ele>731.9</ele>
        <time>2019-05-31T13:03:51Z</time>
      </trkpt>
      <trkpt lat="44.08564" lon="3.15134">
        <ele>731.8</ele>
        <time>2019-05-31T13:03:53Z</time>
      </trkpt>
      <trkpt lat="44.08566" lon="3.15132">
        <ele>731.7</ele>
        <time>2019-05-31T13:03:55Z</time>
      </trkpt>
      <trkpt lat="44.08569" lon="3.15128">
        <ele>731.8</ele>
        <time>2019-05-31T13:03:57Z</time>
      </trkpt>
      <trkpt lat="44.08572" lon="3.15123">
        <ele>732</ele>
        <time>2019-05-31T13:03:59Z</time>
      </trkpt>
      <trkpt lat="44.08576" lon="3.15119">
        <ele>732.3</ele>
        <time>2019-05-31T13:04:01Z</time>
      </trkpt>
      <trkpt lat="44.08579" lon="3.15116">
        <ele>732.5</ele>
        <time>2019-05-31T13:04:03Z</time>
      </trkpt>
      <trkpt lat="44.08582" lon="3.15113">
        <ele>732.7</ele>
        <time>2019-05-31T13:04:05Z</time>
      </trkpt>
      <trkpt lat="44.08585" lon="3.15109">
        <ele>732.6</ele>
        <time>2019-05-31T13:04:07Z</time>
      </trkpt>
      <trkpt lat="44.08587" lon="3.15106">
        <ele>732.6</ele>
        <time>2019-05-31T13:04:08Z</time>
      </trkpt>
      <trkpt lat="44.0859" lon="3.15104">
        <ele>732.4</ele>
        <time>2019-05-31T13:04:10Z</time>
      </trkpt>
      <trkpt lat="44.08593" lon="3.15105">
        <ele>732.2</ele>
        <time>2019-05-31T13:04:12Z</time>
      </trkpt>
      <trkpt lat="44.08596" lon="3.15103">
        <ele>731.9</ele>
        <time>2019-05-31T13:04:14Z</time>
      </trkpt>
      <trkpt lat="44.086" lon="3.15099">
        <ele>731.6</ele>
        <time>2019-05-31T13:04:16Z</time>
      </trkpt>
      <trkpt lat="44.08604" lon="3.15095">
        <ele>731.3</ele>
        <time>2019-05-31T13:04:18Z</time>
      </trkpt>
      <trkpt lat="44.08607" lon="3.1509">
        <ele>731.2</ele>
        <time>2019-05-31T13:04:20Z</time>
      </trkpt>
      <trkpt lat="44.08609" lon="3.15085">
        <ele>731.6</ele>
        <time>2019-05-31T13:04:22Z</time>
      </trkpt>
      <trkpt lat="44.08612" lon="3.15083">
        <ele>732</ele>
        <time>2019-05-31T13:04:24Z</time>
      </trkpt>
      <trkpt lat="44.08615" lon="3.15082">
        <ele>731.8</ele>
        <time>2019-05-31T13:04:26Z</time>
      </trkpt>
      <trkpt lat="44.08619" lon="3.15078">
        <ele>731.5</ele>
        <time>2019-05-31T13:04:29Z</time>
      </trkpt>
      <trkpt lat="44.08622" lon="3.15075">
        <ele>730.9</ele>
        <time>2019-05-31T13:04:31Z</time>
      </trkpt>
      <trkpt lat="44.08625" lon="3.15072">
        <ele>730.3</ele>
        <time>2019-05-31T13:04:33Z</time>
      </trkpt>
      <trkpt lat="44.08628" lon="3.15069">
        <ele>730.1</ele>
        <time>2019-05-31T13:04:35Z</time>
      </trkpt>
      <trkpt lat="44.08631" lon="3.15065">
        <ele>729.9</ele>
        <time>2019-05-31T13:04:37Z</time>
      </trkpt>
      <trkpt lat="44.08634" lon="3.15063">
        <ele>729.8</ele>
        <time>2019-05-31T13:04:39Z</time>
      </trkpt>
      <trkpt lat="44.08637" lon="3.15062">
        <ele>729.8</ele>
        <time>2019-05-31T13:04:41Z</time>
      </trkpt>
      <trkpt lat="44.0864" lon="3.15061">
        <ele>729.8</ele>
        <time>2019-05-31T13:04:43Z</time>
      </trkpt>
      <trkpt lat="44.08644" lon="3.15058">
        <ele>729.7</ele>
        <time>2019-05-31T13:04:45Z</time>
      </trkpt>
      <trkpt lat="44.08647" lon="3.15056">
        <ele>729.5</ele>
        <time>2019-05-31T13:04:46Z</time>
      </trkpt>
      <trkpt lat="44.08649" lon="3.15054">
        <ele>729.4</ele>
        <time>2019-05-31T13:04:47Z</time>
      </trkpt>
      <trkpt lat="44.08651" lon="3.15051">
        <ele>729.2</ele>
        <time>2019-05-31T13:04:48Z</time>
      </trkpt>
      <trkpt lat="44.08654" lon="3.15049">
        <ele>729</ele>
        <time>2019-05-31T13:04:49Z</time>
      </trkpt>
      <trkpt lat="44.08659" lon="3.15046">
        <ele>728.9</ele>
        <time>2019-05-31T13:04:51Z</time>
      </trkpt>
      <trkpt lat="44.08661" lon="3.15045">
        <ele>729</ele>
        <time>2019-05-31T13:04:52Z</time>
      </trkpt>
      <trkpt lat="44.08665" lon="3.15043">
        <ele>729.1</ele>
        <time>2019-05-31T13:04:53Z</time>
      </trkpt>
      <trkpt lat="44.08669" lon="3.15041">
        <ele>729.5</ele>
        <time>2019-05-31T13:04:54Z</time>
      </trkpt>
      <trkpt lat="44.08672" lon="3.15038">
        <ele>730</ele>
        <time>2019-05-31T13:04:55Z</time>
      </trkpt>
      <trkpt lat="44.08674" lon="3.15036">
        <ele>730</ele>
        <time>2019-05-31T13:04:56Z</time>
      </trkpt>
      <trkpt lat="44.08679" lon="3.15032">
        <ele>730.2</ele>
        <time>2019-05-31T13:04:58Z</time>
      </trkpt>
      <trkpt lat="44.08682" lon="3.15027">
        <ele>730.3</ele>
        <time>2019-05-31T13:05:00Z</time>
      </trkpt>
      <trkpt lat="44.08684" lon="3.15024">
        <ele>730.3</ele>
        <time>2019-05-31T13:05:02Z</time>
      </trkpt>
      <trkpt lat="44.08686" lon="3.15021">
        <ele>730.5</ele>
        <time>2019-05-31T13:05:04Z</time>
      </trkpt>
      <trkpt lat="44.08689" lon="3.15018">
        <ele>730.8</ele>
        <time>2019-05-31T13:05:06Z</time>
      </trkpt>
      <trkpt lat="44.08692" lon="3.15016">
        <ele>731.1</ele>
        <time>2019-05-31T13:05:08Z</time>
      </trkpt>
      <trkpt lat="44.08694" lon="3.15012">
        <ele>731.3</ele>
        <time>2019-05-31T13:05:10Z</time>
      </trkpt>
      <trkpt lat="44.08696" lon="3.15008">
        <ele>731.3</ele>
        <time>2019-05-31T13:05:12Z</time>
      </trkpt>
      <trkpt lat="44.08698" lon="3.15005">
        <ele>731.5</ele>
        <time>2019-05-31T13:05:14Z</time>
      </trkpt>
      <trkpt lat="44.08701" lon="3.15003">
        <ele>732</ele>
        <time>2019-05-31T13:05:16Z</time>
      </trkpt>
      <trkpt lat="44.08704" lon="3.15002">
        <ele>732.4</ele>
        <time>2019-05-31T13:05:18Z</time>
      </trkpt>
      <trkpt lat="44.08707" lon="3.14999">
        <ele>732.6</ele>
        <time>2019-05-31T13:05:20Z</time>
      </trkpt>
      <trkpt lat="44.0871" lon="3.14997">
        <ele>732.8</ele>
        <time>2019-05-31T13:05:22Z</time>
      </trkpt>
      <trkpt lat="44.08713" lon="3.14994">
        <ele>733.1</ele>
        <time>2019-05-31T13:05:24Z</time>
      </trkpt>
      <trkpt lat="44.08716" lon="3.14992">
        <ele>733.6</ele>
        <time>2019-05-31T13:05:26Z</time>
      </trkpt>
      <trkpt lat="44.08719" lon="3.14989">
        <ele>734.2</ele>
        <time>2019-05-31T13:05:28Z</time>
      </trkpt>
      <trkpt lat="44.08721" lon="3.14985">
        <ele>734.7</ele>
        <time>2019-05-31T13:05:30Z</time>
      </trkpt>
      <trkpt lat="44.08724" lon="3.14983">
        <ele>735.1</ele>
        <time>2019-05-31T13:05:32Z</time>
      </trkpt>
      <trkpt lat="44.08727" lon="3.14981">
        <ele>735.3</ele>
        <time>2019-05-31T13:05:34Z</time>
      </trkpt>
      <trkpt lat="44.0873" lon="3.14978">
        <ele>735.4</ele>
        <time>2019-05-31T13:05:36Z</time>
      </trkpt>
      <trkpt lat="44.08732" lon="3.14976">
        <ele>735.4</ele>
        <time>2019-05-31T13:05:38Z</time>
      </trkpt>
      <trkpt lat="44.08735" lon="3.14974">
        <ele>735.4</ele>
        <time>2019-05-31T13:05:40Z</time>
      </trkpt>
      <trkpt lat="44.08739" lon="3.1497">
        <ele>735.5</ele>
        <time>2019-05-31T13:05:42Z</time>
      </trkpt>
      <trkpt lat="44.08742" lon="3.14968">
        <ele>735.7</ele>
        <time>2019-05-31T13:05:43Z</time>
      </trkpt>
      <trkpt lat="44.08745" lon="3.14964">
        <ele>736.1</ele>
        <time>2019-05-31T13:05:45Z</time>
      </trkpt>
      <trkpt lat="44.08748" lon="3.14962">
        <ele>736.3</ele>
        <time>2019-05-31T13:05:47Z</time>
      </trkpt>
      <trkpt lat="44.08753" lon="3.1496">
        <ele>736.4</ele>
        <time>2019-05-31T13:05:49Z</time>
      </trkpt>
      <trkpt lat="44.08756" lon="3.14958">
        <ele>736.4</ele>
        <time>2019-05-31T13:05:51Z</time>
      </trkpt>
      <trkpt lat="44.0876" lon="3.14955">
        <ele>736.5</ele>
        <time>2019-05-31T13:05:53Z</time>
      </trkpt>
      <trkpt lat="44.08764" lon="3.14952">
        <ele>736.3</ele>
        <time>2019-05-31T13:05:55Z</time>
      </trkpt>
      <trkpt lat="44.08767" lon="3.14949">
        <ele>736.2</ele>
        <time>2019-05-31T13:05:57Z</time>
      </trkpt>
      <trkpt lat="44.08771" lon="3.14944">
        <ele>736.2</ele>
        <time>2019-05-31T13:05:59Z</time>
      </trkpt>
      <trkpt lat="44.08774" lon="3.14942">
        <ele>736.3</ele>
        <time>2019-05-31T13:06:01Z</time>
      </trkpt>
      <trkpt lat="44.08778" lon="3.1494">
        <ele>736.7</ele>
        <time>2019-05-31T13:06:03Z</time>
      </trkpt>
      <trkpt lat="44.08781" lon="3.14937">
        <ele>737.2</ele>
        <time>2019-05-31T13:06:05Z</time>
      </trkpt>
      <trkpt lat="44.08786" lon="3.14932">
        <ele>737.3</ele>
        <time>2019-05-31T13:06:07Z</time>
      </trkpt>
      <trkpt lat="44.08789" lon="3.14928">
        <ele>737.4</ele>
        <time>2019-05-31T13:06:09Z</time>
      </trkpt>
      <trkpt lat="44.08792" lon="3.14924">
        <ele>737.5</ele>
        <time>2019-05-31T13:06:11Z</time>
      </trkpt>
      <trkpt lat="44.08795" lon="3.14921">
        <ele>737.6</ele>
        <time>2019-05-31T13:06:13Z</time>
      </trkpt>
      <trkpt lat="44.08797" lon="3.14919">
        <ele>737.6</ele>
        <time>2019-05-31T13:07:02Z</time>
      </trkpt>
      <trkpt lat="44.08799" lon="3.14916">
        <ele>737.6</ele>
        <time>2019-05-31T13:07:06Z</time>
      </trkpt>
      <trkpt lat="44.08803" lon="3.14915">
        <ele>737.5</ele>
        <time>2019-05-31T13:08:30Z</time>
      </trkpt>
      <trkpt lat="44.08806" lon="3.14915">
        <ele>737.6</ele>
        <time>2019-05-31T13:08:31Z</time>
      </trkpt>
      <trkpt lat="44.0881" lon="3.14911">
        <ele>737.8</ele>
        <time>2019-05-31T13:08:33Z</time>
      </trkpt>
      <trkpt lat="44.08812" lon="3.14907">
        <ele>738.2</ele>
        <time>2019-05-31T13:08:35Z</time>
      </trkpt>
      <trkpt lat="44.08812" lon="3.14902">
        <ele>738.6</ele>
        <time>2019-05-31T13:08:37Z</time>
      </trkpt>
      <trkpt lat="44.08811" lon="3.14897">
        <ele>739</ele>
        <time>2019-05-31T13:08:40Z</time>
      </trkpt>
      <trkpt lat="44.08812" lon="3.14891">
        <ele>739.4</ele>
        <time>2019-05-31T13:08:42Z</time>
      </trkpt>
      <trkpt lat="44.08812" lon="3.14885">
        <ele>739.6</ele>
        <time>2019-05-31T13:08:44Z</time>
      </trkpt>
      <trkpt lat="44.08811" lon="3.1488">
        <ele>739.8</ele>
        <time>2019-05-31T13:08:46Z</time>
      </trkpt>
      <trkpt lat="44.08811" lon="3.14872">
        <ele>739.9</ele>
        <time>2019-05-31T13:08:48Z</time>
      </trkpt>
      <trkpt lat="44.0881" lon="3.14868">
        <ele>739.9</ele>
        <time>2019-05-31T13:08:49Z</time>
      </trkpt>
      <trkpt lat="44.08809" lon="3.14862">
        <ele>739.9</ele>
        <time>2019-05-31T13:08:51Z</time>
      </trkpt>
      <trkpt lat="44.0881" lon="3.14856">
        <ele>739.8</ele>
        <time>2019-05-31T13:08:53Z</time>
      </trkpt>
      <trkpt lat="44.08811" lon="3.14852">
        <ele>739.4</ele>
        <time>2019-05-31T13:08:54Z</time>
      </trkpt>
      <trkpt lat="44.08812" lon="3.14845">
        <ele>739.3</ele>
        <time>2019-05-31T13:08:56Z</time>
      </trkpt>
      <trkpt lat="44.0881" lon="3.1484">
        <ele>739.5</ele>
        <time>2019-05-31T13:08:57Z</time>
      </trkpt>
      <trkpt lat="44.08809" lon="3.14836">
        <ele>739.4</ele>
        <time>2019-05-31T13:08:58Z</time>
      </trkpt>
      <trkpt lat="44.08809" lon="3.14832">
        <ele>739.3</ele>
        <time>2019-05-31T13:08:59Z</time>
      </trkpt>
      <trkpt lat="44.08807" lon="3.14827">
        <ele>739.6</ele>
        <time>2019-05-31T13:09:00Z</time>
      </trkpt>
      <trkpt lat="44.08806" lon="3.14822">
        <ele>739.3</ele>
        <time>2019-05-31T13:09:01Z</time>
      </trkpt>
      <trkpt lat="44.08805" lon="3.14816">
        <ele>739.2</ele>
        <time>2019-05-31T13:09:02Z</time>
      </trkpt>
      <trkpt lat="44.08803" lon="3.1481">
        <ele>739.2</ele>
        <time>2019-05-31T13:09:03Z</time>
      </trkpt>
      <trkpt lat="44.08802" lon="3.14803">
        <ele>739</ele>
        <time>2019-05-31T13:09:04Z</time>
      </trkpt>
      <trkpt lat="44.088" lon="3.14796">
        <ele>738.9</ele>
        <time>2019-05-31T13:09:05Z</time>
      </trkpt>
      <trkpt lat="44.08794" lon="3.14785">
        <ele>739.1</ele>
        <time>2019-05-31T13:09:06Z</time>
      </trkpt>
      <trkpt lat="44.08791" lon="3.14779">
        <ele>738.9</ele>
        <time>2019-05-31T13:09:07Z</time>
      </trkpt>
      <trkpt lat="44.0879" lon="3.14774">
        <ele>738.6</ele>
        <time>2019-05-31T13:09:08Z</time>
      </trkpt>
      <trkpt lat="44.0879" lon="3.14767">
        <ele>738.4</ele>
        <time>2019-05-31T13:09:10Z</time>
      </trkpt>
      <trkpt lat="44.08789" lon="3.14763">
        <ele>738.6</ele>
        <time>2019-05-31T13:09:12Z</time>
      </trkpt>
      <trkpt lat="44.08792" lon="3.14763">
        <ele>738.2</ele>
        <time>2019-05-31T13:09:15Z</time>
      </trkpt>
      <trkpt lat="44.08791" lon="3.14759">
        <ele>738</ele>
        <time>2019-05-31T13:09:17Z</time>
      </trkpt>
      <trkpt lat="44.08789" lon="3.14755">
        <ele>738.3</ele>
        <time>2019-05-31T13:09:22Z</time>
      </trkpt>
      <trkpt lat="44.08786" lon="3.14751">
        <ele>738.7</ele>
        <time>2019-05-31T13:09:24Z</time>
      </trkpt>
      <trkpt lat="44.08785" lon="3.14745">
        <ele>738.6</ele>
        <time>2019-05-31T13:09:26Z</time>
      </trkpt>
      <trkpt lat="44.08785" lon="3.14739">
        <ele>738.6</ele>
        <time>2019-05-31T13:09:28Z</time>
      </trkpt>
      <trkpt lat="44.08785" lon="3.14732">
        <ele>738.5</ele>
        <time>2019-05-31T13:09:30Z</time>
      </trkpt>
      <trkpt lat="44.08784" lon="3.14725">
        <ele>738.5</ele>
        <time>2019-05-31T13:09:32Z</time>
      </trkpt>
      <trkpt lat="44.08783" lon="3.14721">
        <ele>738.4</ele>
        <time>2019-05-31T13:09:33Z</time>
      </trkpt>
      <trkpt lat="44.08782" lon="3.14715">
        <ele>738.8</ele>
        <time>2019-05-31T13:09:35Z</time>
      </trkpt>
      <trkpt lat="44.08781" lon="3.1471">
        <ele>738.8</ele>
        <time>2019-05-31T13:09:37Z</time>
      </trkpt>
      <trkpt lat="44.0878" lon="3.14703">
        <ele>739.3</ele>
        <time>2019-05-31T13:09:39Z</time>
      </trkpt>
      <trkpt lat="44.08779" lon="3.14696">
        <ele>739.3</ele>
        <time>2019-05-31T13:09:41Z</time>
      </trkpt>
      <trkpt lat="44.08778" lon="3.14692">
        <ele>739.2</ele>
        <time>2019-05-31T13:09:42Z</time>
      </trkpt>
      <trkpt lat="44.08777" lon="3.14688">
        <ele>739.8</ele>
        <time>2019-05-31T13:09:43Z</time>
      </trkpt>
      <trkpt lat="44.08773" lon="3.14684">
        <ele>740.3</ele>
        <time>2019-05-31T13:09:45Z</time>
      </trkpt>
      <trkpt lat="44.08771" lon="3.14678">
        <ele>740.9</ele>
        <time>2019-05-31T13:09:47Z</time>
      </trkpt>
      <trkpt lat="44.08771" lon="3.1467">
        <ele>741</ele>
        <time>2019-05-31T13:09:49Z</time>
      </trkpt>
      <trkpt lat="44.08771" lon="3.14665">
        <ele>740.6</ele>
        <time>2019-05-31T13:09:50Z</time>
      </trkpt>
      <trkpt lat="44.08773" lon="3.14659">
        <ele>740.7</ele>
        <time>2019-05-31T13:09:51Z</time>
      </trkpt>
      <trkpt lat="44.08774" lon="3.14655">
        <ele>740.8</ele>
        <time>2019-05-31T13:09:52Z</time>
      </trkpt>
      <trkpt lat="44.08774" lon="3.14648">
        <ele>740.8</ele>
        <time>2019-05-31T13:09:54Z</time>
      </trkpt>
      <trkpt lat="44.08771" lon="3.14641">
        <ele>741.3</ele>
        <time>2019-05-31T13:09:56Z</time>
      </trkpt>
      <trkpt lat="44.08769" lon="3.14638">
        <ele>741.3</ele>
        <time>2019-05-31T13:09:57Z</time>
      </trkpt>
      <trkpt lat="44.08766" lon="3.14634">
        <ele>741.7</ele>
        <time>2019-05-31T13:09:58Z</time>
      </trkpt>
      <trkpt lat="44.08763" lon="3.14629">
        <ele>742.1</ele>
        <time>2019-05-31T13:09:59Z</time>
      </trkpt>
      <trkpt lat="44.0876" lon="3.14625">
        <ele>742.5</ele>
        <time>2019-05-31T13:10:00Z</time>
      </trkpt>
      <trkpt lat="44.08758" lon="3.1462">
        <ele>743</ele>
        <time>2019-05-31T13:10:01Z</time>
      </trkpt>
      <trkpt lat="44.08757" lon="3.14617">
        <ele>743</ele>
        <time>2019-05-31T13:10:02Z</time>
      </trkpt>
      <trkpt lat="44.08754" lon="3.14612">
        <ele>743.3</ele>
        <time>2019-05-31T13:10:04Z</time>
      </trkpt>
      <trkpt lat="44.08752" lon="3.14609">
        <ele>743.7</ele>
        <time>2019-05-31T13:10:05Z</time>
      </trkpt>
      <trkpt lat="44.08749" lon="3.14606">
        <ele>743.6</ele>
        <time>2019-05-31T13:10:06Z</time>
      </trkpt>
      <trkpt lat="44.08747" lon="3.14604">
        <ele>744</ele>
        <time>2019-05-31T13:10:07Z</time>
      </trkpt>
      <trkpt lat="44.08744" lon="3.14602">
        <ele>744.3</ele>
        <time>2019-05-31T13:10:08Z</time>
      </trkpt>
      <trkpt lat="44.08742" lon="3.14599">
        <ele>744.5</ele>
        <time>2019-05-31T13:10:09Z</time>
      </trkpt>
      <trkpt lat="44.0874" lon="3.14596">
        <ele>744.5</ele>
        <time>2019-05-31T13:10:10Z</time>
      </trkpt>
      <trkpt lat="44.08737" lon="3.14591">
        <ele>744.6</ele>
        <time>2019-05-31T13:10:12Z</time>
      </trkpt>
      <trkpt lat="44.08735" lon="3.14588">
        <ele>744.4</ele>
        <time>2019-05-31T13:10:14Z</time>
      </trkpt>
      <trkpt lat="44.08731" lon="3.14587">
        <ele>744.3</ele>
        <time>2019-05-31T13:10:17Z</time>
      </trkpt>
      <trkpt lat="44.08729" lon="3.14589">
        <ele>744.2</ele>
        <time>2019-05-31T13:10:20Z</time>
      </trkpt>
      <trkpt lat="44.08727" lon="3.14592">
        <ele>744</ele>
        <time>2019-05-31T13:10:26Z</time>
      </trkpt>
      <trkpt lat="44.08724" lon="3.14594">
        <ele>743.7</ele>
        <time>2019-05-31T13:10:30Z</time>
      </trkpt>
      <trkpt lat="44.08721" lon="3.14593">
        <ele>743.5</ele>
        <time>2019-05-31T13:10:35Z</time>
      </trkpt>
      <trkpt lat="44.08723" lon="3.14594">
        <ele>743.3</ele>
        <time>2019-05-31T13:10:48Z</time>
      </trkpt>
      <trkpt lat="44.08726" lon="3.14593">
        <ele>743.1</ele>
        <time>2019-05-31T13:10:50Z</time>
      </trkpt>
      <trkpt lat="44.0873" lon="3.14592">
        <ele>742.9</ele>
        <time>2019-05-31T13:10:52Z</time>
      </trkpt>
      <trkpt lat="44.08732" lon="3.14591">
        <ele>742.8</ele>
        <time>2019-05-31T13:10:53Z</time>
      </trkpt>
      <trkpt lat="44.08736" lon="3.1459">
        <ele>742.6</ele>
        <time>2019-05-31T13:10:54Z</time>
      </trkpt>
      <trkpt lat="44.08739" lon="3.14588">
        <ele>742.4</ele>
        <time>2019-05-31T13:10:55Z</time>
      </trkpt>
      <trkpt lat="44.08743" lon="3.14586">
        <ele>742.2</ele>
        <time>2019-05-31T13:10:56Z</time>
      </trkpt>
      <trkpt lat="44.08745" lon="3.14583">
        <ele>742</ele>
        <time>2019-05-31T13:10:57Z</time>
      </trkpt>
      <trkpt lat="44.08748" lon="3.14579">
        <ele>741.8</ele>
        <time>2019-05-31T13:10:58Z</time>
      </trkpt>
      <trkpt lat="44.08751" lon="3.14576">
        <ele>741.6</ele>
        <time>2019-05-31T13:10:59Z</time>
      </trkpt>
      <trkpt lat="44.08754" lon="3.14572">
        <ele>741.4</ele>
        <time>2019-05-31T13:11:00Z</time>
      </trkpt>
      <trkpt lat="44.08758" lon="3.14564">
        <ele>741.3</ele>
        <time>2019-05-31T13:11:01Z</time>
      </trkpt>
      <trkpt lat="44.08762" lon="3.14556">
        <ele>741.2</ele>
        <time>2019-05-31T13:11:02Z</time>
      </trkpt>
      <trkpt lat="44.08764" lon="3.1455">
        <ele>741.2</ele>
        <time>2019-05-31T13:11:03Z</time>
      </trkpt>
      <trkpt lat="44.08766" lon="3.14544">
        <ele>741.2</ele>
        <time>2019-05-31T13:11:04Z</time>
      </trkpt>
      <trkpt lat="44.08767" lon="3.14536">
        <ele>741.2</ele>
        <time>2019-05-31T13:11:05Z</time>
      </trkpt>
      <trkpt lat="44.08768" lon="3.14529">
        <ele>741.2</ele>
        <time>2019-05-31T13:11:06Z</time>
      </trkpt>
      <trkpt lat="44.08769" lon="3.1452">
        <ele>741.2</ele>
        <time>2019-05-31T13:11:07Z</time>
      </trkpt>
      <trkpt lat="44.0877" lon="3.14512">
        <ele>741.2</ele>
        <time>2019-05-31T13:11:08Z</time>
      </trkpt>
      <trkpt lat="44.08775" lon="3.14512">
        <ele>741.2</ele>
        <time>2019-05-31T13:11:09Z</time>
      </trkpt>
      <trkpt lat="44.08782" lon="3.14507">
        <ele>741.2</ele>
        <time>2019-05-31T13:11:10Z</time>
      </trkpt>
      <trkpt lat="44.08786" lon="3.14504">
        <ele>741.3</ele>
        <time>2019-05-31T13:11:11Z</time>
      </trkpt>
      <trkpt lat="44.08792" lon="3.14501">
        <ele>741.2</ele>
        <time>2019-05-31T13:11:12Z</time>
      </trkpt>
      <trkpt lat="44.08794" lon="3.14499">
        <ele>741.2</ele>
        <time>2019-05-31T13:11:13Z</time>
      </trkpt>
      <trkpt lat="44.08797" lon="3.14496">
        <ele>741.2</ele>
        <time>2019-05-31T13:11:14Z</time>
      </trkpt>
      <trkpt lat="44.088" lon="3.14494">
        <ele>741.2</ele>
        <time>2019-05-31T13:11:15Z</time>
      </trkpt>
      <trkpt lat="44.08803" lon="3.1449">
        <ele>741.2</ele>
        <time>2019-05-31T13:11:16Z</time>
      </trkpt>
      <trkpt lat="44.08807" lon="3.14487">
        <ele>741.2</ele>
        <time>2019-05-31T13:11:17Z</time>
      </trkpt>
      <trkpt lat="44.08809" lon="3.14485">
        <ele>741.1</ele>
        <time>2019-05-31T13:11:18Z</time>
      </trkpt>
      <trkpt lat="44.08813" lon="3.14484">
        <ele>741.1</ele>
        <time>2019-05-31T13:11:19Z</time>
      </trkpt>
      <trkpt lat="44.08818" lon="3.14479">
        <ele>741.1</ele>
        <time>2019-05-31T13:11:20Z</time>
      </trkpt>
      <trkpt lat="44.08821" lon="3.14478">
        <ele>741</ele>
        <time>2019-05-31T13:11:21Z</time>
      </trkpt>
      <trkpt lat="44.08824" lon="3.14475">
        <ele>741</ele>
        <time>2019-05-31T13:11:22Z</time>
      </trkpt>
      <trkpt lat="44.08826" lon="3.14475">
        <ele>741</ele>
        <time>2019-05-31T13:11:23Z</time>
      </trkpt>
      <trkpt lat="44.08831" lon="3.1447">
        <ele>740.9</ele>
        <time>2019-05-31T13:11:24Z</time>
      </trkpt>
      <trkpt lat="44.08836" lon="3.14466">
        <ele>740.8</ele>
        <time>2019-05-31T13:11:25Z</time>
      </trkpt>
      <trkpt lat="44.0884" lon="3.14463">
        <ele>740.7</ele>
        <time>2019-05-31T13:11:26Z</time>
      </trkpt>
      <trkpt lat="44.08843" lon="3.14461">
        <ele>740.6</ele>
        <time>2019-05-31T13:11:27Z</time>
      </trkpt>
      <trkpt lat="44.08845" lon="3.1446">
        <ele>740.6</ele>
        <time>2019-05-31T13:11:28Z</time>
      </trkpt>
      <trkpt lat="44.08849" lon="3.14459">
        <ele>740.5</ele>
        <time>2019-05-31T13:11:29Z</time>
      </trkpt>
      <trkpt lat="44.08852" lon="3.14457">
        <ele>740.4</ele>
        <time>2019-05-31T13:11:30Z</time>
      </trkpt>
      <trkpt lat="44.08856" lon="3.14456">
        <ele>740.2</ele>
        <time>2019-05-31T13:11:31Z</time>
      </trkpt>
      <trkpt lat="44.0886" lon="3.14454">
        <ele>740.1</ele>
        <time>2019-05-31T13:11:32Z</time>
      </trkpt>
      <trkpt lat="44.08864" lon="3.14452">
        <ele>739.9</ele>
        <time>2019-05-31T13:11:33Z</time>
      </trkpt>
      <trkpt lat="44.08869" lon="3.14448">
        <ele>739.7</ele>
        <time>2019-05-31T13:11:34Z</time>
      </trkpt>
      <trkpt lat="44.08873" lon="3.14447">
        <ele>739.5</ele>
        <time>2019-05-31T13:11:35Z</time>
      </trkpt>
      <trkpt lat="44.08877" lon="3.14441">
        <ele>739.2</ele>
        <time>2019-05-31T13:11:36Z</time>
      </trkpt>
      <trkpt lat="44.08881" lon="3.1444">
        <ele>739.1</ele>
        <time>2019-05-31T13:11:37Z</time>
      </trkpt>
      <trkpt lat="44.08885" lon="3.14439">
        <ele>738.9</ele>
        <time>2019-05-31T13:11:38Z</time>
      </trkpt>
      <trkpt lat="44.08892" lon="3.14436">
        <ele>738.6</ele>
        <time>2019-05-31T13:11:39Z</time>
      </trkpt>
      <trkpt lat="44.08899" lon="3.14435">
        <ele>738.4</ele>
        <time>2019-05-31T13:11:40Z</time>
      </trkpt>
      <trkpt lat="44.08906" lon="3.14433">
        <ele>738.2</ele>
        <time>2019-05-31T13:11:41Z</time>
      </trkpt>
      <trkpt lat="44.08912" lon="3.14431">
        <ele>738</ele>
        <time>2019-05-31T13:11:42Z</time>
      </trkpt>
      <trkpt lat="44.08918" lon="3.14428">
        <ele>737.8</ele>
        <time>2019-05-31T13:11:43Z</time>
      </trkpt>
      <trkpt lat="44.08923" lon="3.14426">
        <ele>737.7</ele>
        <time>2019-05-31T13:11:44Z</time>
      </trkpt>
      <trkpt lat="44.08931" lon="3.14425">
        <ele>737.4</ele>
        <time>2019-05-31T13:11:45Z</time>
      </trkpt>
      <trkpt lat="44.08937" lon="3.14423">
        <ele>737.3</ele>
        <time>2019-05-31T13:11:46Z</time>
      </trkpt>
      <trkpt lat="44.08944" lon="3.14422">
        <ele>737.1</ele>
        <time>2019-05-31T13:11:47Z</time>
      </trkpt>
      <trkpt lat="44.08949" lon="3.14421">
        <ele>737</ele>
        <time>2019-05-31T13:11:48Z</time>
      </trkpt>
      <trkpt lat="44.08956" lon="3.14418">
        <ele>736.8</ele>
        <time>2019-05-31T13:11:49Z</time>
      </trkpt>
      <trkpt lat="44.08963" lon="3.14414">
        <ele>736.7</ele>
        <time>2019-05-31T13:11:50Z</time>
      </trkpt>
      <trkpt lat="44.08971" lon="3.14411">
        <ele>736.6</ele>
        <time>2019-05-31T13:11:51Z</time>
      </trkpt>
      <trkpt lat="44.08978" lon="3.1441">
        <ele>736.6</ele>
        <time>2019-05-31T13:11:52Z</time>
      </trkpt>
      <trkpt lat="44.08984" lon="3.14407">
        <ele>736.6</ele>
        <time>2019-05-31T13:11:53Z</time>
      </trkpt>
      <trkpt lat="44.08993" lon="3.14404">
        <ele>736.6</ele>
        <time>2019-05-31T13:11:54Z</time>
      </trkpt>
      <trkpt lat="44.08999" lon="3.144">
        <ele>736.6</ele>
        <time>2019-05-31T13:11:55Z</time>
      </trkpt>
      <trkpt lat="44.09007" lon="3.14397">
        <ele>736.6</ele>
        <time>2019-05-31T13:11:56Z</time>
      </trkpt>
      <trkpt lat="44.09014" lon="3.14392">
        <ele>736.6</ele>
        <time>2019-05-31T13:11:57Z</time>
      </trkpt>
      <trkpt lat="44.09023" lon="3.14389">
        <ele>736.7</ele>
        <time>2019-05-31T13:11:58Z</time>
      </trkpt>
      <trkpt lat="44.0903" lon="3.14384">
        <ele>736.6</ele>
        <time>2019-05-31T13:11:59Z</time>
      </trkpt>
      <trkpt lat="44.09036" lon="3.1438">
        <ele>736.6</ele>
        <time>2019-05-31T13:12:00Z</time>
      </trkpt>
      <trkpt lat="44.09042" lon="3.14374">
        <ele>736.6</ele>
        <time>2019-05-31T13:12:01Z</time>
      </trkpt>
      <trkpt lat="44.09047" lon="3.1437">
        <ele>736.6</ele>
        <time>2019-05-31T13:12:02Z</time>
      </trkpt>
      <trkpt lat="44.09052" lon="3.14365">
        <ele>736.6</ele>
        <time>2019-05-31T13:12:03Z</time>
      </trkpt>
      <trkpt lat="44.09056" lon="3.14361">
        <ele>736.5</ele>
        <time>2019-05-31T13:12:04Z</time>
      </trkpt>
      <trkpt lat="44.09062" lon="3.14357">
        <ele>736.5</ele>
        <time>2019-05-31T13:12:05Z</time>
      </trkpt>
      <trkpt lat="44.09064" lon="3.14355">
        <ele>736.5</ele>
        <time>2019-05-31T13:12:06Z</time>
      </trkpt>
      <trkpt lat="44.09069" lon="3.14354">
        <ele>736.5</ele>
        <time>2019-05-31T13:12:07Z</time>
      </trkpt>
      <trkpt lat="44.09074" lon="3.14349">
        <ele>735.8</ele>
        <time>2019-05-31T13:12:08Z</time>
      </trkpt>
      <trkpt lat="44.09077" lon="3.14347">
        <ele>735.8</ele>
        <time>2019-05-31T13:12:09Z</time>
      </trkpt>
      <trkpt lat="44.0908" lon="3.14345">
        <ele>735.7</ele>
        <time>2019-05-31T13:12:10Z</time>
      </trkpt>
      <trkpt lat="44.09083" lon="3.14341">
        <ele>735.7</ele>
        <time>2019-05-31T13:12:11Z</time>
      </trkpt>
      <trkpt lat="44.09086" lon="3.14338">
        <ele>735.8</ele>
        <time>2019-05-31T13:12:12Z</time>
      </trkpt>
      <trkpt lat="44.09089" lon="3.14335">
        <ele>735.9</ele>
        <time>2019-05-31T13:12:13Z</time>
      </trkpt>
      <trkpt lat="44.09092" lon="3.14332">
        <ele>735.9</ele>
        <time>2019-05-31T13:12:14Z</time>
      </trkpt>
      <trkpt lat="44.09094" lon="3.14329">
        <ele>735.8</ele>
        <time>2019-05-31T13:12:15Z</time>
      </trkpt>
      <trkpt lat="44.09096" lon="3.14324">
        <ele>735.8</ele>
        <time>2019-05-31T13:12:16Z</time>
      </trkpt>
      <trkpt lat="44.09098" lon="3.14319">
        <ele>735.8</ele>
        <time>2019-05-31T13:12:17Z</time>
      </trkpt>
      <trkpt lat="44.091" lon="3.14315">
        <ele>735.9</ele>
        <time>2019-05-31T13:12:18Z</time>
      </trkpt>
      <trkpt lat="44.09102" lon="3.14311">
        <ele>736</ele>
        <time>2019-05-31T13:12:19Z</time>
      </trkpt>
      <trkpt lat="44.09104" lon="3.14306">
        <ele>736.1</ele>
        <time>2019-05-31T13:12:20Z</time>
      </trkpt>
      <trkpt lat="44.09105" lon="3.14302">
        <ele>736.2</ele>
        <time>2019-05-31T13:12:21Z</time>
      </trkpt>
      <trkpt lat="44.09106" lon="3.14298">
        <ele>736.3</ele>
        <time>2019-05-31T13:12:22Z</time>
      </trkpt>
      <trkpt lat="44.09106" lon="3.14291">
        <ele>736.4</ele>
        <time>2019-05-31T13:12:24Z</time>
      </trkpt>
      <trkpt lat="44.09103" lon="3.14285">
        <ele>736.2</ele>
        <time>2019-05-31T13:12:26Z</time>
      </trkpt>
      <trkpt lat="44.09101" lon="3.14281">
        <ele>736.1</ele>
        <time>2019-05-31T13:12:27Z</time>
      </trkpt>
      <trkpt lat="44.09099" lon="3.14277">
        <ele>736.1</ele>
        <time>2019-05-31T13:12:28Z</time>
      </trkpt>
      <trkpt lat="44.09098" lon="3.14274">
        <ele>736.2</ele>
        <time>2019-05-31T13:12:29Z</time>
      </trkpt>
      <trkpt lat="44.09097" lon="3.1427">
        <ele>736.2</ele>
        <time>2019-05-31T13:12:30Z</time>
      </trkpt>
      <trkpt lat="44.09097" lon="3.14266">
        <ele>736.2</ele>
        <time>2019-05-31T13:12:31Z</time>
      </trkpt>
      <trkpt lat="44.09096" lon="3.14259">
        <ele>736.3</ele>
        <time>2019-05-31T13:12:33Z</time>
      </trkpt>
      <trkpt lat="44.09096" lon="3.14252">
        <ele>736.4</ele>
        <time>2019-05-31T13:12:35Z</time>
      </trkpt>
      <trkpt lat="44.09096" lon="3.14248">
        <ele>736.4</ele>
        <time>2019-05-31T13:12:37Z</time>
      </trkpt>
      <trkpt lat="44.09099" lon="3.14246">
        <ele>736.4</ele>
        <time>2019-05-31T13:12:42Z</time>
      </trkpt>
      <trkpt lat="44.09101" lon="3.14242">
        <ele>736.4</ele>
        <time>2019-05-31T13:12:45Z</time>
      </trkpt>
      <trkpt lat="44.09098" lon="3.14243">
        <ele>736.3</ele>
        <time>2019-05-31T13:13:14Z</time>
      </trkpt>
      <trkpt lat="44.09098" lon="3.14246">
        <ele>736.3</ele>
        <time>2019-05-31T13:13:16Z</time>
      </trkpt>
      <trkpt lat="44.091" lon="3.1425">
        <ele>736.3</ele>
        <time>2019-05-31T13:13:19Z</time>
      </trkpt>
      <trkpt lat="44.09104" lon="3.14251">
        <ele>736.3</ele>
        <time>2019-05-31T13:13:21Z</time>
      </trkpt>
      <trkpt lat="44.09107" lon="3.14251">
        <ele>736.3</ele>
        <time>2019-05-31T13:13:24Z</time>
      </trkpt>
      <trkpt lat="44.0911" lon="3.1425">
        <ele>736.3</ele>
        <time>2019-05-31T13:13:27Z</time>
      </trkpt>
      <trkpt lat="44.09112" lon="3.14252">
        <ele>736.3</ele>
        <time>2019-05-31T13:13:32Z</time>
      </trkpt>
      <trkpt lat="44.09114" lon="3.14248">
        <ele>736.2</ele>
        <time>2019-05-31T13:13:34Z</time>
      </trkpt>
      <trkpt lat="44.09113" lon="3.14244">
        <ele>736.2</ele>
        <time>2019-05-31T13:13:36Z</time>
      </trkpt>
      <trkpt lat="44.09114" lon="3.1424">
        <ele>736.1</ele>
        <time>2019-05-31T13:13:39Z</time>
      </trkpt>
      <trkpt lat="44.09116" lon="3.14236">
        <ele>736.1</ele>
        <time>2019-05-31T13:13:41Z</time>
      </trkpt>
      <trkpt lat="44.09118" lon="3.14232">
        <ele>736</ele>
        <time>2019-05-31T13:13:43Z</time>
      </trkpt>
      <trkpt lat="44.09121" lon="3.14231">
        <ele>736</ele>
        <time>2019-05-31T13:13:45Z</time>
      </trkpt>
      <trkpt lat="44.09123" lon="3.14234">
        <ele>735.9</ele>
        <time>2019-05-31T13:13:48Z</time>
      </trkpt>
      <trkpt lat="44.09119" lon="3.14228">
        <ele>735.8</ele>
        <time>2019-05-31T13:14:31Z</time>
      </trkpt>
      <trkpt lat="44.09117" lon="3.14224">
        <ele>735.8</ele>
        <time>2019-05-31T13:14:34Z</time>
      </trkpt>
      <trkpt lat="44.09118" lon="3.14219">
        <ele>735.7</ele>
        <time>2019-05-31T13:14:38Z</time>
      </trkpt>
      <trkpt lat="44.09119" lon="3.14215">
        <ele>735.7</ele>
        <time>2019-05-31T13:14:40Z</time>
      </trkpt>
      <trkpt lat="44.09121" lon="3.1421">
        <ele>735.6</ele>
        <time>2019-05-31T13:14:42Z</time>
      </trkpt>
      <trkpt lat="44.09123" lon="3.14204">
        <ele>735.5</ele>
        <time>2019-05-31T13:14:44Z</time>
      </trkpt>
      <trkpt lat="44.09125" lon="3.14199">
        <ele>735.5</ele>
        <time>2019-05-31T13:14:46Z</time>
      </trkpt>
      <trkpt lat="44.09128" lon="3.14195">
        <ele>735.4</ele>
        <time>2019-05-31T13:14:48Z</time>
      </trkpt>
      <trkpt lat="44.09132" lon="3.1419">
        <ele>735.4</ele>
        <time>2019-05-31T13:14:50Z</time>
      </trkpt>
      <trkpt lat="44.0913" lon="3.14192">
        <ele>735.4</ele>
        <time>2019-05-31T13:15:17Z</time>
      </trkpt>
      <trkpt lat="44.09128" lon="3.14197">
        <ele>735.4</ele>
        <time>2019-05-31T13:15:20Z</time>
      </trkpt>
      <trkpt lat="44.09126" lon="3.142">
        <ele>735.4</ele>
        <time>2019-05-31T13:15:23Z</time>
      </trkpt>
      <trkpt lat="44.09125" lon="3.14204">
        <ele>735.4</ele>
        <time>2019-05-31T13:15:28Z</time>
      </trkpt>
      <trkpt lat="44.09123" lon="3.14207">
        <ele>735.4</ele>
        <time>2019-05-31T13:15:30Z</time>
      </trkpt>
      <trkpt lat="44.09122" lon="3.14213">
        <ele>735.3</ele>
        <time>2019-05-31T13:15:32Z</time>
      </trkpt>
      <trkpt lat="44.09121" lon="3.14219">
        <ele>735.3</ele>
        <time>2019-05-31T13:15:34Z</time>
      </trkpt>
      <trkpt lat="44.09121" lon="3.14224">
        <ele>735.2</ele>
        <time>2019-05-31T13:15:36Z</time>
      </trkpt>
      <trkpt lat="44.09124" lon="3.14229">
        <ele>735.1</ele>
        <time>2019-05-31T13:15:38Z</time>
      </trkpt>
      <trkpt lat="44.09126" lon="3.14233">
        <ele>735.1</ele>
        <time>2019-05-31T13:15:43Z</time>
      </trkpt>
      <trkpt lat="44.09129" lon="3.14233">
        <ele>735</ele>
        <time>2019-05-31T13:15:49Z</time>
      </trkpt>
      <trkpt lat="44.0913" lon="3.1423">
        <ele>734.9</ele>
        <time>2019-05-31T13:15:54Z</time>
      </trkpt>
      <trkpt lat="44.09132" lon="3.14229">
        <ele>734.9</ele>
        <time>2019-05-31T13:16:44Z</time>
      </trkpt>
      <trkpt lat="44.09134" lon="3.14226">
        <ele>734.9</ele>
        <time>2019-05-31T13:16:48Z</time>
      </trkpt>
      <trkpt lat="44.09138" lon="3.14223">
        <ele>734.8</ele>
        <time>2019-05-31T13:16:50Z</time>
      </trkpt>
      <trkpt lat="44.09141" lon="3.1422">
        <ele>734.7</ele>
        <time>2019-05-31T13:16:52Z</time>
      </trkpt>
      <trkpt lat="44.09144" lon="3.14218">
        <ele>734.6</ele>
        <time>2019-05-31T13:16:54Z</time>
      </trkpt>
      <trkpt lat="44.09147" lon="3.14216">
        <ele>734.5</ele>
        <time>2019-05-31T13:16:56Z</time>
      </trkpt>
      <trkpt lat="44.0915" lon="3.14214">
        <ele>734.5</ele>
        <time>2019-05-31T13:16:57Z</time>
      </trkpt>
      <trkpt lat="44.09152" lon="3.14212">
        <ele>734.5</ele>
        <time>2019-05-31T13:16:58Z</time>
      </trkpt>
      <trkpt lat="44.09156" lon="3.14208">
        <ele>734.4</ele>
        <time>2019-05-31T13:17:00Z</time>
      </trkpt>
      <trkpt lat="44.0916" lon="3.14204">
        <ele>734.4</ele>
        <time>2019-05-31T13:17:02Z</time>
      </trkpt>
      <trkpt lat="44.09163" lon="3.14199">
        <ele>734.4</ele>
        <time>2019-05-31T13:17:04Z</time>
      </trkpt>
      <trkpt lat="44.09167" lon="3.14195">
        <ele>734.3</ele>
        <time>2019-05-31T13:17:06Z</time>
      </trkpt>
      <trkpt lat="44.0917" lon="3.14191">
        <ele>734.3</ele>
        <time>2019-05-31T13:17:08Z</time>
      </trkpt>
      <trkpt lat="44.09173" lon="3.14187">
        <ele>734.3</ele>
        <time>2019-05-31T13:17:10Z</time>
      </trkpt>
      <trkpt lat="44.09176" lon="3.14185">
        <ele>734.2</ele>
        <time>2019-05-31T13:17:11Z</time>
      </trkpt>
      <trkpt lat="44.09179" lon="3.14184">
        <ele>734.2</ele>
        <time>2019-05-31T13:17:12Z</time>
      </trkpt>
      <trkpt lat="44.09182" lon="3.14183">
        <ele>734.2</ele>
        <time>2019-05-31T13:17:13Z</time>
      </trkpt>
      <trkpt lat="44.09186" lon="3.1418">
        <ele>734.2</ele>
        <time>2019-05-31T13:17:15Z</time>
      </trkpt>
      <trkpt lat="44.09189" lon="3.14174">
        <ele>734.1</ele>
        <time>2019-05-31T13:17:17Z</time>
      </trkpt>
      <trkpt lat="44.09192" lon="3.14167">
        <ele>734.1</ele>
        <time>2019-05-31T13:17:19Z</time>
      </trkpt>
      <trkpt lat="44.09194" lon="3.14163">
        <ele>734.1</ele>
        <time>2019-05-31T13:17:20Z</time>
      </trkpt>
      <trkpt lat="44.09195" lon="3.14159">
        <ele>734.2</ele>
        <time>2019-05-31T13:17:21Z</time>
      </trkpt>
      <trkpt lat="44.09197" lon="3.14155">
        <ele>734.2</ele>
        <time>2019-05-31T13:17:22Z</time>
      </trkpt>
      <trkpt lat="44.09198" lon="3.14151">
        <ele>734.2</ele>
        <time>2019-05-31T13:17:23Z</time>
      </trkpt>
      <trkpt lat="44.092" lon="3.14148">
        <ele>734.3</ele>
        <time>2019-05-31T13:17:24Z</time>
      </trkpt>
      <trkpt lat="44.09203" lon="3.14143">
        <ele>734.4</ele>
        <time>2019-05-31T13:17:26Z</time>
      </trkpt>
      <trkpt lat="44.09207" lon="3.1414">
        <ele>734.4</ele>
        <time>2019-05-31T13:17:28Z</time>
      </trkpt>
      <trkpt lat="44.09211" lon="3.14139">
        <ele>734.4</ele>
        <time>2019-05-31T13:17:29Z</time>
      </trkpt>
      <trkpt lat="44.09214" lon="3.14137">
        <ele>734.4</ele>
        <time>2019-05-31T13:17:30Z</time>
      </trkpt>
      <trkpt lat="44.09218" lon="3.14137">
        <ele>734.4</ele>
        <time>2019-05-31T13:17:31Z</time>
      </trkpt>
      <trkpt lat="44.09221" lon="3.14136">
        <ele>734.5</ele>
        <time>2019-05-31T13:17:32Z</time>
      </trkpt>
      <trkpt lat="44.09225" lon="3.14133">
        <ele>734.5</ele>
        <time>2019-05-31T13:17:34Z</time>
      </trkpt>
      <trkpt lat="44.0923" lon="3.14129">
        <ele>734.6</ele>
        <time>2019-05-31T13:17:36Z</time>
      </trkpt>
      <trkpt lat="44.09234" lon="3.14126">
        <ele>734.7</ele>
        <time>2019-05-31T13:17:37Z</time>
      </trkpt>
      <trkpt lat="44.09237" lon="3.14124">
        <ele>734.7</ele>
        <time>2019-05-31T13:17:38Z</time>
      </trkpt>
      <trkpt lat="44.0924" lon="3.14121">
        <ele>734.8</ele>
        <time>2019-05-31T13:17:39Z</time>
      </trkpt>
      <trkpt lat="44.09243" lon="3.14118">
        <ele>734.8</ele>
        <time>2019-05-31T13:17:40Z</time>
      </trkpt>
      <trkpt lat="44.09246" lon="3.14115">
        <ele>734.9</ele>
        <time>2019-05-31T13:17:41Z</time>
      </trkpt>
      <trkpt lat="44.09248" lon="3.14112">
        <ele>735</ele>
        <time>2019-05-31T13:17:42Z</time>
      </trkpt>
      <trkpt lat="44.09251" lon="3.14107">
        <ele>735</ele>
        <time>2019-05-31T13:17:43Z</time>
      </trkpt>
      <trkpt lat="44.09253" lon="3.14103">
        <ele>735</ele>
        <time>2019-05-31T13:17:44Z</time>
      </trkpt>
      <trkpt lat="44.09256" lon="3.14099">
        <ele>735</ele>
        <time>2019-05-31T13:17:45Z</time>
      </trkpt>
      <trkpt lat="44.09258" lon="3.14097">
        <ele>734.9</ele>
        <time>2019-05-31T13:17:46Z</time>
      </trkpt>
      <trkpt lat="44.09261" lon="3.14094">
        <ele>734.9</ele>
        <time>2019-05-31T13:17:47Z</time>
      </trkpt>
      <trkpt lat="44.09265" lon="3.14093">
        <ele>734.9</ele>
        <time>2019-05-31T13:17:48Z</time>
      </trkpt>
      <trkpt lat="44.09269" lon="3.14092">
        <ele>734.9</ele>
        <time>2019-05-31T13:17:49Z</time>
      </trkpt>
      <trkpt lat="44.09275" lon="3.14092">
        <ele>734.9</ele>
        <time>2019-05-31T13:17:50Z</time>
      </trkpt>
      <trkpt lat="44.09278" lon="3.1409">
        <ele>734.9</ele>
        <time>2019-05-31T13:17:51Z</time>
      </trkpt>
      <trkpt lat="44.09281" lon="3.14087">
        <ele>735</ele>
        <time>2019-05-31T13:17:52Z</time>
      </trkpt>
      <trkpt lat="44.09285" lon="3.14084">
        <ele>735</ele>
        <time>2019-05-31T13:17:53Z</time>
      </trkpt>
      <trkpt lat="44.09289" lon="3.14083">
        <ele>735</ele>
        <time>2019-05-31T13:17:54Z</time>
      </trkpt>
      <trkpt lat="44.09292" lon="3.14081">
        <ele>735</ele>
        <time>2019-05-31T13:17:55Z</time>
      </trkpt>
      <trkpt lat="44.09294" lon="3.14078">
        <ele>735</ele>
        <time>2019-05-31T13:17:56Z</time>
      </trkpt>
      <trkpt lat="44.09297" lon="3.14076">
        <ele>735</ele>
        <time>2019-05-31T13:17:57Z</time>
      </trkpt>
      <trkpt lat="44.09299" lon="3.14075">
        <ele>735</ele>
        <time>2019-05-31T13:17:58Z</time>
      </trkpt>
      <trkpt lat="44.09304" lon="3.14073">
        <ele>735</ele>
        <time>2019-05-31T13:18:00Z</time>
      </trkpt>
      <trkpt lat="44.09306" lon="3.14073">
        <ele>735</ele>
        <time>2019-05-31T13:18:01Z</time>
      </trkpt>
      <trkpt lat="44.09309" lon="3.14075">
        <ele>735.1</ele>
        <time>2019-05-31T13:18:02Z</time>
      </trkpt>
      <trkpt lat="44.09312" lon="3.14075">
        <ele>735.1</ele>
        <time>2019-05-31T13:18:03Z</time>
      </trkpt>
      <trkpt lat="44.09316" lon="3.14076">
        <ele>735.1</ele>
        <time>2019-05-31T13:18:04Z</time>
      </trkpt>
      <trkpt lat="44.09319" lon="3.14076">
        <ele>735.1</ele>
        <time>2019-05-31T13:18:05Z</time>
      </trkpt>
      <trkpt lat="44.09323" lon="3.14076">
        <ele>735.1</ele>
        <time>2019-05-31T13:18:07Z</time>
      </trkpt>
      <trkpt lat="44.09326" lon="3.14077">
        <ele>735.1</ele>
        <time>2019-05-31T13:18:08Z</time>
      </trkpt>
      <trkpt lat="44.09329" lon="3.14078">
        <ele>735</ele>
        <time>2019-05-31T13:18:09Z</time>
      </trkpt>
      <trkpt lat="44.09332" lon="3.14078">
        <ele>735</ele>
        <time>2019-05-31T13:18:10Z</time>
      </trkpt>
      <trkpt lat="44.09335" lon="3.14078">
        <ele>735</ele>
        <time>2019-05-31T13:18:11Z</time>
      </trkpt>
      <trkpt lat="44.09338" lon="3.14078">
        <ele>734.9</ele>
        <time>2019-05-31T13:18:12Z</time>
      </trkpt>
      <trkpt lat="44.09341" lon="3.14078">
        <ele>734.9</ele>
        <time>2019-05-31T13:18:13Z</time>
      </trkpt>
      <trkpt lat="44.09345" lon="3.14077">
        <ele>734.8</ele>
        <time>2019-05-31T13:18:14Z</time>
      </trkpt>
      <trkpt lat="44.09348" lon="3.14077">
        <ele>734.7</ele>
        <time>2019-05-31T13:18:15Z</time>
      </trkpt>
      <trkpt lat="44.09351" lon="3.14077">
        <ele>734.7</ele>
        <time>2019-05-31T13:18:16Z</time>
      </trkpt>
      <trkpt lat="44.09355" lon="3.14077">
        <ele>734.6</ele>
        <time>2019-05-31T13:18:17Z</time>
      </trkpt>
      <trkpt lat="44.09359" lon="3.14077">
        <ele>734.5</ele>
        <time>2019-05-31T13:18:18Z</time>
      </trkpt>
      <trkpt lat="44.09362" lon="3.14077">
        <ele>734.4</ele>
        <time>2019-05-31T13:18:19Z</time>
      </trkpt>
      <trkpt lat="44.09366" lon="3.14078">
        <ele>734.3</ele>
        <time>2019-05-31T13:18:20Z</time>
      </trkpt>
      <trkpt lat="44.09369" lon="3.14078">
        <ele>734.2</ele>
        <time>2019-05-31T13:18:21Z</time>
      </trkpt>
      <trkpt lat="44.09373" lon="3.14079">
        <ele>734.1</ele>
        <time>2019-05-31T13:18:22Z</time>
      </trkpt>
      <trkpt lat="44.09376" lon="3.1408">
        <ele>734</ele>
        <time>2019-05-31T13:18:23Z</time>
      </trkpt>
      <trkpt lat="44.09379" lon="3.14081">
        <ele>733.9</ele>
        <time>2019-05-31T13:18:24Z</time>
      </trkpt>
      <trkpt lat="44.09383" lon="3.14082">
        <ele>733.8</ele>
        <time>2019-05-31T13:18:25Z</time>
      </trkpt>
      <trkpt lat="44.09386" lon="3.14084">
        <ele>733.7</ele>
        <time>2019-05-31T13:18:26Z</time>
      </trkpt>
      <trkpt lat="44.09389" lon="3.14085">
        <ele>733.6</ele>
        <time>2019-05-31T13:18:27Z</time>
      </trkpt>
      <trkpt lat="44.09393" lon="3.14087">
        <ele>733.5</ele>
        <time>2019-05-31T13:18:28Z</time>
      </trkpt>
      <trkpt lat="44.09396" lon="3.14088">
        <ele>733.4</ele>
        <time>2019-05-31T13:18:29Z</time>
      </trkpt>
      <trkpt lat="44.09399" lon="3.1409">
        <ele>733.3</ele>
        <time>2019-05-31T13:18:30Z</time>
      </trkpt>
      <trkpt lat="44.09402" lon="3.14093">
        <ele>733.2</ele>
        <time>2019-05-31T13:18:31Z</time>
      </trkpt>
      <trkpt lat="44.09405" lon="3.14096">
        <ele>733</ele>
        <time>2019-05-31T13:18:32Z</time>
      </trkpt>
      <trkpt lat="44.09408" lon="3.14099">
        <ele>732.9</ele>
        <time>2019-05-31T13:18:33Z</time>
      </trkpt>
      <trkpt lat="44.09411" lon="3.14103">
        <ele>732.7</ele>
        <time>2019-05-31T13:18:34Z</time>
      </trkpt>
      <trkpt lat="44.09416" lon="3.14105">
        <ele>732.5</ele>
        <time>2019-05-31T13:18:35Z</time>
      </trkpt>
      <trkpt lat="44.09419" lon="3.14109">
        <ele>732.4</ele>
        <time>2019-05-31T13:18:36Z</time>
      </trkpt>
      <trkpt lat="44.09423" lon="3.14113">
        <ele>732.2</ele>
        <time>2019-05-31T13:18:37Z</time>
      </trkpt>
      <trkpt lat="44.09428" lon="3.14117">
        <ele>732</ele>
        <time>2019-05-31T13:18:38Z</time>
      </trkpt>
      <trkpt lat="44.09431" lon="3.1412">
        <ele>731.9</ele>
        <time>2019-05-31T13:18:39Z</time>
      </trkpt>
      <trkpt lat="44.09437" lon="3.14122">
        <ele>731.8</ele>
        <time>2019-05-31T13:18:40Z</time>
      </trkpt>
      <trkpt lat="44.09442" lon="3.14125">
        <ele>731.6</ele>
        <time>2019-05-31T13:18:41Z</time>
      </trkpt>
      <trkpt lat="44.09447" lon="3.14128">
        <ele>731.3</ele>
        <time>2019-05-31T13:18:42Z</time>
      </trkpt>
      <trkpt lat="44.09452" lon="3.1413">
        <ele>730.9</ele>
        <time>2019-05-31T13:18:43Z</time>
      </trkpt>
      <trkpt lat="44.09458" lon="3.14132">
        <ele>730.6</ele>
        <time>2019-05-31T13:18:44Z</time>
      </trkpt>
      <trkpt lat="44.09464" lon="3.14134">
        <ele>730.2</ele>
        <time>2019-05-31T13:18:45Z</time>
      </trkpt>
      <trkpt lat="44.09469" lon="3.14137">
        <ele>729.7</ele>
        <time>2019-05-31T13:18:46Z</time>
      </trkpt>
      <trkpt lat="44.09475" lon="3.14139">
        <ele>729.3</ele>
        <time>2019-05-31T13:18:47Z</time>
      </trkpt>
      <trkpt lat="44.0948" lon="3.14143">
        <ele>728.7</ele>
        <time>2019-05-31T13:18:48Z</time>
      </trkpt>
      <trkpt lat="44.09485" lon="3.14149">
        <ele>728.2</ele>
        <time>2019-05-31T13:18:49Z</time>
      </trkpt>
      <trkpt lat="44.09489" lon="3.14155">
        <ele>727.8</ele>
        <time>2019-05-31T13:18:50Z</time>
      </trkpt>
      <trkpt lat="44.09491" lon="3.14163">
        <ele>727.2</ele>
        <time>2019-05-31T13:18:51Z</time>
      </trkpt>
      <trkpt lat="44.09495" lon="3.14169">
        <ele>726.7</ele>
        <time>2019-05-31T13:18:52Z</time>
      </trkpt>
      <trkpt lat="44.09501" lon="3.14177">
        <ele>726.1</ele>
        <time>2019-05-31T13:18:53Z</time>
      </trkpt>
      <trkpt lat="44.09505" lon="3.14183">
        <ele>725.6</ele>
        <time>2019-05-31T13:18:54Z</time>
      </trkpt>
      <trkpt lat="44.09511" lon="3.14189">
        <ele>725.1</ele>
        <time>2019-05-31T13:18:55Z</time>
      </trkpt>
      <trkpt lat="44.09519" lon="3.14193">
        <ele>724.6</ele>
        <time>2019-05-31T13:18:56Z</time>
      </trkpt>
      <trkpt lat="44.09526" lon="3.14197">
        <ele>724.1</ele>
        <time>2019-05-31T13:18:57Z</time>
      </trkpt>
      <trkpt lat="44.09533" lon="3.14204">
        <ele>723.6</ele>
        <time>2019-05-31T13:18:58Z</time>
      </trkpt>
      <trkpt lat="44.0954" lon="3.14209">
        <ele>723.3</ele>
        <time>2019-05-31T13:18:59Z</time>
      </trkpt>
      <trkpt lat="44.09547" lon="3.14213">
        <ele>723</ele>
        <time>2019-05-31T13:19:00Z</time>
      </trkpt>
      <trkpt lat="44.09554" lon="3.14216">
        <ele>722.8</ele>
        <time>2019-05-31T13:19:01Z</time>
      </trkpt>
      <trkpt lat="44.09562" lon="3.14218">
        <ele>723.2</ele>
        <time>2019-05-31T13:19:02Z</time>
      </trkpt>
      <trkpt lat="44.0957" lon="3.14214">
        <ele>723.5</ele>
        <time>2019-05-31T13:19:03Z</time>
      </trkpt>
      <trkpt lat="44.09577" lon="3.14211">
        <ele>723.8</ele>
        <time>2019-05-31T13:19:04Z</time>
      </trkpt>
      <trkpt lat="44.09584" lon="3.1421">
        <ele>724</ele>
        <time>2019-05-31T13:19:05Z</time>
      </trkpt>
      <trkpt lat="44.09591" lon="3.14209">
        <ele>724.2</ele>
        <time>2019-05-31T13:19:06Z</time>
      </trkpt>
      <trkpt lat="44.09599" lon="3.14207">
        <ele>724.4</ele>
        <time>2019-05-31T13:19:07Z</time>
      </trkpt>
      <trkpt lat="44.09605" lon="3.14206">
        <ele>724.6</ele>
        <time>2019-05-31T13:19:08Z</time>
      </trkpt>
      <trkpt lat="44.09612" lon="3.14206">
        <ele>724.8</ele>
        <time>2019-05-31T13:19:09Z</time>
      </trkpt>
      <trkpt lat="44.09619" lon="3.14206">
        <ele>725</ele>
        <time>2019-05-31T13:19:10Z</time>
      </trkpt>
      <trkpt lat="44.09626" lon="3.14207">
        <ele>725.1</ele>
        <time>2019-05-31T13:19:11Z</time>
      </trkpt>
      <trkpt lat="44.09631" lon="3.14208">
        <ele>725.2</ele>
        <time>2019-05-31T13:19:12Z</time>
      </trkpt>
      <trkpt lat="44.09637" lon="3.14209">
        <ele>725.3</ele>
        <time>2019-05-31T13:19:13Z</time>
      </trkpt>
      <trkpt lat="44.09642" lon="3.1421">
        <ele>725.3</ele>
        <time>2019-05-31T13:19:14Z</time>
      </trkpt>
      <trkpt lat="44.09647" lon="3.14211">
        <ele>725.4</ele>
        <time>2019-05-31T13:19:15Z</time>
      </trkpt>
      <trkpt lat="44.09652" lon="3.14212">
        <ele>725.5</ele>
        <time>2019-05-31T13:19:16Z</time>
      </trkpt>
      <trkpt lat="44.09657" lon="3.14211">
        <ele>725.7</ele>
        <time>2019-05-31T13:19:17Z</time>
      </trkpt>
      <trkpt lat="44.09661" lon="3.14211">
        <ele>725.8</ele>
        <time>2019-05-31T13:19:18Z</time>
      </trkpt>
      <trkpt lat="44.09665" lon="3.1421">
        <ele>725.9</ele>
        <time>2019-05-31T13:19:19Z</time>
      </trkpt>
      <trkpt lat="44.09669" lon="3.14208">
        <ele>726</ele>
        <time>2019-05-31T13:19:20Z</time>
      </trkpt>
      <trkpt lat="44.09672" lon="3.14206">
        <ele>726.1</ele>
        <time>2019-05-31T13:19:21Z</time>
      </trkpt>
      <trkpt lat="44.09676" lon="3.14204">
        <ele>726.2</ele>
        <time>2019-05-31T13:19:22Z</time>
      </trkpt>
      <trkpt lat="44.09678" lon="3.14202">
        <ele>726.3</ele>
        <time>2019-05-31T13:19:23Z</time>
      </trkpt>
      <trkpt lat="44.09681" lon="3.14199">
        <ele>726.3</ele>
        <time>2019-05-31T13:19:24Z</time>
      </trkpt>
      <trkpt lat="44.09683" lon="3.14195">
        <ele>726.3</ele>
        <time>2019-05-31T13:19:25Z</time>
      </trkpt>
      <trkpt lat="44.09684" lon="3.14191">
        <ele>726.3</ele>
        <time>2019-05-31T13:19:26Z</time>
      </trkpt>
      <trkpt lat="44.09685" lon="3.14188">
        <ele>726.3</ele>
        <time>2019-05-31T13:19:27Z</time>
      </trkpt>
      <trkpt lat="44.09688" lon="3.14179">
        <ele>726.4</ele>
        <time>2019-05-31T13:19:29Z</time>
      </trkpt>
      <trkpt lat="44.09689" lon="3.14173">
        <ele>726.4</ele>
        <time>2019-05-31T13:19:30Z</time>
      </trkpt>
      <trkpt lat="44.0969" lon="3.14167">
        <ele>726.4</ele>
        <time>2019-05-31T13:19:31Z</time>
      </trkpt>
      <trkpt lat="44.0969" lon="3.14162">
        <ele>726.4</ele>
        <time>2019-05-31T13:19:32Z</time>
      </trkpt>
      <trkpt lat="44.09691" lon="3.14158">
        <ele>726.4</ele>
        <time>2019-05-31T13:19:33Z</time>
      </trkpt>
      <trkpt lat="44.09692" lon="3.14153">
        <ele>726.4</ele>
        <time>2019-05-31T13:19:34Z</time>
      </trkpt>
      <trkpt lat="44.09692" lon="3.14147">
        <ele>726.6</ele>
        <time>2019-05-31T13:19:35Z</time>
      </trkpt>
      <trkpt lat="44.09692" lon="3.14141">
        <ele>726.7</ele>
        <time>2019-05-31T13:19:36Z</time>
      </trkpt>
      <trkpt lat="44.09693" lon="3.14136">
        <ele>726.8</ele>
        <time>2019-05-31T13:19:37Z</time>
      </trkpt>
      <trkpt lat="44.09694" lon="3.14131">
        <ele>726.9</ele>
        <time>2019-05-31T13:19:38Z</time>
      </trkpt>
      <trkpt lat="44.09694" lon="3.14126">
        <ele>726.9</ele>
        <time>2019-05-31T13:19:39Z</time>
      </trkpt>
      <trkpt lat="44.09695" lon="3.14121">
        <ele>726.9</ele>
        <time>2019-05-31T13:19:40Z</time>
      </trkpt>
      <trkpt lat="44.09695" lon="3.14116">
        <ele>726.9</ele>
        <time>2019-05-31T13:19:41Z</time>
      </trkpt>
      <trkpt lat="44.09695" lon="3.14111">
        <ele>726.9</ele>
        <time>2019-05-31T13:19:42Z</time>
      </trkpt>
      <trkpt lat="44.09695" lon="3.14106">
        <ele>727</ele>
        <time>2019-05-31T13:19:43Z</time>
      </trkpt>
      <trkpt lat="44.09695" lon="3.14101">
        <ele>727</ele>
        <time>2019-05-31T13:19:44Z</time>
      </trkpt>
      <trkpt lat="44.09695" lon="3.14096">
        <ele>727</ele>
        <time>2019-05-31T13:19:45Z</time>
      </trkpt>
      <trkpt lat="44.09695" lon="3.14091">
        <ele>727</ele>
        <time>2019-05-31T13:19:46Z</time>
      </trkpt>
      <trkpt lat="44.09694" lon="3.14085">
        <ele>727</ele>
        <time>2019-05-31T13:19:47Z</time>
      </trkpt>
      <trkpt lat="44.09694" lon="3.1408">
        <ele>727</ele>
        <time>2019-05-31T13:19:48Z</time>
      </trkpt>
      <trkpt lat="44.09694" lon="3.14074">
        <ele>726.9</ele>
        <time>2019-05-31T13:19:49Z</time>
      </trkpt>
      <trkpt lat="44.09694" lon="3.14068">
        <ele>726.9</ele>
        <time>2019-05-31T13:19:50Z</time>
      </trkpt>
      <trkpt lat="44.09696" lon="3.1406">
        <ele>726.9</ele>
        <time>2019-05-31T13:19:51Z</time>
      </trkpt>
      <trkpt lat="44.09698" lon="3.14054">
        <ele>726.9</ele>
        <time>2019-05-31T13:19:52Z</time>
      </trkpt>
      <trkpt lat="44.097" lon="3.14049">
        <ele>727</ele>
        <time>2019-05-31T13:19:53Z</time>
      </trkpt>
      <trkpt lat="44.09703" lon="3.14043">
        <ele>727.1</ele>
        <time>2019-05-31T13:19:54Z</time>
      </trkpt>
      <trkpt lat="44.09706" lon="3.14039">
        <ele>727.2</ele>
        <time>2019-05-31T13:19:55Z</time>
      </trkpt>
      <trkpt lat="44.09711" lon="3.14035">
        <ele>727.3</ele>
        <time>2019-05-31T13:19:56Z</time>
      </trkpt>
      <trkpt lat="44.09715" lon="3.1403">
        <ele>727.4</ele>
        <time>2019-05-31T13:19:57Z</time>
      </trkpt>
      <trkpt lat="44.09718" lon="3.14025">
        <ele>727.4</ele>
        <time>2019-05-31T13:19:58Z</time>
      </trkpt>
      <trkpt lat="44.09722" lon="3.14021">
        <ele>727.4</ele>
        <time>2019-05-31T13:19:59Z</time>
      </trkpt>
      <trkpt lat="44.09726" lon="3.14015">
        <ele>727.4</ele>
        <time>2019-05-31T13:20:00Z</time>
      </trkpt>
      <trkpt lat="44.09729" lon="3.14012">
        <ele>727.3</ele>
        <time>2019-05-31T13:20:01Z</time>
      </trkpt>
      <trkpt lat="44.09735" lon="3.14006">
        <ele>727.1</ele>
        <time>2019-05-31T13:20:03Z</time>
      </trkpt>
      <trkpt lat="44.0974" lon="3.13998">
        <ele>726.9</ele>
        <time>2019-05-31T13:20:04Z</time>
      </trkpt>
      <trkpt lat="44.09744" lon="3.13995">
        <ele>726.7</ele>
        <time>2019-05-31T13:20:05Z</time>
      </trkpt>
      <trkpt lat="44.09748" lon="3.13991">
        <ele>726.6</ele>
        <time>2019-05-31T13:20:06Z</time>
      </trkpt>
      <trkpt lat="44.09752" lon="3.13985">
        <ele>726.5</ele>
        <time>2019-05-31T13:20:07Z</time>
      </trkpt>
      <trkpt lat="44.09755" lon="3.13981">
        <ele>726.4</ele>
        <time>2019-05-31T13:20:08Z</time>
      </trkpt>
      <trkpt lat="44.09759" lon="3.13976">
        <ele>726.3</ele>
        <time>2019-05-31T13:20:09Z</time>
      </trkpt>
      <trkpt lat="44.09764" lon="3.1397">
        <ele>726.2</ele>
        <time>2019-05-31T13:20:10Z</time>
      </trkpt>
      <trkpt lat="44.09769" lon="3.13966">
        <ele>726.2</ele>
        <time>2019-05-31T13:20:11Z</time>
      </trkpt>
      <trkpt lat="44.09774" lon="3.13961">
        <ele>726.1</ele>
        <time>2019-05-31T13:20:12Z</time>
      </trkpt>
      <trkpt lat="44.0978" lon="3.13959">
        <ele>726</ele>
        <time>2019-05-31T13:20:13Z</time>
      </trkpt>
      <trkpt lat="44.09786" lon="3.13956">
        <ele>725.9</ele>
        <time>2019-05-31T13:20:14Z</time>
      </trkpt>
      <trkpt lat="44.09791" lon="3.13951">
        <ele>725.7</ele>
        <time>2019-05-31T13:20:15Z</time>
      </trkpt>
      <trkpt lat="44.09798" lon="3.13945">
        <ele>725.4</ele>
        <time>2019-05-31T13:20:16Z</time>
      </trkpt>
      <trkpt lat="44.09804" lon="3.1394">
        <ele>725.1</ele>
        <time>2019-05-31T13:20:17Z</time>
      </trkpt>
      <trkpt lat="44.09809" lon="3.13934">
        <ele>724.8</ele>
        <time>2019-05-31T13:20:18Z</time>
      </trkpt>
      <trkpt lat="44.09814" lon="3.13926">
        <ele>723.9</ele>
        <time>2019-05-31T13:20:19Z</time>
      </trkpt>
      <trkpt lat="44.09819" lon="3.13918">
        <ele>722.3</ele>
        <time>2019-05-31T13:20:20Z</time>
      </trkpt>
      <trkpt lat="44.09825" lon="3.13911">
        <ele>720.8</ele>
        <time>2019-05-31T13:20:21Z</time>
      </trkpt>
      <trkpt lat="44.0983" lon="3.13903">
        <ele>719.6</ele>
        <time>2019-05-31T13:20:22Z</time>
      </trkpt>
      <trkpt lat="44.09833" lon="3.13896">
        <ele>718.8</ele>
        <time>2019-05-31T13:20:23Z</time>
      </trkpt>
      <trkpt lat="44.09834" lon="3.13887">
        <ele>718.1</ele>
        <time>2019-05-31T13:20:24Z</time>
      </trkpt>
      <trkpt lat="44.09835" lon="3.13877">
        <ele>717.3</ele>
        <time>2019-05-31T13:20:25Z</time>
      </trkpt>
      <trkpt lat="44.09835" lon="3.1387">
        <ele>716.9</ele>
        <time>2019-05-31T13:20:26Z</time>
      </trkpt>
      <trkpt lat="44.09836" lon="3.13861">
        <ele>716.2</ele>
        <time>2019-05-31T13:20:27Z</time>
      </trkpt>
      <trkpt lat="44.09837" lon="3.13853">
        <ele>715.7</ele>
        <time>2019-05-31T13:20:28Z</time>
      </trkpt>
      <trkpt lat="44.09839" lon="3.13846">
        <ele>715.2</ele>
        <time>2019-05-31T13:20:29Z</time>
      </trkpt>
      <trkpt lat="44.09841" lon="3.13841">
        <ele>714.8</ele>
        <time>2019-05-31T13:20:30Z</time>
      </trkpt>
      <trkpt lat="44.09841" lon="3.13837">
        <ele>714.5</ele>
        <time>2019-05-31T13:20:31Z</time>
      </trkpt>
      <trkpt lat="44.09842" lon="3.13832">
        <ele>714.5</ele>
        <time>2019-05-31T13:20:32Z</time>
      </trkpt>
      <trkpt lat="44.09842" lon="3.13827">
        <ele>714.5</ele>
        <time>2019-05-31T13:20:33Z</time>
      </trkpt>
      <trkpt lat="44.09839" lon="3.13825">
        <ele>714.5</ele>
        <time>2019-05-31T13:20:34Z</time>
      </trkpt>
      <trkpt lat="44.09832" lon="3.13823">
        <ele>714.4</ele>
        <time>2019-05-31T13:20:36Z</time>
      </trkpt>
      <trkpt lat="44.09828" lon="3.13818">
        <ele>714.3</ele>
        <time>2019-05-31T13:20:37Z</time>
      </trkpt>
      <trkpt lat="44.09824" lon="3.13813">
        <ele>714.2</ele>
        <time>2019-05-31T13:20:38Z</time>
      </trkpt>
      <trkpt lat="44.0982" lon="3.13808">
        <ele>714.2</ele>
        <time>2019-05-31T13:20:39Z</time>
      </trkpt>
      <trkpt lat="44.09816" lon="3.13804">
        <ele>714.1</ele>
        <time>2019-05-31T13:20:40Z</time>
      </trkpt>
      <trkpt lat="44.09812" lon="3.138">
        <ele>713.9</ele>
        <time>2019-05-31T13:20:41Z</time>
      </trkpt>
      <trkpt lat="44.09808" lon="3.13797">
        <ele>713.8</ele>
        <time>2019-05-31T13:20:42Z</time>
      </trkpt>
      <trkpt lat="44.09803" lon="3.13791">
        <ele>713.5</ele>
        <time>2019-05-31T13:20:43Z</time>
      </trkpt>
      <trkpt lat="44.09799" lon="3.13785">
        <ele>713.2</ele>
        <time>2019-05-31T13:20:44Z</time>
      </trkpt>
      <trkpt lat="44.09797" lon="3.13777">
        <ele>712.7</ele>
        <time>2019-05-31T13:20:45Z</time>
      </trkpt>
      <trkpt lat="44.09798" lon="3.13769">
        <ele>711.7</ele>
        <time>2019-05-31T13:20:46Z</time>
      </trkpt>
      <trkpt lat="44.09796" lon="3.1376">
        <ele>710.6</ele>
        <time>2019-05-31T13:20:47Z</time>
      </trkpt>
      <trkpt lat="44.09795" lon="3.13754">
        <ele>709.9</ele>
        <time>2019-05-31T13:20:48Z</time>
      </trkpt>
      <trkpt lat="44.09796" lon="3.13746">
        <ele>709.1</ele>
        <time>2019-05-31T13:20:49Z</time>
      </trkpt>
      <trkpt lat="44.09795" lon="3.13741">
        <ele>708.6</ele>
        <time>2019-05-31T13:20:50Z</time>
      </trkpt>
      <trkpt lat="44.09794" lon="3.13735">
        <ele>708</ele>
        <time>2019-05-31T13:20:51Z</time>
      </trkpt>
      <trkpt lat="44.09793" lon="3.13731">
        <ele>707.8</ele>
        <time>2019-05-31T13:20:52Z</time>
      </trkpt>
      <trkpt lat="44.09786" lon="3.13729">
        <ele>707.5</ele>
        <time>2019-05-31T13:20:53Z</time>
      </trkpt>
      <trkpt lat="44.09782" lon="3.13726">
        <ele>707.4</ele>
        <time>2019-05-31T13:20:54Z</time>
      </trkpt>
      <trkpt lat="44.09776" lon="3.13721">
        <ele>707.6</ele>
        <time>2019-05-31T13:20:55Z</time>
      </trkpt>
      <trkpt lat="44.09772" lon="3.13719">
        <ele>707.7</ele>
        <time>2019-05-31T13:20:56Z</time>
      </trkpt>
      <trkpt lat="44.09768" lon="3.13717">
        <ele>708.1</ele>
        <time>2019-05-31T13:20:57Z</time>
      </trkpt>
      <trkpt lat="44.09765" lon="3.13716">
        <ele>708.3</ele>
        <time>2019-05-31T13:20:59Z</time>
      </trkpt>
      <trkpt lat="44.09762" lon="3.13716">
        <ele>708.6</ele>
        <time>2019-05-31T13:21:01Z</time>
      </trkpt>
      <trkpt lat="44.09758" lon="3.13715">
        <ele>709</ele>
        <time>2019-05-31T13:21:04Z</time>
      </trkpt>
      <trkpt lat="44.09755" lon="3.13715">
        <ele>709.4</ele>
        <time>2019-05-31T13:21:07Z</time>
      </trkpt>
      <trkpt lat="44.09752" lon="3.13714">
        <ele>709.9</ele>
        <time>2019-05-31T13:21:09Z</time>
      </trkpt>
      <trkpt lat="44.09749" lon="3.13713">
        <ele>710.3</ele>
        <time>2019-05-31T13:21:11Z</time>
      </trkpt>
      <trkpt lat="44.09745" lon="3.13711">
        <ele>710.6</ele>
        <time>2019-05-31T13:21:13Z</time>
      </trkpt>
      <trkpt lat="44.09742" lon="3.13709">
        <ele>710.9</ele>
        <time>2019-05-31T13:21:15Z</time>
      </trkpt>
      <trkpt lat="44.09737" lon="3.13707">
        <ele>711.3</ele>
        <time>2019-05-31T13:21:17Z</time>
      </trkpt>
      <trkpt lat="44.09732" lon="3.13705">
        <ele>711.7</ele>
        <time>2019-05-31T13:21:19Z</time>
      </trkpt>
      <trkpt lat="44.09728" lon="3.13703">
        <ele>712.2</ele>
        <time>2019-05-31T13:21:21Z</time>
      </trkpt>
      <trkpt lat="44.09724" lon="3.13702">
        <ele>712.6</ele>
        <time>2019-05-31T13:21:23Z</time>
      </trkpt>
      <trkpt lat="44.09721" lon="3.13699">
        <ele>713</ele>
        <time>2019-05-31T13:21:25Z</time>
      </trkpt>
      <trkpt lat="44.09719" lon="3.13695">
        <ele>713.4</ele>
        <time>2019-05-31T13:21:26Z</time>
      </trkpt>
      <trkpt lat="44.09717" lon="3.13689">
        <ele>713.8</ele>
        <time>2019-05-31T13:21:27Z</time>
      </trkpt>
      <trkpt lat="44.09716" lon="3.13684">
        <ele>714.2</ele>
        <time>2019-05-31T13:21:28Z</time>
      </trkpt>
      <trkpt lat="44.09714" lon="3.1368">
        <ele>714.6</ele>
        <time>2019-05-31T13:21:29Z</time>
      </trkpt>
      <trkpt lat="44.09712" lon="3.13676">
        <ele>715</ele>
        <time>2019-05-31T13:21:30Z</time>
      </trkpt>
      <trkpt lat="44.09709" lon="3.13671">
        <ele>715.8</ele>
        <time>2019-05-31T13:21:32Z</time>
      </trkpt>
      <trkpt lat="44.09706" lon="3.13667">
        <ele>716.5</ele>
        <time>2019-05-31T13:21:34Z</time>
      </trkpt>
      <trkpt lat="44.09703" lon="3.13664">
        <ele>717.3</ele>
        <time>2019-05-31T13:21:37Z</time>
      </trkpt>
      <trkpt lat="44.09699" lon="3.13662">
        <ele>718</ele>
        <time>2019-05-31T13:21:39Z</time>
      </trkpt>
      <trkpt lat="44.09696" lon="3.13662">
        <ele>718.6</ele>
        <time>2019-05-31T13:21:41Z</time>
      </trkpt>
      <trkpt lat="44.09693" lon="3.13658">
        <ele>719.3</ele>
        <time>2019-05-31T13:21:43Z</time>
      </trkpt>
      <trkpt lat="44.09693" lon="3.13654">
        <ele>719.9</ele>
        <time>2019-05-31T13:21:45Z</time>
      </trkpt>
      <trkpt lat="44.09694" lon="3.1365">
        <ele>720.5</ele>
        <time>2019-05-31T13:21:47Z</time>
      </trkpt>
      <trkpt lat="44.09696" lon="3.13646">
        <ele>721.4</ele>
        <time>2019-05-31T13:21:50Z</time>
      </trkpt>
      <trkpt lat="44.09697" lon="3.13642">
        <ele>722.1</ele>
        <time>2019-05-31T13:21:52Z</time>
      </trkpt>
      <trkpt lat="44.09697" lon="3.13638">
        <ele>722.9</ele>
        <time>2019-05-31T13:21:55Z</time>
      </trkpt>
      <trkpt lat="44.09697" lon="3.13633">
        <ele>723.7</ele>
        <time>2019-05-31T13:21:58Z</time>
      </trkpt>
      <trkpt lat="44.09695" lon="3.1363">
        <ele>724.4</ele>
        <time>2019-05-31T13:22:00Z</time>
      </trkpt>
      <trkpt lat="44.09693" lon="3.13628">
        <ele>725.1</ele>
        <time>2019-05-31T13:22:04Z</time>
      </trkpt>
      <trkpt lat="44.09692" lon="3.13623">
        <ele>725.7</ele>
        <time>2019-05-31T13:22:43Z</time>
      </trkpt>
      <trkpt lat="44.09693" lon="3.13618">
        <ele>726.4</ele>
        <time>2019-05-31T13:22:47Z</time>
      </trkpt>
      <trkpt lat="44.0969" lon="3.13616">
        <ele>727.2</ele>
        <time>2019-05-31T13:22:51Z</time>
      </trkpt>
      <trkpt lat="44.09691" lon="3.13613">
        <ele>727.8</ele>
        <time>2019-05-31T13:23:00Z</time>
      </trkpt>
      <trkpt lat="44.09688" lon="3.13612">
        <ele>728.2</ele>
        <time>2019-05-31T13:23:06Z</time>
      </trkpt>
      <trkpt lat="44.09686" lon="3.13612">
        <ele>728.7</ele>
        <time>2019-05-31T13:23:09Z</time>
      </trkpt>
      <trkpt lat="44.09682" lon="3.13611">
        <ele>729.3</ele>
        <time>2019-05-31T13:23:15Z</time>
      </trkpt>
      <trkpt lat="44.09678" lon="3.1361">
        <ele>729.9</ele>
        <time>2019-05-31T13:23:17Z</time>
      </trkpt>
      <trkpt lat="44.09676" lon="3.13606">
        <ele>730.3</ele>
        <time>2019-05-31T13:23:22Z</time>
      </trkpt>
      <trkpt lat="44.09674" lon="3.13602">
        <ele>730.8</ele>
        <time>2019-05-31T13:23:25Z</time>
      </trkpt>
      <trkpt lat="44.09671" lon="3.136">
        <ele>731.1</ele>
        <time>2019-05-31T13:23:27Z</time>
      </trkpt>
      <trkpt lat="44.09668" lon="3.13602">
        <ele>731.5</ele>
        <time>2019-05-31T13:23:30Z</time>
      </trkpt>
      <trkpt lat="44.09665" lon="3.13604">
        <ele>731.9</ele>
        <time>2019-05-31T13:23:38Z</time>
      </trkpt>
      <trkpt lat="44.09661" lon="3.13606">
        <ele>732.2</ele>
        <time>2019-05-31T13:23:40Z</time>
      </trkpt>
      <trkpt lat="44.09658" lon="3.13609">
        <ele>732.5</ele>
        <time>2019-05-31T13:23:42Z</time>
      </trkpt>
      <trkpt lat="44.09654" lon="3.13611">
        <ele>732.9</ele>
        <time>2019-05-31T13:23:44Z</time>
      </trkpt>
      <trkpt lat="44.0965" lon="3.13613">
        <ele>733.3</ele>
        <time>2019-05-31T13:23:46Z</time>
      </trkpt>
      <trkpt lat="44.09647" lon="3.13614">
        <ele>733.6</ele>
        <time>2019-05-31T13:23:48Z</time>
      </trkpt>
      <trkpt lat="44.09644" lon="3.13615">
        <ele>733.9</ele>
        <time>2019-05-31T13:23:50Z</time>
      </trkpt>
      <trkpt lat="44.09641" lon="3.13617">
        <ele>734.2</ele>
        <time>2019-05-31T13:23:52Z</time>
      </trkpt>
      <trkpt lat="44.09638" lon="3.13619">
        <ele>734.6</ele>
        <time>2019-05-31T13:23:54Z</time>
      </trkpt>
      <trkpt lat="44.09634" lon="3.13622">
        <ele>735</ele>
        <time>2019-05-31T13:23:56Z</time>
      </trkpt>
      <trkpt lat="44.09632" lon="3.13625">
        <ele>735.4</ele>
        <time>2019-05-31T13:23:58Z</time>
      </trkpt>
      <trkpt lat="44.09628" lon="3.13629">
        <ele>735.9</ele>
        <time>2019-05-31T13:24:00Z</time>
      </trkpt>
      <trkpt lat="44.09626" lon="3.13632">
        <ele>736.1</ele>
        <time>2019-05-31T13:24:02Z</time>
      </trkpt>
      <trkpt lat="44.09624" lon="3.13635">
        <ele>736.4</ele>
        <time>2019-05-31T13:24:04Z</time>
      </trkpt>
      <trkpt lat="44.0962" lon="3.13639">
        <ele>736.8</ele>
        <time>2019-05-31T13:24:06Z</time>
      </trkpt>
      <trkpt lat="44.09617" lon="3.13642">
        <ele>737.3</ele>
        <time>2019-05-31T13:24:08Z</time>
      </trkpt>
      <trkpt lat="44.09612" lon="3.13644">
        <ele>737.7</ele>
        <time>2019-05-31T13:24:10Z</time>
      </trkpt>
      <trkpt lat="44.0961" lon="3.13646">
        <ele>738</ele>
        <time>2019-05-31T13:24:12Z</time>
      </trkpt>
      <trkpt lat="44.09607" lon="3.13648">
        <ele>738.2</ele>
        <time>2019-05-31T13:24:14Z</time>
      </trkpt>
      <trkpt lat="44.09604" lon="3.13651">
        <ele>738.5</ele>
        <time>2019-05-31T13:24:16Z</time>
      </trkpt>
      <trkpt lat="44.09601" lon="3.13654">
        <ele>738.9</ele>
        <time>2019-05-31T13:24:18Z</time>
      </trkpt>
      <trkpt lat="44.09598" lon="3.13657">
        <ele>739.3</ele>
        <time>2019-05-31T13:24:20Z</time>
      </trkpt>
      <trkpt lat="44.09595" lon="3.1366">
        <ele>739.8</ele>
        <time>2019-05-31T13:24:22Z</time>
      </trkpt>
      <trkpt lat="44.09592" lon="3.13663">
        <ele>740.1</ele>
        <time>2019-05-31T13:24:24Z</time>
      </trkpt>
      <trkpt lat="44.09588" lon="3.13667">
        <ele>740.6</ele>
        <time>2019-05-31T13:24:26Z</time>
      </trkpt>
      <trkpt lat="44.09585" lon="3.1367">
        <ele>740.9</ele>
        <time>2019-05-31T13:24:28Z</time>
      </trkpt>
      <trkpt lat="44.0958" lon="3.13672">
        <ele>741.4</ele>
        <time>2019-05-31T13:24:31Z</time>
      </trkpt>
      <trkpt lat="44.09576" lon="3.13675">
        <ele>741.9</ele>
        <time>2019-05-31T13:24:33Z</time>
      </trkpt>
      <trkpt lat="44.09572" lon="3.13678">
        <ele>742.5</ele>
        <time>2019-05-31T13:24:35Z</time>
      </trkpt>
      <trkpt lat="44.09568" lon="3.13677">
        <ele>742.9</ele>
        <time>2019-05-31T13:24:37Z</time>
      </trkpt>
      <trkpt lat="44.09565" lon="3.13673">
        <ele>743.5</ele>
        <time>2019-05-31T13:24:39Z</time>
      </trkpt>
      <trkpt lat="44.09563" lon="3.13669">
        <ele>744</ele>
        <time>2019-05-31T13:24:41Z</time>
      </trkpt>
      <trkpt lat="44.09561" lon="3.13666">
        <ele>744.5</ele>
        <time>2019-05-31T13:24:43Z</time>
      </trkpt>
      <trkpt lat="44.09558" lon="3.13661">
        <ele>745.1</ele>
        <time>2019-05-31T13:24:45Z</time>
      </trkpt>
      <trkpt lat="44.09555" lon="3.13659">
        <ele>745.5</ele>
        <time>2019-05-31T13:24:48Z</time>
      </trkpt>
      <trkpt lat="44.09555" lon="3.13655">
        <ele>745.8</ele>
        <time>2019-05-31T13:24:52Z</time>
      </trkpt>
      <trkpt lat="44.09557" lon="3.13651">
        <ele>746.2</ele>
        <time>2019-05-31T13:24:54Z</time>
      </trkpt>
      <trkpt lat="44.09558" lon="3.13646">
        <ele>746.6</ele>
        <time>2019-05-31T13:24:56Z</time>
      </trkpt>
      <trkpt lat="44.09557" lon="3.1364">
        <ele>747</ele>
        <time>2019-05-31T13:24:58Z</time>
      </trkpt>
      <trkpt lat="44.09554" lon="3.13636">
        <ele>747.5</ele>
        <time>2019-05-31T13:25:00Z</time>
      </trkpt>
      <trkpt lat="44.09551" lon="3.13635">
        <ele>747.9</ele>
        <time>2019-05-31T13:25:02Z</time>
      </trkpt>
      <trkpt lat="44.09548" lon="3.13634">
        <ele>748.3</ele>
        <time>2019-05-31T13:25:04Z</time>
      </trkpt>
      <trkpt lat="44.09545" lon="3.13633">
        <ele>748.7</ele>
        <time>2019-05-31T13:25:06Z</time>
      </trkpt>
      <trkpt lat="44.09541" lon="3.13632">
        <ele>749.1</ele>
        <time>2019-05-31T13:25:08Z</time>
      </trkpt>
      <trkpt lat="44.09537" lon="3.13632">
        <ele>749.5</ele>
        <time>2019-05-31T13:25:10Z</time>
      </trkpt>
      <trkpt lat="44.09533" lon="3.13632">
        <ele>749.9</ele>
        <time>2019-05-31T13:25:12Z</time>
      </trkpt>
      <trkpt lat="44.0953" lon="3.1363">
        <ele>750.3</ele>
        <time>2019-05-31T13:25:14Z</time>
      </trkpt>
      <trkpt lat="44.09527" lon="3.13628">
        <ele>750.8</ele>
        <time>2019-05-31T13:25:16Z</time>
      </trkpt>
      <trkpt lat="44.09524" lon="3.13626">
        <ele>751.2</ele>
        <time>2019-05-31T13:25:19Z</time>
      </trkpt>
      <trkpt lat="44.09521" lon="3.13625">
        <ele>751.6</ele>
        <time>2019-05-31T13:25:21Z</time>
      </trkpt>
      <trkpt lat="44.09518" lon="3.13624">
        <ele>752</ele>
        <time>2019-05-31T13:25:23Z</time>
      </trkpt>
      <trkpt lat="44.09514" lon="3.13622">
        <ele>752.5</ele>
        <time>2019-05-31T13:25:26Z</time>
      </trkpt>
      <trkpt lat="44.09511" lon="3.13621">
        <ele>752.7</ele>
        <time>2019-05-31T13:25:28Z</time>
      </trkpt>
      <trkpt lat="44.09509" lon="3.1362">
        <ele>752.8</ele>
        <time>2019-05-31T13:25:31Z</time>
      </trkpt>
      <trkpt lat="44.09508" lon="3.13615">
        <ele>752.9</ele>
        <time>2019-05-31T13:26:00Z</time>
      </trkpt>
      <trkpt lat="44.09508" lon="3.13611">
        <ele>752.8</ele>
        <time>2019-05-31T13:26:05Z</time>
      </trkpt>
      <trkpt lat="44.09507" lon="3.13607">
        <ele>752.8</ele>
        <time>2019-05-31T13:26:08Z</time>
      </trkpt>
      <trkpt lat="44.09508" lon="3.1361">
        <ele>752.8</ele>
        <time>2019-05-31T13:26:44Z</time>
      </trkpt>
      <trkpt lat="44.09511" lon="3.1361">
        <ele>752.7</ele>
        <time>2019-05-31T13:26:51Z</time>
      </trkpt>
      <trkpt lat="44.09503" lon="3.13608">
        <ele>752.5</ele>
        <time>2019-05-31T13:33:00Z</time>
      </trkpt>
      <trkpt lat="44.09493" lon="3.13598">
        <ele>752.1</ele>
        <time>2019-05-31T13:33:02Z</time>
      </trkpt>
      <trkpt lat="44.09485" lon="3.13597">
        <ele>751.6</ele>
        <time>2019-05-31T13:33:03Z</time>
      </trkpt>
      <trkpt lat="44.09479" lon="3.13598">
        <ele>751.3</ele>
        <time>2019-05-31T13:33:04Z</time>
      </trkpt>
      <trkpt lat="44.09475" lon="3.13597">
        <ele>751.1</ele>
        <time>2019-05-31T13:33:05Z</time>
      </trkpt>
      <trkpt lat="44.09471" lon="3.13602">
        <ele>750.9</ele>
        <time>2019-05-31T13:33:06Z</time>
      </trkpt>
      <trkpt lat="44.09467" lon="3.13602">
        <ele>750.7</ele>
        <time>2019-05-31T13:33:07Z</time>
      </trkpt>
      <trkpt lat="44.09462" lon="3.13601">
        <ele>750.5</ele>
        <time>2019-05-31T13:33:08Z</time>
      </trkpt>
      <trkpt lat="44.09457" lon="3.13603">
        <ele>750.3</ele>
        <time>2019-05-31T13:33:09Z</time>
      </trkpt>
      <trkpt lat="44.09451" lon="3.13603">
        <ele>750</ele>
        <time>2019-05-31T13:33:10Z</time>
      </trkpt>
      <trkpt lat="44.09446" lon="3.13603">
        <ele>749.8</ele>
        <time>2019-05-31T13:33:11Z</time>
      </trkpt>
      <trkpt lat="44.09441" lon="3.13601">
        <ele>749.6</ele>
        <time>2019-05-31T13:33:12Z</time>
      </trkpt>
      <trkpt lat="44.09437" lon="3.13604">
        <ele>749.3</ele>
        <time>2019-05-31T13:33:13Z</time>
      </trkpt>
      <trkpt lat="44.09431" lon="3.13606">
        <ele>749.1</ele>
        <time>2019-05-31T13:33:14Z</time>
      </trkpt>
      <trkpt lat="44.09427" lon="3.1361">
        <ele>748.9</ele>
        <time>2019-05-31T13:33:15Z</time>
      </trkpt>
      <trkpt lat="44.09424" lon="3.13615">
        <ele>748.7</ele>
        <time>2019-05-31T13:33:16Z</time>
      </trkpt>
      <trkpt lat="44.09422" lon="3.1362">
        <ele>748.5</ele>
        <time>2019-05-31T13:33:17Z</time>
      </trkpt>
      <trkpt lat="44.09419" lon="3.13623">
        <ele>748.3</ele>
        <time>2019-05-31T13:33:18Z</time>
      </trkpt>
      <trkpt lat="44.09417" lon="3.13627">
        <ele>748</ele>
        <time>2019-05-31T13:33:19Z</time>
      </trkpt>
      <trkpt lat="44.09413" lon="3.13632">
        <ele>747.8</ele>
        <time>2019-05-31T13:33:20Z</time>
      </trkpt>
      <trkpt lat="44.0941" lon="3.13635">
        <ele>747.6</ele>
        <time>2019-05-31T13:33:21Z</time>
      </trkpt>
      <trkpt lat="44.09406" lon="3.13638">
        <ele>747.4</ele>
        <time>2019-05-31T13:33:22Z</time>
      </trkpt>
      <trkpt lat="44.09401" lon="3.13638">
        <ele>747.1</ele>
        <time>2019-05-31T13:33:23Z</time>
      </trkpt>
      <trkpt lat="44.09396" lon="3.1364">
        <ele>746.8</ele>
        <time>2019-05-31T13:33:24Z</time>
      </trkpt>
      <trkpt lat="44.09393" lon="3.13644">
        <ele>746.6</ele>
        <time>2019-05-31T13:33:25Z</time>
      </trkpt>
      <trkpt lat="44.0939" lon="3.13647">
        <ele>746.5</ele>
        <time>2019-05-31T13:33:26Z</time>
      </trkpt>
      <trkpt lat="44.09386" lon="3.13652">
        <ele>746.2</ele>
        <time>2019-05-31T13:33:28Z</time>
      </trkpt>
      <trkpt lat="44.09382" lon="3.13655">
        <ele>746</ele>
        <time>2019-05-31T13:33:29Z</time>
      </trkpt>
      <trkpt lat="44.09379" lon="3.13659">
        <ele>745.8</ele>
        <time>2019-05-31T13:33:30Z</time>
      </trkpt>
      <trkpt lat="44.09374" lon="3.13661">
        <ele>745.6</ele>
        <time>2019-05-31T13:33:31Z</time>
      </trkpt>
      <trkpt lat="44.0937" lon="3.13664">
        <ele>745.4</ele>
        <time>2019-05-31T13:33:32Z</time>
      </trkpt>
      <trkpt lat="44.09365" lon="3.13666">
        <ele>745.2</ele>
        <time>2019-05-31T13:33:33Z</time>
      </trkpt>
      <trkpt lat="44.09359" lon="3.13666">
        <ele>745.1</ele>
        <time>2019-05-31T13:33:34Z</time>
      </trkpt>
      <trkpt lat="44.09354" lon="3.13666">
        <ele>744.9</ele>
        <time>2019-05-31T13:33:35Z</time>
      </trkpt>
      <trkpt lat="44.0935" lon="3.13664">
        <ele>744.8</ele>
        <time>2019-05-31T13:33:36Z</time>
      </trkpt>
      <trkpt lat="44.09342" lon="3.13662">
        <ele>744.5</ele>
        <time>2019-05-31T13:33:37Z</time>
      </trkpt>
      <trkpt lat="44.09338" lon="3.13659">
        <ele>744.3</ele>
        <time>2019-05-31T13:33:38Z</time>
      </trkpt>
      <trkpt lat="44.09333" lon="3.13656">
        <ele>744.1</ele>
        <time>2019-05-31T13:33:39Z</time>
      </trkpt>
      <trkpt lat="44.09327" lon="3.13652">
        <ele>743.8</ele>
        <time>2019-05-31T13:33:40Z</time>
      </trkpt>
      <trkpt lat="44.09321" lon="3.13649">
        <ele>743.6</ele>
        <time>2019-05-31T13:33:41Z</time>
      </trkpt>
      <trkpt lat="44.09313" lon="3.13652">
        <ele>743.4</ele>
        <time>2019-05-31T13:33:42Z</time>
      </trkpt>
      <trkpt lat="44.09307" lon="3.13654">
        <ele>743.2</ele>
        <time>2019-05-31T13:33:43Z</time>
      </trkpt>
      <trkpt lat="44.09302" lon="3.13657">
        <ele>743</ele>
        <time>2019-05-31T13:33:44Z</time>
      </trkpt>
      <trkpt lat="44.09296" lon="3.1366">
        <ele>742.7</ele>
        <time>2019-05-31T13:33:45Z</time>
      </trkpt>
      <trkpt lat="44.09292" lon="3.13664">
        <ele>742.6</ele>
        <time>2019-05-31T13:33:46Z</time>
      </trkpt>
      <trkpt lat="44.09288" lon="3.1367">
        <ele>742.5</ele>
        <time>2019-05-31T13:33:47Z</time>
      </trkpt>
      <trkpt lat="44.09284" lon="3.13673">
        <ele>742.4</ele>
        <time>2019-05-31T13:33:48Z</time>
      </trkpt>
      <trkpt lat="44.09281" lon="3.13678">
        <ele>742.2</ele>
        <time>2019-05-31T13:33:49Z</time>
      </trkpt>
      <trkpt lat="44.09276" lon="3.13681">
        <ele>742</ele>
        <time>2019-05-31T13:33:50Z</time>
      </trkpt>
      <trkpt lat="44.09271" lon="3.13683">
        <ele>741.8</ele>
        <time>2019-05-31T13:33:51Z</time>
      </trkpt>
      <trkpt lat="44.09266" lon="3.13685">
        <ele>741.6</ele>
        <time>2019-05-31T13:33:52Z</time>
      </trkpt>
      <trkpt lat="44.09262" lon="3.13692">
        <ele>741.3</ele>
        <time>2019-05-31T13:33:53Z</time>
      </trkpt>
      <trkpt lat="44.09259" lon="3.13696">
        <ele>741.2</ele>
        <time>2019-05-31T13:33:54Z</time>
      </trkpt>
      <trkpt lat="44.09255" lon="3.13701">
        <ele>741</ele>
        <time>2019-05-31T13:33:55Z</time>
      </trkpt>
      <trkpt lat="44.09251" lon="3.13701">
        <ele>740.9</ele>
        <time>2019-05-31T13:33:56Z</time>
      </trkpt>
      <trkpt lat="44.09246" lon="3.13704">
        <ele>740.7</ele>
        <time>2019-05-31T13:33:57Z</time>
      </trkpt>
      <trkpt lat="44.09242" lon="3.13708">
        <ele>740.4</ele>
        <time>2019-05-31T13:33:58Z</time>
      </trkpt>
      <trkpt lat="44.09239" lon="3.13715">
        <ele>739.9</ele>
        <time>2019-05-31T13:33:59Z</time>
      </trkpt>
      <trkpt lat="44.09235" lon="3.1372">
        <ele>739.5</ele>
        <time>2019-05-31T13:34:00Z</time>
      </trkpt>
      <trkpt lat="44.09231" lon="3.13725">
        <ele>739.1</ele>
        <time>2019-05-31T13:34:01Z</time>
      </trkpt>
      <trkpt lat="44.0923" lon="3.13732">
        <ele>738.7</ele>
        <time>2019-05-31T13:34:02Z</time>
      </trkpt>
      <trkpt lat="44.09225" lon="3.13733">
        <ele>738.4</ele>
        <time>2019-05-31T13:34:03Z</time>
      </trkpt>
      <trkpt lat="44.09221" lon="3.13737">
        <ele>738.1</ele>
        <time>2019-05-31T13:34:04Z</time>
      </trkpt>
      <trkpt lat="44.09216" lon="3.13738">
        <ele>737.9</ele>
        <time>2019-05-31T13:34:05Z</time>
      </trkpt>
      <trkpt lat="44.0921" lon="3.13742">
        <ele>737.5</ele>
        <time>2019-05-31T13:34:06Z</time>
      </trkpt>
      <trkpt lat="44.09205" lon="3.13747">
        <ele>737.1</ele>
        <time>2019-05-31T13:34:07Z</time>
      </trkpt>
      <trkpt lat="44.09201" lon="3.13752">
        <ele>736.9</ele>
        <time>2019-05-31T13:34:08Z</time>
      </trkpt>
      <trkpt lat="44.09196" lon="3.13757">
        <ele>736.6</ele>
        <time>2019-05-31T13:34:09Z</time>
      </trkpt>
      <trkpt lat="44.09192" lon="3.13763">
        <ele>736.4</ele>
        <time>2019-05-31T13:34:10Z</time>
      </trkpt>
      <trkpt lat="44.09187" lon="3.13769">
        <ele>736.1</ele>
        <time>2019-05-31T13:34:11Z</time>
      </trkpt>
      <trkpt lat="44.09183" lon="3.13774">
        <ele>735.8</ele>
        <time>2019-05-31T13:34:12Z</time>
      </trkpt>
      <trkpt lat="44.09179" lon="3.1378">
        <ele>735.5</ele>
        <time>2019-05-31T13:34:13Z</time>
      </trkpt>
      <trkpt lat="44.09175" lon="3.13785">
        <ele>735.3</ele>
        <time>2019-05-31T13:34:14Z</time>
      </trkpt>
      <trkpt lat="44.0917" lon="3.13787">
        <ele>735</ele>
        <time>2019-05-31T13:34:15Z</time>
      </trkpt>
      <trkpt lat="44.09166" lon="3.13789">
        <ele>734.9</ele>
        <time>2019-05-31T13:34:16Z</time>
      </trkpt>
      <trkpt lat="44.09163" lon="3.13792">
        <ele>734.7</ele>
        <time>2019-05-31T13:34:17Z</time>
      </trkpt>
      <trkpt lat="44.09161" lon="3.13796">
        <ele>734.6</ele>
        <time>2019-05-31T13:34:19Z</time>
      </trkpt>
      <trkpt lat="44.09162" lon="3.138">
        <ele>734.4</ele>
        <time>2019-05-31T13:34:23Z</time>
      </trkpt>
      <trkpt lat="44.09158" lon="3.13803">
        <ele>734.2</ele>
        <time>2019-05-31T13:34:25Z</time>
      </trkpt>
      <trkpt lat="44.09155" lon="3.13805">
        <ele>734</ele>
        <time>2019-05-31T13:34:26Z</time>
      </trkpt>
      <trkpt lat="44.09151" lon="3.13808">
        <ele>733.8</ele>
        <time>2019-05-31T13:34:27Z</time>
      </trkpt>
      <trkpt lat="44.09144" lon="3.13811">
        <ele>733.4</ele>
        <time>2019-05-31T13:34:28Z</time>
      </trkpt>
      <trkpt lat="44.09139" lon="3.13811">
        <ele>733.1</ele>
        <time>2019-05-31T13:34:29Z</time>
      </trkpt>
      <trkpt lat="44.09133" lon="3.13811">
        <ele>732.7</ele>
        <time>2019-05-31T13:34:30Z</time>
      </trkpt>
      <trkpt lat="44.09126" lon="3.13812">
        <ele>732.2</ele>
        <time>2019-05-31T13:34:31Z</time>
      </trkpt>
      <trkpt lat="44.0912" lon="3.13814">
        <ele>731.8</ele>
        <time>2019-05-31T13:34:32Z</time>
      </trkpt>
      <trkpt lat="44.09114" lon="3.13813">
        <ele>731.2</ele>
        <time>2019-05-31T13:34:33Z</time>
      </trkpt>
      <trkpt lat="44.09109" lon="3.13812">
        <ele>730.6</ele>
        <time>2019-05-31T13:34:34Z</time>
      </trkpt>
      <trkpt lat="44.09104" lon="3.13811">
        <ele>729.9</ele>
        <time>2019-05-31T13:34:35Z</time>
      </trkpt>
      <trkpt lat="44.09098" lon="3.13812">
        <ele>729.1</ele>
        <time>2019-05-31T13:34:36Z</time>
      </trkpt>
      <trkpt lat="44.09091" lon="3.13812">
        <ele>728.5</ele>
        <time>2019-05-31T13:34:37Z</time>
      </trkpt>
      <trkpt lat="44.09087" lon="3.13813">
        <ele>728.1</ele>
        <time>2019-05-31T13:34:38Z</time>
      </trkpt>
      <trkpt lat="44.09084" lon="3.13811">
        <ele>727.8</ele>
        <time>2019-05-31T13:34:39Z</time>
      </trkpt>
      <trkpt lat="44.09085" lon="3.13815">
        <ele>727.5</ele>
        <time>2019-05-31T13:34:48Z</time>
      </trkpt>
      <trkpt lat="44.09082" lon="3.13816">
        <ele>727.2</ele>
        <time>2019-05-31T13:34:50Z</time>
      </trkpt>
      <trkpt lat="44.09078" lon="3.13816">
        <ele>726.9</ele>
        <time>2019-05-31T13:34:52Z</time>
      </trkpt>
      <trkpt lat="44.09072" lon="3.13815">
        <ele>726.1</ele>
        <time>2019-05-31T13:34:54Z</time>
      </trkpt>
      <trkpt lat="44.09068" lon="3.13812">
        <ele>725.7</ele>
        <time>2019-05-31T13:34:56Z</time>
      </trkpt>
      <trkpt lat="44.09067" lon="3.13804">
        <ele>725.4</ele>
        <time>2019-05-31T13:34:58Z</time>
      </trkpt>
      <trkpt lat="44.09066" lon="3.138">
        <ele>725.3</ele>
        <time>2019-05-31T13:34:59Z</time>
      </trkpt>
      <trkpt lat="44.09065" lon="3.13795">
        <ele>725.1</ele>
        <time>2019-05-31T13:35:00Z</time>
      </trkpt>
      <trkpt lat="44.09064" lon="3.1379">
        <ele>725</ele>
        <time>2019-05-31T13:35:01Z</time>
      </trkpt>
      <trkpt lat="44.09063" lon="3.13786">
        <ele>724.9</ele>
        <time>2019-05-31T13:35:02Z</time>
      </trkpt>
      <trkpt lat="44.09062" lon="3.13781">
        <ele>724.8</ele>
        <time>2019-05-31T13:35:03Z</time>
      </trkpt>
      <trkpt lat="44.09062" lon="3.13776">
        <ele>724.8</ele>
        <time>2019-05-31T13:35:05Z</time>
      </trkpt>
      <trkpt lat="44.09061" lon="3.13771">
        <ele>724.8</ele>
        <time>2019-05-31T13:35:07Z</time>
      </trkpt>
      <trkpt lat="44.09059" lon="3.13766">
        <ele>724.8</ele>
        <time>2019-05-31T13:35:09Z</time>
      </trkpt>
      <trkpt lat="44.09056" lon="3.13763">
        <ele>724.8</ele>
        <time>2019-05-31T13:35:12Z</time>
      </trkpt>
      <trkpt lat="44.09053" lon="3.13764">
        <ele>724.9</ele>
        <time>2019-05-31T13:35:14Z</time>
      </trkpt>
      <trkpt lat="44.09049" lon="3.13766">
        <ele>725.1</ele>
        <time>2019-05-31T13:35:16Z</time>
      </trkpt>
      <trkpt lat="44.09045" lon="3.13767">
        <ele>725.4</ele>
        <time>2019-05-31T13:35:18Z</time>
      </trkpt>
      <trkpt lat="44.09041" lon="3.13768">
        <ele>725.6</ele>
        <time>2019-05-31T13:35:20Z</time>
      </trkpt>
      <trkpt lat="44.09036" lon="3.13769">
        <ele>725.8</ele>
        <time>2019-05-31T13:35:25Z</time>
      </trkpt>
      <trkpt lat="44.09034" lon="3.1377">
        <ele>726</ele>
        <time>2019-05-31T13:35:27Z</time>
      </trkpt>
      <trkpt lat="44.09032" lon="3.13767">
        <ele>726.1</ele>
        <time>2019-05-31T13:35:29Z</time>
      </trkpt>
      <trkpt lat="44.09032" lon="3.13763">
        <ele>726.3</ele>
        <time>2019-05-31T13:35:31Z</time>
      </trkpt>
      <trkpt lat="44.09032" lon="3.13757">
        <ele>726.7</ele>
        <time>2019-05-31T13:35:33Z</time>
      </trkpt>
      <trkpt lat="44.09031" lon="3.13751">
        <ele>727.2</ele>
        <time>2019-05-31T13:35:35Z</time>
      </trkpt>
      <trkpt lat="44.0903" lon="3.13745">
        <ele>727.6</ele>
        <time>2019-05-31T13:35:37Z</time>
      </trkpt>
      <trkpt lat="44.0903" lon="3.13739">
        <ele>727.9</ele>
        <time>2019-05-31T13:35:39Z</time>
      </trkpt>
      <trkpt lat="44.0903" lon="3.13734">
        <ele>728.2</ele>
        <time>2019-05-31T13:35:41Z</time>
      </trkpt>
      <trkpt lat="44.09031" lon="3.13727">
        <ele>728.6</ele>
        <time>2019-05-31T13:35:43Z</time>
      </trkpt>
      <trkpt lat="44.09033" lon="3.1372">
        <ele>728.8</ele>
        <time>2019-05-31T13:35:45Z</time>
      </trkpt>
      <trkpt lat="44.09032" lon="3.13713">
        <ele>729.1</ele>
        <time>2019-05-31T13:35:47Z</time>
      </trkpt>
      <trkpt lat="44.09031" lon="3.13707">
        <ele>729.4</ele>
        <time>2019-05-31T13:35:49Z</time>
      </trkpt>
      <trkpt lat="44.0903" lon="3.13701">
        <ele>729.6</ele>
        <time>2019-05-31T13:35:51Z</time>
      </trkpt>
      <trkpt lat="44.0903" lon="3.13695">
        <ele>729.8</ele>
        <time>2019-05-31T13:35:53Z</time>
      </trkpt>
      <trkpt lat="44.09029" lon="3.1369">
        <ele>730</ele>
        <time>2019-05-31T13:35:55Z</time>
      </trkpt>
      <trkpt lat="44.09027" lon="3.13683">
        <ele>730.2</ele>
        <time>2019-05-31T13:35:57Z</time>
      </trkpt>
      <trkpt lat="44.09026" lon="3.13679">
        <ele>730.2</ele>
        <time>2019-05-31T13:35:58Z</time>
      </trkpt>
      <trkpt lat="44.09024" lon="3.13673">
        <ele>730.3</ele>
        <time>2019-05-31T13:36:00Z</time>
      </trkpt>
      <trkpt lat="44.09022" lon="3.13668">
        <ele>730.4</ele>
        <time>2019-05-31T13:36:02Z</time>
      </trkpt>
      <trkpt lat="44.09021" lon="3.13664">
        <ele>730.5</ele>
        <time>2019-05-31T13:36:04Z</time>
      </trkpt>
      <trkpt lat="44.09017" lon="3.13661">
        <ele>730.6</ele>
        <time>2019-05-31T13:36:06Z</time>
      </trkpt>
      <trkpt lat="44.09013" lon="3.13661">
        <ele>730.6</ele>
        <time>2019-05-31T13:36:08Z</time>
      </trkpt>
      <trkpt lat="44.09009" lon="3.13661">
        <ele>730.6</ele>
        <time>2019-05-31T13:36:10Z</time>
      </trkpt>
      <trkpt lat="44.09004" lon="3.13659">
        <ele>730.7</ele>
        <time>2019-05-31T13:36:12Z</time>
      </trkpt>
      <trkpt lat="44.09002" lon="3.13658">
        <ele>730.7</ele>
        <time>2019-05-31T13:36:13Z</time>
      </trkpt>
      <trkpt lat="44.08999" lon="3.13656">
        <ele>730.7</ele>
        <time>2019-05-31T13:36:14Z</time>
      </trkpt>
      <trkpt lat="44.08996" lon="3.13654">
        <ele>730.7</ele>
        <time>2019-05-31T13:36:15Z</time>
      </trkpt>
      <trkpt lat="44.08993" lon="3.13653">
        <ele>730.7</ele>
        <time>2019-05-31T13:36:16Z</time>
      </trkpt>
      <trkpt lat="44.0899" lon="3.13652">
        <ele>730.7</ele>
        <time>2019-05-31T13:36:17Z</time>
      </trkpt>
      <trkpt lat="44.08986" lon="3.13648">
        <ele>730.7</ele>
        <time>2019-05-31T13:36:19Z</time>
      </trkpt>
      <trkpt lat="44.08984" lon="3.13644">
        <ele>730.6</ele>
        <time>2019-05-31T13:36:20Z</time>
      </trkpt>
      <trkpt lat="44.08981" lon="3.13641">
        <ele>730.6</ele>
        <time>2019-05-31T13:36:21Z</time>
      </trkpt>
      <trkpt lat="44.08978" lon="3.13637">
        <ele>730.5</ele>
        <time>2019-05-31T13:36:22Z</time>
      </trkpt>
      <trkpt lat="44.08973" lon="3.13634">
        <ele>730.4</ele>
        <time>2019-05-31T13:36:23Z</time>
      </trkpt>
      <trkpt lat="44.08968" lon="3.13634">
        <ele>730.3</ele>
        <time>2019-05-31T13:36:24Z</time>
      </trkpt>
      <trkpt lat="44.08965" lon="3.13634">
        <ele>730.3</ele>
        <time>2019-05-31T13:36:25Z</time>
      </trkpt>
      <trkpt lat="44.0896" lon="3.13635">
        <ele>730.2</ele>
        <time>2019-05-31T13:36:26Z</time>
      </trkpt>
      <trkpt lat="44.08955" lon="3.13634">
        <ele>730.1</ele>
        <time>2019-05-31T13:36:27Z</time>
      </trkpt>
      <trkpt lat="44.08952" lon="3.13634">
        <ele>730</ele>
        <time>2019-05-31T13:36:30Z</time>
      </trkpt>
      <trkpt lat="44.08949" lon="3.13633">
        <ele>729.9</ele>
        <time>2019-05-31T13:36:31Z</time>
      </trkpt>
      <trkpt lat="44.08945" lon="3.13639">
        <ele>729.7</ele>
        <time>2019-05-31T13:36:32Z</time>
      </trkpt>
      <trkpt lat="44.08938" lon="3.13639">
        <ele>729.6</ele>
        <time>2019-05-31T13:36:33Z</time>
      </trkpt>
      <trkpt lat="44.08934" lon="3.13636">
        <ele>729.4</ele>
        <time>2019-05-31T13:36:35Z</time>
      </trkpt>
      <trkpt lat="44.08933" lon="3.13631">
        <ele>729.3</ele>
        <time>2019-05-31T13:36:36Z</time>
      </trkpt>
      <trkpt lat="44.08932" lon="3.13618">
        <ele>726.9</ele>
        <time>2019-05-31T13:36:37Z</time>
      </trkpt>
      <trkpt lat="44.08935" lon="3.13608">
        <ele>726</ele>
        <time>2019-05-31T13:36:38Z</time>
      </trkpt>
      <trkpt lat="44.08938" lon="3.13601">
        <ele>725.3</ele>
        <time>2019-05-31T13:36:39Z</time>
      </trkpt>
      <trkpt lat="44.08939" lon="3.13596">
        <ele>725</ele>
        <time>2019-05-31T13:36:40Z</time>
      </trkpt>
      <trkpt lat="44.08939" lon="3.13591">
        <ele>724.5</ele>
        <time>2019-05-31T13:36:41Z</time>
      </trkpt>
      <trkpt lat="44.0894" lon="3.13587">
        <ele>723.9</ele>
        <time>2019-05-31T13:36:42Z</time>
      </trkpt>
      <trkpt lat="44.08941" lon="3.13582">
        <ele>723.3</ele>
        <time>2019-05-31T13:36:44Z</time>
      </trkpt>
      <trkpt lat="44.08943" lon="3.13579">
        <ele>722.8</ele>
        <time>2019-05-31T13:36:45Z</time>
      </trkpt>
      <trkpt lat="44.08945" lon="3.13576">
        <ele>722.3</ele>
        <time>2019-05-31T13:36:49Z</time>
      </trkpt>
      <trkpt lat="44.08946" lon="3.1357">
        <ele>721.5</ele>
        <time>2019-05-31T13:37:58Z</time>
      </trkpt>
      <trkpt lat="44.08947" lon="3.13566">
        <ele>720.9</ele>
        <time>2019-05-31T13:37:59Z</time>
      </trkpt>
      <trkpt lat="44.08948" lon="3.1356">
        <ele>720.3</ele>
        <time>2019-05-31T13:38:00Z</time>
      </trkpt>
      <trkpt lat="44.08949" lon="3.13556">
        <ele>719.8</ele>
        <time>2019-05-31T13:38:01Z</time>
      </trkpt>
      <trkpt lat="44.08948" lon="3.13552">
        <ele>719.4</ele>
        <time>2019-05-31T13:38:02Z</time>
      </trkpt>
      <trkpt lat="44.08946" lon="3.13547">
        <ele>719</ele>
        <time>2019-05-31T13:38:03Z</time>
      </trkpt>
      <trkpt lat="44.08935" lon="3.13544">
        <ele>717.7</ele>
        <time>2019-05-31T13:38:04Z</time>
      </trkpt>
      <trkpt lat="44.08931" lon="3.13543">
        <ele>716.7</ele>
        <time>2019-05-31T13:38:05Z</time>
      </trkpt>
      <trkpt lat="44.08924" lon="3.1354">
        <ele>715.2</ele>
        <time>2019-05-31T13:38:06Z</time>
      </trkpt>
      <trkpt lat="44.08918" lon="3.13537">
        <ele>714</ele>
        <time>2019-05-31T13:38:07Z</time>
      </trkpt>
      <trkpt lat="44.08912" lon="3.13532">
        <ele>712</ele>
        <time>2019-05-31T13:38:08Z</time>
      </trkpt>
      <trkpt lat="44.08903" lon="3.13527">
        <ele>709.6</ele>
        <time>2019-05-31T13:38:09Z</time>
      </trkpt>
      <trkpt lat="44.08898" lon="3.13523">
        <ele>708.2</ele>
        <time>2019-05-31T13:38:10Z</time>
      </trkpt>
      <trkpt lat="44.08893" lon="3.13518">
        <ele>702.3</ele>
        <time>2019-05-31T13:38:11Z</time>
      </trkpt>
      <trkpt lat="44.08888" lon="3.13515">
        <ele>701.4</ele>
        <time>2019-05-31T13:38:14Z</time>
      </trkpt>
      <trkpt lat="44.08885" lon="3.13513">
        <ele>700.9</ele>
        <time>2019-05-31T13:38:21Z</time>
      </trkpt>
      <trkpt lat="44.0889" lon="3.13516">
        <ele>699.9</ele>
        <time>2019-05-31T13:40:51Z</time>
      </trkpt>
      <trkpt lat="44.08892" lon="3.13516">
        <ele>699.3</ele>
        <time>2019-05-31T13:40:52Z</time>
      </trkpt>
      <trkpt lat="44.08898" lon="3.13514">
        <ele>698.3</ele>
        <time>2019-05-31T13:40:54Z</time>
      </trkpt>
      <trkpt lat="44.08901" lon="3.13514">
        <ele>697.9</ele>
        <time>2019-05-31T13:40:55Z</time>
      </trkpt>
      <trkpt lat="44.08905" lon="3.13512">
        <ele>697.3</ele>
        <time>2019-05-31T13:40:56Z</time>
      </trkpt>
      <trkpt lat="44.08914" lon="3.13503">
        <ele>695.7</ele>
        <time>2019-05-31T13:40:57Z</time>
      </trkpt>
      <trkpt lat="44.08919" lon="3.13498">
        <ele>694.5</ele>
        <time>2019-05-31T13:40:58Z</time>
      </trkpt>
      <trkpt lat="44.08926" lon="3.13488">
        <ele>692.1</ele>
        <time>2019-05-31T13:40:59Z</time>
      </trkpt>
      <trkpt lat="44.08928" lon="3.13481">
        <ele>690.8</ele>
        <time>2019-05-31T13:41:00Z</time>
      </trkpt>
      <trkpt lat="44.08928" lon="3.13475">
        <ele>689.6</ele>
        <time>2019-05-31T13:41:01Z</time>
      </trkpt>
      <trkpt lat="44.08931" lon="3.13471">
        <ele>688.4</ele>
        <time>2019-05-31T13:41:02Z</time>
      </trkpt>
      <trkpt lat="44.0893" lon="3.1346">
        <ele>686</ele>
        <time>2019-05-31T13:41:03Z</time>
      </trkpt>
      <trkpt lat="44.0893" lon="3.13455">
        <ele>684.6</ele>
        <time>2019-05-31T13:41:04Z</time>
      </trkpt>
      <trkpt lat="44.08934" lon="3.13454">
        <ele>683.3</ele>
        <time>2019-05-31T13:41:06Z</time>
      </trkpt>
      <trkpt lat="44.08938" lon="3.1345">
        <ele>681.7</ele>
        <time>2019-05-31T13:41:08Z</time>
      </trkpt>
      <trkpt lat="44.08943" lon="3.13447">
        <ele>680</ele>
        <time>2019-05-31T13:41:10Z</time>
      </trkpt>
      <trkpt lat="44.08948" lon="3.13443">
        <ele>678.4</ele>
        <time>2019-05-31T13:41:12Z</time>
      </trkpt>
      <trkpt lat="44.08951" lon="3.13442">
        <ele>677.3</ele>
        <time>2019-05-31T13:41:13Z</time>
      </trkpt>
      <trkpt lat="44.08953" lon="3.1344">
        <ele>676.2</ele>
        <time>2019-05-31T13:41:14Z</time>
      </trkpt>
      <trkpt lat="44.08956" lon="3.13438">
        <ele>675.1</ele>
        <time>2019-05-31T13:41:15Z</time>
      </trkpt>
      <trkpt lat="44.08959" lon="3.13436">
        <ele>673.9</ele>
        <time>2019-05-31T13:41:16Z</time>
      </trkpt>
      <trkpt lat="44.08966" lon="3.13435">
        <ele>671.6</ele>
        <time>2019-05-31T13:41:17Z</time>
      </trkpt>
      <trkpt lat="44.08969" lon="3.13432">
        <ele>670.2</ele>
        <time>2019-05-31T13:41:18Z</time>
      </trkpt>
      <trkpt lat="44.08972" lon="3.13427">
        <ele>668.7</ele>
        <time>2019-05-31T13:41:19Z</time>
      </trkpt>
      <trkpt lat="44.08973" lon="3.13422">
        <ele>667.6</ele>
        <time>2019-05-31T13:41:20Z</time>
      </trkpt>
      <trkpt lat="44.08975" lon="3.13417">
        <ele>666.6</ele>
        <time>2019-05-31T13:41:21Z</time>
      </trkpt>
      <trkpt lat="44.08976" lon="3.13412">
        <ele>665.5</ele>
        <time>2019-05-31T13:41:22Z</time>
      </trkpt>
      <trkpt lat="44.08979" lon="3.13407">
        <ele>664.2</ele>
        <time>2019-05-31T13:41:23Z</time>
      </trkpt>
      <trkpt lat="44.08982" lon="3.134">
        <ele>662.1</ele>
        <time>2019-05-31T13:41:24Z</time>
      </trkpt>
      <trkpt lat="44.08983" lon="3.13393">
        <ele>660.8</ele>
        <time>2019-05-31T13:41:25Z</time>
      </trkpt>
      <trkpt lat="44.08982" lon="3.13385">
        <ele>659.2</ele>
        <time>2019-05-31T13:41:26Z</time>
      </trkpt>
      <trkpt lat="44.08981" lon="3.13381">
        <ele>658.5</ele>
        <time>2019-05-31T13:41:27Z</time>
      </trkpt>
      <trkpt lat="44.08975" lon="3.13377">
        <ele>657</ele>
        <time>2019-05-31T13:41:31Z</time>
      </trkpt>
      <trkpt lat="44.08972" lon="3.13376">
        <ele>656.1</ele>
        <time>2019-05-31T13:41:32Z</time>
      </trkpt>
      <trkpt lat="44.08966" lon="3.13375">
        <ele>654.5</ele>
        <time>2019-05-31T13:41:33Z</time>
      </trkpt>
      <trkpt lat="44.0896" lon="3.13375">
        <ele>653.3</ele>
        <time>2019-05-31T13:41:34Z</time>
      </trkpt>
      <trkpt lat="44.08956" lon="3.13375">
        <ele>652.3</ele>
        <time>2019-05-31T13:41:35Z</time>
      </trkpt>
      <trkpt lat="44.08957" lon="3.13381">
        <ele>651.3</ele>
        <time>2019-05-31T13:41:36Z</time>
      </trkpt>
      <trkpt lat="44.08955" lon="3.13378">
        <ele>650.5</ele>
        <time>2019-05-31T13:41:37Z</time>
      </trkpt>
      <trkpt lat="44.08952" lon="3.13374">
        <ele>649.3</ele>
        <time>2019-05-31T13:41:38Z</time>
      </trkpt>
      <trkpt lat="44.0895" lon="3.13371">
        <ele>648.6</ele>
        <time>2019-05-31T13:41:41Z</time>
      </trkpt>
      <trkpt lat="44.0895" lon="3.13377">
        <ele>647.6</ele>
        <time>2019-05-31T13:41:43Z</time>
      </trkpt>
      <trkpt lat="44.08944" lon="3.13381">
        <ele>646</ele>
        <time>2019-05-31T13:41:44Z</time>
      </trkpt>
      <trkpt lat="44.0894" lon="3.13383">
        <ele>644.9</ele>
        <time>2019-05-31T13:41:45Z</time>
      </trkpt>
      <trkpt lat="44.08931" lon="3.13385">
        <ele>643.1</ele>
        <time>2019-05-31T13:41:46Z</time>
      </trkpt>
      <trkpt lat="44.08926" lon="3.13383">
        <ele>642.3</ele>
        <time>2019-05-31T13:41:47Z</time>
      </trkpt>
      <trkpt lat="44.08921" lon="3.1338">
        <ele>641.5</ele>
        <time>2019-05-31T13:41:48Z</time>
      </trkpt>
      <trkpt lat="44.08918" lon="3.13378">
        <ele>640.8</ele>
        <time>2019-05-31T13:41:49Z</time>
      </trkpt>
      <trkpt lat="44.08913" lon="3.13376">
        <ele>640</ele>
        <time>2019-05-31T13:41:50Z</time>
      </trkpt>
      <trkpt lat="44.08905" lon="3.13372">
        <ele>638.9</ele>
        <time>2019-05-31T13:41:51Z</time>
      </trkpt>
      <trkpt lat="44.08899" lon="3.1337">
        <ele>638</ele>
        <time>2019-05-31T13:41:52Z</time>
      </trkpt>
      <trkpt lat="44.08894" lon="3.13365">
        <ele>637</ele>
        <time>2019-05-31T13:41:53Z</time>
      </trkpt>
      <trkpt lat="44.0889" lon="3.13359">
        <ele>635.7</ele>
        <time>2019-05-31T13:41:54Z</time>
      </trkpt>
      <trkpt lat="44.08886" lon="3.13354">
        <ele>634.4</ele>
        <time>2019-05-31T13:41:55Z</time>
      </trkpt>
      <trkpt lat="44.08883" lon="3.13353">
        <ele>633.6</ele>
        <time>2019-05-31T13:41:56Z</time>
      </trkpt>
      <trkpt lat="44.0888" lon="3.13353">
        <ele>632.8</ele>
        <time>2019-05-31T13:41:58Z</time>
      </trkpt>
      <trkpt lat="44.08877" lon="3.1335">
        <ele>631.8</ele>
        <time>2019-05-31T13:42:00Z</time>
      </trkpt>
      <trkpt lat="44.08874" lon="3.13346">
        <ele>630.7</ele>
        <time>2019-05-31T13:42:02Z</time>
      </trkpt>
      <trkpt lat="44.08871" lon="3.13347">
        <ele>629.8</ele>
        <time>2019-05-31T13:42:04Z</time>
      </trkpt>
      <trkpt lat="44.08869" lon="3.13349">
        <ele>629</ele>
        <time>2019-05-31T13:42:06Z</time>
      </trkpt>
      <trkpt lat="44.08866" lon="3.13351">
        <ele>628.1</ele>
        <time>2019-05-31T13:42:11Z</time>
      </trkpt>
      <trkpt lat="44.08859" lon="3.13356">
        <ele>625.5</ele>
        <time>2019-05-31T13:43:50Z</time>
      </trkpt>
      <trkpt lat="44.08856" lon="3.13355">
        <ele>624.6</ele>
        <time>2019-05-31T13:43:51Z</time>
      </trkpt>
      <trkpt lat="44.08852" lon="3.13353">
        <ele>623.6</ele>
        <time>2019-05-31T13:43:52Z</time>
      </trkpt>
      <trkpt lat="44.08849" lon="3.13351">
        <ele>622.4</ele>
        <time>2019-05-31T13:43:53Z</time>
      </trkpt>
      <trkpt lat="44.08845" lon="3.13349">
        <ele>621.4</ele>
        <time>2019-05-31T13:43:54Z</time>
      </trkpt>
      <trkpt lat="44.08841" lon="3.13347">
        <ele>620.3</ele>
        <time>2019-05-31T13:43:55Z</time>
      </trkpt>
      <trkpt lat="44.08837" lon="3.13344">
        <ele>618.8</ele>
        <time>2019-05-31T13:43:56Z</time>
      </trkpt>
      <trkpt lat="44.08833" lon="3.13341">
        <ele>617.5</ele>
        <time>2019-05-31T13:43:57Z</time>
      </trkpt>
      <trkpt lat="44.0883" lon="3.13338">
        <ele>616.6</ele>
        <time>2019-05-31T13:43:58Z</time>
      </trkpt>
      <trkpt lat="44.08828" lon="3.13335">
        <ele>615.9</ele>
        <time>2019-05-31T13:43:59Z</time>
      </trkpt>
      <trkpt lat="44.08826" lon="3.13332">
        <ele>615.2</ele>
        <time>2019-05-31T13:44:00Z</time>
      </trkpt>
      <trkpt lat="44.08822" lon="3.13328">
        <ele>613.5</ele>
        <time>2019-05-31T13:44:02Z</time>
      </trkpt>
      <trkpt lat="44.0882" lon="3.13326">
        <ele>612.3</ele>
        <time>2019-05-31T13:44:05Z</time>
      </trkpt>
      <trkpt lat="44.0882" lon="3.13322">
        <ele>611.2</ele>
        <time>2019-05-31T13:44:11Z</time>
      </trkpt>
      <trkpt lat="44.08817" lon="3.13324">
        <ele>609.8</ele>
        <time>2019-05-31T13:44:16Z</time>
      </trkpt>
      <trkpt lat="44.08815" lon="3.13319">
        <ele>608.3</ele>
        <time>2019-05-31T13:45:21Z</time>
      </trkpt>
      <trkpt lat="44.08819" lon="3.13317">
        <ele>607</ele>
        <time>2019-05-31T13:45:23Z</time>
      </trkpt>
      <trkpt lat="44.08822" lon="3.13316">
        <ele>605.7</ele>
        <time>2019-05-31T13:45:24Z</time>
      </trkpt>
      <trkpt lat="44.08825" lon="3.13311">
        <ele>603.9</ele>
        <time>2019-05-31T13:45:25Z</time>
      </trkpt>
      <trkpt lat="44.08828" lon="3.13308">
        <ele>602.4</ele>
        <time>2019-05-31T13:45:26Z</time>
      </trkpt>
      <trkpt lat="44.08831" lon="3.13304">
        <ele>601.1</ele>
        <time>2019-05-31T13:45:27Z</time>
      </trkpt>
      <trkpt lat="44.08835" lon="3.133">
        <ele>599.1</ele>
        <time>2019-05-31T13:45:29Z</time>
      </trkpt>
      <trkpt lat="44.08837" lon="3.13297">
        <ele>598</ele>
        <time>2019-05-31T13:45:30Z</time>
      </trkpt>
      <trkpt lat="44.0884" lon="3.13295">
        <ele>596.8</ele>
        <time>2019-05-31T13:45:31Z</time>
      </trkpt>
      <trkpt lat="44.08844" lon="3.13292">
        <ele>595.5</ele>
        <time>2019-05-31T13:45:32Z</time>
      </trkpt>
      <trkpt lat="44.08848" lon="3.1329">
        <ele>594.4</ele>
        <time>2019-05-31T13:45:33Z</time>
      </trkpt>
      <trkpt lat="44.08851" lon="3.13289">
        <ele>593.3</ele>
        <time>2019-05-31T13:45:34Z</time>
      </trkpt>
      <trkpt lat="44.08855" lon="3.13287">
        <ele>592.1</ele>
        <time>2019-05-31T13:45:35Z</time>
      </trkpt>
      <trkpt lat="44.08858" lon="3.13285">
        <ele>591.2</ele>
        <time>2019-05-31T13:45:36Z</time>
      </trkpt>
      <trkpt lat="44.0886" lon="3.1328">
        <ele>590</ele>
        <time>2019-05-31T13:45:38Z</time>
      </trkpt>
      <trkpt lat="44.08862" lon="3.13275">
        <ele>588.8</ele>
        <time>2019-05-31T13:45:40Z</time>
      </trkpt>
      <trkpt lat="44.08861" lon="3.13271">
        <ele>587.9</ele>
        <time>2019-05-31T13:45:42Z</time>
      </trkpt>
      <trkpt lat="44.08863" lon="3.13267">
        <ele>587.1</ele>
        <time>2019-05-31T13:45:50Z</time>
      </trkpt>
      <trkpt lat="44.08864" lon="3.13263">
        <ele>586</ele>
        <time>2019-05-31T13:45:56Z</time>
      </trkpt>
      <trkpt lat="44.08868" lon="3.13259">
        <ele>585</ele>
        <time>2019-05-31T13:45:58Z</time>
      </trkpt>
      <trkpt lat="44.08872" lon="3.13257">
        <ele>583.8</ele>
        <time>2019-05-31T13:46:00Z</time>
      </trkpt>
      <trkpt lat="44.08874" lon="3.13255">
        <ele>583</ele>
        <time>2019-05-31T13:46:01Z</time>
      </trkpt>
      <trkpt lat="44.08877" lon="3.1325">
        <ele>581.9</ele>
        <time>2019-05-31T13:46:03Z</time>
      </trkpt>
      <trkpt lat="44.0888" lon="3.13247">
        <ele>580.6</ele>
        <time>2019-05-31T13:46:05Z</time>
      </trkpt>
      <trkpt lat="44.08884" lon="3.13246">
        <ele>579.5</ele>
        <time>2019-05-31T13:46:07Z</time>
      </trkpt>
      <trkpt lat="44.08887" lon="3.13246">
        <ele>578.7</ele>
        <time>2019-05-31T13:46:09Z</time>
      </trkpt>
      <trkpt lat="44.08887" lon="3.13242">
        <ele>577.7</ele>
        <time>2019-05-31T13:46:11Z</time>
      </trkpt>
      <trkpt lat="44.08886" lon="3.13236">
        <ele>576.3</ele>
        <time>2019-05-31T13:46:13Z</time>
      </trkpt>
      <trkpt lat="44.08886" lon="3.1323">
        <ele>574.6</ele>
        <time>2019-05-31T13:46:15Z</time>
      </trkpt>
      <trkpt lat="44.08885" lon="3.13224">
        <ele>573.4</ele>
        <time>2019-05-31T13:46:17Z</time>
      </trkpt>
      <trkpt lat="44.08886" lon="3.13217">
        <ele>571.6</ele>
        <time>2019-05-31T13:46:19Z</time>
      </trkpt>
      <trkpt lat="44.0889" lon="3.13211">
        <ele>569.7</ele>
        <time>2019-05-31T13:46:21Z</time>
      </trkpt>
      <trkpt lat="44.08892" lon="3.13208">
        <ele>568.8</ele>
        <time>2019-05-31T13:46:22Z</time>
      </trkpt>
      <trkpt lat="44.08895" lon="3.13206">
        <ele>567.8</ele>
        <time>2019-05-31T13:46:23Z</time>
      </trkpt>
      <trkpt lat="44.08898" lon="3.13203">
        <ele>567</ele>
        <time>2019-05-31T13:46:24Z</time>
      </trkpt>
      <trkpt lat="44.089" lon="3.132">
        <ele>566.2</ele>
        <time>2019-05-31T13:46:25Z</time>
      </trkpt>
      <trkpt lat="44.08902" lon="3.13196">
        <ele>565.3</ele>
        <time>2019-05-31T13:46:26Z</time>
      </trkpt>
      <trkpt lat="44.08904" lon="3.13192">
        <ele>564.5</ele>
        <time>2019-05-31T13:46:27Z</time>
      </trkpt>
      <trkpt lat="44.08905" lon="3.13188">
        <ele>563.8</ele>
        <time>2019-05-31T13:46:28Z</time>
      </trkpt>
      <trkpt lat="44.08907" lon="3.13184">
        <ele>563.1</ele>
        <time>2019-05-31T13:46:29Z</time>
      </trkpt>
      <trkpt lat="44.08909" lon="3.1318">
        <ele>562.2</ele>
        <time>2019-05-31T13:46:30Z</time>
      </trkpt>
      <trkpt lat="44.08912" lon="3.13176">
        <ele>561.2</ele>
        <time>2019-05-31T13:46:31Z</time>
      </trkpt>
      <trkpt lat="44.08914" lon="3.13173">
        <ele>560.4</ele>
        <time>2019-05-31T13:46:32Z</time>
      </trkpt>
      <trkpt lat="44.08917" lon="3.13169">
        <ele>559.4</ele>
        <time>2019-05-31T13:46:33Z</time>
      </trkpt>
      <trkpt lat="44.0892" lon="3.13165">
        <ele>558.5</ele>
        <time>2019-05-31T13:46:34Z</time>
      </trkpt>
      <trkpt lat="44.08922" lon="3.13162">
        <ele>557.7</ele>
        <time>2019-05-31T13:46:35Z</time>
      </trkpt>
      <trkpt lat="44.08925" lon="3.13159">
        <ele>556.8</ele>
        <time>2019-05-31T13:46:36Z</time>
      </trkpt>
      <trkpt lat="44.08928" lon="3.13156">
        <ele>556</ele>
        <time>2019-05-31T13:46:37Z</time>
      </trkpt>
      <trkpt lat="44.08932" lon="3.13153">
        <ele>554.8</ele>
        <time>2019-05-31T13:46:39Z</time>
      </trkpt>
      <trkpt lat="44.08935" lon="3.1315">
        <ele>553.8</ele>
        <time>2019-05-31T13:46:40Z</time>
      </trkpt>
      <trkpt lat="44.08939" lon="3.13146">
        <ele>552.5</ele>
        <time>2019-05-31T13:46:41Z</time>
      </trkpt>
      <trkpt lat="44.08943" lon="3.13143">
        <ele>551.4</ele>
        <time>2019-05-31T13:46:42Z</time>
      </trkpt>
      <trkpt lat="44.08946" lon="3.13139">
        <ele>550.5</ele>
        <time>2019-05-31T13:46:43Z</time>
      </trkpt>
      <trkpt lat="44.08949" lon="3.13134">
        <ele>549.4</ele>
        <time>2019-05-31T13:46:44Z</time>
      </trkpt>
      <trkpt lat="44.08953" lon="3.13129">
        <ele>548.2</ele>
        <time>2019-05-31T13:46:45Z</time>
      </trkpt>
      <trkpt lat="44.08955" lon="3.13125">
        <ele>547.2</ele>
        <time>2019-05-31T13:46:46Z</time>
      </trkpt>
      <trkpt lat="44.08958" lon="3.13121">
        <ele>546.4</ele>
        <time>2019-05-31T13:46:47Z</time>
      </trkpt>
      <trkpt lat="44.0896" lon="3.13117">
        <ele>545.4</ele>
        <time>2019-05-31T13:46:48Z</time>
      </trkpt>
      <trkpt lat="44.08963" lon="3.13113">
        <ele>544.7</ele>
        <time>2019-05-31T13:46:49Z</time>
      </trkpt>
      <trkpt lat="44.08964" lon="3.1311">
        <ele>544.1</ele>
        <time>2019-05-31T13:46:50Z</time>
      </trkpt>
      <trkpt lat="44.08966" lon="3.13107">
        <ele>543.4</ele>
        <time>2019-05-31T13:46:51Z</time>
      </trkpt>
      <trkpt lat="44.08968" lon="3.13104">
        <ele>542.7</ele>
        <time>2019-05-31T13:46:52Z</time>
      </trkpt>
      <trkpt lat="44.08971" lon="3.13102">
        <ele>541.8</ele>
        <time>2019-05-31T13:46:53Z</time>
      </trkpt>
      <trkpt lat="44.08974" lon="3.131">
        <ele>540.8</ele>
        <time>2019-05-31T13:46:54Z</time>
      </trkpt>
      <trkpt lat="44.08978" lon="3.13098">
        <ele>539.9</ele>
        <time>2019-05-31T13:46:55Z</time>
      </trkpt>
      <trkpt lat="44.08982" lon="3.13096">
        <ele>539.1</ele>
        <time>2019-05-31T13:46:56Z</time>
      </trkpt>
      <trkpt lat="44.08985" lon="3.13093">
        <ele>538.2</ele>
        <time>2019-05-31T13:46:57Z</time>
      </trkpt>
      <trkpt lat="44.08988" lon="3.13091">
        <ele>537.3</ele>
        <time>2019-05-31T13:46:58Z</time>
      </trkpt>
      <trkpt lat="44.08991" lon="3.13088">
        <ele>536.5</ele>
        <time>2019-05-31T13:46:59Z</time>
      </trkpt>
      <trkpt lat="44.08994" lon="3.13084">
        <ele>535.5</ele>
        <time>2019-05-31T13:47:00Z</time>
      </trkpt>
      <trkpt lat="44.08997" lon="3.1308">
        <ele>534.5</ele>
        <time>2019-05-31T13:47:01Z</time>
      </trkpt>
      <trkpt lat="44.08999" lon="3.13077">
        <ele>533.5</ele>
        <time>2019-05-31T13:47:02Z</time>
      </trkpt>
      <trkpt lat="44.09001" lon="3.13074">
        <ele>532.8</ele>
        <time>2019-05-31T13:47:03Z</time>
      </trkpt>
      <trkpt lat="44.09006" lon="3.1307">
        <ele>531.1</ele>
        <time>2019-05-31T13:47:05Z</time>
      </trkpt>
      <trkpt lat="44.09009" lon="3.13068">
        <ele>530.1</ele>
        <time>2019-05-31T13:47:06Z</time>
      </trkpt>
      <trkpt lat="44.09012" lon="3.13065">
        <ele>529.1</ele>
        <time>2019-05-31T13:47:07Z</time>
      </trkpt>
      <trkpt lat="44.09015" lon="3.13064">
        <ele>528.2</ele>
        <time>2019-05-31T13:47:08Z</time>
      </trkpt>
      <trkpt lat="44.09019" lon="3.13062">
        <ele>527.3</ele>
        <time>2019-05-31T13:47:09Z</time>
      </trkpt>
      <trkpt lat="44.09021" lon="3.1306">
        <ele>526.5</ele>
        <time>2019-05-31T13:47:10Z</time>
      </trkpt>
      <trkpt lat="44.09024" lon="3.13058">
        <ele>525.4</ele>
        <time>2019-05-31T13:47:11Z</time>
      </trkpt>
      <trkpt lat="44.09028" lon="3.13056">
        <ele>524.1</ele>
        <time>2019-05-31T13:47:12Z</time>
      </trkpt>
      <trkpt lat="44.09031" lon="3.13055">
        <ele>523</ele>
        <time>2019-05-31T13:47:13Z</time>
      </trkpt>
      <trkpt lat="44.09033" lon="3.13055">
        <ele>521.9</ele>
        <time>2019-05-31T13:47:14Z</time>
      </trkpt>
      <trkpt lat="44.09037" lon="3.13054">
        <ele>520</ele>
        <time>2019-05-31T13:47:15Z</time>
      </trkpt>
      <trkpt lat="44.09039" lon="3.13053">
        <ele>519.4</ele>
        <time>2019-05-31T13:47:16Z</time>
      </trkpt>
      <trkpt lat="44.09044" lon="3.13053">
        <ele>518.3</ele>
        <time>2019-05-31T13:47:18Z</time>
      </trkpt>
      <trkpt lat="44.09047" lon="3.13053">
        <ele>517.6</ele>
        <time>2019-05-31T13:47:19Z</time>
      </trkpt>
      <trkpt lat="44.09051" lon="3.13053">
        <ele>516.7</ele>
        <time>2019-05-31T13:47:20Z</time>
      </trkpt>
      <trkpt lat="44.09054" lon="3.13052">
        <ele>515.9</ele>
        <time>2019-05-31T13:47:21Z</time>
      </trkpt>
      <trkpt lat="44.09057" lon="3.1305">
        <ele>515.2</ele>
        <time>2019-05-31T13:47:22Z</time>
      </trkpt>
      <trkpt lat="44.09062" lon="3.1305">
        <ele>514.3</ele>
        <time>2019-05-31T13:47:24Z</time>
      </trkpt>
      <trkpt lat="44.09066" lon="3.13051">
        <ele>513.3</ele>
        <time>2019-05-31T13:47:26Z</time>
      </trkpt>
      <trkpt lat="44.09069" lon="3.1305">
        <ele>512.7</ele>
        <time>2019-05-31T13:47:28Z</time>
      </trkpt>
      <trkpt lat="44.09074" lon="3.13053">
        <ele>511.8</ele>
        <time>2019-05-31T13:47:31Z</time>
      </trkpt>
      <trkpt lat="44.09077" lon="3.13055">
        <ele>511.4</ele>
        <time>2019-05-31T13:47:34Z</time>
      </trkpt>
      <trkpt lat="44.09081" lon="3.13056">
        <ele>510.8</ele>
        <time>2019-05-31T13:47:36Z</time>
      </trkpt>
      <trkpt lat="44.09084" lon="3.13056">
        <ele>510.4</ele>
        <time>2019-05-31T13:47:38Z</time>
      </trkpt>
      <trkpt lat="44.09085" lon="3.13052">
        <ele>509.9</ele>
        <time>2019-05-31T13:47:40Z</time>
      </trkpt>
      <trkpt lat="44.09089" lon="3.13053">
        <ele>509.6</ele>
        <time>2019-05-31T13:47:52Z</time>
      </trkpt>
      <trkpt lat="44.09092" lon="3.13055">
        <ele>509.4</ele>
        <time>2019-05-31T13:47:53Z</time>
      </trkpt>
      <trkpt lat="44.09094" lon="3.13056">
        <ele>509.3</ele>
        <time>2019-05-31T13:47:54Z</time>
      </trkpt>
      <trkpt lat="44.09097" lon="3.13058">
        <ele>509.1</ele>
        <time>2019-05-31T13:47:55Z</time>
      </trkpt>
      <trkpt lat="44.09099" lon="3.13059">
        <ele>509</ele>
        <time>2019-05-31T13:47:56Z</time>
      </trkpt>
      <trkpt lat="44.09103" lon="3.13059">
        <ele>508.8</ele>
        <time>2019-05-31T13:47:58Z</time>
      </trkpt>
      <trkpt lat="44.09106" lon="3.13054">
        <ele>508.5</ele>
        <time>2019-05-31T13:48:00Z</time>
      </trkpt>
      <trkpt lat="44.09107" lon="3.1305">
        <ele>508.3</ele>
        <time>2019-05-31T13:48:02Z</time>
      </trkpt>
      <trkpt lat="44.09108" lon="3.13045">
        <ele>508.1</ele>
        <time>2019-05-31T13:48:05Z</time>
      </trkpt>
      <trkpt lat="44.09107" lon="3.13042">
        <ele>507.9</ele>
        <time>2019-05-31T13:48:15Z</time>
      </trkpt>
      <trkpt lat="44.09108" lon="3.13036">
        <ele>507.6</ele>
        <time>2019-05-31T13:48:19Z</time>
      </trkpt>
      <trkpt lat="44.0911" lon="3.13033">
        <ele>507.3</ele>
        <time>2019-05-31T13:48:20Z</time>
      </trkpt>
      <trkpt lat="44.09112" lon="3.13029">
        <ele>507.1</ele>
        <time>2019-05-31T13:48:21Z</time>
      </trkpt>
      <trkpt lat="44.09114" lon="3.13026">
        <ele>506.9</ele>
        <time>2019-05-31T13:48:22Z</time>
      </trkpt>
      <trkpt lat="44.09118" lon="3.13023">
        <ele>505.7</ele>
        <time>2019-05-31T13:48:24Z</time>
      </trkpt>
      <trkpt lat="44.09122" lon="3.13016">
        <ele>505</ele>
        <time>2019-05-31T13:49:24Z</time>
      </trkpt>
      <trkpt lat="44.09127" lon="3.13015">
        <ele>504.5</ele>
        <time>2019-05-31T13:49:26Z</time>
      </trkpt>
      <trkpt lat="44.09131" lon="3.13015">
        <ele>504.1</ele>
        <time>2019-05-31T13:49:27Z</time>
      </trkpt>
      <trkpt lat="44.09135" lon="3.13016">
        <ele>503.6</ele>
        <time>2019-05-31T13:49:28Z</time>
      </trkpt>
      <trkpt lat="44.09147" lon="3.13012">
        <ele>502.9</ele>
        <time>2019-05-31T13:49:29Z</time>
      </trkpt>
      <trkpt lat="44.09155" lon="3.13013">
        <ele>502.6</ele>
        <time>2019-05-31T13:49:30Z</time>
      </trkpt>
      <trkpt lat="44.09163" lon="3.13011">
        <ele>502.3</ele>
        <time>2019-05-31T13:49:31Z</time>
      </trkpt>
      <trkpt lat="44.0917" lon="3.13012">
        <ele>502.1</ele>
        <time>2019-05-31T13:49:32Z</time>
      </trkpt>
      <trkpt lat="44.09176" lon="3.13013">
        <ele>501.8</ele>
        <time>2019-05-31T13:49:33Z</time>
      </trkpt>
      <trkpt lat="44.09181" lon="3.13011">
        <ele>501.5</ele>
        <time>2019-05-31T13:49:34Z</time>
      </trkpt>
      <trkpt lat="44.09186" lon="3.13009">
        <ele>501.2</ele>
        <time>2019-05-31T13:49:35Z</time>
      </trkpt>
      <trkpt lat="44.09191" lon="3.13005">
        <ele>500.8</ele>
        <time>2019-05-31T13:49:36Z</time>
      </trkpt>
      <trkpt lat="44.09195" lon="3.12995">
        <ele>499.5</ele>
        <time>2019-05-31T13:49:37Z</time>
      </trkpt>
      <trkpt lat="44.09201" lon="3.12986">
        <ele>498.3</ele>
        <time>2019-05-31T13:49:38Z</time>
      </trkpt>
      <trkpt lat="44.09206" lon="3.12984">
        <ele>497.3</ele>
        <time>2019-05-31T13:49:39Z</time>
      </trkpt>
      <trkpt lat="44.09215" lon="3.12979">
        <ele>495.6</ele>
        <time>2019-05-31T13:49:40Z</time>
      </trkpt>
      <trkpt lat="44.09222" lon="3.12976">
        <ele>494.2</ele>
        <time>2019-05-31T13:49:41Z</time>
      </trkpt>
      <trkpt lat="44.09231" lon="3.12971">
        <ele>492.6</ele>
        <time>2019-05-31T13:49:42Z</time>
      </trkpt>
      <trkpt lat="44.09238" lon="3.12964">
        <ele>491.2</ele>
        <time>2019-05-31T13:49:43Z</time>
      </trkpt>
      <trkpt lat="44.09245" lon="3.12959">
        <ele>489.9</ele>
        <time>2019-05-31T13:49:44Z</time>
      </trkpt>
      <trkpt lat="44.09251" lon="3.12954">
        <ele>488.7</ele>
        <time>2019-05-31T13:49:45Z</time>
      </trkpt>
      <trkpt lat="44.09259" lon="3.1295">
        <ele>487.4</ele>
        <time>2019-05-31T13:49:46Z</time>
      </trkpt>
      <trkpt lat="44.09265" lon="3.1295">
        <ele>487</ele>
        <time>2019-05-31T13:49:47Z</time>
      </trkpt>
      <trkpt lat="44.09271" lon="3.12948">
        <ele>486.6</ele>
        <time>2019-05-31T13:49:48Z</time>
      </trkpt>
      <trkpt lat="44.09266" lon="3.12944">
        <ele>486.2</ele>
        <time>2019-05-31T13:49:50Z</time>
      </trkpt>
      <trkpt lat="44.09264" lon="3.12941">
        <ele>485.9</ele>
        <time>2019-05-31T13:49:51Z</time>
      </trkpt>
      <trkpt lat="44.09263" lon="3.12934">
        <ele>485.6</ele>
        <time>2019-05-31T13:49:53Z</time>
      </trkpt>
      <trkpt lat="44.09266" lon="3.1293">
        <ele>485.3</ele>
        <time>2019-05-31T13:49:56Z</time>
      </trkpt>
      <trkpt lat="44.0927" lon="3.12934">
        <ele>484.9</ele>
        <time>2019-05-31T13:49:58Z</time>
      </trkpt>
      <trkpt lat="44.09273" lon="3.12933">
        <ele>484.3</ele>
        <time>2019-05-31T13:50:04Z</time>
      </trkpt>
      <trkpt lat="44.09276" lon="3.12931">
        <ele>483.8</ele>
        <time>2019-05-31T13:50:06Z</time>
      </trkpt>
      <trkpt lat="44.0928" lon="3.12929">
        <ele>483.3</ele>
        <time>2019-05-31T13:50:08Z</time>
      </trkpt>
      <trkpt lat="44.09283" lon="3.1293">
        <ele>482.7</ele>
        <time>2019-05-31T13:50:10Z</time>
      </trkpt>
      <trkpt lat="44.09281" lon="3.12927">
        <ele>482.1</ele>
        <time>2019-05-31T13:50:18Z</time>
      </trkpt>
      <trkpt lat="44.09284" lon="3.12927">
        <ele>481.3</ele>
        <time>2019-05-31T13:50:22Z</time>
      </trkpt>
      <trkpt lat="44.09289" lon="3.12926">
        <ele>480.4</ele>
        <time>2019-05-31T13:50:24Z</time>
      </trkpt>
      <trkpt lat="44.09292" lon="3.12925">
        <ele>479.8</ele>
        <time>2019-05-31T13:50:25Z</time>
      </trkpt>
      <trkpt lat="44.09294" lon="3.12924">
        <ele>479.4</ele>
        <time>2019-05-31T13:50:26Z</time>
      </trkpt>
      <trkpt lat="44.09298" lon="3.12922">
        <ele>478.8</ele>
        <time>2019-05-31T13:50:28Z</time>
      </trkpt>
      <trkpt lat="44.09302" lon="3.12922">
        <ele>478.3</ele>
        <time>2019-05-31T13:50:31Z</time>
      </trkpt>
      <trkpt lat="44.09305" lon="3.12917">
        <ele>477.6</ele>
        <time>2019-05-31T13:51:02Z</time>
      </trkpt>
      <trkpt lat="44.09306" lon="3.12914">
        <ele>477.2</ele>
        <time>2019-05-31T13:51:07Z</time>
      </trkpt>
      <trkpt lat="44.0931" lon="3.12916">
        <ele>476.9</ele>
        <time>2019-05-31T13:51:15Z</time>
      </trkpt>
      <trkpt lat="44.09313" lon="3.12919">
        <ele>476.5</ele>
        <time>2019-05-31T13:51:17Z</time>
      </trkpt>
      <trkpt lat="44.09317" lon="3.12921">
        <ele>476.2</ele>
        <time>2019-05-31T13:51:18Z</time>
      </trkpt>
      <trkpt lat="44.09321" lon="3.12922">
        <ele>475.7</ele>
        <time>2019-05-31T13:51:19Z</time>
      </trkpt>
      <trkpt lat="44.09325" lon="3.12921">
        <ele>475.3</ele>
        <time>2019-05-31T13:51:20Z</time>
      </trkpt>
      <trkpt lat="44.09328" lon="3.1292">
        <ele>475</ele>
        <time>2019-05-31T13:51:21Z</time>
      </trkpt>
      <trkpt lat="44.09333" lon="3.12919">
        <ele>474.5</ele>
        <time>2019-05-31T13:51:23Z</time>
      </trkpt>
      <trkpt lat="44.09337" lon="3.12918">
        <ele>474.1</ele>
        <time>2019-05-31T13:51:25Z</time>
      </trkpt>
      <trkpt lat="44.09339" lon="3.12915">
        <ele>473.8</ele>
        <time>2019-05-31T13:51:36Z</time>
      </trkpt>
      <trkpt lat="44.09343" lon="3.12916">
        <ele>473.2</ele>
        <time>2019-05-31T13:51:39Z</time>
      </trkpt>
      <trkpt lat="44.09349" lon="3.12918">
        <ele>472.5</ele>
        <time>2019-05-31T13:51:41Z</time>
      </trkpt>
      <trkpt lat="44.09352" lon="3.12919">
        <ele>472.2</ele>
        <time>2019-05-31T13:51:42Z</time>
      </trkpt>
      <trkpt lat="44.09354" lon="3.12919">
        <ele>471.8</ele>
        <time>2019-05-31T13:51:43Z</time>
      </trkpt>
      <trkpt lat="44.0936" lon="3.12923">
        <ele>470.8</ele>
        <time>2019-05-31T13:51:45Z</time>
      </trkpt>
      <trkpt lat="44.09363" lon="3.12925">
        <ele>470.3</ele>
        <time>2019-05-31T13:51:46Z</time>
      </trkpt>
      <trkpt lat="44.09366" lon="3.12927">
        <ele>469.9</ele>
        <time>2019-05-31T13:51:47Z</time>
      </trkpt>
      <trkpt lat="44.09369" lon="3.1293">
        <ele>469.3</ele>
        <time>2019-05-31T13:51:49Z</time>
      </trkpt>
      <trkpt lat="44.09369" lon="3.12934">
        <ele>468.9</ele>
        <time>2019-05-31T13:51:54Z</time>
      </trkpt>
      <trkpt lat="44.09368" lon="3.1293">
        <ele>468.4</ele>
        <time>2019-05-31T13:52:30Z</time>
      </trkpt>
      <trkpt lat="44.09368" lon="3.12926">
        <ele>468</ele>
        <time>2019-05-31T13:52:37Z</time>
      </trkpt>
      <trkpt lat="44.0937" lon="3.12932">
        <ele>467.3</ele>
        <time>2019-05-31T13:52:43Z</time>
      </trkpt>
      <trkpt lat="44.09373" lon="3.12935">
        <ele>466.8</ele>
        <time>2019-05-31T13:52:44Z</time>
      </trkpt>
      <trkpt lat="44.09375" lon="3.12938">
        <ele>466.3</ele>
        <time>2019-05-31T13:52:45Z</time>
      </trkpt>
      <trkpt lat="44.09378" lon="3.12941">
        <ele>465.9</ele>
        <time>2019-05-31T13:52:46Z</time>
      </trkpt>
      <trkpt lat="44.09382" lon="3.12944">
        <ele>465.4</ele>
        <time>2019-05-31T13:52:47Z</time>
      </trkpt>
      <trkpt lat="44.09385" lon="3.12947">
        <ele>465</ele>
        <time>2019-05-31T13:52:48Z</time>
      </trkpt>
      <trkpt lat="44.09385" lon="3.12942">
        <ele>464.8</ele>
        <time>2019-05-31T13:53:00Z</time>
      </trkpt>
      <trkpt lat="44.09383" lon="3.12936">
        <ele>464.5</ele>
        <time>2019-05-31T13:53:03Z</time>
      </trkpt>
      <trkpt lat="44.0938" lon="3.12932">
        <ele>464.2</ele>
        <time>2019-05-31T13:53:05Z</time>
      </trkpt>
      <trkpt lat="44.09381" lon="3.12936">
        <ele>463.9</ele>
        <time>2019-05-31T13:53:44Z</time>
      </trkpt>
      <trkpt lat="44.09384" lon="3.12939">
        <ele>463.6</ele>
        <time>2019-05-31T13:53:47Z</time>
      </trkpt>
      <trkpt lat="44.09388" lon="3.1294">
        <ele>463.2</ele>
        <time>2019-05-31T13:53:50Z</time>
      </trkpt>
      <trkpt lat="44.0939" lon="3.12942">
        <ele>463</ele>
        <time>2019-05-31T13:53:54Z</time>
      </trkpt>
      <trkpt lat="44.09389" lon="3.12946">
        <ele>462.7</ele>
        <time>2019-05-31T13:54:20Z</time>
      </trkpt>
      <trkpt lat="44.09392" lon="3.12949">
        <ele>462.5</ele>
        <time>2019-05-31T13:54:27Z</time>
      </trkpt>
      <trkpt lat="44.09396" lon="3.12952">
        <ele>462</ele>
        <time>2019-05-31T13:54:29Z</time>
      </trkpt>
      <trkpt lat="44.09401" lon="3.12954">
        <ele>461.5</ele>
        <time>2019-05-31T13:54:31Z</time>
      </trkpt>
      <trkpt lat="44.09404" lon="3.12955">
        <ele>461.2</ele>
        <time>2019-05-31T13:54:32Z</time>
      </trkpt>
      <trkpt lat="44.09408" lon="3.12956">
        <ele>460.7</ele>
        <time>2019-05-31T13:54:33Z</time>
      </trkpt>
      <trkpt lat="44.09413" lon="3.12957">
        <ele>460.2</ele>
        <time>2019-05-31T13:54:34Z</time>
      </trkpt>
      <trkpt lat="44.0942" lon="3.12958">
        <ele>459.5</ele>
        <time>2019-05-31T13:54:35Z</time>
      </trkpt>
      <trkpt lat="44.09426" lon="3.12959">
        <ele>458.7</ele>
        <time>2019-05-31T13:54:36Z</time>
      </trkpt>
      <trkpt lat="44.0943" lon="3.12959">
        <ele>458.3</ele>
        <time>2019-05-31T13:54:37Z</time>
      </trkpt>
      <trkpt lat="44.09434" lon="3.12959">
        <ele>457.9</ele>
        <time>2019-05-31T13:54:39Z</time>
      </trkpt>
      <trkpt lat="44.09437" lon="3.1296">
        <ele>457.6</ele>
        <time>2019-05-31T13:54:40Z</time>
      </trkpt>
      <trkpt lat="44.0944" lon="3.1296">
        <ele>457.3</ele>
        <time>2019-05-31T13:54:41Z</time>
      </trkpt>
      <trkpt lat="44.09446" lon="3.12955">
        <ele>456.6</ele>
        <time>2019-05-31T13:54:42Z</time>
      </trkpt>
      <trkpt lat="44.0945" lon="3.12953">
        <ele>456.1</ele>
        <time>2019-05-31T13:54:44Z</time>
      </trkpt>
      <trkpt lat="44.09453" lon="3.12949">
        <ele>455.7</ele>
        <time>2019-05-31T13:54:45Z</time>
      </trkpt>
      <trkpt lat="44.09455" lon="3.12945">
        <ele>455.3</ele>
        <time>2019-05-31T13:54:47Z</time>
      </trkpt>
      <trkpt lat="44.09459" lon="3.12943">
        <ele>454.8</ele>
        <time>2019-05-31T13:54:49Z</time>
      </trkpt>
      <trkpt lat="44.09462" lon="3.1294">
        <ele>454.3</ele>
        <time>2019-05-31T13:54:50Z</time>
      </trkpt>
      <trkpt lat="44.09466" lon="3.12935">
        <ele>453.8</ele>
        <time>2019-05-31T13:54:51Z</time>
      </trkpt>
      <trkpt lat="44.09469" lon="3.1293">
        <ele>453.5</ele>
        <time>2019-05-31T13:54:52Z</time>
      </trkpt>
      <trkpt lat="44.09472" lon="3.12925">
        <ele>453.1</ele>
        <time>2019-05-31T13:54:53Z</time>
      </trkpt>
      <trkpt lat="44.09475" lon="3.12919">
        <ele>452.7</ele>
        <time>2019-05-31T13:54:54Z</time>
      </trkpt>
      <trkpt lat="44.09477" lon="3.12914">
        <ele>452.4</ele>
        <time>2019-05-31T13:54:55Z</time>
      </trkpt>
      <trkpt lat="44.0948" lon="3.1291">
        <ele>452</ele>
        <time>2019-05-31T13:54:56Z</time>
      </trkpt>
      <trkpt lat="44.09483" lon="3.12906">
        <ele>451.7</ele>
        <time>2019-05-31T13:54:57Z</time>
      </trkpt>
      <trkpt lat="44.09485" lon="3.12903">
        <ele>451.4</ele>
        <time>2019-05-31T13:54:58Z</time>
      </trkpt>
      <trkpt lat="44.09488" lon="3.12899">
        <ele>450.9</ele>
        <time>2019-05-31T13:54:59Z</time>
      </trkpt>
      <trkpt lat="44.09492" lon="3.12895">
        <ele>450.5</ele>
        <time>2019-05-31T13:55:00Z</time>
      </trkpt>
      <trkpt lat="44.09495" lon="3.12891">
        <ele>450.1</ele>
        <time>2019-05-31T13:55:01Z</time>
      </trkpt>
      <trkpt lat="44.09498" lon="3.12887">
        <ele>449.7</ele>
        <time>2019-05-31T13:55:02Z</time>
      </trkpt>
      <trkpt lat="44.095" lon="3.12883">
        <ele>449.3</ele>
        <time>2019-05-31T13:55:03Z</time>
      </trkpt>
      <trkpt lat="44.09502" lon="3.1288">
        <ele>449</ele>
        <time>2019-05-31T13:55:04Z</time>
      </trkpt>
      <trkpt lat="44.09505" lon="3.12875">
        <ele>448.6</ele>
        <time>2019-05-31T13:55:06Z</time>
      </trkpt>
      <trkpt lat="44.09505" lon="3.12871">
        <ele>448.3</ele>
        <time>2019-05-31T13:55:08Z</time>
      </trkpt>
      <trkpt lat="44.09505" lon="3.12865">
        <ele>447.9</ele>
        <time>2019-05-31T13:55:10Z</time>
      </trkpt>
      <trkpt lat="44.09505" lon="3.12861">
        <ele>447.6</ele>
        <time>2019-05-31T13:55:11Z</time>
      </trkpt>
      <trkpt lat="44.09505" lon="3.12856">
        <ele>447.4</ele>
        <time>2019-05-31T13:55:12Z</time>
      </trkpt>
      <trkpt lat="44.09506" lon="3.12851">
        <ele>447.3</ele>
        <time>2019-05-31T13:55:14Z</time>
      </trkpt>
      <trkpt lat="44.09507" lon="3.12847">
        <ele>447.3</ele>
        <time>2019-05-31T13:55:16Z</time>
      </trkpt>
      <trkpt lat="44.09508" lon="3.12844">
        <ele>447.2</ele>
        <time>2019-05-31T13:55:18Z</time>
      </trkpt>
      <trkpt lat="44.09512" lon="3.12841">
        <ele>447.3</ele>
        <time>2019-05-31T13:55:20Z</time>
      </trkpt>
      <trkpt lat="44.09515" lon="3.12839">
        <ele>447.5</ele>
        <time>2019-05-31T13:55:21Z</time>
      </trkpt>
      <trkpt lat="44.09518" lon="3.12838">
        <ele>447.6</ele>
        <time>2019-05-31T13:55:22Z</time>
      </trkpt>
      <trkpt lat="44.09522" lon="3.12836">
        <ele>447.9</ele>
        <time>2019-05-31T13:55:24Z</time>
      </trkpt>
      <trkpt lat="44.09525" lon="3.12833">
        <ele>448.1</ele>
        <time>2019-05-31T13:55:26Z</time>
      </trkpt>
      <trkpt lat="44.09528" lon="3.12832">
        <ele>448.3</ele>
        <time>2019-05-31T13:55:28Z</time>
      </trkpt>
      <trkpt lat="44.09532" lon="3.12832">
        <ele>448.4</ele>
        <time>2019-05-31T13:55:30Z</time>
      </trkpt>
      <trkpt lat="44.09533" lon="3.12829">
        <ele>448.5</ele>
        <time>2019-05-31T13:55:40Z</time>
      </trkpt>
      <trkpt lat="44.09533" lon="3.12825">
        <ele>448.6</ele>
        <time>2019-05-31T13:55:46Z</time>
      </trkpt>
      <trkpt lat="44.09534" lon="3.12822">
        <ele>448.6</ele>
        <time>2019-05-31T13:55:49Z</time>
      </trkpt>
      <trkpt lat="44.09533" lon="3.12818">
        <ele>448.6</ele>
        <time>2019-05-31T13:55:56Z</time>
      </trkpt>
      <trkpt lat="44.09538" lon="3.12815">
        <ele>448.7</ele>
        <time>2019-05-31T13:56:33Z</time>
      </trkpt>
      <trkpt lat="44.09541" lon="3.12815">
        <ele>448.7</ele>
        <time>2019-05-31T13:56:34Z</time>
      </trkpt>
      <trkpt lat="44.09549" lon="3.12815">
        <ele>448.7</ele>
        <time>2019-05-31T13:56:35Z</time>
      </trkpt>
      <trkpt lat="44.09553" lon="3.12817">
        <ele>448.7</ele>
        <time>2019-05-31T13:56:36Z</time>
      </trkpt>
      <trkpt lat="44.09556" lon="3.12823">
        <ele>448.8</ele>
        <time>2019-05-31T13:56:37Z</time>
      </trkpt>
      <trkpt lat="44.09562" lon="3.12822">
        <ele>448.9</ele>
        <time>2019-05-31T13:56:39Z</time>
      </trkpt>
      <trkpt lat="44.09567" lon="3.12823">
        <ele>448.9</ele>
        <time>2019-05-31T13:56:40Z</time>
      </trkpt>
      <trkpt lat="44.0957" lon="3.12822">
        <ele>449</ele>
        <time>2019-05-31T13:56:41Z</time>
      </trkpt>
      <trkpt lat="44.09575" lon="3.12817">
        <ele>449</ele>
        <time>2019-05-31T13:56:43Z</time>
      </trkpt>
      <trkpt lat="44.0958" lon="3.12817">
        <ele>449.1</ele>
        <time>2019-05-31T13:56:45Z</time>
      </trkpt>
      <trkpt lat="44.09585" lon="3.12818">
        <ele>449.1</ele>
        <time>2019-05-31T13:56:47Z</time>
      </trkpt>
      <trkpt lat="44.09588" lon="3.12817">
        <ele>449.1</ele>
        <time>2019-05-31T13:56:48Z</time>
      </trkpt>
      <trkpt lat="44.09593" lon="3.12815">
        <ele>449.1</ele>
        <time>2019-05-31T13:56:50Z</time>
      </trkpt>
      <trkpt lat="44.09596" lon="3.1281">
        <ele>449</ele>
        <time>2019-05-31T13:56:52Z</time>
      </trkpt>
      <trkpt lat="44.09599" lon="3.12809">
        <ele>449</ele>
        <time>2019-05-31T13:56:53Z</time>
      </trkpt>
      <trkpt lat="44.09605" lon="3.12809">
        <ele>448.9</ele>
        <time>2019-05-31T13:56:55Z</time>
      </trkpt>
      <trkpt lat="44.09609" lon="3.12809">
        <ele>448.8</ele>
        <time>2019-05-31T13:56:56Z</time>
      </trkpt>
      <trkpt lat="44.09613" lon="3.12808">
        <ele>448.7</ele>
        <time>2019-05-31T13:56:57Z</time>
      </trkpt>
      <trkpt lat="44.09617" lon="3.12807">
        <ele>448.6</ele>
        <time>2019-05-31T13:56:58Z</time>
      </trkpt>
      <trkpt lat="44.0962" lon="3.12807">
        <ele>448.4</ele>
        <time>2019-05-31T13:56:59Z</time>
      </trkpt>
      <trkpt lat="44.09624" lon="3.12807">
        <ele>448.2</ele>
        <time>2019-05-31T13:57:00Z</time>
      </trkpt>
      <trkpt lat="44.09628" lon="3.12807">
        <ele>447.8</ele>
        <time>2019-05-31T13:57:01Z</time>
      </trkpt>
      <trkpt lat="44.09631" lon="3.12805">
        <ele>447.5</ele>
        <time>2019-05-31T13:57:02Z</time>
      </trkpt>
      <trkpt lat="44.09635" lon="3.12804">
        <ele>446.9</ele>
        <time>2019-05-31T13:57:03Z</time>
      </trkpt>
      <trkpt lat="44.0964" lon="3.12802">
        <ele>446.3</ele>
        <time>2019-05-31T13:57:04Z</time>
      </trkpt>
      <trkpt lat="44.09643" lon="3.12801">
        <ele>445.7</ele>
        <time>2019-05-31T13:57:05Z</time>
      </trkpt>
      <trkpt lat="44.09647" lon="3.128">
        <ele>445</ele>
        <time>2019-05-31T13:57:06Z</time>
      </trkpt>
      <trkpt lat="44.0965" lon="3.128">
        <ele>444.3</ele>
        <time>2019-05-31T13:57:07Z</time>
      </trkpt>
      <trkpt lat="44.09655" lon="3.12798">
        <ele>443.2</ele>
        <time>2019-05-31T13:57:09Z</time>
      </trkpt>
      <trkpt lat="44.09658" lon="3.12797">
        <ele>442.4</ele>
        <time>2019-05-31T13:57:11Z</time>
      </trkpt>
      <trkpt lat="44.09662" lon="3.12796">
        <ele>441.5</ele>
        <time>2019-05-31T13:57:13Z</time>
      </trkpt>
      <trkpt lat="44.09665" lon="3.12797">
        <ele>440.6</ele>
        <time>2019-05-31T13:57:15Z</time>
      </trkpt>
      <trkpt lat="44.0967" lon="3.12798">
        <ele>439</ele>
        <time>2019-05-31T13:57:18Z</time>
      </trkpt>
      <trkpt lat="44.09673" lon="3.12801">
        <ele>437.9</ele>
        <time>2019-05-31T13:57:20Z</time>
      </trkpt>
      <trkpt lat="44.09677" lon="3.12801">
        <ele>436.7</ele>
        <time>2019-05-31T13:57:22Z</time>
      </trkpt>
      <trkpt lat="44.09682" lon="3.12798">
        <ele>435</ele>
        <time>2019-05-31T13:57:24Z</time>
      </trkpt>
      <trkpt lat="44.09684" lon="3.12794">
        <ele>434</ele>
        <time>2019-05-31T13:57:26Z</time>
      </trkpt>
      <trkpt lat="44.09684" lon="3.1279">
        <ele>433</ele>
        <time>2019-05-31T13:57:27Z</time>
      </trkpt>
      <trkpt lat="44.09683" lon="3.12785">
        <ele>432</ele>
        <time>2019-05-31T13:57:30Z</time>
      </trkpt>
      <trkpt lat="44.09685" lon="3.12781">
        <ele>431.1</ele>
        <time>2019-05-31T13:57:38Z</time>
      </trkpt>
      <trkpt lat="44.09687" lon="3.12779">
        <ele>430.4</ele>
        <time>2019-05-31T13:57:58Z</time>
      </trkpt>
      <trkpt lat="44.09691" lon="3.12784">
        <ele>429.1</ele>
        <time>2019-05-31T13:58:01Z</time>
      </trkpt>
      <trkpt lat="44.09694" lon="3.12788">
        <ele>428.1</ele>
        <time>2019-05-31T13:58:02Z</time>
      </trkpt>
      <trkpt lat="44.09697" lon="3.12793">
        <ele>427.2</ele>
        <time>2019-05-31T13:58:03Z</time>
      </trkpt>
      <trkpt lat="44.097" lon="3.12798">
        <ele>426.3</ele>
        <time>2019-05-31T13:58:04Z</time>
      </trkpt>
      <trkpt lat="44.09702" lon="3.12801">
        <ele>425.8</ele>
        <time>2019-05-31T13:58:05Z</time>
      </trkpt>
      <trkpt lat="44.09703" lon="3.12807">
        <ele>424.8</ele>
        <time>2019-05-31T13:58:07Z</time>
      </trkpt>
      <trkpt lat="44.09703" lon="3.12814">
        <ele>423.9</ele>
        <time>2019-05-31T13:58:09Z</time>
      </trkpt>
      <trkpt lat="44.09705" lon="3.12817">
        <ele>423.3</ele>
        <time>2019-05-31T13:58:12Z</time>
      </trkpt>
      <trkpt lat="44.09707" lon="3.1282">
        <ele>422.8</ele>
        <time>2019-05-31T13:58:13Z</time>
      </trkpt>
      <trkpt lat="44.09711" lon="3.12823">
        <ele>422.1</ele>
        <time>2019-05-31T13:58:14Z</time>
      </trkpt>
      <trkpt lat="44.09713" lon="3.12824">
        <ele>421.7</ele>
        <time>2019-05-31T13:58:15Z</time>
      </trkpt>
      <trkpt lat="44.09716" lon="3.12828">
        <ele>421.1</ele>
        <time>2019-05-31T13:58:17Z</time>
      </trkpt>
      <trkpt lat="44.09718" lon="3.12833">
        <ele>420.5</ele>
        <time>2019-05-31T13:58:19Z</time>
      </trkpt>
      <trkpt lat="44.09721" lon="3.12835">
        <ele>420</ele>
        <time>2019-05-31T13:58:23Z</time>
      </trkpt>
      <trkpt lat="44.09731" lon="3.12838">
        <ele>418.4</ele>
        <time>2019-05-31T13:58:59Z</time>
      </trkpt>
      <trkpt lat="44.09733" lon="3.1284">
        <ele>417.9</ele>
        <time>2019-05-31T13:59:00Z</time>
      </trkpt>
      <trkpt lat="44.09737" lon="3.12842">
        <ele>417.3</ele>
        <time>2019-05-31T13:59:01Z</time>
      </trkpt>
      <trkpt lat="44.09739" lon="3.12845">
        <ele>416.8</ele>
        <time>2019-05-31T13:59:02Z</time>
      </trkpt>
      <trkpt lat="44.09742" lon="3.12852">
        <ele>416.1</ele>
        <time>2019-05-31T13:59:04Z</time>
      </trkpt>
      <trkpt lat="44.09743" lon="3.12856">
        <ele>415.8</ele>
        <time>2019-05-31T13:59:05Z</time>
      </trkpt>
      <trkpt lat="44.09745" lon="3.12861">
        <ele>415.4</ele>
        <time>2019-05-31T13:59:06Z</time>
      </trkpt>
      <trkpt lat="44.09748" lon="3.12865">
        <ele>415.1</ele>
        <time>2019-05-31T13:59:07Z</time>
      </trkpt>
      <trkpt lat="44.09751" lon="3.12867">
        <ele>414.8</ele>
        <time>2019-05-31T13:59:08Z</time>
      </trkpt>
      <trkpt lat="44.09755" lon="3.12869">
        <ele>414.6</ele>
        <time>2019-05-31T13:59:09Z</time>
      </trkpt>
      <trkpt lat="44.09758" lon="3.1287">
        <ele>414.3</ele>
        <time>2019-05-31T13:59:10Z</time>
      </trkpt>
      <trkpt lat="44.09763" lon="3.12871">
        <ele>414.1</ele>
        <time>2019-05-31T13:59:11Z</time>
      </trkpt>
      <trkpt lat="44.09767" lon="3.12873">
        <ele>413.8</ele>
        <time>2019-05-31T13:59:12Z</time>
      </trkpt>
      <trkpt lat="44.09772" lon="3.12874">
        <ele>413.5</ele>
        <time>2019-05-31T13:59:13Z</time>
      </trkpt>
      <trkpt lat="44.09784" lon="3.12865">
        <ele>412</ele>
        <time>2019-05-31T13:59:14Z</time>
      </trkpt>
      <trkpt lat="44.09791" lon="3.1286">
        <ele>411.2</ele>
        <time>2019-05-31T13:59:15Z</time>
      </trkpt>
      <trkpt lat="44.09796" lon="3.12855">
        <ele>410.6</ele>
        <time>2019-05-31T13:59:16Z</time>
      </trkpt>
      <trkpt lat="44.09801" lon="3.12852">
        <ele>410.1</ele>
        <time>2019-05-31T13:59:17Z</time>
      </trkpt>
      <trkpt lat="44.09805" lon="3.12851">
        <ele>409.7</ele>
        <time>2019-05-31T13:59:18Z</time>
      </trkpt>
      <trkpt lat="44.09808" lon="3.12849">
        <ele>409.4</ele>
        <time>2019-05-31T13:59:19Z</time>
      </trkpt>
      <trkpt lat="44.0981" lon="3.12851">
        <ele>409.1</ele>
        <time>2019-05-31T13:59:20Z</time>
      </trkpt>
      <trkpt lat="44.09814" lon="3.12846">
        <ele>408.4</ele>
        <time>2019-05-31T13:59:22Z</time>
      </trkpt>
      <trkpt lat="44.09818" lon="3.12844">
        <ele>407.8</ele>
        <time>2019-05-31T13:59:24Z</time>
      </trkpt>
      <trkpt lat="44.09822" lon="3.12845">
        <ele>407.3</ele>
        <time>2019-05-31T13:59:26Z</time>
      </trkpt>
      <trkpt lat="44.09825" lon="3.12844">
        <ele>406.9</ele>
        <time>2019-05-31T13:59:28Z</time>
      </trkpt>
      <trkpt lat="44.09827" lon="3.1284">
        <ele>406.5</ele>
        <time>2019-05-31T13:59:32Z</time>
      </trkpt>
      <trkpt lat="44.09827" lon="3.12835">
        <ele>406.3</ele>
        <time>2019-05-31T13:59:38Z</time>
      </trkpt>
      <trkpt lat="44.0983" lon="3.12833">
        <ele>406</ele>
        <time>2019-05-31T13:59:42Z</time>
      </trkpt>
      <trkpt lat="44.09834" lon="3.12831">
        <ele>405.6</ele>
        <time>2019-05-31T13:59:44Z</time>
      </trkpt>
      <trkpt lat="44.09839" lon="3.12829">
        <ele>405.2</ele>
        <time>2019-05-31T13:59:46Z</time>
      </trkpt>
      <trkpt lat="44.09842" lon="3.12826">
        <ele>404.9</ele>
        <time>2019-05-31T13:59:48Z</time>
      </trkpt>
      <trkpt lat="44.09846" lon="3.12822">
        <ele>404.6</ele>
        <time>2019-05-31T13:59:50Z</time>
      </trkpt>
      <trkpt lat="44.09849" lon="3.12821">
        <ele>404.4</ele>
        <time>2019-05-31T13:59:52Z</time>
      </trkpt>
      <trkpt lat="44.09853" lon="3.12819">
        <ele>404.1</ele>
        <time>2019-05-31T13:59:54Z</time>
      </trkpt>
      <trkpt lat="44.09856" lon="3.12817">
        <ele>403.9</ele>
        <time>2019-05-31T13:59:56Z</time>
      </trkpt>
      <trkpt lat="44.09859" lon="3.12815">
        <ele>403.7</ele>
        <time>2019-05-31T13:59:57Z</time>
      </trkpt>
      <trkpt lat="44.09862" lon="3.12814">
        <ele>403.5</ele>
        <time>2019-05-31T13:59:58Z</time>
      </trkpt>
      <trkpt lat="44.09865" lon="3.12813">
        <ele>403.3</ele>
        <time>2019-05-31T13:59:59Z</time>
      </trkpt>
      <trkpt lat="44.0987" lon="3.12812">
        <ele>402.9</ele>
        <time>2019-05-31T14:00:01Z</time>
      </trkpt>
      <trkpt lat="44.09872" lon="3.12812">
        <ele>402.8</ele>
        <time>2019-05-31T14:00:02Z</time>
      </trkpt>
      <trkpt lat="44.09875" lon="3.12811">
        <ele>402.6</ele>
        <time>2019-05-31T14:00:03Z</time>
      </trkpt>
      <trkpt lat="44.0988" lon="3.12808">
        <ele>402.3</ele>
        <time>2019-05-31T14:00:05Z</time>
      </trkpt>
      <trkpt lat="44.09883" lon="3.12806">
        <ele>402.2</ele>
        <time>2019-05-31T14:00:06Z</time>
      </trkpt>
      <trkpt lat="44.09886" lon="3.12804">
        <ele>401.9</ele>
        <time>2019-05-31T14:00:07Z</time>
      </trkpt>
      <trkpt lat="44.09889" lon="3.12802">
        <ele>401.7</ele>
        <time>2019-05-31T14:00:08Z</time>
      </trkpt>
      <trkpt lat="44.09894" lon="3.12801">
        <ele>401.5</ele>
        <time>2019-05-31T14:00:10Z</time>
      </trkpt>
      <trkpt lat="44.09898" lon="3.12801">
        <ele>401.3</ele>
        <time>2019-05-31T14:00:12Z</time>
      </trkpt>
      <trkpt lat="44.09903" lon="3.12801">
        <ele>401</ele>
        <time>2019-05-31T14:00:14Z</time>
      </trkpt>
      <trkpt lat="44.09907" lon="3.12801">
        <ele>400.9</ele>
        <time>2019-05-31T14:00:15Z</time>
      </trkpt>
      <trkpt lat="44.0991" lon="3.128">
        <ele>400.7</ele>
        <time>2019-05-31T14:00:16Z</time>
      </trkpt>
      <trkpt lat="44.09915" lon="3.12799">
        <ele>400.5</ele>
        <time>2019-05-31T14:00:17Z</time>
      </trkpt>
      <trkpt lat="44.09919" lon="3.12797">
        <ele>400.3</ele>
        <time>2019-05-31T14:00:18Z</time>
      </trkpt>
      <trkpt lat="44.09923" lon="3.12795">
        <ele>400.1</ele>
        <time>2019-05-31T14:00:19Z</time>
      </trkpt>
      <trkpt lat="44.09933" lon="3.12788">
        <ele>399.4</ele>
        <time>2019-05-31T14:00:20Z</time>
      </trkpt>
      <trkpt lat="44.09938" lon="3.1279">
        <ele>398.9</ele>
        <time>2019-05-31T14:00:21Z</time>
      </trkpt>
      <trkpt lat="44.09943" lon="3.1279">
        <ele>398.4</ele>
        <time>2019-05-31T14:00:22Z</time>
      </trkpt>
      <trkpt lat="44.09948" lon="3.12789">
        <ele>396.8</ele>
        <time>2019-05-31T14:00:23Z</time>
      </trkpt>
      <trkpt lat="44.09952" lon="3.1279">
        <ele>396.8</ele>
        <time>2019-05-31T14:00:24Z</time>
      </trkpt>
      <trkpt lat="44.09958" lon="3.12788">
        <ele>396.9</ele>
        <time>2019-05-31T14:00:26Z</time>
      </trkpt>
      <trkpt lat="44.09962" lon="3.12787">
        <ele>397</ele>
        <time>2019-05-31T14:00:28Z</time>
      </trkpt>
      <trkpt lat="44.09966" lon="3.12786">
        <ele>397.1</ele>
        <time>2019-05-31T14:00:30Z</time>
      </trkpt>
      <trkpt lat="44.0997" lon="3.12786">
        <ele>397.1</ele>
        <time>2019-05-31T14:00:32Z</time>
      </trkpt>
      <trkpt lat="44.09973" lon="3.12786">
        <ele>397.2</ele>
        <time>2019-05-31T14:00:34Z</time>
      </trkpt>
      <trkpt lat="44.09978" lon="3.12787">
        <ele>397.3</ele>
        <time>2019-05-31T14:00:36Z</time>
      </trkpt>
      <trkpt lat="44.09981" lon="3.12788">
        <ele>397.3</ele>
        <time>2019-05-31T14:00:38Z</time>
      </trkpt>
      <trkpt lat="44.09984" lon="3.12786">
        <ele>397.3</ele>
        <time>2019-05-31T14:00:41Z</time>
      </trkpt>
      <trkpt lat="44.09987" lon="3.12787">
        <ele>397.3</ele>
        <time>2019-05-31T14:00:45Z</time>
      </trkpt>
      <trkpt lat="44.0999" lon="3.12787">
        <ele>397.3</ele>
        <time>2019-05-31T14:00:49Z</time>
      </trkpt>
      <trkpt lat="44.09994" lon="3.12785">
        <ele>397.3</ele>
        <time>2019-05-31T14:00:52Z</time>
      </trkpt>
      <trkpt lat="44.09995" lon="3.12782">
        <ele>397.3</ele>
        <time>2019-05-31T14:00:57Z</time>
      </trkpt>
      <trkpt lat="44.09992" lon="3.12777">
        <ele>397.3</ele>
        <time>2019-05-31T14:00:59Z</time>
      </trkpt>
      <trkpt lat="44.09991" lon="3.12768">
        <ele>394.4</ele>
        <time>2019-05-31T14:01:01Z</time>
      </trkpt>
      <trkpt lat="44.0999" lon="3.12761">
        <ele>394</ele>
        <time>2019-05-31T14:01:02Z</time>
      </trkpt>
      <trkpt lat="44.0999" lon="3.12757">
        <ele>393.7</ele>
        <time>2019-05-31T14:01:04Z</time>
      </trkpt>
      <trkpt lat="44.09987" lon="3.12758">
        <ele>393.5</ele>
        <time>2019-05-31T14:01:07Z</time>
      </trkpt>
      <trkpt lat="44.09984" lon="3.12756">
        <ele>393.2</ele>
        <time>2019-05-31T14:01:14Z</time>
      </trkpt>
      <trkpt lat="44.09984" lon="3.1276">
        <ele>393</ele>
        <time>2019-05-31T14:01:25Z</time>
      </trkpt>
      <trkpt lat="44.09989" lon="3.12763">
        <ele>392.6</ele>
        <time>2019-05-31T14:01:54Z</time>
      </trkpt>
      <trkpt lat="44.09993" lon="3.12764">
        <ele>392.2</ele>
        <time>2019-05-31T14:01:56Z</time>
      </trkpt>
      <trkpt lat="44.09999" lon="3.12765">
        <ele>391.7</ele>
        <time>2019-05-31T14:01:58Z</time>
      </trkpt>
      <trkpt lat="44.10002" lon="3.12766">
        <ele>391.4</ele>
        <time>2019-05-31T14:01:59Z</time>
      </trkpt>
      <trkpt lat="44.10006" lon="3.12766">
        <ele>391.2</ele>
        <time>2019-05-31T14:02:00Z</time>
      </trkpt>
      <trkpt lat="44.10009" lon="3.12765">
        <ele>390.9</ele>
        <time>2019-05-31T14:02:01Z</time>
      </trkpt>
      <trkpt lat="44.10012" lon="3.12765">
        <ele>390.7</ele>
        <time>2019-05-31T14:02:02Z</time>
      </trkpt>
      <trkpt lat="44.10015" lon="3.12764">
        <ele>390.5</ele>
        <time>2019-05-31T14:02:03Z</time>
      </trkpt>
      <trkpt lat="44.10019" lon="3.12765">
        <ele>390.3</ele>
        <time>2019-05-31T14:02:04Z</time>
      </trkpt>
      <trkpt lat="44.10023" lon="3.12765">
        <ele>390.1</ele>
        <time>2019-05-31T14:02:05Z</time>
      </trkpt>
      <trkpt lat="44.10031" lon="3.12763">
        <ele>389.7</ele>
        <time>2019-05-31T14:02:06Z</time>
      </trkpt>
      <trkpt lat="44.10036" lon="3.12761">
        <ele>389.5</ele>
        <time>2019-05-31T14:02:07Z</time>
      </trkpt>
      <trkpt lat="44.10042" lon="3.12759">
        <ele>389.3</ele>
        <time>2019-05-31T14:02:08Z</time>
      </trkpt>
      <trkpt lat="44.10049" lon="3.12754">
        <ele>389.1</ele>
        <time>2019-05-31T14:02:09Z</time>
      </trkpt>
      <trkpt lat="44.10056" lon="3.1275">
        <ele>388.8</ele>
        <time>2019-05-31T14:02:10Z</time>
      </trkpt>
      <trkpt lat="44.10062" lon="3.12744">
        <ele>388.7</ele>
        <time>2019-05-31T14:02:11Z</time>
      </trkpt>
      <trkpt lat="44.10068" lon="3.12739">
        <ele>388.5</ele>
        <time>2019-05-31T14:02:12Z</time>
      </trkpt>
      <trkpt lat="44.10072" lon="3.12735">
        <ele>388.3</ele>
        <time>2019-05-31T14:02:13Z</time>
      </trkpt>
      <trkpt lat="44.10078" lon="3.12727">
        <ele>388.1</ele>
        <time>2019-05-31T14:02:14Z</time>
      </trkpt>
      <trkpt lat="44.10084" lon="3.12716">
        <ele>387.7</ele>
        <time>2019-05-31T14:02:15Z</time>
      </trkpt>
      <trkpt lat="44.10087" lon="3.12707">
        <ele>387.4</ele>
        <time>2019-05-31T14:02:16Z</time>
      </trkpt>
      <trkpt lat="44.10089" lon="3.12697">
        <ele>387.2</ele>
        <time>2019-05-31T14:02:17Z</time>
      </trkpt>
      <trkpt lat="44.10091" lon="3.12687">
        <ele>386.9</ele>
        <time>2019-05-31T14:02:18Z</time>
      </trkpt>
      <trkpt lat="44.10092" lon="3.12678">
        <ele>386.6</ele>
        <time>2019-05-31T14:02:19Z</time>
      </trkpt>
      <trkpt lat="44.10092" lon="3.1267">
        <ele>386.4</ele>
        <time>2019-05-31T14:02:20Z</time>
      </trkpt>
      <trkpt lat="44.10094" lon="3.12661">
        <ele>386.2</ele>
        <time>2019-05-31T14:02:21Z</time>
      </trkpt>
      <trkpt lat="44.10093" lon="3.12651">
        <ele>385.9</ele>
        <time>2019-05-31T14:02:22Z</time>
      </trkpt>
      <trkpt lat="44.10092" lon="3.12642">
        <ele>385.7</ele>
        <time>2019-05-31T14:02:23Z</time>
      </trkpt>
      <trkpt lat="44.10091" lon="3.12634">
        <ele>385.5</ele>
        <time>2019-05-31T14:02:24Z</time>
      </trkpt>
      <trkpt lat="44.1009" lon="3.12628">
        <ele>385.4</ele>
        <time>2019-05-31T14:02:25Z</time>
      </trkpt>
      <trkpt lat="44.10089" lon="3.12621">
        <ele>385.2</ele>
        <time>2019-05-31T14:02:26Z</time>
      </trkpt>
      <trkpt lat="44.10088" lon="3.12612">
        <ele>385.1</ele>
        <time>2019-05-31T14:02:27Z</time>
      </trkpt>
      <trkpt lat="44.10087" lon="3.12604">
        <ele>384.9</ele>
        <time>2019-05-31T14:02:28Z</time>
      </trkpt>
      <trkpt lat="44.10085" lon="3.12598">
        <ele>384.8</ele>
        <time>2019-05-31T14:02:29Z</time>
      </trkpt>
      <trkpt lat="44.10085" lon="3.12591">
        <ele>384.6</ele>
        <time>2019-05-31T14:02:30Z</time>
      </trkpt>
      <trkpt lat="44.10083" lon="3.12581">
        <ele>384.4</ele>
        <time>2019-05-31T14:02:31Z</time>
      </trkpt>
      <trkpt lat="44.10083" lon="3.12573">
        <ele>384.3</ele>
        <time>2019-05-31T14:02:32Z</time>
      </trkpt>
      <trkpt lat="44.10082" lon="3.12566">
        <ele>384.1</ele>
        <time>2019-05-31T14:02:33Z</time>
      </trkpt>
      <trkpt lat="44.10083" lon="3.1256">
        <ele>383.9</ele>
        <time>2019-05-31T14:02:34Z</time>
      </trkpt>
      <trkpt lat="44.10082" lon="3.12555">
        <ele>383.7</ele>
        <time>2019-05-31T14:02:35Z</time>
      </trkpt>
      <trkpt lat="44.10083" lon="3.1255">
        <ele>383.6</ele>
        <time>2019-05-31T14:02:36Z</time>
      </trkpt>
      <trkpt lat="44.10083" lon="3.12542">
        <ele>383.3</ele>
        <time>2019-05-31T14:02:37Z</time>
      </trkpt>
      <trkpt lat="44.10082" lon="3.12534">
        <ele>383.1</ele>
        <time>2019-05-31T14:02:38Z</time>
      </trkpt>
      <trkpt lat="44.10081" lon="3.12527">
        <ele>382.9</ele>
        <time>2019-05-31T14:02:39Z</time>
      </trkpt>
      <trkpt lat="44.1008" lon="3.12519">
        <ele>382.6</ele>
        <time>2019-05-31T14:02:40Z</time>
      </trkpt>
      <trkpt lat="44.10078" lon="3.12509">
        <ele>382.3</ele>
        <time>2019-05-31T14:02:41Z</time>
      </trkpt>
      <trkpt lat="44.1008" lon="3.12497">
        <ele>381.7</ele>
        <time>2019-05-31T14:02:43Z</time>
      </trkpt>
      <trkpt lat="44.10078" lon="3.12489">
        <ele>381.3</ele>
        <time>2019-05-31T14:02:44Z</time>
      </trkpt>
      <trkpt lat="44.10079" lon="3.12483">
        <ele>381.1</ele>
        <time>2019-05-31T14:02:45Z</time>
      </trkpt>
      <trkpt lat="44.10078" lon="3.12476">
        <ele>380.8</ele>
        <time>2019-05-31T14:02:46Z</time>
      </trkpt>
      <trkpt lat="44.10078" lon="3.12469">
        <ele>380.6</ele>
        <time>2019-05-31T14:02:47Z</time>
      </trkpt>
      <trkpt lat="44.10078" lon="3.1246">
        <ele>380.4</ele>
        <time>2019-05-31T14:02:48Z</time>
      </trkpt>
      <trkpt lat="44.10079" lon="3.12453">
        <ele>380.2</ele>
        <time>2019-05-31T14:02:49Z</time>
      </trkpt>
      <trkpt lat="44.1008" lon="3.12448">
        <ele>380.1</ele>
        <time>2019-05-31T14:02:50Z</time>
      </trkpt>
      <trkpt lat="44.10078" lon="3.12441">
        <ele>379.9</ele>
        <time>2019-05-31T14:02:51Z</time>
      </trkpt>
      <trkpt lat="44.10078" lon="3.12433">
        <ele>379.8</ele>
        <time>2019-05-31T14:02:52Z</time>
      </trkpt>
      <trkpt lat="44.10078" lon="3.12426">
        <ele>379.6</ele>
        <time>2019-05-31T14:02:53Z</time>
      </trkpt>
      <trkpt lat="44.10078" lon="3.12419">
        <ele>379.4</ele>
        <time>2019-05-31T14:02:54Z</time>
      </trkpt>
      <trkpt lat="44.10078" lon="3.12412">
        <ele>379.3</ele>
        <time>2019-05-31T14:02:55Z</time>
      </trkpt>
      <trkpt lat="44.10078" lon="3.12406">
        <ele>379.2</ele>
        <time>2019-05-31T14:02:56Z</time>
      </trkpt>
      <trkpt lat="44.10076" lon="3.12395">
        <ele>379</ele>
        <time>2019-05-31T14:02:57Z</time>
      </trkpt>
      <trkpt lat="44.10076" lon="3.12387">
        <ele>378.9</ele>
        <time>2019-05-31T14:02:58Z</time>
      </trkpt>
      <trkpt lat="44.10075" lon="3.1238">
        <ele>378.9</ele>
        <time>2019-05-31T14:02:59Z</time>
      </trkpt>
      <trkpt lat="44.10074" lon="3.12372">
        <ele>378.8</ele>
        <time>2019-05-31T14:03:00Z</time>
      </trkpt>
      <trkpt lat="44.10073" lon="3.12368">
        <ele>378.8</ele>
        <time>2019-05-31T14:03:01Z</time>
      </trkpt>
      <trkpt lat="44.10072" lon="3.12361">
        <ele>378.7</ele>
        <time>2019-05-31T14:03:02Z</time>
      </trkpt>
      <trkpt lat="44.10072" lon="3.12354">
        <ele>378.7</ele>
        <time>2019-05-31T14:03:03Z</time>
      </trkpt>
      <trkpt lat="44.10072" lon="3.12347">
        <ele>378.6</ele>
        <time>2019-05-31T14:03:04Z</time>
      </trkpt>
      <trkpt lat="44.10071" lon="3.12342">
        <ele>378.5</ele>
        <time>2019-05-31T14:03:05Z</time>
      </trkpt>
      <trkpt lat="44.1007" lon="3.12337">
        <ele>378.4</ele>
        <time>2019-05-31T14:03:06Z</time>
      </trkpt>
      <trkpt lat="44.1007" lon="3.1233">
        <ele>378.3</ele>
        <time>2019-05-31T14:03:07Z</time>
      </trkpt>
      <trkpt lat="44.10069" lon="3.12324">
        <ele>378.2</ele>
        <time>2019-05-31T14:03:08Z</time>
      </trkpt>
      <trkpt lat="44.10068" lon="3.12318">
        <ele>378.1</ele>
        <time>2019-05-31T14:03:09Z</time>
      </trkpt>
      <trkpt lat="44.10067" lon="3.12312">
        <ele>377.9</ele>
        <time>2019-05-31T14:03:10Z</time>
      </trkpt>
      <trkpt lat="44.10066" lon="3.12306">
        <ele>377.7</ele>
        <time>2019-05-31T14:03:11Z</time>
      </trkpt>
      <trkpt lat="44.10066" lon="3.123">
        <ele>377.4</ele>
        <time>2019-05-31T14:03:12Z</time>
      </trkpt>
      <trkpt lat="44.10066" lon="3.12295">
        <ele>377.1</ele>
        <time>2019-05-31T14:03:13Z</time>
      </trkpt>
      <trkpt lat="44.10065" lon="3.12288">
        <ele>376.8</ele>
        <time>2019-05-31T14:03:14Z</time>
      </trkpt>
      <trkpt lat="44.10064" lon="3.12282">
        <ele>376.6</ele>
        <time>2019-05-31T14:03:15Z</time>
      </trkpt>
      <trkpt lat="44.10064" lon="3.12276">
        <ele>376.2</ele>
        <time>2019-05-31T14:03:16Z</time>
      </trkpt>
      <trkpt lat="44.10063" lon="3.12271">
        <ele>375.9</ele>
        <time>2019-05-31T14:03:17Z</time>
      </trkpt>
      <trkpt lat="44.10061" lon="3.12265">
        <ele>375.7</ele>
        <time>2019-05-31T14:03:18Z</time>
      </trkpt>
      <trkpt lat="44.10059" lon="3.12259">
        <ele>375.5</ele>
        <time>2019-05-31T14:03:19Z</time>
      </trkpt>
      <trkpt lat="44.10058" lon="3.12254">
        <ele>375.3</ele>
        <time>2019-05-31T14:03:20Z</time>
      </trkpt>
      <trkpt lat="44.10057" lon="3.12248">
        <ele>375.2</ele>
        <time>2019-05-31T14:03:21Z</time>
      </trkpt>
      <trkpt lat="44.10056" lon="3.12243">
        <ele>375.1</ele>
        <time>2019-05-31T14:03:22Z</time>
      </trkpt>
      <trkpt lat="44.10055" lon="3.12237">
        <ele>375</ele>
        <time>2019-05-31T14:03:23Z</time>
      </trkpt>
      <trkpt lat="44.10054" lon="3.12231">
        <ele>375</ele>
        <time>2019-05-31T14:03:24Z</time>
      </trkpt>
      <trkpt lat="44.10052" lon="3.12224">
        <ele>374.9</ele>
        <time>2019-05-31T14:03:25Z</time>
      </trkpt>
      <trkpt lat="44.10051" lon="3.12217">
        <ele>374.8</ele>
        <time>2019-05-31T14:03:26Z</time>
      </trkpt>
      <trkpt lat="44.10049" lon="3.12212">
        <ele>374.7</ele>
        <time>2019-05-31T14:03:27Z</time>
      </trkpt>
      <trkpt lat="44.10048" lon="3.12205">
        <ele>374.6</ele>
        <time>2019-05-31T14:03:28Z</time>
      </trkpt>
      <trkpt lat="44.10047" lon="3.12199">
        <ele>374.6</ele>
        <time>2019-05-31T14:03:29Z</time>
      </trkpt>
      <trkpt lat="44.10046" lon="3.12193">
        <ele>374.5</ele>
        <time>2019-05-31T14:03:30Z</time>
      </trkpt>
      <trkpt lat="44.10045" lon="3.12188">
        <ele>374.4</ele>
        <time>2019-05-31T14:03:31Z</time>
      </trkpt>
      <trkpt lat="44.10044" lon="3.12182">
        <ele>374.4</ele>
        <time>2019-05-31T14:03:32Z</time>
      </trkpt>
      <trkpt lat="44.10044" lon="3.12176">
        <ele>374.3</ele>
        <time>2019-05-31T14:03:33Z</time>
      </trkpt>
      <trkpt lat="44.10044" lon="3.12169">
        <ele>374.3</ele>
        <time>2019-05-31T14:03:34Z</time>
      </trkpt>
      <trkpt lat="44.10043" lon="3.12163">
        <ele>374.3</ele>
        <time>2019-05-31T14:03:35Z</time>
      </trkpt>
      <trkpt lat="44.10043" lon="3.12158">
        <ele>374.3</ele>
        <time>2019-05-31T14:03:36Z</time>
      </trkpt>
      <trkpt lat="44.10042" lon="3.12152">
        <ele>374.2</ele>
        <time>2019-05-31T14:03:37Z</time>
      </trkpt>
      <trkpt lat="44.10042" lon="3.12145">
        <ele>374.2</ele>
        <time>2019-05-31T14:03:38Z</time>
      </trkpt>
      <trkpt lat="44.10041" lon="3.12138">
        <ele>374.1</ele>
        <time>2019-05-31T14:03:39Z</time>
      </trkpt>
      <trkpt lat="44.10041" lon="3.12131">
        <ele>374.1</ele>
        <time>2019-05-31T14:03:40Z</time>
      </trkpt>
      <trkpt lat="44.1004" lon="3.12125">
        <ele>374</ele>
        <time>2019-05-31T14:03:41Z</time>
      </trkpt>
      <trkpt lat="44.10041" lon="3.12119">
        <ele>374</ele>
        <time>2019-05-31T14:03:42Z</time>
      </trkpt>
      <trkpt lat="44.1004" lon="3.12113">
        <ele>373.9</ele>
        <time>2019-05-31T14:03:43Z</time>
      </trkpt>
      <trkpt lat="44.10039" lon="3.12106">
        <ele>373.9</ele>
        <time>2019-05-31T14:03:44Z</time>
      </trkpt>
      <trkpt lat="44.10038" lon="3.121">
        <ele>373.8</ele>
        <time>2019-05-31T14:03:45Z</time>
      </trkpt>
      <trkpt lat="44.10037" lon="3.12093">
        <ele>373.7</ele>
        <time>2019-05-31T14:03:46Z</time>
      </trkpt>
      <trkpt lat="44.10036" lon="3.12086">
        <ele>373.6</ele>
        <time>2019-05-31T14:03:47Z</time>
      </trkpt>
      <trkpt lat="44.10035" lon="3.12079">
        <ele>373.5</ele>
        <time>2019-05-31T14:03:48Z</time>
      </trkpt>
      <trkpt lat="44.10033" lon="3.12072">
        <ele>373.4</ele>
        <time>2019-05-31T14:03:49Z</time>
      </trkpt>
      <trkpt lat="44.10031" lon="3.12065">
        <ele>373.4</ele>
        <time>2019-05-31T14:03:50Z</time>
      </trkpt>
      <trkpt lat="44.1003" lon="3.12059">
        <ele>373.3</ele>
        <time>2019-05-31T14:03:51Z</time>
      </trkpt>
      <trkpt lat="44.10028" lon="3.12053">
        <ele>373.2</ele>
        <time>2019-05-31T14:03:52Z</time>
      </trkpt>
      <trkpt lat="44.10027" lon="3.12043">
        <ele>373.2</ele>
        <time>2019-05-31T14:03:53Z</time>
      </trkpt>
      <trkpt lat="44.10025" lon="3.12036">
        <ele>373.2</ele>
        <time>2019-05-31T14:03:54Z</time>
      </trkpt>
      <trkpt lat="44.10021" lon="3.12029">
        <ele>373.3</ele>
        <time>2019-05-31T14:03:55Z</time>
      </trkpt>
      <trkpt lat="44.10019" lon="3.12026">
        <ele>373.3</ele>
        <time>2019-05-31T14:03:56Z</time>
      </trkpt>
      <trkpt lat="44.10017" lon="3.12021">
        <ele>373.3</ele>
        <time>2019-05-31T14:03:57Z</time>
      </trkpt>
      <trkpt lat="44.10016" lon="3.12016">
        <ele>373.4</ele>
        <time>2019-05-31T14:03:58Z</time>
      </trkpt>
      <trkpt lat="44.10017" lon="3.12011">
        <ele>373.4</ele>
        <time>2019-05-31T14:03:59Z</time>
      </trkpt>
      <trkpt lat="44.10018" lon="3.12007">
        <ele>373.4</ele>
        <time>2019-05-31T14:04:00Z</time>
      </trkpt>
      <trkpt lat="44.10018" lon="3.11999">
        <ele>373.4</ele>
        <time>2019-05-31T14:04:01Z</time>
      </trkpt>
      <trkpt lat="44.10019" lon="3.11992">
        <ele>373.4</ele>
        <time>2019-05-31T14:04:02Z</time>
      </trkpt>
      <trkpt lat="44.10021" lon="3.11984">
        <ele>373.4</ele>
        <time>2019-05-31T14:04:03Z</time>
      </trkpt>
      <trkpt lat="44.10023" lon="3.11976">
        <ele>373.3</ele>
        <time>2019-05-31T14:04:04Z</time>
      </trkpt>
      <trkpt lat="44.10025" lon="3.11969">
        <ele>373.3</ele>
        <time>2019-05-31T14:04:05Z</time>
      </trkpt>
      <trkpt lat="44.10026" lon="3.11962">
        <ele>373.3</ele>
        <time>2019-05-31T14:04:06Z</time>
      </trkpt>
      <trkpt lat="44.10027" lon="3.11954">
        <ele>373.2</ele>
        <time>2019-05-31T14:04:07Z</time>
      </trkpt>
      <trkpt lat="44.10025" lon="3.11941">
        <ele>373.2</ele>
        <time>2019-05-31T14:04:08Z</time>
      </trkpt>
      <trkpt lat="44.10025" lon="3.11932">
        <ele>373.1</ele>
        <time>2019-05-31T14:04:09Z</time>
      </trkpt>
      <trkpt lat="44.10026" lon="3.11922">
        <ele>373</ele>
        <time>2019-05-31T14:04:10Z</time>
      </trkpt>
      <trkpt lat="44.10027" lon="3.11913">
        <ele>372.9</ele>
        <time>2019-05-31T14:04:11Z</time>
      </trkpt>
      <trkpt lat="44.10033" lon="3.11913">
        <ele>372.8</ele>
        <time>2019-05-31T14:04:12Z</time>
      </trkpt>
      <trkpt lat="44.10035" lon="3.11906">
        <ele>372.7</ele>
        <time>2019-05-31T14:04:13Z</time>
      </trkpt>
      <trkpt lat="44.10036" lon="3.11899">
        <ele>372.6</ele>
        <time>2019-05-31T14:04:14Z</time>
      </trkpt>
      <trkpt lat="44.10037" lon="3.11892">
        <ele>372.4</ele>
        <time>2019-05-31T14:04:15Z</time>
      </trkpt>
      <trkpt lat="44.10036" lon="3.11885">
        <ele>372.3</ele>
        <time>2019-05-31T14:04:16Z</time>
      </trkpt>
      <trkpt lat="44.10036" lon="3.11876">
        <ele>372.1</ele>
        <time>2019-05-31T14:04:17Z</time>
      </trkpt>
      <trkpt lat="44.10035" lon="3.11869">
        <ele>372</ele>
        <time>2019-05-31T14:04:18Z</time>
      </trkpt>
      <trkpt lat="44.10035" lon="3.11861">
        <ele>371.8</ele>
        <time>2019-05-31T14:04:19Z</time>
      </trkpt>
      <trkpt lat="44.10035" lon="3.11855">
        <ele>371.7</ele>
        <time>2019-05-31T14:04:20Z</time>
      </trkpt>
      <trkpt lat="44.10034" lon="3.11848">
        <ele>371.5</ele>
        <time>2019-05-31T14:04:21Z</time>
      </trkpt>
      <trkpt lat="44.10034" lon="3.1184">
        <ele>371.4</ele>
        <time>2019-05-31T14:04:22Z</time>
      </trkpt>
      <trkpt lat="44.10034" lon="3.11833">
        <ele>371.3</ele>
        <time>2019-05-31T14:04:23Z</time>
      </trkpt>
      <trkpt lat="44.10035" lon="3.11827">
        <ele>371.2</ele>
        <time>2019-05-31T14:04:24Z</time>
      </trkpt>
      <trkpt lat="44.10035" lon="3.1182">
        <ele>371.1</ele>
        <time>2019-05-31T14:04:25Z</time>
      </trkpt>
      <trkpt lat="44.10035" lon="3.11812">
        <ele>371</ele>
        <time>2019-05-31T14:04:26Z</time>
      </trkpt>
      <trkpt lat="44.10034" lon="3.11808">
        <ele>371</ele>
        <time>2019-05-31T14:04:27Z</time>
      </trkpt>
      <trkpt lat="44.10034" lon="3.118">
        <ele>370.9</ele>
        <time>2019-05-31T14:04:28Z</time>
      </trkpt>
      <trkpt lat="44.10033" lon="3.11792">
        <ele>370.8</ele>
        <time>2019-05-31T14:04:29Z</time>
      </trkpt>
      <trkpt lat="44.10033" lon="3.11786">
        <ele>370.8</ele>
        <time>2019-05-31T14:04:30Z</time>
      </trkpt>
      <trkpt lat="44.1003" lon="3.11779">
        <ele>370.7</ele>
        <time>2019-05-31T14:04:31Z</time>
      </trkpt>
      <trkpt lat="44.10027" lon="3.11771">
        <ele>370.7</ele>
        <time>2019-05-31T14:04:32Z</time>
      </trkpt>
      <trkpt lat="44.10025" lon="3.11764">
        <ele>370.6</ele>
        <time>2019-05-31T14:04:33Z</time>
      </trkpt>
      <trkpt lat="44.10024" lon="3.11758">
        <ele>370.5</ele>
        <time>2019-05-31T14:04:34Z</time>
      </trkpt>
      <trkpt lat="44.10021" lon="3.11751">
        <ele>370.4</ele>
        <time>2019-05-31T14:04:35Z</time>
      </trkpt>
      <trkpt lat="44.10018" lon="3.11744">
        <ele>370.3</ele>
        <time>2019-05-31T14:04:36Z</time>
      </trkpt>
      <trkpt lat="44.10017" lon="3.11738">
        <ele>370.2</ele>
        <time>2019-05-31T14:04:37Z</time>
      </trkpt>
      <trkpt lat="44.10017" lon="3.11731">
        <ele>370</ele>
        <time>2019-05-31T14:04:38Z</time>
      </trkpt>
      <trkpt lat="44.10017" lon="3.11724">
        <ele>369.9</ele>
        <time>2019-05-31T14:04:39Z</time>
      </trkpt>
      <trkpt lat="44.10018" lon="3.11716">
        <ele>369.7</ele>
        <time>2019-05-31T14:04:40Z</time>
      </trkpt>
      <trkpt lat="44.1002" lon="3.11708">
        <ele>369.4</ele>
        <time>2019-05-31T14:04:41Z</time>
      </trkpt>
      <trkpt lat="44.10022" lon="3.117">
        <ele>369</ele>
        <time>2019-05-31T14:04:42Z</time>
      </trkpt>
      <trkpt lat="44.10023" lon="3.11693">
        <ele>368.7</ele>
        <time>2019-05-31T14:04:43Z</time>
      </trkpt>
      <trkpt lat="44.10024" lon="3.11685">
        <ele>368.4</ele>
        <time>2019-05-31T14:04:44Z</time>
      </trkpt>
      <trkpt lat="44.10023" lon="3.11679">
        <ele>368.1</ele>
        <time>2019-05-31T14:04:45Z</time>
      </trkpt>
      <trkpt lat="44.10022" lon="3.11672">
        <ele>367.8</ele>
        <time>2019-05-31T14:04:46Z</time>
      </trkpt>
      <trkpt lat="44.1002" lon="3.11666">
        <ele>367.6</ele>
        <time>2019-05-31T14:04:47Z</time>
      </trkpt>
      <trkpt lat="44.10019" lon="3.11658">
        <ele>367.3</ele>
        <time>2019-05-31T14:04:48Z</time>
      </trkpt>
      <trkpt lat="44.10017" lon="3.11651">
        <ele>367.1</ele>
        <time>2019-05-31T14:04:49Z</time>
      </trkpt>
      <trkpt lat="44.10015" lon="3.11644">
        <ele>366.8</ele>
        <time>2019-05-31T14:04:50Z</time>
      </trkpt>
      <trkpt lat="44.10014" lon="3.11636">
        <ele>366.6</ele>
        <time>2019-05-31T14:04:51Z</time>
      </trkpt>
      <trkpt lat="44.10013" lon="3.11629">
        <ele>366.3</ele>
        <time>2019-05-31T14:04:52Z</time>
      </trkpt>
      <trkpt lat="44.10013" lon="3.11621">
        <ele>366</ele>
        <time>2019-05-31T14:04:53Z</time>
      </trkpt>
      <trkpt lat="44.10011" lon="3.11613">
        <ele>365.8</ele>
        <time>2019-05-31T14:04:54Z</time>
      </trkpt>
      <trkpt lat="44.1001" lon="3.11607">
        <ele>365.6</ele>
        <time>2019-05-31T14:04:55Z</time>
      </trkpt>
      <trkpt lat="44.10008" lon="3.116">
        <ele>365.4</ele>
        <time>2019-05-31T14:04:56Z</time>
      </trkpt>
      <trkpt lat="44.10007" lon="3.11593">
        <ele>365.2</ele>
        <time>2019-05-31T14:04:57Z</time>
      </trkpt>
      <trkpt lat="44.10004" lon="3.11586">
        <ele>365</ele>
        <time>2019-05-31T14:04:58Z</time>
      </trkpt>
      <trkpt lat="44.10002" lon="3.11579">
        <ele>364.8</ele>
        <time>2019-05-31T14:04:59Z</time>
      </trkpt>
      <trkpt lat="44.09998" lon="3.11572">
        <ele>364.7</ele>
        <time>2019-05-31T14:05:00Z</time>
      </trkpt>
      <trkpt lat="44.09995" lon="3.11566">
        <ele>364.5</ele>
        <time>2019-05-31T14:05:01Z</time>
      </trkpt>
      <trkpt lat="44.09993" lon="3.1156">
        <ele>364.4</ele>
        <time>2019-05-31T14:05:02Z</time>
      </trkpt>
      <trkpt lat="44.0999" lon="3.11554">
        <ele>364.4</ele>
        <time>2019-05-31T14:05:03Z</time>
      </trkpt>
      <trkpt lat="44.09987" lon="3.11546">
        <ele>364.3</ele>
        <time>2019-05-31T14:05:04Z</time>
      </trkpt>
      <trkpt lat="44.09983" lon="3.11539">
        <ele>364.3</ele>
        <time>2019-05-31T14:05:05Z</time>
      </trkpt>
      <trkpt lat="44.0998" lon="3.11534">
        <ele>364.2</ele>
        <time>2019-05-31T14:05:06Z</time>
      </trkpt>
      <trkpt lat="44.09977" lon="3.11528">
        <ele>364.2</ele>
        <time>2019-05-31T14:05:07Z</time>
      </trkpt>
      <trkpt lat="44.09971" lon="3.11524">
        <ele>364.2</ele>
        <time>2019-05-31T14:05:08Z</time>
      </trkpt>
      <trkpt lat="44.0997" lon="3.11517">
        <ele>364.1</ele>
        <time>2019-05-31T14:05:09Z</time>
      </trkpt>
      <trkpt lat="44.09967" lon="3.11511">
        <ele>364</ele>
        <time>2019-05-31T14:05:10Z</time>
      </trkpt>
      <trkpt lat="44.09964" lon="3.11507">
        <ele>363.9</ele>
        <time>2019-05-31T14:05:11Z</time>
      </trkpt>
      <trkpt lat="44.0996" lon="3.11502">
        <ele>363.8</ele>
        <time>2019-05-31T14:05:12Z</time>
      </trkpt>
      <trkpt lat="44.09959" lon="3.11497">
        <ele>363.7</ele>
        <time>2019-05-31T14:05:13Z</time>
      </trkpt>
      <trkpt lat="44.09957" lon="3.1149">
        <ele>363.7</ele>
        <time>2019-05-31T14:05:14Z</time>
      </trkpt>
      <trkpt lat="44.09957" lon="3.11483">
        <ele>363.6</ele>
        <time>2019-05-31T14:05:15Z</time>
      </trkpt>
      <trkpt lat="44.09956" lon="3.11476">
        <ele>363.6</ele>
        <time>2019-05-31T14:05:16Z</time>
      </trkpt>
      <trkpt lat="44.09958" lon="3.11461">
        <ele>363.7</ele>
        <time>2019-05-31T14:05:17Z</time>
      </trkpt>
      <trkpt lat="44.09958" lon="3.11455">
        <ele>363.7</ele>
        <time>2019-05-31T14:05:18Z</time>
      </trkpt>
      <trkpt lat="44.09959" lon="3.11448">
        <ele>363.7</ele>
        <time>2019-05-31T14:05:19Z</time>
      </trkpt>
      <trkpt lat="44.09959" lon="3.11442">
        <ele>363.7</ele>
        <time>2019-05-31T14:05:20Z</time>
      </trkpt>
      <trkpt lat="44.09957" lon="3.11433">
        <ele>363.6</ele>
        <time>2019-05-31T14:05:21Z</time>
      </trkpt>
      <trkpt lat="44.09956" lon="3.11425">
        <ele>363.6</ele>
        <time>2019-05-31T14:05:22Z</time>
      </trkpt>
      <trkpt lat="44.09956" lon="3.11421">
        <ele>363.5</ele>
        <time>2019-05-31T14:05:23Z</time>
      </trkpt>
      <trkpt lat="44.09955" lon="3.11414">
        <ele>363.5</ele>
        <time>2019-05-31T14:05:24Z</time>
      </trkpt>
      <trkpt lat="44.0995" lon="3.1141">
        <ele>363.3</ele>
        <time>2019-05-31T14:05:25Z</time>
      </trkpt>
      <trkpt lat="44.09946" lon="3.11404">
        <ele>363.2</ele>
        <time>2019-05-31T14:05:26Z</time>
      </trkpt>
      <trkpt lat="44.09943" lon="3.11399">
        <ele>363.1</ele>
        <time>2019-05-31T14:05:27Z</time>
      </trkpt>
      <trkpt lat="44.0994" lon="3.11395">
        <ele>363</ele>
        <time>2019-05-31T14:05:28Z</time>
      </trkpt>
      <trkpt lat="44.09938" lon="3.11391">
        <ele>363</ele>
        <time>2019-05-31T14:05:29Z</time>
      </trkpt>
      <trkpt lat="44.09937" lon="3.11386">
        <ele>362.9</ele>
        <time>2019-05-31T14:05:30Z</time>
      </trkpt>
      <trkpt lat="44.09932" lon="3.11381">
        <ele>362.7</ele>
        <time>2019-05-31T14:05:31Z</time>
      </trkpt>
      <trkpt lat="44.09927" lon="3.11376">
        <ele>362.6</ele>
        <time>2019-05-31T14:05:32Z</time>
      </trkpt>
      <trkpt lat="44.09923" lon="3.11371">
        <ele>362.5</ele>
        <time>2019-05-31T14:05:33Z</time>
      </trkpt>
      <trkpt lat="44.0992" lon="3.11364">
        <ele>362.4</ele>
        <time>2019-05-31T14:05:34Z</time>
      </trkpt>
      <trkpt lat="44.09915" lon="3.11357">
        <ele>362.3</ele>
        <time>2019-05-31T14:05:35Z</time>
      </trkpt>
      <trkpt lat="44.09911" lon="3.11352">
        <ele>362.3</ele>
        <time>2019-05-31T14:05:36Z</time>
      </trkpt>
      <trkpt lat="44.09907" lon="3.11347">
        <ele>362.3</ele>
        <time>2019-05-31T14:05:37Z</time>
      </trkpt>
      <trkpt lat="44.09903" lon="3.1134">
        <ele>362.2</ele>
        <time>2019-05-31T14:05:38Z</time>
      </trkpt>
      <trkpt lat="44.09899" lon="3.11336">
        <ele>362.2</ele>
        <time>2019-05-31T14:05:39Z</time>
      </trkpt>
      <trkpt lat="44.09894" lon="3.1133">
        <ele>362.2</ele>
        <time>2019-05-31T14:05:40Z</time>
      </trkpt>
      <trkpt lat="44.09892" lon="3.11326">
        <ele>362.2</ele>
        <time>2019-05-31T14:05:41Z</time>
      </trkpt>
      <trkpt lat="44.09887" lon="3.11321">
        <ele>362.2</ele>
        <time>2019-05-31T14:05:42Z</time>
      </trkpt>
      <trkpt lat="44.09885" lon="3.11318">
        <ele>362.1</ele>
        <time>2019-05-31T14:05:43Z</time>
      </trkpt>
      <trkpt lat="44.0988" lon="3.11315">
        <ele>362.1</ele>
        <time>2019-05-31T14:05:44Z</time>
      </trkpt>
      <trkpt lat="44.09877" lon="3.11314">
        <ele>362</ele>
        <time>2019-05-31T14:05:45Z</time>
      </trkpt>
      <trkpt lat="44.09872" lon="3.11311">
        <ele>361.8</ele>
        <time>2019-05-31T14:05:46Z</time>
      </trkpt>
      <trkpt lat="44.09868" lon="3.1131">
        <ele>361.7</ele>
        <time>2019-05-31T14:05:47Z</time>
      </trkpt>
      <trkpt lat="44.09865" lon="3.11311">
        <ele>361.5</ele>
        <time>2019-05-31T14:05:48Z</time>
      </trkpt>
      <trkpt lat="44.09856" lon="3.11311">
        <ele>361.2</ele>
        <time>2019-05-31T14:05:49Z</time>
      </trkpt>
      <trkpt lat="44.09851" lon="3.11311">
        <ele>361</ele>
        <time>2019-05-31T14:05:50Z</time>
      </trkpt>
      <trkpt lat="44.09846" lon="3.11311">
        <ele>360.8</ele>
        <time>2019-05-31T14:05:51Z</time>
      </trkpt>
      <trkpt lat="44.09843" lon="3.11311">
        <ele>360.7</ele>
        <time>2019-05-31T14:05:52Z</time>
      </trkpt>
      <trkpt lat="44.0984" lon="3.11311">
        <ele>360.7</ele>
        <time>2019-05-31T14:05:53Z</time>
      </trkpt>
      <trkpt lat="44.09837" lon="3.11311">
        <ele>360.7</ele>
        <time>2019-05-31T14:05:54Z</time>
      </trkpt>
      <trkpt lat="44.09832" lon="3.11308">
        <ele>360.6</ele>
        <time>2019-05-31T14:05:55Z</time>
      </trkpt>
      <trkpt lat="44.09828" lon="3.11303">
        <ele>360.6</ele>
        <time>2019-05-31T14:05:56Z</time>
      </trkpt>
      <trkpt lat="44.09829" lon="3.113">
        <ele>360.6</ele>
        <time>2019-05-31T14:05:57Z</time>
      </trkpt>
      <trkpt lat="44.09827" lon="3.11296">
        <ele>360.7</ele>
        <time>2019-05-31T14:05:58Z</time>
      </trkpt>
      <trkpt lat="44.09831" lon="3.11292">
        <ele>360.7</ele>
        <time>2019-05-31T14:05:59Z</time>
      </trkpt>
      <trkpt lat="44.09828" lon="3.11282">
        <ele>360.8</ele>
        <time>2019-05-31T14:06:01Z</time>
      </trkpt>
      <trkpt lat="44.09824" lon="3.11279">
        <ele>360.9</ele>
        <time>2019-05-31T14:06:02Z</time>
      </trkpt>
      <trkpt lat="44.0982" lon="3.11273">
        <ele>360.9</ele>
        <time>2019-05-31T14:06:03Z</time>
      </trkpt>
      <trkpt lat="44.0982" lon="3.11268">
        <ele>360.9</ele>
        <time>2019-05-31T14:06:04Z</time>
      </trkpt>
      <trkpt lat="44.09818" lon="3.11263">
        <ele>360.9</ele>
        <time>2019-05-31T14:06:05Z</time>
      </trkpt>
      <trkpt lat="44.0982" lon="3.11257">
        <ele>360.9</ele>
        <time>2019-05-31T14:06:06Z</time>
      </trkpt>
      <trkpt lat="44.0982" lon="3.11253">
        <ele>360.9</ele>
        <time>2019-05-31T14:06:08Z</time>
      </trkpt>
      <trkpt lat="44.0982" lon="3.11246">
        <ele>360.9</ele>
        <time>2019-05-31T14:06:10Z</time>
      </trkpt>
      <trkpt lat="44.09818" lon="3.11242">
        <ele>360.9</ele>
        <time>2019-05-31T14:06:12Z</time>
      </trkpt>
      <trkpt lat="44.09818" lon="3.11236">
        <ele>360.9</ele>
        <time>2019-05-31T14:06:14Z</time>
      </trkpt>
      <trkpt lat="44.09818" lon="3.11231">
        <ele>360.9</ele>
        <time>2019-05-31T14:06:16Z</time>
      </trkpt>
      <trkpt lat="44.09819" lon="3.11227">
        <ele>361</ele>
        <time>2019-05-31T14:06:17Z</time>
      </trkpt>
      <trkpt lat="44.09819" lon="3.11222">
        <ele>361</ele>
        <time>2019-05-31T14:06:18Z</time>
      </trkpt>
      <trkpt lat="44.09819" lon="3.11216">
        <ele>361</ele>
        <time>2019-05-31T14:06:19Z</time>
      </trkpt>
      <trkpt lat="44.09819" lon="3.11211">
        <ele>361</ele>
        <time>2019-05-31T14:06:20Z</time>
      </trkpt>
      <trkpt lat="44.09819" lon="3.11207">
        <ele>361.1</ele>
        <time>2019-05-31T14:06:21Z</time>
      </trkpt>
      <trkpt lat="44.09819" lon="3.11203">
        <ele>361.1</ele>
        <time>2019-05-31T14:06:22Z</time>
      </trkpt>
      <trkpt lat="44.09821" lon="3.11197">
        <ele>361.1</ele>
        <time>2019-05-31T14:06:24Z</time>
      </trkpt>
      <trkpt lat="44.09822" lon="3.11194">
        <ele>361.1</ele>
        <time>2019-05-31T14:06:25Z</time>
      </trkpt>
      <trkpt lat="44.09824" lon="3.11186">
        <ele>361.2</ele>
        <time>2019-05-31T14:06:27Z</time>
      </trkpt>
      <trkpt lat="44.09825" lon="3.11182">
        <ele>361.2</ele>
        <time>2019-05-31T14:06:28Z</time>
      </trkpt>
      <trkpt lat="44.09826" lon="3.11177">
        <ele>361.2</ele>
        <time>2019-05-31T14:06:29Z</time>
      </trkpt>
      <trkpt lat="44.09827" lon="3.11173">
        <ele>361.3</ele>
        <time>2019-05-31T14:06:30Z</time>
      </trkpt>
      <trkpt lat="44.09828" lon="3.11169">
        <ele>361.3</ele>
        <time>2019-05-31T14:06:31Z</time>
      </trkpt>
      <trkpt lat="44.09828" lon="3.11165">
        <ele>361.3</ele>
        <time>2019-05-31T14:06:32Z</time>
      </trkpt>
      <trkpt lat="44.09829" lon="3.11161">
        <ele>361.3</ele>
        <time>2019-05-31T14:06:33Z</time>
      </trkpt>
      <trkpt lat="44.09829" lon="3.11156">
        <ele>361.3</ele>
        <time>2019-05-31T14:06:34Z</time>
      </trkpt>
      <trkpt lat="44.09829" lon="3.1115">
        <ele>361.3</ele>
        <time>2019-05-31T14:06:35Z</time>
      </trkpt>
      <trkpt lat="44.09829" lon="3.11145">
        <ele>361.3</ele>
        <time>2019-05-31T14:06:36Z</time>
      </trkpt>
      <trkpt lat="44.09829" lon="3.11138">
        <ele>361.4</ele>
        <time>2019-05-31T14:06:37Z</time>
      </trkpt>
      <trkpt lat="44.09829" lon="3.11133">
        <ele>361.5</ele>
        <time>2019-05-31T14:06:38Z</time>
      </trkpt>
      <trkpt lat="44.09829" lon="3.11129">
        <ele>361.6</ele>
        <time>2019-05-31T14:06:39Z</time>
      </trkpt>
      <trkpt lat="44.0983" lon="3.11124">
        <ele>361.7</ele>
        <time>2019-05-31T14:06:40Z</time>
      </trkpt>
      <trkpt lat="44.0983" lon="3.11119">
        <ele>361.8</ele>
        <time>2019-05-31T14:06:41Z</time>
      </trkpt>
      <trkpt lat="44.09831" lon="3.11113">
        <ele>362</ele>
        <time>2019-05-31T14:06:43Z</time>
      </trkpt>
      <trkpt lat="44.09831" lon="3.11106">
        <ele>362.4</ele>
        <time>2019-05-31T14:06:45Z</time>
      </trkpt>
      <trkpt lat="44.09831" lon="3.11102">
        <ele>362.7</ele>
        <time>2019-05-31T14:06:46Z</time>
      </trkpt>
      <trkpt lat="44.0983" lon="3.11097">
        <ele>363</ele>
        <time>2019-05-31T14:06:48Z</time>
      </trkpt>
      <trkpt lat="44.09829" lon="3.11093">
        <ele>363.4</ele>
        <time>2019-05-31T14:06:51Z</time>
      </trkpt>
      <trkpt lat="44.09826" lon="3.11092">
        <ele>363.8</ele>
        <time>2019-05-31T14:06:54Z</time>
      </trkpt>
      <trkpt lat="44.09823" lon="3.11094">
        <ele>364.2</ele>
        <time>2019-05-31T14:06:57Z</time>
      </trkpt>
      <trkpt lat="44.09821" lon="3.11096">
        <ele>364.6</ele>
        <time>2019-05-31T14:07:02Z</time>
      </trkpt>
      <trkpt lat="44.09818" lon="3.11099">
        <ele>365</ele>
        <time>2019-05-31T14:07:06Z</time>
      </trkpt>
      <trkpt lat="44.09815" lon="3.11099">
        <ele>365.6</ele>
        <time>2019-05-31T14:07:08Z</time>
      </trkpt>
      <trkpt lat="44.09812" lon="3.11099">
        <ele>366.1</ele>
        <time>2019-05-31T14:07:09Z</time>
      </trkpt>
      <trkpt lat="44.09809" lon="3.111">
        <ele>366.5</ele>
        <time>2019-05-31T14:07:10Z</time>
      </trkpt>
      <trkpt lat="44.09805" lon="3.11101">
        <ele>367.1</ele>
        <time>2019-05-31T14:07:12Z</time>
      </trkpt>
      <trkpt lat="44.09801" lon="3.11101">
        <ele>367.6</ele>
        <time>2019-05-31T14:07:14Z</time>
      </trkpt>
      <trkpt lat="44.09799" lon="3.11101">
        <ele>368.1</ele>
        <time>2019-05-31T14:07:16Z</time>
      </trkpt>
      <trkpt lat="44.09795" lon="3.11102">
        <ele>368.5</ele>
        <time>2019-05-31T14:07:19Z</time>
      </trkpt>
      <trkpt lat="44.09793" lon="3.11105">
        <ele>369</ele>
        <time>2019-05-31T14:07:22Z</time>
      </trkpt>
      <trkpt lat="44.09791" lon="3.11108">
        <ele>369.4</ele>
        <time>2019-05-31T14:07:24Z</time>
      </trkpt>
      <trkpt lat="44.09789" lon="3.11112">
        <ele>369.9</ele>
        <time>2019-05-31T14:07:26Z</time>
      </trkpt>
      <trkpt lat="44.09786" lon="3.11115">
        <ele>370.3</ele>
        <time>2019-05-31T14:07:28Z</time>
      </trkpt>
      <trkpt lat="44.09783" lon="3.11117">
        <ele>370.8</ele>
        <time>2019-05-31T14:07:30Z</time>
      </trkpt>
      <trkpt lat="44.0978" lon="3.11121">
        <ele>371.4</ele>
        <time>2019-05-31T14:07:33Z</time>
      </trkpt>
      <trkpt lat="44.09777" lon="3.11123">
        <ele>371.8</ele>
        <time>2019-05-31T14:07:35Z</time>
      </trkpt>
      <trkpt lat="44.09774" lon="3.11125">
        <ele>372.2</ele>
        <time>2019-05-31T14:07:37Z</time>
      </trkpt>
      <trkpt lat="44.0977" lon="3.11128">
        <ele>372.7</ele>
        <time>2019-05-31T14:07:40Z</time>
      </trkpt>
      <trkpt lat="44.09768" lon="3.1113">
        <ele>373.1</ele>
        <time>2019-05-31T14:07:43Z</time>
      </trkpt>
      <trkpt lat="44.09765" lon="3.1113">
        <ele>373.4</ele>
        <time>2019-05-31T14:07:45Z</time>
      </trkpt>
      <trkpt lat="44.09761" lon="3.11132">
        <ele>374</ele>
        <time>2019-05-31T14:07:48Z</time>
      </trkpt>
      <trkpt lat="44.09758" lon="3.11133">
        <ele>374.3</ele>
        <time>2019-05-31T14:07:50Z</time>
      </trkpt>
      <trkpt lat="44.09755" lon="3.11134">
        <ele>374.8</ele>
        <time>2019-05-31T14:07:53Z</time>
      </trkpt>
      <trkpt lat="44.09752" lon="3.11135">
        <ele>375.2</ele>
        <time>2019-05-31T14:07:56Z</time>
      </trkpt>
      <trkpt lat="44.0975" lon="3.11139">
        <ele>375.7</ele>
        <time>2019-05-31T14:07:59Z</time>
      </trkpt>
      <trkpt lat="44.09749" lon="3.11142">
        <ele>376.2</ele>
        <time>2019-05-31T14:08:01Z</time>
      </trkpt>
      <trkpt lat="44.09746" lon="3.11145">
        <ele>376.7</ele>
        <time>2019-05-31T14:08:03Z</time>
      </trkpt>
      <trkpt lat="44.09743" lon="3.11149">
        <ele>377.4</ele>
        <time>2019-05-31T14:08:05Z</time>
      </trkpt>
      <trkpt lat="44.0974" lon="3.11152">
        <ele>378.1</ele>
        <time>2019-05-31T14:08:08Z</time>
      </trkpt>
      <trkpt lat="44.09737" lon="3.11154">
        <ele>378.6</ele>
        <time>2019-05-31T14:08:10Z</time>
      </trkpt>
      <trkpt lat="44.09735" lon="3.11159">
        <ele>379.2</ele>
        <time>2019-05-31T14:08:12Z</time>
      </trkpt>
      <trkpt lat="44.09733" lon="3.11163">
        <ele>379.8</ele>
        <time>2019-05-31T14:08:15Z</time>
      </trkpt>
      <trkpt lat="44.09731" lon="3.11166">
        <ele>380.3</ele>
        <time>2019-05-31T14:08:17Z</time>
      </trkpt>
      <trkpt lat="44.09728" lon="3.1117">
        <ele>381</ele>
        <time>2019-05-31T14:08:20Z</time>
      </trkpt>
      <trkpt lat="44.09725" lon="3.11172">
        <ele>381.4</ele>
        <time>2019-05-31T14:08:22Z</time>
      </trkpt>
      <trkpt lat="44.09723" lon="3.11175">
        <ele>382</ele>
        <time>2019-05-31T14:08:25Z</time>
      </trkpt>
      <trkpt lat="44.09721" lon="3.1118">
        <ele>382.5</ele>
        <time>2019-05-31T14:08:28Z</time>
      </trkpt>
      <trkpt lat="44.0972" lon="3.11184">
        <ele>382.9</ele>
        <time>2019-05-31T14:08:31Z</time>
      </trkpt>
      <trkpt lat="44.0972" lon="3.11188">
        <ele>383.4</ele>
        <time>2019-05-31T14:08:34Z</time>
      </trkpt>
      <trkpt lat="44.09717" lon="3.1119">
        <ele>383.9</ele>
        <time>2019-05-31T14:08:37Z</time>
      </trkpt>
      <trkpt lat="44.09713" lon="3.11191">
        <ele>384.6</ele>
        <time>2019-05-31T14:08:41Z</time>
      </trkpt>
      <trkpt lat="44.09709" lon="3.1119">
        <ele>385.1</ele>
        <time>2019-05-31T14:08:44Z</time>
      </trkpt>
      <trkpt lat="44.09706" lon="3.11188">
        <ele>385.6</ele>
        <time>2019-05-31T14:08:48Z</time>
      </trkpt>
      <trkpt lat="44.09704" lon="3.11184">
        <ele>386.1</ele>
        <time>2019-05-31T14:08:52Z</time>
      </trkpt>
      <trkpt lat="44.09703" lon="3.11179">
        <ele>386.5</ele>
        <time>2019-05-31T14:08:55Z</time>
      </trkpt>
      <trkpt lat="44.09702" lon="3.11174">
        <ele>386.9</ele>
        <time>2019-05-31T14:08:58Z</time>
      </trkpt>
      <trkpt lat="44.097" lon="3.1117">
        <ele>387.2</ele>
        <time>2019-05-31T14:09:01Z</time>
      </trkpt>
      <trkpt lat="44.09698" lon="3.11167">
        <ele>387.5</ele>
        <time>2019-05-31T14:09:03Z</time>
      </trkpt>
      <trkpt lat="44.09695" lon="3.11164">
        <ele>387.8</ele>
        <time>2019-05-31T14:09:06Z</time>
      </trkpt>
      <trkpt lat="44.09693" lon="3.11161">
        <ele>388</ele>
        <time>2019-05-31T14:09:08Z</time>
      </trkpt>
      <trkpt lat="44.0969" lon="3.11159">
        <ele>388.3</ele>
        <time>2019-05-31T14:09:10Z</time>
      </trkpt>
      <trkpt lat="44.09689" lon="3.11155">
        <ele>388.5</ele>
        <time>2019-05-31T14:09:12Z</time>
      </trkpt>
      <trkpt lat="44.09688" lon="3.11151">
        <ele>388.7</ele>
        <time>2019-05-31T14:09:15Z</time>
      </trkpt>
      <trkpt lat="44.09687" lon="3.11146">
        <ele>388.9</ele>
        <time>2019-05-31T14:09:18Z</time>
      </trkpt>
      <trkpt lat="44.09688" lon="3.11141">
        <ele>389.1</ele>
        <time>2019-05-31T14:09:20Z</time>
      </trkpt>
      <trkpt lat="44.09688" lon="3.11135">
        <ele>389.5</ele>
        <time>2019-05-31T14:09:22Z</time>
      </trkpt>
      <trkpt lat="44.09689" lon="3.11131">
        <ele>389.7</ele>
        <time>2019-05-31T14:09:24Z</time>
      </trkpt>
      <trkpt lat="44.09691" lon="3.11125">
        <ele>390</ele>
        <time>2019-05-31T14:09:26Z</time>
      </trkpt>
      <trkpt lat="44.09691" lon="3.11119">
        <ele>390.3</ele>
        <time>2019-05-31T14:09:28Z</time>
      </trkpt>
      <trkpt lat="44.0969" lon="3.11112">
        <ele>390.7</ele>
        <time>2019-05-31T14:09:30Z</time>
      </trkpt>
      <trkpt lat="44.0969" lon="3.11106">
        <ele>391</ele>
        <time>2019-05-31T14:09:32Z</time>
      </trkpt>
      <trkpt lat="44.0969" lon="3.11099">
        <ele>391.3</ele>
        <time>2019-05-31T14:09:34Z</time>
      </trkpt>
      <trkpt lat="44.0969" lon="3.11093">
        <ele>391.6</ele>
        <time>2019-05-31T14:09:36Z</time>
      </trkpt>
      <trkpt lat="44.09689" lon="3.11087">
        <ele>391.8</ele>
        <time>2019-05-31T14:09:38Z</time>
      </trkpt>
      <trkpt lat="44.09689" lon="3.11083">
        <ele>391.9</ele>
        <time>2019-05-31T14:09:40Z</time>
      </trkpt>
      <trkpt lat="44.0969" lon="3.11078">
        <ele>392.1</ele>
        <time>2019-05-31T14:09:42Z</time>
      </trkpt>
      <trkpt lat="44.09691" lon="3.11073">
        <ele>392.3</ele>
        <time>2019-05-31T14:11:49Z</time>
      </trkpt>
      <trkpt lat="44.09693" lon="3.1107">
        <ele>392.4</ele>
        <time>2019-05-31T14:11:50Z</time>
      </trkpt>
      <trkpt lat="44.09696" lon="3.11067">
        <ele>392.6</ele>
        <time>2019-05-31T14:11:51Z</time>
      </trkpt>
      <trkpt lat="44.09701" lon="3.11063">
        <ele>392.9</ele>
        <time>2019-05-31T14:11:52Z</time>
      </trkpt>
      <trkpt lat="44.09705" lon="3.1106">
        <ele>393.1</ele>
        <time>2019-05-31T14:11:53Z</time>
      </trkpt>
      <trkpt lat="44.09711" lon="3.11056">
        <ele>393.3</ele>
        <time>2019-05-31T14:11:54Z</time>
      </trkpt>
      <trkpt lat="44.09717" lon="3.11052">
        <ele>393.6</ele>
        <time>2019-05-31T14:11:55Z</time>
      </trkpt>
      <trkpt lat="44.09721" lon="3.11046">
        <ele>393.8</ele>
        <time>2019-05-31T14:11:56Z</time>
      </trkpt>
      <trkpt lat="44.09726" lon="3.11042">
        <ele>394.2</ele>
        <time>2019-05-31T14:11:57Z</time>
      </trkpt>
      <trkpt lat="44.0973" lon="3.11036">
        <ele>394.5</ele>
        <time>2019-05-31T14:11:58Z</time>
      </trkpt>
      <trkpt lat="44.09733" lon="3.1103">
        <ele>394.7</ele>
        <time>2019-05-31T14:11:59Z</time>
      </trkpt>
      <trkpt lat="44.09736" lon="3.11023">
        <ele>395</ele>
        <time>2019-05-31T14:12:00Z</time>
      </trkpt>
      <trkpt lat="44.09738" lon="3.11017">
        <ele>395.1</ele>
        <time>2019-05-31T14:12:01Z</time>
      </trkpt>
      <trkpt lat="44.09741" lon="3.1101">
        <ele>395.3</ele>
        <time>2019-05-31T14:12:02Z</time>
      </trkpt>
      <trkpt lat="44.09742" lon="3.11">
        <ele>395.6</ele>
        <time>2019-05-31T14:12:03Z</time>
      </trkpt>
      <trkpt lat="44.09743" lon="3.10993">
        <ele>395.7</ele>
        <time>2019-05-31T14:12:04Z</time>
      </trkpt>
      <trkpt lat="44.09744" lon="3.10989">
        <ele>395.8</ele>
        <time>2019-05-31T14:12:05Z</time>
      </trkpt>
      <trkpt lat="44.09746" lon="3.10983">
        <ele>396</ele>
        <time>2019-05-31T14:12:06Z</time>
      </trkpt>
      <trkpt lat="44.09748" lon="3.10976">
        <ele>396.1</ele>
        <time>2019-05-31T14:12:07Z</time>
      </trkpt>
      <trkpt lat="44.09749" lon="3.10972">
        <ele>396.2</ele>
        <time>2019-05-31T14:12:08Z</time>
      </trkpt>
      <trkpt lat="44.09748" lon="3.10967">
        <ele>396.3</ele>
        <time>2019-05-31T14:12:09Z</time>
      </trkpt>
      <trkpt lat="44.09747" lon="3.10962">
        <ele>396.4</ele>
        <time>2019-05-31T14:12:10Z</time>
      </trkpt>
      <trkpt lat="44.09746" lon="3.10958">
        <ele>396.5</ele>
        <time>2019-05-31T14:12:11Z</time>
      </trkpt>
      <trkpt lat="44.09744" lon="3.10951">
        <ele>396.6</ele>
        <time>2019-05-31T14:12:12Z</time>
      </trkpt>
      <trkpt lat="44.09741" lon="3.10945">
        <ele>396.8</ele>
        <time>2019-05-31T14:12:13Z</time>
      </trkpt>
      <trkpt lat="44.09739" lon="3.10939">
        <ele>396.9</ele>
        <time>2019-05-31T14:12:14Z</time>
      </trkpt>
      <trkpt lat="44.0974" lon="3.1093">
        <ele>397</ele>
        <time>2019-05-31T14:12:15Z</time>
      </trkpt>
      <trkpt lat="44.09742" lon="3.10921">
        <ele>396.8</ele>
        <time>2019-05-31T14:12:16Z</time>
      </trkpt>
      <trkpt lat="44.09746" lon="3.10911">
        <ele>396.5</ele>
        <time>2019-05-31T14:12:17Z</time>
      </trkpt>
      <trkpt lat="44.0975" lon="3.10901">
        <ele>396.3</ele>
        <time>2019-05-31T14:12:18Z</time>
      </trkpt>
      <trkpt lat="44.09753" lon="3.10886">
        <ele>395.9</ele>
        <time>2019-05-31T14:12:19Z</time>
      </trkpt>
      <trkpt lat="44.09756" lon="3.10873">
        <ele>395.6</ele>
        <time>2019-05-31T14:12:20Z</time>
      </trkpt>
      <trkpt lat="44.09757" lon="3.10861">
        <ele>395.4</ele>
        <time>2019-05-31T14:12:21Z</time>
      </trkpt>
      <trkpt lat="44.09758" lon="3.10849">
        <ele>395</ele>
        <time>2019-05-31T14:12:22Z</time>
      </trkpt>
      <trkpt lat="44.09758" lon="3.10839">
        <ele>394.7</ele>
        <time>2019-05-31T14:12:23Z</time>
      </trkpt>
      <trkpt lat="44.09759" lon="3.10827">
        <ele>394.4</ele>
        <time>2019-05-31T14:12:24Z</time>
      </trkpt>
      <trkpt lat="44.09761" lon="3.10816">
        <ele>394</ele>
        <time>2019-05-31T14:12:25Z</time>
      </trkpt>
      <trkpt lat="44.09761" lon="3.10804">
        <ele>393.6</ele>
        <time>2019-05-31T14:12:26Z</time>
      </trkpt>
      <trkpt lat="44.09761" lon="3.10793">
        <ele>393.2</ele>
        <time>2019-05-31T14:12:27Z</time>
      </trkpt>
      <trkpt lat="44.09761" lon="3.10782">
        <ele>392.7</ele>
        <time>2019-05-31T14:12:28Z</time>
      </trkpt>
      <trkpt lat="44.0976" lon="3.1077">
        <ele>392.2</ele>
        <time>2019-05-31T14:12:29Z</time>
      </trkpt>
      <trkpt lat="44.0976" lon="3.10758">
        <ele>391.7</ele>
        <time>2019-05-31T14:12:30Z</time>
      </trkpt>
      <trkpt lat="44.0976" lon="3.10747">
        <ele>391.2</ele>
        <time>2019-05-31T14:12:31Z</time>
      </trkpt>
      <trkpt lat="44.09761" lon="3.10736">
        <ele>390.8</ele>
        <time>2019-05-31T14:12:32Z</time>
      </trkpt>
      <trkpt lat="44.09764" lon="3.10727">
        <ele>390.4</ele>
        <time>2019-05-31T14:12:33Z</time>
      </trkpt>
      <trkpt lat="44.09766" lon="3.10716">
        <ele>390</ele>
        <time>2019-05-31T14:12:34Z</time>
      </trkpt>
      <trkpt lat="44.09768" lon="3.10704">
        <ele>389.6</ele>
        <time>2019-05-31T14:12:35Z</time>
      </trkpt>
      <trkpt lat="44.09771" lon="3.10691">
        <ele>389.2</ele>
        <time>2019-05-31T14:12:36Z</time>
      </trkpt>
      <trkpt lat="44.09774" lon="3.1068">
        <ele>388.8</ele>
        <time>2019-05-31T14:12:37Z</time>
      </trkpt>
      <trkpt lat="44.09778" lon="3.10669">
        <ele>388.5</ele>
        <time>2019-05-31T14:12:38Z</time>
      </trkpt>
      <trkpt lat="44.09785" lon="3.10657">
        <ele>388.2</ele>
        <time>2019-05-31T14:12:39Z</time>
      </trkpt>
      <trkpt lat="44.09792" lon="3.10647">
        <ele>388.1</ele>
        <time>2019-05-31T14:12:40Z</time>
      </trkpt>
      <trkpt lat="44.09798" lon="3.10635">
        <ele>388</ele>
        <time>2019-05-31T14:12:41Z</time>
      </trkpt>
      <trkpt lat="44.09806" lon="3.10623">
        <ele>388</ele>
        <time>2019-05-31T14:12:42Z</time>
      </trkpt>
      <trkpt lat="44.09812" lon="3.10611">
        <ele>388.1</ele>
        <time>2019-05-31T14:12:43Z</time>
      </trkpt>
      <trkpt lat="44.09816" lon="3.10597">
        <ele>388.1</ele>
        <time>2019-05-31T14:12:44Z</time>
      </trkpt>
      <trkpt lat="44.09823" lon="3.10584">
        <ele>388.4</ele>
        <time>2019-05-31T14:12:45Z</time>
      </trkpt>
      <trkpt lat="44.09824" lon="3.10575">
        <ele>388.5</ele>
        <time>2019-05-31T14:12:46Z</time>
      </trkpt>
      <trkpt lat="44.09823" lon="3.10562">
        <ele>388.7</ele>
        <time>2019-05-31T14:12:47Z</time>
      </trkpt>
      <trkpt lat="44.09822" lon="3.10552">
        <ele>388.7</ele>
        <time>2019-05-31T14:12:48Z</time>
      </trkpt>
      <trkpt lat="44.0982" lon="3.1054">
        <ele>388.5</ele>
        <time>2019-05-31T14:12:49Z</time>
      </trkpt>
      <trkpt lat="44.09821" lon="3.10531">
        <ele>388.3</ele>
        <time>2019-05-31T14:12:50Z</time>
      </trkpt>
      <trkpt lat="44.09817" lon="3.10519">
        <ele>387.8</ele>
        <time>2019-05-31T14:12:51Z</time>
      </trkpt>
      <trkpt lat="44.09817" lon="3.10503">
        <ele>387.2</ele>
        <time>2019-05-31T14:12:52Z</time>
      </trkpt>
      <trkpt lat="44.09821" lon="3.10491">
        <ele>386.7</ele>
        <time>2019-05-31T14:12:53Z</time>
      </trkpt>
      <trkpt lat="44.09825" lon="3.1048">
        <ele>386.4</ele>
        <time>2019-05-31T14:12:54Z</time>
      </trkpt>
      <trkpt lat="44.09829" lon="3.10471">
        <ele>386</ele>
        <time>2019-05-31T14:12:55Z</time>
      </trkpt>
      <trkpt lat="44.09832" lon="3.10461">
        <ele>385.6</ele>
        <time>2019-05-31T14:12:56Z</time>
      </trkpt>
      <trkpt lat="44.09836" lon="3.1045">
        <ele>385.3</ele>
        <time>2019-05-31T14:12:57Z</time>
      </trkpt>
      <trkpt lat="44.09838" lon="3.10439">
        <ele>385.1</ele>
        <time>2019-05-31T14:12:58Z</time>
      </trkpt>
      <trkpt lat="44.09842" lon="3.10427">
        <ele>385</ele>
        <time>2019-05-31T14:12:59Z</time>
      </trkpt>
      <trkpt lat="44.09843" lon="3.10416">
        <ele>384.9</ele>
        <time>2019-05-31T14:13:00Z</time>
      </trkpt>
      <trkpt lat="44.09845" lon="3.10403">
        <ele>384.8</ele>
        <time>2019-05-31T14:13:01Z</time>
      </trkpt>
      <trkpt lat="44.09847" lon="3.10392">
        <ele>384.6</ele>
        <time>2019-05-31T14:13:02Z</time>
      </trkpt>
      <trkpt lat="44.0985" lon="3.10381">
        <ele>384.3</ele>
        <time>2019-05-31T14:13:03Z</time>
      </trkpt>
      <trkpt lat="44.09852" lon="3.1037">
        <ele>384.1</ele>
        <time>2019-05-31T14:13:04Z</time>
      </trkpt>
      <trkpt lat="44.09855" lon="3.10361">
        <ele>383.9</ele>
        <time>2019-05-31T14:13:05Z</time>
      </trkpt>
      <trkpt lat="44.09857" lon="3.10351">
        <ele>383.7</ele>
        <time>2019-05-31T14:13:06Z</time>
      </trkpt>
      <trkpt lat="44.09859" lon="3.10336">
        <ele>383.3</ele>
        <time>2019-05-31T14:13:07Z</time>
      </trkpt>
      <trkpt lat="44.0986" lon="3.10326">
        <ele>383</ele>
        <time>2019-05-31T14:13:08Z</time>
      </trkpt>
      <trkpt lat="44.09863" lon="3.1031">
        <ele>382.4</ele>
        <time>2019-05-31T14:13:09Z</time>
      </trkpt>
      <trkpt lat="44.09867" lon="3.103">
        <ele>382.1</ele>
        <time>2019-05-31T14:13:10Z</time>
      </trkpt>
      <trkpt lat="44.09869" lon="3.10284">
        <ele>381.8</ele>
        <time>2019-05-31T14:13:11Z</time>
      </trkpt>
      <trkpt lat="44.09871" lon="3.10273">
        <ele>381.5</ele>
        <time>2019-05-31T14:13:12Z</time>
      </trkpt>
      <trkpt lat="44.0987" lon="3.1026">
        <ele>381.1</ele>
        <time>2019-05-31T14:13:13Z</time>
      </trkpt>
      <trkpt lat="44.0987" lon="3.10245">
        <ele>380.5</ele>
        <time>2019-05-31T14:13:14Z</time>
      </trkpt>
      <trkpt lat="44.0987" lon="3.10232">
        <ele>380.2</ele>
        <time>2019-05-31T14:13:15Z</time>
      </trkpt>
      <trkpt lat="44.09871" lon="3.10218">
        <ele>380</ele>
        <time>2019-05-31T14:13:16Z</time>
      </trkpt>
      <trkpt lat="44.09871" lon="3.10206">
        <ele>380</ele>
        <time>2019-05-31T14:13:17Z</time>
      </trkpt>
      <trkpt lat="44.09873" lon="3.10193">
        <ele>379.9</ele>
        <time>2019-05-31T14:13:18Z</time>
      </trkpt>
      <trkpt lat="44.09875" lon="3.10181">
        <ele>379.8</ele>
        <time>2019-05-31T14:13:19Z</time>
      </trkpt>
      <trkpt lat="44.09876" lon="3.10172">
        <ele>379.7</ele>
        <time>2019-05-31T14:13:20Z</time>
      </trkpt>
      <trkpt lat="44.09875" lon="3.10161">
        <ele>379.4</ele>
        <time>2019-05-31T14:13:21Z</time>
      </trkpt>
      <trkpt lat="44.09874" lon="3.10152">
        <ele>379.1</ele>
        <time>2019-05-31T14:13:22Z</time>
      </trkpt>
      <trkpt lat="44.09873" lon="3.10145">
        <ele>378.8</ele>
        <time>2019-05-31T14:13:23Z</time>
      </trkpt>
      <trkpt lat="44.09873" lon="3.10135">
        <ele>378.4</ele>
        <time>2019-05-31T14:13:24Z</time>
      </trkpt>
      <trkpt lat="44.09871" lon="3.10126">
        <ele>378</ele>
        <time>2019-05-31T14:13:25Z</time>
      </trkpt>
      <trkpt lat="44.09872" lon="3.10118">
        <ele>377.6</ele>
        <time>2019-05-31T14:13:26Z</time>
      </trkpt>
      <trkpt lat="44.09872" lon="3.10108">
        <ele>377</ele>
        <time>2019-05-31T14:13:27Z</time>
      </trkpt>
      <trkpt lat="44.09872" lon="3.10098">
        <ele>376.5</ele>
        <time>2019-05-31T14:13:28Z</time>
      </trkpt>
      <trkpt lat="44.09874" lon="3.10085">
        <ele>375.6</ele>
        <time>2019-05-31T14:13:29Z</time>
      </trkpt>
      <trkpt lat="44.09874" lon="3.10074">
        <ele>375</ele>
        <time>2019-05-31T14:13:30Z</time>
      </trkpt>
      <trkpt lat="44.09871" lon="3.10063">
        <ele>374.2</ele>
        <time>2019-05-31T14:13:31Z</time>
      </trkpt>
      <trkpt lat="44.09874" lon="3.10051">
        <ele>373.3</ele>
        <time>2019-05-31T14:13:32Z</time>
      </trkpt>
      <trkpt lat="44.09875" lon="3.10037">
        <ele>372.3</ele>
        <time>2019-05-31T14:13:33Z</time>
      </trkpt>
      <trkpt lat="44.09875" lon="3.10025">
        <ele>371.6</ele>
        <time>2019-05-31T14:13:34Z</time>
      </trkpt>
      <trkpt lat="44.09877" lon="3.1001">
        <ele>370.6</ele>
        <time>2019-05-31T14:13:35Z</time>
      </trkpt>
      <trkpt lat="44.09878" lon="3.0999">
        <ele>369.5</ele>
        <time>2019-05-31T14:13:36Z</time>
      </trkpt>
      <trkpt lat="44.09878" lon="3.09974">
        <ele>368.5</ele>
        <time>2019-05-31T14:13:37Z</time>
      </trkpt>
      <trkpt lat="44.09873" lon="3.09956">
        <ele>367.7</ele>
        <time>2019-05-31T14:13:38Z</time>
      </trkpt>
      <trkpt lat="44.09873" lon="3.09939">
        <ele>366.9</ele>
        <time>2019-05-31T14:13:39Z</time>
      </trkpt>
      <trkpt lat="44.09871" lon="3.09923">
        <ele>366</ele>
        <time>2019-05-31T14:13:40Z</time>
      </trkpt>
      <trkpt lat="44.0987" lon="3.09906">
        <ele>365.1</ele>
        <time>2019-05-31T14:13:41Z</time>
      </trkpt>
      <trkpt lat="44.09868" lon="3.09887">
        <ele>364.2</ele>
        <time>2019-05-31T14:13:42Z</time>
      </trkpt>
      <trkpt lat="44.09872" lon="3.09868">
        <ele>363.8</ele>
        <time>2019-05-31T14:13:43Z</time>
      </trkpt>
      <trkpt lat="44.0987" lon="3.09844">
        <ele>363.3</ele>
        <time>2019-05-31T14:13:44Z</time>
      </trkpt>
      <trkpt lat="44.09866" lon="3.09825">
        <ele>363</ele>
        <time>2019-05-31T14:13:45Z</time>
      </trkpt>
      <trkpt lat="44.09865" lon="3.09807">
        <ele>363</ele>
        <time>2019-05-31T14:13:46Z</time>
      </trkpt>
      <trkpt lat="44.09866" lon="3.09789">
        <ele>362.9</ele>
        <time>2019-05-31T14:13:47Z</time>
      </trkpt>
      <trkpt lat="44.09867" lon="3.09773">
        <ele>362.9</ele>
        <time>2019-05-31T14:13:48Z</time>
      </trkpt>
      <trkpt lat="44.09867" lon="3.09757">
        <ele>362.7</ele>
        <time>2019-05-31T14:13:49Z</time>
      </trkpt>
      <trkpt lat="44.09864" lon="3.09739">
        <ele>362.4</ele>
        <time>2019-05-31T14:13:50Z</time>
      </trkpt>
      <trkpt lat="44.09862" lon="3.09724">
        <ele>362</ele>
        <time>2019-05-31T14:13:51Z</time>
      </trkpt>
      <trkpt lat="44.0986" lon="3.09708">
        <ele>361.6</ele>
        <time>2019-05-31T14:13:52Z</time>
      </trkpt>
      <trkpt lat="44.09858" lon="3.09696">
        <ele>361.3</ele>
        <time>2019-05-31T14:13:53Z</time>
      </trkpt>
      <trkpt lat="44.09856" lon="3.09681">
        <ele>361</ele>
        <time>2019-05-31T14:13:54Z</time>
      </trkpt>
      <trkpt lat="44.09855" lon="3.09669">
        <ele>360.7</ele>
        <time>2019-05-31T14:13:55Z</time>
      </trkpt>
      <trkpt lat="44.09854" lon="3.09656">
        <ele>360.5</ele>
        <time>2019-05-31T14:13:56Z</time>
      </trkpt>
      <trkpt lat="44.09854" lon="3.09643">
        <ele>360.1</ele>
        <time>2019-05-31T14:13:57Z</time>
      </trkpt>
      <trkpt lat="44.09856" lon="3.09632">
        <ele>359.8</ele>
        <time>2019-05-31T14:13:58Z</time>
      </trkpt>
      <trkpt lat="44.09858" lon="3.09623">
        <ele>359.6</ele>
        <time>2019-05-31T14:13:59Z</time>
      </trkpt>
      <trkpt lat="44.09858" lon="3.09611">
        <ele>359.3</ele>
        <time>2019-05-31T14:14:00Z</time>
      </trkpt>
      <trkpt lat="44.09859" lon="3.09601">
        <ele>359.1</ele>
        <time>2019-05-31T14:14:01Z</time>
      </trkpt>
      <trkpt lat="44.09862" lon="3.09591">
        <ele>359</ele>
        <time>2019-05-31T14:14:02Z</time>
      </trkpt>
      <trkpt lat="44.09866" lon="3.09582">
        <ele>359</ele>
        <time>2019-05-31T14:14:03Z</time>
      </trkpt>
      <trkpt lat="44.09869" lon="3.09576">
        <ele>358.9</ele>
        <time>2019-05-31T14:14:04Z</time>
      </trkpt>
      <trkpt lat="44.09873" lon="3.09568">
        <ele>358.9</ele>
        <time>2019-05-31T14:14:05Z</time>
      </trkpt>
      <trkpt lat="44.09877" lon="3.09561">
        <ele>358.9</ele>
        <time>2019-05-31T14:14:06Z</time>
      </trkpt>
      <trkpt lat="44.09883" lon="3.09557">
        <ele>358.9</ele>
        <time>2019-05-31T14:14:07Z</time>
      </trkpt>
      <trkpt lat="44.09888" lon="3.09552">
        <ele>358.9</ele>
        <time>2019-05-31T14:14:08Z</time>
      </trkpt>
      <trkpt lat="44.09892" lon="3.09548">
        <ele>358.9</ele>
        <time>2019-05-31T14:14:09Z</time>
      </trkpt>
      <trkpt lat="44.09898" lon="3.09542">
        <ele>358.9</ele>
        <time>2019-05-31T14:14:10Z</time>
      </trkpt>
      <trkpt lat="44.09903" lon="3.09538">
        <ele>358.9</ele>
        <time>2019-05-31T14:14:11Z</time>
      </trkpt>
      <trkpt lat="44.09909" lon="3.09532">
        <ele>359</ele>
        <time>2019-05-31T14:14:12Z</time>
      </trkpt>
      <trkpt lat="44.09914" lon="3.09527">
        <ele>359</ele>
        <time>2019-05-31T14:14:13Z</time>
      </trkpt>
      <trkpt lat="44.09918" lon="3.09522">
        <ele>359.1</ele>
        <time>2019-05-31T14:14:14Z</time>
      </trkpt>
      <trkpt lat="44.09922" lon="3.09519">
        <ele>359.1</ele>
        <time>2019-05-31T14:14:15Z</time>
      </trkpt>
      <trkpt lat="44.09924" lon="3.09508">
        <ele>359.3</ele>
        <time>2019-05-31T14:14:16Z</time>
      </trkpt>
      <trkpt lat="44.09927" lon="3.09499">
        <ele>359.5</ele>
        <time>2019-05-31T14:14:17Z</time>
      </trkpt>
      <trkpt lat="44.09931" lon="3.09492">
        <ele>359.7</ele>
        <time>2019-05-31T14:14:18Z</time>
      </trkpt>
      <trkpt lat="44.09934" lon="3.09483">
        <ele>359.8</ele>
        <time>2019-05-31T14:14:19Z</time>
      </trkpt>
      <trkpt lat="44.09937" lon="3.09469">
        <ele>359.9</ele>
        <time>2019-05-31T14:14:20Z</time>
      </trkpt>
      <trkpt lat="44.09937" lon="3.09461">
        <ele>359.9</ele>
        <time>2019-05-31T14:14:21Z</time>
      </trkpt>
      <trkpt lat="44.09936" lon="3.09454">
        <ele>359.9</ele>
        <time>2019-05-31T14:14:22Z</time>
      </trkpt>
      <trkpt lat="44.09938" lon="3.09445">
        <ele>359.9</ele>
        <time>2019-05-31T14:14:23Z</time>
      </trkpt>
      <trkpt lat="44.0994" lon="3.09441">
        <ele>359.9</ele>
        <time>2019-05-31T14:14:24Z</time>
      </trkpt>
      <trkpt lat="44.09945" lon="3.09439">
        <ele>359.9</ele>
        <time>2019-05-31T14:14:25Z</time>
      </trkpt>
      <trkpt lat="44.09947" lon="3.09434">
        <ele>359.3</ele>
        <time>2019-05-31T14:14:26Z</time>
      </trkpt>
      <trkpt lat="44.0995" lon="3.09428">
        <ele>359.1</ele>
        <time>2019-05-31T14:14:27Z</time>
      </trkpt>
      <trkpt lat="44.09953" lon="3.09423">
        <ele>359</ele>
        <time>2019-05-31T14:14:28Z</time>
      </trkpt>
      <trkpt lat="44.09956" lon="3.09416">
        <ele>358.9</ele>
        <time>2019-05-31T14:14:29Z</time>
      </trkpt>
      <trkpt lat="44.09959" lon="3.0941">
        <ele>358.8</ele>
        <time>2019-05-31T14:14:30Z</time>
      </trkpt>
      <trkpt lat="44.09961" lon="3.09404">
        <ele>358.6</ele>
        <time>2019-05-31T14:14:31Z</time>
      </trkpt>
      <trkpt lat="44.09964" lon="3.09397">
        <ele>358.5</ele>
        <time>2019-05-31T14:14:32Z</time>
      </trkpt>
      <trkpt lat="44.09967" lon="3.09387">
        <ele>358.5</ele>
        <time>2019-05-31T14:14:33Z</time>
      </trkpt>
      <trkpt lat="44.09971" lon="3.0938">
        <ele>358.5</ele>
        <time>2019-05-31T14:14:34Z</time>
      </trkpt>
      <trkpt lat="44.09974" lon="3.09373">
        <ele>358.6</ele>
        <time>2019-05-31T14:14:35Z</time>
      </trkpt>
      <trkpt lat="44.09977" lon="3.09367">
        <ele>358.7</ele>
        <time>2019-05-31T14:14:36Z</time>
      </trkpt>
      <trkpt lat="44.09978" lon="3.09361">
        <ele>358.8</ele>
        <time>2019-05-31T14:14:38Z</time>
      </trkpt>
      <trkpt lat="44.09972" lon="3.09351">
        <ele>358.9</ele>
        <time>2019-05-31T14:14:40Z</time>
      </trkpt>
      <trkpt lat="44.0997" lon="3.09347">
        <ele>358.9</ele>
        <time>2019-05-31T14:14:41Z</time>
      </trkpt>
      <trkpt lat="44.09971" lon="3.0934">
        <ele>359</ele>
        <time>2019-05-31T14:14:43Z</time>
      </trkpt>
      <trkpt lat="44.0997" lon="3.09336">
        <ele>359.1</ele>
        <time>2019-05-31T14:14:44Z</time>
      </trkpt>
      <trkpt lat="44.09971" lon="3.09334">
        <ele>359.1</ele>
        <time>2019-05-31T14:14:45Z</time>
      </trkpt>
      <trkpt lat="44.09975" lon="3.09331">
        <ele>359.2</ele>
        <time>2019-05-31T14:14:46Z</time>
      </trkpt>
      <trkpt lat="44.09981" lon="3.09329">
        <ele>359.4</ele>
        <time>2019-05-31T14:14:47Z</time>
      </trkpt>
      <trkpt lat="44.09987" lon="3.09326">
        <ele>359.5</ele>
        <time>2019-05-31T14:14:48Z</time>
      </trkpt>
      <trkpt lat="44.09992" lon="3.09323">
        <ele>359.8</ele>
        <time>2019-05-31T14:14:49Z</time>
      </trkpt>
      <trkpt lat="44.09996" lon="3.0932">
        <ele>360</ele>
        <time>2019-05-31T14:14:50Z</time>
      </trkpt>
      <trkpt lat="44.10001" lon="3.09315">
        <ele>360.2</ele>
        <time>2019-05-31T14:14:51Z</time>
      </trkpt>
      <trkpt lat="44.10004" lon="3.09311">
        <ele>360.3</ele>
        <time>2019-05-31T14:14:52Z</time>
      </trkpt>
      <trkpt lat="44.10008" lon="3.09308">
        <ele>360.5</ele>
        <time>2019-05-31T14:14:53Z</time>
      </trkpt>
      <trkpt lat="44.1001" lon="3.09304">
        <ele>360.6</ele>
        <time>2019-05-31T14:14:54Z</time>
      </trkpt>
      <trkpt lat="44.10013" lon="3.093">
        <ele>360.9</ele>
        <time>2019-05-31T14:14:55Z</time>
      </trkpt>
      <trkpt lat="44.10017" lon="3.09292">
        <ele>361.2</ele>
        <time>2019-05-31T14:14:56Z</time>
      </trkpt>
      <trkpt lat="44.10019" lon="3.09286">
        <ele>361.5</ele>
        <time>2019-05-31T14:14:57Z</time>
      </trkpt>
      <trkpt lat="44.1002" lon="3.09282">
        <ele>361.6</ele>
        <time>2019-05-31T14:14:58Z</time>
      </trkpt>
      <trkpt lat="44.10022" lon="3.09278">
        <ele>361.8</ele>
        <time>2019-05-31T14:15:09Z</time>
      </trkpt>
      <trkpt lat="44.10024" lon="3.09275">
        <ele>362</ele>
        <time>2019-05-31T14:15:11Z</time>
      </trkpt>
      <trkpt lat="44.10027" lon="3.09273">
        <ele>362.1</ele>
        <time>2019-05-31T14:15:13Z</time>
      </trkpt>
      <trkpt lat="44.1003" lon="3.09271">
        <ele>362.3</ele>
        <time>2019-05-31T14:15:14Z</time>
      </trkpt>
      <trkpt lat="44.10034" lon="3.09267">
        <ele>362.5</ele>
        <time>2019-05-31T14:15:16Z</time>
      </trkpt>
      <trkpt lat="44.10038" lon="3.09264">
        <ele>362.8</ele>
        <time>2019-05-31T14:15:17Z</time>
      </trkpt>
      <trkpt lat="44.10041" lon="3.09261">
        <ele>363</ele>
        <time>2019-05-31T14:15:18Z</time>
      </trkpt>
      <trkpt lat="44.10044" lon="3.09258">
        <ele>363.2</ele>
        <time>2019-05-31T14:15:19Z</time>
      </trkpt>
      <trkpt lat="44.10047" lon="3.09255">
        <ele>363.3</ele>
        <time>2019-05-31T14:15:20Z</time>
      </trkpt>
      <trkpt lat="44.1005" lon="3.09249">
        <ele>363.5</ele>
        <time>2019-05-31T14:15:21Z</time>
      </trkpt>
      <trkpt lat="44.10052" lon="3.09245">
        <ele>363.6</ele>
        <time>2019-05-31T14:15:22Z</time>
      </trkpt>
      <trkpt lat="44.10055" lon="3.0924">
        <ele>363.8</ele>
        <time>2019-05-31T14:15:23Z</time>
      </trkpt>
      <trkpt lat="44.10058" lon="3.09235">
        <ele>363.9</ele>
        <time>2019-05-31T14:15:24Z</time>
      </trkpt>
      <trkpt lat="44.10061" lon="3.09231">
        <ele>364.1</ele>
        <time>2019-05-31T14:15:25Z</time>
      </trkpt>
      <trkpt lat="44.10064" lon="3.09225">
        <ele>364.2</ele>
        <time>2019-05-31T14:15:26Z</time>
      </trkpt>
      <trkpt lat="44.10067" lon="3.0922">
        <ele>364.4</ele>
        <time>2019-05-31T14:15:27Z</time>
      </trkpt>
      <trkpt lat="44.10071" lon="3.09214">
        <ele>364.5</ele>
        <time>2019-05-31T14:15:28Z</time>
      </trkpt>
      <trkpt lat="44.10073" lon="3.0921">
        <ele>364.6</ele>
        <time>2019-05-31T14:15:29Z</time>
      </trkpt>
      <trkpt lat="44.10075" lon="3.09206">
        <ele>364.7</ele>
        <time>2019-05-31T14:15:30Z</time>
      </trkpt>
      <trkpt lat="44.10076" lon="3.09201">
        <ele>364.7</ele>
        <time>2019-05-31T14:15:31Z</time>
      </trkpt>
      <trkpt lat="44.10076" lon="3.09194">
        <ele>364.8</ele>
        <time>2019-05-31T14:15:32Z</time>
      </trkpt>
      <trkpt lat="44.10077" lon="3.09188">
        <ele>364.8</ele>
        <time>2019-05-31T14:15:33Z</time>
      </trkpt>
      <trkpt lat="44.10077" lon="3.0918">
        <ele>364.8</ele>
        <time>2019-05-31T14:15:34Z</time>
      </trkpt>
      <trkpt lat="44.10078" lon="3.09174">
        <ele>364.8</ele>
        <time>2019-05-31T14:15:35Z</time>
      </trkpt>
      <trkpt lat="44.1008" lon="3.09166">
        <ele>364.7</ele>
        <time>2019-05-31T14:15:36Z</time>
      </trkpt>
      <trkpt lat="44.10082" lon="3.09162">
        <ele>364.6</ele>
        <time>2019-05-31T14:15:37Z</time>
      </trkpt>
      <trkpt lat="44.10086" lon="3.09159">
        <ele>364.5</ele>
        <time>2019-05-31T14:15:38Z</time>
      </trkpt>
      <trkpt lat="44.10092" lon="3.09154">
        <ele>364.4</ele>
        <time>2019-05-31T14:15:39Z</time>
      </trkpt>
      <trkpt lat="44.10099" lon="3.0915">
        <ele>364.2</ele>
        <time>2019-05-31T14:15:40Z</time>
      </trkpt>
      <trkpt lat="44.10105" lon="3.09143">
        <ele>364</ele>
        <time>2019-05-31T14:15:41Z</time>
      </trkpt>
      <trkpt lat="44.1011" lon="3.09139">
        <ele>363.9</ele>
        <time>2019-05-31T14:15:42Z</time>
      </trkpt>
      <trkpt lat="44.10115" lon="3.09134">
        <ele>363.7</ele>
        <time>2019-05-31T14:15:43Z</time>
      </trkpt>
      <trkpt lat="44.1012" lon="3.09129">
        <ele>363.6</ele>
        <time>2019-05-31T14:15:44Z</time>
      </trkpt>
      <trkpt lat="44.10124" lon="3.09124">
        <ele>363.5</ele>
        <time>2019-05-31T14:15:45Z</time>
      </trkpt>
      <trkpt lat="44.10128" lon="3.09118">
        <ele>363.4</ele>
        <time>2019-05-31T14:15:46Z</time>
      </trkpt>
      <trkpt lat="44.10135" lon="3.09116">
        <ele>363.3</ele>
        <time>2019-05-31T14:15:47Z</time>
      </trkpt>
      <trkpt lat="44.10138" lon="3.09111">
        <ele>363</ele>
        <time>2019-05-31T14:15:48Z</time>
      </trkpt>
      <trkpt lat="44.10143" lon="3.09109">
        <ele>362.6</ele>
        <time>2019-05-31T14:15:49Z</time>
      </trkpt>
      <trkpt lat="44.10147" lon="3.09104">
        <ele>362.2</ele>
        <time>2019-05-31T14:15:50Z</time>
      </trkpt>
      <trkpt lat="44.10151" lon="3.09104">
        <ele>362</ele>
        <time>2019-05-31T14:15:51Z</time>
      </trkpt>
      <trkpt lat="44.10154" lon="3.09104">
        <ele>361.9</ele>
        <time>2019-05-31T14:15:52Z</time>
      </trkpt>
      <trkpt lat="44.10158" lon="3.09103">
        <ele>361.8</ele>
        <time>2019-05-31T14:15:53Z</time>
      </trkpt>
      <trkpt lat="44.1016" lon="3.09107">
        <ele>361.8</ele>
        <time>2019-05-31T14:15:54Z</time>
      </trkpt>
      <trkpt lat="44.10165" lon="3.09108">
        <ele>361.8</ele>
        <time>2019-05-31T14:15:56Z</time>
      </trkpt>
      <trkpt lat="44.1017" lon="3.09109">
        <ele>361.8</ele>
        <time>2019-05-31T14:15:57Z</time>
      </trkpt>
      <trkpt lat="44.10175" lon="3.09106">
        <ele>361.8</ele>
        <time>2019-05-31T14:15:58Z</time>
      </trkpt>
      <trkpt lat="44.1018" lon="3.09107">
        <ele>361.7</ele>
        <time>2019-05-31T14:15:59Z</time>
      </trkpt>
      <trkpt lat="44.10185" lon="3.09106">
        <ele>361.7</ele>
        <time>2019-05-31T14:16:00Z</time>
      </trkpt>
      <trkpt lat="44.10189" lon="3.09106">
        <ele>361.6</ele>
        <time>2019-05-31T14:16:01Z</time>
      </trkpt>
      <trkpt lat="44.10192" lon="3.09106">
        <ele>361.6</ele>
        <time>2019-05-31T14:16:02Z</time>
      </trkpt>
      <trkpt lat="44.10195" lon="3.09106">
        <ele>361.6</ele>
        <time>2019-05-31T14:16:03Z</time>
      </trkpt>
      <trkpt lat="44.10198" lon="3.09106">
        <ele>361.6</ele>
        <time>2019-05-31T14:16:04Z</time>
      </trkpt>
      <trkpt lat="44.10202" lon="3.09106">
        <ele>361.5</ele>
        <time>2019-05-31T14:16:05Z</time>
      </trkpt>
      <trkpt lat="44.10205" lon="3.09105">
        <ele>361.4</ele>
        <time>2019-05-31T14:16:06Z</time>
      </trkpt>
      <trkpt lat="44.10209" lon="3.09104">
        <ele>361.4</ele>
        <time>2019-05-31T14:16:07Z</time>
      </trkpt>
      <trkpt lat="44.10212" lon="3.09103">
        <ele>361.3</ele>
        <time>2019-05-31T14:16:08Z</time>
      </trkpt>
      <trkpt lat="44.10215" lon="3.09102">
        <ele>361.2</ele>
        <time>2019-05-31T14:16:09Z</time>
      </trkpt>
      <trkpt lat="44.1022" lon="3.09101">
        <ele>361</ele>
        <time>2019-05-31T14:16:11Z</time>
      </trkpt>
      <trkpt lat="44.10223" lon="3.09101">
        <ele>360.9</ele>
        <time>2019-05-31T14:16:12Z</time>
      </trkpt>
      <trkpt lat="44.10226" lon="3.09101">
        <ele>360.8</ele>
        <time>2019-05-31T14:16:13Z</time>
      </trkpt>
      <trkpt lat="44.1023" lon="3.09101">
        <ele>360.7</ele>
        <time>2019-05-31T14:16:14Z</time>
      </trkpt>
      <trkpt lat="44.10233" lon="3.09101">
        <ele>360.6</ele>
        <time>2019-05-31T14:16:15Z</time>
      </trkpt>
      <trkpt lat="44.10235" lon="3.09101">
        <ele>360.4</ele>
        <time>2019-05-31T14:16:16Z</time>
      </trkpt>
      <trkpt lat="44.10239" lon="3.09099">
        <ele>360.3</ele>
        <time>2019-05-31T14:16:18Z</time>
      </trkpt>
      <trkpt lat="44.10241" lon="3.09096">
        <ele>360.1</ele>
        <time>2019-05-31T14:16:20Z</time>
      </trkpt>
      <trkpt lat="44.10244" lon="3.09091">
        <ele>360</ele>
        <time>2019-05-31T14:16:22Z</time>
      </trkpt>
      <trkpt lat="44.10247" lon="3.09087">
        <ele>359.8</ele>
        <time>2019-05-31T14:16:24Z</time>
      </trkpt>
      <trkpt lat="44.10251" lon="3.09088">
        <ele>360.2</ele>
        <time>2019-05-31T14:16:26Z</time>
      </trkpt>
      <trkpt lat="44.10253" lon="3.09092">
        <ele>360.4</ele>
        <time>2019-05-31T14:16:28Z</time>
      </trkpt>
      <trkpt lat="44.10255" lon="3.09097">
        <ele>360.6</ele>
        <time>2019-05-31T14:16:30Z</time>
      </trkpt>
      <trkpt lat="44.10256" lon="3.09101">
        <ele>360.8</ele>
        <time>2019-05-31T14:16:32Z</time>
      </trkpt>
      <trkpt lat="44.1026" lon="3.09102">
        <ele>361.8</ele>
        <time>2019-05-31T14:16:46Z</time>
      </trkpt>
      <trkpt lat="44.10263" lon="3.09102">
        <ele>361.8</ele>
        <time>2019-05-31T14:16:47Z</time>
      </trkpt>
      <trkpt lat="44.10266" lon="3.09102">
        <ele>361.8</ele>
        <time>2019-05-31T14:16:48Z</time>
      </trkpt>
      <trkpt lat="44.1027" lon="3.09102">
        <ele>362.6</ele>
        <time>2019-05-31T14:16:49Z</time>
      </trkpt>
      <trkpt lat="44.10275" lon="3.09102">
        <ele>362.6</ele>
        <time>2019-05-31T14:16:50Z</time>
      </trkpt>
      <trkpt lat="44.1028" lon="3.09099">
        <ele>363.1</ele>
        <time>2019-05-31T14:16:51Z</time>
      </trkpt>
      <trkpt lat="44.10284" lon="3.09092">
        <ele>363.1</ele>
        <time>2019-05-31T14:16:52Z</time>
      </trkpt>
      <trkpt lat="44.10288" lon="3.09086">
        <ele>363.1</ele>
        <time>2019-05-31T14:16:53Z</time>
      </trkpt>
      <trkpt lat="44.10291" lon="3.09077">
        <ele>363.1</ele>
        <time>2019-05-31T14:16:54Z</time>
      </trkpt>
      <trkpt lat="44.10295" lon="3.09071">
        <ele>363.1</ele>
        <time>2019-05-31T14:16:55Z</time>
      </trkpt>
      <trkpt lat="44.103" lon="3.09064">
        <ele>363.1</ele>
        <time>2019-05-31T14:16:56Z</time>
      </trkpt>
      <trkpt lat="44.10306" lon="3.09051">
        <ele>363</ele>
        <time>2019-05-31T14:16:57Z</time>
      </trkpt>
      <trkpt lat="44.10308" lon="3.09042">
        <ele>362.9</ele>
        <time>2019-05-31T14:16:58Z</time>
      </trkpt>
      <trkpt lat="44.10311" lon="3.09034">
        <ele>362.8</ele>
        <time>2019-05-31T14:16:59Z</time>
      </trkpt>
      <trkpt lat="44.10313" lon="3.09025">
        <ele>362.6</ele>
        <time>2019-05-31T14:17:00Z</time>
      </trkpt>
      <trkpt lat="44.10316" lon="3.09016">
        <ele>362.4</ele>
        <time>2019-05-31T14:17:01Z</time>
      </trkpt>
      <trkpt lat="44.10317" lon="3.09005">
        <ele>362.1</ele>
        <time>2019-05-31T14:17:02Z</time>
      </trkpt>
      <trkpt lat="44.10319" lon="3.08994">
        <ele>361.6</ele>
        <time>2019-05-31T14:17:03Z</time>
      </trkpt>
      <trkpt lat="44.10318" lon="3.08984">
        <ele>361</ele>
        <time>2019-05-31T14:17:04Z</time>
      </trkpt>
      <trkpt lat="44.10318" lon="3.08974">
        <ele>360.7</ele>
        <time>2019-05-31T14:17:05Z</time>
      </trkpt>
      <trkpt lat="44.10317" lon="3.08965">
        <ele>360.5</ele>
        <time>2019-05-31T14:17:06Z</time>
      </trkpt>
      <trkpt lat="44.10316" lon="3.08956">
        <ele>360.2</ele>
        <time>2019-05-31T14:17:07Z</time>
      </trkpt>
      <trkpt lat="44.10316" lon="3.08949">
        <ele>360</ele>
        <time>2019-05-31T14:17:08Z</time>
      </trkpt>
      <trkpt lat="44.10318" lon="3.08942">
        <ele>359.8</ele>
        <time>2019-05-31T14:17:09Z</time>
      </trkpt>
      <trkpt lat="44.10322" lon="3.08938">
        <ele>359.7</ele>
        <time>2019-05-31T14:17:10Z</time>
      </trkpt>
      <trkpt lat="44.10327" lon="3.08932">
        <ele>359.6</ele>
        <time>2019-05-31T14:17:11Z</time>
      </trkpt>
      <trkpt lat="44.10329" lon="3.08927">
        <ele>359.5</ele>
        <time>2019-05-31T14:17:12Z</time>
      </trkpt>
      <trkpt lat="44.10332" lon="3.08925">
        <ele>359.4</ele>
        <time>2019-05-31T14:17:13Z</time>
      </trkpt>
      <trkpt lat="44.10336" lon="3.08924">
        <ele>359.4</ele>
        <time>2019-05-31T14:17:14Z</time>
      </trkpt>
      <trkpt lat="44.10339" lon="3.08922">
        <ele>359.4</ele>
        <time>2019-05-31T14:17:15Z</time>
      </trkpt>
      <trkpt lat="44.10343" lon="3.08921">
        <ele>359.4</ele>
        <time>2019-05-31T14:17:16Z</time>
      </trkpt>
      <trkpt lat="44.10346" lon="3.08916">
        <ele>359.3</ele>
        <time>2019-05-31T14:17:17Z</time>
      </trkpt>
      <trkpt lat="44.10349" lon="3.08912">
        <ele>359.2</ele>
        <time>2019-05-31T14:17:18Z</time>
      </trkpt>
      <trkpt lat="44.10352" lon="3.08906">
        <ele>359.1</ele>
        <time>2019-05-31T14:17:19Z</time>
      </trkpt>
      <trkpt lat="44.10355" lon="3.08899">
        <ele>359</ele>
        <time>2019-05-31T14:17:20Z</time>
      </trkpt>
      <trkpt lat="44.10356" lon="3.08893">
        <ele>358.8</ele>
        <time>2019-05-31T14:17:21Z</time>
      </trkpt>
      <trkpt lat="44.10355" lon="3.08885">
        <ele>358.7</ele>
        <time>2019-05-31T14:17:22Z</time>
      </trkpt>
      <trkpt lat="44.10353" lon="3.08879">
        <ele>358.6</ele>
        <time>2019-05-31T14:17:23Z</time>
      </trkpt>
      <trkpt lat="44.10351" lon="3.08873">
        <ele>358.4</ele>
        <time>2019-05-31T14:17:24Z</time>
      </trkpt>
      <trkpt lat="44.10349" lon="3.08867">
        <ele>358.3</ele>
        <time>2019-05-31T14:17:25Z</time>
      </trkpt>
      <trkpt lat="44.10347" lon="3.08861">
        <ele>358.3</ele>
        <time>2019-05-31T14:17:26Z</time>
      </trkpt>
      <trkpt lat="44.10347" lon="3.08854">
        <ele>358.3</ele>
        <time>2019-05-31T14:17:27Z</time>
      </trkpt>
      <trkpt lat="44.10346" lon="3.08849">
        <ele>358.3</ele>
        <time>2019-05-31T14:17:28Z</time>
      </trkpt>
      <trkpt lat="44.10348" lon="3.08843">
        <ele>358.3</ele>
        <time>2019-05-31T14:17:29Z</time>
      </trkpt>
      <trkpt lat="44.10351" lon="3.08839">
        <ele>358.3</ele>
        <time>2019-05-31T14:17:30Z</time>
      </trkpt>
      <trkpt lat="44.10354" lon="3.08833">
        <ele>358.3</ele>
        <time>2019-05-31T14:17:32Z</time>
      </trkpt>
      <trkpt lat="44.10355" lon="3.08829">
        <ele>358.3</ele>
        <time>2019-05-31T14:17:34Z</time>
      </trkpt>
      <trkpt lat="44.10353" lon="3.08826">
        <ele>358.3</ele>
        <time>2019-05-31T14:18:43Z</time>
      </trkpt>
      <trkpt lat="44.10354" lon="3.0883">
        <ele>358.3</ele>
        <time>2019-05-31T14:18:55Z</time>
      </trkpt>
    </trkseg>
  </trk>
</gpx>